<?xml version='1.0' encoding='UTF-8'?><gpx version="1.1" creator="JPX - https://github.com/jenetics/jpx" xmlns="http://www.topografix.com/GPX/1/1"><trk><trkseg><trkpt lat="43.5443482" lon="6.9676578"><ele>1.0</ele><time>2026-04-12T05:25:45.867Z</time></trkpt><trkpt lat="43.5443189" lon="6.9675679"><ele>0.9999999999999999</ele><time>2026-04-12T05:25:51.916Z</time></trkpt><trkpt lat="43.5442925" lon="6.9674809"><ele>1.0</ele><time>2026-04-12T05:25:58.957Z</time></trkpt><trkpt lat="43.5442638" lon="6.9673764"><ele>1.0</ele><time>2026-04-12T05:31:04.902Z</time></trkpt><trkpt lat="43.5442223" lon="6.9672977"><ele>0.9999999999999999</ele><time>2026-04-12T05:31:09.962Z</time></trkpt><trkpt lat="43.5441798" lon="6.9672192"><ele>1.0</ele><time>2026-04-12T05:31:15.903Z</time></trkpt><trkpt lat="43.5441368" lon="6.9671313"><ele>1.0</ele><time>2026-04-12T05:31:21.807Z</time></trkpt><trkpt lat="43.5441062" lon="6.967045"><ele>1.3333333333333333</ele><time>2026-04-12T05:31:26.808Z</time></trkpt><trkpt lat="43.5440715" lon="6.966957"><ele>1.6666666666666665</ele><time>2026-04-12T05:31:32.807Z</time></trkpt><trkpt lat="43.5440569" lon="6.9668636"><ele>2.0</ele><time>2026-04-12T05:31:39.808Z</time></trkpt><trkpt lat="43.5440318" lon="6.9667694"><ele>2.3333333333333335</ele><time>2026-04-12T05:31:46.808Z</time></trkpt><trkpt lat="43.5440036" lon="6.9666711"><ele>2.6666666666666665</ele><time>2026-04-12T05:31:52.809Z</time></trkpt><trkpt lat="43.5439649" lon="6.9665888"><ele>3.0</ele><time>2026-04-12T05:31:55.808Z</time></trkpt><trkpt lat="43.5439376" lon="6.9664621"><ele>3.2</ele><time>2026-04-12T05:31:58.808Z</time></trkpt><trkpt lat="43.543913" lon="6.9663475"><ele>3.4</ele><time>2026-04-12T05:32:00.808Z</time></trkpt><trkpt lat="43.5438709" lon="6.9662181"><ele>3.6000000000000005</ele><time>2026-04-12T05:32:02.808Z</time></trkpt><trkpt lat="43.5438214" lon="6.9660776"><ele>3.8000000000000003</ele><time>2026-04-12T05:32:04.808Z</time></trkpt><trkpt lat="43.5437768" lon="6.9659487"><ele>4.0</ele><time>2026-04-12T05:32:06.808Z</time></trkpt><trkpt lat="43.5437329" lon="6.9658242"><ele>3.8000000000000003</ele><time>2026-04-12T05:32:08.808Z</time></trkpt><trkpt lat="43.5436887" lon="6.9656957"><ele>3.6000000000000005</ele><time>2026-04-12T05:32:10.809Z</time></trkpt><trkpt lat="43.5436394" lon="6.9655607"><ele>3.4</ele><time>2026-04-12T05:32:12.809Z</time></trkpt><trkpt lat="43.5435839" lon="6.9654235"><ele>3.2</ele><time>2026-04-12T05:32:14.809Z</time></trkpt><trkpt lat="43.5435273" lon="6.9652736"><ele>3.0</ele><time>2026-04-12T05:32:16.809Z</time></trkpt><trkpt lat="43.5434667" lon="6.965126"><ele>4.0</ele><time>2026-04-12T05:32:18.809Z</time></trkpt><trkpt lat="43.5434066" lon="6.9649728"><ele>5.0</ele><time>2026-04-12T05:32:20.809Z</time></trkpt><trkpt lat="43.5433771" lon="6.964894"><ele>6.0</ele><time>2026-04-12T05:32:21.808Z</time></trkpt><trkpt lat="43.5433476" lon="6.9648147"><ele>7.0</ele><time>2026-04-12T05:32:22.81Z</time></trkpt><trkpt lat="43.5433171" lon="6.9647359"><ele>8.0</ele><time>2026-04-12T05:32:23.81Z</time></trkpt><trkpt lat="43.543285" lon="6.9646572"><ele>9.0</ele><time>2026-04-12T05:32:24.808Z</time></trkpt><trkpt lat="43.543249" lon="6.964579"><ele>9.000000000000002</ele><time>2026-04-12T05:32:25.81Z</time></trkpt><trkpt lat="43.5432133" lon="6.9645008"><ele>9.0</ele><time>2026-04-12T05:32:26.809Z</time></trkpt><trkpt lat="43.5431771" lon="6.9644206"><ele>9.0</ele><time>2026-04-12T05:32:27.809Z</time></trkpt><trkpt lat="43.5431398" lon="6.9643385"><ele>9.0</ele><time>2026-04-12T05:32:28.809Z</time></trkpt><trkpt lat="43.5431032" lon="6.9642544"><ele>9.0</ele><time>2026-04-12T05:32:29.81Z</time></trkpt><trkpt lat="43.5430652" lon="6.9641709"><ele>9.000000000000002</ele><time>2026-04-12T05:32:30.809Z</time></trkpt><trkpt lat="43.5430277" lon="6.9640868"><ele>9.0</ele><time>2026-04-12T05:32:31.809Z</time></trkpt><trkpt lat="43.5429898" lon="6.9640017"><ele>9.000000000000002</ele><time>2026-04-12T05:32:32.809Z</time></trkpt><trkpt lat="43.5429512" lon="6.963916"><ele>9.0</ele><time>2026-04-12T05:32:33.809Z</time></trkpt><trkpt lat="43.5429138" lon="6.9638285"><ele>9.0</ele><time>2026-04-12T05:32:34.809Z</time></trkpt><trkpt lat="43.5428787" lon="6.9637408"><ele>9.0</ele><time>2026-04-12T05:32:35.809Z</time></trkpt><trkpt lat="43.5428405" lon="6.963654"><ele>9.0</ele><time>2026-04-12T05:32:36.809Z</time></trkpt><trkpt lat="43.542798" lon="6.9635712"><ele>9.000000000000002</ele><time>2026-04-12T05:32:37.809Z</time></trkpt><trkpt lat="43.542758" lon="6.9634907"><ele>9.0</ele><time>2026-04-12T05:32:38.809Z</time></trkpt><trkpt lat="43.5427171" lon="6.9634032"><ele>9.0</ele><time>2026-04-12T05:32:39.809Z</time></trkpt><trkpt lat="43.5426746" lon="6.9633152"><ele>9.0</ele><time>2026-04-12T05:32:40.809Z</time></trkpt><trkpt lat="43.5426327" lon="6.9632265"><ele>9.0</ele><time>2026-04-12T05:32:41.81Z</time></trkpt><trkpt lat="43.5425911" lon="6.9631375"><ele>9.0</ele><time>2026-04-12T05:32:42.81Z</time></trkpt><trkpt lat="43.542551" lon="6.9630472"><ele>9.0</ele><time>2026-04-12T05:32:43.81Z</time></trkpt><trkpt lat="43.5425112" lon="6.9629569"><ele>9.0</ele><time>2026-04-12T05:32:44.809Z</time></trkpt><trkpt lat="43.5424703" lon="6.9628675"><ele>9.0</ele><time>2026-04-12T05:32:45.809Z</time></trkpt><trkpt lat="43.5424315" lon="6.9627767"><ele>9.0</ele><time>2026-04-12T05:32:46.809Z</time></trkpt><trkpt lat="43.5423913" lon="6.9626853"><ele>9.0</ele><time>2026-04-12T05:32:47.809Z</time></trkpt><trkpt lat="43.5423455" lon="6.9625965"><ele>9.0</ele><time>2026-04-12T05:32:48.809Z</time></trkpt><trkpt lat="43.5423016" lon="6.9625081"><ele>9.0</ele><time>2026-04-12T05:32:49.809Z</time></trkpt><trkpt lat="43.5422596" lon="6.962418"><ele>9.0</ele><time>2026-04-12T05:32:50.809Z</time></trkpt><trkpt lat="43.5422184" lon="6.9623283"><ele>9.285714285714286</ele><time>2026-04-12T05:32:51.81Z</time></trkpt><trkpt lat="43.5421769" lon="6.9622395"><ele>9.571428571428571</ele><time>2026-04-12T05:32:52.809Z</time></trkpt><trkpt lat="43.5421376" lon="6.9621528"><ele>9.857142857142858</ele><time>2026-04-12T05:32:53.809Z</time></trkpt><trkpt lat="43.5420979" lon="6.9620677"><ele>10.142857142857142</ele><time>2026-04-12T05:32:54.809Z</time></trkpt><trkpt lat="43.5420588" lon="6.9619813"><ele>10.428571428571429</ele><time>2026-04-12T05:32:55.81Z</time></trkpt><trkpt lat="43.5420219" lon="6.9618943"><ele>10.714285714285715</ele><time>2026-04-12T05:32:56.809Z</time></trkpt><trkpt lat="43.5419857" lon="6.9618085"><ele>11.0</ele><time>2026-04-12T05:32:57.81Z</time></trkpt><trkpt lat="43.5419545" lon="6.9617248"><ele>10.166666666666666</ele><time>2026-04-12T05:32:58.809Z</time></trkpt><trkpt lat="43.5419223" lon="6.9616417"><ele>9.333333333333332</ele><time>2026-04-12T05:32:59.811Z</time></trkpt><trkpt lat="43.5418914" lon="6.9615631"><ele>8.5</ele><time>2026-04-12T05:33:00.809Z</time></trkpt><trkpt lat="43.5418309" lon="6.9614159"><ele>7.666666666666666</ele><time>2026-04-12T05:33:02.81Z</time></trkpt><trkpt lat="43.5418044" lon="6.9613358"><ele>6.833333333333333</ele><time>2026-04-12T05:33:03.81Z</time></trkpt><trkpt lat="43.5417977" lon="6.9612482"><ele>6.0</ele><time>2026-04-12T05:33:04.81Z</time></trkpt><trkpt lat="43.5418632" lon="6.961103"><ele>6.0</ele><time>2026-04-12T05:33:06.809Z</time></trkpt><trkpt lat="43.5419126" lon="6.9610399"><ele>6.0</ele><time>2026-04-12T05:33:07.809Z</time></trkpt><trkpt lat="43.5419652" lon="6.9609728"><ele>6.0</ele><time>2026-04-12T05:33:08.811Z</time></trkpt><trkpt lat="43.5420216" lon="6.9609"><ele>6.0</ele><time>2026-04-12T05:33:09.809Z</time></trkpt><trkpt lat="43.54208" lon="6.9608251"><ele>6.0</ele><time>2026-04-12T05:33:10.81Z</time></trkpt><trkpt lat="43.5421485" lon="6.9607444"><ele>6.0</ele><time>2026-04-12T05:33:11.81Z</time></trkpt><trkpt lat="43.5422236" lon="6.9606644"><ele>6.199999999999999</ele><time>2026-04-12T05:33:12.81Z</time></trkpt><trkpt lat="43.5422976" lon="6.960585"><ele>6.3999999999999995</ele><time>2026-04-12T05:33:13.81Z</time></trkpt><trkpt lat="43.5423768" lon="6.9605056"><ele>6.6</ele><time>2026-04-12T05:33:14.81Z</time></trkpt><trkpt lat="43.5424595" lon="6.9604351"><ele>6.8</ele><time>2026-04-12T05:33:15.81Z</time></trkpt><trkpt lat="43.5425333" lon="6.9603724"><ele>7.0</ele><time>2026-04-12T05:33:16.81Z</time></trkpt><trkpt lat="43.5425976" lon="6.9603142"><ele>7.000000000000001</ele><time>2026-04-12T05:33:17.81Z</time></trkpt><trkpt lat="43.5426605" lon="6.9602558"><ele>7.0</ele><time>2026-04-12T05:33:18.81Z</time></trkpt><trkpt lat="43.5427211" lon="6.9602"><ele>7.0</ele><time>2026-04-12T05:33:19.811Z</time></trkpt><trkpt lat="43.5427776" lon="6.9601446"><ele>7.0</ele><time>2026-04-12T05:33:20.81Z</time></trkpt><trkpt lat="43.5428729" lon="6.960047"><ele>7.000000000000001</ele><time>2026-04-12T05:33:22.811Z</time></trkpt><trkpt lat="43.5429638" lon="6.9599751"><ele>7.0</ele><time>2026-04-12T05:33:24.81Z</time></trkpt><trkpt lat="43.5430652" lon="6.9599868"><ele>6.5</ele><time>2026-04-12T05:33:26.811Z</time></trkpt><trkpt lat="43.5431554" lon="6.9600721"><ele>6.0</ele><time>2026-04-12T05:33:28.81Z</time></trkpt><trkpt lat="43.5432641" lon="6.9601144"><ele>5.5</ele><time>2026-04-12T05:33:30.81Z</time></trkpt><trkpt lat="43.5433772" lon="6.9600842"><ele>5.0</ele><time>2026-04-12T05:33:32.81Z</time></trkpt><trkpt lat="43.5434925" lon="6.9600596"><ele>5.0</ele><time>2026-04-12T05:33:34.81Z</time></trkpt><trkpt lat="43.5436074" lon="6.9600965"><ele>5.0</ele><time>2026-04-12T05:33:36.81Z</time></trkpt><trkpt lat="43.5437146" lon="6.9601881"><ele>5.0</ele><time>2026-04-12T05:33:38.81Z</time></trkpt><trkpt lat="43.5437656" lon="6.9602398"><ele>5.0</ele><time>2026-04-12T05:33:39.811Z</time></trkpt><trkpt lat="43.5438675" lon="6.9603423"><ele>5.0</ele><time>2026-04-12T05:33:41.81Z</time></trkpt><trkpt lat="43.543977" lon="6.9604224"><ele>5.0</ele><time>2026-04-12T05:33:43.81Z</time></trkpt><trkpt lat="43.5440323" lon="6.960471"><ele>5.0</ele><time>2026-04-12T05:33:44.81Z</time></trkpt><trkpt lat="43.5440865" lon="6.9605279"><ele>5.0</ele><time>2026-04-12T05:33:45.81Z</time></trkpt><trkpt lat="43.5441391" lon="6.9605852"><ele>5.0</ele><time>2026-04-12T05:33:46.81Z</time></trkpt><trkpt lat="43.544193" lon="6.9606456"><ele>5.0</ele><time>2026-04-12T05:33:47.81Z</time></trkpt><trkpt lat="43.5442468" lon="6.9607054"><ele>5.0</ele><time>2026-04-12T05:33:48.81Z</time></trkpt><trkpt lat="43.5443023" lon="6.9607637"><ele>5.0</ele><time>2026-04-12T05:33:49.811Z</time></trkpt><trkpt lat="43.5443587" lon="6.9608224"><ele>4.714285714285714</ele><time>2026-04-12T05:33:50.811Z</time></trkpt><trkpt lat="43.5444157" lon="6.9608815"><ele>4.428571428571429</ele><time>2026-04-12T05:33:51.81Z</time></trkpt><trkpt lat="43.5444726" lon="6.9609406"><ele>4.142857142857142</ele><time>2026-04-12T05:33:52.81Z</time></trkpt><trkpt lat="43.5445307" lon="6.9609974"><ele>3.8571428571428568</ele><time>2026-04-12T05:33:53.811Z</time></trkpt><trkpt lat="43.5445908" lon="6.961055"><ele>3.571428571428571</ele><time>2026-04-12T05:33:54.811Z</time></trkpt><trkpt lat="43.544653" lon="6.9611137"><ele>3.2857142857142856</ele><time>2026-04-12T05:33:55.811Z</time></trkpt><trkpt lat="43.5447153" lon="6.961178"><ele>3.0</ele><time>2026-04-12T05:33:56.811Z</time></trkpt><trkpt lat="43.5447773" lon="6.9612441"><ele>3.0</ele><time>2026-04-12T05:33:57.811Z</time></trkpt><trkpt lat="43.5448387" lon="6.9613108"><ele>3.0</ele><time>2026-04-12T05:33:58.811Z</time></trkpt><trkpt lat="43.5449013" lon="6.9613772"><ele>3.0</ele><time>2026-04-12T05:33:59.811Z</time></trkpt><trkpt lat="43.5449647" lon="6.9614442"><ele>3.0</ele><time>2026-04-12T05:34:00.811Z</time></trkpt><trkpt lat="43.5450275" lon="6.9615114"><ele>3.0</ele><time>2026-04-12T05:34:01.811Z</time></trkpt><trkpt lat="43.5450894" lon="6.9615785"><ele>3.0</ele><time>2026-04-12T05:34:02.811Z</time></trkpt><trkpt lat="43.5451524" lon="6.9616443"><ele>3.0</ele><time>2026-04-12T05:34:03.811Z</time></trkpt><trkpt lat="43.545218" lon="6.9617062"><ele>3.0</ele><time>2026-04-12T05:34:04.811Z</time></trkpt><trkpt lat="43.5452864" lon="6.961764"><ele>3.0</ele><time>2026-04-12T05:34:05.812Z</time></trkpt><trkpt lat="43.5453564" lon="6.9618176"><ele>3.0</ele><time>2026-04-12T05:34:06.811Z</time></trkpt><trkpt lat="43.5454264" lon="6.9618691"><ele>3.0</ele><time>2026-04-12T05:34:07.811Z</time></trkpt><trkpt lat="43.5454973" lon="6.9619181"><ele>3.0</ele><time>2026-04-12T05:34:08.811Z</time></trkpt><trkpt lat="43.5455685" lon="6.9619655"><ele>3.0</ele><time>2026-04-12T05:34:09.811Z</time></trkpt><trkpt lat="43.5456397" lon="6.9620119"><ele>3.0</ele><time>2026-04-12T05:34:10.811Z</time></trkpt><trkpt lat="43.5457123" lon="6.9620549"><ele>3.0</ele><time>2026-04-12T05:34:11.811Z</time></trkpt><trkpt lat="43.5457856" lon="6.9620954"><ele>3.0</ele><time>2026-04-12T05:34:12.811Z</time></trkpt><trkpt lat="43.5458585" lon="6.9621334"><ele>3.0</ele><time>2026-04-12T05:34:13.811Z</time></trkpt><trkpt lat="43.5459315" lon="6.9621697"><ele>3.0</ele><time>2026-04-12T05:34:14.811Z</time></trkpt><trkpt lat="43.5460066" lon="6.9622001"><ele>3.0</ele><time>2026-04-12T05:34:15.812Z</time></trkpt><trkpt lat="43.5460837" lon="6.9622269"><ele>3.0</ele><time>2026-04-12T05:34:16.811Z</time></trkpt><trkpt lat="43.5461601" lon="6.9622586"><ele>3.0</ele><time>2026-04-12T05:34:17.811Z</time></trkpt><trkpt lat="43.5462377" lon="6.9622912"><ele>3.0</ele><time>2026-04-12T05:34:18.811Z</time></trkpt><trkpt lat="43.5463155" lon="6.9623243"><ele>3.0</ele><time>2026-04-12T05:34:19.811Z</time></trkpt><trkpt lat="43.5463921" lon="6.9623555"><ele>3.0</ele><time>2026-04-12T05:34:20.811Z</time></trkpt><trkpt lat="43.5464683" lon="6.9623814"><ele>3.666666666666667</ele><time>2026-04-12T05:34:21.811Z</time></trkpt><trkpt lat="43.5465435" lon="6.9623994"><ele>4.333333333333334</ele><time>2026-04-12T05:34:22.811Z</time></trkpt><trkpt lat="43.5466188" lon="6.9624076"><ele>5.0</ele><time>2026-04-12T05:34:23.811Z</time></trkpt><trkpt lat="43.5466935" lon="6.9624116"><ele>5.666666666666667</ele><time>2026-04-12T05:34:24.811Z</time></trkpt><trkpt lat="43.5467685" lon="6.9624106"><ele>6.333333333333334</ele><time>2026-04-12T05:34:25.812Z</time></trkpt><trkpt lat="43.5468436" lon="6.9624082"><ele>7.0</ele><time>2026-04-12T05:34:26.811Z</time></trkpt><trkpt lat="43.5469194" lon="6.9624041"><ele>7.000000000000001</ele><time>2026-04-12T05:34:27.811Z</time></trkpt><trkpt lat="43.5469964" lon="6.9623979"><ele>7.0</ele><time>2026-04-12T05:34:28.812Z</time></trkpt><trkpt lat="43.5470738" lon="6.9623931"><ele>7.0</ele><time>2026-04-12T05:34:29.811Z</time></trkpt><trkpt lat="43.5471512" lon="6.962388"><ele>7.0</ele><time>2026-04-12T05:34:30.812Z</time></trkpt><trkpt lat="43.5472288" lon="6.9623816"><ele>7.000000000000001</ele><time>2026-04-12T05:34:31.811Z</time></trkpt><trkpt lat="43.5473062" lon="6.9623771"><ele>7.0</ele><time>2026-04-12T05:34:32.811Z</time></trkpt><trkpt lat="43.5473834" lon="6.9623733"><ele>6.666666666666667</ele><time>2026-04-12T05:34:33.811Z</time></trkpt><trkpt lat="43.5474614" lon="6.9623687"><ele>6.333333333333334</ele><time>2026-04-12T05:34:34.811Z</time></trkpt><trkpt lat="43.5475403" lon="6.9623649"><ele>6.0</ele><time>2026-04-12T05:34:35.811Z</time></trkpt><trkpt lat="43.54762" lon="6.9623625"><ele>5.666666666666667</ele><time>2026-04-12T05:34:36.812Z</time></trkpt><trkpt lat="43.5477001" lon="6.9623599"><ele>5.333333333333334</ele><time>2026-04-12T05:34:37.811Z</time></trkpt><trkpt lat="43.5477803" lon="6.9623558"><ele>5.0</ele><time>2026-04-12T05:34:38.811Z</time></trkpt><trkpt lat="43.5478609" lon="6.9623526"><ele>4.833333333333334</ele><time>2026-04-12T05:34:39.811Z</time></trkpt><trkpt lat="43.547942" lon="6.9623486"><ele>4.666666666666667</ele><time>2026-04-12T05:34:40.811Z</time></trkpt><trkpt lat="43.5480234" lon="6.9623442"><ele>4.5</ele><time>2026-04-12T05:34:41.811Z</time></trkpt><trkpt lat="43.5481067" lon="6.9623427"><ele>4.333333333333333</ele><time>2026-04-12T05:34:42.811Z</time></trkpt><trkpt lat="43.5481895" lon="6.9623383"><ele>4.166666666666666</ele><time>2026-04-12T05:34:43.812Z</time></trkpt><trkpt lat="43.5482722" lon="6.9623324"><ele>4.0</ele><time>2026-04-12T05:34:44.812Z</time></trkpt><trkpt lat="43.5483555" lon="6.9623265"><ele>3.9999999999999996</ele><time>2026-04-12T05:34:45.812Z</time></trkpt><trkpt lat="43.54844" lon="6.9623202"><ele>4.0</ele><time>2026-04-12T05:34:46.812Z</time></trkpt><trkpt lat="43.5485241" lon="6.9623137"><ele>4.0</ele><time>2026-04-12T05:34:47.811Z</time></trkpt><trkpt lat="43.5486076" lon="6.9623054"><ele>4.0</ele><time>2026-04-12T05:34:48.812Z</time></trkpt><trkpt lat="43.5486896" lon="6.9622976"><ele>3.9999999999999996</ele><time>2026-04-12T05:34:49.813Z</time></trkpt><trkpt lat="43.5487708" lon="6.9622893"><ele>4.0</ele><time>2026-04-12T05:34:50.812Z</time></trkpt><trkpt lat="43.5488527" lon="6.962281"><ele>3.833333333333333</ele><time>2026-04-12T05:34:51.812Z</time></trkpt><trkpt lat="43.5489344" lon="6.9622771"><ele>3.6666666666666665</ele><time>2026-04-12T05:34:52.811Z</time></trkpt><trkpt lat="43.5490179" lon="6.9622734"><ele>3.5</ele><time>2026-04-12T05:34:53.812Z</time></trkpt><trkpt lat="43.5490999" lon="6.9622673"><ele>3.333333333333333</ele><time>2026-04-12T05:34:54.812Z</time></trkpt><trkpt lat="43.5491804" lon="6.9622601"><ele>3.1666666666666665</ele><time>2026-04-12T05:34:55.811Z</time></trkpt><trkpt lat="43.5492618" lon="6.9622527"><ele>3.0</ele><time>2026-04-12T05:34:56.812Z</time></trkpt><trkpt lat="43.5493444" lon="6.9622414"><ele>3.0</ele><time>2026-04-12T05:34:57.813Z</time></trkpt><trkpt lat="43.5494281" lon="6.9622305"><ele>3.0</ele><time>2026-04-12T05:34:58.812Z</time></trkpt><trkpt lat="43.5495111" lon="6.9622252"><ele>3.0</ele><time>2026-04-12T05:34:59.812Z</time></trkpt><trkpt lat="43.5495907" lon="6.9622243"><ele>3.0</ele><time>2026-04-12T05:35:00.812Z</time></trkpt><trkpt lat="43.5496714" lon="6.9622256"><ele>3.0</ele><time>2026-04-12T05:35:01.812Z</time></trkpt><trkpt lat="43.5497495" lon="6.9622302"><ele>3.0</ele><time>2026-04-12T05:35:02.812Z</time></trkpt><trkpt lat="43.5498244" lon="6.9622444"><ele>2.9999999999999996</ele><time>2026-04-12T05:35:03.812Z</time></trkpt><trkpt lat="43.5498961" lon="6.9622681"><ele>3.0</ele><time>2026-04-12T05:35:04.812Z</time></trkpt><trkpt lat="43.5499631" lon="6.9623092"><ele>3.0</ele><time>2026-04-12T05:35:05.812Z</time></trkpt><trkpt lat="43.5500215" lon="6.9623727"><ele>3.0</ele><time>2026-04-12T05:35:06.812Z</time></trkpt><trkpt lat="43.5500802" lon="6.9624584"><ele>3.0</ele><time>2026-04-12T05:35:07.813Z</time></trkpt><trkpt lat="43.5501359" lon="6.9625174"><ele>2.9999999999999996</ele><time>2026-04-12T05:35:08.812Z</time></trkpt><trkpt lat="43.5502021" lon="6.9625489"><ele>3.0</ele><time>2026-04-12T05:35:09.812Z</time></trkpt><trkpt lat="43.5502736" lon="6.9625476"><ele>3.0</ele><time>2026-04-12T05:35:10.812Z</time></trkpt><trkpt lat="43.5503399" lon="6.9624935"><ele>3.0</ele><time>2026-04-12T05:35:11.812Z</time></trkpt><trkpt lat="43.5503778" lon="6.96242"><ele>3.0</ele><time>2026-04-12T05:35:12.812Z</time></trkpt><trkpt lat="43.5503918" lon="6.9623209"><ele>3.0</ele><time>2026-04-12T05:35:13.812Z</time></trkpt><trkpt lat="43.5503738" lon="6.9622168"><ele>3.0</ele><time>2026-04-12T05:35:14.812Z</time></trkpt><trkpt lat="43.5503332" lon="6.9621209"><ele>3.0</ele><time>2026-04-12T05:35:15.812Z</time></trkpt><trkpt lat="43.5502883" lon="6.9620364"><ele>3.0</ele><time>2026-04-12T05:35:16.812Z</time></trkpt><trkpt lat="43.550253" lon="6.9619373"><ele>3.0</ele><time>2026-04-12T05:35:17.812Z</time></trkpt><trkpt lat="43.5502286" lon="6.9618163"><ele>3.0</ele><time>2026-04-12T05:35:18.812Z</time></trkpt><trkpt lat="43.5502229" lon="6.9616959"><ele>3.0</ele><time>2026-04-12T05:35:19.812Z</time></trkpt><trkpt lat="43.5502295" lon="6.9615888"><ele>3.0</ele><time>2026-04-12T05:35:20.812Z</time></trkpt><trkpt lat="43.5502401" lon="6.9614851"><ele>3.0</ele><time>2026-04-12T05:35:21.813Z</time></trkpt><trkpt lat="43.5502468" lon="6.9613813"><ele>2.8333333333333335</ele><time>2026-04-12T05:35:22.812Z</time></trkpt><trkpt lat="43.5502586" lon="6.9612741"><ele>2.6666666666666665</ele><time>2026-04-12T05:35:23.813Z</time></trkpt><trkpt lat="43.5502724" lon="6.9611641"><ele>2.5</ele><time>2026-04-12T05:35:24.812Z</time></trkpt><trkpt lat="43.5502885" lon="6.9610551"><ele>2.333333333333333</ele><time>2026-04-12T05:35:25.812Z</time></trkpt><trkpt lat="43.5503046" lon="6.9609398"><ele>2.1666666666666665</ele><time>2026-04-12T05:35:26.812Z</time></trkpt><trkpt lat="43.5503143" lon="6.9608216"><ele>2.0</ele><time>2026-04-12T05:35:27.812Z</time></trkpt><trkpt lat="43.5503212" lon="6.9606976"><ele>2.333333333333333</ele><time>2026-04-12T05:35:28.812Z</time></trkpt><trkpt lat="43.5503258" lon="6.9605818"><ele>2.6666666666666665</ele><time>2026-04-12T05:35:29.812Z</time></trkpt><trkpt lat="43.5503295" lon="6.9604642"><ele>3.0</ele><time>2026-04-12T05:35:30.813Z</time></trkpt><trkpt lat="43.5503339" lon="6.9603479"><ele>3.333333333333333</ele><time>2026-04-12T05:35:31.813Z</time></trkpt><trkpt lat="43.550338" lon="6.9602264"><ele>3.6666666666666665</ele><time>2026-04-12T05:35:32.813Z</time></trkpt><trkpt lat="43.5503415" lon="6.9601025"><ele>4.0</ele><time>2026-04-12T05:35:33.812Z</time></trkpt><trkpt lat="43.5503484" lon="6.9599797"><ele>4.166666666666666</ele><time>2026-04-12T05:35:34.813Z</time></trkpt><trkpt lat="43.5503507" lon="6.9598622"><ele>4.333333333333333</ele><time>2026-04-12T05:35:35.813Z</time></trkpt><trkpt lat="43.5503583" lon="6.9597326"><ele>4.5</ele><time>2026-04-12T05:35:36.813Z</time></trkpt><trkpt lat="43.550357" lon="6.9596109"><ele>4.666666666666667</ele><time>2026-04-12T05:35:37.813Z</time></trkpt><trkpt lat="43.5503561" lon="6.9594916"><ele>4.833333333333334</ele><time>2026-04-12T05:35:38.812Z</time></trkpt><trkpt lat="43.5503581" lon="6.9593788"><ele>5.0</ele><time>2026-04-12T05:35:39.812Z</time></trkpt><trkpt lat="43.550363" lon="6.9592605"><ele>4.833333333333334</ele><time>2026-04-12T05:35:40.813Z</time></trkpt><trkpt lat="43.5503732" lon="6.9591441"><ele>4.666666666666667</ele><time>2026-04-12T05:35:41.813Z</time></trkpt><trkpt lat="43.5503824" lon="6.9590255"><ele>4.5</ele><time>2026-04-12T05:35:42.813Z</time></trkpt><trkpt lat="43.5503918" lon="6.9589095"><ele>4.333333333333333</ele><time>2026-04-12T05:35:43.813Z</time></trkpt><trkpt lat="43.5503987" lon="6.9587913"><ele>4.166666666666666</ele><time>2026-04-12T05:35:44.813Z</time></trkpt><trkpt lat="43.5504027" lon="6.9586758"><ele>4.0</ele><time>2026-04-12T05:35:45.812Z</time></trkpt><trkpt lat="43.5504029" lon="6.9585594"><ele>4.5</ele><time>2026-04-12T05:35:46.813Z</time></trkpt><trkpt lat="43.5504064" lon="6.9584457"><ele>5.0</ele><time>2026-04-12T05:35:47.813Z</time></trkpt><trkpt lat="43.5504134" lon="6.9583308"><ele>5.5</ele><time>2026-04-12T05:35:48.814Z</time></trkpt><trkpt lat="43.5504215" lon="6.9582106"><ele>6.0</ele><time>2026-04-12T05:35:49.813Z</time></trkpt><trkpt lat="43.5504257" lon="6.9580867"><ele>6.500000000000001</ele><time>2026-04-12T05:35:50.814Z</time></trkpt><trkpt lat="43.5504258" lon="6.9579752"><ele>7.0</ele><time>2026-04-12T05:35:51.813Z</time></trkpt><trkpt lat="43.5504294" lon="6.9578681"><ele>7.000000000000001</ele><time>2026-04-12T05:35:52.814Z</time></trkpt><trkpt lat="43.550435" lon="6.9577577"><ele>7.0</ele><time>2026-04-12T05:35:53.813Z</time></trkpt><trkpt lat="43.5504488" lon="6.9576528"><ele>7.0</ele><time>2026-04-12T05:35:54.814Z</time></trkpt><trkpt lat="43.5504791" lon="6.9575496"><ele>7.0</ele><time>2026-04-12T05:35:55.814Z</time></trkpt><trkpt lat="43.5505186" lon="6.9574654"><ele>7.000000000000001</ele><time>2026-04-12T05:35:56.813Z</time></trkpt><trkpt lat="43.550565" lon="6.9573863"><ele>7.0</ele><time>2026-04-12T05:35:57.813Z</time></trkpt><trkpt lat="43.5506105" lon="6.9573111"><ele>6.833333333333334</ele><time>2026-04-12T05:35:58.813Z</time></trkpt><trkpt lat="43.5506447" lon="6.9572271"><ele>6.666666666666667</ele><time>2026-04-12T05:35:59.813Z</time></trkpt><trkpt lat="43.5506698" lon="6.9571303"><ele>6.5</ele><time>2026-04-12T05:36:00.813Z</time></trkpt><trkpt lat="43.5506979" lon="6.9570246"><ele>6.333333333333334</ele><time>2026-04-12T05:36:01.813Z</time></trkpt><trkpt lat="43.5507418" lon="6.9569244"><ele>6.166666666666667</ele><time>2026-04-12T05:36:02.813Z</time></trkpt><trkpt lat="43.5507901" lon="6.9568227"><ele>6.0</ele><time>2026-04-12T05:36:03.813Z</time></trkpt><trkpt lat="43.5508398" lon="6.9567233"><ele>6.0</ele><time>2026-04-12T05:36:04.813Z</time></trkpt><trkpt lat="43.5508907" lon="6.9566231"><ele>6.0</ele><time>2026-04-12T05:36:05.813Z</time></trkpt><trkpt lat="43.5509459" lon="6.9565285"><ele>6.0</ele><time>2026-04-12T05:36:06.813Z</time></trkpt><trkpt lat="43.5509994" lon="6.9564385"><ele>6.0</ele><time>2026-04-12T05:36:07.813Z</time></trkpt><trkpt lat="43.5510598" lon="6.9563514"><ele>6.0</ele><time>2026-04-12T05:36:08.813Z</time></trkpt><trkpt lat="43.5511245" lon="6.9562649"><ele>6.0</ele><time>2026-04-12T05:36:09.813Z</time></trkpt><trkpt lat="43.5511904" lon="6.9561827"><ele>6.0</ele><time>2026-04-12T05:36:10.813Z</time></trkpt><trkpt lat="43.5512552" lon="6.9561057"><ele>6.0</ele><time>2026-04-12T05:36:11.813Z</time></trkpt><trkpt lat="43.5513248" lon="6.9560301"><ele>6.0</ele><time>2026-04-12T05:36:12.813Z</time></trkpt><trkpt lat="43.5513906" lon="6.9559554"><ele>6.0</ele><time>2026-04-12T05:36:13.814Z</time></trkpt><trkpt lat="43.5514588" lon="6.9558812"><ele>6.0</ele><time>2026-04-12T05:36:14.813Z</time></trkpt><trkpt lat="43.5515285" lon="6.9558106"><ele>6.0</ele><time>2026-04-12T05:36:15.813Z</time></trkpt><trkpt lat="43.5516024" lon="6.9557413"><ele>6.0</ele><time>2026-04-12T05:36:16.813Z</time></trkpt><trkpt lat="43.5516768" lon="6.9556796"><ele>6.0</ele><time>2026-04-12T05:36:17.814Z</time></trkpt><trkpt lat="43.5517525" lon="6.9556226"><ele>6.0</ele><time>2026-04-12T05:36:18.813Z</time></trkpt><trkpt lat="43.5518313" lon="6.9555755"><ele>6.0</ele><time>2026-04-12T05:36:19.813Z</time></trkpt><trkpt lat="43.5519109" lon="6.9555298"><ele>6.0</ele><time>2026-04-12T05:36:20.814Z</time></trkpt><trkpt lat="43.551993" lon="6.9554983"><ele>6.0</ele><time>2026-04-12T05:36:21.814Z</time></trkpt><trkpt lat="43.5520782" lon="6.9554611"><ele>6.0</ele><time>2026-04-12T05:36:22.813Z</time></trkpt><trkpt lat="43.5521612" lon="6.9554209"><ele>6.0</ele><time>2026-04-12T05:36:23.814Z</time></trkpt><trkpt lat="43.5522426" lon="6.9553809"><ele>6.0</ele><time>2026-04-12T05:36:24.814Z</time></trkpt><trkpt lat="43.5523255" lon="6.955343"><ele>6.0</ele><time>2026-04-12T05:36:25.814Z</time></trkpt><trkpt lat="43.552406" lon="6.9553067"><ele>6.0</ele><time>2026-04-12T05:36:26.814Z</time></trkpt><trkpt lat="43.5524883" lon="6.9552731"><ele>6.0</ele><time>2026-04-12T05:36:27.814Z</time></trkpt><trkpt lat="43.5525685" lon="6.9552429"><ele>6.0</ele><time>2026-04-12T05:36:28.814Z</time></trkpt><trkpt lat="43.5526491" lon="6.9552133"><ele>6.0</ele><time>2026-04-12T05:36:29.814Z</time></trkpt><trkpt lat="43.5527286" lon="6.9551844"><ele>6.0</ele><time>2026-04-12T05:36:30.814Z</time></trkpt><trkpt lat="43.5528088" lon="6.9551581"><ele>6.0</ele><time>2026-04-12T05:36:31.814Z</time></trkpt><trkpt lat="43.5528868" lon="6.9551336"><ele>6.0</ele><time>2026-04-12T05:36:32.814Z</time></trkpt><trkpt lat="43.5529686" lon="6.9551054"><ele>6.0</ele><time>2026-04-12T05:36:33.814Z</time></trkpt><trkpt lat="43.5530496" lon="6.955073"><ele>6.0</ele><time>2026-04-12T05:36:34.813Z</time></trkpt><trkpt lat="43.5531269" lon="6.9550426"><ele>6.0</ele><time>2026-04-12T05:36:35.814Z</time></trkpt><trkpt lat="43.5532065" lon="6.955012"><ele>6.0</ele><time>2026-04-12T05:36:36.814Z</time></trkpt><trkpt lat="43.5532818" lon="6.9549791"><ele>6.0</ele><time>2026-04-12T05:36:37.814Z</time></trkpt><trkpt lat="43.5533567" lon="6.9549499"><ele>6.0</ele><time>2026-04-12T05:36:38.814Z</time></trkpt><trkpt lat="43.5534306" lon="6.9549221"><ele>6.0</ele><time>2026-04-12T05:36:39.814Z</time></trkpt><trkpt lat="43.5535052" lon="6.9548942"><ele>6.0</ele><time>2026-04-12T05:36:40.814Z</time></trkpt><trkpt lat="43.5535831" lon="6.9548657"><ele>6.0</ele><time>2026-04-12T05:36:41.815Z</time></trkpt><trkpt lat="43.5536613" lon="6.9548349"><ele>6.0</ele><time>2026-04-12T05:36:42.815Z</time></trkpt><trkpt lat="43.5537359" lon="6.9548088"><ele>6.0</ele><time>2026-04-12T05:36:43.814Z</time></trkpt><trkpt lat="43.5538133" lon="6.9547823"><ele>6.0</ele><time>2026-04-12T05:36:44.814Z</time></trkpt><trkpt lat="43.5538899" lon="6.9547567"><ele>6.0</ele><time>2026-04-12T05:36:45.814Z</time></trkpt><trkpt lat="43.553969" lon="6.9547286"><ele>6.0</ele><time>2026-04-12T05:36:46.814Z</time></trkpt><trkpt lat="43.5540485" lon="6.9547013"><ele>6.0</ele><time>2026-04-12T05:36:47.814Z</time></trkpt><trkpt lat="43.5541286" lon="6.954677"><ele>6.0</ele><time>2026-04-12T05:36:48.814Z</time></trkpt><trkpt lat="43.5542084" lon="6.9546533"><ele>6.0</ele><time>2026-04-12T05:36:49.814Z</time></trkpt><trkpt lat="43.554282" lon="6.9546276"><ele>6.0</ele><time>2026-04-12T05:36:50.814Z</time></trkpt><trkpt lat="43.5543573" lon="6.9546049"><ele>6.0</ele><time>2026-04-12T05:36:51.814Z</time></trkpt><trkpt lat="43.5544344" lon="6.9545908"><ele>6.0</ele><time>2026-04-12T05:36:52.814Z</time></trkpt><trkpt lat="43.5545135" lon="6.9545794"><ele>6.0</ele><time>2026-04-12T05:36:53.814Z</time></trkpt><trkpt lat="43.5545911" lon="6.9545603"><ele>6.0</ele><time>2026-04-12T05:36:54.814Z</time></trkpt><trkpt lat="43.5546662" lon="6.9545377"><ele>6.0</ele><time>2026-04-12T05:36:55.814Z</time></trkpt><trkpt lat="43.5547399" lon="6.9545092"><ele>6.0</ele><time>2026-04-12T05:36:56.814Z</time></trkpt><trkpt lat="43.5548136" lon="6.9544823"><ele>6.0</ele><time>2026-04-12T05:36:57.814Z</time></trkpt><trkpt lat="43.554888" lon="6.9544539"><ele>6.166666666666667</ele><time>2026-04-12T05:36:58.814Z</time></trkpt><trkpt lat="43.5549654" lon="6.9544213"><ele>6.333333333333334</ele><time>2026-04-12T05:36:59.814Z</time></trkpt><trkpt lat="43.5550441" lon="6.9543846"><ele>6.5</ele><time>2026-04-12T05:37:00.814Z</time></trkpt><trkpt lat="43.5551266" lon="6.9543536"><ele>6.666666666666667</ele><time>2026-04-12T05:37:01.814Z</time></trkpt><trkpt lat="43.5552119" lon="6.9543246"><ele>6.833333333333334</ele><time>2026-04-12T05:37:02.814Z</time></trkpt><trkpt lat="43.5552953" lon="6.9542966"><ele>7.0</ele><time>2026-04-12T05:37:03.814Z</time></trkpt><trkpt lat="43.5553759" lon="6.9542666"><ele>7.166666666666667</ele><time>2026-04-12T05:37:04.814Z</time></trkpt><trkpt lat="43.5554542" lon="6.9542334"><ele>7.333333333333334</ele><time>2026-04-12T05:37:05.814Z</time></trkpt><trkpt lat="43.5555321" lon="6.9541999"><ele>7.5</ele><time>2026-04-12T05:37:06.815Z</time></trkpt><trkpt lat="43.5556103" lon="6.9541631"><ele>7.666666666666666</ele><time>2026-04-12T05:37:07.814Z</time></trkpt><trkpt lat="43.5556898" lon="6.9541192"><ele>7.833333333333333</ele><time>2026-04-12T05:37:08.814Z</time></trkpt><trkpt lat="43.5557632" lon="6.9540725"><ele>8.0</ele><time>2026-04-12T05:37:09.814Z</time></trkpt><trkpt lat="43.5558389" lon="6.9540217"><ele>7.999999999999999</ele><time>2026-04-12T05:37:10.816Z</time></trkpt><trkpt lat="43.5559097" lon="6.9539708"><ele>8.0</ele><time>2026-04-12T05:37:11.814Z</time></trkpt><trkpt lat="43.5559822" lon="6.9539188"><ele>8.0</ele><time>2026-04-12T05:37:12.815Z</time></trkpt><trkpt lat="43.5560555" lon="6.9538608"><ele>8.0</ele><time>2026-04-12T05:37:13.815Z</time></trkpt><trkpt lat="43.5561256" lon="6.9538011"><ele>7.999999999999999</ele><time>2026-04-12T05:37:14.815Z</time></trkpt><trkpt lat="43.556194" lon="6.9537412"><ele>8.0</ele><time>2026-04-12T05:37:15.815Z</time></trkpt><trkpt lat="43.5562643" lon="6.9536816"><ele>7.499999999999999</ele><time>2026-04-12T05:37:16.814Z</time></trkpt><trkpt lat="43.5563351" lon="6.9536242"><ele>7.0</ele><time>2026-04-12T05:37:17.816Z</time></trkpt><trkpt lat="43.5564039" lon="6.9535688"><ele>6.5</ele><time>2026-04-12T05:37:18.815Z</time></trkpt><trkpt lat="43.5564726" lon="6.9535129"><ele>6.0</ele><time>2026-04-12T05:37:19.814Z</time></trkpt><trkpt lat="43.5565284" lon="6.9534674"><ele>5.5</ele><time>2026-04-12T05:37:20.816Z</time></trkpt><trkpt lat="43.5566386" lon="6.9534318"><ele>5.0</ele><time>2026-04-12T05:37:22.815Z</time></trkpt><trkpt lat="43.5567672" lon="6.9534507"><ele>5.0</ele><time>2026-04-12T05:37:24.815Z</time></trkpt><trkpt lat="43.5568418" lon="6.9534343"><ele>5.0</ele><time>2026-04-12T05:37:25.816Z</time></trkpt><trkpt lat="43.5569183" lon="6.9534005"><ele>5.0</ele><time>2026-04-12T05:37:26.815Z</time></trkpt><trkpt lat="43.5569891" lon="6.9533468"><ele>5.0</ele><time>2026-04-12T05:37:27.815Z</time></trkpt><trkpt lat="43.5570458" lon="6.9532711"><ele>5.0</ele><time>2026-04-12T05:37:28.816Z</time></trkpt><trkpt lat="43.5570915" lon="6.9531893"><ele>5.0</ele><time>2026-04-12T05:37:29.815Z</time></trkpt><trkpt lat="43.5571398" lon="6.9531216"><ele>5.166666666666667</ele><time>2026-04-12T05:37:30.815Z</time></trkpt><trkpt lat="43.5571885" lon="6.9530584"><ele>5.333333333333334</ele><time>2026-04-12T05:37:31.815Z</time></trkpt><trkpt lat="43.5572441" lon="6.9529871"><ele>5.5</ele><time>2026-04-12T05:37:32.815Z</time></trkpt><trkpt lat="43.5572973" lon="6.9529044"><ele>5.666666666666667</ele><time>2026-04-12T05:37:33.815Z</time></trkpt><trkpt lat="43.5573362" lon="6.9528043"><ele>5.833333333333333</ele><time>2026-04-12T05:37:34.815Z</time></trkpt><trkpt lat="43.557363" lon="6.952691"><ele>6.0</ele><time>2026-04-12T05:37:35.815Z</time></trkpt><trkpt lat="43.5573841" lon="6.9525643"><ele>5.833333333333333</ele><time>2026-04-12T05:37:36.815Z</time></trkpt><trkpt lat="43.5573856" lon="6.9524323"><ele>5.666666666666667</ele><time>2026-04-12T05:37:37.815Z</time></trkpt><trkpt lat="43.5573969" lon="6.9523118"><ele>5.5</ele><time>2026-04-12T05:37:38.816Z</time></trkpt><trkpt lat="43.5574172" lon="6.9522006"><ele>5.333333333333334</ele><time>2026-04-12T05:37:39.815Z</time></trkpt><trkpt lat="43.5574497" lon="6.9520969"><ele>5.166666666666667</ele><time>2026-04-12T05:37:40.815Z</time></trkpt><trkpt lat="43.557495" lon="6.9520069"><ele>5.0</ele><time>2026-04-12T05:37:41.815Z</time></trkpt><trkpt lat="43.5575644" lon="6.9519334"><ele>5.0</ele><time>2026-04-12T05:37:42.815Z</time></trkpt><trkpt lat="43.5576523" lon="6.9518841"><ele>5.0</ele><time>2026-04-12T05:37:43.815Z</time></trkpt><trkpt lat="43.5577413" lon="6.9518501"><ele>5.0</ele><time>2026-04-12T05:37:44.815Z</time></trkpt><trkpt lat="43.5578329" lon="6.9518124"><ele>5.0</ele><time>2026-04-12T05:37:45.815Z</time></trkpt><trkpt lat="43.5579191" lon="6.9517755"><ele>5.0</ele><time>2026-04-12T05:37:46.815Z</time></trkpt><trkpt lat="43.5580071" lon="6.9517427"><ele>5.0</ele><time>2026-04-12T05:37:47.816Z</time></trkpt><trkpt lat="43.5582807" lon="6.9516688"><ele>5.0</ele><time>2026-04-12T05:37:50.815Z</time></trkpt><trkpt lat="43.5583682" lon="6.9516617"><ele>5.0</ele><time>2026-04-12T05:37:51.815Z</time></trkpt><trkpt lat="43.5584964" lon="6.9516059"><ele>5.0</ele><time>2026-04-12T05:37:53.815Z</time></trkpt><trkpt lat="43.558573" lon="6.9515817"><ele>5.0</ele><time>2026-04-12T05:37:54.815Z</time></trkpt><trkpt lat="43.558651" lon="6.9515592"><ele>5.0</ele><time>2026-04-12T05:37:55.816Z</time></trkpt><trkpt lat="43.5587309" lon="6.9515331"><ele>5.0</ele><time>2026-04-12T05:37:56.815Z</time></trkpt><trkpt lat="43.5588113" lon="6.9515091"><ele>5.0</ele><time>2026-04-12T05:37:57.815Z</time></trkpt><trkpt lat="43.5588888" lon="6.9514842"><ele>5.0</ele><time>2026-04-12T05:37:58.815Z</time></trkpt><trkpt lat="43.5589646" lon="6.9514594"><ele>5.333333333333334</ele><time>2026-04-12T05:37:59.815Z</time></trkpt><trkpt lat="43.5590451" lon="6.9514346"><ele>5.666666666666667</ele><time>2026-04-12T05:38:00.816Z</time></trkpt><trkpt lat="43.5591253" lon="6.9514046"><ele>6.0</ele><time>2026-04-12T05:38:01.817Z</time></trkpt><trkpt lat="43.5592072" lon="6.9513754"><ele>6.333333333333334</ele><time>2026-04-12T05:38:02.816Z</time></trkpt><trkpt lat="43.5592851" lon="6.9513492"><ele>6.666666666666667</ele><time>2026-04-12T05:38:03.816Z</time></trkpt><trkpt lat="43.559363" lon="6.9513187"><ele>7.0</ele><time>2026-04-12T05:38:04.816Z</time></trkpt><trkpt lat="43.5594428" lon="6.9512886"><ele>7.000000000000001</ele><time>2026-04-12T05:38:05.816Z</time></trkpt><trkpt lat="43.5595151" lon="6.9512698"><ele>7.0</ele><time>2026-04-12T05:38:06.816Z</time></trkpt><trkpt lat="43.55959" lon="6.9512403"><ele>7.0</ele><time>2026-04-12T05:38:07.816Z</time></trkpt><trkpt lat="43.5596656" lon="6.951208"><ele>7.0</ele><time>2026-04-12T05:38:08.816Z</time></trkpt><trkpt lat="43.5597474" lon="6.9511832"><ele>7.000000000000001</ele><time>2026-04-12T05:38:09.816Z</time></trkpt><trkpt lat="43.5598307" lon="6.9511563"><ele>7.0</ele><time>2026-04-12T05:38:10.816Z</time></trkpt><trkpt lat="43.5599094" lon="6.9511357"><ele>7.0</ele><time>2026-04-12T05:38:11.816Z</time></trkpt><trkpt lat="43.5599881" lon="6.9511114"><ele>7.0</ele><time>2026-04-12T05:38:12.815Z</time></trkpt><trkpt lat="43.5600662" lon="6.9510861"><ele>7.0</ele><time>2026-04-12T05:38:13.816Z</time></trkpt><trkpt lat="43.5601357" lon="6.951059"><ele>7.0</ele><time>2026-04-12T05:38:14.817Z</time></trkpt><trkpt lat="43.5602012" lon="6.9510329"><ele>7.0</ele><time>2026-04-12T05:38:15.816Z</time></trkpt><trkpt lat="43.5602718" lon="6.9510114"><ele>7.0</ele><time>2026-04-12T05:38:16.816Z</time></trkpt><trkpt lat="43.560346" lon="6.9509893"><ele>7.0</ele><time>2026-04-12T05:38:17.817Z</time></trkpt><trkpt lat="43.5604181" lon="6.9509712"><ele>6.857142857142857</ele><time>2026-04-12T05:38:18.816Z</time></trkpt><trkpt lat="43.5604895" lon="6.9509519"><ele>6.714285714285714</ele><time>2026-04-12T05:38:19.817Z</time></trkpt><trkpt lat="43.560559" lon="6.9509399"><ele>6.571428571428571</ele><time>2026-04-12T05:38:20.816Z</time></trkpt><trkpt lat="43.5606248" lon="6.950937"><ele>6.428571428571429</ele><time>2026-04-12T05:38:21.816Z</time></trkpt><trkpt lat="43.5606852" lon="6.9509653"><ele>6.285714285714286</ele><time>2026-04-12T05:38:22.816Z</time></trkpt><trkpt lat="43.5607479" lon="6.9510063"><ele>6.142857142857142</ele><time>2026-04-12T05:38:23.816Z</time></trkpt><trkpt lat="43.5608221" lon="6.9510459"><ele>6.0</ele><time>2026-04-12T05:38:24.817Z</time></trkpt><trkpt lat="43.5608939" lon="6.9510549"><ele>6.0</ele><time>2026-04-12T05:38:25.816Z</time></trkpt><trkpt lat="43.5609771" lon="6.9510469"><ele>6.0</ele><time>2026-04-12T05:38:26.816Z</time></trkpt><trkpt lat="43.5610569" lon="6.9510049"><ele>6.0</ele><time>2026-04-12T05:38:27.816Z</time></trkpt><trkpt lat="43.5611271" lon="6.9509316"><ele>6.0</ele><time>2026-04-12T05:38:28.816Z</time></trkpt><trkpt lat="43.5611851" lon="6.9508471"><ele>6.0</ele><time>2026-04-12T05:38:29.816Z</time></trkpt><trkpt lat="43.5612424" lon="6.9507777"><ele>6.0</ele><time>2026-04-12T05:38:30.816Z</time></trkpt><trkpt lat="43.5613063" lon="6.9507343"><ele>5.666666666666667</ele><time>2026-04-12T05:38:31.816Z</time></trkpt><trkpt lat="43.5613775" lon="6.9507065"><ele>5.333333333333333</ele><time>2026-04-12T05:38:32.816Z</time></trkpt><trkpt lat="43.5614562" lon="6.9506841"><ele>5.0</ele><time>2026-04-12T05:38:33.816Z</time></trkpt><trkpt lat="43.5615369" lon="6.9506609"><ele>4.666666666666666</ele><time>2026-04-12T05:38:34.816Z</time></trkpt><trkpt lat="43.5616183" lon="6.9506324"><ele>4.333333333333333</ele><time>2026-04-12T05:38:35.816Z</time></trkpt><trkpt lat="43.5616975" lon="6.9506035"><ele>4.0</ele><time>2026-04-12T05:38:36.817Z</time></trkpt><trkpt lat="43.5617794" lon="6.9505722"><ele>3.9999999999999996</ele><time>2026-04-12T05:38:37.816Z</time></trkpt><trkpt lat="43.5618592" lon="6.9505434"><ele>4.0</ele><time>2026-04-12T05:38:38.816Z</time></trkpt><trkpt lat="43.5619425" lon="6.9505132"><ele>4.0</ele><time>2026-04-12T05:38:39.816Z</time></trkpt><trkpt lat="43.5620269" lon="6.9504852"><ele>4.0</ele><time>2026-04-12T05:38:40.816Z</time></trkpt><trkpt lat="43.5621108" lon="6.9504585"><ele>3.9999999999999996</ele><time>2026-04-12T05:38:41.816Z</time></trkpt><trkpt lat="43.5621918" lon="6.9504351"><ele>4.0</ele><time>2026-04-12T05:38:42.816Z</time></trkpt><trkpt lat="43.5622783" lon="6.9504116"><ele>4.166666666666666</ele><time>2026-04-12T05:38:43.816Z</time></trkpt><trkpt lat="43.5623632" lon="6.9503813"><ele>4.333333333333333</ele><time>2026-04-12T05:38:44.816Z</time></trkpt><trkpt lat="43.5624499" lon="6.9503492"><ele>4.5</ele><time>2026-04-12T05:38:45.816Z</time></trkpt><trkpt lat="43.5625343" lon="6.9503174"><ele>4.666666666666667</ele><time>2026-04-12T05:38:46.816Z</time></trkpt><trkpt lat="43.5626178" lon="6.950287"><ele>4.833333333333334</ele><time>2026-04-12T05:38:47.816Z</time></trkpt><trkpt lat="43.5627012" lon="6.9502531"><ele>5.0</ele><time>2026-04-12T05:38:48.816Z</time></trkpt><trkpt lat="43.5627817" lon="6.9502151"><ele>5.166666666666667</ele><time>2026-04-12T05:38:49.816Z</time></trkpt><trkpt lat="43.562867" lon="6.9501821"><ele>5.333333333333334</ele><time>2026-04-12T05:38:50.817Z</time></trkpt><trkpt lat="43.5629513" lon="6.9501476"><ele>5.5</ele><time>2026-04-12T05:38:51.817Z</time></trkpt><trkpt lat="43.5630322" lon="6.9501167"><ele>5.666666666666667</ele><time>2026-04-12T05:38:52.818Z</time></trkpt><trkpt lat="43.5631165" lon="6.9500853"><ele>5.833333333333333</ele><time>2026-04-12T05:38:53.817Z</time></trkpt><trkpt lat="43.5632005" lon="6.9500484"><ele>6.0</ele><time>2026-04-12T05:38:54.817Z</time></trkpt><trkpt lat="43.5632831" lon="6.950015"><ele>6.166666666666667</ele><time>2026-04-12T05:38:55.817Z</time></trkpt><trkpt lat="43.563371" lon="6.9499826"><ele>6.333333333333334</ele><time>2026-04-12T05:38:56.816Z</time></trkpt><trkpt lat="43.5634521" lon="6.9499518"><ele>6.5</ele><time>2026-04-12T05:38:57.817Z</time></trkpt><trkpt lat="43.5635354" lon="6.9499248"><ele>6.666666666666667</ele><time>2026-04-12T05:38:58.816Z</time></trkpt><trkpt lat="43.5636169" lon="6.9499012"><ele>6.833333333333334</ele><time>2026-04-12T05:38:59.817Z</time></trkpt><trkpt lat="43.5636984" lon="6.9498777"><ele>7.0</ele><time>2026-04-12T05:39:00.817Z</time></trkpt><trkpt lat="43.5637795" lon="6.949851"><ele>6.666666666666667</ele><time>2026-04-12T05:39:01.817Z</time></trkpt><trkpt lat="43.5638651" lon="6.9498194"><ele>6.333333333333334</ele><time>2026-04-12T05:39:02.818Z</time></trkpt><trkpt lat="43.5639507" lon="6.949787"><ele>6.0</ele><time>2026-04-12T05:39:03.817Z</time></trkpt><trkpt lat="43.5640373" lon="6.949754"><ele>5.666666666666667</ele><time>2026-04-12T05:39:04.818Z</time></trkpt><trkpt lat="43.5641196" lon="6.9497237"><ele>5.333333333333334</ele><time>2026-04-12T05:39:05.817Z</time></trkpt><trkpt lat="43.5642031" lon="6.9496917"><ele>5.0</ele><time>2026-04-12T05:39:06.817Z</time></trkpt><trkpt lat="43.564287" lon="6.9496617"><ele>5.0</ele><time>2026-04-12T05:39:07.818Z</time></trkpt><trkpt lat="43.5643705" lon="6.9496323"><ele>5.0</ele><time>2026-04-12T05:39:08.817Z</time></trkpt><trkpt lat="43.5644578" lon="6.9496022"><ele>5.0</ele><time>2026-04-12T05:39:09.817Z</time></trkpt><trkpt lat="43.5645433" lon="6.9495722"><ele>5.0</ele><time>2026-04-12T05:39:10.818Z</time></trkpt><trkpt lat="43.5646218" lon="6.9495395"><ele>5.0</ele><time>2026-04-12T05:39:11.817Z</time></trkpt><trkpt lat="43.5647048" lon="6.949509"><ele>5.0</ele><time>2026-04-12T05:39:12.817Z</time></trkpt><trkpt lat="43.564795" lon="6.9494783"><ele>5.166666666666667</ele><time>2026-04-12T05:39:13.817Z</time></trkpt><trkpt lat="43.5648807" lon="6.9494509"><ele>5.333333333333334</ele><time>2026-04-12T05:39:14.817Z</time></trkpt><trkpt lat="43.5649637" lon="6.9494239"><ele>5.5</ele><time>2026-04-12T05:39:15.817Z</time></trkpt><trkpt lat="43.5650468" lon="6.9493931"><ele>5.666666666666667</ele><time>2026-04-12T05:39:16.817Z</time></trkpt><trkpt lat="43.5651321" lon="6.9493632"><ele>5.833333333333333</ele><time>2026-04-12T05:39:17.817Z</time></trkpt><trkpt lat="43.5652175" lon="6.9493327"><ele>6.0</ele><time>2026-04-12T05:39:18.817Z</time></trkpt><trkpt lat="43.5652973" lon="6.9493005"><ele>6.666666666666667</ele><time>2026-04-12T05:39:19.817Z</time></trkpt><trkpt lat="43.5653774" lon="6.9492663"><ele>7.333333333333334</ele><time>2026-04-12T05:39:20.818Z</time></trkpt><trkpt lat="43.5654576" lon="6.9492325"><ele>8.0</ele><time>2026-04-12T05:39:21.817Z</time></trkpt><trkpt lat="43.5655437" lon="6.9492018"><ele>8.666666666666668</ele><time>2026-04-12T05:39:22.817Z</time></trkpt><trkpt lat="43.5656294" lon="6.9491704"><ele>9.333333333333334</ele><time>2026-04-12T05:39:23.817Z</time></trkpt><trkpt lat="43.5657126" lon="6.949139"><ele>10.0</ele><time>2026-04-12T05:39:24.817Z</time></trkpt><trkpt lat="43.5657968" lon="6.9491072"><ele>10.0</ele><time>2026-04-12T05:39:25.817Z</time></trkpt><trkpt lat="43.5658773" lon="6.9490739"><ele>10.0</ele><time>2026-04-12T05:39:26.817Z</time></trkpt><trkpt lat="43.5659643" lon="6.9490402"><ele>10.0</ele><time>2026-04-12T05:39:27.818Z</time></trkpt><trkpt lat="43.5660513" lon="6.949012"><ele>10.0</ele><time>2026-04-12T05:39:28.818Z</time></trkpt><trkpt lat="43.5661383" lon="6.948981"><ele>10.0</ele><time>2026-04-12T05:39:29.817Z</time></trkpt><trkpt lat="43.5662219" lon="6.9489491"><ele>10.0</ele><time>2026-04-12T05:39:30.817Z</time></trkpt><trkpt lat="43.5663038" lon="6.9489232"><ele>10.166666666666668</ele><time>2026-04-12T05:39:31.817Z</time></trkpt><trkpt lat="43.5663792" lon="6.9488986"><ele>10.333333333333334</ele><time>2026-04-12T05:39:32.818Z</time></trkpt><trkpt lat="43.5664489" lon="6.9488732"><ele>10.5</ele><time>2026-04-12T05:39:33.818Z</time></trkpt><trkpt lat="43.5665127" lon="6.9488546"><ele>10.666666666666666</ele><time>2026-04-12T05:39:34.817Z</time></trkpt><trkpt lat="43.5666366" lon="6.9488567"><ele>10.833333333333332</ele><time>2026-04-12T05:39:36.817Z</time></trkpt><trkpt lat="43.5667075" lon="6.9488973"><ele>11.0</ele><time>2026-04-12T05:39:37.817Z</time></trkpt><trkpt lat="43.5667788" lon="6.9489348"><ele>11.0</ele><time>2026-04-12T05:39:38.817Z</time></trkpt><trkpt lat="43.566858" lon="6.9489631"><ele>11.0</ele><time>2026-04-12T05:39:39.817Z</time></trkpt><trkpt lat="43.5669415" lon="6.9489567"><ele>11.0</ele><time>2026-04-12T05:39:40.818Z</time></trkpt><trkpt lat="43.5670221" lon="6.9489124"><ele>11.0</ele><time>2026-04-12T05:39:41.818Z</time></trkpt><trkpt lat="43.5670944" lon="6.9488428"><ele>11.0</ele><time>2026-04-12T05:39:42.817Z</time></trkpt><trkpt lat="43.5671576" lon="6.9487575"><ele>11.0</ele><time>2026-04-12T05:39:43.818Z</time></trkpt><trkpt lat="43.5672148" lon="6.9486765"><ele>10.833333333333332</ele><time>2026-04-12T05:39:44.818Z</time></trkpt><trkpt lat="43.5672721" lon="6.9486109"><ele>10.666666666666666</ele><time>2026-04-12T05:39:45.818Z</time></trkpt><trkpt lat="43.5673403" lon="6.9485603"><ele>10.5</ele><time>2026-04-12T05:39:46.817Z</time></trkpt><trkpt lat="43.5674168" lon="6.9485128"><ele>10.333333333333334</ele><time>2026-04-12T05:39:47.818Z</time></trkpt><trkpt lat="43.5674901" lon="6.9484689"><ele>10.166666666666668</ele><time>2026-04-12T05:39:48.818Z</time></trkpt><trkpt lat="43.5675614" lon="6.9484239"><ele>10.0</ele><time>2026-04-12T05:39:49.818Z</time></trkpt><trkpt lat="43.5676392" lon="6.9483787"><ele>9.833333333333334</ele><time>2026-04-12T05:39:50.818Z</time></trkpt><trkpt lat="43.56772" lon="6.9483363"><ele>9.666666666666668</ele><time>2026-04-12T05:39:51.818Z</time></trkpt><trkpt lat="43.5678046" lon="6.9482963"><ele>9.5</ele><time>2026-04-12T05:39:52.818Z</time></trkpt><trkpt lat="43.5678904" lon="6.9482521"><ele>9.333333333333334</ele><time>2026-04-12T05:39:53.818Z</time></trkpt><trkpt lat="43.5679741" lon="6.9482076"><ele>9.166666666666666</ele><time>2026-04-12T05:39:54.818Z</time></trkpt><trkpt lat="43.5680546" lon="6.9481624"><ele>9.0</ele><time>2026-04-12T05:39:55.818Z</time></trkpt><trkpt lat="43.5681342" lon="6.9481183"><ele>8.6</ele><time>2026-04-12T05:39:56.819Z</time></trkpt><trkpt lat="43.5682165" lon="6.9480696"><ele>8.2</ele><time>2026-04-12T05:39:57.818Z</time></trkpt><trkpt lat="43.5682963" lon="6.9480145"><ele>7.799999999999999</ele><time>2026-04-12T05:39:58.818Z</time></trkpt><trkpt lat="43.5683759" lon="6.9479576"><ele>7.3999999999999995</ele><time>2026-04-12T05:39:59.818Z</time></trkpt><trkpt lat="43.5684589" lon="6.9478986"><ele>7.0</ele><time>2026-04-12T05:40:00.818Z</time></trkpt><trkpt lat="43.5685389" lon="6.9478402"><ele>7.000000000000001</ele><time>2026-04-12T05:40:01.818Z</time></trkpt><trkpt lat="43.5686165" lon="6.9477812"><ele>7.0</ele><time>2026-04-12T05:40:02.818Z</time></trkpt><trkpt lat="43.5686931" lon="6.9477215"><ele>7.0</ele><time>2026-04-12T05:40:03.818Z</time></trkpt><trkpt lat="43.568765" lon="6.9476592"><ele>7.0</ele><time>2026-04-12T05:40:04.818Z</time></trkpt><trkpt lat="43.5688339" lon="6.9475911"><ele>7.000000000000001</ele><time>2026-04-12T05:40:05.819Z</time></trkpt><trkpt lat="43.5689028" lon="6.9475226"><ele>7.0</ele><time>2026-04-12T05:40:06.818Z</time></trkpt><trkpt lat="43.5689716" lon="6.9474547"><ele>6.833333333333334</ele><time>2026-04-12T05:40:07.818Z</time></trkpt><trkpt lat="43.5690393" lon="6.9473862"><ele>6.666666666666667</ele><time>2026-04-12T05:40:08.818Z</time></trkpt><trkpt lat="43.5691074" lon="6.9473143"><ele>6.5</ele><time>2026-04-12T05:40:09.818Z</time></trkpt><trkpt lat="43.5691737" lon="6.947245"><ele>6.333333333333334</ele><time>2026-04-12T05:40:10.818Z</time></trkpt><trkpt lat="43.5692412" lon="6.9471729"><ele>6.166666666666667</ele><time>2026-04-12T05:40:11.818Z</time></trkpt><trkpt lat="43.5693084" lon="6.9471015"><ele>6.0</ele><time>2026-04-12T05:40:12.818Z</time></trkpt><trkpt lat="43.5693752" lon="6.947032"><ele>6.0</ele><time>2026-04-12T05:40:13.818Z</time></trkpt><trkpt lat="43.5694441" lon="6.9469629"><ele>6.0</ele><time>2026-04-12T05:40:14.818Z</time></trkpt><trkpt lat="43.5695159" lon="6.9468925"><ele>6.0</ele><time>2026-04-12T05:40:15.818Z</time></trkpt><trkpt lat="43.5695857" lon="6.9468244"><ele>6.0</ele><time>2026-04-12T05:40:16.818Z</time></trkpt><trkpt lat="43.5696564" lon="6.9467552"><ele>6.0</ele><time>2026-04-12T05:40:17.818Z</time></trkpt><trkpt lat="43.5697257" lon="6.9466875"><ele>6.0</ele><time>2026-04-12T05:40:18.818Z</time></trkpt><trkpt lat="43.5697973" lon="6.9466157"><ele>6.333333333333333</ele><time>2026-04-12T05:40:19.818Z</time></trkpt><trkpt lat="43.5698718" lon="6.9465423"><ele>6.666666666666666</ele><time>2026-04-12T05:40:20.818Z</time></trkpt><trkpt lat="43.5699445" lon="6.9464721"><ele>7.0</ele><time>2026-04-12T05:40:21.819Z</time></trkpt><trkpt lat="43.5700157" lon="6.9464038"><ele>7.333333333333333</ele><time>2026-04-12T05:40:22.818Z</time></trkpt><trkpt lat="43.5700887" lon="6.9463352"><ele>7.666666666666666</ele><time>2026-04-12T05:40:23.818Z</time></trkpt><trkpt lat="43.5701639" lon="6.9462685"><ele>8.0</ele><time>2026-04-12T05:40:24.818Z</time></trkpt><trkpt lat="43.5702393" lon="6.9462051"><ele>7.999999999999999</ele><time>2026-04-12T05:40:25.818Z</time></trkpt><trkpt lat="43.570314" lon="6.9461423"><ele>8.0</ele><time>2026-04-12T05:40:26.818Z</time></trkpt><trkpt lat="43.570387" lon="6.9460782"><ele>8.0</ele><time>2026-04-12T05:40:27.818Z</time></trkpt><trkpt lat="43.5704612" lon="6.9460111"><ele>8.0</ele><time>2026-04-12T05:40:28.819Z</time></trkpt><trkpt lat="43.5705341" lon="6.9459452"><ele>7.999999999999999</ele><time>2026-04-12T05:40:29.819Z</time></trkpt><trkpt lat="43.5706041" lon="6.9458797"><ele>8.0</ele><time>2026-04-12T05:40:30.82Z</time></trkpt><trkpt lat="43.5706758" lon="6.9458131"><ele>8.333333333333332</ele><time>2026-04-12T05:40:31.819Z</time></trkpt><trkpt lat="43.5707497" lon="6.9457465"><ele>8.666666666666666</ele><time>2026-04-12T05:40:32.818Z</time></trkpt><trkpt lat="43.5708258" lon="6.945695"><ele>9.0</ele><time>2026-04-12T05:40:33.819Z</time></trkpt><trkpt lat="43.5708998" lon="6.9456334"><ele>9.333333333333334</ele><time>2026-04-12T05:40:34.82Z</time></trkpt><trkpt lat="43.5709718" lon="6.9455811"><ele>9.666666666666668</ele><time>2026-04-12T05:40:35.819Z</time></trkpt><trkpt lat="43.5710414" lon="6.9455263"><ele>10.0</ele><time>2026-04-12T05:40:36.818Z</time></trkpt><trkpt lat="43.5711114" lon="6.9454722"><ele>10.0</ele><time>2026-04-12T05:40:37.819Z</time></trkpt><trkpt lat="43.5711791" lon="6.945418"><ele>10.0</ele><time>2026-04-12T05:40:38.819Z</time></trkpt><trkpt lat="43.5712449" lon="6.9453711"><ele>10.0</ele><time>2026-04-12T05:40:39.819Z</time></trkpt><trkpt lat="43.5713108" lon="6.9453397"><ele>10.0</ele><time>2026-04-12T05:40:40.819Z</time></trkpt><trkpt lat="43.5713765" lon="6.9453258"><ele>10.0</ele><time>2026-04-12T05:40:41.819Z</time></trkpt><trkpt lat="43.5714458" lon="6.9453179"><ele>10.0</ele><time>2026-04-12T05:40:42.82Z</time></trkpt><trkpt lat="43.5715152" lon="6.9452965"><ele>10.0</ele><time>2026-04-12T05:40:43.819Z</time></trkpt><trkpt lat="43.5715759" lon="6.9452406"><ele>9.857142857142858</ele><time>2026-04-12T05:40:44.819Z</time></trkpt><trkpt lat="43.5716321" lon="6.9451638"><ele>9.714285714285715</ele><time>2026-04-12T05:40:45.819Z</time></trkpt><trkpt lat="43.5716762" lon="6.9450934"><ele>9.571428571428573</ele><time>2026-04-12T05:40:46.819Z</time></trkpt><trkpt lat="43.5717293" lon="6.9450291"><ele>9.428571428571429</ele><time>2026-04-12T05:40:47.819Z</time></trkpt><trkpt lat="43.5717966" lon="6.944981"><ele>9.285714285714286</ele><time>2026-04-12T05:40:48.819Z</time></trkpt><trkpt lat="43.5718682" lon="6.9449454"><ele>9.142857142857144</ele><time>2026-04-12T05:40:49.819Z</time></trkpt><trkpt lat="43.5719405" lon="6.9449077"><ele>9.0</ele><time>2026-04-12T05:40:50.819Z</time></trkpt><trkpt lat="43.5720115" lon="6.9448713"><ele>8.833333333333334</ele><time>2026-04-12T05:40:51.819Z</time></trkpt><trkpt lat="43.5720797" lon="6.9448248"><ele>8.666666666666666</ele><time>2026-04-12T05:40:52.819Z</time></trkpt><trkpt lat="43.5721524" lon="6.9447795"><ele>8.5</ele><time>2026-04-12T05:40:53.82Z</time></trkpt><trkpt lat="43.5722269" lon="6.9447325"><ele>8.333333333333332</ele><time>2026-04-12T05:40:54.819Z</time></trkpt><trkpt lat="43.572305" lon="6.9446843"><ele>8.166666666666666</ele><time>2026-04-12T05:40:55.819Z</time></trkpt><trkpt lat="43.5723834" lon="6.9446345"><ele>8.0</ele><time>2026-04-12T05:40:56.819Z</time></trkpt><trkpt lat="43.5724609" lon="6.9445852"><ele>7.999999999999999</ele><time>2026-04-12T05:40:57.819Z</time></trkpt><trkpt lat="43.5725372" lon="6.9445317"><ele>8.0</ele><time>2026-04-12T05:40:58.819Z</time></trkpt><trkpt lat="43.5726169" lon="6.9444796"><ele>8.0</ele><time>2026-04-12T05:40:59.82Z</time></trkpt><trkpt lat="43.5726936" lon="6.9444262"><ele>8.0</ele><time>2026-04-12T05:41:00.819Z</time></trkpt><trkpt lat="43.5727688" lon="6.9443737"><ele>7.999999999999999</ele><time>2026-04-12T05:41:01.819Z</time></trkpt><trkpt lat="43.5728431" lon="6.9443144"><ele>8.0</ele><time>2026-04-12T05:41:02.819Z</time></trkpt><trkpt lat="43.5729175" lon="6.9442543"><ele>8.333333333333332</ele><time>2026-04-12T05:41:03.819Z</time></trkpt><trkpt lat="43.5729941" lon="6.9441904"><ele>8.666666666666666</ele><time>2026-04-12T05:41:04.819Z</time></trkpt><trkpt lat="43.5730734" lon="6.9441271"><ele>9.0</ele><time>2026-04-12T05:41:05.819Z</time></trkpt><trkpt lat="43.5731516" lon="6.9440637"><ele>9.333333333333334</ele><time>2026-04-12T05:41:06.819Z</time></trkpt><trkpt lat="43.5732291" lon="6.944"><ele>9.666666666666668</ele><time>2026-04-12T05:41:07.819Z</time></trkpt><trkpt lat="43.5733037" lon="6.9439379"><ele>10.0</ele><time>2026-04-12T05:41:08.819Z</time></trkpt><trkpt lat="43.5733781" lon="6.9438732"><ele>10.0</ele><time>2026-04-12T05:41:09.82Z</time></trkpt><trkpt lat="43.5734486" lon="6.9438127"><ele>10.0</ele><time>2026-04-12T05:41:10.819Z</time></trkpt><trkpt lat="43.5735197" lon="6.9437496"><ele>10.0</ele><time>2026-04-12T05:41:11.819Z</time></trkpt><trkpt lat="43.5735916" lon="6.9436876"><ele>10.0</ele><time>2026-04-12T05:41:12.82Z</time></trkpt><trkpt lat="43.573668" lon="6.9436257"><ele>10.0</ele><time>2026-04-12T05:41:13.819Z</time></trkpt><trkpt lat="43.5737436" lon="6.9435632"><ele>10.0</ele><time>2026-04-12T05:41:14.819Z</time></trkpt><trkpt lat="43.5738176" lon="6.9434989"><ele>9.666666666666668</ele><time>2026-04-12T05:41:15.819Z</time></trkpt><trkpt lat="43.5738897" lon="6.9434385"><ele>9.333333333333334</ele><time>2026-04-12T05:41:16.819Z</time></trkpt><trkpt lat="43.5739654" lon="6.9433757"><ele>9.0</ele><time>2026-04-12T05:41:17.819Z</time></trkpt><trkpt lat="43.5740392" lon="6.9433152"><ele>8.666666666666666</ele><time>2026-04-12T05:41:18.819Z</time></trkpt><trkpt lat="43.5741167" lon="6.9432482"><ele>8.333333333333332</ele><time>2026-04-12T05:41:19.82Z</time></trkpt><trkpt lat="43.57419" lon="6.9431841"><ele>8.0</ele><time>2026-04-12T05:41:20.82Z</time></trkpt><trkpt lat="43.5742636" lon="6.9431228"><ele>7.999999999999999</ele><time>2026-04-12T05:41:21.821Z</time></trkpt><trkpt lat="43.5743375" lon="6.9430626"><ele>8.0</ele><time>2026-04-12T05:41:22.82Z</time></trkpt><trkpt lat="43.5744132" lon="6.9430028"><ele>8.0</ele><time>2026-04-12T05:41:23.82Z</time></trkpt><trkpt lat="43.5744885" lon="6.9429415"><ele>8.0</ele><time>2026-04-12T05:41:24.821Z</time></trkpt><trkpt lat="43.5745646" lon="6.9428824"><ele>7.999999999999999</ele><time>2026-04-12T05:41:25.82Z</time></trkpt><trkpt lat="43.5746403" lon="6.9428232"><ele>8.0</ele><time>2026-04-12T05:41:26.821Z</time></trkpt><trkpt lat="43.5747149" lon="6.9427638"><ele>7.999999999999999</ele><time>2026-04-12T05:41:27.819Z</time></trkpt><trkpt lat="43.5747881" lon="6.9427008"><ele>8.0</ele><time>2026-04-12T05:41:28.819Z</time></trkpt><trkpt lat="43.5748604" lon="6.9426362"><ele>8.0</ele><time>2026-04-12T05:41:29.82Z</time></trkpt><trkpt lat="43.5749324" lon="6.9425704"><ele>8.0</ele><time>2026-04-12T05:41:30.82Z</time></trkpt><trkpt lat="43.575003" lon="6.942507"><ele>7.999999999999999</ele><time>2026-04-12T05:41:31.82Z</time></trkpt><trkpt lat="43.5750741" lon="6.9424459"><ele>8.0</ele><time>2026-04-12T05:41:32.82Z</time></trkpt><trkpt lat="43.5751469" lon="6.9423867"><ele>8.166666666666666</ele><time>2026-04-12T05:41:33.82Z</time></trkpt><trkpt lat="43.5752216" lon="6.9423261"><ele>8.333333333333332</ele><time>2026-04-12T05:41:34.82Z</time></trkpt><trkpt lat="43.5752964" lon="6.9422671"><ele>8.5</ele><time>2026-04-12T05:41:35.82Z</time></trkpt><trkpt lat="43.5753751" lon="6.9422108"><ele>8.666666666666666</ele><time>2026-04-12T05:41:36.82Z</time></trkpt><trkpt lat="43.5754491" lon="6.9421523"><ele>8.833333333333334</ele><time>2026-04-12T05:41:37.82Z</time></trkpt><trkpt lat="43.5755207" lon="6.9420944"><ele>9.0</ele><time>2026-04-12T05:41:38.821Z</time></trkpt><trkpt lat="43.5755891" lon="6.9420354"><ele>9.0</ele><time>2026-04-12T05:41:39.82Z</time></trkpt><trkpt lat="43.5756539" lon="6.9419783"><ele>9.0</ele><time>2026-04-12T05:41:40.82Z</time></trkpt><trkpt lat="43.5757248" lon="6.9419225"><ele>9.0</ele><time>2026-04-12T05:41:41.82Z</time></trkpt><trkpt lat="43.5757969" lon="6.9418682"><ele>9.0</ele><time>2026-04-12T05:41:42.82Z</time></trkpt><trkpt lat="43.5758702" lon="6.9418111"><ele>9.0</ele><time>2026-04-12T05:41:43.821Z</time></trkpt><trkpt lat="43.5759432" lon="6.9417485"><ele>9.0</ele><time>2026-04-12T05:41:44.82Z</time></trkpt><trkpt lat="43.5760188" lon="6.9416856"><ele>9.0</ele><time>2026-04-12T05:41:45.82Z</time></trkpt><trkpt lat="43.5760941" lon="6.9416188"><ele>9.0</ele><time>2026-04-12T05:41:46.82Z</time></trkpt><trkpt lat="43.5761673" lon="6.9415561"><ele>9.0</ele><time>2026-04-12T05:41:47.82Z</time></trkpt><trkpt lat="43.5762419" lon="6.9414923"><ele>9.0</ele><time>2026-04-12T05:41:48.82Z</time></trkpt><trkpt lat="43.5763136" lon="6.9414281"><ele>9.0</ele><time>2026-04-12T05:41:49.82Z</time></trkpt><trkpt lat="43.5763893" lon="6.9413637"><ele>9.0</ele><time>2026-04-12T05:41:50.82Z</time></trkpt><trkpt lat="43.576464" lon="6.9412964"><ele>9.0</ele><time>2026-04-12T05:41:51.82Z</time></trkpt><trkpt lat="43.5765346" lon="6.9412226"><ele>9.0</ele><time>2026-04-12T05:41:52.82Z</time></trkpt><trkpt lat="43.5766017" lon="6.9411479"><ele>9.0</ele><time>2026-04-12T05:41:53.82Z</time></trkpt><trkpt lat="43.5766653" lon="6.9410726"><ele>9.0</ele><time>2026-04-12T05:41:54.82Z</time></trkpt><trkpt lat="43.576727" lon="6.9409948"><ele>9.0</ele><time>2026-04-12T05:41:55.82Z</time></trkpt><trkpt lat="43.5767845" lon="6.9409133"><ele>9.0</ele><time>2026-04-12T05:41:56.82Z</time></trkpt><trkpt lat="43.57684" lon="6.9408282"><ele>9.0</ele><time>2026-04-12T05:41:57.821Z</time></trkpt><trkpt lat="43.5768923" lon="6.9407469"><ele>9.0</ele><time>2026-04-12T05:41:58.82Z</time></trkpt><trkpt lat="43.5769426" lon="6.9406696"><ele>9.0</ele><time>2026-04-12T05:41:59.82Z</time></trkpt><trkpt lat="43.5769971" lon="6.9406055"><ele>9.0</ele><time>2026-04-12T05:42:00.82Z</time></trkpt><trkpt lat="43.5770632" lon="6.9405645"><ele>9.0</ele><time>2026-04-12T05:42:01.82Z</time></trkpt><trkpt lat="43.5771381" lon="6.9405346"><ele>9.0</ele><time>2026-04-12T05:42:02.82Z</time></trkpt><trkpt lat="43.5772108" lon="6.9404936"><ele>9.0</ele><time>2026-04-12T05:42:03.82Z</time></trkpt><trkpt lat="43.5772748" lon="6.9404273"><ele>9.0</ele><time>2026-04-12T05:42:04.82Z</time></trkpt><trkpt lat="43.5773181" lon="6.940331"><ele>9.0</ele><time>2026-04-12T05:42:05.82Z</time></trkpt><trkpt lat="43.5773371" lon="6.9402095"><ele>9.0</ele><time>2026-04-12T05:42:06.82Z</time></trkpt><trkpt lat="43.57733" lon="6.9400908"><ele>9.0</ele><time>2026-04-12T05:42:07.82Z</time></trkpt><trkpt lat="43.5773147" lon="6.9399773"><ele>9.0</ele><time>2026-04-12T05:42:08.82Z</time></trkpt><trkpt lat="43.5773165" lon="6.9398634"><ele>9.0</ele><time>2026-04-12T05:42:09.821Z</time></trkpt><trkpt lat="43.5773423" lon="6.9397543"><ele>9.0</ele><time>2026-04-12T05:42:10.821Z</time></trkpt><trkpt lat="43.577385" lon="6.9396486"><ele>9.0</ele><time>2026-04-12T05:42:11.821Z</time></trkpt><trkpt lat="43.5774281" lon="6.9395422"><ele>9.0</ele><time>2026-04-12T05:42:12.821Z</time></trkpt><trkpt lat="43.57747" lon="6.9394321"><ele>9.0</ele><time>2026-04-12T05:42:13.82Z</time></trkpt><trkpt lat="43.5775058" lon="6.9393165"><ele>9.0</ele><time>2026-04-12T05:42:14.821Z</time></trkpt><trkpt lat="43.5775409" lon="6.9391947"><ele>9.0</ele><time>2026-04-12T05:42:15.821Z</time></trkpt><trkpt lat="43.5775718" lon="6.9390722"><ele>9.0</ele><time>2026-04-12T05:42:16.822Z</time></trkpt><trkpt lat="43.5775986" lon="6.9389533"><ele>9.0</ele><time>2026-04-12T05:42:17.82Z</time></trkpt><trkpt lat="43.5776253" lon="6.9388355"><ele>9.0</ele><time>2026-04-12T05:42:18.822Z</time></trkpt><trkpt lat="43.5776509" lon="6.9387153"><ele>9.0</ele><time>2026-04-12T05:42:19.822Z</time></trkpt><trkpt lat="43.577679" lon="6.938595"><ele>9.0</ele><time>2026-04-12T05:42:20.821Z</time></trkpt><trkpt lat="43.5777086" lon="6.9384779"><ele>9.0</ele><time>2026-04-12T05:42:21.821Z</time></trkpt><trkpt lat="43.5777375" lon="6.9383609"><ele>9.0</ele><time>2026-04-12T05:42:22.821Z</time></trkpt><trkpt lat="43.5777653" lon="6.9382439"><ele>9.0</ele><time>2026-04-12T05:42:23.821Z</time></trkpt><trkpt lat="43.5777936" lon="6.9381244"><ele>9.0</ele><time>2026-04-12T05:42:24.821Z</time></trkpt><trkpt lat="43.5778248" lon="6.938008"><ele>8.8</ele><time>2026-04-12T05:42:25.822Z</time></trkpt><trkpt lat="43.5778563" lon="6.9378865"><ele>8.600000000000001</ele><time>2026-04-12T05:42:26.821Z</time></trkpt><trkpt lat="43.5778928" lon="6.9377639"><ele>8.4</ele><time>2026-04-12T05:42:27.821Z</time></trkpt><trkpt lat="43.5779283" lon="6.9376375"><ele>8.200000000000001</ele><time>2026-04-12T05:42:28.821Z</time></trkpt><trkpt lat="43.577966" lon="6.9375139"><ele>8.0</ele><time>2026-04-12T05:42:29.822Z</time></trkpt><trkpt lat="43.5780017" lon="6.9373973"><ele>8.0</ele><time>2026-04-12T05:42:30.821Z</time></trkpt><trkpt lat="43.5780428" lon="6.9372797"><ele>8.0</ele><time>2026-04-12T05:42:31.822Z</time></trkpt><trkpt lat="43.578087" lon="6.9371659"><ele>8.0</ele><time>2026-04-12T05:42:32.821Z</time></trkpt><trkpt lat="43.5781297" lon="6.9370545"><ele>8.0</ele><time>2026-04-12T05:42:33.821Z</time></trkpt><trkpt lat="43.5781761" lon="6.9369427"><ele>8.0</ele><time>2026-04-12T05:42:34.821Z</time></trkpt><trkpt lat="43.5782197" lon="6.9368357"><ele>8.0</ele><time>2026-04-12T05:42:35.821Z</time></trkpt><trkpt lat="43.5782674" lon="6.9367286"><ele>8.0</ele><time>2026-04-12T05:42:36.821Z</time></trkpt><trkpt lat="43.5783169" lon="6.9366155"><ele>8.0</ele><time>2026-04-12T05:42:37.821Z</time></trkpt><trkpt lat="43.5783649" lon="6.9365021"><ele>8.0</ele><time>2026-04-12T05:42:38.822Z</time></trkpt><trkpt lat="43.5784175" lon="6.9363942"><ele>8.0</ele><time>2026-04-12T05:42:39.821Z</time></trkpt><trkpt lat="43.5784715" lon="6.9362915"><ele>8.0</ele><time>2026-04-12T05:42:40.821Z</time></trkpt><trkpt lat="43.5785264" lon="6.9361887"><ele>8.0</ele><time>2026-04-12T05:42:41.821Z</time></trkpt><trkpt lat="43.57858" lon="6.9360883"><ele>8.0</ele><time>2026-04-12T05:42:42.821Z</time></trkpt><trkpt lat="43.5786386" lon="6.9359866"><ele>8.0</ele><time>2026-04-12T05:42:43.821Z</time></trkpt><trkpt lat="43.5786959" lon="6.9358868"><ele>8.0</ele><time>2026-04-12T05:42:44.821Z</time></trkpt><trkpt lat="43.5787543" lon="6.9357878"><ele>8.4</ele><time>2026-04-12T05:42:45.821Z</time></trkpt><trkpt lat="43.5788137" lon="6.9356934"><ele>8.8</ele><time>2026-04-12T05:42:46.821Z</time></trkpt><trkpt lat="43.5788765" lon="6.935597"><ele>9.2</ele><time>2026-04-12T05:42:47.821Z</time></trkpt><trkpt lat="43.5789402" lon="6.9355063"><ele>9.6</ele><time>2026-04-12T05:42:48.821Z</time></trkpt><trkpt lat="43.5790062" lon="6.9354185"><ele>10.0</ele><time>2026-04-12T05:42:49.822Z</time></trkpt><trkpt lat="43.5790753" lon="6.9353298"><ele>10.0</ele><time>2026-04-12T05:42:50.821Z</time></trkpt><trkpt lat="43.5791443" lon="6.9352462"><ele>10.0</ele><time>2026-04-12T05:42:51.821Z</time></trkpt><trkpt lat="43.5792114" lon="6.9351594"><ele>10.0</ele><time>2026-04-12T05:42:52.821Z</time></trkpt><trkpt lat="43.5792742" lon="6.9350741"><ele>10.0</ele><time>2026-04-12T05:42:53.822Z</time></trkpt><trkpt lat="43.5793349" lon="6.9349919"><ele>10.0</ele><time>2026-04-12T05:42:54.821Z</time></trkpt><trkpt lat="43.5793944" lon="6.9349118"><ele>10.0</ele><time>2026-04-12T05:42:55.821Z</time></trkpt><trkpt lat="43.5794523" lon="6.9348327"><ele>10.0</ele><time>2026-04-12T05:42:56.822Z</time></trkpt><trkpt lat="43.5795136" lon="6.9347611"><ele>10.0</ele><time>2026-04-12T05:42:57.821Z</time></trkpt><trkpt lat="43.579581" lon="6.9346895"><ele>10.0</ele><time>2026-04-12T05:42:58.822Z</time></trkpt><trkpt lat="43.5796491" lon="6.9346215"><ele>10.0</ele><time>2026-04-12T05:42:59.822Z</time></trkpt><trkpt lat="43.5797189" lon="6.9345538"><ele>10.0</ele><time>2026-04-12T05:43:00.822Z</time></trkpt><trkpt lat="43.5797897" lon="6.9344848"><ele>10.0</ele><time>2026-04-12T05:43:01.821Z</time></trkpt><trkpt lat="43.5798596" lon="6.9344193"><ele>10.0</ele><time>2026-04-12T05:43:02.822Z</time></trkpt><trkpt lat="43.5799288" lon="6.9343562"><ele>10.0</ele><time>2026-04-12T05:43:03.821Z</time></trkpt><trkpt lat="43.5799998" lon="6.9342967"><ele>10.0</ele><time>2026-04-12T05:43:04.822Z</time></trkpt><trkpt lat="43.580073" lon="6.9342359"><ele>10.0</ele><time>2026-04-12T05:43:05.821Z</time></trkpt><trkpt lat="43.5801472" lon="6.9341772"><ele>10.0</ele><time>2026-04-12T05:43:06.822Z</time></trkpt><trkpt lat="43.5802192" lon="6.9341185"><ele>10.0</ele><time>2026-04-12T05:43:07.822Z</time></trkpt><trkpt lat="43.5802911" lon="6.9340626"><ele>10.166666666666668</ele><time>2026-04-12T05:43:08.822Z</time></trkpt><trkpt lat="43.5803638" lon="6.9340094"><ele>10.333333333333334</ele><time>2026-04-12T05:43:09.822Z</time></trkpt><trkpt lat="43.5804373" lon="6.9339562"><ele>10.5</ele><time>2026-04-12T05:43:10.821Z</time></trkpt><trkpt lat="43.5805116" lon="6.9339021"><ele>10.666666666666666</ele><time>2026-04-12T05:43:11.823Z</time></trkpt><trkpt lat="43.5805869" lon="6.9338495"><ele>10.833333333333332</ele><time>2026-04-12T05:43:12.822Z</time></trkpt><trkpt lat="43.5806639" lon="6.9337982"><ele>11.0</ele><time>2026-04-12T05:43:13.822Z</time></trkpt><trkpt lat="43.5807424" lon="6.9337521"><ele>11.0</ele><time>2026-04-12T05:43:14.822Z</time></trkpt><trkpt lat="43.5808206" lon="6.9337069"><ele>11.0</ele><time>2026-04-12T05:43:15.822Z</time></trkpt><trkpt lat="43.5808977" lon="6.9336633"><ele>11.0</ele><time>2026-04-12T05:43:16.823Z</time></trkpt><trkpt lat="43.5809775" lon="6.933621"><ele>11.0</ele><time>2026-04-12T05:43:17.822Z</time></trkpt><trkpt lat="43.5810575" lon="6.9335781"><ele>11.0</ele><time>2026-04-12T05:43:18.822Z</time></trkpt><trkpt lat="43.5811383" lon="6.9335409"><ele>11.0</ele><time>2026-04-12T05:43:19.822Z</time></trkpt><trkpt lat="43.5812181" lon="6.9335036"><ele>11.166666666666666</ele><time>2026-04-12T05:43:20.822Z</time></trkpt><trkpt lat="43.5813001" lon="6.9334697"><ele>11.333333333333332</ele><time>2026-04-12T05:43:21.822Z</time></trkpt><trkpt lat="43.5813803" lon="6.9334383"><ele>11.5</ele><time>2026-04-12T05:43:22.822Z</time></trkpt><trkpt lat="43.5814594" lon="6.9334067"><ele>11.666666666666666</ele><time>2026-04-12T05:43:23.822Z</time></trkpt><trkpt lat="43.5815387" lon="6.933375"><ele>11.833333333333334</ele><time>2026-04-12T05:43:24.822Z</time></trkpt><trkpt lat="43.5816181" lon="6.933343"><ele>12.0</ele><time>2026-04-12T05:43:25.822Z</time></trkpt><trkpt lat="43.5816985" lon="6.9333165"><ele>12.0</ele><time>2026-04-12T05:43:26.822Z</time></trkpt><trkpt lat="43.5817826" lon="6.9332923"><ele>12.0</ele><time>2026-04-12T05:43:27.822Z</time></trkpt><trkpt lat="43.5818644" lon="6.9332676"><ele>12.0</ele><time>2026-04-12T05:43:28.822Z</time></trkpt><trkpt lat="43.5819479" lon="6.9332433"><ele>12.0</ele><time>2026-04-12T05:43:29.822Z</time></trkpt><trkpt lat="43.582031" lon="6.9332231"><ele>12.0</ele><time>2026-04-12T05:43:30.822Z</time></trkpt><trkpt lat="43.5821147" lon="6.9332048"><ele>12.0</ele><time>2026-04-12T05:43:31.822Z</time></trkpt><trkpt lat="43.5821963" lon="6.9331861"><ele>12.0</ele><time>2026-04-12T05:43:32.822Z</time></trkpt><trkpt lat="43.5822796" lon="6.9331717"><ele>12.0</ele><time>2026-04-12T05:43:33.822Z</time></trkpt><trkpt lat="43.5823616" lon="6.9331579"><ele>12.0</ele><time>2026-04-12T05:43:34.823Z</time></trkpt><trkpt lat="43.5824448" lon="6.9331484"><ele>12.0</ele><time>2026-04-12T05:43:35.822Z</time></trkpt><trkpt lat="43.58253" lon="6.9331422"><ele>12.0</ele><time>2026-04-12T05:43:36.822Z</time></trkpt><trkpt lat="43.5826165" lon="6.9331354"><ele>12.0</ele><time>2026-04-12T05:43:37.822Z</time></trkpt><trkpt lat="43.5826998" lon="6.9331317"><ele>12.0</ele><time>2026-04-12T05:43:38.822Z</time></trkpt><trkpt lat="43.5827854" lon="6.9331269"><ele>12.0</ele><time>2026-04-12T05:43:39.822Z</time></trkpt><trkpt lat="43.582872" lon="6.9331299"><ele>12.0</ele><time>2026-04-12T05:43:40.822Z</time></trkpt><trkpt lat="43.5829582" lon="6.9331268"><ele>12.0</ele><time>2026-04-12T05:43:41.822Z</time></trkpt><trkpt lat="43.5830427" lon="6.9331256"><ele>12.0</ele><time>2026-04-12T05:43:42.822Z</time></trkpt><trkpt lat="43.5831245" lon="6.9331225"><ele>12.0</ele><time>2026-04-12T05:43:43.822Z</time></trkpt><trkpt lat="43.5832064" lon="6.9331201"><ele>11.666666666666666</ele><time>2026-04-12T05:43:44.823Z</time></trkpt><trkpt lat="43.5832856" lon="6.9331232"><ele>11.333333333333334</ele><time>2026-04-12T05:43:45.823Z</time></trkpt><trkpt lat="43.5833684" lon="6.9331313"><ele>11.0</ele><time>2026-04-12T05:43:46.823Z</time></trkpt><trkpt lat="43.5834523" lon="6.9331421"><ele>10.666666666666668</ele><time>2026-04-12T05:43:47.822Z</time></trkpt><trkpt lat="43.5835357" lon="6.933157"><ele>10.333333333333334</ele><time>2026-04-12T05:43:48.823Z</time></trkpt><trkpt lat="43.5836196" lon="6.9331687"><ele>10.0</ele><time>2026-04-12T05:43:49.824Z</time></trkpt><trkpt lat="43.5837039" lon="6.9331837"><ele>9.833333333333334</ele><time>2026-04-12T05:43:50.823Z</time></trkpt><trkpt lat="43.5837907" lon="6.9332034"><ele>9.666666666666668</ele><time>2026-04-12T05:43:51.822Z</time></trkpt><trkpt lat="43.5838784" lon="6.9332244"><ele>9.5</ele><time>2026-04-12T05:43:52.823Z</time></trkpt><trkpt lat="43.5839644" lon="6.9332496"><ele>9.333333333333334</ele><time>2026-04-12T05:43:53.823Z</time></trkpt><trkpt lat="43.5840507" lon="6.9332744"><ele>9.166666666666666</ele><time>2026-04-12T05:43:54.823Z</time></trkpt><trkpt lat="43.5841366" lon="6.933302"><ele>9.0</ele><time>2026-04-12T05:43:55.823Z</time></trkpt><trkpt lat="43.5842219" lon="6.933332"><ele>9.0</ele><time>2026-04-12T05:43:56.823Z</time></trkpt><trkpt lat="43.5843084" lon="6.933362"><ele>9.0</ele><time>2026-04-12T05:43:57.823Z</time></trkpt><trkpt lat="43.5843957" lon="6.9333936"><ele>9.0</ele><time>2026-04-12T05:43:58.823Z</time></trkpt><trkpt lat="43.5844831" lon="6.9334293"><ele>9.0</ele><time>2026-04-12T05:43:59.823Z</time></trkpt><trkpt lat="43.5845668" lon="6.9334629"><ele>9.0</ele><time>2026-04-12T05:44:00.822Z</time></trkpt><trkpt lat="43.5846506" lon="6.9334994"><ele>9.0</ele><time>2026-04-12T05:44:01.823Z</time></trkpt><trkpt lat="43.5847318" lon="6.9335392"><ele>9.333333333333334</ele><time>2026-04-12T05:44:02.823Z</time></trkpt><trkpt lat="43.5848115" lon="6.9335754"><ele>9.666666666666666</ele><time>2026-04-12T05:44:03.823Z</time></trkpt><trkpt lat="43.5848922" lon="6.9336119"><ele>10.0</ele><time>2026-04-12T05:44:04.823Z</time></trkpt><trkpt lat="43.5849721" lon="6.9336539"><ele>10.333333333333332</ele><time>2026-04-12T05:44:05.823Z</time></trkpt><trkpt lat="43.5850511" lon="6.9336958"><ele>10.666666666666666</ele><time>2026-04-12T05:44:06.823Z</time></trkpt><trkpt lat="43.5851311" lon="6.9337373"><ele>11.0</ele><time>2026-04-12T05:44:07.823Z</time></trkpt><trkpt lat="43.585213" lon="6.9337812"><ele>11.0</ele><time>2026-04-12T05:44:08.823Z</time></trkpt><trkpt lat="43.585296" lon="6.9338302"><ele>11.0</ele><time>2026-04-12T05:44:09.823Z</time></trkpt><trkpt lat="43.5853723" lon="6.9338772"><ele>11.0</ele><time>2026-04-12T05:44:10.823Z</time></trkpt><trkpt lat="43.5854465" lon="6.9339225"><ele>11.0</ele><time>2026-04-12T05:44:11.824Z</time></trkpt><trkpt lat="43.5855205" lon="6.9339692"><ele>11.0</ele><time>2026-04-12T05:44:12.823Z</time></trkpt><trkpt lat="43.5855975" lon="6.9340182"><ele>11.0</ele><time>2026-04-12T05:44:13.824Z</time></trkpt><trkpt lat="43.5856773" lon="6.9340677"><ele>11.0</ele><time>2026-04-12T05:44:14.823Z</time></trkpt><trkpt lat="43.5857582" lon="6.9341145"><ele>11.0</ele><time>2026-04-12T05:44:15.823Z</time></trkpt><trkpt lat="43.5858416" lon="6.9341638"><ele>11.0</ele><time>2026-04-12T05:44:16.824Z</time></trkpt><trkpt lat="43.5859245" lon="6.9342148"><ele>11.0</ele><time>2026-04-12T05:44:17.823Z</time></trkpt><trkpt lat="43.5860064" lon="6.9342642"><ele>11.0</ele><time>2026-04-12T05:44:18.823Z</time></trkpt><trkpt lat="43.5860862" lon="6.9343161"><ele>11.0</ele><time>2026-04-12T05:44:19.823Z</time></trkpt><trkpt lat="43.5861662" lon="6.934369"><ele>11.166666666666666</ele><time>2026-04-12T05:44:20.823Z</time></trkpt><trkpt lat="43.5862448" lon="6.9344166"><ele>11.333333333333332</ele><time>2026-04-12T05:44:21.823Z</time></trkpt><trkpt lat="43.5863259" lon="6.9344656"><ele>11.5</ele><time>2026-04-12T05:44:22.823Z</time></trkpt><trkpt lat="43.5864072" lon="6.9345123"><ele>11.666666666666666</ele><time>2026-04-12T05:44:23.824Z</time></trkpt><trkpt lat="43.5864871" lon="6.9345591"><ele>11.833333333333334</ele><time>2026-04-12T05:44:24.823Z</time></trkpt><trkpt lat="43.5865639" lon="6.9346045"><ele>12.0</ele><time>2026-04-12T05:44:25.823Z</time></trkpt><trkpt lat="43.5866397" lon="6.9346471"><ele>12.0</ele><time>2026-04-12T05:44:26.823Z</time></trkpt><trkpt lat="43.5867153" lon="6.9346893"><ele>12.0</ele><time>2026-04-12T05:44:27.823Z</time></trkpt><trkpt lat="43.586791" lon="6.934732"><ele>12.0</ele><time>2026-04-12T05:44:28.823Z</time></trkpt><trkpt lat="43.5868635" lon="6.9347718"><ele>12.0</ele><time>2026-04-12T05:44:29.823Z</time></trkpt><trkpt lat="43.5869381" lon="6.9347998"><ele>12.0</ele><time>2026-04-12T05:44:30.823Z</time></trkpt><trkpt lat="43.5870168" lon="6.9348207"><ele>12.0</ele><time>2026-04-12T05:44:31.823Z</time></trkpt><trkpt lat="43.5870934" lon="6.934834"><ele>12.0</ele><time>2026-04-12T05:44:32.824Z</time></trkpt><trkpt lat="43.5871695" lon="6.9348475"><ele>12.0</ele><time>2026-04-12T05:44:33.824Z</time></trkpt><trkpt lat="43.5872481" lon="6.9348489"><ele>12.0</ele><time>2026-04-12T05:44:34.823Z</time></trkpt><trkpt lat="43.5873241" lon="6.9348334"><ele>12.0</ele><time>2026-04-12T05:44:35.823Z</time></trkpt><trkpt lat="43.5873973" lon="6.9347974"><ele>12.0</ele><time>2026-04-12T05:44:36.824Z</time></trkpt><trkpt lat="43.5874662" lon="6.9347399"><ele>12.0</ele><time>2026-04-12T05:44:37.824Z</time></trkpt><trkpt lat="43.5875309" lon="6.9346658"><ele>12.0</ele><time>2026-04-12T05:44:38.824Z</time></trkpt><trkpt lat="43.5875931" lon="6.9345772"><ele>12.0</ele><time>2026-04-12T05:44:39.824Z</time></trkpt><trkpt lat="43.5876471" lon="6.9344867"><ele>12.0</ele><time>2026-04-12T05:44:40.823Z</time></trkpt><trkpt lat="43.5876996" lon="6.9343964"><ele>12.0</ele><time>2026-04-12T05:44:41.824Z</time></trkpt><trkpt lat="43.5877537" lon="6.9342985"><ele>12.0</ele><time>2026-04-12T05:44:42.824Z</time></trkpt><trkpt lat="43.5878052" lon="6.9341952"><ele>12.0</ele><time>2026-04-12T05:44:43.824Z</time></trkpt><trkpt lat="43.5878522" lon="6.9340903"><ele>12.166666666666666</ele><time>2026-04-12T05:44:44.824Z</time></trkpt><trkpt lat="43.5878989" lon="6.9339862"><ele>12.333333333333332</ele><time>2026-04-12T05:44:45.824Z</time></trkpt><trkpt lat="43.5879443" lon="6.9338847"><ele>12.5</ele><time>2026-04-12T05:44:46.824Z</time></trkpt><trkpt lat="43.5879931" lon="6.933783"><ele>12.666666666666666</ele><time>2026-04-12T05:44:47.824Z</time></trkpt><trkpt lat="43.5880421" lon="6.9336819"><ele>12.833333333333332</ele><time>2026-04-12T05:44:48.824Z</time></trkpt><trkpt lat="43.5880938" lon="6.9335804"><ele>13.0</ele><time>2026-04-12T05:44:49.824Z</time></trkpt><trkpt lat="43.5881462" lon="6.9334799"><ele>13.0</ele><time>2026-04-12T05:44:50.824Z</time></trkpt><trkpt lat="43.588201" lon="6.9333803"><ele>13.0</ele><time>2026-04-12T05:44:51.824Z</time></trkpt><trkpt lat="43.5882594" lon="6.9332827"><ele>13.0</ele><time>2026-04-12T05:44:52.823Z</time></trkpt><trkpt lat="43.5883184" lon="6.9331887"><ele>13.0</ele><time>2026-04-12T05:44:53.825Z</time></trkpt><trkpt lat="43.5883775" lon="6.933096"><ele>13.0</ele><time>2026-04-12T05:44:54.824Z</time></trkpt><trkpt lat="43.5884375" lon="6.9330041"><ele>13.0</ele><time>2026-04-12T05:44:55.824Z</time></trkpt><trkpt lat="43.5885004" lon="6.9329139"><ele>13.0</ele><time>2026-04-12T05:44:56.824Z</time></trkpt><trkpt lat="43.5885652" lon="6.9328299"><ele>13.0</ele><time>2026-04-12T05:44:57.824Z</time></trkpt><trkpt lat="43.5886308" lon="6.9327466"><ele>13.0</ele><time>2026-04-12T05:44:58.824Z</time></trkpt><trkpt lat="43.5886967" lon="6.9326638"><ele>13.0</ele><time>2026-04-12T05:44:59.824Z</time></trkpt><trkpt lat="43.5887661" lon="6.9325797"><ele>13.333333333333332</ele><time>2026-04-12T05:45:00.824Z</time></trkpt><trkpt lat="43.5888305" lon="6.9324976"><ele>13.666666666666666</ele><time>2026-04-12T05:45:01.824Z</time></trkpt><trkpt lat="43.5888964" lon="6.9324075"><ele>14.0</ele><time>2026-04-12T05:45:02.824Z</time></trkpt><trkpt lat="43.5889586" lon="6.9323241"><ele>14.333333333333332</ele><time>2026-04-12T05:45:03.824Z</time></trkpt><trkpt lat="43.5890218" lon="6.9322397"><ele>14.666666666666666</ele><time>2026-04-12T05:45:04.824Z</time></trkpt><trkpt lat="43.5890874" lon="6.9321554"><ele>15.0</ele><time>2026-04-12T05:45:05.824Z</time></trkpt><trkpt lat="43.5891511" lon="6.9320745"><ele>15.0</ele><time>2026-04-12T05:45:06.824Z</time></trkpt><trkpt lat="43.5892165" lon="6.9319973"><ele>15.0</ele><time>2026-04-12T05:45:07.824Z</time></trkpt><trkpt lat="43.5892825" lon="6.9319216"><ele>15.0</ele><time>2026-04-12T05:45:08.824Z</time></trkpt><trkpt lat="43.5893489" lon="6.9318422"><ele>15.0</ele><time>2026-04-12T05:45:09.824Z</time></trkpt><trkpt lat="43.589415" lon="6.9317613"><ele>15.0</ele><time>2026-04-12T05:45:10.824Z</time></trkpt><trkpt lat="43.5894818" lon="6.9316768"><ele>15.0</ele><time>2026-04-12T05:45:11.824Z</time></trkpt><trkpt lat="43.5895489" lon="6.9315894"><ele>14.5</ele><time>2026-04-12T05:45:12.825Z</time></trkpt><trkpt lat="43.5896132" lon="6.9315062"><ele>14.0</ele><time>2026-04-12T05:45:13.824Z</time></trkpt><trkpt lat="43.5896769" lon="6.9314244"><ele>13.5</ele><time>2026-04-12T05:45:14.824Z</time></trkpt><trkpt lat="43.5897411" lon="6.9313423"><ele>13.0</ele><time>2026-04-12T05:45:15.825Z</time></trkpt><trkpt lat="43.5898047" lon="6.9312619"><ele>12.5</ele><time>2026-04-12T05:45:16.824Z</time></trkpt><trkpt lat="43.5898679" lon="6.9311845"><ele>12.0</ele><time>2026-04-12T05:45:17.825Z</time></trkpt><trkpt lat="43.5899283" lon="6.9311015"><ele>12.0</ele><time>2026-04-12T05:45:18.824Z</time></trkpt><trkpt lat="43.5899896" lon="6.9310187"><ele>12.0</ele><time>2026-04-12T05:45:19.824Z</time></trkpt><trkpt lat="43.5900483" lon="6.9309407"><ele>12.0</ele><time>2026-04-12T05:45:20.824Z</time></trkpt><trkpt lat="43.5901075" lon="6.9308627"><ele>12.0</ele><time>2026-04-12T05:45:21.824Z</time></trkpt><trkpt lat="43.5901681" lon="6.9307874"><ele>12.0</ele><time>2026-04-12T05:45:22.825Z</time></trkpt><trkpt lat="43.590229" lon="6.9307092"><ele>12.0</ele><time>2026-04-12T05:45:23.824Z</time></trkpt><trkpt lat="43.5902876" lon="6.9306292"><ele>12.333333333333334</ele><time>2026-04-12T05:45:24.824Z</time></trkpt><trkpt lat="43.5903454" lon="6.9305485"><ele>12.666666666666668</ele><time>2026-04-12T05:45:25.825Z</time></trkpt><trkpt lat="43.5904012" lon="6.930466"><ele>13.0</ele><time>2026-04-12T05:45:26.824Z</time></trkpt><trkpt lat="43.5904549" lon="6.9303816"><ele>13.333333333333334</ele><time>2026-04-12T05:45:27.825Z</time></trkpt><trkpt lat="43.5905074" lon="6.9302982"><ele>13.666666666666668</ele><time>2026-04-12T05:45:28.825Z</time></trkpt><trkpt lat="43.590558" lon="6.9302153"><ele>14.0</ele><time>2026-04-12T05:45:29.825Z</time></trkpt><trkpt lat="43.5906045" lon="6.9301349"><ele>14.000000000000002</ele><time>2026-04-12T05:45:30.825Z</time></trkpt><trkpt lat="43.5906516" lon="6.9300525"><ele>14.0</ele><time>2026-04-12T05:45:31.825Z</time></trkpt><trkpt lat="43.5906928" lon="6.9299717"><ele>14.0</ele><time>2026-04-12T05:45:32.824Z</time></trkpt><trkpt lat="43.590728" lon="6.9298974"><ele>14.0</ele><time>2026-04-12T05:45:33.825Z</time></trkpt><trkpt lat="43.5907634" lon="6.9298236"><ele>14.000000000000002</ele><time>2026-04-12T05:45:34.825Z</time></trkpt><trkpt lat="43.5908337" lon="6.9296788"><ele>14.0</ele><time>2026-04-12T05:45:36.825Z</time></trkpt><trkpt lat="43.5908958" lon="6.9295507"><ele>14.0</ele><time>2026-04-12T05:45:38.825Z</time></trkpt><trkpt lat="43.5909528" lon="6.9294295"><ele>13.999999999999998</ele><time>2026-04-12T05:45:40.825Z</time></trkpt><trkpt lat="43.5910092" lon="6.9293196"><ele>13.999999999999998</ele><time>2026-04-12T05:45:42.825Z</time></trkpt><trkpt lat="43.5910133" lon="6.9292037"><ele>14.0</ele><time>2026-04-12T05:45:44.825Z</time></trkpt><trkpt lat="43.590941" lon="6.929061"><ele>14.0</ele><time>2026-04-12T05:45:46.825Z</time></trkpt><trkpt lat="43.590881" lon="6.9290048"><ele>14.142857142857142</ele><time>2026-04-12T05:45:47.825Z</time></trkpt><trkpt lat="43.5908076" lon="6.9289609"><ele>14.285714285714285</ele><time>2026-04-12T05:45:48.825Z</time></trkpt><trkpt lat="43.5907368" lon="6.9289196"><ele>14.428571428571429</ele><time>2026-04-12T05:45:49.825Z</time></trkpt><trkpt lat="43.5906698" lon="6.9288852"><ele>14.571428571428571</ele><time>2026-04-12T05:45:50.825Z</time></trkpt><trkpt lat="43.5906023" lon="6.9288615"><ele>14.714285714285714</ele><time>2026-04-12T05:45:51.826Z</time></trkpt><trkpt lat="43.5905341" lon="6.9288346"><ele>14.857142857142858</ele><time>2026-04-12T05:45:52.825Z</time></trkpt><trkpt lat="43.5904573" lon="6.9288077"><ele>15.0</ele><time>2026-04-12T05:45:53.825Z</time></trkpt><trkpt lat="43.5903807" lon="6.9287823"><ele>14.857142857142858</ele><time>2026-04-12T05:45:54.825Z</time></trkpt><trkpt lat="43.5903077" lon="6.9287596"><ele>14.714285714285714</ele><time>2026-04-12T05:45:55.825Z</time></trkpt><trkpt lat="43.5902402" lon="6.9287357"><ele>14.571428571428571</ele><time>2026-04-12T05:45:56.825Z</time></trkpt><trkpt lat="43.5901694" lon="6.9287109"><ele>14.428571428571429</ele><time>2026-04-12T05:45:57.825Z</time></trkpt><trkpt lat="43.5900953" lon="6.9286819"><ele>14.285714285714285</ele><time>2026-04-12T05:45:58.825Z</time></trkpt><trkpt lat="43.5900242" lon="6.9286508"><ele>14.142857142857142</ele><time>2026-04-12T05:45:59.825Z</time></trkpt><trkpt lat="43.5899592" lon="6.9286125"><ele>14.0</ele><time>2026-04-12T05:46:00.825Z</time></trkpt><trkpt lat="43.5898954" lon="6.9285673"><ele>14.000000000000002</ele><time>2026-04-12T05:46:01.825Z</time></trkpt><trkpt lat="43.5898321" lon="6.9285103"><ele>14.0</ele><time>2026-04-12T05:46:02.826Z</time></trkpt><trkpt lat="43.5897762" lon="6.9284421"><ele>14.0</ele><time>2026-04-12T05:46:03.825Z</time></trkpt><trkpt lat="43.5897233" lon="6.9283687"><ele>14.0</ele><time>2026-04-12T05:46:04.825Z</time></trkpt><trkpt lat="43.5896776" lon="6.9283019"><ele>14.000000000000002</ele><time>2026-04-12T05:46:05.825Z</time></trkpt><trkpt lat="43.589592" lon="6.928186"><ele>14.0</ele><time>2026-04-12T05:46:07.826Z</time></trkpt><trkpt lat="43.5895115" lon="6.928071"><ele>13.857142857142858</ele><time>2026-04-12T05:46:09.825Z</time></trkpt><trkpt lat="43.5894209" lon="6.9279604"><ele>13.714285714285715</ele><time>2026-04-12T05:46:11.825Z</time></trkpt><trkpt lat="43.5893693" lon="6.9279016"><ele>13.571428571428571</ele><time>2026-04-12T05:46:12.825Z</time></trkpt><trkpt lat="43.5893191" lon="6.9278454"><ele>13.428571428571429</ele><time>2026-04-12T05:46:13.825Z</time></trkpt><trkpt lat="43.5892718" lon="6.927788"><ele>13.285714285714286</ele><time>2026-04-12T05:46:14.825Z</time></trkpt><trkpt lat="43.5892229" lon="6.9277278"><ele>13.142857142857142</ele><time>2026-04-12T05:46:15.826Z</time></trkpt><trkpt lat="43.5891745" lon="6.9276679"><ele>13.0</ele><time>2026-04-12T05:46:16.826Z</time></trkpt><trkpt lat="43.5891228" lon="6.927609"><ele>12.999999999999998</ele><time>2026-04-12T05:46:17.826Z</time></trkpt><trkpt lat="43.5890687" lon="6.9275426"><ele>13.0</ele><time>2026-04-12T05:46:18.826Z</time></trkpt><trkpt lat="43.5890128" lon="6.9274694"><ele>13.0</ele><time>2026-04-12T05:46:19.826Z</time></trkpt><trkpt lat="43.5889542" lon="6.9274003"><ele>13.0</ele><time>2026-04-12T05:46:20.826Z</time></trkpt><trkpt lat="43.5888945" lon="6.9273293"><ele>12.999999999999998</ele><time>2026-04-12T05:46:21.826Z</time></trkpt><trkpt lat="43.5888337" lon="6.9272532"><ele>13.0</ele><time>2026-04-12T05:46:22.827Z</time></trkpt><trkpt lat="43.5887695" lon="6.9271784"><ele>13.0</ele><time>2026-04-12T05:46:23.825Z</time></trkpt><trkpt lat="43.5886999" lon="6.9271016"><ele>13.0</ele><time>2026-04-12T05:46:24.826Z</time></trkpt><trkpt lat="43.5886221" lon="6.9270288"><ele>13.0</ele><time>2026-04-12T05:46:25.826Z</time></trkpt><trkpt lat="43.5885452" lon="6.9269611"><ele>13.0</ele><time>2026-04-12T05:46:26.827Z</time></trkpt><trkpt lat="43.5884655" lon="6.9268898"><ele>13.0</ele><time>2026-04-12T05:46:27.826Z</time></trkpt><trkpt lat="43.5883769" lon="6.9268138"><ele>12.8</ele><time>2026-04-12T05:46:28.826Z</time></trkpt><trkpt lat="43.5882946" lon="6.9267372"><ele>12.600000000000001</ele><time>2026-04-12T05:46:29.826Z</time></trkpt><trkpt lat="43.5882135" lon="6.9266585"><ele>12.399999999999999</ele><time>2026-04-12T05:46:30.826Z</time></trkpt><trkpt lat="43.5881351" lon="6.9265797"><ele>12.2</ele><time>2026-04-12T05:46:31.826Z</time></trkpt><trkpt lat="43.5880599" lon="6.9264995"><ele>12.0</ele><time>2026-04-12T05:46:32.826Z</time></trkpt><trkpt lat="43.5879859" lon="6.9264208"><ele>12.0</ele><time>2026-04-12T05:46:33.826Z</time></trkpt><trkpt lat="43.5879124" lon="6.9263512"><ele>12.0</ele><time>2026-04-12T05:46:34.826Z</time></trkpt><trkpt lat="43.5878372" lon="6.9262792"><ele>12.0</ele><time>2026-04-12T05:46:35.826Z</time></trkpt><trkpt lat="43.5877585" lon="6.9262024"><ele>12.0</ele><time>2026-04-12T05:46:36.826Z</time></trkpt><trkpt lat="43.5876808" lon="6.9261304"><ele>12.0</ele><time>2026-04-12T05:46:37.826Z</time></trkpt><trkpt lat="43.5876087" lon="6.9260618"><ele>12.166666666666666</ele><time>2026-04-12T05:46:38.827Z</time></trkpt><trkpt lat="43.5875387" lon="6.9259962"><ele>12.333333333333332</ele><time>2026-04-12T05:46:39.826Z</time></trkpt><trkpt lat="43.5874808" lon="6.9259399"><ele>12.5</ele><time>2026-04-12T05:46:40.827Z</time></trkpt><trkpt lat="43.5874257" lon="6.9258869"><ele>12.666666666666666</ele><time>2026-04-12T05:46:41.826Z</time></trkpt><trkpt lat="43.587325" lon="6.9258"><ele>12.833333333333332</ele><time>2026-04-12T05:46:43.826Z</time></trkpt><trkpt lat="43.5872384" lon="6.9257351"><ele>13.0</ele><time>2026-04-12T05:46:45.826Z</time></trkpt><trkpt lat="43.5871732" lon="6.9256657"><ele>12.999999999999998</ele><time>2026-04-12T05:46:47.826Z</time></trkpt><trkpt lat="43.5870946" lon="6.925581"><ele>13.0</ele><time>2026-04-12T05:46:49.826Z</time></trkpt><trkpt lat="43.5870229" lon="6.925527"><ele>13.0</ele><time>2026-04-12T05:46:51.826Z</time></trkpt><trkpt lat="43.5869687" lon="6.925469"><ele>13.0</ele><time>2026-04-12T05:46:53.826Z</time></trkpt><trkpt lat="43.5869429" lon="6.9253893"><ele>12.999999999999998</ele><time>2026-04-12T05:46:57.826Z</time></trkpt><trkpt lat="43.5869785" lon="6.9252794"><ele>13.0</ele><time>2026-04-12T05:47:01.826Z</time></trkpt><trkpt lat="43.5870517" lon="6.9252087"><ele>13.0</ele><time>2026-04-12T05:47:04.827Z</time></trkpt><trkpt lat="43.587129" lon="6.9251711"><ele>13.0</ele><time>2026-04-12T05:47:08.826Z</time></trkpt><trkpt lat="43.5871908" lon="6.9251426"><ele>13.0</ele><time>2026-04-12T05:47:11.826Z</time></trkpt><trkpt lat="43.5872637" lon="6.9251338"><ele>13.0</ele><time>2026-04-12T05:47:14.827Z</time></trkpt><trkpt lat="43.5873308" lon="6.9251341"><ele>13.0</ele><time>2026-04-12T05:47:18.826Z</time></trkpt><trkpt lat="43.5874005" lon="6.9251541"><ele>13.0</ele><time>2026-04-12T05:47:22.827Z</time></trkpt><trkpt lat="43.5874719" lon="6.9251625"><ele>13.0</ele><time>2026-04-12T05:47:26.827Z</time></trkpt><trkpt lat="43.5875465" lon="6.925156"><ele>13.0</ele><time>2026-04-12T05:47:30.827Z</time></trkpt><trkpt lat="43.5876069" lon="6.9251298"><ele>13.0</ele><time>2026-04-12T05:47:33.827Z</time></trkpt><trkpt lat="43.5876812" lon="6.9250611"><ele>13.0</ele><time>2026-04-12T05:47:36.827Z</time></trkpt><trkpt lat="43.5877357" lon="6.9249561"><ele>13.0</ele><time>2026-04-12T05:47:38.827Z</time></trkpt><trkpt lat="43.5877854" lon="6.9248139"><ele>13.0</ele><time>2026-04-12T05:47:40.827Z</time></trkpt><trkpt lat="43.5878368" lon="6.9246705"><ele>12.8</ele><time>2026-04-12T05:47:42.827Z</time></trkpt><trkpt lat="43.5878706" lon="6.9245331"><ele>12.600000000000001</ele><time>2026-04-12T05:47:44.828Z</time></trkpt><trkpt lat="43.5878947" lon="6.9243819"><ele>12.399999999999999</ele><time>2026-04-12T05:47:46.828Z</time></trkpt><trkpt lat="43.5879103" lon="6.9242169"><ele>12.2</ele><time>2026-04-12T05:47:48.827Z</time></trkpt><trkpt lat="43.5879101" lon="6.9241293"><ele>12.0</ele><time>2026-04-12T05:47:49.827Z</time></trkpt><trkpt lat="43.5879058" lon="6.9240395"><ele>12.5</ele><time>2026-04-12T05:47:50.829Z</time></trkpt><trkpt lat="43.5879014" lon="6.9238611"><ele>13.0</ele><time>2026-04-12T05:47:52.827Z</time></trkpt><trkpt lat="43.5878962" lon="6.9237725"><ele>13.5</ele><time>2026-04-12T05:47:53.827Z</time></trkpt><trkpt lat="43.5878928" lon="6.923685"><ele>14.0</ele><time>2026-04-12T05:47:54.828Z</time></trkpt><trkpt lat="43.5878919" lon="6.9235949"><ele>14.5</ele><time>2026-04-12T05:47:55.828Z</time></trkpt><trkpt lat="43.587896" lon="6.9235052"><ele>15.0</ele><time>2026-04-12T05:47:56.828Z</time></trkpt><trkpt lat="43.5879047" lon="6.9234169"><ele>14.833333333333334</ele><time>2026-04-12T05:47:57.828Z</time></trkpt><trkpt lat="43.5879134" lon="6.9233287"><ele>14.666666666666668</ele><time>2026-04-12T05:47:58.828Z</time></trkpt><trkpt lat="43.587915" lon="6.9231622"><ele>14.5</ele><time>2026-04-12T05:48:00.828Z</time></trkpt><trkpt lat="43.5879062" lon="6.9230757"><ele>14.333333333333334</ele><time>2026-04-12T05:48:01.828Z</time></trkpt><trkpt lat="43.5878923" lon="6.9229891"><ele>14.166666666666668</ele><time>2026-04-12T05:48:02.827Z</time></trkpt><trkpt lat="43.5878541" lon="6.922825"><ele>14.0</ele><time>2026-04-12T05:48:04.827Z</time></trkpt><trkpt lat="43.5878165" lon="6.9226644"><ele>18.75</ele><time>2026-04-12T05:48:06.828Z</time></trkpt><trkpt lat="43.5877723" lon="6.9225035"><ele>23.5</ele><time>2026-04-12T05:48:08.828Z</time></trkpt><trkpt lat="43.5877284" lon="6.9223622"><ele>28.25</ele><time>2026-04-12T05:48:10.828Z</time></trkpt><trkpt lat="43.5876907" lon="6.922217"><ele>33.0</ele><time>2026-04-12T05:48:12.829Z</time></trkpt><trkpt lat="43.5876662" lon="6.9220775"><ele>33.0</ele><time>2026-04-12T05:48:14.828Z</time></trkpt><trkpt lat="43.5876726" lon="6.9219534"><ele>33.0</ele><time>2026-04-12T05:48:16.828Z</time></trkpt><trkpt lat="43.5877019" lon="6.9218337"><ele>33.0</ele><time>2026-04-12T05:48:18.828Z</time></trkpt><trkpt lat="43.5877179" lon="6.9217179"><ele>33.0</ele><time>2026-04-12T05:48:20.829Z</time></trkpt><trkpt lat="43.5877167" lon="6.921598"><ele>33.0</ele><time>2026-04-12T05:48:22.828Z</time></trkpt><trkpt lat="43.5877084" lon="6.9214721"><ele>33.0</ele><time>2026-04-12T05:48:24.828Z</time></trkpt><trkpt lat="43.5877065" lon="6.9213495"><ele>33.0</ele><time>2026-04-12T05:48:26.828Z</time></trkpt><trkpt lat="43.5876954" lon="6.921224"><ele>33.0</ele><time>2026-04-12T05:48:28.828Z</time></trkpt><trkpt lat="43.5876818" lon="6.9211095"><ele>33.0</ele><time>2026-04-12T05:48:30.828Z</time></trkpt><trkpt lat="43.5876719" lon="6.9209944"><ele>33.0</ele><time>2026-04-12T05:48:32.828Z</time></trkpt><trkpt lat="43.5876662" lon="6.9208893"><ele>33.0</ele><time>2026-04-12T05:48:34.828Z</time></trkpt><trkpt lat="43.5876735" lon="6.9207899"><ele>33.0</ele><time>2026-04-12T05:48:36.828Z</time></trkpt><trkpt lat="43.5877214" lon="6.9207063"><ele>31.5</ele><time>2026-04-12T05:48:38.828Z</time></trkpt><trkpt lat="43.5878141" lon="6.920696"><ele>30.0</ele><time>2026-04-12T05:48:40.828Z</time></trkpt><trkpt lat="43.5879045" lon="6.920741"><ele>28.5</ele><time>2026-04-12T05:48:42.829Z</time></trkpt><trkpt lat="43.5879899" lon="6.9207805"><ele>27.0</ele><time>2026-04-12T05:48:44.829Z</time></trkpt><trkpt lat="43.5880719" lon="6.9207657"><ele>25.5</ele><time>2026-04-12T05:48:46.828Z</time></trkpt><trkpt lat="43.5881396" lon="6.9207001"><ele>24.0</ele><time>2026-04-12T05:48:48.828Z</time></trkpt><trkpt lat="43.5881796" lon="6.9206053"><ele>23.999999999999996</ele><time>2026-04-12T05:48:50.828Z</time></trkpt><trkpt lat="43.5881892" lon="6.9205129"><ele>24.0</ele><time>2026-04-12T05:48:52.829Z</time></trkpt><trkpt lat="43.5881858" lon="6.9204098"><ele>24.0</ele><time>2026-04-12T05:48:54.828Z</time></trkpt><trkpt lat="43.588191" lon="6.9203152"><ele>24.0</ele><time>2026-04-12T05:48:56.828Z</time></trkpt><trkpt lat="43.5882142" lon="6.9202231"><ele>24.0</ele><time>2026-04-12T05:48:58.829Z</time></trkpt><trkpt lat="43.5882382" lon="6.9201139"><ele>23.999999999999996</ele><time>2026-04-12T05:49:00.829Z</time></trkpt><trkpt lat="43.5882684" lon="6.9200196"><ele>24.0</ele><time>2026-04-12T05:49:02.829Z</time></trkpt><trkpt lat="43.5883005" lon="6.9199393"><ele>25.5</ele><time>2026-04-12T05:49:04.829Z</time></trkpt><trkpt lat="43.588332" lon="6.9198539"><ele>27.0</ele><time>2026-04-12T05:49:06.829Z</time></trkpt><trkpt lat="43.5883647" lon="6.9197616"><ele>28.5</ele><time>2026-04-12T05:49:08.829Z</time></trkpt><trkpt lat="43.5883681" lon="6.9196648"><ele>30.0</ele><time>2026-04-12T05:49:10.829Z</time></trkpt><trkpt lat="43.5883445" lon="6.9195675"><ele>31.5</ele><time>2026-04-12T05:49:12.829Z</time></trkpt><trkpt lat="43.5882907" lon="6.9194726"><ele>33.0</ele><time>2026-04-12T05:49:14.829Z</time></trkpt><trkpt lat="43.5882268" lon="6.9193935"><ele>33.0</ele><time>2026-04-12T05:49:16.829Z</time></trkpt><trkpt lat="43.5881828" lon="6.919323"><ele>33.0</ele><time>2026-04-12T05:49:18.829Z</time></trkpt><trkpt lat="43.5881257" lon="6.9192095"><ele>33.0</ele><time>2026-04-12T05:49:21.829Z</time></trkpt><trkpt lat="43.5880845" lon="6.919123"><ele>33.0</ele><time>2026-04-12T05:49:23.829Z</time></trkpt><trkpt lat="43.5880636" lon="6.9190158"><ele>33.0</ele><time>2026-04-12T05:49:25.829Z</time></trkpt><trkpt lat="43.5880402" lon="6.9189116"><ele>33.0</ele><time>2026-04-12T05:49:27.829Z</time></trkpt><trkpt lat="43.5879899" lon="6.9188314"><ele>32.857142857142854</ele><time>2026-04-12T05:49:29.829Z</time></trkpt><trkpt lat="43.587935" lon="6.9187671"><ele>32.714285714285715</ele><time>2026-04-12T05:49:31.829Z</time></trkpt><trkpt lat="43.5878863" lon="6.9187084"><ele>32.57142857142857</ele><time>2026-04-12T05:49:33.829Z</time></trkpt><trkpt lat="43.5878364" lon="6.9186426"><ele>32.42857142857143</ele><time>2026-04-12T05:49:35.829Z</time></trkpt><trkpt lat="43.5877859" lon="6.9185809"><ele>32.285714285714285</ele><time>2026-04-12T05:49:37.829Z</time></trkpt><trkpt lat="43.5877215" lon="6.9184889"><ele>32.14285714285714</ele><time>2026-04-12T05:49:40.83Z</time></trkpt><trkpt lat="43.5876674" lon="6.9184249"><ele>32.0</ele><time>2026-04-12T05:49:42.829Z</time></trkpt><trkpt lat="43.5876014" lon="6.9183432"><ele>36.33333333333333</ele><time>2026-04-12T05:49:44.83Z</time></trkpt><trkpt lat="43.5875499" lon="6.9182484"><ele>40.666666666666664</ele><time>2026-04-12T05:49:46.83Z</time></trkpt><trkpt lat="43.5875086" lon="6.9181546"><ele>45.0</ele><time>2026-04-12T05:49:48.831Z</time></trkpt><trkpt lat="43.5874744" lon="6.9180622"><ele>49.33333333333333</ele><time>2026-04-12T05:49:50.83Z</time></trkpt><trkpt lat="43.5874543" lon="6.9179606"><ele>53.666666666666664</ele><time>2026-04-12T05:49:52.83Z</time></trkpt><trkpt lat="43.5874719" lon="6.9178753"><ele>58.0</ele><time>2026-04-12T05:49:54.83Z</time></trkpt><trkpt lat="43.5875558" lon="6.9178509"><ele>58.00000000000001</ele><time>2026-04-12T05:49:57.83Z</time></trkpt><trkpt lat="43.5876325" lon="6.917876"><ele>58.0</ele><time>2026-04-12T05:49:59.83Z</time></trkpt><trkpt lat="43.5876904" lon="6.9179135"><ele>58.00000000000001</ele><time>2026-04-12T05:50:01.83Z</time></trkpt><trkpt lat="43.5877556" lon="6.9179397"><ele>58.00000000000001</ele><time>2026-04-12T05:50:03.83Z</time></trkpt><trkpt lat="43.5878166" lon="6.9179657"><ele>58.0</ele><time>2026-04-12T05:50:05.831Z</time></trkpt><trkpt lat="43.5878837" lon="6.9180053"><ele>58.00000000000001</ele><time>2026-04-12T05:50:07.831Z</time></trkpt><trkpt lat="43.58795" lon="6.9180436"><ele>58.00000000000001</ele><time>2026-04-12T05:50:09.83Z</time></trkpt><trkpt lat="43.5880175" lon="6.9180729"><ele>55.71428571428572</ele><time>2026-04-12T05:50:11.83Z</time></trkpt><trkpt lat="43.5880779" lon="6.9181226"><ele>53.42857142857143</ele><time>2026-04-12T05:50:13.83Z</time></trkpt><trkpt lat="43.5881392" lon="6.9181691"><ele>51.142857142857146</ele><time>2026-04-12T05:50:15.831Z</time></trkpt><trkpt lat="43.5881969" lon="6.9182077"><ele>48.85714285714286</ele><time>2026-04-12T05:50:17.831Z</time></trkpt><trkpt lat="43.5882636" lon="6.9182292"><ele>46.57142857142857</ele><time>2026-04-12T05:50:19.83Z</time></trkpt><trkpt lat="43.5883524" lon="6.9182295"><ele>44.285714285714285</ele><time>2026-04-12T05:50:22.83Z</time></trkpt><trkpt lat="43.5884174" lon="6.9181927"><ele>42.0</ele><time>2026-04-12T05:50:24.831Z</time></trkpt><trkpt lat="43.5884646" lon="6.918133"><ele>42.0</ele><time>2026-04-12T05:50:26.83Z</time></trkpt><trkpt lat="43.5885102" lon="6.9180279"><ele>42.0</ele><time>2026-04-12T05:50:29.831Z</time></trkpt><trkpt lat="43.5885434" lon="6.9179185"><ele>42.0</ele><time>2026-04-12T05:50:32.83Z</time></trkpt><trkpt lat="43.5885809" lon="6.917805"><ele>42.0</ele><time>2026-04-12T05:50:35.831Z</time></trkpt><trkpt lat="43.5886083" lon="6.917691"><ele>42.0</ele><time>2026-04-12T05:50:38.832Z</time></trkpt><trkpt lat="43.5886366" lon="6.9175788"><ele>42.0</ele><time>2026-04-12T05:50:41.831Z</time></trkpt><trkpt lat="43.5886931" lon="6.9174823"><ele>43.166666666666664</ele><time>2026-04-12T05:50:44.831Z</time></trkpt><trkpt lat="43.5887719" lon="6.9174251"><ele>44.33333333333333</ele><time>2026-04-12T05:50:47.832Z</time></trkpt><trkpt lat="43.5888532" lon="6.9174194"><ele>45.5</ele><time>2026-04-12T05:50:50.831Z</time></trkpt><trkpt lat="43.5889351" lon="6.9174242"><ele>46.666666666666664</ele><time>2026-04-12T05:50:53.831Z</time></trkpt><trkpt lat="43.5889991" lon="6.9174443"><ele>47.83333333333333</ele><time>2026-04-12T05:50:56.831Z</time></trkpt><trkpt lat="43.5890563" lon="6.9175161"><ele>49.0</ele><time>2026-04-12T05:50:59.831Z</time></trkpt><trkpt lat="43.5890757" lon="6.9176031"><ele>49.0</ele><time>2026-04-12T05:51:02.832Z</time></trkpt><trkpt lat="43.5890904" lon="6.9176973"><ele>49.0</ele><time>2026-04-12T05:51:04.831Z</time></trkpt><trkpt lat="43.589109" lon="6.9178045"><ele>49.0</ele><time>2026-04-12T05:51:07.831Z</time></trkpt><trkpt lat="43.5891444" lon="6.9178898"><ele>49.0</ele><time>2026-04-12T05:51:09.832Z</time></trkpt><trkpt lat="43.5891822" lon="6.9179934"><ele>49.0</ele><time>2026-04-12T05:51:12.831Z</time></trkpt><trkpt lat="43.5892321" lon="6.9180617"><ele>49.0</ele><time>2026-04-12T05:51:15.831Z</time></trkpt><trkpt lat="43.5892904" lon="6.9181152"><ele>49.0</ele><time>2026-04-12T05:51:18.831Z</time></trkpt><trkpt lat="43.5893554" lon="6.9181435"><ele>48.99999999999999</ele><time>2026-04-12T05:51:21.831Z</time></trkpt><trkpt lat="43.5894436" lon="6.9181183"><ele>49.0</ele><time>2026-04-12T05:51:24.831Z</time></trkpt><trkpt lat="43.5895035" lon="6.9180874"><ele>49.0</ele><time>2026-04-12T05:51:26.832Z</time></trkpt><trkpt lat="43.5895724" lon="6.9180129"><ele>49.0</ele><time>2026-04-12T05:51:29.832Z</time></trkpt><trkpt lat="43.5896268" lon="6.9179383"><ele>48.99999999999999</ele><time>2026-04-12T05:51:32.833Z</time></trkpt><trkpt lat="43.5896931" lon="6.9178379"><ele>49.0</ele><time>2026-04-12T05:51:35.832Z</time></trkpt><trkpt lat="43.5897475" lon="6.9177444"><ele>48.99999999999999</ele><time>2026-04-12T05:51:38.832Z</time></trkpt><trkpt lat="43.5897618" lon="6.9176523"><ele>49.0</ele><time>2026-04-12T05:51:41.832Z</time></trkpt><trkpt lat="43.5897038" lon="6.9175547"><ele>49.0</ele><time>2026-04-12T05:51:44.832Z</time></trkpt><trkpt lat="43.5896368" lon="6.9175223"><ele>49.0</ele><time>2026-04-12T05:51:47.832Z</time></trkpt><trkpt lat="43.5895743" lon="6.9176017"><ele>48.99999999999999</ele><time>2026-04-12T05:51:50.832Z</time></trkpt><trkpt lat="43.5895212" lon="6.9176665"><ele>49.0</ele><time>2026-04-12T05:51:53.832Z</time></trkpt><trkpt lat="43.5894386" lon="6.9176897"><ele>48.99999999999999</ele><time>2026-04-12T05:51:56.832Z</time></trkpt><trkpt lat="43.5893779" lon="6.917657"><ele>49.0</ele><time>2026-04-12T05:51:57.832Z</time></trkpt><trkpt lat="43.5893365" lon="6.9175866"><ele>49.0</ele><time>2026-04-12T05:51:59.833Z</time></trkpt><trkpt lat="43.5893213" lon="6.9174865"><ele>49.0</ele><time>2026-04-12T05:52:01.832Z</time></trkpt><trkpt lat="43.5893004" lon="6.9173922"><ele>48.99999999999999</ele><time>2026-04-12T05:52:03.832Z</time></trkpt><trkpt lat="43.5892735" lon="6.9172673"><ele>49.0</ele><time>2026-04-12T05:52:06.833Z</time></trkpt><trkpt lat="43.5892529" lon="6.9171606"><ele>52.166666666666664</ele><time>2026-04-12T05:52:09.833Z</time></trkpt><trkpt lat="43.5892312" lon="6.9170622"><ele>55.33333333333333</ele><time>2026-04-12T05:52:12.833Z</time></trkpt><trkpt lat="43.58919" lon="6.9169706"><ele>58.5</ele><time>2026-04-12T05:52:15.833Z</time></trkpt><trkpt lat="43.589139" lon="6.9168831"><ele>61.66666666666667</ele><time>2026-04-12T05:52:18.833Z</time></trkpt><trkpt lat="43.5890667" lon="6.9168254"><ele>64.83333333333334</ele><time>2026-04-12T05:52:21.833Z</time></trkpt><trkpt lat="43.5889874" lon="6.9168017"><ele>68.0</ele><time>2026-04-12T05:52:24.833Z</time></trkpt><trkpt lat="43.5889022" lon="6.9167802"><ele>70.66666666666667</ele><time>2026-04-12T05:52:27.833Z</time></trkpt><trkpt lat="43.5888386" lon="6.9167211"><ele>73.33333333333334</ele><time>2026-04-12T05:52:30.834Z</time></trkpt><trkpt lat="43.5887997" lon="6.9166384"><ele>76.0</ele><time>2026-04-12T05:52:33.833Z</time></trkpt><trkpt lat="43.5887602" lon="6.9165429"><ele>78.66666666666667</ele><time>2026-04-12T05:52:36.833Z</time></trkpt><trkpt lat="43.58871" lon="6.9164633"><ele>81.33333333333333</ele><time>2026-04-12T05:52:39.833Z</time></trkpt><trkpt lat="43.588649" lon="6.9163985"><ele>84.0</ele><time>2026-04-12T05:52:42.833Z</time></trkpt><trkpt lat="43.5885869" lon="6.9163448"><ele>84.66666666666667</ele><time>2026-04-12T05:52:45.833Z</time></trkpt><trkpt lat="43.5885184" lon="6.9163157"><ele>85.33333333333333</ele><time>2026-04-12T05:52:48.833Z</time></trkpt><trkpt lat="43.5884355" lon="6.9163505"><ele>86.0</ele><time>2026-04-12T05:52:51.834Z</time></trkpt><trkpt lat="43.5883814" lon="6.9164539"><ele>86.66666666666666</ele><time>2026-04-12T05:52:54.834Z</time></trkpt><trkpt lat="43.5883388" lon="6.9165696"><ele>87.33333333333333</ele><time>2026-04-12T05:52:57.834Z</time></trkpt><trkpt lat="43.58831" lon="6.9166808"><ele>88.0</ele><time>2026-04-12T05:53:00.833Z</time></trkpt><trkpt lat="43.5882829" lon="6.9167864"><ele>84.57142857142857</ele><time>2026-04-12T05:53:03.835Z</time></trkpt><trkpt lat="43.5882393" lon="6.9168889"><ele>81.14285714285714</ele><time>2026-04-12T05:53:06.834Z</time></trkpt><trkpt lat="43.5881807" lon="6.9169504"><ele>77.71428571428571</ele><time>2026-04-12T05:53:09.834Z</time></trkpt><trkpt lat="43.5881166" lon="6.9169565"><ele>74.28571428571428</ele><time>2026-04-12T05:53:11.834Z</time></trkpt><trkpt lat="43.5880462" lon="6.9169461"><ele>70.85714285714285</ele><time>2026-04-12T05:53:13.834Z</time></trkpt><trkpt lat="43.5879671" lon="6.9169341"><ele>67.42857142857143</ele><time>2026-04-12T05:53:15.835Z</time></trkpt><trkpt lat="43.5879" lon="6.9169198"><ele>64.0</ele><time>2026-04-12T05:53:17.834Z</time></trkpt><trkpt lat="43.5878113" lon="6.9168944"><ele>63.666666666666664</ele><time>2026-04-12T05:53:20.834Z</time></trkpt><trkpt lat="43.5877402" lon="6.9168557"><ele>63.33333333333333</ele><time>2026-04-12T05:53:23.835Z</time></trkpt><trkpt lat="43.5877098" lon="6.9167785"><ele>63.0</ele><time>2026-04-12T05:53:25.834Z</time></trkpt><trkpt lat="43.5877069" lon="6.9166837"><ele>62.66666666666667</ele><time>2026-04-12T05:53:27.834Z</time></trkpt><trkpt lat="43.5877527" lon="6.9165909"><ele>62.333333333333336</ele><time>2026-04-12T05:53:30.834Z</time></trkpt><trkpt lat="43.5878324" lon="6.9165835"><ele>62.0</ele><time>2026-04-12T05:53:33.834Z</time></trkpt><trkpt lat="43.5879105" lon="6.916623"><ele>65.71428571428572</ele><time>2026-04-12T05:53:36.834Z</time></trkpt><trkpt lat="43.5879965" lon="6.9166592"><ele>69.42857142857143</ele><time>2026-04-12T05:53:39.834Z</time></trkpt><trkpt lat="43.5880659" lon="6.9166722"><ele>73.14285714285714</ele><time>2026-04-12T05:53:41.835Z</time></trkpt><trkpt lat="43.5881416" lon="6.9166491"><ele>76.85714285714286</ele><time>2026-04-12T05:53:43.835Z</time></trkpt><trkpt lat="43.58819" lon="6.9165749"><ele>80.57142857142857</ele><time>2026-04-12T05:53:45.834Z</time></trkpt><trkpt lat="43.5882161" lon="6.9164864"><ele>84.28571428571429</ele><time>2026-04-12T05:53:47.834Z</time></trkpt><trkpt lat="43.5882354" lon="6.9164025"><ele>88.0</ele><time>2026-04-12T05:53:49.834Z</time></trkpt><trkpt lat="43.5882453" lon="6.916314"><ele>88.0</ele><time>2026-04-12T05:53:51.835Z</time></trkpt><trkpt lat="43.5882727" lon="6.9162048"><ele>88.0</ele><time>2026-04-12T05:53:54.835Z</time></trkpt><trkpt lat="43.5883084" lon="6.9161019"><ele>88.0</ele><time>2026-04-12T05:53:57.835Z</time></trkpt><trkpt lat="43.5883477" lon="6.9159984"><ele>88.0</ele><time>2026-04-12T05:54:00.835Z</time></trkpt><trkpt lat="43.5883937" lon="6.9159041"><ele>88.0</ele><time>2026-04-12T05:54:03.835Z</time></trkpt><trkpt lat="43.588454" lon="6.915823"><ele>88.0</ele><time>2026-04-12T05:54:06.836Z</time></trkpt><trkpt lat="43.588542" lon="6.9157797"><ele>87.42857142857143</ele><time>2026-04-12T05:54:09.835Z</time></trkpt><trkpt lat="43.5886066" lon="6.915789"><ele>86.85714285714286</ele><time>2026-04-12T05:54:11.835Z</time></trkpt><trkpt lat="43.5886829" lon="6.9158248"><ele>86.28571428571428</ele><time>2026-04-12T05:54:14.835Z</time></trkpt><trkpt lat="43.5887416" lon="6.9158691"><ele>85.71428571428572</ele><time>2026-04-12T05:54:16.836Z</time></trkpt><trkpt lat="43.588803" lon="6.9159155"><ele>85.14285714285714</ele><time>2026-04-12T05:54:18.836Z</time></trkpt><trkpt lat="43.5888772" lon="6.9159536"><ele>84.57142857142857</ele><time>2026-04-12T05:54:21.835Z</time></trkpt><trkpt lat="43.5889394" lon="6.9159823"><ele>84.0</ele><time>2026-04-12T05:54:23.835Z</time></trkpt><trkpt lat="43.589019" lon="6.9160198"><ele>84.0</ele><time>2026-04-12T05:54:26.835Z</time></trkpt><trkpt lat="43.5890819" lon="6.9160423"><ele>84.0</ele><time>2026-04-12T05:54:28.836Z</time></trkpt><trkpt lat="43.589168" lon="6.9160076"><ele>84.0</ele><time>2026-04-12T05:54:31.836Z</time></trkpt><trkpt lat="43.5892187" lon="6.9159324"><ele>84.0</ele><time>2026-04-12T05:54:34.835Z</time></trkpt><trkpt lat="43.5892127" lon="6.9158358"><ele>84.0</ele><time>2026-04-12T05:54:38.836Z</time></trkpt><trkpt lat="43.5891735" lon="6.9157382"><ele>84.0</ele><time>2026-04-12T05:54:41.836Z</time></trkpt><trkpt lat="43.5891159" lon="6.9156611"><ele>86.16666666666667</ele><time>2026-04-12T05:54:44.836Z</time></trkpt><trkpt lat="43.5890545" lon="6.9155938"><ele>88.33333333333334</ele><time>2026-04-12T05:54:47.836Z</time></trkpt><trkpt lat="43.5889976" lon="6.9155241"><ele>90.5</ele><time>2026-04-12T05:54:50.837Z</time></trkpt><trkpt lat="43.5889378" lon="6.9154551"><ele>92.66666666666667</ele><time>2026-04-12T05:54:53.836Z</time></trkpt><trkpt lat="43.5888695" lon="6.9153884"><ele>94.83333333333334</ele><time>2026-04-12T05:54:56.836Z</time></trkpt><trkpt lat="43.5888133" lon="6.9153356"><ele>97.0</ele><time>2026-04-12T05:54:58.836Z</time></trkpt><trkpt lat="43.5887355" lon="6.9152656"><ele>98.83333333333334</ele><time>2026-04-12T05:55:01.836Z</time></trkpt><trkpt lat="43.5886699" lon="6.9151849"><ele>100.66666666666667</ele><time>2026-04-12T05:55:04.837Z</time></trkpt><trkpt lat="43.5886263" lon="6.9150869"><ele>102.5</ele><time>2026-04-12T05:55:07.836Z</time></trkpt><trkpt lat="43.5886009" lon="6.9149631"><ele>104.33333333333334</ele><time>2026-04-12T05:55:10.836Z</time></trkpt><trkpt lat="43.5885848" lon="6.9148514"><ele>106.16666666666667</ele><time>2026-04-12T05:55:13.836Z</time></trkpt><trkpt lat="43.5885642" lon="6.9147326"><ele>108.0</ele><time>2026-04-12T05:55:16.836Z</time></trkpt><trkpt lat="43.5885115" lon="6.9146588"><ele>108.0</ele><time>2026-04-12T05:55:19.837Z</time></trkpt><trkpt lat="43.5884486" lon="6.9146472"><ele>108.0</ele><time>2026-04-12T05:55:22.838Z</time></trkpt><trkpt lat="43.5883781" lon="6.91472"><ele>108.0</ele><time>2026-04-12T05:55:25.837Z</time></trkpt><trkpt lat="43.5883361" lon="6.9148222"><ele>108.0</ele><time>2026-04-12T05:55:28.837Z</time></trkpt><trkpt lat="43.5883181" lon="6.9149462"><ele>108.0</ele><time>2026-04-12T05:55:31.837Z</time></trkpt><trkpt lat="43.5883288" lon="6.9150678"><ele>108.0</ele><time>2026-04-12T05:55:34.838Z</time></trkpt><trkpt lat="43.5883272" lon="6.915199"><ele>108.0</ele><time>2026-04-12T05:55:37.838Z</time></trkpt><trkpt lat="43.5882881" lon="6.9153069"><ele>108.0</ele><time>2026-04-12T05:55:40.838Z</time></trkpt><trkpt lat="43.5882229" lon="6.9153866"><ele>108.0</ele><time>2026-04-12T05:55:43.837Z</time></trkpt><trkpt lat="43.5881507" lon="6.9154347"><ele>108.0</ele><time>2026-04-12T05:55:46.837Z</time></trkpt><trkpt lat="43.5880738" lon="6.9154605"><ele>108.0</ele><time>2026-04-12T05:55:49.837Z</time></trkpt><trkpt lat="43.5879927" lon="6.9154639"><ele>108.0</ele><time>2026-04-12T05:55:52.838Z</time></trkpt><trkpt lat="43.5879163" lon="6.9154685"><ele>107.66666666666667</ele><time>2026-04-12T05:55:55.837Z</time></trkpt><trkpt lat="43.5878414" lon="6.9154703"><ele>107.33333333333334</ele><time>2026-04-12T05:55:58.837Z</time></trkpt><trkpt lat="43.5877536" lon="6.9154714"><ele>107.0</ele><time>2026-04-12T05:56:01.837Z</time></trkpt><trkpt lat="43.5876799" lon="6.9154416"><ele>106.66666666666667</ele><time>2026-04-12T05:56:04.838Z</time></trkpt><trkpt lat="43.5876078" lon="6.915381"><ele>106.33333333333334</ele><time>2026-04-12T05:56:07.837Z</time></trkpt><trkpt lat="43.5875727" lon="6.915268"><ele>106.0</ele><time>2026-04-12T05:56:10.837Z</time></trkpt><trkpt lat="43.5875781" lon="6.915152"><ele>107.42857142857143</ele><time>2026-04-12T05:56:13.838Z</time></trkpt><trkpt lat="43.5876032" lon="6.9150597"><ele>108.85714285714286</ele><time>2026-04-12T05:56:16.837Z</time></trkpt><trkpt lat="43.5876618" lon="6.9149933"><ele>110.28571428571429</ele><time>2026-04-12T05:56:19.838Z</time></trkpt><trkpt lat="43.5877344" lon="6.9149733"><ele>111.71428571428572</ele><time>2026-04-12T05:56:21.838Z</time></trkpt><trkpt lat="43.5878102" lon="6.9149685"><ele>113.14285714285714</ele><time>2026-04-12T05:56:23.839Z</time></trkpt><trkpt lat="43.5878733" lon="6.9149673"><ele>114.57142857142858</ele><time>2026-04-12T05:56:25.838Z</time></trkpt><trkpt lat="43.5879534" lon="6.9149387"><ele>116.00000000000001</ele><time>2026-04-12T05:56:28.838Z</time></trkpt><trkpt lat="43.5880259" lon="6.9148802"><ele>116.66666666666666</ele><time>2026-04-12T05:56:31.838Z</time></trkpt><trkpt lat="43.58808" lon="6.9147746"><ele>117.33333333333333</ele><time>2026-04-12T05:56:34.838Z</time></trkpt><trkpt lat="43.5881065" lon="6.9146631"><ele>118.0</ele><time>2026-04-12T05:56:37.838Z</time></trkpt><trkpt lat="43.5881292" lon="6.914555"><ele>118.66666666666666</ele><time>2026-04-12T05:56:40.838Z</time></trkpt><trkpt lat="43.5881523" lon="6.9144567"><ele>119.33333333333333</ele><time>2026-04-12T05:56:43.838Z</time></trkpt><trkpt lat="43.5881766" lon="6.9143495"><ele>120.0</ele><time>2026-04-12T05:56:46.838Z</time></trkpt><trkpt lat="43.5882038" lon="6.9142431"><ele>121.33333333333333</ele><time>2026-04-12T05:56:49.839Z</time></trkpt><trkpt lat="43.5882008" lon="6.9141364"><ele>122.66666666666666</ele><time>2026-04-12T05:56:52.839Z</time></trkpt><trkpt lat="43.5881962" lon="6.9140331"><ele>124.0</ele><time>2026-04-12T05:56:55.839Z</time></trkpt><trkpt lat="43.5881994" lon="6.9139172"><ele>125.33333333333333</ele><time>2026-04-12T05:56:58.839Z</time></trkpt><trkpt lat="43.5881958" lon="6.9137951"><ele>126.66666666666666</ele><time>2026-04-12T05:57:01.839Z</time></trkpt><trkpt lat="43.5882008" lon="6.9137036"><ele>128.0</ele><time>2026-04-12T05:57:03.838Z</time></trkpt><trkpt lat="43.588207" lon="6.9135811"><ele>127.99999999999999</ele><time>2026-04-12T05:57:06.839Z</time></trkpt><trkpt lat="43.5882122" lon="6.9134725"><ele>128.0</ele><time>2026-04-12T05:57:09.839Z</time></trkpt><trkpt lat="43.588229" lon="6.9133469"><ele>128.0</ele><time>2026-04-12T05:57:12.839Z</time></trkpt><trkpt lat="43.5882591" lon="6.9132362"><ele>128.0</ele><time>2026-04-12T05:57:15.839Z</time></trkpt><trkpt lat="43.5882826" lon="6.9131184"><ele>127.99999999999999</ele><time>2026-04-12T05:57:18.839Z</time></trkpt><trkpt lat="43.5882764" lon="6.9129963"><ele>128.0</ele><time>2026-04-12T05:57:21.84Z</time></trkpt><trkpt lat="43.5882459" lon="6.9128774"><ele>128.66666666666666</ele><time>2026-04-12T05:57:24.84Z</time></trkpt><trkpt lat="43.5882251" lon="6.9127686"><ele>129.33333333333331</ele><time>2026-04-12T05:57:27.839Z</time></trkpt><trkpt lat="43.5882117" lon="6.9126718"><ele>130.0</ele><time>2026-04-12T05:57:30.839Z</time></trkpt><trkpt lat="43.5881916" lon="6.9125683"><ele>130.66666666666666</ele><time>2026-04-12T05:57:33.84Z</time></trkpt><trkpt lat="43.5881694" lon="6.9124699"><ele>131.33333333333334</ele><time>2026-04-12T05:57:36.839Z</time></trkpt><trkpt lat="43.588154" lon="6.9123653"><ele>132.0</ele><time>2026-04-12T05:57:39.839Z</time></trkpt><trkpt lat="43.5881326" lon="6.9122609"><ele>132.0</ele><time>2026-04-12T05:57:42.839Z</time></trkpt><trkpt lat="43.5881115" lon="6.9121588"><ele>132.0</ele><time>2026-04-12T05:57:45.839Z</time></trkpt><trkpt lat="43.588094" lon="6.9120528"><ele>132.0</ele><time>2026-04-12T05:57:48.84Z</time></trkpt><trkpt lat="43.5880754" lon="6.9119478"><ele>132.0</ele><time>2026-04-12T05:57:51.84Z</time></trkpt><trkpt lat="43.5880609" lon="6.9118414"><ele>132.0</ele><time>2026-04-12T05:57:54.839Z</time></trkpt><trkpt lat="43.5880616" lon="6.9117293"><ele>132.0</ele><time>2026-04-12T05:57:57.84Z</time></trkpt><trkpt lat="43.5880505" lon="6.9116178"><ele>132.33333333333334</ele><time>2026-04-12T05:58:00.84Z</time></trkpt><trkpt lat="43.588047" lon="6.9115066"><ele>132.66666666666666</ele><time>2026-04-12T05:58:03.84Z</time></trkpt><trkpt lat="43.5880439" lon="6.9113866"><ele>133.0</ele><time>2026-04-12T05:58:06.84Z</time></trkpt><trkpt lat="43.5880401" lon="6.9112831"><ele>133.33333333333331</ele><time>2026-04-12T05:58:09.84Z</time></trkpt><trkpt lat="43.5880337" lon="6.911178"><ele>133.66666666666666</ele><time>2026-04-12T05:58:12.84Z</time></trkpt><trkpt lat="43.5880297" lon="6.9110641"><ele>134.0</ele><time>2026-04-12T05:58:15.84Z</time></trkpt><trkpt lat="43.5880223" lon="6.9109519"><ele>135.66666666666666</ele><time>2026-04-12T05:58:18.841Z</time></trkpt><trkpt lat="43.5880159" lon="6.9108466"><ele>137.33333333333331</ele><time>2026-04-12T05:58:21.84Z</time></trkpt><trkpt lat="43.5880147" lon="6.9107361"><ele>139.0</ele><time>2026-04-12T05:58:24.84Z</time></trkpt><trkpt lat="43.5880109" lon="6.9106271"><ele>140.66666666666666</ele><time>2026-04-12T05:58:27.84Z</time></trkpt><trkpt lat="43.5880059" lon="6.9105338"><ele>142.33333333333334</ele><time>2026-04-12T05:58:30.841Z</time></trkpt><trkpt lat="43.5880019" lon="6.910429"><ele>144.0</ele><time>2026-04-12T05:58:33.841Z</time></trkpt><trkpt lat="43.5879978" lon="6.9103315"><ele>144.0</ele><time>2026-04-12T05:58:36.841Z</time></trkpt><trkpt lat="43.5880001" lon="6.9102246"><ele>144.0</ele><time>2026-04-12T05:58:39.84Z</time></trkpt><trkpt lat="43.5880206" lon="6.9101167"><ele>144.0</ele><time>2026-04-12T05:58:42.84Z</time></trkpt><trkpt lat="43.5880631" lon="6.9100289"><ele>144.0</ele><time>2026-04-12T05:58:45.841Z</time></trkpt><trkpt lat="43.5881348" lon="6.909965"><ele>144.0</ele><time>2026-04-12T05:58:48.842Z</time></trkpt><trkpt lat="43.5882231" lon="6.9099452"><ele>144.0</ele><time>2026-04-12T05:58:51.842Z</time></trkpt><trkpt lat="43.5883141" lon="6.9099709"><ele>144.00000000000003</ele><time>2026-04-12T05:58:54.841Z</time></trkpt><trkpt lat="43.588377" lon="6.9100042"><ele>144.0</ele><time>2026-04-12T05:58:56.841Z</time></trkpt><trkpt lat="43.5884404" lon="6.9100368"><ele>144.0</ele><time>2026-04-12T05:58:58.841Z</time></trkpt><trkpt lat="43.5885041" lon="6.9100643"><ele>144.0</ele><time>2026-04-12T05:59:00.842Z</time></trkpt><trkpt lat="43.5885674" lon="6.9100848"><ele>144.0</ele><time>2026-04-12T05:59:02.841Z</time></trkpt><trkpt lat="43.588631" lon="6.9100982"><ele>144.00000000000003</ele><time>2026-04-12T05:59:04.842Z</time></trkpt><trkpt lat="43.5887023" lon="6.9101191"><ele>144.0</ele><time>2026-04-12T05:59:06.841Z</time></trkpt><trkpt lat="43.5887952" lon="6.9101221"><ele>144.0</ele><time>2026-04-12T05:59:09.842Z</time></trkpt><trkpt lat="43.5888562" lon="6.9101475"><ele>144.0</ele><time>2026-04-12T05:59:11.841Z</time></trkpt><trkpt lat="43.5889356" lon="6.9102104"><ele>144.0</ele><time>2026-04-12T05:59:14.841Z</time></trkpt><trkpt lat="43.5890163" lon="6.9102703"><ele>144.0</ele><time>2026-04-12T05:59:17.841Z</time></trkpt><trkpt lat="43.5891025" lon="6.9103063"><ele>144.0</ele><time>2026-04-12T05:59:20.842Z</time></trkpt><trkpt lat="43.5891852" lon="6.9102557"><ele>144.0</ele><time>2026-04-12T05:59:23.841Z</time></trkpt><trkpt lat="43.5892319" lon="6.9101666"><ele>147.33333333333334</ele><time>2026-04-12T05:59:26.841Z</time></trkpt><trkpt lat="43.5892499" lon="6.9100486"><ele>150.66666666666666</ele><time>2026-04-12T05:59:29.842Z</time></trkpt><trkpt lat="43.5892623" lon="6.9099224"><ele>154.0</ele><time>2026-04-12T05:59:32.842Z</time></trkpt><trkpt lat="43.5892959" lon="6.909805"><ele>157.33333333333331</ele><time>2026-04-12T05:59:35.841Z</time></trkpt><trkpt lat="43.5893217" lon="6.9096862"><ele>160.66666666666666</ele><time>2026-04-12T05:59:38.842Z</time></trkpt><trkpt lat="43.5893427" lon="6.9096012"><ele>164.0</ele><time>2026-04-12T05:59:40.842Z</time></trkpt><trkpt lat="43.589358" lon="6.9095081"><ele>163.99999999999997</ele><time>2026-04-12T05:59:42.842Z</time></trkpt><trkpt lat="43.5893794" lon="6.9094154"><ele>164.0</ele><time>2026-04-12T05:59:44.842Z</time></trkpt><trkpt lat="43.5894077" lon="6.9093287"><ele>164.0</ele><time>2026-04-12T05:59:46.842Z</time></trkpt><trkpt lat="43.5894408" lon="6.9092467"><ele>164.0</ele><time>2026-04-12T05:59:48.842Z</time></trkpt><trkpt lat="43.589493" lon="6.9091545"><ele>164.0</ele><time>2026-04-12T05:59:51.842Z</time></trkpt><trkpt lat="43.5895247" lon="6.9090785"><ele>163.99999999999997</ele><time>2026-04-12T05:59:53.842Z</time></trkpt><trkpt lat="43.5895404" lon="6.9089905"><ele>164.0</ele><time>2026-04-12T05:59:55.842Z</time></trkpt><trkpt lat="43.5895229" lon="6.9088672"><ele>166.28571428571428</ele><time>2026-04-12T05:59:58.843Z</time></trkpt><trkpt lat="43.5895076" lon="6.9087724"><ele>168.57142857142856</ele><time>2026-04-12T06:00:00.842Z</time></trkpt><trkpt lat="43.5894861" lon="6.9086711"><ele>170.85714285714283</ele><time>2026-04-12T06:00:02.843Z</time></trkpt><trkpt lat="43.5894594" lon="6.9085771"><ele>173.14285714285714</ele><time>2026-04-12T06:00:04.842Z</time></trkpt><trkpt lat="43.5894256" lon="6.908486"><ele>175.42857142857144</ele><time>2026-04-12T06:00:06.842Z</time></trkpt><trkpt lat="43.5893857" lon="6.9084031"><ele>177.7142857142857</ele><time>2026-04-12T06:00:08.842Z</time></trkpt><trkpt lat="43.5893304" lon="6.9083454"><ele>180.0</ele><time>2026-04-12T06:00:10.843Z</time></trkpt><trkpt lat="43.589265" lon="6.908305"><ele>180.16666666666666</ele><time>2026-04-12T06:00:12.843Z</time></trkpt><trkpt lat="43.5892019" lon="6.90827"><ele>180.33333333333334</ele><time>2026-04-12T06:00:14.842Z</time></trkpt><trkpt lat="43.5891436" lon="6.90822"><ele>180.5</ele><time>2026-04-12T06:00:16.842Z</time></trkpt><trkpt lat="43.5891038" lon="6.908148"><ele>180.66666666666669</ele><time>2026-04-12T06:00:18.843Z</time></trkpt><trkpt lat="43.5890655" lon="6.908033"><ele>180.83333333333334</ele><time>2026-04-12T06:00:21.842Z</time></trkpt><trkpt lat="43.5890321" lon="6.9079076"><ele>181.0</ele><time>2026-04-12T06:00:24.843Z</time></trkpt><trkpt lat="43.5890166" lon="6.9078228"><ele>181.0</ele><time>2026-04-12T06:00:26.842Z</time></trkpt><trkpt lat="43.5889803" lon="6.907704"><ele>181.0</ele><time>2026-04-12T06:00:29.844Z</time></trkpt><trkpt lat="43.5889361" lon="6.9075977"><ele>181.0</ele><time>2026-04-12T06:00:32.843Z</time></trkpt><trkpt lat="43.5888917" lon="6.9074911"><ele>181.0</ele><time>2026-04-12T06:00:35.843Z</time></trkpt><trkpt lat="43.5888526" lon="6.9073772"><ele>181.0</ele><time>2026-04-12T06:00:38.843Z</time></trkpt><trkpt lat="43.58883" lon="6.9072925"><ele>181.0</ele><time>2026-04-12T06:00:40.843Z</time></trkpt><trkpt lat="43.5888185" lon="6.9072067"><ele>181.5</ele><time>2026-04-12T06:00:42.843Z</time></trkpt><trkpt lat="43.5888195" lon="6.9070882"><ele>182.0</ele><time>2026-04-12T06:00:45.843Z</time></trkpt><trkpt lat="43.5888059" lon="6.9069779"><ele>182.5</ele><time>2026-04-12T06:00:48.843Z</time></trkpt><trkpt lat="43.5887797" lon="6.906868"><ele>183.0</ele><time>2026-04-12T06:00:51.843Z</time></trkpt><trkpt lat="43.5887499" lon="6.9067588"><ele>183.5</ele><time>2026-04-12T06:00:54.844Z</time></trkpt><trkpt lat="43.5887285" lon="6.9066714"><ele>184.0</ele><time>2026-04-12T06:00:56.843Z</time></trkpt><trkpt lat="43.5887144" lon="6.9065861"><ele>184.0</ele><time>2026-04-12T06:00:58.844Z</time></trkpt><trkpt lat="43.5886943" lon="6.90646"><ele>184.0</ele><time>2026-04-12T06:01:01.843Z</time></trkpt><trkpt lat="43.5886787" lon="6.9063345"><ele>184.0</ele><time>2026-04-12T06:01:04.843Z</time></trkpt><trkpt lat="43.5886738" lon="6.9062133"><ele>184.0</ele><time>2026-04-12T06:01:07.843Z</time></trkpt><trkpt lat="43.5886683" lon="6.9061218"><ele>184.0</ele><time>2026-04-12T06:01:09.844Z</time></trkpt><trkpt lat="43.5886679" lon="6.906005"><ele>184.0</ele><time>2026-04-12T06:01:12.843Z</time></trkpt><trkpt lat="43.5887267" lon="6.9059157"><ele>184.0</ele><time>2026-04-12T06:01:15.844Z</time></trkpt><trkpt lat="43.5888054" lon="6.9058998"><ele>184.0</ele><time>2026-04-12T06:01:17.844Z</time></trkpt><trkpt lat="43.5888716" lon="6.9059126"><ele>184.0</ele><time>2026-04-12T06:01:19.844Z</time></trkpt><trkpt lat="43.5889302" lon="6.9059496"><ele>184.0</ele><time>2026-04-12T06:01:21.844Z</time></trkpt><trkpt lat="43.5889867" lon="6.9059978"><ele>184.0</ele><time>2026-04-12T06:01:23.845Z</time></trkpt><trkpt lat="43.5890619" lon="6.9060679"><ele>184.0</ele><time>2026-04-12T06:01:26.844Z</time></trkpt><trkpt lat="43.589149" lon="6.9061044"><ele>184.0</ele><time>2026-04-12T06:01:29.844Z</time></trkpt><trkpt lat="43.5892155" lon="6.9060818"><ele>184.0</ele><time>2026-04-12T06:01:31.844Z</time></trkpt><trkpt lat="43.5892872" lon="6.9060141"><ele>184.0</ele><time>2026-04-12T06:01:34.845Z</time></trkpt><trkpt lat="43.5893396" lon="6.9059279"><ele>184.0</ele><time>2026-04-12T06:01:37.844Z</time></trkpt><trkpt lat="43.5893871" lon="6.9058283"><ele>184.0</ele><time>2026-04-12T06:01:40.844Z</time></trkpt><trkpt lat="43.5894316" lon="6.9057343"><ele>184.0</ele><time>2026-04-12T06:01:43.844Z</time></trkpt><trkpt lat="43.5894922" lon="6.9056474"><ele>188.33333333333334</ele><time>2026-04-12T06:01:46.844Z</time></trkpt><trkpt lat="43.589569" lon="6.9056005"><ele>192.66666666666669</ele><time>2026-04-12T06:01:49.845Z</time></trkpt><trkpt lat="43.589663" lon="6.9056079"><ele>197.0</ele><time>2026-04-12T06:01:52.844Z</time></trkpt><trkpt lat="43.5897267" lon="6.9056392"><ele>201.33333333333334</ele><time>2026-04-12T06:01:54.844Z</time></trkpt><trkpt lat="43.5897765" lon="6.9057003"><ele>205.66666666666666</ele><time>2026-04-12T06:01:56.844Z</time></trkpt><trkpt lat="43.5898058" lon="6.9057776"><ele>210.0</ele><time>2026-04-12T06:01:58.845Z</time></trkpt><trkpt lat="43.5898363" lon="6.905896"><ele>207.33333333333334</ele><time>2026-04-12T06:02:01.845Z</time></trkpt><trkpt lat="43.5898577" lon="6.9059787"><ele>204.66666666666669</ele><time>2026-04-12T06:02:03.844Z</time></trkpt><trkpt lat="43.5898941" lon="6.9061001"><ele>202.0</ele><time>2026-04-12T06:02:06.845Z</time></trkpt><trkpt lat="43.5899192" lon="6.9061895"><ele>199.33333333333334</ele><time>2026-04-12T06:02:08.845Z</time></trkpt><trkpt lat="43.5899544" lon="6.9063076"><ele>196.66666666666669</ele><time>2026-04-12T06:02:11.845Z</time></trkpt><trkpt lat="43.5900038" lon="6.9064148"><ele>194.0</ele><time>2026-04-12T06:02:14.845Z</time></trkpt><trkpt lat="43.5900614" lon="6.9064871"><ele>194.00000000000003</ele><time>2026-04-12T06:02:16.845Z</time></trkpt><trkpt lat="43.590122" lon="6.9065327"><ele>194.0</ele><time>2026-04-12T06:02:18.846Z</time></trkpt><trkpt lat="43.5901841" lon="6.9065606"><ele>194.0</ele><time>2026-04-12T06:02:20.846Z</time></trkpt><trkpt lat="43.5902725" lon="6.9065906"><ele>194.0</ele><time>2026-04-12T06:02:23.845Z</time></trkpt><trkpt lat="43.5903619" lon="6.9066172"><ele>194.00000000000003</ele><time>2026-04-12T06:02:26.845Z</time></trkpt><trkpt lat="43.5904565" lon="6.9066139"><ele>194.0</ele><time>2026-04-12T06:02:29.845Z</time></trkpt><trkpt lat="43.5905157" lon="6.906564"><ele>194.7142857142857</ele><time>2026-04-12T06:02:31.845Z</time></trkpt><trkpt lat="43.5905644" lon="6.9065021"><ele>195.42857142857144</ele><time>2026-04-12T06:02:33.845Z</time></trkpt><trkpt lat="43.5906108" lon="6.9064356"><ele>196.14285714285714</ele><time>2026-04-12T06:02:35.846Z</time></trkpt><trkpt lat="43.5906526" lon="6.9063624"><ele>196.85714285714283</ele><time>2026-04-12T06:02:37.847Z</time></trkpt><trkpt lat="43.5906893" lon="6.9062865"><ele>197.57142857142856</ele><time>2026-04-12T06:02:39.846Z</time></trkpt><trkpt lat="43.5907625" lon="6.9062215"><ele>198.28571428571428</ele><time>2026-04-12T06:02:42.845Z</time></trkpt><trkpt lat="43.5908541" lon="6.9062242"><ele>199.0</ele><time>2026-04-12T06:02:45.846Z</time></trkpt><trkpt lat="43.5909192" lon="6.9062587"><ele>198.99999999999997</ele><time>2026-04-12T06:02:47.845Z</time></trkpt><trkpt lat="43.5909888" lon="6.9062839"><ele>199.0</ele><time>2026-04-12T06:02:49.845Z</time></trkpt><trkpt lat="43.5910572" lon="6.9062849"><ele>199.0</ele><time>2026-04-12T06:02:51.845Z</time></trkpt><trkpt lat="43.5911193" lon="6.906257"><ele>199.0</ele><time>2026-04-12T06:02:53.846Z</time></trkpt><trkpt lat="43.5911743" lon="6.9062143"><ele>199.0</ele><time>2026-04-12T06:02:55.846Z</time></trkpt><trkpt lat="43.5912591" lon="6.9061594"><ele>198.99999999999997</ele><time>2026-04-12T06:02:58.846Z</time></trkpt><trkpt lat="43.5913218" lon="6.906135"><ele>199.0</ele><time>2026-04-12T06:03:00.846Z</time></trkpt><trkpt lat="43.5913877" lon="6.9061254"><ele>198.66666666666666</ele><time>2026-04-12T06:03:02.846Z</time></trkpt><trkpt lat="43.591451" lon="6.9061271"><ele>198.33333333333331</ele><time>2026-04-12T06:03:04.846Z</time></trkpt><trkpt lat="43.5915436" lon="6.9061336"><ele>198.0</ele><time>2026-04-12T06:03:07.846Z</time></trkpt><trkpt lat="43.5916331" lon="6.9061188"><ele>197.66666666666669</ele><time>2026-04-12T06:03:10.846Z</time></trkpt><trkpt lat="43.5917168" lon="6.9060769"><ele>197.33333333333334</ele><time>2026-04-12T06:03:13.846Z</time></trkpt><trkpt lat="43.5917726" lon="6.9060362"><ele>197.0</ele><time>2026-04-12T06:03:15.846Z</time></trkpt><trkpt lat="43.5918308" lon="6.9059955"><ele>197.0</ele><time>2026-04-12T06:03:17.847Z</time></trkpt><trkpt lat="43.5918904" lon="6.9059569"><ele>197.0</ele><time>2026-04-12T06:03:19.846Z</time></trkpt><trkpt lat="43.5919538" lon="6.9059234"><ele>197.0</ele><time>2026-04-12T06:03:21.846Z</time></trkpt><trkpt lat="43.5920295" lon="6.9058647"><ele>197.0</ele><time>2026-04-12T06:03:24.846Z</time></trkpt><trkpt lat="43.5920904" lon="6.905832"><ele>197.0</ele><time>2026-04-12T06:03:26.846Z</time></trkpt><trkpt lat="43.5921515" lon="6.9058068"><ele>197.0</ele><time>2026-04-12T06:03:28.847Z</time></trkpt><trkpt lat="43.592221" lon="6.9057827"><ele>197.0</ele><time>2026-04-12T06:03:30.847Z</time></trkpt><trkpt lat="43.5923025" lon="6.9057366"><ele>200.66666666666669</ele><time>2026-04-12T06:03:33.847Z</time></trkpt><trkpt lat="43.592386" lon="6.9056859"><ele>204.33333333333334</ele><time>2026-04-12T06:03:36.847Z</time></trkpt><trkpt lat="43.5924461" lon="6.9056513"><ele>208.0</ele><time>2026-04-12T06:03:38.847Z</time></trkpt><trkpt lat="43.5925058" lon="6.9056202"><ele>211.66666666666669</ele><time>2026-04-12T06:03:40.847Z</time></trkpt><trkpt lat="43.5925669" lon="6.9055934"><ele>215.33333333333334</ele><time>2026-04-12T06:03:42.847Z</time></trkpt><trkpt lat="43.5926527" lon="6.9055511"><ele>219.0</ele><time>2026-04-12T06:03:45.847Z</time></trkpt><trkpt lat="43.5927408" lon="6.9055058"><ele>219.0</ele><time>2026-04-12T06:03:48.847Z</time></trkpt><trkpt lat="43.5927976" lon="6.9054641"><ele>219.0</ele><time>2026-04-12T06:03:50.847Z</time></trkpt><trkpt lat="43.5928573" lon="6.9054259"><ele>219.0</ele><time>2026-04-12T06:03:52.847Z</time></trkpt><trkpt lat="43.5929263" lon="6.9053395"><ele>219.0</ele><time>2026-04-12T06:03:55.847Z</time></trkpt><trkpt lat="43.5929581" lon="6.9052569"><ele>219.0</ele><time>2026-04-12T06:03:57.847Z</time></trkpt><trkpt lat="43.5929759" lon="6.9051607"><ele>219.0</ele><time>2026-04-12T06:03:59.847Z</time></trkpt><trkpt lat="43.5929636" lon="6.9050662"><ele>219.0</ele><time>2026-04-12T06:04:01.847Z</time></trkpt><trkpt lat="43.5929344" lon="6.9049869"><ele>218.33333333333334</ele><time>2026-04-12T06:04:03.847Z</time></trkpt><trkpt lat="43.5928967" lon="6.9049155"><ele>217.66666666666669</ele><time>2026-04-12T06:04:05.847Z</time></trkpt><trkpt lat="43.592844" lon="6.9048538"><ele>217.0</ele><time>2026-04-12T06:04:07.847Z</time></trkpt><trkpt lat="43.5927916" lon="6.9048029"><ele>216.33333333333334</ele><time>2026-04-12T06:04:09.848Z</time></trkpt><trkpt lat="43.5927187" lon="6.904724"><ele>215.66666666666669</ele><time>2026-04-12T06:04:12.847Z</time></trkpt><trkpt lat="43.5926583" lon="6.9046424"><ele>215.0</ele><time>2026-04-12T06:04:15.848Z</time></trkpt><trkpt lat="43.5925996" lon="6.9045678"><ele>216.66666666666669</ele><time>2026-04-12T06:04:18.848Z</time></trkpt><trkpt lat="43.592536" lon="6.9044808"><ele>218.33333333333334</ele><time>2026-04-12T06:04:21.848Z</time></trkpt><trkpt lat="43.5924871" lon="6.9044255"><ele>220.0</ele><time>2026-04-12T06:04:23.847Z</time></trkpt><trkpt lat="43.5924411" lon="6.904362"><ele>221.66666666666669</ele><time>2026-04-12T06:04:25.847Z</time></trkpt><trkpt lat="43.5923787" lon="6.9042772"><ele>223.33333333333334</ele><time>2026-04-12T06:04:28.848Z</time></trkpt><trkpt lat="43.5923216" lon="6.9041986"><ele>225.0</ele><time>2026-04-12T06:04:31.848Z</time></trkpt><trkpt lat="43.5922614" lon="6.9041129"><ele>225.0</ele><time>2026-04-12T06:04:34.848Z</time></trkpt><trkpt lat="43.5921998" lon="6.9040317"><ele>225.0</ele><time>2026-04-12T06:04:37.848Z</time></trkpt><trkpt lat="43.5921344" lon="6.9039449"><ele>225.0</ele><time>2026-04-12T06:04:40.848Z</time></trkpt><trkpt lat="43.5920884" lon="6.9038835"><ele>225.0</ele><time>2026-04-12T06:04:42.849Z</time></trkpt><trkpt lat="43.5920176" lon="6.9038122"><ele>225.0</ele><time>2026-04-12T06:04:45.848Z</time></trkpt><trkpt lat="43.5919463" lon="6.9037525"><ele>225.0</ele><time>2026-04-12T06:04:48.848Z</time></trkpt><trkpt lat="43.5918645" lon="6.9037042"><ele>226.5</ele><time>2026-04-12T06:04:51.848Z</time></trkpt><trkpt lat="43.5917821" lon="6.9036591"><ele>228.0</ele><time>2026-04-12T06:04:54.848Z</time></trkpt><trkpt lat="43.5916932" lon="6.9036121"><ele>229.5</ele><time>2026-04-12T06:04:57.848Z</time></trkpt><trkpt lat="43.5916132" lon="6.9035611"><ele>231.0</ele><time>2026-04-12T06:05:00.848Z</time></trkpt><trkpt lat="43.5915634" lon="6.9034514"><ele>232.5</ele><time>2026-04-12T06:05:03.849Z</time></trkpt><trkpt lat="43.5915314" lon="6.9033761"><ele>234.0</ele><time>2026-04-12T06:05:05.848Z</time></trkpt><trkpt lat="43.5914731" lon="6.9032743"><ele>234.0</ele><time>2026-04-12T06:05:08.849Z</time></trkpt><trkpt lat="43.5914128" lon="6.9031963"><ele>234.0</ele><time>2026-04-12T06:05:11.849Z</time></trkpt><trkpt lat="43.5913524" lon="6.9031557"><ele>234.0</ele><time>2026-04-12T06:05:13.848Z</time></trkpt><trkpt lat="43.5912737" lon="6.9031259"><ele>234.0</ele><time>2026-04-12T06:05:16.849Z</time></trkpt><trkpt lat="43.5912075" lon="6.9031095"><ele>234.0</ele><time>2026-04-12T06:05:18.85Z</time></trkpt><trkpt lat="43.5911143" lon="6.9031077"><ele>234.0</ele><time>2026-04-12T06:05:21.849Z</time></trkpt><trkpt lat="43.5910345" lon="6.9031051"><ele>236.5</ele><time>2026-04-12T06:05:24.849Z</time></trkpt><trkpt lat="43.5909509" lon="6.9030785"><ele>239.0</ele><time>2026-04-12T06:05:27.849Z</time></trkpt><trkpt lat="43.5908889" lon="6.9030542"><ele>241.5</ele><time>2026-04-12T06:05:29.85Z</time></trkpt><trkpt lat="43.5908052" lon="6.9030223"><ele>244.0</ele><time>2026-04-12T06:05:32.849Z</time></trkpt><trkpt lat="43.5907212" lon="6.9030067"><ele>246.5</ele><time>2026-04-12T06:05:35.849Z</time></trkpt><trkpt lat="43.5906581" lon="6.9030034"><ele>249.0</ele><time>2026-04-12T06:05:37.849Z</time></trkpt><trkpt lat="43.5905849" lon="6.9030131"><ele>249.0</ele><time>2026-04-12T06:05:41.849Z</time></trkpt><trkpt lat="43.5904925" lon="6.9030121"><ele>249.0</ele><time>2026-04-12T06:05:44.85Z</time></trkpt><trkpt lat="43.590412" lon="6.9030068"><ele>249.0</ele><time>2026-04-12T06:05:47.85Z</time></trkpt><trkpt lat="43.5903397" lon="6.9029692"><ele>249.0</ele><time>2026-04-12T06:05:49.849Z</time></trkpt><trkpt lat="43.5902638" lon="6.9028958"><ele>249.0</ele><time>2026-04-12T06:05:51.849Z</time></trkpt><trkpt lat="43.5902392" lon="6.9028046"><ele>249.0</ele><time>2026-04-12T06:05:53.849Z</time></trkpt><trkpt lat="43.5902381" lon="6.9027138"><ele>249.66666666666666</ele><time>2026-04-12T06:05:55.849Z</time></trkpt><trkpt lat="43.5902354" lon="6.9025973"><ele>250.33333333333331</ele><time>2026-04-12T06:05:58.849Z</time></trkpt><trkpt lat="43.5901947" lon="6.9025029"><ele>251.0</ele><time>2026-04-12T06:06:01.849Z</time></trkpt><trkpt lat="43.5901519" lon="6.9024114"><ele>251.66666666666666</ele><time>2026-04-12T06:06:04.851Z</time></trkpt><trkpt lat="43.5900935" lon="6.9023325"><ele>252.33333333333331</ele><time>2026-04-12T06:06:07.85Z</time></trkpt><trkpt lat="43.5900341" lon="6.9022516"><ele>253.0</ele><time>2026-04-12T06:06:10.85Z</time></trkpt><trkpt lat="43.5899727" lon="6.9021755"><ele>252.99999999999997</ele><time>2026-04-12T06:06:13.85Z</time></trkpt><trkpt lat="43.5899118" lon="6.9021111"><ele>253.0</ele><time>2026-04-12T06:06:16.85Z</time></trkpt><trkpt lat="43.5898343" lon="6.9020518"><ele>253.0</ele><time>2026-04-12T06:06:19.85Z</time></trkpt><trkpt lat="43.5897535" lon="6.9019947"><ele>253.0</ele><time>2026-04-12T06:06:22.85Z</time></trkpt><trkpt lat="43.5896747" lon="6.901933"><ele>252.99999999999997</ele><time>2026-04-12T06:06:25.85Z</time></trkpt><trkpt lat="43.5895994" lon="6.901875"><ele>253.0</ele><time>2026-04-12T06:06:28.85Z</time></trkpt><trkpt lat="43.5895256" lon="6.9018099"><ele>252.16666666666666</ele><time>2026-04-12T06:06:31.852Z</time></trkpt><trkpt lat="43.58945" lon="6.9017536"><ele>251.33333333333331</ele><time>2026-04-12T06:06:34.85Z</time></trkpt><trkpt lat="43.5893588" lon="6.9017288"><ele>250.5</ele><time>2026-04-12T06:06:37.85Z</time></trkpt><trkpt lat="43.5892721" lon="6.9017454"><ele>249.66666666666669</ele><time>2026-04-12T06:06:40.85Z</time></trkpt><trkpt lat="43.5891928" lon="6.9017998"><ele>248.83333333333334</ele><time>2026-04-12T06:06:43.85Z</time></trkpt><trkpt lat="43.5891269" lon="6.9018796"><ele>248.0</ele><time>2026-04-12T06:06:46.85Z</time></trkpt><trkpt lat="43.5890769" lon="6.9019748"><ele>251.00000000000003</ele><time>2026-04-12T06:06:49.851Z</time></trkpt><trkpt lat="43.5890428" lon="6.9020848"><ele>254.0</ele><time>2026-04-12T06:06:52.851Z</time></trkpt><trkpt lat="43.5890128" lon="6.9021889"><ele>257.0</ele><time>2026-04-12T06:06:55.851Z</time></trkpt><trkpt lat="43.5889634" lon="6.9022832"><ele>260.0</ele><time>2026-04-12T06:06:58.851Z</time></trkpt><trkpt lat="43.5888827" lon="6.9023408"><ele>263.0</ele><time>2026-04-12T06:07:01.851Z</time></trkpt><trkpt lat="43.5888022" lon="6.902331"><ele>266.0</ele><time>2026-04-12T06:07:04.851Z</time></trkpt><trkpt lat="43.5887314" lon="6.9022648"><ele>267.33333333333337</ele><time>2026-04-12T06:07:07.851Z</time></trkpt><trkpt lat="43.5886673" lon="6.9022022"><ele>268.6666666666667</ele><time>2026-04-12T06:07:10.851Z</time></trkpt><trkpt lat="43.5885952" lon="6.9021424"><ele>270.0</ele><time>2026-04-12T06:07:13.851Z</time></trkpt><trkpt lat="43.5885221" lon="6.9020776"><ele>271.3333333333333</ele><time>2026-04-12T06:07:16.851Z</time></trkpt><trkpt lat="43.5884498" lon="6.9020186"><ele>272.66666666666663</ele><time>2026-04-12T06:07:19.851Z</time></trkpt><trkpt lat="43.5883861" lon="6.901962"><ele>274.0</ele><time>2026-04-12T06:07:22.851Z</time></trkpt><trkpt lat="43.5883152" lon="6.9019118"><ele>274.0</ele><time>2026-04-12T06:07:25.851Z</time></trkpt><trkpt lat="43.5882461" lon="6.9018503"><ele>274.0</ele><time>2026-04-12T06:07:28.851Z</time></trkpt><trkpt lat="43.588171" lon="6.9017877"><ele>274.0</ele><time>2026-04-12T06:07:31.851Z</time></trkpt><trkpt lat="43.5881074" lon="6.9017189"><ele>274.0</ele><time>2026-04-12T06:07:34.852Z</time></trkpt><trkpt lat="43.5880631" lon="6.9016362"><ele>274.0</ele><time>2026-04-12T06:07:37.851Z</time></trkpt><trkpt lat="43.5880268" lon="6.9015288"><ele>274.0</ele><time>2026-04-12T06:07:40.853Z</time></trkpt><trkpt lat="43.5880004" lon="6.9014211"><ele>272.16666666666663</ele><time>2026-04-12T06:07:43.852Z</time></trkpt><trkpt lat="43.5880018" lon="6.9013204"><ele>270.3333333333333</ele><time>2026-04-12T06:07:46.852Z</time></trkpt><trkpt lat="43.5880257" lon="6.9012093"><ele>268.5</ele><time>2026-04-12T06:07:49.852Z</time></trkpt><trkpt lat="43.5880382" lon="6.9011098"><ele>266.6666666666667</ele><time>2026-04-12T06:07:52.852Z</time></trkpt><trkpt lat="43.588024" lon="6.9009869"><ele>264.83333333333337</ele><time>2026-04-12T06:07:55.852Z</time></trkpt><trkpt lat="43.5880077" lon="6.9008986"><ele>263.0</ele><time>2026-04-12T06:07:57.852Z</time></trkpt><trkpt lat="43.5879814" lon="6.9008059"><ele>262.1666666666667</ele><time>2026-04-12T06:07:59.852Z</time></trkpt><trkpt lat="43.5879469" lon="6.9007214"><ele>261.33333333333337</ele><time>2026-04-12T06:08:01.852Z</time></trkpt><trkpt lat="43.5879099" lon="6.9006332"><ele>260.5</ele><time>2026-04-12T06:08:03.852Z</time></trkpt><trkpt lat="43.587886" lon="6.9005472"><ele>259.6666666666667</ele><time>2026-04-12T06:08:05.852Z</time></trkpt><trkpt lat="43.5878515" lon="6.900442"><ele>258.8333333333333</ele><time>2026-04-12T06:08:08.852Z</time></trkpt><trkpt lat="43.5878234" lon="6.9003332"><ele>258.0</ele><time>2026-04-12T06:08:11.852Z</time></trkpt><trkpt lat="43.5877868" lon="6.9002343"><ele>257.6666666666667</ele><time>2026-04-12T06:08:14.853Z</time></trkpt><trkpt lat="43.5877606" lon="6.90012"><ele>257.3333333333333</ele><time>2026-04-12T06:08:17.853Z</time></trkpt><trkpt lat="43.587744" lon="6.9000087"><ele>257.0</ele><time>2026-04-12T06:08:20.853Z</time></trkpt><trkpt lat="43.5877426" lon="6.8999152"><ele>256.66666666666663</ele><time>2026-04-12T06:08:22.853Z</time></trkpt><trkpt lat="43.5877669" lon="6.8997955"><ele>256.3333333333333</ele><time>2026-04-12T06:08:25.854Z</time></trkpt><trkpt lat="43.5877989" lon="6.8997201"><ele>256.0</ele><time>2026-04-12T06:08:27.853Z</time></trkpt><trkpt lat="43.5878489" lon="6.8996284"><ele>255.99999999999997</ele><time>2026-04-12T06:08:30.853Z</time></trkpt><trkpt lat="43.5878928" lon="6.8995187"><ele>256.0</ele><time>2026-04-12T06:08:33.853Z</time></trkpt><trkpt lat="43.5879219" lon="6.8994164"><ele>256.0</ele><time>2026-04-12T06:08:36.854Z</time></trkpt><trkpt lat="43.5879417" lon="6.899298"><ele>256.0</ele><time>2026-04-12T06:08:39.853Z</time></trkpt><trkpt lat="43.5879553" lon="6.8992051"><ele>255.99999999999997</ele><time>2026-04-12T06:08:42.853Z</time></trkpt><trkpt lat="43.5879678" lon="6.8991198"><ele>256.0</ele><time>2026-04-12T06:08:44.853Z</time></trkpt><trkpt lat="43.5879802" lon="6.8990326"><ele>257.5</ele><time>2026-04-12T06:08:46.854Z</time></trkpt><trkpt lat="43.5880061" lon="6.8989118"><ele>259.0</ele><time>2026-04-12T06:08:49.853Z</time></trkpt><trkpt lat="43.5880267" lon="6.8988008"><ele>260.5</ele><time>2026-04-12T06:08:52.853Z</time></trkpt><trkpt lat="43.5880394" lon="6.8987032"><ele>262.0</ele><time>2026-04-12T06:08:55.853Z</time></trkpt><trkpt lat="43.5880572" lon="6.8985982"><ele>263.5</ele><time>2026-04-12T06:08:58.853Z</time></trkpt><trkpt lat="43.5880697" lon="6.898486"><ele>265.0</ele><time>2026-04-12T06:09:01.854Z</time></trkpt><trkpt lat="43.5880891" lon="6.8983786"><ele>267.2857142857143</ele><time>2026-04-12T06:09:04.853Z</time></trkpt><trkpt lat="43.588115" lon="6.8982975"><ele>269.57142857142856</ele><time>2026-04-12T06:09:06.854Z</time></trkpt><trkpt lat="43.5881613" lon="6.8982334"><ele>271.8571428571429</ele><time>2026-04-12T06:09:08.853Z</time></trkpt><trkpt lat="43.5882117" lon="6.8981754"><ele>274.1428571428571</ele><time>2026-04-12T06:09:10.854Z</time></trkpt><trkpt lat="43.588262" lon="6.898093"><ele>276.42857142857144</ele><time>2026-04-12T06:09:13.854Z</time></trkpt><trkpt lat="43.5883063" lon="6.8980178"><ele>278.7142857142857</ele><time>2026-04-12T06:09:15.854Z</time></trkpt><trkpt lat="43.5883512" lon="6.8979241"><ele>281.0</ele><time>2026-04-12T06:09:17.854Z</time></trkpt><trkpt lat="43.5883894" lon="6.897811"><ele>281.0</ele><time>2026-04-12T06:09:19.854Z</time></trkpt><trkpt lat="43.5884124" lon="6.8977129"><ele>281.0</ele><time>2026-04-12T06:09:21.854Z</time></trkpt><trkpt lat="43.5884464" lon="6.8976099"><ele>281.0</ele><time>2026-04-12T06:09:23.855Z</time></trkpt><trkpt lat="43.5884819" lon="6.8975161"><ele>281.0</ele><time>2026-04-12T06:09:25.854Z</time></trkpt><trkpt lat="43.5885207" lon="6.8974284"><ele>281.0</ele><time>2026-04-12T06:09:27.854Z</time></trkpt><trkpt lat="43.5885622" lon="6.8973456"><ele>281.0</ele><time>2026-04-12T06:09:29.854Z</time></trkpt><trkpt lat="43.5886143" lon="6.8972556"><ele>280.6666666666667</ele><time>2026-04-12T06:09:31.854Z</time></trkpt><trkpt lat="43.5886513" lon="6.8971661"><ele>280.33333333333337</ele><time>2026-04-12T06:09:33.854Z</time></trkpt><trkpt lat="43.5886771" lon="6.8970765"><ele>280.0</ele><time>2026-04-12T06:09:35.854Z</time></trkpt><trkpt lat="43.588693" lon="6.8969792"><ele>279.6666666666667</ele><time>2026-04-12T06:09:37.854Z</time></trkpt><trkpt lat="43.5886818" lon="6.8968814"><ele>279.3333333333333</ele><time>2026-04-12T06:09:39.854Z</time></trkpt><trkpt lat="43.5886379" lon="6.8967853"><ele>279.0</ele><time>2026-04-12T06:09:41.854Z</time></trkpt><trkpt lat="43.5885739" lon="6.8966796"><ele>281.0</ele><time>2026-04-12T06:09:43.854Z</time></trkpt><trkpt lat="43.5884699" lon="6.8966005"><ele>283.0</ele><time>2026-04-12T06:09:45.854Z</time></trkpt><trkpt lat="43.5883599" lon="6.8965285"><ele>285.0</ele><time>2026-04-12T06:09:47.854Z</time></trkpt><trkpt lat="43.5882442" lon="6.8964902"><ele>287.0</ele><time>2026-04-12T06:09:49.855Z</time></trkpt><trkpt lat="43.5881729" lon="6.8965054"><ele>289.0</ele><time>2026-04-12T06:09:50.855Z</time></trkpt><trkpt lat="43.5881045" lon="6.89653"><ele>289.0</ele><time>2026-04-12T06:09:51.856Z</time></trkpt><trkpt lat="43.5880381" lon="6.8965682"><ele>289.0</ele><time>2026-04-12T06:09:52.855Z</time></trkpt><trkpt lat="43.5879663" lon="6.8966063"><ele>289.0</ele><time>2026-04-12T06:09:53.855Z</time></trkpt><trkpt lat="43.5878919" lon="6.8966295"><ele>289.0</ele><time>2026-04-12T06:09:54.855Z</time></trkpt><trkpt lat="43.5878135" lon="6.8966386"><ele>289.0</ele><time>2026-04-12T06:09:55.855Z</time></trkpt><trkpt lat="43.5877341" lon="6.8966513"><ele>289.0</ele><time>2026-04-12T06:09:56.855Z</time></trkpt><trkpt lat="43.5876553" lon="6.8966544"><ele>289.0</ele><time>2026-04-12T06:09:57.855Z</time></trkpt><trkpt lat="43.5875801" lon="6.8966525"><ele>289.0</ele><time>2026-04-12T06:09:58.855Z</time></trkpt><trkpt lat="43.5875058" lon="6.8966092"><ele>289.0</ele><time>2026-04-12T06:09:59.856Z</time></trkpt><trkpt lat="43.587442" lon="6.8965301"><ele>289.0</ele><time>2026-04-12T06:10:00.854Z</time></trkpt><trkpt lat="43.5873805" lon="6.8964144"><ele>289.0</ele><time>2026-04-12T06:10:01.855Z</time></trkpt><trkpt lat="43.5873207" lon="6.8963271"><ele>289.0</ele><time>2026-04-12T06:10:02.855Z</time></trkpt><trkpt lat="43.5872419" lon="6.8962825"><ele>289.0</ele><time>2026-04-12T06:10:03.855Z</time></trkpt><trkpt lat="43.5871416" lon="6.8962826"><ele>289.0</ele><time>2026-04-12T06:10:04.855Z</time></trkpt><trkpt lat="43.5870389" lon="6.8963262"><ele>289.0</ele><time>2026-04-12T06:10:05.856Z</time></trkpt><trkpt lat="43.5869391" lon="6.896404"><ele>289.0</ele><time>2026-04-12T06:10:06.855Z</time></trkpt><trkpt lat="43.5868589" lon="6.8964942"><ele>289.0</ele><time>2026-04-12T06:10:07.855Z</time></trkpt><trkpt lat="43.5867925" lon="6.896607"><ele>290.2</ele><time>2026-04-12T06:10:08.856Z</time></trkpt><trkpt lat="43.5867391" lon="6.896724"><ele>291.4</ele><time>2026-04-12T06:10:09.855Z</time></trkpt><trkpt lat="43.5866876" lon="6.8968325"><ele>292.6</ele><time>2026-04-12T06:10:10.856Z</time></trkpt><trkpt lat="43.5866308" lon="6.8969398"><ele>293.8</ele><time>2026-04-12T06:10:11.855Z</time></trkpt><trkpt lat="43.5865643" lon="6.8970486"><ele>295.0</ele><time>2026-04-12T06:10:12.855Z</time></trkpt><trkpt lat="43.5864855" lon="6.8971528"><ele>295.0</ele><time>2026-04-12T06:10:13.855Z</time></trkpt><trkpt lat="43.5863944" lon="6.8972338"><ele>295.0</ele><time>2026-04-12T06:10:14.855Z</time></trkpt><trkpt lat="43.5862965" lon="6.8973012"><ele>295.0</ele><time>2026-04-12T06:10:15.855Z</time></trkpt><trkpt lat="43.5861952" lon="6.8973681"><ele>295.0</ele><time>2026-04-12T06:10:16.855Z</time></trkpt><trkpt lat="43.5861053" lon="6.8974533"><ele>295.0</ele><time>2026-04-12T06:10:17.855Z</time></trkpt><trkpt lat="43.5860303" lon="6.8975636"><ele>293.6</ele><time>2026-04-12T06:10:18.855Z</time></trkpt><trkpt lat="43.5859768" lon="6.8976916"><ele>292.2</ele><time>2026-04-12T06:10:19.855Z</time></trkpt><trkpt lat="43.5859475" lon="6.8978383"><ele>290.8</ele><time>2026-04-12T06:10:20.855Z</time></trkpt><trkpt lat="43.5859307" lon="6.8979689"><ele>289.4</ele><time>2026-04-12T06:10:21.855Z</time></trkpt><trkpt lat="43.5858783" lon="6.8980653"><ele>288.0</ele><time>2026-04-12T06:10:22.856Z</time></trkpt><trkpt lat="43.5857989" lon="6.8981179"><ele>288.0</ele><time>2026-04-12T06:10:23.855Z</time></trkpt><trkpt lat="43.5856915" lon="6.8981576"><ele>288.0</ele><time>2026-04-12T06:10:24.855Z</time></trkpt><trkpt lat="43.5856058" lon="6.8982266"><ele>288.0</ele><time>2026-04-12T06:10:25.855Z</time></trkpt><trkpt lat="43.5855374" lon="6.8983556"><ele>288.0</ele><time>2026-04-12T06:10:26.855Z</time></trkpt><trkpt lat="43.5854686" lon="6.898463"><ele>288.0</ele><time>2026-04-12T06:10:27.855Z</time></trkpt><trkpt lat="43.5853652" lon="6.898531"><ele>287.75</ele><time>2026-04-12T06:10:28.855Z</time></trkpt><trkpt lat="43.5852585" lon="6.898537"><ele>287.5</ele><time>2026-04-12T06:10:29.855Z</time></trkpt><trkpt lat="43.5851434" lon="6.8984928"><ele>287.25</ele><time>2026-04-12T06:10:30.856Z</time></trkpt><trkpt lat="43.5850503" lon="6.8983742"><ele>287.0</ele><time>2026-04-12T06:10:31.855Z</time></trkpt><trkpt lat="43.5849968" lon="6.8982153"><ele>286.2</ele><time>2026-04-12T06:10:32.855Z</time></trkpt><trkpt lat="43.5849847" lon="6.8980583"><ele>285.4</ele><time>2026-04-12T06:10:33.856Z</time></trkpt><trkpt lat="43.5850135" lon="6.8979096"><ele>284.6</ele><time>2026-04-12T06:10:34.857Z</time></trkpt><trkpt lat="43.5850697" lon="6.8977741"><ele>283.8</ele><time>2026-04-12T06:10:35.857Z</time></trkpt><trkpt lat="43.5851303" lon="6.8976551"><ele>283.0</ele><time>2026-04-12T06:10:36.856Z</time></trkpt><trkpt lat="43.5851654" lon="6.8975362"><ele>283.0</ele><time>2026-04-12T06:10:37.857Z</time></trkpt><trkpt lat="43.5851792" lon="6.8974151"><ele>283.0</ele><time>2026-04-12T06:10:38.855Z</time></trkpt><trkpt lat="43.5851956" lon="6.8972963"><ele>283.0</ele><time>2026-04-12T06:10:39.856Z</time></trkpt><trkpt lat="43.5852304" lon="6.8971932"><ele>283.0</ele><time>2026-04-12T06:10:40.856Z</time></trkpt><trkpt lat="43.5852785" lon="6.8970979"><ele>283.0</ele><time>2026-04-12T06:10:41.856Z</time></trkpt><trkpt lat="43.5853115" lon="6.8969986"><ele>283.0</ele><time>2026-04-12T06:10:42.857Z</time></trkpt><trkpt lat="43.5853276" lon="6.8968937"><ele>283.0</ele><time>2026-04-12T06:10:43.856Z</time></trkpt><trkpt lat="43.5853234" lon="6.8967885"><ele>283.0</ele><time>2026-04-12T06:10:44.856Z</time></trkpt><trkpt lat="43.5853214" lon="6.8966834"><ele>283.0</ele><time>2026-04-12T06:10:45.856Z</time></trkpt><trkpt lat="43.5853437" lon="6.89659"><ele>283.0</ele><time>2026-04-12T06:10:46.856Z</time></trkpt><trkpt lat="43.5853859" lon="6.896504"><ele>283.0</ele><time>2026-04-12T06:10:47.856Z</time></trkpt><trkpt lat="43.5854289" lon="6.8964274"><ele>283.0</ele><time>2026-04-12T06:10:48.856Z</time></trkpt><trkpt lat="43.5854616" lon="6.8963385"><ele>283.0</ele><time>2026-04-12T06:10:49.856Z</time></trkpt><trkpt lat="43.5854865" lon="6.8962364"><ele>285.8333333333333</ele><time>2026-04-12T06:10:50.856Z</time></trkpt><trkpt lat="43.5854871" lon="6.8961298"><ele>288.66666666666663</ele><time>2026-04-12T06:10:51.856Z</time></trkpt><trkpt lat="43.5854639" lon="6.89603"><ele>291.5</ele><time>2026-04-12T06:10:52.856Z</time></trkpt><trkpt lat="43.5854253" lon="6.8959392"><ele>294.3333333333333</ele><time>2026-04-12T06:10:53.856Z</time></trkpt><trkpt lat="43.5853787" lon="6.8958529"><ele>297.1666666666667</ele><time>2026-04-12T06:10:54.856Z</time></trkpt><trkpt lat="43.5853301" lon="6.89577"><ele>300.0</ele><time>2026-04-12T06:10:55.856Z</time></trkpt><trkpt lat="43.5853042" lon="6.8956725"><ele>300.0</ele><time>2026-04-12T06:10:56.857Z</time></trkpt><trkpt lat="43.5853107" lon="6.8955753"><ele>300.0</ele><time>2026-04-12T06:10:57.856Z</time></trkpt><trkpt lat="43.5853853" lon="6.8954421"><ele>300.0</ele><time>2026-04-12T06:10:59.856Z</time></trkpt><trkpt lat="43.5854418" lon="6.8953948"><ele>300.0</ele><time>2026-04-12T06:11:00.856Z</time></trkpt><trkpt lat="43.5855003" lon="6.8953507"><ele>300.0</ele><time>2026-04-12T06:11:01.856Z</time></trkpt><trkpt lat="43.5855689" lon="6.8953096"><ele>300.0</ele><time>2026-04-12T06:11:02.856Z</time></trkpt><trkpt lat="43.5856324" lon="6.8952506"><ele>296.99999999999994</ele><time>2026-04-12T06:11:03.856Z</time></trkpt><trkpt lat="43.5856847" lon="6.8951746"><ele>294.0</ele><time>2026-04-12T06:11:04.856Z</time></trkpt><trkpt lat="43.5857161" lon="6.8950892"><ele>291.0</ele><time>2026-04-12T06:11:05.856Z</time></trkpt><trkpt lat="43.5857362" lon="6.8950006"><ele>288.0</ele><time>2026-04-12T06:11:06.856Z</time></trkpt><trkpt lat="43.5857502" lon="6.8949042"><ele>285.0</ele><time>2026-04-12T06:11:07.856Z</time></trkpt><trkpt lat="43.5857646" lon="6.8948099"><ele>281.99999999999994</ele><time>2026-04-12T06:11:08.856Z</time></trkpt><trkpt lat="43.5857847" lon="6.8947216"><ele>279.0</ele><time>2026-04-12T06:11:09.856Z</time></trkpt><trkpt lat="43.5858164" lon="6.8946449"><ele>279.0</ele><time>2026-04-12T06:11:10.856Z</time></trkpt><trkpt lat="43.585859" lon="6.8945793"><ele>279.0</ele><time>2026-04-12T06:11:11.856Z</time></trkpt><trkpt lat="43.5859273" lon="6.894443"><ele>279.0</ele><time>2026-04-12T06:11:13.856Z</time></trkpt><trkpt lat="43.5859417" lon="6.8943578"><ele>279.0</ele><time>2026-04-12T06:11:14.857Z</time></trkpt><trkpt lat="43.5859414" lon="6.8942648"><ele>279.0</ele><time>2026-04-12T06:11:15.856Z</time></trkpt><trkpt lat="43.5859273" lon="6.8941765"><ele>279.0</ele><time>2026-04-12T06:11:16.856Z</time></trkpt><trkpt lat="43.5858646" lon="6.8940249"><ele>279.0</ele><time>2026-04-12T06:11:18.857Z</time></trkpt><trkpt lat="43.5858201" lon="6.8939626"><ele>279.0</ele><time>2026-04-12T06:11:19.856Z</time></trkpt><trkpt lat="43.5857671" lon="6.8939068"><ele>279.0</ele><time>2026-04-12T06:11:20.856Z</time></trkpt><trkpt lat="43.5857107" lon="6.8938611"><ele>279.0</ele><time>2026-04-12T06:11:21.856Z</time></trkpt><trkpt lat="43.5856538" lon="6.8938132"><ele>279.0</ele><time>2026-04-12T06:11:22.857Z</time></trkpt><trkpt lat="43.5855954" lon="6.8937677"><ele>279.0</ele><time>2026-04-12T06:11:23.857Z</time></trkpt><trkpt lat="43.5854834" lon="6.8936905"><ele>279.0</ele><time>2026-04-12T06:11:25.857Z</time></trkpt><trkpt lat="43.5854239" lon="6.8936574"><ele>279.0</ele><time>2026-04-12T06:11:26.856Z</time></trkpt><trkpt lat="43.5853145" lon="6.8935973"><ele>279.0</ele><time>2026-04-12T06:11:28.857Z</time></trkpt><trkpt lat="43.5852008" lon="6.8935444"><ele>279.0</ele><time>2026-04-12T06:11:30.857Z</time></trkpt><trkpt lat="43.5850916" lon="6.893476"><ele>279.0</ele><time>2026-04-12T06:11:32.857Z</time></trkpt><trkpt lat="43.5850344" lon="6.8933292"><ele>278.0</ele><time>2026-04-12T06:11:34.857Z</time></trkpt><trkpt lat="43.58504" lon="6.8932387"><ele>277.0</ele><time>2026-04-12T06:11:35.857Z</time></trkpt><trkpt lat="43.5850907" lon="6.8930995"><ele>276.0</ele><time>2026-04-12T06:11:37.857Z</time></trkpt><trkpt lat="43.5851918" lon="6.89302"><ele>275.0</ele><time>2026-04-12T06:11:39.857Z</time></trkpt><trkpt lat="43.5853032" lon="6.8929974"><ele>274.0</ele><time>2026-04-12T06:11:41.858Z</time></trkpt><trkpt lat="43.5854061" lon="6.8929703"><ele>274.0</ele><time>2026-04-12T06:11:43.857Z</time></trkpt><trkpt lat="43.5855033" lon="6.892922"><ele>274.0</ele><time>2026-04-12T06:11:45.857Z</time></trkpt><trkpt lat="43.5855828" lon="6.8928374"><ele>274.0</ele><time>2026-04-12T06:11:47.857Z</time></trkpt><trkpt lat="43.5856474" lon="6.8927421"><ele>274.0</ele><time>2026-04-12T06:11:49.857Z</time></trkpt><trkpt lat="43.5857275" lon="6.8926762"><ele>274.0</ele><time>2026-04-12T06:11:51.857Z</time></trkpt><trkpt lat="43.5858178" lon="6.8926455"><ele>276.4</ele><time>2026-04-12T06:11:53.857Z</time></trkpt><trkpt lat="43.5858927" lon="6.8925681"><ele>278.79999999999995</ele><time>2026-04-12T06:11:55.858Z</time></trkpt><trkpt lat="43.5859293" lon="6.8924506"><ele>281.20000000000005</ele><time>2026-04-12T06:11:57.859Z</time></trkpt><trkpt lat="43.5859137" lon="6.8923281"><ele>283.6</ele><time>2026-04-12T06:11:59.858Z</time></trkpt><trkpt lat="43.5858771" lon="6.8922025"><ele>286.0</ele><time>2026-04-12T06:12:01.857Z</time></trkpt><trkpt lat="43.585824" lon="6.8920851"><ele>286.0</ele><time>2026-04-12T06:12:03.857Z</time></trkpt><trkpt lat="43.5857604" lon="6.8919747"><ele>286.0</ele><time>2026-04-12T06:12:05.857Z</time></trkpt><trkpt lat="43.5857046" lon="6.8918545"><ele>286.0</ele><time>2026-04-12T06:12:07.858Z</time></trkpt><trkpt lat="43.585671" lon="6.8917208"><ele>286.0</ele><time>2026-04-12T06:12:09.858Z</time></trkpt><trkpt lat="43.5856747" lon="6.8915783"><ele>286.0</ele><time>2026-04-12T06:12:11.858Z</time></trkpt><trkpt lat="43.5856791" lon="6.8914322"><ele>285.8</ele><time>2026-04-12T06:12:13.857Z</time></trkpt><trkpt lat="43.585664" lon="6.8913006"><ele>285.6</ele><time>2026-04-12T06:12:15.859Z</time></trkpt><trkpt lat="43.5856091" lon="6.8911851"><ele>285.4</ele><time>2026-04-12T06:12:17.858Z</time></trkpt><trkpt lat="43.5855354" lon="6.8910762"><ele>285.2</ele><time>2026-04-12T06:12:19.858Z</time></trkpt><trkpt lat="43.5854631" lon="6.8909835"><ele>285.0</ele><time>2026-04-12T06:12:21.858Z</time></trkpt><trkpt lat="43.5853819" lon="6.8909071"><ele>291.0</ele><time>2026-04-12T06:12:23.858Z</time></trkpt><trkpt lat="43.5852936" lon="6.8908426"><ele>297.0</ele><time>2026-04-12T06:12:25.858Z</time></trkpt><trkpt lat="43.5852154" lon="6.890739"><ele>303.0</ele><time>2026-04-12T06:12:27.858Z</time></trkpt><trkpt lat="43.5851514" lon="6.8906118"><ele>309.0</ele><time>2026-04-12T06:12:29.858Z</time></trkpt><trkpt lat="43.5850892" lon="6.8905199"><ele>315.0</ele><time>2026-04-12T06:12:31.858Z</time></trkpt><trkpt lat="43.5850083" lon="6.8904358"><ele>315.0</ele><time>2026-04-12T06:12:33.858Z</time></trkpt><trkpt lat="43.584939" lon="6.8903357"><ele>315.0</ele><time>2026-04-12T06:12:35.858Z</time></trkpt><trkpt lat="43.584909" lon="6.890215"><ele>315.0</ele><time>2026-04-12T06:12:37.858Z</time></trkpt><trkpt lat="43.5849017" lon="6.8900606"><ele>315.0</ele><time>2026-04-12T06:12:39.858Z</time></trkpt><trkpt lat="43.5849105" lon="6.8899207"><ele>315.0</ele><time>2026-04-12T06:12:41.858Z</time></trkpt><trkpt lat="43.5849433" lon="6.8897762"><ele>312.75</ele><time>2026-04-12T06:12:43.858Z</time></trkpt><trkpt lat="43.5850007" lon="6.8896338"><ele>310.5</ele><time>2026-04-12T06:12:45.859Z</time></trkpt><trkpt lat="43.5850469" lon="6.8894935"><ele>308.25</ele><time>2026-04-12T06:12:47.858Z</time></trkpt><trkpt lat="43.585055" lon="6.8893366"><ele>306.0</ele><time>2026-04-12T06:12:49.858Z</time></trkpt><trkpt lat="43.5850127" lon="6.8891959"><ele>304.8333333333333</ele><time>2026-04-12T06:12:51.858Z</time></trkpt><trkpt lat="43.5849104" lon="6.8890948"><ele>303.6666666666667</ele><time>2026-04-12T06:12:53.858Z</time></trkpt><trkpt lat="43.5848518" lon="6.8890577"><ele>302.5</ele><time>2026-04-12T06:12:54.859Z</time></trkpt><trkpt lat="43.5847957" lon="6.8890127"><ele>301.33333333333337</ele><time>2026-04-12T06:12:55.858Z</time></trkpt><trkpt lat="43.5847501" lon="6.8889509"><ele>300.1666666666667</ele><time>2026-04-12T06:12:56.859Z</time></trkpt><trkpt lat="43.5847213" lon="6.8888724"><ele>299.0</ele><time>2026-04-12T06:12:57.859Z</time></trkpt><trkpt lat="43.5847014" lon="6.8887046"><ele>299.0</ele><time>2026-04-12T06:12:59.859Z</time></trkpt><trkpt lat="43.5847017" lon="6.8886135"><ele>299.0</ele><time>2026-04-12T06:13:00.859Z</time></trkpt><trkpt lat="43.584711" lon="6.8885234"><ele>299.0</ele><time>2026-04-12T06:13:01.859Z</time></trkpt><trkpt lat="43.5847454" lon="6.8883684"><ele>299.0</ele><time>2026-04-12T06:13:03.859Z</time></trkpt><trkpt lat="43.5847837" lon="6.8882136"><ele>299.0</ele><time>2026-04-12T06:13:05.859Z</time></trkpt><trkpt lat="43.5848169" lon="6.8880443"><ele>298.0</ele><time>2026-04-12T06:13:07.859Z</time></trkpt><trkpt lat="43.584833" lon="6.8879519"><ele>297.0</ele><time>2026-04-12T06:13:08.86Z</time></trkpt><trkpt lat="43.5848547" lon="6.8878644"><ele>296.0</ele><time>2026-04-12T06:13:09.859Z</time></trkpt><trkpt lat="43.5848824" lon="6.8877811"><ele>295.0</ele><time>2026-04-12T06:13:10.859Z</time></trkpt><trkpt lat="43.5849171" lon="6.8877059"><ele>294.0</ele><time>2026-04-12T06:13:11.86Z</time></trkpt><trkpt lat="43.5849666" lon="6.8875566"><ele>293.0</ele><time>2026-04-12T06:13:13.859Z</time></trkpt><trkpt lat="43.5849801" lon="6.8873906"><ele>293.0</ele><time>2026-04-12T06:13:15.859Z</time></trkpt><trkpt lat="43.5849768" lon="6.887301"><ele>293.0</ele><time>2026-04-12T06:13:16.859Z</time></trkpt><trkpt lat="43.5849688" lon="6.8872142"><ele>293.0</ele><time>2026-04-12T06:13:17.859Z</time></trkpt><trkpt lat="43.5849151" lon="6.8870618"><ele>293.0</ele><time>2026-04-12T06:13:19.859Z</time></trkpt><trkpt lat="43.5848706" lon="6.8869974"><ele>293.0</ele><time>2026-04-12T06:13:20.859Z</time></trkpt><trkpt lat="43.5848176" lon="6.886938"><ele>293.0</ele><time>2026-04-12T06:13:21.859Z</time></trkpt><trkpt lat="43.5847623" lon="6.886882"><ele>293.0</ele><time>2026-04-12T06:13:22.859Z</time></trkpt><trkpt lat="43.5847107" lon="6.8868215"><ele>293.0</ele><time>2026-04-12T06:13:23.86Z</time></trkpt><trkpt lat="43.5846649" lon="6.8867543"><ele>293.0</ele><time>2026-04-12T06:13:24.859Z</time></trkpt><trkpt lat="43.5846276" lon="6.8866805"><ele>293.0</ele><time>2026-04-12T06:13:25.86Z</time></trkpt><trkpt lat="43.5846132" lon="6.8865495"><ele>293.0</ele><time>2026-04-12T06:13:27.859Z</time></trkpt><trkpt lat="43.5846523" lon="6.8864318"><ele>293.0</ele><time>2026-04-12T06:13:29.859Z</time></trkpt><trkpt lat="43.5846992" lon="6.8863512"><ele>293.83333333333337</ele><time>2026-04-12T06:13:31.859Z</time></trkpt><trkpt lat="43.5847867" lon="6.8863211"><ele>294.6666666666667</ele><time>2026-04-12T06:13:33.859Z</time></trkpt><trkpt lat="43.5848747" lon="6.886296"><ele>295.5</ele><time>2026-04-12T06:13:35.859Z</time></trkpt><trkpt lat="43.58495" lon="6.886278"><ele>296.3333333333333</ele><time>2026-04-12T06:13:37.859Z</time></trkpt><trkpt lat="43.5850229" lon="6.8862629"><ele>297.16666666666663</ele><time>2026-04-12T06:13:39.859Z</time></trkpt><trkpt lat="43.5851056" lon="6.8862473"><ele>298.0</ele><time>2026-04-12T06:13:41.86Z</time></trkpt><trkpt lat="43.5851758" lon="6.8862187"><ele>298.0</ele><time>2026-04-12T06:13:43.861Z</time></trkpt><trkpt lat="43.5852451" lon="6.886198"><ele>298.0</ele><time>2026-04-12T06:13:45.86Z</time></trkpt><trkpt lat="43.5853146" lon="6.886174"><ele>298.0</ele><time>2026-04-12T06:13:47.859Z</time></trkpt><trkpt lat="43.5853848" lon="6.8861496"><ele>298.0</ele><time>2026-04-12T06:13:49.86Z</time></trkpt><trkpt lat="43.5854489" lon="6.886128"><ele>298.0</ele><time>2026-04-12T06:13:51.86Z</time></trkpt><trkpt lat="43.5855116" lon="6.8861049"><ele>298.0</ele><time>2026-04-12T06:13:53.86Z</time></trkpt><trkpt lat="43.5855838" lon="6.8860786"><ele>298.0</ele><time>2026-04-12T06:13:55.859Z</time></trkpt><trkpt lat="43.5856553" lon="6.8860271"><ele>300.16666666666663</ele><time>2026-04-12T06:13:57.86Z</time></trkpt><trkpt lat="43.5857248" lon="6.8859729"><ele>302.3333333333333</ele><time>2026-04-12T06:13:59.86Z</time></trkpt><trkpt lat="43.5857914" lon="6.8859176"><ele>304.5</ele><time>2026-04-12T06:14:01.86Z</time></trkpt><trkpt lat="43.5858523" lon="6.8858668"><ele>306.6666666666667</ele><time>2026-04-12T06:14:03.86Z</time></trkpt><trkpt lat="43.5859211" lon="6.8858392"><ele>308.83333333333337</ele><time>2026-04-12T06:14:05.86Z</time></trkpt><trkpt lat="43.5859949" lon="6.8858064"><ele>311.0</ele><time>2026-04-12T06:14:07.86Z</time></trkpt><trkpt lat="43.5860643" lon="6.8857511"><ele>311.0</ele><time>2026-04-12T06:14:09.861Z</time></trkpt><trkpt lat="43.5861277" lon="6.8856853"><ele>311.0</ele><time>2026-04-12T06:14:11.86Z</time></trkpt><trkpt lat="43.5861726" lon="6.8855894"><ele>311.0</ele><time>2026-04-12T06:14:13.86Z</time></trkpt><trkpt lat="43.5862023" lon="6.8854857"><ele>311.0</ele><time>2026-04-12T06:14:15.86Z</time></trkpt><trkpt lat="43.5862299" lon="6.8853965"><ele>311.0</ele><time>2026-04-12T06:14:17.86Z</time></trkpt><trkpt lat="43.5862592" lon="6.8853002"><ele>311.0</ele><time>2026-04-12T06:14:19.86Z</time></trkpt><trkpt lat="43.5862966" lon="6.8852127"><ele>312.5</ele><time>2026-04-12T06:14:21.86Z</time></trkpt><trkpt lat="43.5863528" lon="6.8851474"><ele>314.0</ele><time>2026-04-12T06:14:23.86Z</time></trkpt><trkpt lat="43.5864185" lon="6.885085"><ele>315.5</ele><time>2026-04-12T06:14:25.86Z</time></trkpt><trkpt lat="43.5864863" lon="6.8850182"><ele>317.0</ele><time>2026-04-12T06:14:27.86Z</time></trkpt><trkpt lat="43.5865408" lon="6.884949"><ele>318.5</ele><time>2026-04-12T06:14:29.861Z</time></trkpt><trkpt lat="43.5865996" lon="6.8848848"><ele>320.0</ele><time>2026-04-12T06:14:31.86Z</time></trkpt><trkpt lat="43.5866608" lon="6.8848383"><ele>320.0</ele><time>2026-04-12T06:14:33.86Z</time></trkpt><trkpt lat="43.5867315" lon="6.8848173"><ele>320.0</ele><time>2026-04-12T06:14:35.86Z</time></trkpt><trkpt lat="43.5868104" lon="6.8848177"><ele>320.0</ele><time>2026-04-12T06:14:37.86Z</time></trkpt><trkpt lat="43.5868824" lon="6.8848229"><ele>320.0</ele><time>2026-04-12T06:14:39.861Z</time></trkpt><trkpt lat="43.5869595" lon="6.8848183"><ele>320.0</ele><time>2026-04-12T06:14:41.861Z</time></trkpt><trkpt lat="43.5870344" lon="6.8847905"><ele>320.0</ele><time>2026-04-12T06:14:43.861Z</time></trkpt><trkpt lat="43.5871022" lon="6.8847375"><ele>316.83333333333337</ele><time>2026-04-12T06:14:45.861Z</time></trkpt><trkpt lat="43.5871713" lon="6.8846699"><ele>313.6666666666667</ele><time>2026-04-12T06:14:47.861Z</time></trkpt><trkpt lat="43.5872376" lon="6.8846072"><ele>310.5</ele><time>2026-04-12T06:14:49.861Z</time></trkpt><trkpt lat="43.5873038" lon="6.8845407"><ele>307.3333333333333</ele><time>2026-04-12T06:14:51.861Z</time></trkpt><trkpt lat="43.5873715" lon="6.8844911"><ele>304.16666666666663</ele><time>2026-04-12T06:14:53.861Z</time></trkpt><trkpt lat="43.5874376" lon="6.884443"><ele>301.0</ele><time>2026-04-12T06:14:55.862Z</time></trkpt><trkpt lat="43.5875095" lon="6.8843908"><ele>301.0</ele><time>2026-04-12T06:14:57.861Z</time></trkpt><trkpt lat="43.5875699" lon="6.8843291"><ele>301.0</ele><time>2026-04-12T06:14:59.861Z</time></trkpt><trkpt lat="43.5876193" lon="6.8842482"><ele>301.0</ele><time>2026-04-12T06:15:01.861Z</time></trkpt><trkpt lat="43.5876656" lon="6.8841664"><ele>301.0</ele><time>2026-04-12T06:15:03.861Z</time></trkpt><trkpt lat="43.5877098" lon="6.8840763"><ele>301.0</ele><time>2026-04-12T06:15:05.861Z</time></trkpt><trkpt lat="43.5877365" lon="6.8839858"><ele>301.0</ele><time>2026-04-12T06:15:07.861Z</time></trkpt><trkpt lat="43.5877686" lon="6.8838889"><ele>300.42857142857144</ele><time>2026-04-12T06:15:09.861Z</time></trkpt><trkpt lat="43.5877935" lon="6.883797"><ele>299.8571428571429</ele><time>2026-04-12T06:15:11.861Z</time></trkpt><trkpt lat="43.5878157" lon="6.8837082"><ele>299.2857142857143</ele><time>2026-04-12T06:15:13.861Z</time></trkpt><trkpt lat="43.5878464" lon="6.8836236"><ele>298.7142857142857</ele><time>2026-04-12T06:15:15.861Z</time></trkpt><trkpt lat="43.587881" lon="6.8835483"><ele>298.14285714285717</ele><time>2026-04-12T06:15:17.861Z</time></trkpt><trkpt lat="43.5879232" lon="6.8834739"><ele>297.57142857142856</ele><time>2026-04-12T06:15:19.861Z</time></trkpt><trkpt lat="43.5879723" lon="6.8834063"><ele>297.0</ele><time>2026-04-12T06:15:21.862Z</time></trkpt><trkpt lat="43.5880203" lon="6.8833275"><ele>299.6666666666667</ele><time>2026-04-12T06:15:23.861Z</time></trkpt><trkpt lat="43.5880561" lon="6.8832403"><ele>302.3333333333333</ele><time>2026-04-12T06:15:25.861Z</time></trkpt><trkpt lat="43.5880803" lon="6.8831445"><ele>305.0</ele><time>2026-04-12T06:15:27.862Z</time></trkpt><trkpt lat="43.5880839" lon="6.8830424"><ele>307.66666666666663</ele><time>2026-04-12T06:15:29.862Z</time></trkpt><trkpt lat="43.5880725" lon="6.8829458"><ele>310.3333333333333</ele><time>2026-04-12T06:15:31.863Z</time></trkpt><trkpt lat="43.5880516" lon="6.882856"><ele>313.0</ele><time>2026-04-12T06:15:33.863Z</time></trkpt><trkpt lat="43.5879998" lon="6.8827421"><ele>313.0</ele><time>2026-04-12T06:15:36.862Z</time></trkpt><trkpt lat="43.5879535" lon="6.8826755"><ele>313.0</ele><time>2026-04-12T06:15:38.862Z</time></trkpt><trkpt lat="43.5879096" lon="6.8826048"><ele>313.0</ele><time>2026-04-12T06:15:40.862Z</time></trkpt><trkpt lat="43.587861" lon="6.8825403"><ele>313.0</ele><time>2026-04-12T06:15:42.863Z</time></trkpt><trkpt lat="43.5877979" lon="6.8824679"><ele>313.0</ele><time>2026-04-12T06:15:45.863Z</time></trkpt><trkpt lat="43.5877321" lon="6.8824031"><ele>313.0</ele><time>2026-04-12T06:15:48.862Z</time></trkpt><trkpt lat="43.5876665" lon="6.8823323"><ele>313.0</ele><time>2026-04-12T06:15:51.862Z</time></trkpt><trkpt lat="43.5876102" lon="6.8822826"><ele>317.8333333333333</ele><time>2026-04-12T06:15:53.862Z</time></trkpt><trkpt lat="43.5875465" lon="6.8822013"><ele>322.66666666666663</ele><time>2026-04-12T06:15:56.862Z</time></trkpt><trkpt lat="43.5875073" lon="6.8820937"><ele>327.5</ele><time>2026-04-12T06:15:59.862Z</time></trkpt><trkpt lat="43.587473" lon="6.8820064"><ele>332.3333333333333</ele><time>2026-04-12T06:16:02.862Z</time></trkpt><trkpt lat="43.5874342" lon="6.8819091"><ele>337.1666666666667</ele><time>2026-04-12T06:16:05.863Z</time></trkpt><trkpt lat="43.5874105" lon="6.8818221"><ele>342.0</ele><time>2026-04-12T06:16:07.863Z</time></trkpt><trkpt lat="43.5873819" lon="6.8817184"><ele>342.0</ele><time>2026-04-12T06:16:10.863Z</time></trkpt><trkpt lat="43.5873525" lon="6.8816219"><ele>342.0</ele><time>2026-04-12T06:16:13.863Z</time></trkpt><trkpt lat="43.5873278" lon="6.8815256"><ele>342.0</ele><time>2026-04-12T06:16:16.864Z</time></trkpt><trkpt lat="43.587306" lon="6.8814246"><ele>342.0</ele><time>2026-04-12T06:16:19.863Z</time></trkpt><trkpt lat="43.587294" lon="6.8813107"><ele>342.0</ele><time>2026-04-12T06:16:22.863Z</time></trkpt><trkpt lat="43.5872986" lon="6.8812018"><ele>342.0</ele><time>2026-04-12T06:16:25.863Z</time></trkpt><trkpt lat="43.5873352" lon="6.8810985"><ele>342.0</ele><time>2026-04-12T06:16:28.864Z</time></trkpt><trkpt lat="43.5873901" lon="6.8810071"><ele>342.0</ele><time>2026-04-12T06:16:31.863Z</time></trkpt><trkpt lat="43.5874686" lon="6.8809569"><ele>342.0</ele><time>2026-04-12T06:16:34.863Z</time></trkpt><trkpt lat="43.5875439" lon="6.8809246"><ele>342.0</ele><time>2026-04-12T06:16:37.863Z</time></trkpt><trkpt lat="43.5876078" lon="6.8808754"><ele>342.0</ele><time>2026-04-12T06:16:40.863Z</time></trkpt><trkpt lat="43.5876716" lon="6.8808364"><ele>342.0</ele><time>2026-04-12T06:16:43.863Z</time></trkpt><trkpt lat="43.5877356" lon="6.8808003"><ele>340.99999999999994</ele><time>2026-04-12T06:16:46.863Z</time></trkpt><trkpt lat="43.5877928" lon="6.8807509"><ele>340.0</ele><time>2026-04-12T06:16:49.864Z</time></trkpt><trkpt lat="43.5878621" lon="6.8806995"><ele>339.0</ele><time>2026-04-12T06:16:53.863Z</time></trkpt><trkpt lat="43.5879304" lon="6.8806592"><ele>338.0</ele><time>2026-04-12T06:16:56.863Z</time></trkpt><trkpt lat="43.5879866" lon="6.8806186"><ele>337.0</ele><time>2026-04-12T06:16:59.864Z</time></trkpt><trkpt lat="43.588062" lon="6.8805611"><ele>335.99999999999994</ele><time>2026-04-12T06:17:02.865Z</time></trkpt><trkpt lat="43.5881301" lon="6.8805173"><ele>335.0</ele><time>2026-04-12T06:17:05.864Z</time></trkpt><trkpt lat="43.5881884" lon="6.8804711"><ele>335.0</ele><time>2026-04-12T06:17:08.864Z</time></trkpt><trkpt lat="43.5882458" lon="6.8804248"><ele>335.0</ele><time>2026-04-12T06:17:11.864Z</time></trkpt><trkpt lat="43.5883189" lon="6.8803756"><ele>335.0</ele><time>2026-04-12T06:17:14.864Z</time></trkpt><trkpt lat="43.5883872" lon="6.8803423"><ele>335.0</ele><time>2026-04-12T06:17:17.864Z</time></trkpt><trkpt lat="43.5884574" lon="6.88031"><ele>335.0</ele><time>2026-04-12T06:17:20.864Z</time></trkpt><trkpt lat="43.5885319" lon="6.8802621"><ele>335.0</ele><time>2026-04-12T06:17:23.864Z</time></trkpt><trkpt lat="43.5885994" lon="6.8802114"><ele>334.99999999999994</ele><time>2026-04-12T06:17:26.865Z</time></trkpt><trkpt lat="43.5886612" lon="6.8801504"><ele>335.0</ele><time>2026-04-12T06:17:29.864Z</time></trkpt><trkpt lat="43.5887057" lon="6.8800674"><ele>335.0</ele><time>2026-04-12T06:17:32.864Z</time></trkpt><trkpt lat="43.5887469" lon="6.8799898"><ele>335.0</ele><time>2026-04-12T06:17:35.864Z</time></trkpt><trkpt lat="43.5888037" lon="6.8799298"><ele>335.0</ele><time>2026-04-12T06:17:38.864Z</time></trkpt><trkpt lat="43.5888638" lon="6.8798707"><ele>334.99999999999994</ele><time>2026-04-12T06:17:41.865Z</time></trkpt><trkpt lat="43.588921" lon="6.879809"><ele>335.0</ele><time>2026-04-12T06:17:44.865Z</time></trkpt><trkpt lat="43.5889705" lon="6.8797388"><ele>336.2857142857143</ele><time>2026-04-12T06:17:47.864Z</time></trkpt><trkpt lat="43.5890337" lon="6.8796812"><ele>337.57142857142856</ele><time>2026-04-12T06:17:50.865Z</time></trkpt><trkpt lat="43.5890724" lon="6.8795971"><ele>338.8571428571429</ele><time>2026-04-12T06:17:53.865Z</time></trkpt><trkpt lat="43.5890959" lon="6.879506"><ele>340.1428571428571</ele><time>2026-04-12T06:17:56.866Z</time></trkpt><trkpt lat="43.5891017" lon="6.8794034"><ele>341.42857142857144</ele><time>2026-04-12T06:17:59.865Z</time></trkpt><trkpt lat="43.5890847" lon="6.8793159"><ele>342.7142857142857</ele><time>2026-04-12T06:18:01.865Z</time></trkpt><trkpt lat="43.5890534" lon="6.879217"><ele>344.0</ele><time>2026-04-12T06:18:03.866Z</time></trkpt><trkpt lat="43.5890162" lon="6.8791244"><ele>346.0</ele><time>2026-04-12T06:18:05.865Z</time></trkpt><trkpt lat="43.5889788" lon="6.8790401"><ele>348.0</ele><time>2026-04-12T06:18:07.865Z</time></trkpt><trkpt lat="43.588941" lon="6.8789676"><ele>350.0</ele><time>2026-04-12T06:18:09.865Z</time></trkpt><trkpt lat="43.5889006" lon="6.8789001"><ele>352.0</ele><time>2026-04-12T06:18:11.866Z</time></trkpt><trkpt lat="43.5888387" lon="6.8788028"><ele>354.0</ele><time>2026-04-12T06:18:14.865Z</time></trkpt><trkpt lat="43.588786" lon="6.8787074"><ele>356.0</ele><time>2026-04-12T06:18:17.865Z</time></trkpt><trkpt lat="43.588741" lon="6.878614"><ele>356.0</ele><time>2026-04-12T06:18:20.865Z</time></trkpt><trkpt lat="43.5887156" lon="6.8785168"><ele>356.0</ele><time>2026-04-12T06:18:23.866Z</time></trkpt><trkpt lat="43.5887285" lon="6.8783977"><ele>356.0</ele><time>2026-04-12T06:18:26.865Z</time></trkpt><trkpt lat="43.5887712" lon="6.8782894"><ele>356.0</ele><time>2026-04-12T06:18:29.865Z</time></trkpt><trkpt lat="43.5888335" lon="6.8782014"><ele>356.0</ele><time>2026-04-12T06:18:32.865Z</time></trkpt><trkpt lat="43.5888825" lon="6.878144"><ele>356.0</ele><time>2026-04-12T06:18:34.865Z</time></trkpt><trkpt lat="43.5889527" lon="6.8780635"><ele>356.83333333333337</ele><time>2026-04-12T06:18:37.866Z</time></trkpt><trkpt lat="43.5890058" lon="6.8780156"><ele>357.6666666666667</ele><time>2026-04-12T06:18:39.866Z</time></trkpt><trkpt lat="43.5890571" lon="6.8779596"><ele>358.5</ele><time>2026-04-12T06:18:41.866Z</time></trkpt><trkpt lat="43.5891288" lon="6.8778763"><ele>359.3333333333333</ele><time>2026-04-12T06:18:44.866Z</time></trkpt><trkpt lat="43.5892047" lon="6.8778089"><ele>360.16666666666663</ele><time>2026-04-12T06:18:47.866Z</time></trkpt><trkpt lat="43.5892814" lon="6.8777346"><ele>361.0</ele><time>2026-04-12T06:18:50.867Z</time></trkpt><trkpt lat="43.5893481" lon="6.8776526"><ele>363.8333333333333</ele><time>2026-04-12T06:18:53.867Z</time></trkpt><trkpt lat="43.5893828" lon="6.8775767"><ele>366.66666666666663</ele><time>2026-04-12T06:18:55.866Z</time></trkpt><trkpt lat="43.5894195" lon="6.8774748"><ele>369.5</ele><time>2026-04-12T06:18:57.866Z</time></trkpt><trkpt lat="43.5894472" lon="6.8773784"><ele>372.3333333333333</ele><time>2026-04-12T06:18:59.867Z</time></trkpt><trkpt lat="43.5894729" lon="6.8772646"><ele>375.1666666666667</ele><time>2026-04-12T06:19:02.866Z</time></trkpt><trkpt lat="43.5894897" lon="6.8771436"><ele>378.0</ele><time>2026-04-12T06:19:05.866Z</time></trkpt><trkpt lat="43.5895041" lon="6.8770311"><ele>377.0</ele><time>2026-04-12T06:19:08.867Z</time></trkpt><trkpt lat="43.5895324" lon="6.8769181"><ele>376.0</ele><time>2026-04-12T06:19:11.866Z</time></trkpt><trkpt lat="43.5895586" lon="6.8768189"><ele>375.0</ele><time>2026-04-12T06:19:14.866Z</time></trkpt><trkpt lat="43.5895889" lon="6.8767373"><ele>374.0</ele><time>2026-04-12T06:19:16.866Z</time></trkpt><trkpt lat="43.5896366" lon="6.8766556"><ele>373.0</ele><time>2026-04-12T06:19:18.868Z</time></trkpt><trkpt lat="43.5896965" lon="6.8765822"><ele>372.0</ele><time>2026-04-12T06:19:20.867Z</time></trkpt><trkpt lat="43.5897619" lon="6.8765118"><ele>372.0</ele><time>2026-04-12T06:19:22.868Z</time></trkpt><trkpt lat="43.5898235" lon="6.8764453"><ele>372.0</ele><time>2026-04-12T06:19:24.867Z</time></trkpt><trkpt lat="43.5898869" lon="6.8763819"><ele>372.0</ele><time>2026-04-12T06:19:26.867Z</time></trkpt><trkpt lat="43.589944" lon="6.8763126"><ele>372.0</ele><time>2026-04-12T06:19:28.867Z</time></trkpt><trkpt lat="43.5900108" lon="6.8762249"><ele>372.0</ele><time>2026-04-12T06:19:30.867Z</time></trkpt><trkpt lat="43.5900864" lon="6.8761327"><ele>372.0</ele><time>2026-04-12T06:19:32.867Z</time></trkpt><trkpt lat="43.5901492" lon="6.8760369"><ele>373.0</ele><time>2026-04-12T06:19:34.867Z</time></trkpt><trkpt lat="43.5902221" lon="6.8759322"><ele>374.0</ele><time>2026-04-12T06:19:36.867Z</time></trkpt><trkpt lat="43.5903031" lon="6.8758478"><ele>375.0</ele><time>2026-04-12T06:19:38.867Z</time></trkpt><trkpt lat="43.5903799" lon="6.8757704"><ele>376.0</ele><time>2026-04-12T06:19:40.867Z</time></trkpt><trkpt lat="43.5904508" lon="6.8756688"><ele>377.0</ele><time>2026-04-12T06:19:42.867Z</time></trkpt><trkpt lat="43.5905427" lon="6.8755616"><ele>374.8</ele><time>2026-04-12T06:19:44.868Z</time></trkpt><trkpt lat="43.590644" lon="6.8754644"><ele>372.6</ele><time>2026-04-12T06:19:46.867Z</time></trkpt><trkpt lat="43.590708" lon="6.8754012"><ele>370.40000000000003</ele><time>2026-04-12T06:19:47.867Z</time></trkpt><trkpt lat="43.5907617" lon="6.8753401"><ele>368.20000000000005</ele><time>2026-04-12T06:19:48.867Z</time></trkpt><trkpt lat="43.5908128" lon="6.8752865"><ele>366.0</ele><time>2026-04-12T06:19:49.867Z</time></trkpt><trkpt lat="43.590909" lon="6.8751755"><ele>366.0</ele><time>2026-04-12T06:19:51.867Z</time></trkpt><trkpt lat="43.5909645" lon="6.8751142"><ele>366.0</ele><time>2026-04-12T06:19:52.867Z</time></trkpt><trkpt lat="43.5910251" lon="6.8750487"><ele>366.0</ele><time>2026-04-12T06:19:53.869Z</time></trkpt><trkpt lat="43.5910852" lon="6.8749705"><ele>366.0</ele><time>2026-04-12T06:19:54.867Z</time></trkpt><trkpt lat="43.5911422" lon="6.8748792"><ele>366.0</ele><time>2026-04-12T06:19:55.868Z</time></trkpt><trkpt lat="43.5911948" lon="6.8747742"><ele>366.0</ele><time>2026-04-12T06:19:56.867Z</time></trkpt><trkpt lat="43.5912332" lon="6.8746487"><ele>363.8</ele><time>2026-04-12T06:19:57.868Z</time></trkpt><trkpt lat="43.5912577" lon="6.8745177"><ele>361.6</ele><time>2026-04-12T06:19:58.868Z</time></trkpt><trkpt lat="43.5912753" lon="6.8743812"><ele>359.4</ele><time>2026-04-12T06:19:59.868Z</time></trkpt><trkpt lat="43.5912765" lon="6.874237"><ele>357.2</ele><time>2026-04-12T06:20:00.868Z</time></trkpt><trkpt lat="43.5912768" lon="6.8740949"><ele>355.0</ele><time>2026-04-12T06:20:01.868Z</time></trkpt><trkpt lat="43.5912862" lon="6.8739528"><ele>355.0</ele><time>2026-04-12T06:20:02.868Z</time></trkpt><trkpt lat="43.5913051" lon="6.8738158"><ele>355.0</ele><time>2026-04-12T06:20:03.867Z</time></trkpt><trkpt lat="43.5913317" lon="6.8736791"><ele>355.0</ele><time>2026-04-12T06:20:04.868Z</time></trkpt><trkpt lat="43.5913671" lon="6.8735518"><ele>355.0</ele><time>2026-04-12T06:20:05.868Z</time></trkpt><trkpt lat="43.5914047" lon="6.873423"><ele>355.0</ele><time>2026-04-12T06:20:06.868Z</time></trkpt><trkpt lat="43.5914442" lon="6.8732972"><ele>356.2</ele><time>2026-04-12T06:20:07.868Z</time></trkpt><trkpt lat="43.5914836" lon="6.8731663"><ele>357.4</ele><time>2026-04-12T06:20:08.868Z</time></trkpt><trkpt lat="43.5915225" lon="6.8730345"><ele>358.6</ele><time>2026-04-12T06:20:09.868Z</time></trkpt><trkpt lat="43.591566" lon="6.87291"><ele>359.8</ele><time>2026-04-12T06:20:10.868Z</time></trkpt><trkpt lat="43.5916191" lon="6.8727997"><ele>361.0</ele><time>2026-04-12T06:20:11.869Z</time></trkpt><trkpt lat="43.5916874" lon="6.8727007"><ele>361.0</ele><time>2026-04-12T06:20:12.868Z</time></trkpt><trkpt lat="43.591769" lon="6.8726111"><ele>361.0</ele><time>2026-04-12T06:20:13.868Z</time></trkpt><trkpt lat="43.5918584" lon="6.8725402"><ele>361.0</ele><time>2026-04-12T06:20:14.868Z</time></trkpt><trkpt lat="43.5919504" lon="6.8724934"><ele>361.0</ele><time>2026-04-12T06:20:15.868Z</time></trkpt><trkpt lat="43.5920527" lon="6.8724588"><ele>361.0</ele><time>2026-04-12T06:20:16.868Z</time></trkpt><trkpt lat="43.5921684" lon="6.8724472"><ele>360.25</ele><time>2026-04-12T06:20:17.868Z</time></trkpt><trkpt lat="43.5922985" lon="6.8724329"><ele>359.5</ele><time>2026-04-12T06:20:18.869Z</time></trkpt><trkpt lat="43.5924161" lon="6.8724021"><ele>358.75</ele><time>2026-04-12T06:20:19.868Z</time></trkpt><trkpt lat="43.5925281" lon="6.8723531"><ele>358.0</ele><time>2026-04-12T06:20:20.868Z</time></trkpt><trkpt lat="43.5926361" lon="6.8722876"><ele>358.0</ele><time>2026-04-12T06:20:21.868Z</time></trkpt><trkpt lat="43.5927395" lon="6.8721991"><ele>358.0</ele><time>2026-04-12T06:20:22.868Z</time></trkpt><trkpt lat="43.5928315" lon="6.8721021"><ele>358.0</ele><time>2026-04-12T06:20:23.869Z</time></trkpt><trkpt lat="43.5929101" lon="6.8719936"><ele>358.0</ele><time>2026-04-12T06:20:24.868Z</time></trkpt><trkpt lat="43.5929707" lon="6.8718574"><ele>353.5</ele><time>2026-04-12T06:20:25.868Z</time></trkpt><trkpt lat="43.5930018" lon="6.8716926"><ele>349.0</ele><time>2026-04-12T06:20:26.868Z</time></trkpt><trkpt lat="43.5930103" lon="6.8715232"><ele>344.5</ele><time>2026-04-12T06:20:27.868Z</time></trkpt><trkpt lat="43.5930061" lon="6.8713565"><ele>340.0</ele><time>2026-04-12T06:20:28.868Z</time></trkpt><trkpt lat="43.5929994" lon="6.8711884"><ele>340.0</ele><time>2026-04-12T06:20:29.868Z</time></trkpt><trkpt lat="43.5929927" lon="6.8710198"><ele>340.0</ele><time>2026-04-12T06:20:30.868Z</time></trkpt><trkpt lat="43.5929918" lon="6.8708537"><ele>340.0</ele><time>2026-04-12T06:20:31.868Z</time></trkpt><trkpt lat="43.5930045" lon="6.8706908"><ele>340.0</ele><time>2026-04-12T06:20:32.868Z</time></trkpt><trkpt lat="43.5930452" lon="6.8705312"><ele>342.0</ele><time>2026-04-12T06:20:33.868Z</time></trkpt><trkpt lat="43.5931039" lon="6.8703988"><ele>344.0</ele><time>2026-04-12T06:20:34.868Z</time></trkpt><trkpt lat="43.5932008" lon="6.870307"><ele>346.0</ele><time>2026-04-12T06:20:35.868Z</time></trkpt><trkpt lat="43.5933366" lon="6.8702523"><ele>348.0</ele><time>2026-04-12T06:20:36.868Z</time></trkpt><trkpt lat="43.5934839" lon="6.8702186"><ele>348.0</ele><time>2026-04-12T06:20:37.868Z</time></trkpt><trkpt lat="43.5936202" lon="6.8701708"><ele>348.0</ele><time>2026-04-12T06:20:38.868Z</time></trkpt><trkpt lat="43.5937194" lon="6.8701077"><ele>348.0</ele><time>2026-04-12T06:20:39.868Z</time></trkpt><trkpt lat="43.5937937" lon="6.8700176"><ele>348.0</ele><time>2026-04-12T06:20:40.869Z</time></trkpt><trkpt lat="43.5938347" lon="6.869893"><ele>348.0</ele><time>2026-04-12T06:20:41.869Z</time></trkpt><trkpt lat="43.593837" lon="6.869744"><ele>351.25</ele><time>2026-04-12T06:20:42.869Z</time></trkpt><trkpt lat="43.5938124" lon="6.869592"><ele>354.5</ele><time>2026-04-12T06:20:43.869Z</time></trkpt><trkpt lat="43.5937648" lon="6.8694383"><ele>357.75</ele><time>2026-04-12T06:20:44.869Z</time></trkpt><trkpt lat="43.5936996" lon="6.8692928"><ele>361.0</ele><time>2026-04-12T06:20:45.869Z</time></trkpt><trkpt lat="43.5936163" lon="6.86916"><ele>361.0</ele><time>2026-04-12T06:20:46.869Z</time></trkpt><trkpt lat="43.5935223" lon="6.8690452"><ele>361.0</ele><time>2026-04-12T06:20:47.869Z</time></trkpt><trkpt lat="43.5934226" lon="6.8689364"><ele>361.0</ele><time>2026-04-12T06:20:48.869Z</time></trkpt><trkpt lat="43.593366" lon="6.8687972"><ele>361.0</ele><time>2026-04-12T06:20:49.87Z</time></trkpt><trkpt lat="43.5933544" lon="6.8686381"><ele>361.0</ele><time>2026-04-12T06:20:50.869Z</time></trkpt><trkpt lat="43.5934021" lon="6.8684705"><ele>361.0</ele><time>2026-04-12T06:20:51.87Z</time></trkpt><trkpt lat="43.5934499" lon="6.8683085"><ele>361.0</ele><time>2026-04-12T06:20:52.869Z</time></trkpt><trkpt lat="43.5934621" lon="6.8681395"><ele>361.0</ele><time>2026-04-12T06:20:53.869Z</time></trkpt><trkpt lat="43.5934741" lon="6.8679657"><ele>359.75</ele><time>2026-04-12T06:20:54.87Z</time></trkpt><trkpt lat="43.5934863" lon="6.867795"><ele>358.5</ele><time>2026-04-12T06:20:55.869Z</time></trkpt><trkpt lat="43.5935071" lon="6.8676382"><ele>357.25</ele><time>2026-04-12T06:20:56.869Z</time></trkpt><trkpt lat="43.5935507" lon="6.867502"><ele>356.0</ele><time>2026-04-12T06:20:57.869Z</time></trkpt><trkpt lat="43.5936249" lon="6.8673817"><ele>348.0</ele><time>2026-04-12T06:20:58.869Z</time></trkpt><trkpt lat="43.593728" lon="6.8672822"><ele>340.0</ele><time>2026-04-12T06:20:59.869Z</time></trkpt><trkpt lat="43.5938377" lon="6.8671963"><ele>332.0</ele><time>2026-04-12T06:21:00.87Z</time></trkpt><trkpt lat="43.5939274" lon="6.8671071"><ele>324.0</ele><time>2026-04-12T06:21:01.869Z</time></trkpt><trkpt lat="43.5939698" lon="6.867"><ele>324.0</ele><time>2026-04-12T06:21:02.869Z</time></trkpt><trkpt lat="43.5939612" lon="6.8668678"><ele>324.0</ele><time>2026-04-12T06:21:03.87Z</time></trkpt><trkpt lat="43.5939174" lon="6.8667451"><ele>324.0</ele><time>2026-04-12T06:21:04.869Z</time></trkpt><trkpt lat="43.5938411" lon="6.8666487"><ele>324.0</ele><time>2026-04-12T06:21:05.869Z</time></trkpt><trkpt lat="43.5937396" lon="6.8665852"><ele>324.0</ele><time>2026-04-12T06:21:06.869Z</time></trkpt><trkpt lat="43.5936239" lon="6.8665459"><ele>327.75</ele><time>2026-04-12T06:21:07.869Z</time></trkpt><trkpt lat="43.5935115" lon="6.8665011"><ele>331.5</ele><time>2026-04-12T06:21:08.869Z</time></trkpt><trkpt lat="43.5933993" lon="6.8664402"><ele>335.25</ele><time>2026-04-12T06:21:09.869Z</time></trkpt><trkpt lat="43.5932929" lon="6.8663483"><ele>339.0</ele><time>2026-04-12T06:21:10.869Z</time></trkpt><trkpt lat="43.5931945" lon="6.8662424"><ele>339.0</ele><time>2026-04-12T06:21:11.869Z</time></trkpt><trkpt lat="43.5930969" lon="6.8661455"><ele>339.0</ele><time>2026-04-12T06:21:12.869Z</time></trkpt><trkpt lat="43.5929904" lon="6.8660909"><ele>339.0</ele><time>2026-04-12T06:21:13.869Z</time></trkpt><trkpt lat="43.5928631" lon="6.8660672"><ele>339.0</ele><time>2026-04-12T06:21:14.869Z</time></trkpt><trkpt lat="43.5927378" lon="6.8660305"><ele>337.25</ele><time>2026-04-12T06:21:15.869Z</time></trkpt><trkpt lat="43.5926425" lon="6.8659288"><ele>335.5</ele><time>2026-04-12T06:21:16.869Z</time></trkpt><trkpt lat="43.5925834" lon="6.8657698"><ele>333.75</ele><time>2026-04-12T06:21:17.869Z</time></trkpt><trkpt lat="43.5925333" lon="6.8656143"><ele>332.0</ele><time>2026-04-12T06:21:18.869Z</time></trkpt><trkpt lat="43.5924635" lon="6.8654759"><ele>332.0</ele><time>2026-04-12T06:21:19.869Z</time></trkpt><trkpt lat="43.592382" lon="6.8653503"><ele>332.0</ele><time>2026-04-12T06:21:20.869Z</time></trkpt><trkpt lat="43.5923068" lon="6.8652052"><ele>332.0</ele><time>2026-04-12T06:21:21.869Z</time></trkpt><trkpt lat="43.5922655" lon="6.8650302"><ele>332.0</ele><time>2026-04-12T06:21:22.869Z</time></trkpt><trkpt lat="43.5922525" lon="6.864849"><ele>328.75</ele><time>2026-04-12T06:21:23.869Z</time></trkpt><trkpt lat="43.5922558" lon="6.8646638"><ele>325.5</ele><time>2026-04-12T06:21:24.87Z</time></trkpt><trkpt lat="43.5922497" lon="6.8644859"><ele>322.25</ele><time>2026-04-12T06:21:25.87Z</time></trkpt><trkpt lat="43.592231" lon="6.8643049"><ele>319.0</ele><time>2026-04-12T06:21:26.87Z</time></trkpt><trkpt lat="43.5922019" lon="6.8641252"><ele>316.5</ele><time>2026-04-12T06:21:27.87Z</time></trkpt><trkpt lat="43.5921678" lon="6.8639452"><ele>314.0</ele><time>2026-04-12T06:21:28.869Z</time></trkpt><trkpt lat="43.5921389" lon="6.8637637"><ele>311.5</ele><time>2026-04-12T06:21:29.87Z</time></trkpt><trkpt lat="43.5921231" lon="6.8635813"><ele>309.0</ele><time>2026-04-12T06:21:30.87Z</time></trkpt><trkpt lat="43.5921321" lon="6.8633955"><ele>308.0</ele><time>2026-04-12T06:21:31.869Z</time></trkpt><trkpt lat="43.5921562" lon="6.8632121"><ele>307.0</ele><time>2026-04-12T06:21:32.87Z</time></trkpt><trkpt lat="43.5921847" lon="6.8630314"><ele>306.0</ele><time>2026-04-12T06:21:33.87Z</time></trkpt><trkpt lat="43.5922146" lon="6.8628514"><ele>305.0</ele><time>2026-04-12T06:21:34.87Z</time></trkpt><trkpt lat="43.5922604" lon="6.8626881"><ele>306.75</ele><time>2026-04-12T06:21:35.869Z</time></trkpt><trkpt lat="43.5923336" lon="6.8625475"><ele>308.5</ele><time>2026-04-12T06:21:36.871Z</time></trkpt><trkpt lat="43.5924321" lon="6.8624361"><ele>310.25</ele><time>2026-04-12T06:21:37.87Z</time></trkpt><trkpt lat="43.5925374" lon="6.8623238"><ele>312.0</ele><time>2026-04-12T06:21:38.87Z</time></trkpt><trkpt lat="43.5926335" lon="6.8621832"><ele>312.0</ele><time>2026-04-12T06:21:39.87Z</time></trkpt><trkpt lat="43.5927199" lon="6.8620408"><ele>312.0</ele><time>2026-04-12T06:21:40.87Z</time></trkpt><trkpt lat="43.5928023" lon="6.8619129"><ele>312.0</ele><time>2026-04-12T06:21:41.87Z</time></trkpt><trkpt lat="43.5928915" lon="6.8618064"><ele>312.0</ele><time>2026-04-12T06:21:42.87Z</time></trkpt><trkpt lat="43.5929966" lon="6.8617268"><ele>309.5</ele><time>2026-04-12T06:21:43.87Z</time></trkpt><trkpt lat="43.5931101" lon="6.8616661"><ele>307.0</ele><time>2026-04-12T06:21:44.87Z</time></trkpt><trkpt lat="43.5932294" lon="6.8616049"><ele>304.5</ele><time>2026-04-12T06:21:45.87Z</time></trkpt><trkpt lat="43.5933464" lon="6.8615235"><ele>302.0</ele><time>2026-04-12T06:21:46.87Z</time></trkpt><trkpt lat="43.5934422" lon="6.8614014"><ele>302.0</ele><time>2026-04-12T06:21:47.87Z</time></trkpt><trkpt lat="43.5935318" lon="6.8612758"><ele>302.0</ele><time>2026-04-12T06:21:48.87Z</time></trkpt><trkpt lat="43.593618" lon="6.8611543"><ele>302.0</ele><time>2026-04-12T06:21:49.871Z</time></trkpt><trkpt lat="43.5936978" lon="6.861019"><ele>302.0</ele><time>2026-04-12T06:21:50.871Z</time></trkpt><trkpt lat="43.5937618" lon="6.8608697"><ele>298.75</ele><time>2026-04-12T06:21:51.87Z</time></trkpt><trkpt lat="43.5938171" lon="6.8607269"><ele>295.5</ele><time>2026-04-12T06:21:52.871Z</time></trkpt><trkpt lat="43.5938836" lon="6.860604"><ele>292.25</ele><time>2026-04-12T06:21:53.87Z</time></trkpt><trkpt lat="43.5939759" lon="6.8605192"><ele>289.0</ele><time>2026-04-12T06:21:54.871Z</time></trkpt><trkpt lat="43.5940884" lon="6.8604536"><ele>289.0</ele><time>2026-04-12T06:21:55.871Z</time></trkpt><trkpt lat="43.594195" lon="6.8603765"><ele>289.0</ele><time>2026-04-12T06:21:56.87Z</time></trkpt><trkpt lat="43.5942841" lon="6.8602723"><ele>289.0</ele><time>2026-04-12T06:21:57.87Z</time></trkpt><trkpt lat="43.5943593" lon="6.8601296"><ele>289.0</ele><time>2026-04-12T06:21:58.87Z</time></trkpt><trkpt lat="43.5944402" lon="6.8599972"><ele>288.0</ele><time>2026-04-12T06:21:59.87Z</time></trkpt><trkpt lat="43.5945261" lon="6.8598909"><ele>287.0</ele><time>2026-04-12T06:22:00.87Z</time></trkpt><trkpt lat="43.5946222" lon="6.8598017"><ele>286.0</ele><time>2026-04-12T06:22:01.87Z</time></trkpt><trkpt lat="43.5947166" lon="6.8597184"><ele>285.0</ele><time>2026-04-12T06:22:02.87Z</time></trkpt><trkpt lat="43.5948156" lon="6.859642"><ele>285.0</ele><time>2026-04-12T06:22:03.87Z</time></trkpt><trkpt lat="43.594926" lon="6.8595699"><ele>285.0</ele><time>2026-04-12T06:22:04.87Z</time></trkpt><trkpt lat="43.595038" lon="6.8595027"><ele>285.0</ele><time>2026-04-12T06:22:05.87Z</time></trkpt><trkpt lat="43.5951482" lon="6.8594351"><ele>285.0</ele><time>2026-04-12T06:22:06.87Z</time></trkpt><trkpt lat="43.5952599" lon="6.8593649"><ele>287.5</ele><time>2026-04-12T06:22:07.87Z</time></trkpt><trkpt lat="43.5953649" lon="6.8592888"><ele>290.0</ele><time>2026-04-12T06:22:08.87Z</time></trkpt><trkpt lat="43.5954653" lon="6.8592025"><ele>292.5</ele><time>2026-04-12T06:22:09.87Z</time></trkpt><trkpt lat="43.5955608" lon="6.8590977"><ele>295.0</ele><time>2026-04-12T06:22:10.87Z</time></trkpt><trkpt lat="43.5956534" lon="6.8589841"><ele>295.0</ele><time>2026-04-12T06:22:11.871Z</time></trkpt><trkpt lat="43.5957316" lon="6.8588434"><ele>295.0</ele><time>2026-04-12T06:22:12.871Z</time></trkpt><trkpt lat="43.5957758" lon="6.858687"><ele>295.0</ele><time>2026-04-12T06:22:13.871Z</time></trkpt><trkpt lat="43.5958071" lon="6.8585332"><ele>295.0</ele><time>2026-04-12T06:22:14.87Z</time></trkpt><trkpt lat="43.5958617" lon="6.8584083"><ele>296.0</ele><time>2026-04-12T06:22:15.871Z</time></trkpt><trkpt lat="43.5959525" lon="6.8583098"><ele>297.0</ele><time>2026-04-12T06:22:16.871Z</time></trkpt><trkpt lat="43.5960608" lon="6.8582518"><ele>298.0</ele><time>2026-04-12T06:22:17.871Z</time></trkpt><trkpt lat="43.5961715" lon="6.8582002"><ele>299.0</ele><time>2026-04-12T06:22:18.872Z</time></trkpt><trkpt lat="43.5962825" lon="6.8581407"><ele>299.0</ele><time>2026-04-12T06:22:19.871Z</time></trkpt><trkpt lat="43.5963876" lon="6.8580722"><ele>299.0</ele><time>2026-04-12T06:22:20.871Z</time></trkpt><trkpt lat="43.5965007" lon="6.8580141"><ele>299.0</ele><time>2026-04-12T06:22:21.871Z</time></trkpt><trkpt lat="43.5966088" lon="6.8579416"><ele>299.0</ele><time>2026-04-12T06:22:22.871Z</time></trkpt><trkpt lat="43.5967039" lon="6.857831"><ele>299.0</ele><time>2026-04-12T06:22:23.871Z</time></trkpt><trkpt lat="43.5967812" lon="6.8576997"><ele>299.0</ele><time>2026-04-12T06:22:24.871Z</time></trkpt><trkpt lat="43.5968713" lon="6.8575971"><ele>299.0</ele><time>2026-04-12T06:22:25.871Z</time></trkpt><trkpt lat="43.5969847" lon="6.8575381"><ele>299.0</ele><time>2026-04-12T06:22:26.871Z</time></trkpt><trkpt lat="43.5971101" lon="6.8574936"><ele>296.25</ele><time>2026-04-12T06:22:27.872Z</time></trkpt><trkpt lat="43.5972324" lon="6.8574355"><ele>293.5</ele><time>2026-04-12T06:22:28.871Z</time></trkpt><trkpt lat="43.5973414" lon="6.8573469"><ele>290.75</ele><time>2026-04-12T06:22:29.871Z</time></trkpt><trkpt lat="43.5974409" lon="6.8572405"><ele>288.0</ele><time>2026-04-12T06:22:30.871Z</time></trkpt><trkpt lat="43.5975504" lon="6.8571662"><ele>288.0</ele><time>2026-04-12T06:22:31.871Z</time></trkpt><trkpt lat="43.5976755" lon="6.8571459"><ele>288.0</ele><time>2026-04-12T06:22:32.871Z</time></trkpt><trkpt lat="43.5978095" lon="6.8571627"><ele>288.0</ele><time>2026-04-12T06:22:33.871Z</time></trkpt><trkpt lat="43.597946" lon="6.8571914"><ele>288.0</ele><time>2026-04-12T06:22:34.871Z</time></trkpt><trkpt lat="43.5980772" lon="6.8571872"><ele>287.0</ele><time>2026-04-12T06:22:35.871Z</time></trkpt><trkpt lat="43.5982057" lon="6.8571364"><ele>286.0</ele><time>2026-04-12T06:22:36.871Z</time></trkpt><trkpt lat="43.5983192" lon="6.8570468"><ele>285.0</ele><time>2026-04-12T06:22:37.872Z</time></trkpt><trkpt lat="43.5984205" lon="6.8569385"><ele>284.0</ele><time>2026-04-12T06:22:38.872Z</time></trkpt><trkpt lat="43.5985009" lon="6.8568193"><ele>281.2</ele><time>2026-04-12T06:22:39.872Z</time></trkpt><trkpt lat="43.5985783" lon="6.8567131"><ele>278.4</ele><time>2026-04-12T06:22:40.871Z</time></trkpt><trkpt lat="43.5986656" lon="6.8566609"><ele>275.6</ele><time>2026-04-12T06:22:41.871Z</time></trkpt><trkpt lat="43.5987291" lon="6.8566085"><ele>272.8</ele><time>2026-04-12T06:22:42.871Z</time></trkpt><trkpt lat="43.5987106" lon="6.8564648"><ele>270.0</ele><time>2026-04-12T06:22:44.871Z</time></trkpt><trkpt lat="43.5986343" lon="6.8564246"><ele>270.0</ele><time>2026-04-12T06:22:45.871Z</time></trkpt><trkpt lat="43.5985362" lon="6.8564237"><ele>270.0</ele><time>2026-04-12T06:22:46.871Z</time></trkpt><trkpt lat="43.5984735" lon="6.8564936"><ele>270.0</ele><time>2026-04-12T06:22:47.871Z</time></trkpt><trkpt lat="43.5984121" lon="6.8565841"><ele>270.0</ele><time>2026-04-12T06:22:48.871Z</time></trkpt><trkpt lat="43.5983435" lon="6.8566748"><ele>270.0</ele><time>2026-04-12T06:22:49.871Z</time></trkpt><trkpt lat="43.5982587" lon="6.856764"><ele>272.8</ele><time>2026-04-12T06:22:50.871Z</time></trkpt><trkpt lat="43.5981633" lon="6.8568405"><ele>275.6</ele><time>2026-04-12T06:22:51.871Z</time></trkpt><trkpt lat="43.5980601" lon="6.856872"><ele>278.4</ele><time>2026-04-12T06:22:52.871Z</time></trkpt><trkpt lat="43.5979454" lon="6.8568646"><ele>281.2</ele><time>2026-04-12T06:22:53.871Z</time></trkpt><trkpt lat="43.5978323" lon="6.8568317"><ele>284.0</ele><time>2026-04-12T06:22:54.871Z</time></trkpt><trkpt lat="43.5977211" lon="6.8568022"><ele>278.75</ele><time>2026-04-12T06:22:55.871Z</time></trkpt><trkpt lat="43.5976134" lon="6.8567715"><ele>273.5</ele><time>2026-04-12T06:22:56.871Z</time></trkpt><trkpt lat="43.5975054" lon="6.8567388"><ele>268.25</ele><time>2026-04-12T06:22:57.871Z</time></trkpt><trkpt lat="43.5973906" lon="6.8567074"><ele>263.0</ele><time>2026-04-12T06:22:58.872Z</time></trkpt><trkpt lat="43.5972747" lon="6.8566728"><ele>263.0</ele><time>2026-04-12T06:22:59.872Z</time></trkpt><trkpt lat="43.5971563" lon="6.8566422"><ele>263.0</ele><time>2026-04-12T06:23:00.872Z</time></trkpt><trkpt lat="43.5970282" lon="6.856628"><ele>263.0</ele><time>2026-04-12T06:23:01.872Z</time></trkpt><trkpt lat="43.5969033" lon="6.8566529"><ele>263.0</ele><time>2026-04-12T06:23:02.872Z</time></trkpt><trkpt lat="43.5967849" lon="6.8567173"><ele>266.75</ele><time>2026-04-12T06:23:03.872Z</time></trkpt><trkpt lat="43.5966727" lon="6.8568035"><ele>270.5</ele><time>2026-04-12T06:23:04.871Z</time></trkpt><trkpt lat="43.596561" lon="6.8568904"><ele>274.25</ele><time>2026-04-12T06:23:05.873Z</time></trkpt><trkpt lat="43.5964473" lon="6.8569741"><ele>278.0</ele><time>2026-04-12T06:23:06.872Z</time></trkpt><trkpt lat="43.5963341" lon="6.857055"><ele>278.0</ele><time>2026-04-12T06:23:07.871Z</time></trkpt><trkpt lat="43.5962182" lon="6.8571311"><ele>278.0</ele><time>2026-04-12T06:23:08.872Z</time></trkpt><trkpt lat="43.5960987" lon="6.8571976"><ele>278.0</ele><time>2026-04-12T06:23:09.872Z</time></trkpt><trkpt lat="43.5959775" lon="6.8572646"><ele>278.0</ele><time>2026-04-12T06:23:10.872Z</time></trkpt><trkpt lat="43.5958592" lon="6.8573405"><ele>273.0</ele><time>2026-04-12T06:23:11.873Z</time></trkpt><trkpt lat="43.5957434" lon="6.8573998"><ele>268.0</ele><time>2026-04-12T06:23:12.872Z</time></trkpt><trkpt lat="43.5956225" lon="6.8573968"><ele>263.0</ele><time>2026-04-12T06:23:13.872Z</time></trkpt><trkpt lat="43.5955123" lon="6.8573532"><ele>258.0</ele><time>2026-04-12T06:23:14.872Z</time></trkpt><trkpt lat="43.5954141" lon="6.857339"><ele>260.5</ele><time>2026-04-12T06:23:15.872Z</time></trkpt><trkpt lat="43.5953192" lon="6.8573847"><ele>263.0</ele><time>2026-04-12T06:23:16.873Z</time></trkpt><trkpt lat="43.595221" lon="6.8574677"><ele>265.5</ele><time>2026-04-12T06:23:17.872Z</time></trkpt><trkpt lat="43.5951219" lon="6.8575622"><ele>268.0</ele><time>2026-04-12T06:23:18.873Z</time></trkpt><trkpt lat="43.5950251" lon="6.857656"><ele>268.0</ele><time>2026-04-12T06:23:19.872Z</time></trkpt><trkpt lat="43.5949319" lon="6.8577611"><ele>268.0</ele><time>2026-04-12T06:23:20.872Z</time></trkpt><trkpt lat="43.5948332" lon="6.8578636"><ele>268.0</ele><time>2026-04-12T06:23:21.872Z</time></trkpt><trkpt lat="43.594722" lon="6.857927"><ele>268.0</ele><time>2026-04-12T06:23:22.872Z</time></trkpt><trkpt lat="43.5945964" lon="6.8579432"><ele>268.4</ele><time>2026-04-12T06:23:23.872Z</time></trkpt><trkpt lat="43.5944699" lon="6.8579317"><ele>268.8</ele><time>2026-04-12T06:23:24.872Z</time></trkpt><trkpt lat="43.594356" lon="6.8579119"><ele>269.2</ele><time>2026-04-12T06:23:25.872Z</time></trkpt><trkpt lat="43.5942657" lon="6.8578527"><ele>269.6</ele><time>2026-04-12T06:23:26.872Z</time></trkpt><trkpt lat="43.5942095" lon="6.8577625"><ele>270.0</ele><time>2026-04-12T06:23:27.872Z</time></trkpt><trkpt lat="43.5941666" lon="6.8575915"><ele>263.75</ele><time>2026-04-12T06:23:28.872Z</time></trkpt><trkpt lat="43.5941351" lon="6.8574087"><ele>257.5</ele><time>2026-04-12T06:23:29.872Z</time></trkpt><trkpt lat="43.5940947" lon="6.8572614"><ele>251.25</ele><time>2026-04-12T06:23:30.872Z</time></trkpt><trkpt lat="43.5940382" lon="6.8571282"><ele>245.0</ele><time>2026-04-12T06:23:31.872Z</time></trkpt><trkpt lat="43.5939906" lon="6.8569804"><ele>245.0</ele><time>2026-04-12T06:23:32.872Z</time></trkpt><trkpt lat="43.5939514" lon="6.8568259"><ele>245.0</ele><time>2026-04-12T06:23:33.872Z</time></trkpt><trkpt lat="43.5938971" lon="6.8566825"><ele>245.0</ele><time>2026-04-12T06:23:34.872Z</time></trkpt><trkpt lat="43.5938229" lon="6.8565598"><ele>245.0</ele><time>2026-04-12T06:23:35.872Z</time></trkpt><trkpt lat="43.5937284" lon="6.8564635"><ele>244.0</ele><time>2026-04-12T06:23:36.873Z</time></trkpt><trkpt lat="43.5936141" lon="6.8563944"><ele>243.0</ele><time>2026-04-12T06:23:37.872Z</time></trkpt><trkpt lat="43.5934998" lon="6.8563495"><ele>242.0</ele><time>2026-04-12T06:23:38.872Z</time></trkpt><trkpt lat="43.5933855" lon="6.856325"><ele>241.0</ele><time>2026-04-12T06:23:39.872Z</time></trkpt><trkpt lat="43.5932725" lon="6.8563041"><ele>241.0</ele><time>2026-04-12T06:23:40.872Z</time></trkpt><trkpt lat="43.5931813" lon="6.8562548"><ele>241.00000000000003</ele><time>2026-04-12T06:23:41.872Z</time></trkpt><trkpt lat="43.5931314" lon="6.8561846"><ele>241.00000000000003</ele><time>2026-04-12T06:23:42.872Z</time></trkpt><trkpt lat="43.5931228" lon="6.8560686"><ele>241.0</ele><time>2026-04-12T06:23:44.873Z</time></trkpt><trkpt lat="43.5932358" lon="6.856108"><ele>241.0</ele><time>2026-04-12T06:23:46.873Z</time></trkpt><trkpt lat="43.5933005" lon="6.8561833"><ele>241.0</ele><time>2026-04-12T06:23:47.872Z</time></trkpt><trkpt lat="43.593372" lon="6.8562632"><ele>241.0</ele><time>2026-04-12T06:23:48.873Z</time></trkpt><trkpt lat="43.5934445" lon="6.8563071"><ele>241.0</ele><time>2026-04-12T06:23:49.872Z</time></trkpt><trkpt lat="43.5935301" lon="6.8563121"><ele>241.0</ele><time>2026-04-12T06:23:50.872Z</time></trkpt><trkpt lat="43.5937409" lon="6.8562917"><ele>236.8</ele><time>2026-04-12T06:23:52.873Z</time></trkpt><trkpt lat="43.5938413" lon="6.8563169"><ele>232.60000000000002</ele><time>2026-04-12T06:23:53.872Z</time></trkpt><trkpt lat="43.5939395" lon="6.8563602"><ele>228.4</ele><time>2026-04-12T06:23:54.874Z</time></trkpt><trkpt lat="43.5940257" lon="6.8564511"><ele>224.2</ele><time>2026-04-12T06:23:55.873Z</time></trkpt><trkpt lat="43.5940967" lon="6.8565538"><ele>220.0</ele><time>2026-04-12T06:23:56.873Z</time></trkpt><trkpt lat="43.5941558" lon="6.8566559"><ele>220.0</ele><time>2026-04-12T06:23:57.873Z</time></trkpt><trkpt lat="43.5942104" lon="6.8567642"><ele>220.0</ele><time>2026-04-12T06:23:58.873Z</time></trkpt><trkpt lat="43.5942575" lon="6.8568813"><ele>220.0</ele><time>2026-04-12T06:23:59.873Z</time></trkpt><trkpt lat="43.5942979" lon="6.8570033"><ele>220.0</ele><time>2026-04-12T06:24:00.874Z</time></trkpt><trkpt lat="43.5943373" lon="6.8571201"><ele>220.0</ele><time>2026-04-12T06:24:01.873Z</time></trkpt><trkpt lat="43.5943923" lon="6.8572285"><ele>223.16666666666666</ele><time>2026-04-12T06:24:02.874Z</time></trkpt><trkpt lat="43.5944635" lon="6.8572868"><ele>226.33333333333331</ele><time>2026-04-12T06:24:03.873Z</time></trkpt><trkpt lat="43.5945393" lon="6.8573299"><ele>229.5</ele><time>2026-04-12T06:24:04.874Z</time></trkpt><trkpt lat="43.5946238" lon="6.8573142"><ele>232.66666666666669</ele><time>2026-04-12T06:24:05.873Z</time></trkpt><trkpt lat="43.5946973" lon="6.8572287"><ele>235.83333333333334</ele><time>2026-04-12T06:24:06.873Z</time></trkpt><trkpt lat="43.5947655" lon="6.8571345"><ele>239.0</ele><time>2026-04-12T06:24:07.873Z</time></trkpt><trkpt lat="43.5948427" lon="6.8570465"><ele>239.0</ele><time>2026-04-12T06:24:08.873Z</time></trkpt><trkpt lat="43.594923" lon="6.8569601"><ele>238.99999999999997</ele><time>2026-04-12T06:24:09.874Z</time></trkpt><trkpt lat="43.595003" lon="6.8568699"><ele>238.99999999999997</ele><time>2026-04-12T06:24:10.873Z</time></trkpt><trkpt lat="43.5950829" lon="6.8567717"><ele>239.0</ele><time>2026-04-12T06:24:11.873Z</time></trkpt><trkpt lat="43.595163" lon="6.8566709"><ele>239.0</ele><time>2026-04-12T06:24:12.873Z</time></trkpt><trkpt lat="43.5952511" lon="6.8565761"><ele>235.75</ele><time>2026-04-12T06:24:13.874Z</time></trkpt><trkpt lat="43.5953481" lon="6.856494"><ele>232.5</ele><time>2026-04-12T06:24:14.873Z</time></trkpt><trkpt lat="43.5954579" lon="6.85644"><ele>229.25</ele><time>2026-04-12T06:24:15.873Z</time></trkpt><trkpt lat="43.5955715" lon="6.8563998"><ele>226.0</ele><time>2026-04-12T06:24:16.873Z</time></trkpt><trkpt lat="43.5956828" lon="6.8563473"><ele>226.0</ele><time>2026-04-12T06:24:17.873Z</time></trkpt><trkpt lat="43.5957906" lon="6.8562789"><ele>226.0</ele><time>2026-04-12T06:24:18.873Z</time></trkpt><trkpt lat="43.5958986" lon="6.8562098"><ele>226.0</ele><time>2026-04-12T06:24:19.873Z</time></trkpt><trkpt lat="43.5960074" lon="6.8561327"><ele>226.0</ele><time>2026-04-12T06:24:20.873Z</time></trkpt><trkpt lat="43.596106" lon="6.8560385"><ele>224.0</ele><time>2026-04-12T06:24:21.873Z</time></trkpt><trkpt lat="43.5961958" lon="6.8559247"><ele>222.0</ele><time>2026-04-12T06:24:22.873Z</time></trkpt><trkpt lat="43.5962788" lon="6.8557985"><ele>220.0</ele><time>2026-04-12T06:24:23.873Z</time></trkpt><trkpt lat="43.5963584" lon="6.8556695"><ele>218.0</ele><time>2026-04-12T06:24:24.873Z</time></trkpt><trkpt lat="43.5964404" lon="6.8555406"><ele>218.0</ele><time>2026-04-12T06:24:25.873Z</time></trkpt><trkpt lat="43.5965296" lon="6.8554305"><ele>218.0</ele><time>2026-04-12T06:24:26.873Z</time></trkpt><trkpt lat="43.5966313" lon="6.8553458"><ele>218.0</ele><time>2026-04-12T06:24:27.873Z</time></trkpt><trkpt lat="43.5967361" lon="6.8552694"><ele>218.0</ele><time>2026-04-12T06:24:28.873Z</time></trkpt><trkpt lat="43.5968468" lon="6.8552355"><ele>218.0</ele><time>2026-04-12T06:24:29.873Z</time></trkpt><trkpt lat="43.5969386" lon="6.8552089"><ele>218.0</ele><time>2026-04-12T06:24:30.874Z</time></trkpt><trkpt lat="43.5970131" lon="6.8551438"><ele>218.0</ele><time>2026-04-12T06:24:31.874Z</time></trkpt><trkpt lat="43.5970583" lon="6.8550384"><ele>218.0</ele><time>2026-04-12T06:24:32.874Z</time></trkpt><trkpt lat="43.5970759" lon="6.8549118"><ele>218.0</ele><time>2026-04-12T06:24:33.873Z</time></trkpt><trkpt lat="43.597083" lon="6.854776"><ele>217.8</ele><time>2026-04-12T06:24:34.874Z</time></trkpt><trkpt lat="43.5970893" lon="6.8546376"><ele>217.60000000000002</ele><time>2026-04-12T06:24:35.873Z</time></trkpt><trkpt lat="43.5970927" lon="6.8544962"><ele>217.39999999999998</ele><time>2026-04-12T06:24:36.874Z</time></trkpt><trkpt lat="43.5971014" lon="6.8543526"><ele>217.2</ele><time>2026-04-12T06:24:37.873Z</time></trkpt><trkpt lat="43.5971094" lon="6.8542069"><ele>217.0</ele><time>2026-04-12T06:24:38.873Z</time></trkpt><trkpt lat="43.5971111" lon="6.854056"><ele>217.0</ele><time>2026-04-12T06:24:39.874Z</time></trkpt><trkpt lat="43.5971095" lon="6.8539017"><ele>217.0</ele><time>2026-04-12T06:24:40.874Z</time></trkpt><trkpt lat="43.5971054" lon="6.8537461"><ele>217.0</ele><time>2026-04-12T06:24:41.874Z</time></trkpt><trkpt lat="43.5971054" lon="6.8535886"><ele>217.0</ele><time>2026-04-12T06:24:42.875Z</time></trkpt><trkpt lat="43.5971194" lon="6.8534352"><ele>213.0</ele><time>2026-04-12T06:24:43.874Z</time></trkpt><trkpt lat="43.5971599" lon="6.8532942"><ele>209.0</ele><time>2026-04-12T06:24:44.874Z</time></trkpt><trkpt lat="43.597233" lon="6.8531772"><ele>205.0</ele><time>2026-04-12T06:24:45.874Z</time></trkpt><trkpt lat="43.5973277" lon="6.8530902"><ele>201.0</ele><time>2026-04-12T06:24:46.874Z</time></trkpt><trkpt lat="43.597425" lon="6.8530135"><ele>197.0</ele><time>2026-04-12T06:24:47.874Z</time></trkpt><trkpt lat="43.5975289" lon="6.8529597"><ele>197.0</ele><time>2026-04-12T06:24:48.874Z</time></trkpt><trkpt lat="43.597625" lon="6.8528991"><ele>197.0</ele><time>2026-04-12T06:24:49.875Z</time></trkpt><trkpt lat="43.5977164" lon="6.8528324"><ele>197.0</ele><time>2026-04-12T06:24:50.874Z</time></trkpt><trkpt lat="43.5977929" lon="6.8527443"><ele>197.0</ele><time>2026-04-12T06:24:51.874Z</time></trkpt><trkpt lat="43.5978599" lon="6.8526212"><ele>197.0</ele><time>2026-04-12T06:24:52.874Z</time></trkpt><trkpt lat="43.5979059" lon="6.8524745"><ele>197.75</ele><time>2026-04-12T06:24:53.874Z</time></trkpt><trkpt lat="43.5979502" lon="6.8523197"><ele>198.5</ele><time>2026-04-12T06:24:54.875Z</time></trkpt><trkpt lat="43.5980195" lon="6.8521907"><ele>199.25</ele><time>2026-04-12T06:24:55.874Z</time></trkpt><trkpt lat="43.5981144" lon="6.8520937"><ele>200.0</ele><time>2026-04-12T06:24:56.874Z</time></trkpt><trkpt lat="43.5982106" lon="6.8520235"><ele>200.0</ele><time>2026-04-12T06:24:57.874Z</time></trkpt><trkpt lat="43.5982922" lon="6.8519635"><ele>200.0</ele><time>2026-04-12T06:24:58.874Z</time></trkpt><trkpt lat="43.5983389" lon="6.8518778"><ele>200.0</ele><time>2026-04-12T06:24:59.875Z</time></trkpt><trkpt lat="43.5983396" lon="6.8517629"><ele>200.0</ele><time>2026-04-12T06:25:00.874Z</time></trkpt><trkpt lat="43.5982995" lon="6.8516302"><ele>200.0</ele><time>2026-04-12T06:25:01.874Z</time></trkpt><trkpt lat="43.5982265" lon="6.851516"><ele>197.8</ele><time>2026-04-12T06:25:02.874Z</time></trkpt><trkpt lat="43.5981432" lon="6.8514257"><ele>195.6</ele><time>2026-04-12T06:25:03.874Z</time></trkpt><trkpt lat="43.5980645" lon="6.851323"><ele>193.39999999999998</ele><time>2026-04-12T06:25:04.874Z</time></trkpt><trkpt lat="43.5979958" lon="6.8512062"><ele>191.2</ele><time>2026-04-12T06:25:05.874Z</time></trkpt><trkpt lat="43.5979256" lon="6.8510959"><ele>189.0</ele><time>2026-04-12T06:25:06.874Z</time></trkpt><trkpt lat="43.5978397" lon="6.851"><ele>183.79999999999998</ele><time>2026-04-12T06:25:07.874Z</time></trkpt><trkpt lat="43.5977481" lon="6.8509138"><ele>178.6</ele><time>2026-04-12T06:25:08.874Z</time></trkpt><trkpt lat="43.5976607" lon="6.8508224"><ele>173.4</ele><time>2026-04-12T06:25:09.875Z</time></trkpt><trkpt lat="43.5975779" lon="6.8507167"><ele>168.2</ele><time>2026-04-12T06:25:10.874Z</time></trkpt><trkpt lat="43.5974984" lon="6.8506044"><ele>163.0</ele><time>2026-04-12T06:25:11.874Z</time></trkpt><trkpt lat="43.5974248" lon="6.8504853"><ele>163.0</ele><time>2026-04-12T06:25:12.875Z</time></trkpt><trkpt lat="43.5973617" lon="6.8503514"><ele>163.0</ele><time>2026-04-12T06:25:13.875Z</time></trkpt><trkpt lat="43.597321" lon="6.8501927"><ele>163.0</ele><time>2026-04-12T06:25:14.875Z</time></trkpt><trkpt lat="43.5972997" lon="6.8500267"><ele>163.0</ele><time>2026-04-12T06:25:15.875Z</time></trkpt><trkpt lat="43.5973003" lon="6.8498515"><ele>164.25</ele><time>2026-04-12T06:25:16.875Z</time></trkpt><trkpt lat="43.5973177" lon="6.849682"><ele>165.5</ele><time>2026-04-12T06:25:17.875Z</time></trkpt><trkpt lat="43.5973573" lon="6.8495263"><ele>166.75</ele><time>2026-04-12T06:25:18.874Z</time></trkpt><trkpt lat="43.5974178" lon="6.8493722"><ele>168.0</ele><time>2026-04-12T06:25:19.875Z</time></trkpt><trkpt lat="43.5975003" lon="6.8492269"><ele>169.0</ele><time>2026-04-12T06:25:20.875Z</time></trkpt><trkpt lat="43.5976052" lon="6.8490899"><ele>170.0</ele><time>2026-04-12T06:25:21.875Z</time></trkpt><trkpt lat="43.5977145" lon="6.8489701"><ele>171.0</ele><time>2026-04-12T06:25:22.875Z</time></trkpt><trkpt lat="43.597826" lon="6.848864"><ele>172.0</ele><time>2026-04-12T06:25:23.874Z</time></trkpt><trkpt lat="43.597947" lon="6.8487904"><ele>172.0</ele><time>2026-04-12T06:25:24.874Z</time></trkpt><trkpt lat="43.5980812" lon="6.8487493"><ele>172.0</ele><time>2026-04-12T06:25:25.875Z</time></trkpt><trkpt lat="43.5982203" lon="6.8487267"><ele>172.0</ele><time>2026-04-12T06:25:26.876Z</time></trkpt><trkpt lat="43.5983349" lon="6.8486841"><ele>172.0</ele><time>2026-04-12T06:25:27.875Z</time></trkpt><trkpt lat="43.5984199" lon="6.8485857"><ele>167.0</ele><time>2026-04-12T06:25:28.875Z</time></trkpt><trkpt lat="43.5984663" lon="6.8484329"><ele>162.0</ele><time>2026-04-12T06:25:29.875Z</time></trkpt><trkpt lat="43.5984853" lon="6.8482595"><ele>157.0</ele><time>2026-04-12T06:25:30.875Z</time></trkpt><trkpt lat="43.5984792" lon="6.8480944"><ele>152.0</ele><time>2026-04-12T06:25:31.876Z</time></trkpt><trkpt lat="43.5984746" lon="6.8479353"><ele>152.0</ele><time>2026-04-12T06:25:32.875Z</time></trkpt><trkpt lat="43.5984779" lon="6.8477686"><ele>152.0</ele><time>2026-04-12T06:25:33.875Z</time></trkpt><trkpt lat="43.5984865" lon="6.8475995"><ele>152.0</ele><time>2026-04-12T06:25:34.875Z</time></trkpt><trkpt lat="43.5984938" lon="6.847434"><ele>152.0</ele><time>2026-04-12T06:25:35.876Z</time></trkpt><trkpt lat="43.5985021" lon="6.8472639"><ele>150.2</ele><time>2026-04-12T06:25:36.875Z</time></trkpt><trkpt lat="43.5985078" lon="6.8470955"><ele>148.39999999999998</ele><time>2026-04-12T06:25:37.875Z</time></trkpt><trkpt lat="43.5985075" lon="6.8469426"><ele>146.60000000000002</ele><time>2026-04-12T06:25:38.875Z</time></trkpt><trkpt lat="43.5985062" lon="6.8467934"><ele>144.8</ele><time>2026-04-12T06:25:39.875Z</time></trkpt><trkpt lat="43.5985144" lon="6.8466534"><ele>143.0</ele><time>2026-04-12T06:25:40.875Z</time></trkpt><trkpt lat="43.5985458" lon="6.8465214"><ele>142.0</ele><time>2026-04-12T06:25:41.875Z</time></trkpt><trkpt lat="43.5986126" lon="6.8464115"><ele>141.0</ele><time>2026-04-12T06:25:42.875Z</time></trkpt><trkpt lat="43.5987034" lon="6.8463476"><ele>140.0</ele><time>2026-04-12T06:25:43.875Z</time></trkpt><trkpt lat="43.5988129" lon="6.8463242"><ele>139.0</ele><time>2026-04-12T06:25:44.875Z</time></trkpt><trkpt lat="43.5989559" lon="6.8463578"><ele>139.0</ele><time>2026-04-12T06:25:45.876Z</time></trkpt><trkpt lat="43.5990759" lon="6.8464266"><ele>139.0</ele><time>2026-04-12T06:25:46.875Z</time></trkpt><trkpt lat="43.5991708" lon="6.8465234"><ele>139.0</ele><time>2026-04-12T06:25:47.875Z</time></trkpt><trkpt lat="43.5992227" lon="6.8466459"><ele>139.0</ele><time>2026-04-12T06:25:48.875Z</time></trkpt><trkpt lat="43.5992463" lon="6.8468066"><ele>142.4</ele><time>2026-04-12T06:25:49.876Z</time></trkpt><trkpt lat="43.5992492" lon="6.8469518"><ele>145.8</ele><time>2026-04-12T06:25:50.875Z</time></trkpt><trkpt lat="43.5992679" lon="6.8470733"><ele>149.2</ele><time>2026-04-12T06:25:51.875Z</time></trkpt><trkpt lat="43.5993281" lon="6.8471358"><ele>152.6</ele><time>2026-04-12T06:25:52.875Z</time></trkpt><trkpt lat="43.5994171" lon="6.8471645"><ele>156.0</ele><time>2026-04-12T06:25:53.875Z</time></trkpt><trkpt lat="43.5995165" lon="6.8471287"><ele>158.0</ele><time>2026-04-12T06:25:54.875Z</time></trkpt><trkpt lat="43.5996089" lon="6.8470452"><ele>160.0</ele><time>2026-04-12T06:25:55.875Z</time></trkpt><trkpt lat="43.5996869" lon="6.8469529"><ele>162.0</ele><time>2026-04-12T06:25:56.875Z</time></trkpt><trkpt lat="43.5997848" lon="6.8468604"><ele>164.0</ele><time>2026-04-12T06:25:57.875Z</time></trkpt><trkpt lat="43.5998833" lon="6.8467742"><ele>166.0</ele><time>2026-04-12T06:25:58.875Z</time></trkpt><trkpt lat="43.5999822" lon="6.8466976"><ele>159.25</ele><time>2026-04-12T06:25:59.875Z</time></trkpt><trkpt lat="43.600083" lon="6.8466235"><ele>152.5</ele><time>2026-04-12T06:26:00.875Z</time></trkpt><trkpt lat="43.6001855" lon="6.8465526"><ele>145.75</ele><time>2026-04-12T06:26:01.875Z</time></trkpt><trkpt lat="43.6002911" lon="6.8464885"><ele>139.0</ele><time>2026-04-12T06:26:02.875Z</time></trkpt><trkpt lat="43.6004057" lon="6.846443"><ele>139.0</ele><time>2026-04-12T06:26:03.876Z</time></trkpt><trkpt lat="43.6005246" lon="6.8464219"><ele>139.0</ele><time>2026-04-12T06:26:04.876Z</time></trkpt><trkpt lat="43.6006411" lon="6.8464174"><ele>139.0</ele><time>2026-04-12T06:26:05.875Z</time></trkpt><trkpt lat="43.6007592" lon="6.8464065"><ele>139.0</ele><time>2026-04-12T06:26:06.876Z</time></trkpt><trkpt lat="43.6008799" lon="6.8463826"><ele>139.0</ele><time>2026-04-12T06:26:07.876Z</time></trkpt><trkpt lat="43.6009999" lon="6.8463454"><ele>139.0</ele><time>2026-04-12T06:26:08.876Z</time></trkpt><trkpt lat="43.6011164" lon="6.8462923"><ele>139.0</ele><time>2026-04-12T06:26:09.876Z</time></trkpt><trkpt lat="43.6012261" lon="6.8462245"><ele>139.0</ele><time>2026-04-12T06:26:10.876Z</time></trkpt><trkpt lat="43.6013338" lon="6.8461532"><ele>139.0</ele><time>2026-04-12T06:26:11.876Z</time></trkpt><trkpt lat="43.6014388" lon="6.8460752"><ele>139.0</ele><time>2026-04-12T06:26:12.876Z</time></trkpt><trkpt lat="43.6015421" lon="6.8459959"><ele>139.0</ele><time>2026-04-12T06:26:13.876Z</time></trkpt><trkpt lat="43.6016433" lon="6.8459058"><ele>139.0</ele><time>2026-04-12T06:26:14.877Z</time></trkpt><trkpt lat="43.6017369" lon="6.8458034"><ele>134.75</ele><time>2026-04-12T06:26:15.877Z</time></trkpt><trkpt lat="43.6018177" lon="6.8456789"><ele>130.5</ele><time>2026-04-12T06:26:16.876Z</time></trkpt><trkpt lat="43.6018705" lon="6.8455291"><ele>126.25</ele><time>2026-04-12T06:26:17.876Z</time></trkpt><trkpt lat="43.6019017" lon="6.8453548"><ele>122.0</ele><time>2026-04-12T06:26:18.877Z</time></trkpt><trkpt lat="43.6019342" lon="6.8451955"><ele>117.5</ele><time>2026-04-12T06:26:19.876Z</time></trkpt><trkpt lat="43.6019646" lon="6.84504"><ele>113.0</ele><time>2026-04-12T06:26:20.876Z</time></trkpt><trkpt lat="43.6019813" lon="6.8448777"><ele>108.5</ele><time>2026-04-12T06:26:21.876Z</time></trkpt><trkpt lat="43.6019775" lon="6.8447052"><ele>104.0</ele><time>2026-04-12T06:26:22.877Z</time></trkpt><trkpt lat="43.6019659" lon="6.8445298"><ele>104.0</ele><time>2026-04-12T06:26:23.876Z</time></trkpt><trkpt lat="43.6019425" lon="6.8443516"><ele>104.0</ele><time>2026-04-12T06:26:24.876Z</time></trkpt><trkpt lat="43.6019154" lon="6.8441813"><ele>104.0</ele><time>2026-04-12T06:26:25.876Z</time></trkpt><trkpt lat="43.6018951" lon="6.8440115"><ele>104.0</ele><time>2026-04-12T06:26:26.876Z</time></trkpt><trkpt lat="43.6018828" lon="6.843843"><ele>103.75</ele><time>2026-04-12T06:26:27.876Z</time></trkpt><trkpt lat="43.6018718" lon="6.8436714"><ele>103.5</ele><time>2026-04-12T06:26:28.876Z</time></trkpt><trkpt lat="43.6018579" lon="6.8434996"><ele>103.25</ele><time>2026-04-12T06:26:29.876Z</time></trkpt><trkpt lat="43.6018401" lon="6.8433306"><ele>103.0</ele><time>2026-04-12T06:26:30.877Z</time></trkpt><trkpt lat="43.6018136" lon="6.8431676"><ele>102.83333333333334</ele><time>2026-04-12T06:26:31.876Z</time></trkpt><trkpt lat="43.6017829" lon="6.8430235"><ele>102.66666666666667</ele><time>2026-04-12T06:26:32.877Z</time></trkpt><trkpt lat="43.6017522" lon="6.8429012"><ele>102.5</ele><time>2026-04-12T06:26:33.876Z</time></trkpt><trkpt lat="43.6017304" lon="6.842789"><ele>102.33333333333334</ele><time>2026-04-12T06:26:34.876Z</time></trkpt><trkpt lat="43.6017329" lon="6.8426787"><ele>102.16666666666667</ele><time>2026-04-12T06:26:35.876Z</time></trkpt><trkpt lat="43.6017671" lon="6.8425766"><ele>102.0</ele><time>2026-04-12T06:26:36.877Z</time></trkpt><trkpt lat="43.6018446" lon="6.8424973"><ele>102.39999999999999</ele><time>2026-04-12T06:26:37.876Z</time></trkpt><trkpt lat="43.6019359" lon="6.8424568"><ele>102.8</ele><time>2026-04-12T06:26:38.876Z</time></trkpt><trkpt lat="43.6020434" lon="6.8424486"><ele>103.2</ele><time>2026-04-12T06:26:39.876Z</time></trkpt><trkpt lat="43.6021597" lon="6.8424335"><ele>103.6</ele><time>2026-04-12T06:26:40.876Z</time></trkpt><trkpt lat="43.6022794" lon="6.842418"><ele>104.0</ele><time>2026-04-12T06:26:41.876Z</time></trkpt><trkpt lat="43.6023933" lon="6.8423908"><ele>104.0</ele><time>2026-04-12T06:26:42.876Z</time></trkpt><trkpt lat="43.6025056" lon="6.8423538"><ele>104.0</ele><time>2026-04-12T06:26:43.876Z</time></trkpt><trkpt lat="43.6026207" lon="6.8423271"><ele>104.0</ele><time>2026-04-12T06:26:44.876Z</time></trkpt><trkpt lat="43.6027398" lon="6.8423181"><ele>104.0</ele><time>2026-04-12T06:26:45.876Z</time></trkpt><trkpt lat="43.6028631" lon="6.8423185"><ele>103.25</ele><time>2026-04-12T06:26:46.877Z</time></trkpt><trkpt lat="43.6029874" lon="6.8423096"><ele>102.5</ele><time>2026-04-12T06:26:47.877Z</time></trkpt><trkpt lat="43.6031151" lon="6.8423016"><ele>101.75</ele><time>2026-04-12T06:26:48.876Z</time></trkpt><trkpt lat="43.603242" lon="6.8422894"><ele>101.0</ele><time>2026-04-12T06:26:49.876Z</time></trkpt><trkpt lat="43.6033693" lon="6.8422812"><ele>101.0</ele><time>2026-04-12T06:26:50.876Z</time></trkpt><trkpt lat="43.6035009" lon="6.8422871"><ele>101.0</ele><time>2026-04-12T06:26:51.878Z</time></trkpt><trkpt lat="43.6036353" lon="6.8423086"><ele>101.0</ele><time>2026-04-12T06:26:52.877Z</time></trkpt><trkpt lat="43.6037693" lon="6.842334"><ele>101.0</ele><time>2026-04-12T06:26:53.876Z</time></trkpt><trkpt lat="43.6039029" lon="6.8423559"><ele>98.0</ele><time>2026-04-12T06:26:54.876Z</time></trkpt><trkpt lat="43.6040372" lon="6.8423754"><ele>95.0</ele><time>2026-04-12T06:26:55.877Z</time></trkpt><trkpt lat="43.6041737" lon="6.8424017"><ele>92.0</ele><time>2026-04-12T06:26:56.876Z</time></trkpt><trkpt lat="43.6043034" lon="6.8424296"><ele>89.0</ele><time>2026-04-12T06:26:57.876Z</time></trkpt><trkpt lat="43.6044225" lon="6.8424658"><ele>87.0</ele><time>2026-04-12T06:26:58.877Z</time></trkpt><trkpt lat="43.6045242" lon="6.8425245"><ele>85.0</ele><time>2026-04-12T06:26:59.877Z</time></trkpt><trkpt lat="43.6046037" lon="6.8426136"><ele>83.0</ele><time>2026-04-12T06:27:00.878Z</time></trkpt><trkpt lat="43.6046567" lon="6.8427405"><ele>81.0</ele><time>2026-04-12T06:27:01.877Z</time></trkpt><trkpt lat="43.6046655" lon="6.8428946"><ele>79.0</ele><time>2026-04-12T06:27:02.877Z</time></trkpt><trkpt lat="43.6046456" lon="6.8430541"><ele>79.0</ele><time>2026-04-12T06:27:03.877Z</time></trkpt><trkpt lat="43.6046305" lon="6.8432111"><ele>79.0</ele><time>2026-04-12T06:27:04.877Z</time></trkpt><trkpt lat="43.60464" lon="6.8433705"><ele>79.0</ele><time>2026-04-12T06:27:05.877Z</time></trkpt><trkpt lat="43.6046911" lon="6.8435103"><ele>79.0</ele><time>2026-04-12T06:27:06.877Z</time></trkpt><trkpt lat="43.6047678" lon="6.8436349"><ele>80.5</ele><time>2026-04-12T06:27:07.877Z</time></trkpt><trkpt lat="43.6048577" lon="6.8437594"><ele>82.0</ele><time>2026-04-12T06:27:08.877Z</time></trkpt><trkpt lat="43.604942" lon="6.8438846"><ele>83.5</ele><time>2026-04-12T06:27:09.878Z</time></trkpt><trkpt lat="43.6050161" lon="6.844018"><ele>85.0</ele><time>2026-04-12T06:27:10.877Z</time></trkpt><trkpt lat="43.6050688" lon="6.8441604"><ele>84.66666666666666</ele><time>2026-04-12T06:27:11.877Z</time></trkpt><trkpt lat="43.6051057" lon="6.8443096"><ele>84.33333333333333</ele><time>2026-04-12T06:27:12.877Z</time></trkpt><trkpt lat="43.6051383" lon="6.8444269"><ele>84.0</ele><time>2026-04-12T06:27:13.877Z</time></trkpt><trkpt lat="43.6051747" lon="6.8445063"><ele>83.66666666666667</ele><time>2026-04-12T06:27:14.877Z</time></trkpt><trkpt lat="43.6052308" lon="6.8445675"><ele>83.33333333333334</ele><time>2026-04-12T06:27:15.877Z</time></trkpt><trkpt lat="43.6053008" lon="6.8445765"><ele>83.0</ele><time>2026-04-12T06:27:16.877Z</time></trkpt><trkpt lat="43.6053893" lon="6.8445396"><ele>83.0</ele><time>2026-04-12T06:27:17.877Z</time></trkpt><trkpt lat="43.605478" lon="6.8444746"><ele>83.0</ele><time>2026-04-12T06:27:18.877Z</time></trkpt><trkpt lat="43.6055589" lon="6.8444083"><ele>83.0</ele><time>2026-04-12T06:27:19.877Z</time></trkpt><trkpt lat="43.6056348" lon="6.8443519"><ele>83.0</ele><time>2026-04-12T06:27:20.877Z</time></trkpt><trkpt lat="43.6057162" lon="6.8443024"><ele>83.0</ele><time>2026-04-12T06:27:21.877Z</time></trkpt><trkpt lat="43.6057998" lon="6.8442725"><ele>83.0</ele><time>2026-04-12T06:27:22.877Z</time></trkpt><trkpt lat="43.6058903" lon="6.8442815"><ele>83.0</ele><time>2026-04-12T06:27:23.877Z</time></trkpt><trkpt lat="43.6059811" lon="6.8443402"><ele>83.0</ele><time>2026-04-12T06:27:24.877Z</time></trkpt><trkpt lat="43.6060648" lon="6.844432"><ele>83.0</ele><time>2026-04-12T06:27:25.877Z</time></trkpt><trkpt lat="43.6061475" lon="6.8445302"><ele>83.0</ele><time>2026-04-12T06:27:26.877Z</time></trkpt><trkpt lat="43.6062317" lon="6.8446219"><ele>82.80000000000001</ele><time>2026-04-12T06:27:27.878Z</time></trkpt><trkpt lat="43.6063224" lon="6.8447007"><ele>82.6</ele><time>2026-04-12T06:27:28.877Z</time></trkpt><trkpt lat="43.6064173" lon="6.8447764"><ele>82.4</ele><time>2026-04-12T06:27:29.877Z</time></trkpt><trkpt lat="43.6065112" lon="6.8448464"><ele>82.19999999999999</ele><time>2026-04-12T06:27:30.878Z</time></trkpt><trkpt lat="43.6065984" lon="6.844925"><ele>82.0</ele><time>2026-04-12T06:27:31.877Z</time></trkpt><trkpt lat="43.6066866" lon="6.8450203"><ele>82.0</ele><time>2026-04-12T06:27:32.877Z</time></trkpt><trkpt lat="43.6067719" lon="6.8451202"><ele>82.0</ele><time>2026-04-12T06:27:33.878Z</time></trkpt><trkpt lat="43.6068474" lon="6.8452177"><ele>82.0</ele><time>2026-04-12T06:27:34.877Z</time></trkpt><trkpt lat="43.6069154" lon="6.8453139"><ele>82.0</ele><time>2026-04-12T06:27:35.877Z</time></trkpt><trkpt lat="43.6069873" lon="6.845404"><ele>82.0</ele><time>2026-04-12T06:27:36.878Z</time></trkpt><trkpt lat="43.6070706" lon="6.8454688"><ele>80.19999999999999</ele><time>2026-04-12T06:27:37.879Z</time></trkpt><trkpt lat="43.6071639" lon="6.8455155"><ele>78.39999999999999</ele><time>2026-04-12T06:27:38.877Z</time></trkpt><trkpt lat="43.607263" lon="6.845562"><ele>76.6</ele><time>2026-04-12T06:27:39.878Z</time></trkpt><trkpt lat="43.60736" lon="6.845593"><ele>74.8</ele><time>2026-04-12T06:27:40.877Z</time></trkpt><trkpt lat="43.6074587" lon="6.8456049"><ele>73.0</ele><time>2026-04-12T06:27:41.878Z</time></trkpt><trkpt lat="43.6075573" lon="6.8455971"><ele>73.0</ele><time>2026-04-12T06:27:42.878Z</time></trkpt><trkpt lat="43.6076559" lon="6.845577"><ele>73.0</ele><time>2026-04-12T06:27:43.878Z</time></trkpt><trkpt lat="43.6077512" lon="6.8455501"><ele>73.0</ele><time>2026-04-12T06:27:44.878Z</time></trkpt><trkpt lat="43.6078429" lon="6.8455263"><ele>73.0</ele><time>2026-04-12T06:27:45.878Z</time></trkpt><trkpt lat="43.6079346" lon="6.8455027"><ele>73.0</ele><time>2026-04-12T06:27:46.878Z</time></trkpt><trkpt lat="43.6080226" lon="6.8454786"><ele>73.2</ele><time>2026-04-12T06:27:47.878Z</time></trkpt><trkpt lat="43.6081076" lon="6.8454491"><ele>73.4</ele><time>2026-04-12T06:27:48.878Z</time></trkpt><trkpt lat="43.60819" lon="6.8454166"><ele>73.60000000000001</ele><time>2026-04-12T06:27:49.878Z</time></trkpt><trkpt lat="43.6082767" lon="6.845383"><ele>73.8</ele><time>2026-04-12T06:27:50.878Z</time></trkpt><trkpt lat="43.6083679" lon="6.84535"><ele>74.0</ele><time>2026-04-12T06:27:51.878Z</time></trkpt><trkpt lat="43.6084616" lon="6.845318"><ele>74.0</ele><time>2026-04-12T06:27:52.879Z</time></trkpt><trkpt lat="43.608557" lon="6.8452832"><ele>74.0</ele><time>2026-04-12T06:27:53.878Z</time></trkpt><trkpt lat="43.6086538" lon="6.845247"><ele>74.0</ele><time>2026-04-12T06:27:54.878Z</time></trkpt><trkpt lat="43.6087491" lon="6.8452059"><ele>74.0</ele><time>2026-04-12T06:27:55.878Z</time></trkpt><trkpt lat="43.608848" lon="6.8451589"><ele>74.0</ele><time>2026-04-12T06:27:56.878Z</time></trkpt><trkpt lat="43.6089485" lon="6.8451074"><ele>74.0</ele><time>2026-04-12T06:27:57.878Z</time></trkpt><trkpt lat="43.6090505" lon="6.8450602"><ele>74.0</ele><time>2026-04-12T06:27:58.878Z</time></trkpt><trkpt lat="43.6091522" lon="6.8450209"><ele>74.0</ele><time>2026-04-12T06:27:59.878Z</time></trkpt><trkpt lat="43.6092558" lon="6.8449879"><ele>74.0</ele><time>2026-04-12T06:28:00.878Z</time></trkpt><trkpt lat="43.6093595" lon="6.8449606"><ele>74.0</ele><time>2026-04-12T06:28:01.878Z</time></trkpt><trkpt lat="43.6094582" lon="6.8449256"><ele>74.0</ele><time>2026-04-12T06:28:02.878Z</time></trkpt><trkpt lat="43.6095561" lon="6.844886"><ele>74.0</ele><time>2026-04-12T06:28:03.878Z</time></trkpt><trkpt lat="43.6096515" lon="6.8448442"><ele>74.0</ele><time>2026-04-12T06:28:04.878Z</time></trkpt><trkpt lat="43.6097449" lon="6.8448082"><ele>74.0</ele><time>2026-04-12T06:28:05.878Z</time></trkpt><trkpt lat="43.6098383" lon="6.8447798"><ele>74.0</ele><time>2026-04-12T06:28:06.878Z</time></trkpt><trkpt lat="43.6099307" lon="6.8447587"><ele>74.0</ele><time>2026-04-12T06:28:07.879Z</time></trkpt><trkpt lat="43.6100246" lon="6.8447524"><ele>74.0</ele><time>2026-04-12T06:28:08.878Z</time></trkpt><trkpt lat="43.6101168" lon="6.8447637"><ele>74.0</ele><time>2026-04-12T06:28:09.878Z</time></trkpt><trkpt lat="43.6102084" lon="6.8447866"><ele>74.0</ele><time>2026-04-12T06:28:10.878Z</time></trkpt><trkpt lat="43.6102947" lon="6.844816"><ele>74.0</ele><time>2026-04-12T06:28:11.878Z</time></trkpt><trkpt lat="43.6103784" lon="6.8448464"><ele>73.83333333333334</ele><time>2026-04-12T06:28:12.878Z</time></trkpt><trkpt lat="43.6104577" lon="6.844881"><ele>73.66666666666667</ele><time>2026-04-12T06:28:13.878Z</time></trkpt><trkpt lat="43.6105319" lon="6.8449194"><ele>73.5</ele><time>2026-04-12T06:28:14.878Z</time></trkpt><trkpt lat="43.6106076" lon="6.8449603"><ele>73.33333333333333</ele><time>2026-04-12T06:28:15.879Z</time></trkpt><trkpt lat="43.610684" lon="6.8449929"><ele>73.16666666666666</ele><time>2026-04-12T06:28:16.879Z</time></trkpt><trkpt lat="43.6107601" lon="6.8450079"><ele>73.0</ele><time>2026-04-12T06:28:17.879Z</time></trkpt><trkpt lat="43.6108327" lon="6.8449989"><ele>73.0</ele><time>2026-04-12T06:28:18.88Z</time></trkpt><trkpt lat="43.6108905" lon="6.8449504"><ele>73.0</ele><time>2026-04-12T06:28:19.878Z</time></trkpt><trkpt lat="43.6109351" lon="6.8448811"><ele>73.0</ele><time>2026-04-12T06:28:20.879Z</time></trkpt><trkpt lat="43.6109766" lon="6.8448111"><ele>73.0</ele><time>2026-04-12T06:28:21.879Z</time></trkpt><trkpt lat="43.6110542" lon="6.8446967"><ele>73.0</ele><time>2026-04-12T06:28:23.878Z</time></trkpt><trkpt lat="43.6111382" lon="6.8446061"><ele>73.0</ele><time>2026-04-12T06:28:25.879Z</time></trkpt><trkpt lat="43.6112154" lon="6.8445277"><ele>73.0</ele><time>2026-04-12T06:28:27.879Z</time></trkpt><trkpt lat="43.6112888" lon="6.84447"><ele>73.0</ele><time>2026-04-12T06:28:29.879Z</time></trkpt><trkpt lat="43.6113791" lon="6.8444279"><ele>73.0</ele><time>2026-04-12T06:28:31.879Z</time></trkpt><trkpt lat="43.6114799" lon="6.8443945"><ele>73.0</ele><time>2026-04-12T06:28:33.879Z</time></trkpt><trkpt lat="43.6115618" lon="6.8443522"><ele>73.0</ele><time>2026-04-12T06:28:35.88Z</time></trkpt><trkpt lat="43.6116387" lon="6.8443073"><ele>74.0</ele><time>2026-04-12T06:28:37.879Z</time></trkpt><trkpt lat="43.6117098" lon="6.8442699"><ele>75.0</ele><time>2026-04-12T06:28:39.879Z</time></trkpt><trkpt lat="43.6117834" lon="6.8442301"><ele>76.0</ele><time>2026-04-12T06:28:41.879Z</time></trkpt><trkpt lat="43.6118579" lon="6.8441904"><ele>77.0</ele><time>2026-04-12T06:28:43.879Z</time></trkpt><trkpt lat="43.6119353" lon="6.8441622"><ele>78.0</ele><time>2026-04-12T06:28:45.879Z</time></trkpt><trkpt lat="43.6120099" lon="6.8441403"><ele>79.0</ele><time>2026-04-12T06:28:47.879Z</time></trkpt><trkpt lat="43.6120804" lon="6.8440922"><ele>79.00000000000001</ele><time>2026-04-12T06:28:49.879Z</time></trkpt><trkpt lat="43.6121401" lon="6.8440441"><ele>79.0</ele><time>2026-04-12T06:28:51.879Z</time></trkpt><trkpt lat="43.6122067" lon="6.8439952"><ele>79.0</ele><time>2026-04-12T06:28:53.879Z</time></trkpt><trkpt lat="43.612278" lon="6.843962"><ele>79.0</ele><time>2026-04-12T06:28:55.879Z</time></trkpt><trkpt lat="43.6123502" lon="6.8439123"><ele>79.0</ele><time>2026-04-12T06:28:57.88Z</time></trkpt><trkpt lat="43.6124104" lon="6.8438474"><ele>79.00000000000001</ele><time>2026-04-12T06:28:59.879Z</time></trkpt><trkpt lat="43.6124522" lon="6.8437759"><ele>79.0</ele><time>2026-04-12T06:29:01.879Z</time></trkpt><trkpt lat="43.6124794" lon="6.8436759"><ele>79.0</ele><time>2026-04-12T06:29:03.879Z</time></trkpt><trkpt lat="43.6124777" lon="6.843583"><ele>79.0</ele><time>2026-04-12T06:29:05.88Z</time></trkpt><trkpt lat="43.6124547" lon="6.8434931"><ele>79.0</ele><time>2026-04-12T06:29:07.879Z</time></trkpt><trkpt lat="43.6124031" lon="6.843401"><ele>79.0</ele><time>2026-04-12T06:29:09.879Z</time></trkpt><trkpt lat="43.6123396" lon="6.8433487"><ele>79.0</ele><time>2026-04-12T06:29:11.88Z</time></trkpt><trkpt lat="43.6122556" lon="6.8433154"><ele>79.0</ele><time>2026-04-12T06:29:14.88Z</time></trkpt><trkpt lat="43.6121792" lon="6.8432964"><ele>80.0</ele><time>2026-04-12T06:29:17.88Z</time></trkpt><trkpt lat="43.6121109" lon="6.8432743"><ele>81.0</ele><time>2026-04-12T06:29:19.88Z</time></trkpt><trkpt lat="43.6120301" lon="6.8432614"><ele>82.0</ele><time>2026-04-12T06:29:22.88Z</time></trkpt><trkpt lat="43.6119408" lon="6.8432553"><ele>83.0</ele><time>2026-04-12T06:29:25.881Z</time></trkpt><trkpt lat="43.6118567" lon="6.8432293"><ele>84.0</ele><time>2026-04-12T06:29:27.88Z</time></trkpt><trkpt lat="43.6117783" lon="6.8432"><ele>85.0</ele><time>2026-04-12T06:29:29.88Z</time></trkpt><trkpt lat="43.6117071" lon="6.8431344"><ele>87.5</ele><time>2026-04-12T06:29:32.88Z</time></trkpt><trkpt lat="43.6116483" lon="6.8430633"><ele>90.0</ele><time>2026-04-12T06:29:35.88Z</time></trkpt><trkpt lat="43.6116018" lon="6.842972"><ele>92.5</ele><time>2026-04-12T06:29:37.88Z</time></trkpt><trkpt lat="43.6115474" lon="6.8428468"><ele>95.0</ele><time>2026-04-12T06:29:40.88Z</time></trkpt><trkpt lat="43.6115198" lon="6.8427401"><ele>97.50000000000001</ele><time>2026-04-12T06:29:42.88Z</time></trkpt><trkpt lat="43.6115159" lon="6.8426471"><ele>100.0</ele><time>2026-04-12T06:29:44.88Z</time></trkpt><trkpt lat="43.6114818" lon="6.8425596"><ele>100.00000000000001</ele><time>2026-04-12T06:29:46.88Z</time></trkpt><trkpt lat="43.6114528" lon="6.842482"><ele>100.0</ele><time>2026-04-12T06:29:48.881Z</time></trkpt><trkpt lat="43.611437" lon="6.8423587"><ele>100.0</ele><time>2026-04-12T06:29:51.88Z</time></trkpt><trkpt lat="43.6114466" lon="6.8422449"><ele>100.0</ele><time>2026-04-12T06:29:53.88Z</time></trkpt><trkpt lat="43.6114597" lon="6.8421114"><ele>100.00000000000001</ele><time>2026-04-12T06:29:55.88Z</time></trkpt><trkpt lat="43.6114694" lon="6.8420023"><ele>100.0</ele><time>2026-04-12T06:29:57.881Z</time></trkpt><trkpt lat="43.611476" lon="6.8418822"><ele>100.0</ele><time>2026-04-12T06:29:59.881Z</time></trkpt><trkpt lat="43.6114807" lon="6.8417854"><ele>100.0</ele><time>2026-04-12T06:30:01.881Z</time></trkpt><trkpt lat="43.6114921" lon="6.8416449"><ele>100.0</ele><time>2026-04-12T06:30:03.881Z</time></trkpt><trkpt lat="43.6115076" lon="6.8415245"><ele>100.0</ele><time>2026-04-12T06:30:05.881Z</time></trkpt><trkpt lat="43.6115104" lon="6.8413836"><ele>100.0</ele><time>2026-04-12T06:30:07.881Z</time></trkpt><trkpt lat="43.6115156" lon="6.8412526"><ele>100.00000000000001</ele><time>2026-04-12T06:30:09.881Z</time></trkpt><trkpt lat="43.6115179" lon="6.8411468"><ele>100.0</ele><time>2026-04-12T06:30:11.882Z</time></trkpt><trkpt lat="43.6115344" lon="6.8410508"><ele>100.0</ele><time>2026-04-12T06:30:14.881Z</time></trkpt><trkpt lat="43.6115607" lon="6.8409689"><ele>100.0</ele><time>2026-04-12T06:30:16.881Z</time></trkpt><trkpt lat="43.6116282" lon="6.8408862"><ele>100.0</ele><time>2026-04-12T06:30:18.881Z</time></trkpt><trkpt lat="43.6116964" lon="6.8408396"><ele>100.00000000000001</ele><time>2026-04-12T06:30:20.881Z</time></trkpt><trkpt lat="43.6117516" lon="6.8407934"><ele>100.0</ele><time>2026-04-12T06:30:22.881Z</time></trkpt><trkpt lat="43.6118071" lon="6.8407405"><ele>101.66666666666667</ele><time>2026-04-12T06:30:24.881Z</time></trkpt><trkpt lat="43.6118441" lon="6.8406685"><ele>103.33333333333334</ele><time>2026-04-12T06:30:26.881Z</time></trkpt><trkpt lat="43.6118639" lon="6.8405645"><ele>105.0</ele><time>2026-04-12T06:30:28.881Z</time></trkpt><trkpt lat="43.6118753" lon="6.8404373"><ele>106.66666666666666</ele><time>2026-04-12T06:30:30.881Z</time></trkpt><trkpt lat="43.6118875" lon="6.8403161"><ele>108.33333333333333</ele><time>2026-04-12T06:30:32.882Z</time></trkpt><trkpt lat="43.6119314" lon="6.8402219"><ele>110.0</ele><time>2026-04-12T06:30:34.882Z</time></trkpt><trkpt lat="43.6120206" lon="6.8401981"><ele>108.71428571428571</ele><time>2026-04-12T06:30:36.882Z</time></trkpt><trkpt lat="43.6120908" lon="6.8402195"><ele>107.42857142857143</ele><time>2026-04-12T06:30:38.882Z</time></trkpt><trkpt lat="43.6121518" lon="6.8402538"><ele>106.14285714285714</ele><time>2026-04-12T06:30:40.882Z</time></trkpt><trkpt lat="43.6122249" lon="6.8402638"><ele>104.85714285714286</ele><time>2026-04-12T06:30:42.882Z</time></trkpt><trkpt lat="43.6123004" lon="6.840228"><ele>103.57142857142857</ele><time>2026-04-12T06:30:44.882Z</time></trkpt><trkpt lat="43.6123482" lon="6.8401517"><ele>102.28571428571428</ele><time>2026-04-12T06:30:46.882Z</time></trkpt><trkpt lat="43.6123553" lon="6.8400578"><ele>101.0</ele><time>2026-04-12T06:30:48.882Z</time></trkpt><trkpt lat="43.6123522" lon="6.8399689"><ele>100.99999999999999</ele><time>2026-04-12T06:30:50.883Z</time></trkpt><trkpt lat="43.612355" lon="6.8398782"><ele>101.0</ele><time>2026-04-12T06:30:52.883Z</time></trkpt><trkpt lat="43.6123681" lon="6.8397689"><ele>101.0</ele><time>2026-04-12T06:30:55.882Z</time></trkpt><trkpt lat="43.6123705" lon="6.8396363"><ele>101.0</ele><time>2026-04-12T06:30:58.882Z</time></trkpt><trkpt lat="43.6123873" lon="6.8395495"><ele>100.99999999999999</ele><time>2026-04-12T06:31:00.882Z</time></trkpt><trkpt lat="43.6124213" lon="6.8394494"><ele>101.0</ele><time>2026-04-12T06:31:02.882Z</time></trkpt><trkpt lat="43.6124588" lon="6.8393658"><ele>103.49999999999999</ele><time>2026-04-12T06:31:04.882Z</time></trkpt><trkpt lat="43.6124925" lon="6.8392754"><ele>106.0</ele><time>2026-04-12T06:31:06.882Z</time></trkpt><trkpt lat="43.6125041" lon="6.8391758"><ele>108.5</ele><time>2026-04-12T06:31:08.882Z</time></trkpt><trkpt lat="43.6125004" lon="6.8390487"><ele>111.0</ele><time>2026-04-12T06:31:11.882Z</time></trkpt><trkpt lat="43.6124737" lon="6.8389379"><ele>113.49999999999999</ele><time>2026-04-12T06:31:14.882Z</time></trkpt><trkpt lat="43.6124512" lon="6.8388566"><ele>116.0</ele><time>2026-04-12T06:31:17.882Z</time></trkpt><trkpt lat="43.6124212" lon="6.8387485"><ele>115.99999999999999</ele><time>2026-04-12T06:31:20.882Z</time></trkpt><trkpt lat="43.6124161" lon="6.8386231"><ele>116.0</ele><time>2026-04-12T06:31:23.882Z</time></trkpt><trkpt lat="43.6124532" lon="6.8385189"><ele>116.0</ele><time>2026-04-12T06:31:25.882Z</time></trkpt><trkpt lat="43.6125331" lon="6.8384505"><ele>116.0</ele><time>2026-04-12T06:31:28.883Z</time></trkpt><trkpt lat="43.6126221" lon="6.8384209"><ele>115.99999999999999</ele><time>2026-04-12T06:31:31.883Z</time></trkpt><trkpt lat="43.6126929" lon="6.8384295"><ele>116.0</ele><time>2026-04-12T06:31:33.883Z</time></trkpt><trkpt lat="43.6127659" lon="6.8384312"><ele>114.16666666666666</ele><time>2026-04-12T06:31:35.883Z</time></trkpt><trkpt lat="43.6128261" lon="6.8383998"><ele>112.33333333333333</ele><time>2026-04-12T06:31:37.883Z</time></trkpt><trkpt lat="43.6128877" lon="6.8383793"><ele>110.5</ele><time>2026-04-12T06:31:39.884Z</time></trkpt><trkpt lat="43.612979" lon="6.8383002"><ele>108.66666666666666</ele><time>2026-04-12T06:31:42.884Z</time></trkpt><trkpt lat="43.61303" lon="6.8382463"><ele>106.83333333333333</ele><time>2026-04-12T06:31:44.883Z</time></trkpt><trkpt lat="43.613089" lon="6.8381479"><ele>105.0</ele><time>2026-04-12T06:31:46.883Z</time></trkpt><trkpt lat="43.6131391" lon="6.8380717"><ele>105.0</ele><time>2026-04-12T06:31:48.883Z</time></trkpt><trkpt lat="43.6131894" lon="6.8380005"><ele>105.0</ele><time>2026-04-12T06:31:50.883Z</time></trkpt><trkpt lat="43.6132315" lon="6.8379321"><ele>105.0</ele><time>2026-04-12T06:31:52.883Z</time></trkpt><trkpt lat="43.6132898" lon="6.837835"><ele>105.0</ele><time>2026-04-12T06:31:55.883Z</time></trkpt><trkpt lat="43.6133329" lon="6.8377563"><ele>105.0</ele><time>2026-04-12T06:31:57.884Z</time></trkpt><trkpt lat="43.6133678" lon="6.8376739"><ele>105.0</ele><time>2026-04-12T06:31:59.883Z</time></trkpt><trkpt lat="43.6133949" lon="6.8375706"><ele>105.0</ele><time>2026-04-12T06:32:02.883Z</time></trkpt><trkpt lat="43.6134206" lon="6.8374891"><ele>103.71428571428571</ele><time>2026-04-12T06:32:05.884Z</time></trkpt><trkpt lat="43.6134633" lon="6.8373796"><ele>102.42857142857143</ele><time>2026-04-12T06:32:08.883Z</time></trkpt><trkpt lat="43.6135" lon="6.8373037"><ele>101.14285714285714</ele><time>2026-04-12T06:32:10.883Z</time></trkpt><trkpt lat="43.6135385" lon="6.8372195"><ele>99.85714285714286</ele><time>2026-04-12T06:32:12.884Z</time></trkpt><trkpt lat="43.6135699" lon="6.8371364"><ele>98.57142857142857</ele><time>2026-04-12T06:32:14.884Z</time></trkpt><trkpt lat="43.6136051" lon="6.8370586"><ele>97.28571428571428</ele><time>2026-04-12T06:32:16.884Z</time></trkpt><trkpt lat="43.6136439" lon="6.8369857"><ele>96.0</ele><time>2026-04-12T06:32:18.884Z</time></trkpt><trkpt lat="43.6136883" lon="6.8368891"><ele>99.5</ele><time>2026-04-12T06:32:21.884Z</time></trkpt><trkpt lat="43.6137401" lon="6.8367982"><ele>103.0</ele><time>2026-04-12T06:32:24.884Z</time></trkpt><trkpt lat="43.6137967" lon="6.8367232"><ele>106.5</ele><time>2026-04-12T06:32:27.884Z</time></trkpt><trkpt lat="43.6138452" lon="6.8366117"><ele>110.0</ele><time>2026-04-12T06:32:30.884Z</time></trkpt><trkpt lat="43.6138769" lon="6.8365242"><ele>113.5</ele><time>2026-04-12T06:32:32.884Z</time></trkpt><trkpt lat="43.6139328" lon="6.8364337"><ele>117.0</ele><time>2026-04-12T06:32:35.884Z</time></trkpt><trkpt lat="43.6139799" lon="6.8363513"><ele>117.0</ele><time>2026-04-12T06:32:37.884Z</time></trkpt><trkpt lat="43.6140131" lon="6.8362717"><ele>117.0</ele><time>2026-04-12T06:32:39.884Z</time></trkpt><trkpt lat="43.6140522" lon="6.8361586"><ele>117.0</ele><time>2026-04-12T06:32:42.884Z</time></trkpt><trkpt lat="43.6140636" lon="6.8360433"><ele>117.0</ele><time>2026-04-12T06:32:45.884Z</time></trkpt><trkpt lat="43.614046" lon="6.8359216"><ele>117.0</ele><time>2026-04-12T06:32:48.884Z</time></trkpt><trkpt lat="43.6140285" lon="6.8357943"><ele>117.0</ele><time>2026-04-12T06:32:51.884Z</time></trkpt><trkpt lat="43.6139963" lon="6.8356879"><ele>117.5</ele><time>2026-04-12T06:32:54.884Z</time></trkpt><trkpt lat="43.6139686" lon="6.8355902"><ele>118.0</ele><time>2026-04-12T06:32:57.885Z</time></trkpt><trkpt lat="43.6139339" lon="6.8354722"><ele>118.5</ele><time>2026-04-12T06:33:00.885Z</time></trkpt><trkpt lat="43.6139128" lon="6.8353819"><ele>119.0</ele><time>2026-04-12T06:33:02.885Z</time></trkpt><trkpt lat="43.6138656" lon="6.8352677"><ele>119.5</ele><time>2026-04-12T06:33:05.885Z</time></trkpt><trkpt lat="43.6138359" lon="6.8351761"><ele>120.0</ele><time>2026-04-12T06:33:07.885Z</time></trkpt><trkpt lat="43.6137979" lon="6.8350602"><ele>120.0</ele><time>2026-04-12T06:33:10.885Z</time></trkpt><trkpt lat="43.6137608" lon="6.8349484"><ele>120.0</ele><time>2026-04-12T06:33:13.885Z</time></trkpt><trkpt lat="43.6137312" lon="6.8348645"><ele>120.0</ele><time>2026-04-12T06:33:15.886Z</time></trkpt><trkpt lat="43.6136921" lon="6.8347671"><ele>120.0</ele><time>2026-04-12T06:33:17.885Z</time></trkpt><trkpt lat="43.6136691" lon="6.8346349"><ele>120.0</ele><time>2026-04-12T06:33:19.885Z</time></trkpt><trkpt lat="43.6136436" lon="6.8345171"><ele>120.0</ele><time>2026-04-12T06:33:21.885Z</time></trkpt><trkpt lat="43.6135977" lon="6.8344398"><ele>124.28571428571429</ele><time>2026-04-12T06:33:23.885Z</time></trkpt><trkpt lat="43.613565" lon="6.8343472"><ele>128.57142857142856</ele><time>2026-04-12T06:33:25.886Z</time></trkpt><trkpt lat="43.6135345" lon="6.8342396"><ele>132.85714285714283</ele><time>2026-04-12T06:33:27.885Z</time></trkpt><trkpt lat="43.6135073" lon="6.8341571"><ele>137.14285714285714</ele><time>2026-04-12T06:33:29.886Z</time></trkpt><trkpt lat="43.6134815" lon="6.834072"><ele>141.42857142857142</ele><time>2026-04-12T06:33:31.886Z</time></trkpt><trkpt lat="43.6134602" lon="6.8339742"><ele>145.7142857142857</ele><time>2026-04-12T06:33:33.886Z</time></trkpt><trkpt lat="43.613431" lon="6.8338874"><ele>150.0</ele><time>2026-04-12T06:33:35.885Z</time></trkpt><trkpt lat="43.6133879" lon="6.8338103"><ele>150.0</ele><time>2026-04-12T06:33:37.886Z</time></trkpt><trkpt lat="43.6133355" lon="6.8337427"><ele>150.0</ele><time>2026-04-12T06:33:39.885Z</time></trkpt><trkpt lat="43.6132677" lon="6.8336679"><ele>150.0</ele><time>2026-04-12T06:33:41.885Z</time></trkpt><trkpt lat="43.6131872" lon="6.8336048"><ele>150.0</ele><time>2026-04-12T06:33:44.886Z</time></trkpt><trkpt lat="43.6131337" lon="6.8335565"><ele>150.0</ele><time>2026-04-12T06:33:46.886Z</time></trkpt><trkpt lat="43.6130756" lon="6.8334892"><ele>150.0</ele><time>2026-04-12T06:33:48.886Z</time></trkpt><trkpt lat="43.6130217" lon="6.8334051"><ele>147.5</ele><time>2026-04-12T06:33:50.886Z</time></trkpt><trkpt lat="43.6129865" lon="6.8333272"><ele>145.0</ele><time>2026-04-12T06:33:52.886Z</time></trkpt><trkpt lat="43.6129257" lon="6.8332307"><ele>142.5</ele><time>2026-04-12T06:33:55.887Z</time></trkpt><trkpt lat="43.6128697" lon="6.8331531"><ele>140.0</ele><time>2026-04-12T06:33:57.886Z</time></trkpt><trkpt lat="43.6127971" lon="6.8330695"><ele>137.5</ele><time>2026-04-12T06:34:00.886Z</time></trkpt><trkpt lat="43.6127307" lon="6.8329738"><ele>135.0</ele><time>2026-04-12T06:34:03.886Z</time></trkpt><trkpt lat="43.6126771" lon="6.8329083"><ele>136.71428571428572</ele><time>2026-04-12T06:34:05.886Z</time></trkpt><trkpt lat="43.6126212" lon="6.8328584"><ele>138.42857142857142</ele><time>2026-04-12T06:34:07.886Z</time></trkpt><trkpt lat="43.6125603" lon="6.8328053"><ele>140.14285714285714</ele><time>2026-04-12T06:34:09.886Z</time></trkpt><trkpt lat="43.612506" lon="6.8327408"><ele>141.85714285714286</ele><time>2026-04-12T06:34:11.886Z</time></trkpt><trkpt lat="43.6124512" lon="6.832682"><ele>143.57142857142856</ele><time>2026-04-12T06:34:13.886Z</time></trkpt><trkpt lat="43.6123841" lon="6.8326229"><ele>145.28571428571428</ele><time>2026-04-12T06:34:15.886Z</time></trkpt><trkpt lat="43.6123259" lon="6.8325601"><ele>147.0</ele><time>2026-04-12T06:34:17.886Z</time></trkpt><trkpt lat="43.6122752" lon="6.8324976"><ele>147.0</ele><time>2026-04-12T06:34:19.887Z</time></trkpt><trkpt lat="43.6122217" lon="6.8324427"><ele>147.0</ele><time>2026-04-12T06:34:21.886Z</time></trkpt><trkpt lat="43.612165" lon="6.8323828"><ele>147.0</ele><time>2026-04-12T06:34:23.887Z</time></trkpt><trkpt lat="43.6120909" lon="6.8323085"><ele>147.0</ele><time>2026-04-12T06:34:26.888Z</time></trkpt><trkpt lat="43.6120294" lon="6.8322006"><ele>147.0</ele><time>2026-04-12T06:34:28.887Z</time></trkpt><trkpt lat="43.611967" lon="6.8321142"><ele>147.0</ele><time>2026-04-12T06:34:30.887Z</time></trkpt><trkpt lat="43.6119181" lon="6.8320437"><ele>149.0</ele><time>2026-04-12T06:34:32.887Z</time></trkpt><trkpt lat="43.6118565" lon="6.8319829"><ele>151.0</ele><time>2026-04-12T06:34:35.887Z</time></trkpt><trkpt lat="43.6117986" lon="6.8319381"><ele>153.0</ele><time>2026-04-12T06:34:37.887Z</time></trkpt><trkpt lat="43.6117511" lon="6.8318786"><ele>155.0</ele><time>2026-04-12T06:34:39.887Z</time></trkpt><trkpt lat="43.611685" lon="6.8317924"><ele>157.0</ele><time>2026-04-12T06:34:42.887Z</time></trkpt><trkpt lat="43.6116146" lon="6.8317171"><ele>159.0</ele><time>2026-04-12T06:34:45.887Z</time></trkpt><trkpt lat="43.611541" lon="6.8316425"><ele>159.0</ele><time>2026-04-12T06:34:48.887Z</time></trkpt><trkpt lat="43.6114809" lon="6.8315433"><ele>159.0</ele><time>2026-04-12T06:34:51.887Z</time></trkpt><trkpt lat="43.6114278" lon="6.8314606"><ele>159.0</ele><time>2026-04-12T06:34:53.887Z</time></trkpt><trkpt lat="43.6113837" lon="6.8313742"><ele>159.0</ele><time>2026-04-12T06:34:55.888Z</time></trkpt><trkpt lat="43.61134" lon="6.831306"><ele>159.0</ele><time>2026-04-12T06:34:57.888Z</time></trkpt><trkpt lat="43.611293" lon="6.8312385"><ele>159.0</ele><time>2026-04-12T06:34:59.887Z</time></trkpt><trkpt lat="43.6112451" lon="6.8311679"><ele>159.0</ele><time>2026-04-12T06:35:01.888Z</time></trkpt><trkpt lat="43.6112021" lon="6.831103"><ele>159.0</ele><time>2026-04-12T06:35:03.888Z</time></trkpt><trkpt lat="43.6111545" lon="6.8310277"><ele>159.0</ele><time>2026-04-12T06:35:05.887Z</time></trkpt><trkpt lat="43.6111047" lon="6.8309446"><ele>159.0</ele><time>2026-04-12T06:35:07.888Z</time></trkpt><trkpt lat="43.6110574" lon="6.8308758"><ele>159.0</ele><time>2026-04-12T06:35:09.887Z</time></trkpt><trkpt lat="43.6109902" lon="6.8308089"><ele>159.0</ele><time>2026-04-12T06:35:12.888Z</time></trkpt><trkpt lat="43.6109388" lon="6.8307545"><ele>159.0</ele><time>2026-04-12T06:35:14.888Z</time></trkpt><trkpt lat="43.6108707" lon="6.8306924"><ele>160.5</ele><time>2026-04-12T06:35:17.888Z</time></trkpt><trkpt lat="43.6108033" lon="6.8306042"><ele>162.0</ele><time>2026-04-12T06:35:20.888Z</time></trkpt><trkpt lat="43.6107582" lon="6.8305206"><ele>163.5</ele><time>2026-04-12T06:35:22.888Z</time></trkpt><trkpt lat="43.6106793" lon="6.8304625"><ele>165.0</ele><time>2026-04-12T06:35:24.888Z</time></trkpt><trkpt lat="43.6106129" lon="6.8304198"><ele>166.5</ele><time>2026-04-12T06:35:26.888Z</time></trkpt><trkpt lat="43.610552" lon="6.8303805"><ele>168.0</ele><time>2026-04-12T06:35:28.888Z</time></trkpt><trkpt lat="43.6104953" lon="6.8303372"><ele>168.0</ele><time>2026-04-12T06:35:30.888Z</time></trkpt><trkpt lat="43.6104174" lon="6.8302741"><ele>168.0</ele><time>2026-04-12T06:35:33.888Z</time></trkpt><trkpt lat="43.61036" lon="6.8302089"><ele>168.0</ele><time>2026-04-12T06:35:36.889Z</time></trkpt><trkpt lat="43.6102968" lon="6.8301388"><ele>168.0</ele><time>2026-04-12T06:35:39.888Z</time></trkpt><trkpt lat="43.6102399" lon="6.8300593"><ele>168.0</ele><time>2026-04-12T06:35:42.888Z</time></trkpt><trkpt lat="43.6101747" lon="6.8299635"><ele>168.0</ele><time>2026-04-12T06:35:45.888Z</time></trkpt><trkpt lat="43.6101179" lon="6.8298837"><ele>169.83333333333334</ele><time>2026-04-12T06:35:47.888Z</time></trkpt><trkpt lat="43.610049" lon="6.8297794"><ele>171.66666666666666</ele><time>2026-04-12T06:35:50.888Z</time></trkpt><trkpt lat="43.6099936" lon="6.8296879"><ele>173.5</ele><time>2026-04-12T06:35:52.889Z</time></trkpt><trkpt lat="43.6099459" lon="6.829614"><ele>175.33333333333331</ele><time>2026-04-12T06:35:54.888Z</time></trkpt><trkpt lat="43.6098994" lon="6.8295144"><ele>177.16666666666666</ele><time>2026-04-12T06:35:57.889Z</time></trkpt><trkpt lat="43.6098677" lon="6.8294319"><ele>179.0</ele><time>2026-04-12T06:35:59.889Z</time></trkpt><trkpt lat="43.6098507" lon="6.8293317"><ele>177.5</ele><time>2026-04-12T06:36:01.889Z</time></trkpt><trkpt lat="43.6098444" lon="6.8292338"><ele>176.0</ele><time>2026-04-12T06:36:03.889Z</time></trkpt><trkpt lat="43.6098301" lon="6.8291375"><ele>174.5</ele><time>2026-04-12T06:36:05.89Z</time></trkpt><trkpt lat="43.6098104" lon="6.828993"><ele>173.0</ele><time>2026-04-12T06:36:08.889Z</time></trkpt><trkpt lat="43.6097813" lon="6.8288629"><ele>171.5</ele><time>2026-04-12T06:36:10.89Z</time></trkpt><trkpt lat="43.6097384" lon="6.8287617"><ele>170.0</ele><time>2026-04-12T06:36:12.889Z</time></trkpt><trkpt lat="43.6096843" lon="6.8286817"><ele>170.0</ele><time>2026-04-12T06:36:14.889Z</time></trkpt><trkpt lat="43.6096231" lon="6.8286178"><ele>170.0</ele><time>2026-04-12T06:36:16.889Z</time></trkpt><trkpt lat="43.6095644" lon="6.8285613"><ele>170.0</ele><time>2026-04-12T06:36:18.889Z</time></trkpt><trkpt lat="43.6095056" lon="6.828508"><ele>170.0</ele><time>2026-04-12T06:36:20.889Z</time></trkpt><trkpt lat="43.6094444" lon="6.8284601"><ele>170.0</ele><time>2026-04-12T06:36:22.889Z</time></trkpt><trkpt lat="43.6093778" lon="6.8283922"><ele>170.0</ele><time>2026-04-12T06:36:24.89Z</time></trkpt><trkpt lat="43.6093173" lon="6.8283225"><ele>171.83333333333331</ele><time>2026-04-12T06:36:26.89Z</time></trkpt><trkpt lat="43.6092532" lon="6.8282426"><ele>173.66666666666666</ele><time>2026-04-12T06:36:28.89Z</time></trkpt><trkpt lat="43.6092116" lon="6.8281527"><ele>175.5</ele><time>2026-04-12T06:36:30.89Z</time></trkpt><trkpt lat="43.609201" lon="6.8280421"><ele>177.33333333333334</ele><time>2026-04-12T06:36:32.889Z</time></trkpt><trkpt lat="43.6092023" lon="6.8279238"><ele>179.16666666666669</ele><time>2026-04-12T06:36:34.889Z</time></trkpt><trkpt lat="43.6092131" lon="6.8278065"><ele>181.0</ele><time>2026-04-12T06:36:36.89Z</time></trkpt><trkpt lat="43.6092148" lon="6.8276912"><ele>180.33333333333334</ele><time>2026-04-12T06:36:38.89Z</time></trkpt><trkpt lat="43.6092179" lon="6.8275831"><ele>179.66666666666669</ele><time>2026-04-12T06:36:40.89Z</time></trkpt><trkpt lat="43.6092156" lon="6.8274594"><ele>179.0</ele><time>2026-04-12T06:36:42.89Z</time></trkpt><trkpt lat="43.6092" lon="6.8273218"><ele>178.33333333333334</ele><time>2026-04-12T06:36:44.89Z</time></trkpt><trkpt lat="43.6091652" lon="6.8272124"><ele>177.66666666666666</ele><time>2026-04-12T06:36:46.89Z</time></trkpt><trkpt lat="43.6091122" lon="6.8271186"><ele>177.0</ele><time>2026-04-12T06:36:48.89Z</time></trkpt><trkpt lat="43.6090456" lon="6.8270204"><ele>177.0</ele><time>2026-04-12T06:36:50.89Z</time></trkpt><trkpt lat="43.6089776" lon="6.8269276"><ele>177.0</ele><time>2026-04-12T06:36:52.89Z</time></trkpt><trkpt lat="43.60891" lon="6.8268328"><ele>177.0</ele><time>2026-04-12T06:36:54.89Z</time></trkpt><trkpt lat="43.6088432" lon="6.8267319"><ele>177.0</ele><time>2026-04-12T06:36:56.89Z</time></trkpt><trkpt lat="43.6087684" lon="6.8266219"><ele>177.0</ele><time>2026-04-12T06:36:58.89Z</time></trkpt><trkpt lat="43.6086844" lon="6.8265128"><ele>176.16666666666666</ele><time>2026-04-12T06:37:00.891Z</time></trkpt><trkpt lat="43.6086013" lon="6.8264029"><ele>175.33333333333334</ele><time>2026-04-12T06:37:02.891Z</time></trkpt><trkpt lat="43.6085079" lon="6.826289"><ele>174.5</ele><time>2026-04-12T06:37:04.891Z</time></trkpt><trkpt lat="43.6084548" lon="6.8262374"><ele>173.66666666666669</ele><time>2026-04-12T06:37:05.89Z</time></trkpt><trkpt lat="43.6083988" lon="6.8261871"><ele>172.83333333333334</ele><time>2026-04-12T06:37:06.89Z</time></trkpt><trkpt lat="43.6083455" lon="6.8261376"><ele>172.0</ele><time>2026-04-12T06:37:07.891Z</time></trkpt><trkpt lat="43.608297" lon="6.8260796"><ele>172.00000000000003</ele><time>2026-04-12T06:37:08.89Z</time></trkpt><trkpt lat="43.6082474" lon="6.8260128"><ele>172.0</ele><time>2026-04-12T06:37:09.89Z</time></trkpt><trkpt lat="43.6082001" lon="6.8259451"><ele>172.0</ele><time>2026-04-12T06:37:10.89Z</time></trkpt><trkpt lat="43.6081542" lon="6.8258772"><ele>172.0</ele><time>2026-04-12T06:37:11.891Z</time></trkpt><trkpt lat="43.6081063" lon="6.825809"><ele>172.0</ele><time>2026-04-12T06:37:12.891Z</time></trkpt><trkpt lat="43.6080599" lon="6.8257446"><ele>172.00000000000003</ele><time>2026-04-12T06:37:13.89Z</time></trkpt><trkpt lat="43.6080114" lon="6.825681"><ele>172.0</ele><time>2026-04-12T06:37:14.89Z</time></trkpt><trkpt lat="43.6079636" lon="6.8256149"><ele>171.42857142857144</ele><time>2026-04-12T06:37:15.89Z</time></trkpt><trkpt lat="43.6079109" lon="6.8255476"><ele>170.85714285714286</ele><time>2026-04-12T06:37:16.89Z</time></trkpt><trkpt lat="43.6078581" lon="6.8254786"><ele>170.28571428571428</ele><time>2026-04-12T06:37:17.89Z</time></trkpt><trkpt lat="43.6078082" lon="6.8254162"><ele>169.71428571428572</ele><time>2026-04-12T06:37:18.89Z</time></trkpt><trkpt lat="43.6077569" lon="6.8253475"><ele>169.14285714285714</ele><time>2026-04-12T06:37:19.89Z</time></trkpt><trkpt lat="43.607703" lon="6.8252793"><ele>168.57142857142858</ele><time>2026-04-12T06:37:20.891Z</time></trkpt><trkpt lat="43.607648" lon="6.825211"><ele>168.0</ele><time>2026-04-12T06:37:21.89Z</time></trkpt><trkpt lat="43.6075914" lon="6.8251443"><ele>169.71428571428572</ele><time>2026-04-12T06:37:22.891Z</time></trkpt><trkpt lat="43.6075316" lon="6.8250808"><ele>171.42857142857144</ele><time>2026-04-12T06:37:23.89Z</time></trkpt><trkpt lat="43.6074728" lon="6.8250235"><ele>173.14285714285714</ele><time>2026-04-12T06:37:24.89Z</time></trkpt><trkpt lat="43.6074123" lon="6.8249587"><ele>174.85714285714286</ele><time>2026-04-12T06:37:25.89Z</time></trkpt><trkpt lat="43.607353" lon="6.8248992"><ele>176.57142857142858</ele><time>2026-04-12T06:37:26.891Z</time></trkpt><trkpt lat="43.6072952" lon="6.8248339"><ele>178.28571428571428</ele><time>2026-04-12T06:37:27.891Z</time></trkpt><trkpt lat="43.6072378" lon="6.8247655"><ele>180.0</ele><time>2026-04-12T06:37:28.891Z</time></trkpt><trkpt lat="43.607184" lon="6.824696"><ele>180.0</ele><time>2026-04-12T06:37:29.891Z</time></trkpt><trkpt lat="43.6071286" lon="6.8246248"><ele>180.0</ele><time>2026-04-12T06:37:30.891Z</time></trkpt><trkpt lat="43.6070721" lon="6.8245527"><ele>180.0</ele><time>2026-04-12T06:37:31.891Z</time></trkpt><trkpt lat="43.6070192" lon="6.8244727"><ele>180.0</ele><time>2026-04-12T06:37:32.891Z</time></trkpt><trkpt lat="43.6069814" lon="6.8243868"><ele>180.0</ele><time>2026-04-12T06:37:33.891Z</time></trkpt><trkpt lat="43.6069497" lon="6.8242898"><ele>180.0</ele><time>2026-04-12T06:37:34.891Z</time></trkpt><trkpt lat="43.6069161" lon="6.8241892"><ele>178.42857142857142</ele><time>2026-04-12T06:37:35.891Z</time></trkpt><trkpt lat="43.6068873" lon="6.8240929"><ele>176.85714285714286</ele><time>2026-04-12T06:37:36.891Z</time></trkpt><trkpt lat="43.606858" lon="6.8240029"><ele>175.28571428571428</ele><time>2026-04-12T06:37:37.891Z</time></trkpt><trkpt lat="43.6068272" lon="6.8239085"><ele>173.71428571428572</ele><time>2026-04-12T06:37:38.891Z</time></trkpt><trkpt lat="43.6067955" lon="6.8238177"><ele>172.14285714285714</ele><time>2026-04-12T06:37:39.891Z</time></trkpt><trkpt lat="43.6067649" lon="6.8237259"><ele>170.57142857142858</ele><time>2026-04-12T06:37:40.891Z</time></trkpt><trkpt lat="43.6067338" lon="6.8236323"><ele>169.0</ele><time>2026-04-12T06:37:41.891Z</time></trkpt><trkpt lat="43.6067039" lon="6.8235358"><ele>170.57142857142858</ele><time>2026-04-12T06:37:42.891Z</time></trkpt><trkpt lat="43.6066714" lon="6.8234443"><ele>172.14285714285714</ele><time>2026-04-12T06:37:43.891Z</time></trkpt><trkpt lat="43.6066392" lon="6.8233391"><ele>173.71428571428572</ele><time>2026-04-12T06:37:44.891Z</time></trkpt><trkpt lat="43.6066003" lon="6.8232432"><ele>175.28571428571428</ele><time>2026-04-12T06:37:45.891Z</time></trkpt><trkpt lat="43.6065583" lon="6.8231625"><ele>176.85714285714286</ele><time>2026-04-12T06:37:46.891Z</time></trkpt><trkpt lat="43.6065175" lon="6.8230865"><ele>178.42857142857142</ele><time>2026-04-12T06:37:47.891Z</time></trkpt><trkpt lat="43.6064742" lon="6.8230083"><ele>180.0</ele><time>2026-04-12T06:37:48.891Z</time></trkpt><trkpt lat="43.6064255" lon="6.8229216"><ele>180.0</ele><time>2026-04-12T06:37:49.891Z</time></trkpt><trkpt lat="43.6063757" lon="6.8228353"><ele>180.0</ele><time>2026-04-12T06:37:50.892Z</time></trkpt><trkpt lat="43.6063254" lon="6.822758"><ele>180.0</ele><time>2026-04-12T06:37:51.891Z</time></trkpt><trkpt lat="43.6062787" lon="6.8226762"><ele>180.0</ele><time>2026-04-12T06:37:52.891Z</time></trkpt><trkpt lat="43.606231" lon="6.8225944"><ele>180.0</ele><time>2026-04-12T06:37:53.891Z</time></trkpt><trkpt lat="43.606183" lon="6.8225094"><ele>180.0</ele><time>2026-04-12T06:37:54.891Z</time></trkpt><trkpt lat="43.6061359" lon="6.8224297"><ele>177.66666666666666</ele><time>2026-04-12T06:37:55.891Z</time></trkpt><trkpt lat="43.6060898" lon="6.8223483"><ele>175.33333333333334</ele><time>2026-04-12T06:37:56.891Z</time></trkpt><trkpt lat="43.6060426" lon="6.8222667"><ele>173.0</ele><time>2026-04-12T06:37:57.891Z</time></trkpt><trkpt lat="43.6059976" lon="6.822186"><ele>170.66666666666669</ele><time>2026-04-12T06:37:58.891Z</time></trkpt><trkpt lat="43.6059481" lon="6.8220985"><ele>168.33333333333334</ele><time>2026-04-12T06:37:59.891Z</time></trkpt><trkpt lat="43.6058984" lon="6.8220137"><ele>166.0</ele><time>2026-04-12T06:38:00.892Z</time></trkpt><trkpt lat="43.6058484" lon="6.8219307"><ele>166.0</ele><time>2026-04-12T06:38:01.893Z</time></trkpt><trkpt lat="43.6058019" lon="6.8218394"><ele>166.0</ele><time>2026-04-12T06:38:02.892Z</time></trkpt><trkpt lat="43.6057531" lon="6.8217431"><ele>166.0</ele><time>2026-04-12T06:38:03.892Z</time></trkpt><trkpt lat="43.6057034" lon="6.821653"><ele>166.0</ele><time>2026-04-12T06:38:04.891Z</time></trkpt><trkpt lat="43.605658" lon="6.8215662"><ele>166.0</ele><time>2026-04-12T06:38:05.891Z</time></trkpt><trkpt lat="43.6056212" lon="6.8214687"><ele>166.0</ele><time>2026-04-12T06:38:06.891Z</time></trkpt><trkpt lat="43.6055971" lon="6.8213619"><ele>167.83333333333334</ele><time>2026-04-12T06:38:07.892Z</time></trkpt><trkpt lat="43.6055771" lon="6.8212541"><ele>169.66666666666669</ele><time>2026-04-12T06:38:08.892Z</time></trkpt><trkpt lat="43.6055568" lon="6.8211504"><ele>171.5</ele><time>2026-04-12T06:38:09.891Z</time></trkpt><trkpt lat="43.6055295" lon="6.8210465"><ele>173.33333333333334</ele><time>2026-04-12T06:38:10.892Z</time></trkpt><trkpt lat="43.6055009" lon="6.8209442"><ele>175.16666666666666</ele><time>2026-04-12T06:38:11.892Z</time></trkpt><trkpt lat="43.6054741" lon="6.8208445"><ele>177.0</ele><time>2026-04-12T06:38:12.892Z</time></trkpt><trkpt lat="43.6054525" lon="6.8207444"><ele>178.83333333333334</ele><time>2026-04-12T06:38:13.892Z</time></trkpt><trkpt lat="43.6054422" lon="6.8206387"><ele>180.66666666666666</ele><time>2026-04-12T06:38:14.892Z</time></trkpt><trkpt lat="43.6054445" lon="6.8205221"><ele>182.5</ele><time>2026-04-12T06:38:15.892Z</time></trkpt><trkpt lat="43.6054573" lon="6.8204071"><ele>184.33333333333331</ele><time>2026-04-12T06:38:16.892Z</time></trkpt><trkpt lat="43.6054748" lon="6.8202967"><ele>186.16666666666666</ele><time>2026-04-12T06:38:17.892Z</time></trkpt><trkpt lat="43.605494" lon="6.8201852"><ele>188.0</ele><time>2026-04-12T06:38:18.892Z</time></trkpt><trkpt lat="43.6055127" lon="6.8200728"><ele>188.33333333333331</ele><time>2026-04-12T06:38:19.892Z</time></trkpt><trkpt lat="43.605525" lon="6.8199635"><ele>188.66666666666666</ele><time>2026-04-12T06:38:20.892Z</time></trkpt><trkpt lat="43.6055324" lon="6.8198546"><ele>189.0</ele><time>2026-04-12T06:38:21.892Z</time></trkpt><trkpt lat="43.605539" lon="6.8197427"><ele>189.33333333333334</ele><time>2026-04-12T06:38:22.892Z</time></trkpt><trkpt lat="43.6055427" lon="6.8196331"><ele>189.66666666666669</ele><time>2026-04-12T06:38:23.892Z</time></trkpt><trkpt lat="43.605544" lon="6.8195196"><ele>190.0</ele><time>2026-04-12T06:38:24.892Z</time></trkpt><trkpt lat="43.6055451" lon="6.8194049"><ele>189.5</ele><time>2026-04-12T06:38:25.892Z</time></trkpt><trkpt lat="43.6055471" lon="6.8192908"><ele>189.0</ele><time>2026-04-12T06:38:26.893Z</time></trkpt><trkpt lat="43.6055495" lon="6.8191767"><ele>188.5</ele><time>2026-04-12T06:38:27.893Z</time></trkpt><trkpt lat="43.6055513" lon="6.8190625"><ele>188.0</ele><time>2026-04-12T06:38:28.892Z</time></trkpt><trkpt lat="43.6055545" lon="6.8189498"><ele>187.5</ele><time>2026-04-12T06:38:29.892Z</time></trkpt><trkpt lat="43.6055562" lon="6.8188379"><ele>187.0</ele><time>2026-04-12T06:38:30.892Z</time></trkpt><trkpt lat="43.6055594" lon="6.818724"><ele>187.0</ele><time>2026-04-12T06:38:31.892Z</time></trkpt><trkpt lat="43.6055623" lon="6.8186105"><ele>187.0</ele><time>2026-04-12T06:38:32.892Z</time></trkpt><trkpt lat="43.6055713" lon="6.818495"><ele>187.0</ele><time>2026-04-12T06:38:33.892Z</time></trkpt><trkpt lat="43.6055877" lon="6.8183795"><ele>187.0</ele><time>2026-04-12T06:38:34.892Z</time></trkpt><trkpt lat="43.6056081" lon="6.8182659"><ele>187.0</ele><time>2026-04-12T06:38:35.892Z</time></trkpt><trkpt lat="43.6056321" lon="6.818155"><ele>187.0</ele><time>2026-04-12T06:38:36.892Z</time></trkpt><trkpt lat="43.6056553" lon="6.818045"><ele>185.83333333333334</ele><time>2026-04-12T06:38:37.893Z</time></trkpt><trkpt lat="43.6056809" lon="6.8179359"><ele>184.66666666666669</ele><time>2026-04-12T06:38:38.892Z</time></trkpt><trkpt lat="43.6057185" lon="6.817839"><ele>183.5</ele><time>2026-04-12T06:38:39.892Z</time></trkpt><trkpt lat="43.6057705" lon="6.8177529"><ele>182.33333333333334</ele><time>2026-04-12T06:38:40.893Z</time></trkpt><trkpt lat="43.6058305" lon="6.8176691"><ele>181.16666666666666</ele><time>2026-04-12T06:38:41.892Z</time></trkpt><trkpt lat="43.6058963" lon="6.8175938"><ele>180.0</ele><time>2026-04-12T06:38:42.892Z</time></trkpt><trkpt lat="43.6059692" lon="6.817539"><ele>179.33333333333334</ele><time>2026-04-12T06:38:43.893Z</time></trkpt><trkpt lat="43.6060457" lon="6.8175059"><ele>178.66666666666666</ele><time>2026-04-12T06:38:44.892Z</time></trkpt><trkpt lat="43.606125" lon="6.8174829"><ele>178.0</ele><time>2026-04-12T06:38:45.892Z</time></trkpt><trkpt lat="43.6062048" lon="6.8174616"><ele>177.33333333333331</ele><time>2026-04-12T06:38:46.893Z</time></trkpt><trkpt lat="43.6062788" lon="6.8174451"><ele>176.66666666666666</ele><time>2026-04-12T06:38:47.893Z</time></trkpt><trkpt lat="43.6063512" lon="6.8174266"><ele>176.0</ele><time>2026-04-12T06:38:48.892Z</time></trkpt><trkpt lat="43.6064244" lon="6.8174085"><ele>176.0</ele><time>2026-04-12T06:38:49.892Z</time></trkpt><trkpt lat="43.6064979" lon="6.8173911"><ele>176.0</ele><time>2026-04-12T06:38:50.893Z</time></trkpt><trkpt lat="43.6065675" lon="6.8173778"><ele>176.0</ele><time>2026-04-12T06:38:51.892Z</time></trkpt><trkpt lat="43.6066367" lon="6.8173697"><ele>176.0</ele><time>2026-04-12T06:38:52.893Z</time></trkpt><trkpt lat="43.6067041" lon="6.8173829"><ele>176.0</ele><time>2026-04-12T06:38:53.892Z</time></trkpt><trkpt lat="43.6067759" lon="6.8174065"><ele>176.0</ele><time>2026-04-12T06:38:54.893Z</time></trkpt><trkpt lat="43.6068459" lon="6.8174431"><ele>176.0</ele><time>2026-04-12T06:38:55.893Z</time></trkpt><trkpt lat="43.6069189" lon="6.8174775"><ele>176.0</ele><time>2026-04-12T06:38:56.893Z</time></trkpt><trkpt lat="43.6069826" lon="6.8175085"><ele>176.0</ele><time>2026-04-12T06:38:57.893Z</time></trkpt><trkpt lat="43.6070499" lon="6.817531"><ele>176.0</ele><time>2026-04-12T06:38:58.893Z</time></trkpt><trkpt lat="43.6071148" lon="6.817558"><ele>176.0</ele><time>2026-04-12T06:38:59.893Z</time></trkpt><trkpt lat="43.6071795" lon="6.8175919"><ele>176.0</ele><time>2026-04-12T06:39:00.893Z</time></trkpt><trkpt lat="43.6072477" lon="6.8176331"><ele>176.0</ele><time>2026-04-12T06:39:01.893Z</time></trkpt><trkpt lat="43.6073237" lon="6.8176877"><ele>176.0</ele><time>2026-04-12T06:39:02.893Z</time></trkpt><trkpt lat="43.6074068" lon="6.8177425"><ele>177.5</ele><time>2026-04-12T06:39:03.893Z</time></trkpt><trkpt lat="43.6074863" lon="6.8177991"><ele>179.0</ele><time>2026-04-12T06:39:04.893Z</time></trkpt><trkpt lat="43.6075585" lon="6.8178558"><ele>180.5</ele><time>2026-04-12T06:39:05.893Z</time></trkpt><trkpt lat="43.6076245" lon="6.8179013"><ele>182.0</ele><time>2026-04-12T06:39:06.893Z</time></trkpt><trkpt lat="43.6076869" lon="6.817957"><ele>183.5</ele><time>2026-04-12T06:39:07.893Z</time></trkpt><trkpt lat="43.6077452" lon="6.8180134"><ele>185.0</ele><time>2026-04-12T06:39:08.893Z</time></trkpt><trkpt lat="43.6078085" lon="6.8180696"><ele>183.16666666666666</ele><time>2026-04-12T06:39:09.893Z</time></trkpt><trkpt lat="43.6078784" lon="6.8181346"><ele>181.33333333333331</ele><time>2026-04-12T06:39:10.894Z</time></trkpt><trkpt lat="43.6079503" lon="6.8181977"><ele>179.5</ele><time>2026-04-12T06:39:11.894Z</time></trkpt><trkpt lat="43.6080182" lon="6.8182577"><ele>177.66666666666666</ele><time>2026-04-12T06:39:12.893Z</time></trkpt><trkpt lat="43.6080834" lon="6.8183104"><ele>175.83333333333334</ele><time>2026-04-12T06:39:13.893Z</time></trkpt><trkpt lat="43.6081487" lon="6.8183618"><ele>174.0</ele><time>2026-04-12T06:39:14.893Z</time></trkpt><trkpt lat="43.6082158" lon="6.8184133"><ele>174.0</ele><time>2026-04-12T06:39:15.893Z</time></trkpt><trkpt lat="43.6082851" lon="6.8184689"><ele>174.0</ele><time>2026-04-12T06:39:16.893Z</time></trkpt><trkpt lat="43.6083519" lon="6.8185189"><ele>174.0</ele><time>2026-04-12T06:39:17.893Z</time></trkpt><trkpt lat="43.608419" lon="6.8185665"><ele>174.0</ele><time>2026-04-12T06:39:18.893Z</time></trkpt><trkpt lat="43.6084837" lon="6.8186099"><ele>174.0</ele><time>2026-04-12T06:39:19.893Z</time></trkpt><trkpt lat="43.6085492" lon="6.8186563"><ele>174.0</ele><time>2026-04-12T06:39:20.893Z</time></trkpt><trkpt lat="43.6086131" lon="6.8187061"><ele>175.16666666666666</ele><time>2026-04-12T06:39:21.893Z</time></trkpt><trkpt lat="43.6086808" lon="6.8187548"><ele>176.33333333333334</ele><time>2026-04-12T06:39:22.893Z</time></trkpt><trkpt lat="43.608753" lon="6.8188"><ele>177.5</ele><time>2026-04-12T06:39:23.893Z</time></trkpt><trkpt lat="43.6088261" lon="6.8188501"><ele>178.66666666666669</ele><time>2026-04-12T06:39:24.893Z</time></trkpt><trkpt lat="43.6089005" lon="6.8188996"><ele>179.83333333333334</ele><time>2026-04-12T06:39:25.893Z</time></trkpt><trkpt lat="43.6089716" lon="6.8189498"><ele>181.0</ele><time>2026-04-12T06:39:26.894Z</time></trkpt><trkpt lat="43.6090416" lon="6.8189986"><ele>181.0</ele><time>2026-04-12T06:39:27.894Z</time></trkpt><trkpt lat="43.6091108" lon="6.8190521"><ele>181.0</ele><time>2026-04-12T06:39:28.893Z</time></trkpt><trkpt lat="43.6091815" lon="6.819109"><ele>181.0</ele><time>2026-04-12T06:39:29.894Z</time></trkpt><trkpt lat="43.6092499" lon="6.8191648"><ele>181.0</ele><time>2026-04-12T06:39:30.894Z</time></trkpt><trkpt lat="43.6093215" lon="6.8192181"><ele>181.0</ele><time>2026-04-12T06:39:31.893Z</time></trkpt><trkpt lat="43.6093888" lon="6.8192642"><ele>181.0</ele><time>2026-04-12T06:39:32.893Z</time></trkpt><trkpt lat="43.6094588" lon="6.8192961"><ele>181.42857142857142</ele><time>2026-04-12T06:39:33.893Z</time></trkpt><trkpt lat="43.6095369" lon="6.8193174"><ele>181.85714285714283</ele><time>2026-04-12T06:39:34.894Z</time></trkpt><trkpt lat="43.6096106" lon="6.819326"><ele>182.28571428571428</ele><time>2026-04-12T06:39:35.894Z</time></trkpt><trkpt lat="43.6096863" lon="6.8193289"><ele>182.71428571428572</ele><time>2026-04-12T06:39:36.894Z</time></trkpt><trkpt lat="43.609756" lon="6.8193298"><ele>183.14285714285714</ele><time>2026-04-12T06:39:37.894Z</time></trkpt><trkpt lat="43.6098247" lon="6.8193345"><ele>183.57142857142858</ele><time>2026-04-12T06:39:38.894Z</time></trkpt><trkpt lat="43.6098923" lon="6.8193454"><ele>184.0</ele><time>2026-04-12T06:39:39.894Z</time></trkpt><trkpt lat="43.6099622" lon="6.8193645"><ele>184.0</ele><time>2026-04-12T06:39:40.894Z</time></trkpt><trkpt lat="43.6100271" lon="6.819396"><ele>184.0</ele><time>2026-04-12T06:39:41.895Z</time></trkpt><trkpt lat="43.610089" lon="6.8194348"><ele>184.0</ele><time>2026-04-12T06:39:42.894Z</time></trkpt><trkpt lat="43.6101443" lon="6.8194822"><ele>184.0</ele><time>2026-04-12T06:39:43.894Z</time></trkpt><trkpt lat="43.610195" lon="6.8195423"><ele>184.0</ele><time>2026-04-12T06:39:44.894Z</time></trkpt><trkpt lat="43.6102444" lon="6.819605"><ele>184.0</ele><time>2026-04-12T06:39:45.895Z</time></trkpt><trkpt lat="43.610295" lon="6.8196731"><ele>184.0</ele><time>2026-04-12T06:39:46.895Z</time></trkpt><trkpt lat="43.6103484" lon="6.8197442"><ele>184.42857142857144</ele><time>2026-04-12T06:39:47.894Z</time></trkpt><trkpt lat="43.6103999" lon="6.8198116"><ele>184.85714285714283</ele><time>2026-04-12T06:39:48.894Z</time></trkpt><trkpt lat="43.6104536" lon="6.8198822"><ele>185.28571428571428</ele><time>2026-04-12T06:39:49.894Z</time></trkpt><trkpt lat="43.6105096" lon="6.8199536"><ele>185.71428571428572</ele><time>2026-04-12T06:39:50.894Z</time></trkpt><trkpt lat="43.6105639" lon="6.8200218"><ele>186.14285714285717</ele><time>2026-04-12T06:39:51.894Z</time></trkpt><trkpt lat="43.6106178" lon="6.820078"><ele>186.57142857142856</ele><time>2026-04-12T06:39:52.894Z</time></trkpt><trkpt lat="43.6106699" lon="6.8201331"><ele>187.0</ele><time>2026-04-12T06:39:53.894Z</time></trkpt><trkpt lat="43.6107281" lon="6.820192"><ele>187.0</ele><time>2026-04-12T06:39:54.894Z</time></trkpt><trkpt lat="43.6107876" lon="6.8202456"><ele>187.0</ele><time>2026-04-12T06:39:55.894Z</time></trkpt><trkpt lat="43.610846" lon="6.8202868"><ele>187.0</ele><time>2026-04-12T06:39:56.894Z</time></trkpt><trkpt lat="43.6109058" lon="6.8203159"><ele>187.0</ele><time>2026-04-12T06:39:57.894Z</time></trkpt><trkpt lat="43.6109692" lon="6.8203406"><ele>187.0</ele><time>2026-04-12T06:39:58.894Z</time></trkpt><trkpt lat="43.611032" lon="6.8203696"><ele>187.0</ele><time>2026-04-12T06:39:59.894Z</time></trkpt><trkpt lat="43.6110959" lon="6.8203967"><ele>187.0</ele><time>2026-04-12T06:40:00.895Z</time></trkpt><trkpt lat="43.611157" lon="6.8204203"><ele>186.0</ele><time>2026-04-12T06:40:01.894Z</time></trkpt><trkpt lat="43.6112667" lon="6.820459"><ele>185.0</ele><time>2026-04-12T06:40:03.894Z</time></trkpt><trkpt lat="43.6113778" lon="6.8204966"><ele>184.0</ele><time>2026-04-12T06:40:05.894Z</time></trkpt><trkpt lat="43.6114407" lon="6.8205193"><ele>183.0</ele><time>2026-04-12T06:40:06.894Z</time></trkpt><trkpt lat="43.6115512" lon="6.8205205"><ele>182.0</ele><time>2026-04-12T06:40:08.894Z</time></trkpt><trkpt lat="43.6116638" lon="6.8205012"><ele>182.0</ele><time>2026-04-12T06:40:10.894Z</time></trkpt><trkpt lat="43.6117735" lon="6.8204638"><ele>182.0</ele><time>2026-04-12T06:40:12.894Z</time></trkpt><trkpt lat="43.61187" lon="6.8203932"><ele>182.0</ele><time>2026-04-12T06:40:14.894Z</time></trkpt><trkpt lat="43.6119567" lon="6.8203093"><ele>182.0</ele><time>2026-04-12T06:40:16.895Z</time></trkpt><trkpt lat="43.6120326" lon="6.8202232"><ele>182.0</ele><time>2026-04-12T06:40:18.895Z</time></trkpt><trkpt lat="43.6121101" lon="6.8201369"><ele>182.16666666666666</ele><time>2026-04-12T06:40:20.894Z</time></trkpt><trkpt lat="43.6121782" lon="6.8200439"><ele>182.33333333333331</ele><time>2026-04-12T06:40:22.895Z</time></trkpt><trkpt lat="43.6122605" lon="6.8199393"><ele>182.5</ele><time>2026-04-12T06:40:24.895Z</time></trkpt><trkpt lat="43.6123098" lon="6.8198812"><ele>182.66666666666666</ele><time>2026-04-12T06:40:25.895Z</time></trkpt><trkpt lat="43.6123559" lon="6.8198117"><ele>182.83333333333334</ele><time>2026-04-12T06:40:26.895Z</time></trkpt><trkpt lat="43.6123944" lon="6.8197327"><ele>183.0</ele><time>2026-04-12T06:40:27.895Z</time></trkpt><trkpt lat="43.6124234" lon="6.8196361"><ele>183.0</ele><time>2026-04-12T06:40:28.895Z</time></trkpt><trkpt lat="43.6124356" lon="6.8195292"><ele>183.0</ele><time>2026-04-12T06:40:29.896Z</time></trkpt><trkpt lat="43.6124305" lon="6.8194217"><ele>183.0</ele><time>2026-04-12T06:40:30.895Z</time></trkpt><trkpt lat="43.6124102" lon="6.8193185"><ele>183.0</ele><time>2026-04-12T06:40:31.895Z</time></trkpt><trkpt lat="43.6123924" lon="6.8192239"><ele>183.0</ele><time>2026-04-12T06:40:32.895Z</time></trkpt><trkpt lat="43.6123903" lon="6.8191323"><ele>183.0</ele><time>2026-04-12T06:40:33.895Z</time></trkpt><trkpt lat="43.6124106" lon="6.8190466"><ele>183.0</ele><time>2026-04-12T06:40:34.895Z</time></trkpt><trkpt lat="43.6124616" lon="6.8189403"><ele>183.0</ele><time>2026-04-12T06:40:36.895Z</time></trkpt><trkpt lat="43.6124966" lon="6.8188545"><ele>183.0</ele><time>2026-04-12T06:40:38.895Z</time></trkpt><trkpt lat="43.6124692" lon="6.8187185"><ele>183.0</ele><time>2026-04-12T06:40:40.895Z</time></trkpt><trkpt lat="43.6123976" lon="6.8186106"><ele>183.0</ele><time>2026-04-12T06:40:42.896Z</time></trkpt><trkpt lat="43.6123371" lon="6.8184856"><ele>183.0</ele><time>2026-04-12T06:40:44.895Z</time></trkpt><trkpt lat="43.612283" lon="6.8183607"><ele>183.4</ele><time>2026-04-12T06:40:46.895Z</time></trkpt><trkpt lat="43.6122425" lon="6.8182248"><ele>183.8</ele><time>2026-04-12T06:40:48.895Z</time></trkpt><trkpt lat="43.6122144" lon="6.8180915"><ele>184.2</ele><time>2026-04-12T06:40:50.895Z</time></trkpt><trkpt lat="43.6121818" lon="6.8179643"><ele>184.6</ele><time>2026-04-12T06:40:52.895Z</time></trkpt><trkpt lat="43.6121511" lon="6.8178436"><ele>185.0</ele><time>2026-04-12T06:40:54.895Z</time></trkpt><trkpt lat="43.6121301" lon="6.8177172"><ele>185.33333333333331</ele><time>2026-04-12T06:40:56.895Z</time></trkpt><trkpt lat="43.6121081" lon="6.8175956"><ele>185.66666666666666</ele><time>2026-04-12T06:40:58.896Z</time></trkpt><trkpt lat="43.6120895" lon="6.8174791"><ele>186.0</ele><time>2026-04-12T06:41:00.895Z</time></trkpt><trkpt lat="43.6120714" lon="6.8173654"><ele>186.33333333333334</ele><time>2026-04-12T06:41:02.896Z</time></trkpt><trkpt lat="43.6120485" lon="6.8172633"><ele>186.66666666666669</ele><time>2026-04-12T06:41:04.895Z</time></trkpt><trkpt lat="43.6120299" lon="6.81717"><ele>187.0</ele><time>2026-04-12T06:41:06.895Z</time></trkpt><trkpt lat="43.6120162" lon="6.8170659"><ele>187.0</ele><time>2026-04-12T06:41:08.896Z</time></trkpt><trkpt lat="43.6119989" lon="6.8169735"><ele>187.0</ele><time>2026-04-12T06:41:10.896Z</time></trkpt><trkpt lat="43.6119824" lon="6.8168732"><ele>187.0</ele><time>2026-04-12T06:41:12.896Z</time></trkpt><trkpt lat="43.6119707" lon="6.8167584"><ele>187.0</ele><time>2026-04-12T06:41:14.897Z</time></trkpt><trkpt lat="43.6119577" lon="6.8166494"><ele>187.0</ele><time>2026-04-12T06:41:16.896Z</time></trkpt><trkpt lat="43.6119447" lon="6.8165437"><ele>187.0</ele><time>2026-04-12T06:41:18.896Z</time></trkpt><trkpt lat="43.6119297" lon="6.8164491"><ele>187.83333333333334</ele><time>2026-04-12T06:41:20.896Z</time></trkpt><trkpt lat="43.6119037" lon="6.8163529"><ele>188.66666666666669</ele><time>2026-04-12T06:41:22.896Z</time></trkpt><trkpt lat="43.6118756" lon="6.816266"><ele>189.5</ele><time>2026-04-12T06:41:24.896Z</time></trkpt><trkpt lat="43.6118439" lon="6.8161691"><ele>190.33333333333334</ele><time>2026-04-12T06:41:26.896Z</time></trkpt><trkpt lat="43.6118011" lon="6.8160619"><ele>191.16666666666666</ele><time>2026-04-12T06:41:28.896Z</time></trkpt><trkpt lat="43.6117608" lon="6.8159529"><ele>192.0</ele><time>2026-04-12T06:41:30.896Z</time></trkpt><trkpt lat="43.6117205" lon="6.8158493"><ele>192.5</ele><time>2026-04-12T06:41:32.897Z</time></trkpt><trkpt lat="43.61167" lon="6.8157478"><ele>193.0</ele><time>2026-04-12T06:41:34.896Z</time></trkpt><trkpt lat="43.611614" lon="6.8156548"><ele>193.5</ele><time>2026-04-12T06:41:36.897Z</time></trkpt><trkpt lat="43.6115562" lon="6.8155635"><ele>194.0</ele><time>2026-04-12T06:41:38.897Z</time></trkpt><trkpt lat="43.6114964" lon="6.8154727"><ele>194.5</ele><time>2026-04-12T06:41:40.897Z</time></trkpt><trkpt lat="43.6114316" lon="6.8153808"><ele>195.0</ele><time>2026-04-12T06:41:42.896Z</time></trkpt><trkpt lat="43.6113596" lon="6.8152955"><ele>195.0</ele><time>2026-04-12T06:41:44.897Z</time></trkpt><trkpt lat="43.6112879" lon="6.8152157"><ele>195.0</ele><time>2026-04-12T06:41:46.896Z</time></trkpt><trkpt lat="43.6112154" lon="6.8151301"><ele>195.0</ele><time>2026-04-12T06:41:48.896Z</time></trkpt><trkpt lat="43.6111393" lon="6.8150385"><ele>195.0</ele><time>2026-04-12T06:41:50.896Z</time></trkpt><trkpt lat="43.6110627" lon="6.814955"><ele>195.0</ele><time>2026-04-12T06:41:52.896Z</time></trkpt><trkpt lat="43.6109875" lon="6.8148754"><ele>195.0</ele><time>2026-04-12T06:41:54.897Z</time></trkpt><trkpt lat="43.6109128" lon="6.8148059"><ele>195.0</ele><time>2026-04-12T06:41:56.897Z</time></trkpt><trkpt lat="43.6108383" lon="6.8147372"><ele>195.0</ele><time>2026-04-12T06:41:58.897Z</time></trkpt><trkpt lat="43.610759" lon="6.8146646"><ele>195.0</ele><time>2026-04-12T06:42:00.897Z</time></trkpt><trkpt lat="43.6106881" lon="6.8146076"><ele>195.0</ele><time>2026-04-12T06:42:02.897Z</time></trkpt><trkpt lat="43.610617" lon="6.8145542"><ele>195.0</ele><time>2026-04-12T06:42:04.897Z</time></trkpt><trkpt lat="43.6105466" lon="6.8144932"><ele>195.0</ele><time>2026-04-12T06:42:06.898Z</time></trkpt><trkpt lat="43.610478" lon="6.8144287"><ele>195.0</ele><time>2026-04-12T06:42:08.897Z</time></trkpt><trkpt lat="43.6104129" lon="6.814364"><ele>195.0</ele><time>2026-04-12T06:42:10.897Z</time></trkpt><trkpt lat="43.6103515" lon="6.8143068"><ele>195.0</ele><time>2026-04-12T06:42:12.897Z</time></trkpt><trkpt lat="43.6102875" lon="6.8142572"><ele>195.0</ele><time>2026-04-12T06:42:14.897Z</time></trkpt><trkpt lat="43.6102255" lon="6.8141975"><ele>195.0</ele><time>2026-04-12T06:42:16.897Z</time></trkpt><trkpt lat="43.6101696" lon="6.8141553"><ele>196.28571428571428</ele><time>2026-04-12T06:42:18.897Z</time></trkpt><trkpt lat="43.6101178" lon="6.8141009"><ele>197.57142857142856</ele><time>2026-04-12T06:42:20.897Z</time></trkpt><trkpt lat="43.6100678" lon="6.8140463"><ele>198.85714285714286</ele><time>2026-04-12T06:42:22.897Z</time></trkpt><trkpt lat="43.6100067" lon="6.8139931"><ele>200.14285714285714</ele><time>2026-04-12T06:42:24.897Z</time></trkpt><trkpt lat="43.6099502" lon="6.8139411"><ele>201.42857142857144</ele><time>2026-04-12T06:42:26.898Z</time></trkpt><trkpt lat="43.6098915" lon="6.8138876"><ele>202.71428571428572</ele><time>2026-04-12T06:42:28.897Z</time></trkpt><trkpt lat="43.6098373" lon="6.8138158"><ele>204.0</ele><time>2026-04-12T06:42:30.898Z</time></trkpt><trkpt lat="43.6097832" lon="6.8137599"><ele>204.0</ele><time>2026-04-12T06:42:32.898Z</time></trkpt><trkpt lat="43.6096992" lon="6.8136849"><ele>204.0</ele><time>2026-04-12T06:42:35.898Z</time></trkpt><trkpt lat="43.6096529" lon="6.8136168"><ele>204.0</ele><time>2026-04-12T06:42:37.897Z</time></trkpt><trkpt lat="43.6095962" lon="6.8135409"><ele>204.0</ele><time>2026-04-12T06:42:39.898Z</time></trkpt><trkpt lat="43.609545" lon="6.8134602"><ele>204.0</ele><time>2026-04-12T06:42:41.899Z</time></trkpt><trkpt lat="43.6094967" lon="6.8133845"><ele>204.0</ele><time>2026-04-12T06:42:43.898Z</time></trkpt><trkpt lat="43.6094459" lon="6.813315"><ele>204.14285714285714</ele><time>2026-04-12T06:42:45.898Z</time></trkpt><trkpt lat="43.6093934" lon="6.8132395"><ele>204.28571428571428</ele><time>2026-04-12T06:42:47.898Z</time></trkpt><trkpt lat="43.6093507" lon="6.8131656"><ele>204.42857142857144</ele><time>2026-04-12T06:42:49.898Z</time></trkpt><trkpt lat="43.6093122" lon="6.8130915"><ele>204.57142857142856</ele><time>2026-04-12T06:42:51.898Z</time></trkpt><trkpt lat="43.6092699" lon="6.8130249"><ele>204.7142857142857</ele><time>2026-04-12T06:42:53.899Z</time></trkpt><trkpt lat="43.6092247" lon="6.8129491"><ele>204.85714285714286</ele><time>2026-04-12T06:42:55.898Z</time></trkpt><trkpt lat="43.6091896" lon="6.812872"><ele>205.0</ele><time>2026-04-12T06:42:57.898Z</time></trkpt><trkpt lat="43.6091721" lon="6.8127822"><ele>205.0</ele><time>2026-04-12T06:42:59.898Z</time></trkpt><trkpt lat="43.6091547" lon="6.8126876"><ele>205.0</ele><time>2026-04-12T06:43:01.898Z</time></trkpt><trkpt lat="43.6091449" lon="6.8125939"><ele>205.0</ele><time>2026-04-12T06:43:03.898Z</time></trkpt><trkpt lat="43.6091474" lon="6.8124816"><ele>205.0</ele><time>2026-04-12T06:43:05.898Z</time></trkpt><trkpt lat="43.609152" lon="6.8123831"><ele>205.0</ele><time>2026-04-12T06:43:07.898Z</time></trkpt><trkpt lat="43.6091615" lon="6.8122807"><ele>205.0</ele><time>2026-04-12T06:43:09.898Z</time></trkpt><trkpt lat="43.609178" lon="6.8121774"><ele>205.0</ele><time>2026-04-12T06:43:11.898Z</time></trkpt><trkpt lat="43.6091908" lon="6.8120754"><ele>206.49999999999997</ele><time>2026-04-12T06:43:13.9Z</time></trkpt><trkpt lat="43.6092053" lon="6.8119777"><ele>208.0</ele><time>2026-04-12T06:43:15.899Z</time></trkpt><trkpt lat="43.6092168" lon="6.8118882"><ele>209.5</ele><time>2026-04-12T06:43:17.899Z</time></trkpt><trkpt lat="43.6092272" lon="6.8117803"><ele>211.0</ele><time>2026-04-12T06:43:19.898Z</time></trkpt><trkpt lat="43.6092288" lon="6.8116676"><ele>212.49999999999997</ele><time>2026-04-12T06:43:21.899Z</time></trkpt><trkpt lat="43.6092266" lon="6.8115584"><ele>214.0</ele><time>2026-04-12T06:43:23.899Z</time></trkpt><trkpt lat="43.6092174" lon="6.8114393"><ele>214.33333333333331</ele><time>2026-04-12T06:43:25.899Z</time></trkpt><trkpt lat="43.6092002" lon="6.8113193"><ele>214.66666666666666</ele><time>2026-04-12T06:43:27.9Z</time></trkpt><trkpt lat="43.609179" lon="6.8112194"><ele>215.0</ele><time>2026-04-12T06:43:29.899Z</time></trkpt><trkpt lat="43.6091498" lon="6.8111304"><ele>215.33333333333331</ele><time>2026-04-12T06:43:31.899Z</time></trkpt><trkpt lat="43.6091205" lon="6.8110355"><ele>215.66666666666666</ele><time>2026-04-12T06:43:33.899Z</time></trkpt><trkpt lat="43.6090908" lon="6.8109455"><ele>216.0</ele><time>2026-04-12T06:43:35.899Z</time></trkpt><trkpt lat="43.609059" lon="6.8108533"><ele>217.5</ele><time>2026-04-12T06:43:37.899Z</time></trkpt><trkpt lat="43.6090283" lon="6.8107638"><ele>219.0</ele><time>2026-04-12T06:43:39.899Z</time></trkpt><trkpt lat="43.6089944" lon="6.8106838"><ele>220.5</ele><time>2026-04-12T06:43:41.899Z</time></trkpt><trkpt lat="43.6089448" lon="6.8106251"><ele>222.0</ele><time>2026-04-12T06:43:43.899Z</time></trkpt><trkpt lat="43.6088806" lon="6.8105344"><ele>223.5</ele><time>2026-04-12T06:43:46.899Z</time></trkpt><trkpt lat="43.6088116" lon="6.8104548"><ele>225.0</ele><time>2026-04-12T06:43:49.899Z</time></trkpt><trkpt lat="43.6087471" lon="6.8103824"><ele>225.00000000000003</ele><time>2026-04-12T06:43:52.899Z</time></trkpt><trkpt lat="43.6086895" lon="6.8103316"><ele>225.0</ele><time>2026-04-12T06:43:54.899Z</time></trkpt><trkpt lat="43.6086287" lon="6.8102873"><ele>225.00000000000003</ele><time>2026-04-12T06:43:56.899Z</time></trkpt><trkpt lat="43.6085642" lon="6.8102332"><ele>225.00000000000003</ele><time>2026-04-12T06:43:58.9Z</time></trkpt><trkpt lat="43.6084973" lon="6.8101938"><ele>225.0</ele><time>2026-04-12T06:44:00.901Z</time></trkpt><trkpt lat="43.608423" lon="6.8101653"><ele>225.00000000000003</ele><time>2026-04-12T06:44:02.899Z</time></trkpt><trkpt lat="43.6083405" lon="6.8101413"><ele>225.00000000000003</ele><time>2026-04-12T06:44:04.9Z</time></trkpt><trkpt lat="43.6082704" lon="6.8101107"><ele>224.8571428571429</ele><time>2026-04-12T06:44:06.9Z</time></trkpt><trkpt lat="43.6082038" lon="6.8100748"><ele>224.71428571428572</ele><time>2026-04-12T06:44:08.9Z</time></trkpt><trkpt lat="43.608131" lon="6.8100378"><ele>224.57142857142858</ele><time>2026-04-12T06:44:10.9Z</time></trkpt><trkpt lat="43.608056" lon="6.809995"><ele>224.42857142857144</ele><time>2026-04-12T06:44:12.9Z</time></trkpt><trkpt lat="43.6079953" lon="6.8099639"><ele>224.28571428571428</ele><time>2026-04-12T06:44:14.9Z</time></trkpt><trkpt lat="43.6079289" lon="6.809929"><ele>224.14285714285714</ele><time>2026-04-12T06:44:16.9Z</time></trkpt><trkpt lat="43.6078576" lon="6.809894"><ele>224.0</ele><time>2026-04-12T06:44:18.9Z</time></trkpt><trkpt lat="43.6077813" lon="6.8098591"><ele>224.00000000000003</ele><time>2026-04-12T06:44:20.9Z</time></trkpt><trkpt lat="43.6076981" lon="6.8098311"><ele>224.0</ele><time>2026-04-12T06:44:22.9Z</time></trkpt><trkpt lat="43.6076212" lon="6.8098029"><ele>224.0</ele><time>2026-04-12T06:44:24.9Z</time></trkpt><trkpt lat="43.6075387" lon="6.8097654"><ele>224.0</ele><time>2026-04-12T06:44:26.9Z</time></trkpt><trkpt lat="43.607456" lon="6.8097208"><ele>224.00000000000003</ele><time>2026-04-12T06:44:28.9Z</time></trkpt><trkpt lat="43.6073858" lon="6.8096778"><ele>224.0</ele><time>2026-04-12T06:44:30.901Z</time></trkpt><trkpt lat="43.6073161" lon="6.8096324"><ele>224.00000000000003</ele><time>2026-04-12T06:44:32.9Z</time></trkpt><trkpt lat="43.6072436" lon="6.8095866"><ele>224.0</ele><time>2026-04-12T06:44:34.9Z</time></trkpt><trkpt lat="43.6071771" lon="6.8095392"><ele>224.0</ele><time>2026-04-12T06:44:36.9Z</time></trkpt><trkpt lat="43.6071106" lon="6.8094916"><ele>224.0</ele><time>2026-04-12T06:44:38.9Z</time></trkpt><trkpt lat="43.6070432" lon="6.8094397"><ele>224.00000000000003</ele><time>2026-04-12T06:44:40.9Z</time></trkpt><trkpt lat="43.6069714" lon="6.8093768"><ele>224.0</ele><time>2026-04-12T06:44:42.901Z</time></trkpt><trkpt lat="43.6068958" lon="6.8093217"><ele>225.83333333333334</ele><time>2026-04-12T06:44:44.9Z</time></trkpt><trkpt lat="43.6068222" lon="6.8092597"><ele>227.66666666666669</ele><time>2026-04-12T06:44:46.9Z</time></trkpt><trkpt lat="43.6067469" lon="6.809198"><ele>229.5</ele><time>2026-04-12T06:44:48.901Z</time></trkpt><trkpt lat="43.6066727" lon="6.8091355"><ele>231.33333333333331</ele><time>2026-04-12T06:44:50.9Z</time></trkpt><trkpt lat="43.606594" lon="6.809085"><ele>233.16666666666666</ele><time>2026-04-12T06:44:52.9Z</time></trkpt><trkpt lat="43.6065209" lon="6.8090075"><ele>235.0</ele><time>2026-04-12T06:44:54.901Z</time></trkpt><trkpt lat="43.606455" lon="6.8089306"><ele>234.99999999999997</ele><time>2026-04-12T06:44:56.901Z</time></trkpt><trkpt lat="43.6063964" lon="6.8088472"><ele>235.0</ele><time>2026-04-12T06:44:58.901Z</time></trkpt><trkpt lat="43.6063409" lon="6.8087599"><ele>235.0</ele><time>2026-04-12T06:45:00.901Z</time></trkpt><trkpt lat="43.6062825" lon="6.8086712"><ele>235.0</ele><time>2026-04-12T06:45:02.901Z</time></trkpt><trkpt lat="43.6062262" lon="6.8085986"><ele>234.99999999999997</ele><time>2026-04-12T06:45:04.901Z</time></trkpt><trkpt lat="43.6061754" lon="6.8085163"><ele>235.0</ele><time>2026-04-12T06:45:06.901Z</time></trkpt><trkpt lat="43.6061348" lon="6.8084193"><ele>234.99999999999997</ele><time>2026-04-12T06:45:08.901Z</time></trkpt><trkpt lat="43.6060921" lon="6.808333"><ele>235.0</ele><time>2026-04-12T06:45:10.901Z</time></trkpt><trkpt lat="43.6060479" lon="6.8082573"><ele>235.0</ele><time>2026-04-12T06:45:12.901Z</time></trkpt><trkpt lat="43.6059922" lon="6.808181"><ele>235.0</ele><time>2026-04-12T06:45:14.901Z</time></trkpt><trkpt lat="43.6059351" lon="6.8080853"><ele>234.99999999999997</ele><time>2026-04-12T06:45:16.901Z</time></trkpt><trkpt lat="43.605873" lon="6.8080035"><ele>235.0</ele><time>2026-04-12T06:45:18.901Z</time></trkpt><trkpt lat="43.6058097" lon="6.8079126"><ele>234.99999999999997</ele><time>2026-04-12T06:45:20.901Z</time></trkpt><trkpt lat="43.6057469" lon="6.8078348"><ele>235.0</ele><time>2026-04-12T06:45:22.901Z</time></trkpt><trkpt lat="43.6056758" lon="6.8077639"><ele>235.0</ele><time>2026-04-12T06:45:24.902Z</time></trkpt><trkpt lat="43.6056029" lon="6.8076971"><ele>235.0</ele><time>2026-04-12T06:45:26.901Z</time></trkpt><trkpt lat="43.605529" lon="6.8076363"><ele>234.99999999999997</ele><time>2026-04-12T06:45:28.902Z</time></trkpt><trkpt lat="43.6054565" lon="6.807579"><ele>235.0</ele><time>2026-04-12T06:45:30.902Z</time></trkpt><trkpt lat="43.6053741" lon="6.8075251"><ele>235.8</ele><time>2026-04-12T06:45:32.902Z</time></trkpt><trkpt lat="43.6052893" lon="6.8074722"><ele>236.6</ele><time>2026-04-12T06:45:34.902Z</time></trkpt><trkpt lat="43.6052058" lon="6.8074093"><ele>237.39999999999998</ele><time>2026-04-12T06:45:36.901Z</time></trkpt><trkpt lat="43.605111" lon="6.8073575"><ele>238.2</ele><time>2026-04-12T06:45:38.902Z</time></trkpt><trkpt lat="43.6050137" lon="6.8073148"><ele>239.0</ele><time>2026-04-12T06:45:40.902Z</time></trkpt><trkpt lat="43.6049195" lon="6.8072674"><ele>239.0</ele><time>2026-04-12T06:45:42.903Z</time></trkpt><trkpt lat="43.6048235" lon="6.8072355"><ele>238.99999999999997</ele><time>2026-04-12T06:45:44.902Z</time></trkpt><trkpt lat="43.6047209" lon="6.8071977"><ele>238.99999999999997</ele><time>2026-04-12T06:45:46.902Z</time></trkpt><trkpt lat="43.6046131" lon="6.8071618"><ele>239.0</ele><time>2026-04-12T06:45:48.902Z</time></trkpt><trkpt lat="43.604495" lon="6.8071139"><ele>239.0</ele><time>2026-04-12T06:45:50.902Z</time></trkpt><trkpt lat="43.6044339" lon="6.8070899"><ele>238.28571428571433</ele><time>2026-04-12T06:45:51.902Z</time></trkpt><trkpt lat="43.6043708" lon="6.8070668"><ele>237.57142857142858</ele><time>2026-04-12T06:45:52.902Z</time></trkpt><trkpt lat="43.6043068" lon="6.8070433"><ele>236.8571428571429</ele><time>2026-04-12T06:45:53.902Z</time></trkpt><trkpt lat="43.6042427" lon="6.8070193"><ele>236.14285714285717</ele><time>2026-04-12T06:45:54.902Z</time></trkpt><trkpt lat="43.6041762" lon="6.8069977"><ele>235.42857142857144</ele><time>2026-04-12T06:45:55.902Z</time></trkpt><trkpt lat="43.6041112" lon="6.8069766"><ele>234.71428571428572</ele><time>2026-04-12T06:45:56.902Z</time></trkpt><trkpt lat="43.6040451" lon="6.8069558"><ele>234.0</ele><time>2026-04-12T06:45:57.902Z</time></trkpt><trkpt lat="43.6039693" lon="6.8069317"><ele>234.0</ele><time>2026-04-12T06:45:58.902Z</time></trkpt><trkpt lat="43.6038935" lon="6.8069037"><ele>234.00000000000003</ele><time>2026-04-12T06:45:59.902Z</time></trkpt><trkpt lat="43.6038164" lon="6.8068734"><ele>234.0</ele><time>2026-04-12T06:46:00.902Z</time></trkpt><trkpt lat="43.6037436" lon="6.8068421"><ele>234.0</ele><time>2026-04-12T06:46:01.904Z</time></trkpt><trkpt lat="43.603676" lon="6.8068123"><ele>234.00000000000003</ele><time>2026-04-12T06:46:02.902Z</time></trkpt><trkpt lat="43.6036123" lon="6.806787"><ele>234.0</ele><time>2026-04-12T06:46:03.902Z</time></trkpt><trkpt lat="43.6035512" lon="6.8067637"><ele>234.0</ele><time>2026-04-12T06:46:04.902Z</time></trkpt><trkpt lat="43.6034888" lon="6.8067372"><ele>236.0</ele><time>2026-04-12T06:46:05.902Z</time></trkpt><trkpt lat="43.6033708" lon="6.8066753"><ele>237.99999999999997</ele><time>2026-04-12T06:46:07.903Z</time></trkpt><trkpt lat="43.6033124" lon="6.8066396"><ele>239.99999999999997</ele><time>2026-04-12T06:46:08.903Z</time></trkpt><trkpt lat="43.6032075" lon="6.8065629"><ele>242.0</ele><time>2026-04-12T06:46:10.902Z</time></trkpt><trkpt lat="43.6031036" lon="6.8064709"><ele>244.0</ele><time>2026-04-12T06:46:12.902Z</time></trkpt><trkpt lat="43.603015" lon="6.8063593"><ele>244.0</ele><time>2026-04-12T06:46:14.903Z</time></trkpt><trkpt lat="43.6029212" lon="6.8062385"><ele>244.0</ele><time>2026-04-12T06:46:16.902Z</time></trkpt><trkpt lat="43.6028263" lon="6.8061305"><ele>244.0</ele><time>2026-04-12T06:46:18.902Z</time></trkpt><trkpt lat="43.602733" lon="6.8060287"><ele>244.0</ele><time>2026-04-12T06:46:20.903Z</time></trkpt><trkpt lat="43.6026375" lon="6.8059377"><ele>244.79999999999998</ele><time>2026-04-12T06:46:22.902Z</time></trkpt><trkpt lat="43.6025401" lon="6.8058519"><ele>245.59999999999997</ele><time>2026-04-12T06:46:24.903Z</time></trkpt><trkpt lat="43.6024414" lon="6.8057836"><ele>246.4</ele><time>2026-04-12T06:46:26.903Z</time></trkpt><trkpt lat="43.6023412" lon="6.8057247"><ele>247.2</ele><time>2026-04-12T06:46:28.903Z</time></trkpt><trkpt lat="43.6022431" lon="6.8056638"><ele>248.0</ele><time>2026-04-12T06:46:30.904Z</time></trkpt><trkpt lat="43.6021473" lon="6.8056063"><ele>248.0</ele><time>2026-04-12T06:46:32.903Z</time></trkpt><trkpt lat="43.602047" lon="6.8055508"><ele>248.0</ele><time>2026-04-12T06:46:34.903Z</time></trkpt><trkpt lat="43.6019412" lon="6.8054873"><ele>248.0</ele><time>2026-04-12T06:46:36.903Z</time></trkpt><trkpt lat="43.6018388" lon="6.8054232"><ele>248.0</ele><time>2026-04-12T06:46:38.903Z</time></trkpt><trkpt lat="43.601744" lon="6.805355"><ele>248.0</ele><time>2026-04-12T06:46:40.903Z</time></trkpt><trkpt lat="43.6016504" lon="6.8052764"><ele>246.5</ele><time>2026-04-12T06:46:42.904Z</time></trkpt><trkpt lat="43.6015581" lon="6.8051852"><ele>245.0</ele><time>2026-04-12T06:46:44.903Z</time></trkpt><trkpt lat="43.6014637" lon="6.8051079"><ele>243.5</ele><time>2026-04-12T06:46:46.903Z</time></trkpt><trkpt lat="43.6013752" lon="6.8050213"><ele>242.0</ele><time>2026-04-12T06:46:48.903Z</time></trkpt><trkpt lat="43.6012859" lon="6.804911"><ele>243.0</ele><time>2026-04-12T06:46:50.903Z</time></trkpt><trkpt lat="43.6011972" lon="6.8048134"><ele>244.0</ele><time>2026-04-12T06:46:52.903Z</time></trkpt><trkpt lat="43.6011083" lon="6.8047181"><ele>245.0</ele><time>2026-04-12T06:46:54.904Z</time></trkpt><trkpt lat="43.6010142" lon="6.80462"><ele>246.0</ele><time>2026-04-12T06:46:56.904Z</time></trkpt><trkpt lat="43.6009266" lon="6.8045293"><ele>246.0</ele><time>2026-04-12T06:46:58.903Z</time></trkpt><trkpt lat="43.6008363" lon="6.8044195"><ele>246.00000000000003</ele><time>2026-04-12T06:47:00.903Z</time></trkpt><trkpt lat="43.6007485" lon="6.8043091"><ele>246.00000000000003</ele><time>2026-04-12T06:47:02.903Z</time></trkpt><trkpt lat="43.6007035" lon="6.8042483"><ele>246.0</ele><time>2026-04-12T06:47:03.905Z</time></trkpt><trkpt lat="43.6006223" lon="6.8041318"><ele>246.0</ele><time>2026-04-12T06:47:05.903Z</time></trkpt><trkpt lat="43.6005471" lon="6.8040191"><ele>245.25</ele><time>2026-04-12T06:47:07.903Z</time></trkpt><trkpt lat="43.6004711" lon="6.8038961"><ele>244.5</ele><time>2026-04-12T06:47:09.904Z</time></trkpt><trkpt lat="43.6003955" lon="6.8037576"><ele>243.75</ele><time>2026-04-12T06:47:11.904Z</time></trkpt><trkpt lat="43.6003225" lon="6.8036217"><ele>243.0</ele><time>2026-04-12T06:47:13.904Z</time></trkpt><trkpt lat="43.6002506" lon="6.8034959"><ele>245.5</ele><time>2026-04-12T06:47:15.905Z</time></trkpt><trkpt lat="43.6001789" lon="6.8033594"><ele>248.0</ele><time>2026-04-12T06:47:17.904Z</time></trkpt><trkpt lat="43.6001072" lon="6.8032265"><ele>250.5</ele><time>2026-04-12T06:47:19.904Z</time></trkpt><trkpt lat="43.6000313" lon="6.8031009"><ele>253.0</ele><time>2026-04-12T06:47:21.904Z</time></trkpt><trkpt lat="43.5999563" lon="6.8029855"><ele>252.99999999999997</ele><time>2026-04-12T06:47:23.904Z</time></trkpt><trkpt lat="43.5998747" lon="6.8028621"><ele>253.0</ele><time>2026-04-12T06:47:25.905Z</time></trkpt><trkpt lat="43.5998275" lon="6.8027996"><ele>253.0</ele><time>2026-04-12T06:47:26.904Z</time></trkpt><trkpt lat="43.5997754" lon="6.8027451"><ele>253.0</ele><time>2026-04-12T06:47:27.904Z</time></trkpt><trkpt lat="43.599675" lon="6.8026428"><ele>252.99999999999997</ele><time>2026-04-12T06:47:29.905Z</time></trkpt><trkpt lat="43.5996234" lon="6.8025827"><ele>253.0</ele><time>2026-04-12T06:47:30.904Z</time></trkpt><trkpt lat="43.5995733" lon="6.8025276"><ele>253.2</ele><time>2026-04-12T06:47:31.904Z</time></trkpt><trkpt lat="43.599472" lon="6.8024275"><ele>253.4</ele><time>2026-04-12T06:47:33.904Z</time></trkpt><trkpt lat="43.5994206" lon="6.8023744"><ele>253.59999999999997</ele><time>2026-04-12T06:47:34.904Z</time></trkpt><trkpt lat="43.5993218" lon="6.8022712"><ele>253.79999999999998</ele><time>2026-04-12T06:47:36.904Z</time></trkpt><trkpt lat="43.5992666" lon="6.8022226"><ele>254.0</ele><time>2026-04-12T06:47:37.904Z</time></trkpt><trkpt lat="43.599157" lon="6.802134"><ele>254.0</ele><time>2026-04-12T06:47:39.904Z</time></trkpt><trkpt lat="43.5990978" lon="6.8020841"><ele>254.0</ele><time>2026-04-12T06:47:40.904Z</time></trkpt><trkpt lat="43.5990426" lon="6.8020292"><ele>254.0</ele><time>2026-04-12T06:47:41.904Z</time></trkpt><trkpt lat="43.5989863" lon="6.8019715"><ele>254.0</ele><time>2026-04-12T06:47:42.904Z</time></trkpt><trkpt lat="43.5989265" lon="6.8019133"><ele>254.0</ele><time>2026-04-12T06:47:43.904Z</time></trkpt><trkpt lat="43.5988655" lon="6.8018443"><ele>254.0</ele><time>2026-04-12T06:47:44.904Z</time></trkpt><trkpt lat="43.5988049" lon="6.8017701"><ele>254.0</ele><time>2026-04-12T06:47:45.906Z</time></trkpt><trkpt lat="43.5987425" lon="6.8016884"><ele>254.0</ele><time>2026-04-12T06:47:46.905Z</time></trkpt><trkpt lat="43.5986815" lon="6.801604"><ele>253.99999999999997</ele><time>2026-04-12T06:47:47.904Z</time></trkpt><trkpt lat="43.5986217" lon="6.8015132"><ele>253.99999999999997</ele><time>2026-04-12T06:47:48.904Z</time></trkpt><trkpt lat="43.5985605" lon="6.8014177"><ele>254.0</ele><time>2026-04-12T06:47:49.905Z</time></trkpt><trkpt lat="43.5984996" lon="6.8013201"><ele>254.0</ele><time>2026-04-12T06:47:50.904Z</time></trkpt><trkpt lat="43.5984403" lon="6.8012208"><ele>254.00000000000003</ele><time>2026-04-12T06:47:51.904Z</time></trkpt><trkpt lat="43.5983823" lon="6.8011257"><ele>254.0</ele><time>2026-04-12T06:47:52.904Z</time></trkpt><trkpt lat="43.598325" lon="6.8010303"><ele>254.0</ele><time>2026-04-12T06:47:53.905Z</time></trkpt><trkpt lat="43.5982675" lon="6.8009326"><ele>254.0</ele><time>2026-04-12T06:47:54.906Z</time></trkpt><trkpt lat="43.5982106" lon="6.8008405"><ele>254.00000000000003</ele><time>2026-04-12T06:47:55.906Z</time></trkpt><trkpt lat="43.5981558" lon="6.8007489"><ele>254.0</ele><time>2026-04-12T06:47:56.905Z</time></trkpt><trkpt lat="43.5981047" lon="6.800661"><ele>254.14285714285717</ele><time>2026-04-12T06:47:57.905Z</time></trkpt><trkpt lat="43.5980583" lon="6.8005809"><ele>254.28571428571428</ele><time>2026-04-12T06:47:58.906Z</time></trkpt><trkpt lat="43.5980136" lon="6.8005064"><ele>254.42857142857144</ele><time>2026-04-12T06:47:59.905Z</time></trkpt><trkpt lat="43.5979677" lon="6.8004334"><ele>254.57142857142858</ele><time>2026-04-12T06:48:00.906Z</time></trkpt><trkpt lat="43.5979227" lon="6.800363"><ele>254.71428571428572</ele><time>2026-04-12T06:48:01.905Z</time></trkpt><trkpt lat="43.5978803" lon="6.8002915"><ele>254.85714285714286</ele><time>2026-04-12T06:48:02.905Z</time></trkpt><trkpt lat="43.5978381" lon="6.8002202"><ele>255.0</ele><time>2026-04-12T06:48:03.906Z</time></trkpt><trkpt lat="43.5977973" lon="6.8001455"><ele>255.0</ele><time>2026-04-12T06:48:04.905Z</time></trkpt><trkpt lat="43.5977592" lon="6.8000697"><ele>255.0</ele><time>2026-04-12T06:48:05.905Z</time></trkpt><trkpt lat="43.5977221" lon="6.7999989"><ele>255.0</ele><time>2026-04-12T06:48:06.905Z</time></trkpt><trkpt lat="43.5976567" lon="6.7998538"><ele>255.0</ele><time>2026-04-12T06:48:08.905Z</time></trkpt><trkpt lat="43.5976015" lon="6.7996959"><ele>255.0</ele><time>2026-04-12T06:48:10.905Z</time></trkpt><trkpt lat="43.597554" lon="6.7995378"><ele>255.0</ele><time>2026-04-12T06:48:12.905Z</time></trkpt><trkpt lat="43.5975009" lon="6.7993747"><ele>255.0</ele><time>2026-04-12T06:48:14.905Z</time></trkpt><trkpt lat="43.5974726" lon="6.7992927"><ele>255.0</ele><time>2026-04-12T06:48:15.905Z</time></trkpt><trkpt lat="43.5974438" lon="6.7992103"><ele>255.0</ele><time>2026-04-12T06:48:16.905Z</time></trkpt><trkpt lat="43.5974147" lon="6.7991276"><ele>255.0</ele><time>2026-04-12T06:48:17.905Z</time></trkpt><trkpt lat="43.597385" lon="6.7990432"><ele>255.0</ele><time>2026-04-12T06:48:18.905Z</time></trkpt><trkpt lat="43.5973542" lon="6.7989516"><ele>256.0</ele><time>2026-04-12T06:48:19.905Z</time></trkpt><trkpt lat="43.5973249" lon="6.7988558"><ele>257.0</ele><time>2026-04-12T06:48:20.905Z</time></trkpt><trkpt lat="43.5972976" lon="6.7987635"><ele>258.0</ele><time>2026-04-12T06:48:21.905Z</time></trkpt><trkpt lat="43.5972693" lon="6.7986755"><ele>259.0</ele><time>2026-04-12T06:48:22.905Z</time></trkpt><trkpt lat="43.5972393" lon="6.7985927"><ele>260.0</ele><time>2026-04-12T06:48:23.905Z</time></trkpt><trkpt lat="43.5972088" lon="6.7985099"><ele>261.0</ele><time>2026-04-12T06:48:24.905Z</time></trkpt><trkpt lat="43.5971805" lon="6.7984263"><ele>262.0</ele><time>2026-04-12T06:48:25.905Z</time></trkpt><trkpt lat="43.5971526" lon="6.7983459"><ele>262.66666666666663</ele><time>2026-04-12T06:48:26.905Z</time></trkpt><trkpt lat="43.597096" lon="6.7982001"><ele>263.3333333333333</ele><time>2026-04-12T06:48:28.906Z</time></trkpt><trkpt lat="43.5970682" lon="6.7981212"><ele>264.0</ele><time>2026-04-12T06:48:29.906Z</time></trkpt><trkpt lat="43.5970395" lon="6.798035"><ele>264.6666666666667</ele><time>2026-04-12T06:48:30.905Z</time></trkpt><trkpt lat="43.5970106" lon="6.7979439"><ele>265.33333333333337</ele><time>2026-04-12T06:48:31.906Z</time></trkpt><trkpt lat="43.5969789" lon="6.7978492"><ele>266.0</ele><time>2026-04-12T06:48:32.906Z</time></trkpt><trkpt lat="43.5969456" lon="6.7977524"><ele>264.57142857142856</ele><time>2026-04-12T06:48:33.906Z</time></trkpt><trkpt lat="43.596913" lon="6.7976646"><ele>263.1428571428571</ele><time>2026-04-12T06:48:34.907Z</time></trkpt><trkpt lat="43.5968781" lon="6.7975749"><ele>261.7142857142857</ele><time>2026-04-12T06:48:35.906Z</time></trkpt><trkpt lat="43.5968431" lon="6.7974855"><ele>260.2857142857143</ele><time>2026-04-12T06:48:36.905Z</time></trkpt><trkpt lat="43.596809" lon="6.7973951"><ele>258.85714285714283</ele><time>2026-04-12T06:48:37.906Z</time></trkpt><trkpt lat="43.5967756" lon="6.7973012"><ele>257.42857142857144</ele><time>2026-04-12T06:48:38.906Z</time></trkpt><trkpt lat="43.5967418" lon="6.7972054"><ele>256.0</ele><time>2026-04-12T06:48:39.907Z</time></trkpt><trkpt lat="43.5967116" lon="6.7971016"><ele>255.99999999999997</ele><time>2026-04-12T06:48:40.906Z</time></trkpt><trkpt lat="43.5966767" lon="6.7970076"><ele>256.0</ele><time>2026-04-12T06:48:41.906Z</time></trkpt><trkpt lat="43.5966417" lon="6.7969114"><ele>256.0</ele><time>2026-04-12T06:48:42.906Z</time></trkpt><trkpt lat="43.5966075" lon="6.7968159"><ele>256.0</ele><time>2026-04-12T06:48:43.906Z</time></trkpt><trkpt lat="43.5965744" lon="6.7967123"><ele>255.99999999999997</ele><time>2026-04-12T06:48:44.906Z</time></trkpt><trkpt lat="43.5965469" lon="6.796605"><ele>256.0</ele><time>2026-04-12T06:48:45.906Z</time></trkpt><trkpt lat="43.5965246" lon="6.7964998"><ele>256.5</ele><time>2026-04-12T06:48:46.906Z</time></trkpt><trkpt lat="43.596512" lon="6.7963843"><ele>257.0</ele><time>2026-04-12T06:48:47.906Z</time></trkpt><trkpt lat="43.5965076" lon="6.7962668"><ele>257.5</ele><time>2026-04-12T06:48:48.906Z</time></trkpt><trkpt lat="43.5965047" lon="6.7961458"><ele>258.0</ele><time>2026-04-12T06:48:49.907Z</time></trkpt><trkpt lat="43.5965071" lon="6.7960248"><ele>258.5</ele><time>2026-04-12T06:48:50.906Z</time></trkpt><trkpt lat="43.5965175" lon="6.7958958"><ele>259.0</ele><time>2026-04-12T06:48:51.906Z</time></trkpt><trkpt lat="43.5965353" lon="6.7957669"><ele>259.0</ele><time>2026-04-12T06:48:52.906Z</time></trkpt><trkpt lat="43.5965532" lon="6.7956389"><ele>259.0</ele><time>2026-04-12T06:48:53.906Z</time></trkpt><trkpt lat="43.5965762" lon="6.7955166"><ele>259.0</ele><time>2026-04-12T06:48:54.906Z</time></trkpt><trkpt lat="43.5966054" lon="6.7953875"><ele>259.0</ele><time>2026-04-12T06:48:55.906Z</time></trkpt><trkpt lat="43.5966412" lon="6.7952529"><ele>259.0</ele><time>2026-04-12T06:48:56.906Z</time></trkpt><trkpt lat="43.5966852" lon="6.7951198"><ele>257.8</ele><time>2026-04-12T06:48:57.906Z</time></trkpt><trkpt lat="43.5967359" lon="6.7949864"><ele>256.59999999999997</ele><time>2026-04-12T06:48:58.906Z</time></trkpt><trkpt lat="43.5967864" lon="6.7948608"><ele>255.4</ele><time>2026-04-12T06:48:59.906Z</time></trkpt><trkpt lat="43.5968426" lon="6.7947431"><ele>254.2</ele><time>2026-04-12T06:49:00.906Z</time></trkpt><trkpt lat="43.5969031" lon="6.7946266"><ele>253.0</ele><time>2026-04-12T06:49:01.906Z</time></trkpt><trkpt lat="43.5969635" lon="6.7945054"><ele>254.4</ele><time>2026-04-12T06:49:02.906Z</time></trkpt><trkpt lat="43.5970222" lon="6.7943764"><ele>255.8</ele><time>2026-04-12T06:49:03.906Z</time></trkpt><trkpt lat="43.5970725" lon="6.794241"><ele>257.2</ele><time>2026-04-12T06:49:04.906Z</time></trkpt><trkpt lat="43.5971114" lon="6.7940982"><ele>258.6</ele><time>2026-04-12T06:49:05.906Z</time></trkpt><trkpt lat="43.5971369" lon="6.7939473"><ele>260.0</ele><time>2026-04-12T06:49:06.906Z</time></trkpt><trkpt lat="43.5971586" lon="6.7937884"><ele>260.0</ele><time>2026-04-12T06:49:07.906Z</time></trkpt><trkpt lat="43.5971812" lon="6.7936281"><ele>260.0</ele><time>2026-04-12T06:49:08.906Z</time></trkpt><trkpt lat="43.5971966" lon="6.7934773"><ele>260.0</ele><time>2026-04-12T06:49:09.907Z</time></trkpt><trkpt lat="43.597208" lon="6.7933427"><ele>260.0</ele><time>2026-04-12T06:49:10.906Z</time></trkpt><trkpt lat="43.5971985" lon="6.7931981"><ele>260.0</ele><time>2026-04-12T06:49:11.907Z</time></trkpt><trkpt lat="43.597192" lon="6.793046"><ele>257.75</ele><time>2026-04-12T06:49:12.906Z</time></trkpt><trkpt lat="43.5971861" lon="6.7928878"><ele>255.5</ele><time>2026-04-12T06:49:13.907Z</time></trkpt><trkpt lat="43.5971812" lon="6.7927295"><ele>253.25</ele><time>2026-04-12T06:49:14.908Z</time></trkpt><trkpt lat="43.5971772" lon="6.7925715"><ele>251.0</ele><time>2026-04-12T06:49:15.906Z</time></trkpt><trkpt lat="43.5971751" lon="6.7924133"><ele>250.25</ele><time>2026-04-12T06:49:16.908Z</time></trkpt><trkpt lat="43.5971731" lon="6.7922522"><ele>249.5</ele><time>2026-04-12T06:49:17.906Z</time></trkpt><trkpt lat="43.5971712" lon="6.7920903"><ele>248.75</ele><time>2026-04-12T06:49:18.907Z</time></trkpt><trkpt lat="43.5971681" lon="6.7919246"><ele>248.0</ele><time>2026-04-12T06:49:19.907Z</time></trkpt><trkpt lat="43.5971645" lon="6.7917559"><ele>247.0</ele><time>2026-04-12T06:49:20.907Z</time></trkpt><trkpt lat="43.5971641" lon="6.7915851"><ele>246.0</ele><time>2026-04-12T06:49:21.908Z</time></trkpt><trkpt lat="43.5971714" lon="6.7914129"><ele>245.0</ele><time>2026-04-12T06:49:22.906Z</time></trkpt><trkpt lat="43.5971922" lon="6.7912428"><ele>244.0</ele><time>2026-04-12T06:49:23.907Z</time></trkpt><trkpt lat="43.5972329" lon="6.791075"><ele>242.0</ele><time>2026-04-12T06:49:24.907Z</time></trkpt><trkpt lat="43.5972857" lon="6.7909132"><ele>240.0</ele><time>2026-04-12T06:49:25.907Z</time></trkpt><trkpt lat="43.5973408" lon="6.790752"><ele>238.0</ele><time>2026-04-12T06:49:26.907Z</time></trkpt><trkpt lat="43.5973939" lon="6.7905936"><ele>236.0</ele><time>2026-04-12T06:49:27.907Z</time></trkpt><trkpt lat="43.5974415" lon="6.7904281"><ele>236.0</ele><time>2026-04-12T06:49:28.907Z</time></trkpt><trkpt lat="43.5974826" lon="6.7902685"><ele>236.0</ele><time>2026-04-12T06:49:29.907Z</time></trkpt><trkpt lat="43.5975258" lon="6.7901129"><ele>236.0</ele><time>2026-04-12T06:49:30.907Z</time></trkpt><trkpt lat="43.5975731" lon="6.7899592"><ele>236.0</ele><time>2026-04-12T06:49:31.908Z</time></trkpt><trkpt lat="43.5976242" lon="6.7898055"><ele>234.5</ele><time>2026-04-12T06:49:32.907Z</time></trkpt><trkpt lat="43.5976822" lon="6.7896492"><ele>233.0</ele><time>2026-04-12T06:49:33.907Z</time></trkpt><trkpt lat="43.5977454" lon="6.7894939"><ele>231.5</ele><time>2026-04-12T06:49:34.908Z</time></trkpt><trkpt lat="43.5978171" lon="6.7893441"><ele>230.0</ele><time>2026-04-12T06:49:35.907Z</time></trkpt><trkpt lat="43.597897" lon="6.7891995"><ele>230.0</ele><time>2026-04-12T06:49:36.907Z</time></trkpt><trkpt lat="43.597979" lon="6.7890548"><ele>230.0</ele><time>2026-04-12T06:49:37.907Z</time></trkpt><trkpt lat="43.5980582" lon="6.7889064"><ele>230.0</ele><time>2026-04-12T06:49:38.907Z</time></trkpt><trkpt lat="43.5981388" lon="6.7887555"><ele>230.0</ele><time>2026-04-12T06:49:39.908Z</time></trkpt><trkpt lat="43.5982163" lon="6.7886098"><ele>229.0</ele><time>2026-04-12T06:49:40.907Z</time></trkpt><trkpt lat="43.5982939" lon="6.7884646"><ele>228.0</ele><time>2026-04-12T06:49:41.907Z</time></trkpt><trkpt lat="43.5983682" lon="6.7883186"><ele>227.0</ele><time>2026-04-12T06:49:42.908Z</time></trkpt><trkpt lat="43.5984349" lon="6.7881735"><ele>226.0</ele><time>2026-04-12T06:49:43.907Z</time></trkpt><trkpt lat="43.5984945" lon="6.7880183"><ele>226.0</ele><time>2026-04-12T06:49:44.907Z</time></trkpt><trkpt lat="43.5985511" lon="6.7878528"><ele>226.0</ele><time>2026-04-12T06:49:45.907Z</time></trkpt><trkpt lat="43.5985992" lon="6.7876872"><ele>226.0</ele><time>2026-04-12T06:49:46.907Z</time></trkpt><trkpt lat="43.5986492" lon="6.7875189"><ele>226.0</ele><time>2026-04-12T06:49:47.907Z</time></trkpt><trkpt lat="43.5987036" lon="6.7873458"><ele>223.5</ele><time>2026-04-12T06:49:48.907Z</time></trkpt><trkpt lat="43.5987571" lon="6.7871803"><ele>221.0</ele><time>2026-04-12T06:49:49.907Z</time></trkpt><trkpt lat="43.5988064" lon="6.7870216"><ele>218.5</ele><time>2026-04-12T06:49:50.908Z</time></trkpt><trkpt lat="43.5988602" lon="6.7868689"><ele>216.0</ele><time>2026-04-12T06:49:51.907Z</time></trkpt><trkpt lat="43.5989099" lon="6.7867297"><ele>214.4</ele><time>2026-04-12T06:49:52.907Z</time></trkpt><trkpt lat="43.5989585" lon="6.7865976"><ele>212.8</ele><time>2026-04-12T06:49:53.908Z</time></trkpt><trkpt lat="43.599009" lon="6.7864738"><ele>211.20000000000002</ele><time>2026-04-12T06:49:54.908Z</time></trkpt><trkpt lat="43.5990725" lon="6.7863735"><ele>209.60000000000002</ele><time>2026-04-12T06:49:55.907Z</time></trkpt><trkpt lat="43.5991536" lon="6.7863118"><ele>208.0</ele><time>2026-04-12T06:49:56.908Z</time></trkpt><trkpt lat="43.5992513" lon="6.7862745"><ele>208.0</ele><time>2026-04-12T06:49:57.907Z</time></trkpt><trkpt lat="43.5993491" lon="6.7862477"><ele>208.0</ele><time>2026-04-12T06:49:58.908Z</time></trkpt><trkpt lat="43.599442" lon="6.786242"><ele>208.0</ele><time>2026-04-12T06:49:59.908Z</time></trkpt><trkpt lat="43.5995291" lon="6.7862701"><ele>208.0</ele><time>2026-04-12T06:50:00.908Z</time></trkpt><trkpt lat="43.5996147" lon="6.7863257"><ele>208.0</ele><time>2026-04-12T06:50:01.908Z</time></trkpt><trkpt lat="43.5996987" lon="6.7863868"><ele>207.66666666666666</ele><time>2026-04-12T06:50:02.907Z</time></trkpt><trkpt lat="43.5997797" lon="6.7864515"><ele>207.33333333333331</ele><time>2026-04-12T06:50:03.907Z</time></trkpt><trkpt lat="43.5998612" lon="6.7865102"><ele>207.0</ele><time>2026-04-12T06:50:04.907Z</time></trkpt><trkpt lat="43.5999422" lon="6.7865599"><ele>206.66666666666669</ele><time>2026-04-12T06:50:05.908Z</time></trkpt><trkpt lat="43.6000221" lon="6.7865981"><ele>206.33333333333334</ele><time>2026-04-12T06:50:06.907Z</time></trkpt><trkpt lat="43.6001037" lon="6.7866131"><ele>206.0</ele><time>2026-04-12T06:50:07.909Z</time></trkpt><trkpt lat="43.6001849" lon="6.7866004"><ele>206.00000000000003</ele><time>2026-04-12T06:50:08.908Z</time></trkpt><trkpt lat="43.6002636" lon="6.7865709"><ele>206.0</ele><time>2026-04-12T06:50:09.908Z</time></trkpt><trkpt lat="43.6003361" lon="6.7865438"><ele>206.0</ele><time>2026-04-12T06:50:10.908Z</time></trkpt><trkpt lat="43.6004065" lon="6.7865161"><ele>206.0</ele><time>2026-04-12T06:50:11.908Z</time></trkpt><trkpt lat="43.6004719" lon="6.7864784"><ele>206.00000000000003</ele><time>2026-04-12T06:50:12.908Z</time></trkpt><trkpt lat="43.6005377" lon="6.786425"><ele>206.0</ele><time>2026-04-12T06:50:13.908Z</time></trkpt><trkpt lat="43.6005999" lon="6.7863662"><ele>205.85714285714283</ele><time>2026-04-12T06:50:14.908Z</time></trkpt><trkpt lat="43.6006561" lon="6.7863056"><ele>205.71428571428572</ele><time>2026-04-12T06:50:15.908Z</time></trkpt><trkpt lat="43.6007111" lon="6.786246"><ele>205.57142857142856</ele><time>2026-04-12T06:50:16.909Z</time></trkpt><trkpt lat="43.6007675" lon="6.7861823"><ele>205.42857142857142</ele><time>2026-04-12T06:50:17.909Z</time></trkpt><trkpt lat="43.600824" lon="6.7861177"><ele>205.28571428571428</ele><time>2026-04-12T06:50:18.909Z</time></trkpt><trkpt lat="43.6008794" lon="6.7860613"><ele>205.14285714285714</ele><time>2026-04-12T06:50:19.908Z</time></trkpt><trkpt lat="43.6009391" lon="6.7860042"><ele>205.0</ele><time>2026-04-12T06:50:20.908Z</time></trkpt><trkpt lat="43.6009978" lon="6.7859445"><ele>204.99999999999997</ele><time>2026-04-12T06:50:21.908Z</time></trkpt><trkpt lat="43.6010569" lon="6.7858862"><ele>205.0</ele><time>2026-04-12T06:50:22.908Z</time></trkpt><trkpt lat="43.6011114" lon="6.7858353"><ele>205.0</ele><time>2026-04-12T06:50:23.908Z</time></trkpt><trkpt lat="43.6012001" lon="6.785755"><ele>205.0</ele><time>2026-04-12T06:50:25.908Z</time></trkpt><trkpt lat="43.6012853" lon="6.7856973"><ele>204.99999999999997</ele><time>2026-04-12T06:50:27.908Z</time></trkpt><trkpt lat="43.6013807" lon="6.78564"><ele>205.0</ele><time>2026-04-12T06:50:29.908Z</time></trkpt><trkpt lat="43.6014744" lon="6.7855682"><ele>205.49999999999997</ele><time>2026-04-12T06:50:31.908Z</time></trkpt><trkpt lat="43.6015307" lon="6.7855285"><ele>206.0</ele><time>2026-04-12T06:50:32.909Z</time></trkpt><trkpt lat="43.6015946" lon="6.7854858"><ele>206.5</ele><time>2026-04-12T06:50:33.908Z</time></trkpt><trkpt lat="43.6016612" lon="6.7854342"><ele>207.0</ele><time>2026-04-12T06:50:34.908Z</time></trkpt><trkpt lat="43.6017246" lon="6.7853803"><ele>207.49999999999997</ele><time>2026-04-12T06:50:35.908Z</time></trkpt><trkpt lat="43.6017975" lon="6.7853266"><ele>208.0</ele><time>2026-04-12T06:50:36.908Z</time></trkpt><trkpt lat="43.6018769" lon="6.7852704"><ele>208.0</ele><time>2026-04-12T06:50:37.908Z</time></trkpt><trkpt lat="43.6019542" lon="6.7852056"><ele>208.0</ele><time>2026-04-12T06:50:38.908Z</time></trkpt><trkpt lat="43.602035" lon="6.7851322"><ele>208.0</ele><time>2026-04-12T06:50:39.908Z</time></trkpt><trkpt lat="43.6021171" lon="6.7850557"><ele>208.0</ele><time>2026-04-12T06:50:40.908Z</time></trkpt><trkpt lat="43.6022003" lon="6.784981"><ele>208.0</ele><time>2026-04-12T06:50:41.909Z</time></trkpt><trkpt lat="43.6022853" lon="6.7849059"><ele>206.4</ele><time>2026-04-12T06:50:42.909Z</time></trkpt><trkpt lat="43.6023722" lon="6.784827"><ele>204.8</ele><time>2026-04-12T06:50:43.908Z</time></trkpt><trkpt lat="43.6024635" lon="6.7847439"><ele>203.2</ele><time>2026-04-12T06:50:44.908Z</time></trkpt><trkpt lat="43.6025536" lon="6.7846609"><ele>201.6</ele><time>2026-04-12T06:50:45.908Z</time></trkpt><trkpt lat="43.6026442" lon="6.7845769"><ele>200.0</ele><time>2026-04-12T06:50:46.909Z</time></trkpt><trkpt lat="43.6027333" lon="6.784496"><ele>200.0</ele><time>2026-04-12T06:50:47.908Z</time></trkpt><trkpt lat="43.6028174" lon="6.7844182"><ele>200.0</ele><time>2026-04-12T06:50:48.91Z</time></trkpt><trkpt lat="43.6028997" lon="6.7843421"><ele>200.0</ele><time>2026-04-12T06:50:49.909Z</time></trkpt><trkpt lat="43.6029826" lon="6.7842682"><ele>200.0</ele><time>2026-04-12T06:50:50.908Z</time></trkpt><trkpt lat="43.6030633" lon="6.7841944"><ele>200.0</ele><time>2026-04-12T06:50:51.909Z</time></trkpt><trkpt lat="43.60314" lon="6.7841216"><ele>199.6</ele><time>2026-04-12T06:50:52.909Z</time></trkpt><trkpt lat="43.6032142" lon="6.7840516"><ele>199.2</ele><time>2026-04-12T06:50:53.909Z</time></trkpt><trkpt lat="43.6032889" lon="6.783983"><ele>198.8</ele><time>2026-04-12T06:50:54.909Z</time></trkpt><trkpt lat="43.6033644" lon="6.7839205"><ele>198.4</ele><time>2026-04-12T06:50:55.909Z</time></trkpt><trkpt lat="43.6034434" lon="6.7838551"><ele>198.0</ele><time>2026-04-12T06:50:56.909Z</time></trkpt><trkpt lat="43.6035237" lon="6.783791"><ele>198.0</ele><time>2026-04-12T06:50:57.909Z</time></trkpt><trkpt lat="43.6036062" lon="6.7837218"><ele>198.0</ele><time>2026-04-12T06:50:58.909Z</time></trkpt><trkpt lat="43.6036882" lon="6.7836499"><ele>198.0</ele><time>2026-04-12T06:50:59.909Z</time></trkpt><trkpt lat="43.6037697" lon="6.7835791"><ele>198.0</ele><time>2026-04-12T06:51:00.91Z</time></trkpt><trkpt lat="43.6038493" lon="6.783506"><ele>198.0</ele><time>2026-04-12T06:51:01.909Z</time></trkpt><trkpt lat="43.6039259" lon="6.7834323"><ele>198.2</ele><time>2026-04-12T06:51:02.91Z</time></trkpt><trkpt lat="43.6040024" lon="6.7833585"><ele>198.4</ele><time>2026-04-12T06:51:03.909Z</time></trkpt><trkpt lat="43.6040779" lon="6.783286"><ele>198.6</ele><time>2026-04-12T06:51:04.909Z</time></trkpt><trkpt lat="43.6041576" lon="6.7832167"><ele>198.79999999999998</ele><time>2026-04-12T06:51:05.909Z</time></trkpt><trkpt lat="43.6042383" lon="6.7831534"><ele>199.0</ele><time>2026-04-12T06:51:06.91Z</time></trkpt><trkpt lat="43.6043199" lon="6.7830874"><ele>198.99999999999997</ele><time>2026-04-12T06:51:07.909Z</time></trkpt><trkpt lat="43.6043998" lon="6.7830227"><ele>199.0</ele><time>2026-04-12T06:51:08.909Z</time></trkpt><trkpt lat="43.6044744" lon="6.782957"><ele>199.0</ele><time>2026-04-12T06:51:09.909Z</time></trkpt><trkpt lat="43.6045403" lon="6.7828839"><ele>199.0</ele><time>2026-04-12T06:51:10.909Z</time></trkpt><trkpt lat="43.6046052" lon="6.7828074"><ele>198.99999999999997</ele><time>2026-04-12T06:51:11.909Z</time></trkpt><trkpt lat="43.6046687" lon="6.7827272"><ele>199.0</ele><time>2026-04-12T06:51:12.909Z</time></trkpt><trkpt lat="43.6047323" lon="6.7826473"><ele>198.83333333333331</ele><time>2026-04-12T06:51:13.909Z</time></trkpt><trkpt lat="43.6047952" lon="6.7825703"><ele>198.66666666666666</ele><time>2026-04-12T06:51:14.909Z</time></trkpt><trkpt lat="43.6048598" lon="6.7824978"><ele>198.5</ele><time>2026-04-12T06:51:15.91Z</time></trkpt><trkpt lat="43.6049223" lon="6.7824276"><ele>198.33333333333331</ele><time>2026-04-12T06:51:16.909Z</time></trkpt><trkpt lat="43.604983" lon="6.7823572"><ele>198.16666666666666</ele><time>2026-04-12T06:51:17.91Z</time></trkpt><trkpt lat="43.6050386" lon="6.7822873"><ele>198.0</ele><time>2026-04-12T06:51:18.909Z</time></trkpt><trkpt lat="43.6050909" lon="6.7822138"><ele>198.0</ele><time>2026-04-12T06:51:19.909Z</time></trkpt><trkpt lat="43.6051385" lon="6.7821397"><ele>198.0</ele><time>2026-04-12T06:51:20.909Z</time></trkpt><trkpt lat="43.6051847" lon="6.7820628"><ele>198.0</ele><time>2026-04-12T06:51:21.909Z</time></trkpt><trkpt lat="43.60523" lon="6.7819798"><ele>198.0</ele><time>2026-04-12T06:51:22.909Z</time></trkpt><trkpt lat="43.6052741" lon="6.7818868"><ele>198.0</ele><time>2026-04-12T06:51:23.909Z</time></trkpt><trkpt lat="43.6053134" lon="6.7817943"><ele>198.0</ele><time>2026-04-12T06:51:24.909Z</time></trkpt><trkpt lat="43.6053536" lon="6.7816984"><ele>198.33333333333334</ele><time>2026-04-12T06:51:25.91Z</time></trkpt><trkpt lat="43.6053946" lon="6.7815951"><ele>198.66666666666669</ele><time>2026-04-12T06:51:26.909Z</time></trkpt><trkpt lat="43.6054359" lon="6.781491"><ele>199.0</ele><time>2026-04-12T06:51:27.909Z</time></trkpt><trkpt lat="43.6054817" lon="6.7813895"><ele>199.33333333333334</ele><time>2026-04-12T06:51:28.909Z</time></trkpt><trkpt lat="43.6055284" lon="6.7812873"><ele>199.66666666666669</ele><time>2026-04-12T06:51:29.91Z</time></trkpt><trkpt lat="43.6055754" lon="6.7811882"><ele>200.0</ele><time>2026-04-12T06:51:30.91Z</time></trkpt><trkpt lat="43.6056248" lon="6.7810886"><ele>199.50000000000003</ele><time>2026-04-12T06:51:31.91Z</time></trkpt><trkpt lat="43.6056755" lon="6.7809921"><ele>199.0</ele><time>2026-04-12T06:51:32.91Z</time></trkpt><trkpt lat="43.6057245" lon="6.7808989"><ele>198.5</ele><time>2026-04-12T06:51:33.91Z</time></trkpt><trkpt lat="43.6057762" lon="6.7808092"><ele>198.0</ele><time>2026-04-12T06:51:34.91Z</time></trkpt><trkpt lat="43.6058306" lon="6.7807245"><ele>197.50000000000003</ele><time>2026-04-12T06:51:35.91Z</time></trkpt><trkpt lat="43.6058841" lon="6.7806431"><ele>197.0</ele><time>2026-04-12T06:51:36.91Z</time></trkpt><trkpt lat="43.6059383" lon="6.780564"><ele>197.00000000000003</ele><time>2026-04-12T06:51:37.91Z</time></trkpt><trkpt lat="43.6059909" lon="6.7804838"><ele>197.0</ele><time>2026-04-12T06:51:38.91Z</time></trkpt><trkpt lat="43.6060416" lon="6.7804016"><ele>197.0</ele><time>2026-04-12T06:51:39.91Z</time></trkpt><trkpt lat="43.6060908" lon="6.7803182"><ele>197.0</ele><time>2026-04-12T06:51:40.91Z</time></trkpt><trkpt lat="43.6061386" lon="6.7802361"><ele>197.00000000000003</ele><time>2026-04-12T06:51:41.91Z</time></trkpt><trkpt lat="43.6061852" lon="6.7801515"><ele>197.0</ele><time>2026-04-12T06:51:42.91Z</time></trkpt><trkpt lat="43.6062259" lon="6.780066"><ele>197.50000000000003</ele><time>2026-04-12T06:51:43.91Z</time></trkpt><trkpt lat="43.6062558" lon="6.7799726"><ele>198.0</ele><time>2026-04-12T06:51:44.91Z</time></trkpt><trkpt lat="43.6062724" lon="6.7798724"><ele>198.5</ele><time>2026-04-12T06:51:45.91Z</time></trkpt><trkpt lat="43.6062847" lon="6.7797676"><ele>199.0</ele><time>2026-04-12T06:51:46.91Z</time></trkpt><trkpt lat="43.6062956" lon="6.7796695"><ele>199.50000000000003</ele><time>2026-04-12T06:51:47.91Z</time></trkpt><trkpt lat="43.6063107" lon="6.7795652"><ele>200.0</ele><time>2026-04-12T06:51:48.91Z</time></trkpt><trkpt lat="43.6063284" lon="6.7794633"><ele>200.00000000000003</ele><time>2026-04-12T06:51:49.91Z</time></trkpt><trkpt lat="43.6063449" lon="6.7793674"><ele>200.0</ele><time>2026-04-12T06:51:50.91Z</time></trkpt><trkpt lat="43.6063623" lon="6.7792705"><ele>200.0</ele><time>2026-04-12T06:51:51.91Z</time></trkpt><trkpt lat="43.6063786" lon="6.7791714"><ele>200.0</ele><time>2026-04-12T06:51:52.91Z</time></trkpt><trkpt lat="43.6063933" lon="6.7790722"><ele>200.0</ele><time>2026-04-12T06:51:53.91Z</time></trkpt><trkpt lat="43.6064082" lon="6.7789681"><ele>200.00000000000003</ele><time>2026-04-12T06:51:54.91Z</time></trkpt><trkpt lat="43.6064233" lon="6.7788631"><ele>200.0</ele><time>2026-04-12T06:51:55.91Z</time></trkpt><trkpt lat="43.6064402" lon="6.7787579"><ele>200.00000000000003</ele><time>2026-04-12T06:51:56.91Z</time></trkpt><trkpt lat="43.6064587" lon="6.7786587"><ele>200.0</ele><time>2026-04-12T06:51:57.91Z</time></trkpt><trkpt lat="43.6064791" lon="6.7785552"><ele>200.0</ele><time>2026-04-12T06:51:58.91Z</time></trkpt><trkpt lat="43.6065023" lon="6.7784558"><ele>200.0</ele><time>2026-04-12T06:51:59.911Z</time></trkpt><trkpt lat="43.606528" lon="6.7783588"><ele>200.00000000000003</ele><time>2026-04-12T06:52:00.91Z</time></trkpt><trkpt lat="43.606559" lon="6.7782641"><ele>200.0</ele><time>2026-04-12T06:52:01.91Z</time></trkpt><trkpt lat="43.6065954" lon="6.7781742"><ele>199.71428571428572</ele><time>2026-04-12T06:52:02.91Z</time></trkpt><trkpt lat="43.6066363" lon="6.7780889"><ele>199.42857142857144</ele><time>2026-04-12T06:52:03.91Z</time></trkpt><trkpt lat="43.6066795" lon="6.778008"><ele>199.14285714285717</ele><time>2026-04-12T06:52:04.91Z</time></trkpt><trkpt lat="43.6067216" lon="6.7779311"><ele>198.85714285714286</ele><time>2026-04-12T06:52:05.91Z</time></trkpt><trkpt lat="43.6067633" lon="6.7778538"><ele>198.57142857142856</ele><time>2026-04-12T06:52:06.91Z</time></trkpt><trkpt lat="43.6068075" lon="6.7777786"><ele>198.2857142857143</ele><time>2026-04-12T06:52:07.911Z</time></trkpt><trkpt lat="43.6068502" lon="6.7777029"><ele>198.0</ele><time>2026-04-12T06:52:08.911Z</time></trkpt><trkpt lat="43.6068874" lon="6.7776227"><ele>197.85714285714286</ele><time>2026-04-12T06:52:09.911Z</time></trkpt><trkpt lat="43.6069176" lon="6.7775359"><ele>197.7142857142857</ele><time>2026-04-12T06:52:10.91Z</time></trkpt><trkpt lat="43.6069409" lon="6.7774387"><ele>197.57142857142856</ele><time>2026-04-12T06:52:11.91Z</time></trkpt><trkpt lat="43.6069639" lon="6.7773465"><ele>197.42857142857144</ele><time>2026-04-12T06:52:12.91Z</time></trkpt><trkpt lat="43.6069837" lon="6.777259"><ele>197.28571428571428</ele><time>2026-04-12T06:52:13.911Z</time></trkpt><trkpt lat="43.6070129" lon="6.7771735"><ele>197.14285714285714</ele><time>2026-04-12T06:52:14.911Z</time></trkpt><trkpt lat="43.6070547" lon="6.7771033"><ele>197.0</ele><time>2026-04-12T06:52:15.91Z</time></trkpt><trkpt lat="43.6071012" lon="6.7770414"><ele>197.66666666666669</ele><time>2026-04-12T06:52:16.91Z</time></trkpt><trkpt lat="43.6071544" lon="6.7769901"><ele>198.33333333333334</ele><time>2026-04-12T06:52:17.911Z</time></trkpt><trkpt lat="43.6072228" lon="6.7769595"><ele>199.0</ele><time>2026-04-12T06:52:18.911Z</time></trkpt><trkpt lat="43.6072875" lon="6.7769288"><ele>199.66666666666669</ele><time>2026-04-12T06:52:19.912Z</time></trkpt><trkpt lat="43.607384" lon="6.7768394"><ele>200.33333333333334</ele><time>2026-04-12T06:52:21.911Z</time></trkpt><trkpt lat="43.6074482" lon="6.7767185"><ele>201.0</ele><time>2026-04-12T06:52:23.911Z</time></trkpt><trkpt lat="43.6075138" lon="6.7765957"><ele>201.0</ele><time>2026-04-12T06:52:25.911Z</time></trkpt><trkpt lat="43.6075808" lon="6.7764864"><ele>201.0</ele><time>2026-04-12T06:52:27.911Z</time></trkpt><trkpt lat="43.6076419" lon="6.7763824"><ele>201.0</ele><time>2026-04-12T06:52:29.911Z</time></trkpt><trkpt lat="43.607704" lon="6.7762674"><ele>201.0</ele><time>2026-04-12T06:52:31.911Z</time></trkpt><trkpt lat="43.6077639" lon="6.7761571"><ele>201.0</ele><time>2026-04-12T06:52:33.912Z</time></trkpt><trkpt lat="43.6078235" lon="6.7760472"><ele>202.60000000000002</ele><time>2026-04-12T06:52:35.911Z</time></trkpt><trkpt lat="43.6078906" lon="6.7759399"><ele>204.2</ele><time>2026-04-12T06:52:37.911Z</time></trkpt><trkpt lat="43.6079588" lon="6.7758264"><ele>205.8</ele><time>2026-04-12T06:52:39.911Z</time></trkpt><trkpt lat="43.6080204" lon="6.7757137"><ele>207.39999999999998</ele><time>2026-04-12T06:52:41.911Z</time></trkpt><trkpt lat="43.608081" lon="6.7756111"><ele>209.0</ele><time>2026-04-12T06:52:43.911Z</time></trkpt><trkpt lat="43.6081367" lon="6.7755155"><ele>209.00000000000003</ele><time>2026-04-12T06:52:45.911Z</time></trkpt><trkpt lat="43.608189" lon="6.7754272"><ele>209.0</ele><time>2026-04-12T06:52:47.912Z</time></trkpt><trkpt lat="43.6082413" lon="6.7753448"><ele>209.0</ele><time>2026-04-12T06:52:49.911Z</time></trkpt><trkpt lat="43.6082875" lon="6.7752508"><ele>209.0</ele><time>2026-04-12T06:52:51.911Z</time></trkpt><trkpt lat="43.6083321" lon="6.7751619"><ele>209.00000000000003</ele><time>2026-04-12T06:52:53.911Z</time></trkpt><trkpt lat="43.6083883" lon="6.7750893"><ele>209.0</ele><time>2026-04-12T06:52:55.911Z</time></trkpt><trkpt lat="43.6084394" lon="6.7750136"><ele>209.0</ele><time>2026-04-12T06:52:57.911Z</time></trkpt><trkpt lat="43.60848" lon="6.774938"><ele>209.0</ele><time>2026-04-12T06:52:59.911Z</time></trkpt><trkpt lat="43.6085096" lon="6.7748508"><ele>209.0</ele><time>2026-04-12T06:53:01.911Z</time></trkpt><trkpt lat="43.6085454" lon="6.7747653"><ele>209.0</ele><time>2026-04-12T06:53:03.911Z</time></trkpt><trkpt lat="43.6086001" lon="6.774691"><ele>209.0</ele><time>2026-04-12T06:53:05.911Z</time></trkpt><trkpt lat="43.6086453" lon="6.7746158"><ele>209.0</ele><time>2026-04-12T06:53:07.913Z</time></trkpt><trkpt lat="43.6086905" lon="6.7745405"><ele>209.0</ele><time>2026-04-12T06:53:09.912Z</time></trkpt><trkpt lat="43.6087337" lon="6.7744633"><ele>210.66666666666669</ele><time>2026-04-12T06:53:11.912Z</time></trkpt><trkpt lat="43.6087859" lon="6.7743918"><ele>212.33333333333334</ele><time>2026-04-12T06:53:13.912Z</time></trkpt><trkpt lat="43.608837" lon="6.7742843"><ele>214.0</ele><time>2026-04-12T06:53:16.912Z</time></trkpt><trkpt lat="43.6088787" lon="6.7742095"><ele>215.66666666666669</ele><time>2026-04-12T06:53:18.912Z</time></trkpt><trkpt lat="43.6089334" lon="6.7741157"><ele>217.33333333333334</ele><time>2026-04-12T06:53:21.912Z</time></trkpt><trkpt lat="43.6089841" lon="6.7740259"><ele>219.0</ele><time>2026-04-12T06:53:24.912Z</time></trkpt><trkpt lat="43.6090259" lon="6.7739239"><ele>219.0</ele><time>2026-04-12T06:53:27.913Z</time></trkpt><trkpt lat="43.6090997" lon="6.7738681"><ele>219.0</ele><time>2026-04-12T06:53:30.912Z</time></trkpt><trkpt lat="43.609168" lon="6.7738595"><ele>219.0</ele><time>2026-04-12T06:53:32.912Z</time></trkpt><trkpt lat="43.6092246" lon="6.7739114"><ele>219.0</ele><time>2026-04-12T06:53:34.912Z</time></trkpt><trkpt lat="43.6092632" lon="6.7739911"><ele>219.0</ele><time>2026-04-12T06:53:36.912Z</time></trkpt><trkpt lat="43.6093238" lon="6.7740829"><ele>219.0</ele><time>2026-04-12T06:53:39.913Z</time></trkpt><trkpt lat="43.6093747" lon="6.7741536"><ele>219.0</ele><time>2026-04-12T06:53:42.912Z</time></trkpt><trkpt lat="43.6094333" lon="6.7742493"><ele>219.0</ele><time>2026-04-12T06:53:45.912Z</time></trkpt><trkpt lat="43.6094881" lon="6.7743449"><ele>219.0</ele><time>2026-04-12T06:53:48.912Z</time></trkpt><trkpt lat="43.6095449" lon="6.7744357"><ele>219.0</ele><time>2026-04-12T06:53:51.913Z</time></trkpt><trkpt lat="43.6095929" lon="6.7745175"><ele>219.0</ele><time>2026-04-12T06:53:54.913Z</time></trkpt><trkpt lat="43.6096368" lon="6.7745949"><ele>219.0</ele><time>2026-04-12T06:53:57.913Z</time></trkpt><trkpt lat="43.6096868" lon="6.7746799"><ele>221.5</ele><time>2026-04-12T06:54:00.913Z</time></trkpt><trkpt lat="43.6097283" lon="6.7747622"><ele>224.0</ele><time>2026-04-12T06:54:03.913Z</time></trkpt><trkpt lat="43.6097763" lon="6.7748677"><ele>226.5</ele><time>2026-04-12T06:54:06.913Z</time></trkpt><trkpt lat="43.6098115" lon="6.7749643"><ele>229.0</ele><time>2026-04-12T06:54:09.914Z</time></trkpt><trkpt lat="43.6098381" lon="6.7750606"><ele>231.5</ele><time>2026-04-12T06:54:12.914Z</time></trkpt><trkpt lat="43.6098703" lon="6.775157"><ele>234.0</ele><time>2026-04-12T06:54:15.913Z</time></trkpt><trkpt lat="43.6099011" lon="6.7752695"><ele>234.0</ele><time>2026-04-12T06:54:18.913Z</time></trkpt><trkpt lat="43.6099323" lon="6.7753696"><ele>234.0</ele><time>2026-04-12T06:54:21.913Z</time></trkpt><trkpt lat="43.6099604" lon="6.7754772"><ele>234.0</ele><time>2026-04-12T06:54:24.913Z</time></trkpt><trkpt lat="43.6099907" lon="6.7755755"><ele>234.0</ele><time>2026-04-12T06:54:27.914Z</time></trkpt><trkpt lat="43.6100216" lon="6.7756863"><ele>234.0</ele><time>2026-04-12T06:54:30.913Z</time></trkpt><trkpt lat="43.6100533" lon="6.7757982"><ele>234.0</ele><time>2026-04-12T06:54:33.913Z</time></trkpt><trkpt lat="43.6100929" lon="6.7758891"><ele>234.0</ele><time>2026-04-12T06:54:36.913Z</time></trkpt><trkpt lat="43.6101246" lon="6.7759983"><ele>234.0</ele><time>2026-04-12T06:54:39.914Z</time></trkpt><trkpt lat="43.6101359" lon="6.7761045"><ele>234.0</ele><time>2026-04-12T06:54:42.914Z</time></trkpt><trkpt lat="43.6101517" lon="6.7762103"><ele>234.0</ele><time>2026-04-12T06:54:45.914Z</time></trkpt><trkpt lat="43.6101743" lon="6.7763045"><ele>234.0</ele><time>2026-04-12T06:54:48.914Z</time></trkpt><trkpt lat="43.6101717" lon="6.7764036"><ele>234.0</ele><time>2026-04-12T06:54:51.914Z</time></trkpt><trkpt lat="43.6101844" lon="6.776513"><ele>234.16666666666666</ele><time>2026-04-12T06:54:54.914Z</time></trkpt><trkpt lat="43.6102091" lon="6.7766133"><ele>234.33333333333331</ele><time>2026-04-12T06:54:57.915Z</time></trkpt><trkpt lat="43.6102429" lon="6.7767024"><ele>234.5</ele><time>2026-04-12T06:55:00.914Z</time></trkpt><trkpt lat="43.6102815" lon="6.7767782"><ele>234.66666666666666</ele><time>2026-04-12T06:55:03.915Z</time></trkpt><trkpt lat="43.610344" lon="6.7768496"><ele>234.83333333333331</ele><time>2026-04-12T06:55:06.914Z</time></trkpt><trkpt lat="43.6104178" lon="6.7769213"><ele>235.0</ele><time>2026-04-12T06:55:09.914Z</time></trkpt><trkpt lat="43.6104955" lon="6.7769517"><ele>234.99999999999997</ele><time>2026-04-12T06:55:12.914Z</time></trkpt><trkpt lat="43.6105855" lon="6.7769629"><ele>235.0</ele><time>2026-04-12T06:55:15.915Z</time></trkpt><trkpt lat="43.6106658" lon="6.7769395"><ele>235.0</ele><time>2026-04-12T06:55:18.914Z</time></trkpt><trkpt lat="43.6107356" lon="6.7768658"><ele>235.0</ele><time>2026-04-12T06:55:21.915Z</time></trkpt><trkpt lat="43.6107709" lon="6.7767929"><ele>234.99999999999997</ele><time>2026-04-12T06:55:23.915Z</time></trkpt><trkpt lat="43.6107803" lon="6.7766886"><ele>235.0</ele><time>2026-04-12T06:55:26.915Z</time></trkpt><trkpt lat="43.6107293" lon="6.7765904"><ele>237.33333333333331</ele><time>2026-04-12T06:55:29.915Z</time></trkpt><trkpt lat="43.6106721" lon="6.7765054"><ele>239.66666666666666</ele><time>2026-04-12T06:55:32.915Z</time></trkpt><trkpt lat="43.6106315" lon="6.7764349"><ele>242.0</ele><time>2026-04-12T06:55:34.915Z</time></trkpt><trkpt lat="43.6105939" lon="6.7763325"><ele>244.33333333333331</ele><time>2026-04-12T06:55:37.915Z</time></trkpt><trkpt lat="43.6105793" lon="6.7762303"><ele>246.66666666666666</ele><time>2026-04-12T06:55:40.915Z</time></trkpt><trkpt lat="43.610577" lon="6.7761137"><ele>249.0</ele><time>2026-04-12T06:55:43.915Z</time></trkpt><trkpt lat="43.6105698" lon="6.7759936"><ele>250.16666666666666</ele><time>2026-04-12T06:55:46.915Z</time></trkpt><trkpt lat="43.6105895" lon="6.7758868"><ele>251.33333333333331</ele><time>2026-04-12T06:55:49.915Z</time></trkpt><trkpt lat="43.6105969" lon="6.7757797"><ele>252.5</ele><time>2026-04-12T06:55:52.915Z</time></trkpt><trkpt lat="43.6106257" lon="6.7756846"><ele>253.66666666666666</ele><time>2026-04-12T06:55:55.915Z</time></trkpt><trkpt lat="43.6106691" lon="6.775584"><ele>254.83333333333331</ele><time>2026-04-12T06:55:58.915Z</time></trkpt><trkpt lat="43.6107155" lon="6.7754978"><ele>256.0</ele><time>2026-04-12T06:56:01.915Z</time></trkpt><trkpt lat="43.610756" lon="6.7754105"><ele>255.99999999999997</ele><time>2026-04-12T06:56:05.916Z</time></trkpt><trkpt lat="43.6108055" lon="6.7753243"><ele>256.0</ele><time>2026-04-12T06:56:09.916Z</time></trkpt><trkpt lat="43.6108566" lon="6.775253"><ele>256.0</ele><time>2026-04-12T06:56:12.916Z</time></trkpt><trkpt lat="43.6108972" lon="6.7751843"><ele>256.0</ele><time>2026-04-12T06:56:15.916Z</time></trkpt><trkpt lat="43.6109494" lon="6.7751043"><ele>255.99999999999997</ele><time>2026-04-12T06:56:18.916Z</time></trkpt><trkpt lat="43.6110077" lon="6.7750269"><ele>256.0</ele><time>2026-04-12T06:56:21.916Z</time></trkpt><trkpt lat="43.6110716" lon="6.7749683"><ele>255.49999999999997</ele><time>2026-04-12T06:56:24.916Z</time></trkpt><trkpt lat="43.6111462" lon="6.7749122"><ele>255.0</ele><time>2026-04-12T06:56:27.916Z</time></trkpt><trkpt lat="43.6112125" lon="6.7748647"><ele>254.5</ele><time>2026-04-12T06:56:30.916Z</time></trkpt><trkpt lat="43.6112845" lon="6.7748252"><ele>254.0</ele><time>2026-04-12T06:56:33.916Z</time></trkpt><trkpt lat="43.6113607" lon="6.7747879"><ele>253.49999999999997</ele><time>2026-04-12T06:56:36.916Z</time></trkpt><trkpt lat="43.6114411" lon="6.7747555"><ele>253.0</ele><time>2026-04-12T06:56:39.916Z</time></trkpt><trkpt lat="43.6115208" lon="6.7747232"><ele>253.5714285714286</ele><time>2026-04-12T06:56:42.916Z</time></trkpt><trkpt lat="43.6115872" lon="6.7746872"><ele>254.14285714285717</ele><time>2026-04-12T06:56:45.916Z</time></trkpt><trkpt lat="43.6116599" lon="6.7746524"><ele>254.71428571428572</ele><time>2026-04-12T06:56:48.917Z</time></trkpt><trkpt lat="43.6117221" lon="6.7746"><ele>255.2857142857143</ele><time>2026-04-12T06:56:51.917Z</time></trkpt><trkpt lat="43.6117817" lon="6.7745464"><ele>255.8571428571429</ele><time>2026-04-12T06:56:54.917Z</time></trkpt><trkpt lat="43.6118356" lon="6.7744858"><ele>256.42857142857144</ele><time>2026-04-12T06:56:57.917Z</time></trkpt><trkpt lat="43.6118951" lon="6.7744102"><ele>257.0</ele><time>2026-04-12T06:57:00.917Z</time></trkpt><trkpt lat="43.6119696" lon="6.7743367"><ele>260.0</ele><time>2026-04-12T06:57:04.917Z</time></trkpt><trkpt lat="43.6120339" lon="6.7742852"><ele>263.0</ele><time>2026-04-12T06:57:07.917Z</time></trkpt><trkpt lat="43.6120957" lon="6.7742222"><ele>266.0</ele><time>2026-04-12T06:57:10.917Z</time></trkpt><trkpt lat="43.6121506" lon="6.7741454"><ele>269.0</ele><time>2026-04-12T06:57:14.917Z</time></trkpt><trkpt lat="43.612204" lon="6.7740932"><ele>272.0</ele><time>2026-04-12T06:57:17.917Z</time></trkpt><trkpt lat="43.6122653" lon="6.7740324"><ele>275.0</ele><time>2026-04-12T06:57:20.918Z</time></trkpt><trkpt lat="43.6123335" lon="6.7739733"><ele>275.0</ele><time>2026-04-12T06:57:24.917Z</time></trkpt><trkpt lat="43.6124021" lon="6.773916"><ele>275.0</ele><time>2026-04-12T06:57:28.917Z</time></trkpt><trkpt lat="43.6124668" lon="6.7738628"><ele>275.0</ele><time>2026-04-12T06:57:31.918Z</time></trkpt><trkpt lat="43.6125236" lon="6.7738146"><ele>275.0</ele><time>2026-04-12T06:57:34.918Z</time></trkpt><trkpt lat="43.6125815" lon="6.7737609"><ele>275.0</ele><time>2026-04-12T06:57:38.918Z</time></trkpt><trkpt lat="43.6126626" lon="6.7737199"><ele>275.0</ele><time>2026-04-12T06:57:42.918Z</time></trkpt><trkpt lat="43.6127332" lon="6.7736913"><ele>275.0</ele><time>2026-04-12T06:57:45.918Z</time></trkpt><trkpt lat="43.612815" lon="6.773652"><ele>275.0</ele><time>2026-04-12T06:57:49.918Z</time></trkpt><trkpt lat="43.6128866" lon="6.773608"><ele>275.0</ele><time>2026-04-12T06:57:52.918Z</time></trkpt><trkpt lat="43.6129613" lon="6.7735556"><ele>275.0</ele><time>2026-04-12T06:57:55.919Z</time></trkpt><trkpt lat="43.6130388" lon="6.7735386"><ele>275.0</ele><time>2026-04-12T06:57:59.918Z</time></trkpt><trkpt lat="43.6130934" lon="6.7734882"><ele>275.0</ele><time>2026-04-12T06:58:02.918Z</time></trkpt><trkpt lat="43.6131645" lon="6.7734251"><ele>276.42857142857144</ele><time>2026-04-12T06:58:05.919Z</time></trkpt><trkpt lat="43.6132317" lon="6.7734032"><ele>277.85714285714283</ele><time>2026-04-12T06:58:08.918Z</time></trkpt><trkpt lat="43.6133064" lon="6.7733622"><ele>279.2857142857143</ele><time>2026-04-12T06:58:12.918Z</time></trkpt><trkpt lat="43.6133771" lon="6.7733222"><ele>280.7142857142857</ele><time>2026-04-12T06:58:15.918Z</time></trkpt><trkpt lat="43.6134467" lon="6.7732892"><ele>282.14285714285717</ele><time>2026-04-12T06:58:18.918Z</time></trkpt><trkpt lat="43.6135106" lon="6.7732507"><ele>283.57142857142856</ele><time>2026-04-12T06:58:21.92Z</time></trkpt><trkpt lat="43.6135831" lon="6.7732138"><ele>285.0</ele><time>2026-04-12T06:58:24.919Z</time></trkpt><trkpt lat="43.613675" lon="6.7731893"><ele>286.6666666666667</ele><time>2026-04-12T06:58:27.919Z</time></trkpt><trkpt lat="43.6137533" lon="6.7731792"><ele>288.3333333333333</ele><time>2026-04-12T06:58:30.919Z</time></trkpt><trkpt lat="43.6138164" lon="6.7731491"><ele>290.0</ele><time>2026-04-12T06:58:33.919Z</time></trkpt><trkpt lat="43.6138856" lon="6.773116"><ele>291.66666666666663</ele><time>2026-04-12T06:58:36.919Z</time></trkpt><trkpt lat="43.6139664" lon="6.7730898"><ele>293.3333333333333</ele><time>2026-04-12T06:58:39.919Z</time></trkpt><trkpt lat="43.6140449" lon="6.7730873"><ele>295.0</ele><time>2026-04-12T06:58:42.92Z</time></trkpt><trkpt lat="43.6141192" lon="6.7730528"><ele>295.0</ele><time>2026-04-12T06:58:45.919Z</time></trkpt><trkpt lat="43.6141936" lon="6.7730138"><ele>295.0</ele><time>2026-04-12T06:58:48.92Z</time></trkpt><trkpt lat="43.6142661" lon="6.7729729"><ele>295.0</ele><time>2026-04-12T06:58:51.919Z</time></trkpt><trkpt lat="43.6143267" lon="6.7729269"><ele>295.0</ele><time>2026-04-12T06:58:54.919Z</time></trkpt><trkpt lat="43.6144035" lon="6.7728849"><ele>295.0</ele><time>2026-04-12T06:58:57.919Z</time></trkpt><trkpt lat="43.614476" lon="6.772833"><ele>295.0</ele><time>2026-04-12T06:59:00.919Z</time></trkpt><trkpt lat="43.6145478" lon="6.7727921"><ele>296.16666666666663</ele><time>2026-04-12T06:59:03.92Z</time></trkpt><trkpt lat="43.6146222" lon="6.772738"><ele>297.3333333333333</ele><time>2026-04-12T06:59:06.92Z</time></trkpt><trkpt lat="43.6146873" lon="6.772688"><ele>298.5</ele><time>2026-04-12T06:59:09.92Z</time></trkpt><trkpt lat="43.6147432" lon="6.7726307"><ele>299.6666666666667</ele><time>2026-04-12T06:59:12.92Z</time></trkpt><trkpt lat="43.6148144" lon="6.7725675"><ele>300.83333333333337</ele><time>2026-04-12T06:59:15.92Z</time></trkpt><trkpt lat="43.6148836" lon="6.772485"><ele>302.0</ele><time>2026-04-12T06:59:18.92Z</time></trkpt><trkpt lat="43.6149262" lon="6.772384"><ele>302.0</ele><time>2026-04-12T06:59:21.92Z</time></trkpt><trkpt lat="43.6149757" lon="6.772281"><ele>302.0</ele><time>2026-04-12T06:59:24.92Z</time></trkpt><trkpt lat="43.6150245" lon="6.7721837"><ele>302.0</ele><time>2026-04-12T06:59:27.92Z</time></trkpt><trkpt lat="43.6150732" lon="6.7720991"><ele>302.0</ele><time>2026-04-12T06:59:30.92Z</time></trkpt><trkpt lat="43.6151286" lon="6.7720291"><ele>302.0</ele><time>2026-04-12T06:59:33.92Z</time></trkpt><trkpt lat="43.615199" lon="6.771957"><ele>302.0</ele><time>2026-04-12T06:59:36.92Z</time></trkpt><trkpt lat="43.6152709" lon="6.771877"><ele>304.6666666666667</ele><time>2026-04-12T06:59:39.92Z</time></trkpt><trkpt lat="43.6153388" lon="6.771806"><ele>307.33333333333337</ele><time>2026-04-12T06:59:42.92Z</time></trkpt><trkpt lat="43.6153999" lon="6.7717268"><ele>310.0</ele><time>2026-04-12T06:59:45.92Z</time></trkpt><trkpt lat="43.6154568" lon="6.7716492"><ele>312.6666666666667</ele><time>2026-04-12T06:59:48.921Z</time></trkpt><trkpt lat="43.61551" lon="6.7715593"><ele>315.3333333333333</ele><time>2026-04-12T06:59:51.921Z</time></trkpt><trkpt lat="43.6155636" lon="6.7714627"><ele>318.0</ele><time>2026-04-12T06:59:54.921Z</time></trkpt><trkpt lat="43.6156198" lon="6.7713608"><ele>318.0</ele><time>2026-04-12T06:59:57.921Z</time></trkpt><trkpt lat="43.6156568" lon="6.7712902"><ele>318.0</ele><time>2026-04-12T06:59:59.921Z</time></trkpt><trkpt lat="43.6156965" lon="6.7712169"><ele>318.0</ele><time>2026-04-12T07:00:01.921Z</time></trkpt><trkpt lat="43.6157291" lon="6.7711415"><ele>318.0</ele><time>2026-04-12T07:00:03.922Z</time></trkpt><trkpt lat="43.6157768" lon="6.7710382"><ele>318.0</ele><time>2026-04-12T07:00:06.921Z</time></trkpt><trkpt lat="43.6158207" lon="6.770925"><ele>318.0</ele><time>2026-04-12T07:00:09.921Z</time></trkpt><trkpt lat="43.6158478" lon="6.7708375"><ele>318.0</ele><time>2026-04-12T07:00:11.921Z</time></trkpt><trkpt lat="43.6158743" lon="6.7707516"><ele>316.7142857142857</ele><time>2026-04-12T07:00:13.921Z</time></trkpt><trkpt lat="43.6158999" lon="6.7706647"><ele>315.42857142857144</ele><time>2026-04-12T07:00:15.921Z</time></trkpt><trkpt lat="43.615924" lon="6.7705737"><ele>314.14285714285717</ele><time>2026-04-12T07:00:17.921Z</time></trkpt><trkpt lat="43.6159458" lon="6.7704817"><ele>312.8571428571429</ele><time>2026-04-12T07:00:19.921Z</time></trkpt><trkpt lat="43.6159648" lon="6.7703929"><ele>311.57142857142856</ele><time>2026-04-12T07:00:21.921Z</time></trkpt><trkpt lat="43.6159914" lon="6.7702692"><ele>310.28571428571433</ele><time>2026-04-12T07:00:24.921Z</time></trkpt><trkpt lat="43.6160099" lon="6.7701858"><ele>309.0</ele><time>2026-04-12T07:00:26.922Z</time></trkpt><trkpt lat="43.6160274" lon="6.7700973"><ele>308.5714285714286</ele><time>2026-04-12T07:00:28.921Z</time></trkpt><trkpt lat="43.6160422" lon="6.7700077"><ele>308.14285714285717</ele><time>2026-04-12T07:00:30.922Z</time></trkpt><trkpt lat="43.6160613" lon="6.7699186"><ele>307.7142857142857</ele><time>2026-04-12T07:00:32.921Z</time></trkpt><trkpt lat="43.6160808" lon="6.7698317"><ele>307.28571428571433</ele><time>2026-04-12T07:00:34.922Z</time></trkpt><trkpt lat="43.6161091" lon="6.769751"><ele>306.8571428571429</ele><time>2026-04-12T07:00:36.922Z</time></trkpt><trkpt lat="43.6161393" lon="6.76967"><ele>306.42857142857144</ele><time>2026-04-12T07:00:38.922Z</time></trkpt><trkpt lat="43.6161679" lon="6.7695881"><ele>306.0</ele><time>2026-04-12T07:00:40.922Z</time></trkpt><trkpt lat="43.6161954" lon="6.7695057"><ele>308.57142857142856</ele><time>2026-04-12T07:00:42.922Z</time></trkpt><trkpt lat="43.6162315" lon="6.7693857"><ele>311.14285714285717</ele><time>2026-04-12T07:00:45.922Z</time></trkpt><trkpt lat="43.6162669" lon="6.769307"><ele>313.7142857142857</ele><time>2026-04-12T07:00:47.922Z</time></trkpt><trkpt lat="43.616308" lon="6.7692292"><ele>316.2857142857143</ele><time>2026-04-12T07:00:49.922Z</time></trkpt><trkpt lat="43.6163541" lon="6.7691593"><ele>318.85714285714283</ele><time>2026-04-12T07:00:51.922Z</time></trkpt><trkpt lat="43.6164029" lon="6.769097"><ele>321.42857142857144</ele><time>2026-04-12T07:00:53.923Z</time></trkpt><trkpt lat="43.6164502" lon="6.7690365"><ele>324.0</ele><time>2026-04-12T07:00:55.922Z</time></trkpt><trkpt lat="43.6164983" lon="6.7689752"><ele>324.0</ele><time>2026-04-12T07:00:57.922Z</time></trkpt><trkpt lat="43.6165472" lon="6.7689132"><ele>324.0</ele><time>2026-04-12T07:00:59.922Z</time></trkpt><trkpt lat="43.6165915" lon="6.7688476"><ele>324.0</ele><time>2026-04-12T07:01:01.922Z</time></trkpt><trkpt lat="43.6166363" lon="6.7687786"><ele>324.0</ele><time>2026-04-12T07:01:03.923Z</time></trkpt><trkpt lat="43.6166962" lon="6.7686804"><ele>324.0</ele><time>2026-04-12T07:01:06.923Z</time></trkpt><trkpt lat="43.6167551" lon="6.7685846"><ele>324.0</ele><time>2026-04-12T07:01:09.922Z</time></trkpt><trkpt lat="43.6168101" lon="6.7684882"><ele>322.3333333333333</ele><time>2026-04-12T07:01:12.922Z</time></trkpt><trkpt lat="43.616863" lon="6.7683921"><ele>320.6666666666667</ele><time>2026-04-12T07:01:15.923Z</time></trkpt><trkpt lat="43.6169117" lon="6.7682914"><ele>319.0</ele><time>2026-04-12T07:01:18.923Z</time></trkpt><trkpt lat="43.6169671" lon="6.7682072"><ele>317.33333333333337</ele><time>2026-04-12T07:01:21.923Z</time></trkpt><trkpt lat="43.617023" lon="6.7681209"><ele>315.6666666666667</ele><time>2026-04-12T07:01:24.923Z</time></trkpt><trkpt lat="43.6170755" lon="6.7680298"><ele>314.0</ele><time>2026-04-12T07:01:27.923Z</time></trkpt><trkpt lat="43.6171118" lon="6.7679295"><ele>318.83333333333337</ele><time>2026-04-12T07:01:30.923Z</time></trkpt><trkpt lat="43.6171319" lon="6.7678147"><ele>323.6666666666667</ele><time>2026-04-12T07:01:33.923Z</time></trkpt><trkpt lat="43.6171436" lon="6.7676978"><ele>328.5</ele><time>2026-04-12T07:01:36.924Z</time></trkpt><trkpt lat="43.6171604" lon="6.7675902"><ele>333.3333333333333</ele><time>2026-04-12T07:01:39.923Z</time></trkpt><trkpt lat="43.6171665" lon="6.7674831"><ele>338.16666666666663</ele><time>2026-04-12T07:01:42.923Z</time></trkpt><trkpt lat="43.6171735" lon="6.767391"><ele>343.0</ele><time>2026-04-12T07:01:45.924Z</time></trkpt><trkpt lat="43.6171852" lon="6.7672851"><ele>343.0</ele><time>2026-04-12T07:01:48.923Z</time></trkpt><trkpt lat="43.617183" lon="6.7671814"><ele>343.0</ele><time>2026-04-12T07:01:51.923Z</time></trkpt><trkpt lat="43.617181" lon="6.7670761"><ele>343.0</ele><time>2026-04-12T07:01:54.923Z</time></trkpt><trkpt lat="43.6171807" lon="6.7669732"><ele>343.0</ele><time>2026-04-12T07:01:57.923Z</time></trkpt><trkpt lat="43.6171819" lon="6.7668637"><ele>343.0</ele><time>2026-04-12T07:02:00.923Z</time></trkpt><trkpt lat="43.6171844" lon="6.7667608"><ele>343.0</ele><time>2026-04-12T07:02:03.924Z</time></trkpt><trkpt lat="43.6171862" lon="6.7666558"><ele>343.42857142857144</ele><time>2026-04-12T07:02:06.924Z</time></trkpt><trkpt lat="43.6171953" lon="6.7665579"><ele>343.8571428571429</ele><time>2026-04-12T07:02:09.924Z</time></trkpt><trkpt lat="43.6172002" lon="6.7664576"><ele>344.2857142857143</ele><time>2026-04-12T07:02:12.924Z</time></trkpt><trkpt lat="43.6172011" lon="6.7663552"><ele>344.7142857142857</ele><time>2026-04-12T07:02:15.924Z</time></trkpt><trkpt lat="43.6172118" lon="6.7662411"><ele>345.14285714285717</ele><time>2026-04-12T07:02:18.924Z</time></trkpt><trkpt lat="43.6172175" lon="6.7661464"><ele>345.57142857142856</ele><time>2026-04-12T07:02:21.925Z</time></trkpt><trkpt lat="43.6172338" lon="6.7660508"><ele>346.0</ele><time>2026-04-12T07:02:24.924Z</time></trkpt><trkpt lat="43.6172524" lon="6.7659527"><ele>346.16666666666663</ele><time>2026-04-12T07:02:27.924Z</time></trkpt><trkpt lat="43.61728" lon="6.765862"><ele>346.3333333333333</ele><time>2026-04-12T07:02:30.924Z</time></trkpt><trkpt lat="43.6173188" lon="6.7657586"><ele>346.5</ele><time>2026-04-12T07:02:33.924Z</time></trkpt><trkpt lat="43.6173575" lon="6.7656702"><ele>346.6666666666667</ele><time>2026-04-12T07:02:36.924Z</time></trkpt><trkpt lat="43.6173918" lon="6.7655786"><ele>346.83333333333337</ele><time>2026-04-12T07:02:39.925Z</time></trkpt><trkpt lat="43.617446" lon="6.7655017"><ele>347.0</ele><time>2026-04-12T07:02:42.924Z</time></trkpt><trkpt lat="43.6174907" lon="6.7654208"><ele>347.0</ele><time>2026-04-12T07:02:45.925Z</time></trkpt><trkpt lat="43.6175242" lon="6.7653342"><ele>347.0</ele><time>2026-04-12T07:02:48.924Z</time></trkpt><trkpt lat="43.6175489" lon="6.7652484"><ele>347.0</ele><time>2026-04-12T07:02:51.925Z</time></trkpt><trkpt lat="43.6175588" lon="6.7651558"><ele>347.0</ele><time>2026-04-12T07:02:54.925Z</time></trkpt><trkpt lat="43.6175436" lon="6.7650511"><ele>347.0</ele><time>2026-04-12T07:02:57.926Z</time></trkpt><trkpt lat="43.6175189" lon="6.7649308"><ele>347.0</ele><time>2026-04-12T07:03:00.925Z</time></trkpt><trkpt lat="43.6174817" lon="6.7648342"><ele>347.0</ele><time>2026-04-12T07:03:03.925Z</time></trkpt><trkpt lat="43.6174472" lon="6.7647313"><ele>347.0</ele><time>2026-04-12T07:03:06.925Z</time></trkpt><trkpt lat="43.6174167" lon="6.7646339"><ele>347.0</ele><time>2026-04-12T07:03:09.925Z</time></trkpt><trkpt lat="43.6173946" lon="6.7645384"><ele>347.0</ele><time>2026-04-12T07:03:12.926Z</time></trkpt><trkpt lat="43.6173895" lon="6.7644431"><ele>347.0</ele><time>2026-04-12T07:03:15.925Z</time></trkpt><trkpt lat="43.6173875" lon="6.7643465"><ele>347.0</ele><time>2026-04-12T07:03:18.925Z</time></trkpt><trkpt lat="43.6173953" lon="6.7642499"><ele>347.0</ele><time>2026-04-12T07:03:21.925Z</time></trkpt><trkpt lat="43.6174141" lon="6.7641452"><ele>347.0</ele><time>2026-04-12T07:03:24.927Z</time></trkpt><trkpt lat="43.6174651" lon="6.7640795"><ele>347.0</ele><time>2026-04-12T07:03:27.925Z</time></trkpt><trkpt lat="43.6175228" lon="6.7641225"><ele>347.0</ele><time>2026-04-12T07:03:30.926Z</time></trkpt><trkpt lat="43.6175535" lon="6.7642085"><ele>347.0</ele><time>2026-04-12T07:03:33.926Z</time></trkpt><trkpt lat="43.6175822" lon="6.7643005"><ele>347.0</ele><time>2026-04-12T07:03:36.926Z</time></trkpt><trkpt lat="43.6176241" lon="6.7643814"><ele>347.0</ele><time>2026-04-12T07:03:39.926Z</time></trkpt><trkpt lat="43.6177084" lon="6.7644169"><ele>347.0</ele><time>2026-04-12T07:03:42.926Z</time></trkpt><trkpt lat="43.6177971" lon="6.7644091"><ele>349.0</ele><time>2026-04-12T07:03:45.926Z</time></trkpt><trkpt lat="43.6178609" lon="6.7644198"><ele>351.0</ele><time>2026-04-12T07:03:47.926Z</time></trkpt><trkpt lat="43.6179259" lon="6.7644915"><ele>353.0</ele><time>2026-04-12T07:03:49.926Z</time></trkpt><trkpt lat="43.6179589" lon="6.7646065"><ele>355.0</ele><time>2026-04-12T07:03:51.926Z</time></trkpt><trkpt lat="43.6179962" lon="6.7647381"><ele>357.0</ele><time>2026-04-12T07:03:53.927Z</time></trkpt><trkpt lat="43.6180289" lon="6.7648669"><ele>359.0</ele><time>2026-04-12T07:03:55.926Z</time></trkpt><trkpt lat="43.6180603" lon="6.764985"><ele>359.0</ele><time>2026-04-12T07:03:57.926Z</time></trkpt><trkpt lat="43.6180947" lon="6.7650896"><ele>359.0</ele><time>2026-04-12T07:03:59.926Z</time></trkpt><trkpt lat="43.618127" lon="6.7651991"><ele>359.0</ele><time>2026-04-12T07:04:01.927Z</time></trkpt><trkpt lat="43.6181541" lon="6.7652878"><ele>359.0</ele><time>2026-04-12T07:04:03.926Z</time></trkpt><trkpt lat="43.6182143" lon="6.7653192"><ele>359.0</ele><time>2026-04-12T07:04:05.927Z</time></trkpt><trkpt lat="43.618304" lon="6.7652988"><ele>359.0</ele><time>2026-04-12T07:04:07.927Z</time></trkpt><trkpt lat="43.6183755" lon="6.7652533"><ele>359.0</ele><time>2026-04-12T07:04:09.926Z</time></trkpt><trkpt lat="43.6184414" lon="6.7652178"><ele>359.0</ele><time>2026-04-12T07:04:11.926Z</time></trkpt><trkpt lat="43.6185221" lon="6.7651672"><ele>359.0</ele><time>2026-04-12T07:04:13.927Z</time></trkpt><trkpt lat="43.6185895" lon="6.7651251"><ele>359.0</ele><time>2026-04-12T07:04:15.927Z</time></trkpt><trkpt lat="43.6186733" lon="6.7650872"><ele>359.0</ele><time>2026-04-12T07:04:17.927Z</time></trkpt><trkpt lat="43.618783" lon="6.7650547"><ele>359.0</ele><time>2026-04-12T07:04:19.926Z</time></trkpt><trkpt lat="43.6189106" lon="6.7650076"><ele>358.8571428571429</ele><time>2026-04-12T07:04:21.927Z</time></trkpt><trkpt lat="43.6189767" lon="6.7649787"><ele>358.7142857142857</ele><time>2026-04-12T07:04:22.927Z</time></trkpt><trkpt lat="43.6190451" lon="6.7649672"><ele>358.57142857142856</ele><time>2026-04-12T07:04:23.927Z</time></trkpt><trkpt lat="43.6191064" lon="6.764995"><ele>358.42857142857144</ele><time>2026-04-12T07:04:24.927Z</time></trkpt><trkpt lat="43.6191338" lon="6.7650969"><ele>358.2857142857143</ele><time>2026-04-12T07:04:25.927Z</time></trkpt><trkpt lat="43.6191576" lon="6.7651965"><ele>358.14285714285717</ele><time>2026-04-12T07:04:26.927Z</time></trkpt><trkpt lat="43.6191788" lon="6.7652886"><ele>358.0</ele><time>2026-04-12T07:04:27.928Z</time></trkpt><trkpt lat="43.6192027" lon="6.7653857"><ele>358.0</ele><time>2026-04-12T07:04:28.927Z</time></trkpt><trkpt lat="43.6192216" lon="6.76548"><ele>358.0</ele><time>2026-04-12T07:04:29.927Z</time></trkpt><trkpt lat="43.6192402" lon="6.7655677"><ele>358.0</ele><time>2026-04-12T07:04:30.927Z</time></trkpt><trkpt lat="43.6192701" lon="6.7657352"><ele>358.0</ele><time>2026-04-12T07:04:32.927Z</time></trkpt><trkpt lat="43.6193068" lon="6.7658918"><ele>358.0</ele><time>2026-04-12T07:04:34.927Z</time></trkpt><trkpt lat="43.619342" lon="6.7660517"><ele>358.16666666666663</ele><time>2026-04-12T07:04:36.927Z</time></trkpt><trkpt lat="43.619365" lon="6.766146"><ele>358.3333333333333</ele><time>2026-04-12T07:04:37.927Z</time></trkpt><trkpt lat="43.6193774" lon="6.7662315"><ele>358.5</ele><time>2026-04-12T07:04:38.927Z</time></trkpt><trkpt lat="43.6194058" lon="6.7663118"><ele>358.6666666666667</ele><time>2026-04-12T07:04:39.928Z</time></trkpt><trkpt lat="43.6194423" lon="6.7663877"><ele>358.83333333333337</ele><time>2026-04-12T07:04:40.927Z</time></trkpt><trkpt lat="43.6194869" lon="6.7664504"><ele>359.0</ele><time>2026-04-12T07:04:41.928Z</time></trkpt><trkpt lat="43.6195978" lon="6.7665226"><ele>359.0</ele><time>2026-04-12T07:04:43.928Z</time></trkpt><trkpt lat="43.6196617" lon="6.7665332"><ele>359.0</ele><time>2026-04-12T07:04:44.927Z</time></trkpt><trkpt lat="43.6197864" lon="6.7665475"><ele>359.0</ele><time>2026-04-12T07:04:46.927Z</time></trkpt><trkpt lat="43.6199139" lon="6.7665183"><ele>359.0</ele><time>2026-04-12T07:04:48.927Z</time></trkpt><trkpt lat="43.6199827" lon="6.7664847"><ele>359.0</ele><time>2026-04-12T07:04:49.927Z</time></trkpt><trkpt lat="43.6200552" lon="6.7664548"><ele>359.0</ele><time>2026-04-12T07:04:50.927Z</time></trkpt><trkpt lat="43.6201287" lon="6.7664245"><ele>359.0</ele><time>2026-04-12T07:04:51.929Z</time></trkpt><trkpt lat="43.6201945" lon="6.7664048"><ele>359.0</ele><time>2026-04-12T07:04:52.928Z</time></trkpt><trkpt lat="43.6202694" lon="6.7663753"><ele>359.0</ele><time>2026-04-12T07:04:53.928Z</time></trkpt><trkpt lat="43.6203396" lon="6.766349"><ele>359.0</ele><time>2026-04-12T07:04:54.928Z</time></trkpt><trkpt lat="43.620407" lon="6.7663279"><ele>359.0</ele><time>2026-04-12T07:04:55.928Z</time></trkpt><trkpt lat="43.6204777" lon="6.766308"><ele>359.0</ele><time>2026-04-12T07:04:56.928Z</time></trkpt><trkpt lat="43.6205452" lon="6.7662846"><ele>360.14285714285717</ele><time>2026-04-12T07:04:57.928Z</time></trkpt><trkpt lat="43.6206116" lon="6.76626"><ele>361.28571428571433</ele><time>2026-04-12T07:04:58.928Z</time></trkpt><trkpt lat="43.6206765" lon="6.7662358"><ele>362.42857142857144</ele><time>2026-04-12T07:04:59.927Z</time></trkpt><trkpt lat="43.6207426" lon="6.766211"><ele>363.57142857142856</ele><time>2026-04-12T07:05:00.927Z</time></trkpt><trkpt lat="43.6208064" lon="6.7661874"><ele>364.7142857142857</ele><time>2026-04-12T07:05:01.927Z</time></trkpt><trkpt lat="43.6208731" lon="6.7661616"><ele>365.85714285714283</ele><time>2026-04-12T07:05:02.927Z</time></trkpt><trkpt lat="43.6209355" lon="6.7661349"><ele>367.0</ele><time>2026-04-12T07:05:03.928Z</time></trkpt><trkpt lat="43.6209946" lon="6.7661029"><ele>366.0</ele><time>2026-04-12T07:05:04.927Z</time></trkpt><trkpt lat="43.6211119" lon="6.7660253"><ele>365.0</ele><time>2026-04-12T07:05:06.928Z</time></trkpt><trkpt lat="43.621174" lon="6.7659691"><ele>364.0</ele><time>2026-04-12T07:05:07.928Z</time></trkpt><trkpt lat="43.6212294" lon="6.7659078"><ele>363.0</ele><time>2026-04-12T07:05:08.928Z</time></trkpt><trkpt lat="43.6212814" lon="6.7658494"><ele>362.0</ele><time>2026-04-12T07:05:09.928Z</time></trkpt><trkpt lat="43.6213346" lon="6.765789"><ele>361.0</ele><time>2026-04-12T07:05:10.928Z</time></trkpt><trkpt lat="43.6213873" lon="6.7657316"><ele>361.0</ele><time>2026-04-12T07:05:11.928Z</time></trkpt><trkpt lat="43.621438" lon="6.7656771"><ele>361.0</ele><time>2026-04-12T07:05:12.929Z</time></trkpt><trkpt lat="43.6214926" lon="6.7656206"><ele>361.0</ele><time>2026-04-12T07:05:13.928Z</time></trkpt><trkpt lat="43.621547" lon="6.7655712"><ele>361.0</ele><time>2026-04-12T07:05:14.929Z</time></trkpt><trkpt lat="43.621617" lon="6.7655284"><ele>361.0</ele><time>2026-04-12T07:05:15.928Z</time></trkpt><trkpt lat="43.6216805" lon="6.7654821"><ele>361.0</ele><time>2026-04-12T07:05:16.928Z</time></trkpt><trkpt lat="43.6217496" lon="6.7654349"><ele>361.0</ele><time>2026-04-12T07:05:17.928Z</time></trkpt><trkpt lat="43.6218203" lon="6.7653888"><ele>361.0</ele><time>2026-04-12T07:05:18.928Z</time></trkpt><trkpt lat="43.6218865" lon="6.7653462"><ele>361.0</ele><time>2026-04-12T07:05:19.928Z</time></trkpt><trkpt lat="43.6219488" lon="6.7653117"><ele>361.0</ele><time>2026-04-12T07:05:20.928Z</time></trkpt><trkpt lat="43.6220111" lon="6.7652756"><ele>361.0</ele><time>2026-04-12T07:05:21.929Z</time></trkpt><trkpt lat="43.6220784" lon="6.7652267"><ele>361.0</ele><time>2026-04-12T07:05:22.928Z</time></trkpt><trkpt lat="43.6221457" lon="6.7651887"><ele>361.0</ele><time>2026-04-12T07:05:23.928Z</time></trkpt><trkpt lat="43.6222174" lon="6.7651524"><ele>361.0</ele><time>2026-04-12T07:05:24.928Z</time></trkpt><trkpt lat="43.6222906" lon="6.7651258"><ele>361.3333333333333</ele><time>2026-04-12T07:05:25.928Z</time></trkpt><trkpt lat="43.6223669" lon="6.7651485"><ele>361.66666666666663</ele><time>2026-04-12T07:05:26.928Z</time></trkpt><trkpt lat="43.6224421" lon="6.7651857"><ele>362.0</ele><time>2026-04-12T07:05:27.928Z</time></trkpt><trkpt lat="43.6225036" lon="6.765253"><ele>362.3333333333333</ele><time>2026-04-12T07:05:28.928Z</time></trkpt><trkpt lat="43.6225582" lon="6.7653275"><ele>362.6666666666667</ele><time>2026-04-12T07:05:29.929Z</time></trkpt><trkpt lat="43.6226099" lon="6.765404"><ele>363.0</ele><time>2026-04-12T07:05:30.928Z</time></trkpt><trkpt lat="43.6226619" lon="6.7654829"><ele>363.0</ele><time>2026-04-12T07:05:31.928Z</time></trkpt><trkpt lat="43.6227125" lon="6.765562"><ele>363.0</ele><time>2026-04-12T07:05:32.929Z</time></trkpt><trkpt lat="43.6227659" lon="6.7656349"><ele>363.0</ele><time>2026-04-12T07:05:33.928Z</time></trkpt><trkpt lat="43.622823" lon="6.765706"><ele>363.0</ele><time>2026-04-12T07:05:34.929Z</time></trkpt><trkpt lat="43.6228821" lon="6.7657703"><ele>363.0</ele><time>2026-04-12T07:05:35.928Z</time></trkpt><trkpt lat="43.6229468" lon="6.7658197"><ele>363.0</ele><time>2026-04-12T07:05:36.929Z</time></trkpt><trkpt lat="43.6230157" lon="6.7658597"><ele>363.1666666666667</ele><time>2026-04-12T07:05:37.928Z</time></trkpt><trkpt lat="43.6230884" lon="6.7658978"><ele>363.3333333333333</ele><time>2026-04-12T07:05:38.928Z</time></trkpt><trkpt lat="43.6231622" lon="6.7659327"><ele>363.5</ele><time>2026-04-12T07:05:39.929Z</time></trkpt><trkpt lat="43.6232368" lon="6.7659663"><ele>363.66666666666663</ele><time>2026-04-12T07:05:40.929Z</time></trkpt><trkpt lat="43.6233142" lon="6.7660015"><ele>363.8333333333333</ele><time>2026-04-12T07:05:41.928Z</time></trkpt><trkpt lat="43.6233909" lon="6.7660418"><ele>364.0</ele><time>2026-04-12T07:05:42.928Z</time></trkpt><trkpt lat="43.6234686" lon="6.7660932"><ele>364.0</ele><time>2026-04-12T07:05:43.928Z</time></trkpt><trkpt lat="43.6235424" lon="6.7661536"><ele>364.0</ele><time>2026-04-12T07:05:44.929Z</time></trkpt><trkpt lat="43.6236091" lon="6.7662222"><ele>364.0</ele><time>2026-04-12T07:05:45.928Z</time></trkpt><trkpt lat="43.6236715" lon="6.7662973"><ele>364.0</ele><time>2026-04-12T07:05:46.928Z</time></trkpt><trkpt lat="43.6237304" lon="6.7663755"><ele>364.0</ele><time>2026-04-12T07:05:47.928Z</time></trkpt><trkpt lat="43.6237871" lon="6.7664595"><ele>364.0</ele><time>2026-04-12T07:05:48.929Z</time></trkpt><trkpt lat="43.6238389" lon="6.7665563"><ele>361.66666666666663</ele><time>2026-04-12T07:05:49.929Z</time></trkpt><trkpt lat="43.6238832" lon="6.7666564"><ele>359.3333333333333</ele><time>2026-04-12T07:05:50.93Z</time></trkpt><trkpt lat="43.6239149" lon="6.7667619"><ele>357.0</ele><time>2026-04-12T07:05:51.929Z</time></trkpt><trkpt lat="43.6239362" lon="6.7668687"><ele>354.6666666666667</ele><time>2026-04-12T07:05:52.929Z</time></trkpt><trkpt lat="43.6239477" lon="6.7669766"><ele>352.33333333333337</ele><time>2026-04-12T07:05:53.929Z</time></trkpt><trkpt lat="43.6239583" lon="6.7670833"><ele>350.0</ele><time>2026-04-12T07:05:54.93Z</time></trkpt><trkpt lat="43.6239631" lon="6.7671889"><ele>350.0</ele><time>2026-04-12T07:05:55.929Z</time></trkpt><trkpt lat="43.6239683" lon="6.7672981"><ele>350.0</ele><time>2026-04-12T07:05:56.929Z</time></trkpt><trkpt lat="43.6239734" lon="6.7674038"><ele>350.0</ele><time>2026-04-12T07:05:57.929Z</time></trkpt><trkpt lat="43.6239809" lon="6.7675097"><ele>350.0</ele><time>2026-04-12T07:05:58.929Z</time></trkpt><trkpt lat="43.6239912" lon="6.7676147"><ele>350.0</ele><time>2026-04-12T07:05:59.929Z</time></trkpt><trkpt lat="43.6240121" lon="6.7677164"><ele>350.0</ele><time>2026-04-12T07:06:00.929Z</time></trkpt><trkpt lat="43.6240498" lon="6.7678067"><ele>351.85714285714283</ele><time>2026-04-12T07:06:01.93Z</time></trkpt><trkpt lat="43.6241082" lon="6.7678694"><ele>353.7142857142857</ele><time>2026-04-12T07:06:02.929Z</time></trkpt><trkpt lat="43.6241801" lon="6.7678936"><ele>355.57142857142856</ele><time>2026-04-12T07:06:03.929Z</time></trkpt><trkpt lat="43.6242448" lon="6.7679043"><ele>357.42857142857144</ele><time>2026-04-12T07:06:04.929Z</time></trkpt><trkpt lat="43.6243108" lon="6.7678846"><ele>359.2857142857143</ele><time>2026-04-12T07:06:05.929Z</time></trkpt><trkpt lat="43.6243775" lon="6.767847"><ele>361.1428571428571</ele><time>2026-04-12T07:06:06.929Z</time></trkpt><trkpt lat="43.6244427" lon="6.7678125"><ele>363.0</ele><time>2026-04-12T07:06:07.929Z</time></trkpt><trkpt lat="43.6245518" lon="6.7677515"><ele>362.0</ele><time>2026-04-12T07:06:09.929Z</time></trkpt><trkpt lat="43.6246552" lon="6.767692"><ele>361.0</ele><time>2026-04-12T07:06:11.929Z</time></trkpt><trkpt lat="43.6247545" lon="6.7676398"><ele>360.0</ele><time>2026-04-12T07:06:13.929Z</time></trkpt><trkpt lat="43.6248656" lon="6.7675818"><ele>359.0</ele><time>2026-04-12T07:06:15.929Z</time></trkpt><trkpt lat="43.6249589" lon="6.7675011"><ele>358.0</ele><time>2026-04-12T07:06:17.93Z</time></trkpt><trkpt lat="43.6250408" lon="6.7673905"><ele>358.0</ele><time>2026-04-12T07:06:19.929Z</time></trkpt><trkpt lat="43.6251022" lon="6.7672563"><ele>358.0</ele><time>2026-04-12T07:06:21.929Z</time></trkpt><trkpt lat="43.6251444" lon="6.7671058"><ele>358.0</ele><time>2026-04-12T07:06:23.929Z</time></trkpt><trkpt lat="43.6251585" lon="6.7669536"><ele>358.0</ele><time>2026-04-12T07:06:25.93Z</time></trkpt><trkpt lat="43.6251444" lon="6.7668016"><ele>356.75</ele><time>2026-04-12T07:06:27.93Z</time></trkpt><trkpt lat="43.6251251" lon="6.7666414"><ele>355.5</ele><time>2026-04-12T07:06:29.929Z</time></trkpt><trkpt lat="43.6251075" lon="6.7664763"><ele>354.25</ele><time>2026-04-12T07:06:31.929Z</time></trkpt><trkpt lat="43.6250735" lon="6.7663265"><ele>353.0</ele><time>2026-04-12T07:06:33.93Z</time></trkpt><trkpt lat="43.6250271" lon="6.7661762"><ele>353.0</ele><time>2026-04-12T07:06:35.929Z</time></trkpt><trkpt lat="43.6250088" lon="6.7660903"><ele>353.0</ele><time>2026-04-12T07:06:36.93Z</time></trkpt><trkpt lat="43.6250015" lon="6.7660013"><ele>353.0</ele><time>2026-04-12T07:06:37.93Z</time></trkpt><trkpt lat="43.6249992" lon="6.7659056"><ele>353.0</ele><time>2026-04-12T07:06:38.93Z</time></trkpt><trkpt lat="43.6249945" lon="6.7658104"><ele>353.0</ele><time>2026-04-12T07:06:39.93Z</time></trkpt><trkpt lat="43.6249878" lon="6.7657116"><ele>353.0</ele><time>2026-04-12T07:06:40.93Z</time></trkpt><trkpt lat="43.6249775" lon="6.7656103"><ele>353.0</ele><time>2026-04-12T07:06:41.931Z</time></trkpt><trkpt lat="43.6249637" lon="6.7655068"><ele>353.2857142857143</ele><time>2026-04-12T07:06:42.931Z</time></trkpt><trkpt lat="43.6249451" lon="6.7654135"><ele>353.5714285714286</ele><time>2026-04-12T07:06:43.93Z</time></trkpt><trkpt lat="43.6249307" lon="6.7653159"><ele>353.8571428571429</ele><time>2026-04-12T07:06:44.931Z</time></trkpt><trkpt lat="43.6249198" lon="6.7652158"><ele>354.1428571428571</ele><time>2026-04-12T07:06:45.93Z</time></trkpt><trkpt lat="43.6249124" lon="6.7651128"><ele>354.42857142857144</ele><time>2026-04-12T07:06:46.93Z</time></trkpt><trkpt lat="43.6249098" lon="6.7650063"><ele>354.7142857142857</ele><time>2026-04-12T07:06:47.93Z</time></trkpt><trkpt lat="43.624918" lon="6.7648993"><ele>355.0</ele><time>2026-04-12T07:06:48.93Z</time></trkpt><trkpt lat="43.6249286" lon="6.7647961"><ele>355.1428571428571</ele><time>2026-04-12T07:06:49.93Z</time></trkpt><trkpt lat="43.6249402" lon="6.7646961"><ele>355.2857142857143</ele><time>2026-04-12T07:06:50.93Z</time></trkpt><trkpt lat="43.6249511" lon="6.7645935"><ele>355.42857142857144</ele><time>2026-04-12T07:06:51.93Z</time></trkpt><trkpt lat="43.6249585" lon="6.7644909"><ele>355.57142857142856</ele><time>2026-04-12T07:06:52.93Z</time></trkpt><trkpt lat="43.6249699" lon="6.7643886"><ele>355.7142857142857</ele><time>2026-04-12T07:06:53.93Z</time></trkpt><trkpt lat="43.6249825" lon="6.7642856"><ele>355.85714285714283</ele><time>2026-04-12T07:06:54.93Z</time></trkpt><trkpt lat="43.6249937" lon="6.764184"><ele>356.0</ele><time>2026-04-12T07:06:55.93Z</time></trkpt><trkpt lat="43.6250088" lon="6.7640824"><ele>355.5</ele><time>2026-04-12T07:06:56.93Z</time></trkpt><trkpt lat="43.6250241" lon="6.7639806"><ele>355.0</ele><time>2026-04-12T07:06:57.931Z</time></trkpt><trkpt lat="43.6250441" lon="6.7638801"><ele>354.5</ele><time>2026-04-12T07:06:58.93Z</time></trkpt><trkpt lat="43.6250669" lon="6.7637789"><ele>354.0</ele><time>2026-04-12T07:06:59.93Z</time></trkpt><trkpt lat="43.6251005" lon="6.7636826"><ele>353.5</ele><time>2026-04-12T07:07:00.93Z</time></trkpt><trkpt lat="43.6251368" lon="6.7635867"><ele>353.0</ele><time>2026-04-12T07:07:01.931Z</time></trkpt><trkpt lat="43.6251787" lon="6.763497"><ele>351.7142857142857</ele><time>2026-04-12T07:07:02.931Z</time></trkpt><trkpt lat="43.625225" lon="6.7634116"><ele>350.42857142857144</ele><time>2026-04-12T07:07:03.93Z</time></trkpt><trkpt lat="43.6252721" lon="6.7633286"><ele>349.14285714285717</ele><time>2026-04-12T07:07:04.931Z</time></trkpt><trkpt lat="43.6253232" lon="6.7632513"><ele>347.8571428571429</ele><time>2026-04-12T07:07:05.93Z</time></trkpt><trkpt lat="43.6253755" lon="6.763181"><ele>346.57142857142856</ele><time>2026-04-12T07:07:06.93Z</time></trkpt><trkpt lat="43.6254318" lon="6.763114"><ele>345.28571428571433</ele><time>2026-04-12T07:07:07.931Z</time></trkpt><trkpt lat="43.6254902" lon="6.763055"><ele>344.0</ele><time>2026-04-12T07:07:08.932Z</time></trkpt><trkpt lat="43.6255481" lon="6.7629936"><ele>344.8571428571429</ele><time>2026-04-12T07:07:09.93Z</time></trkpt><trkpt lat="43.625605" lon="6.7629295"><ele>345.7142857142857</ele><time>2026-04-12T07:07:10.93Z</time></trkpt><trkpt lat="43.6256636" lon="6.7628714"><ele>346.57142857142856</ele><time>2026-04-12T07:07:11.931Z</time></trkpt><trkpt lat="43.6257207" lon="6.7628096"><ele>347.42857142857144</ele><time>2026-04-12T07:07:12.931Z</time></trkpt><trkpt lat="43.6257793" lon="6.7627483"><ele>348.2857142857143</ele><time>2026-04-12T07:07:13.931Z</time></trkpt><trkpt lat="43.6258373" lon="6.7626864"><ele>349.14285714285717</ele><time>2026-04-12T07:07:14.931Z</time></trkpt><trkpt lat="43.6258941" lon="6.7626228"><ele>350.0</ele><time>2026-04-12T07:07:15.93Z</time></trkpt><trkpt lat="43.6259489" lon="6.7625578"><ele>350.0</ele><time>2026-04-12T07:07:16.93Z</time></trkpt><trkpt lat="43.626002" lon="6.762491"><ele>350.0</ele><time>2026-04-12T07:07:17.932Z</time></trkpt><trkpt lat="43.6260524" lon="6.7624194"><ele>350.0</ele><time>2026-04-12T07:07:18.93Z</time></trkpt><trkpt lat="43.6260972" lon="6.7623406"><ele>350.0</ele><time>2026-04-12T07:07:19.931Z</time></trkpt><trkpt lat="43.6261326" lon="6.7622583"><ele>350.0</ele><time>2026-04-12T07:07:20.931Z</time></trkpt><trkpt lat="43.6261662" lon="6.7621691"><ele>350.0</ele><time>2026-04-12T07:07:21.932Z</time></trkpt><trkpt lat="43.626199" lon="6.7620784"><ele>350.0</ele><time>2026-04-12T07:07:22.931Z</time></trkpt><trkpt lat="43.6262314" lon="6.7619858"><ele>351.42857142857144</ele><time>2026-04-12T07:07:23.931Z</time></trkpt><trkpt lat="43.6262613" lon="6.7618959"><ele>352.8571428571429</ele><time>2026-04-12T07:07:24.931Z</time></trkpt><trkpt lat="43.6262976" lon="6.7618068"><ele>354.2857142857143</ele><time>2026-04-12T07:07:25.931Z</time></trkpt><trkpt lat="43.6263342" lon="6.7617172"><ele>355.7142857142857</ele><time>2026-04-12T07:07:26.931Z</time></trkpt><trkpt lat="43.6263763" lon="6.7616323"><ele>357.14285714285717</ele><time>2026-04-12T07:07:27.931Z</time></trkpt><trkpt lat="43.6264197" lon="6.7615482"><ele>358.57142857142856</ele><time>2026-04-12T07:07:28.931Z</time></trkpt><trkpt lat="43.6264719" lon="6.7614719"><ele>360.0</ele><time>2026-04-12T07:07:29.931Z</time></trkpt><trkpt lat="43.6265246" lon="6.7614021"><ele>360.0</ele><time>2026-04-12T07:07:30.931Z</time></trkpt><trkpt lat="43.626582" lon="6.7613327"><ele>360.0</ele><time>2026-04-12T07:07:31.931Z</time></trkpt><trkpt lat="43.6266494" lon="6.7612822"><ele>360.0</ele><time>2026-04-12T07:07:32.931Z</time></trkpt><trkpt lat="43.6267225" lon="6.7612491"><ele>360.0</ele><time>2026-04-12T07:07:33.931Z</time></trkpt><trkpt lat="43.6267944" lon="6.7612157"><ele>360.0</ele><time>2026-04-12T07:07:34.931Z</time></trkpt><trkpt lat="43.6268646" lon="6.7611813"><ele>360.0</ele><time>2026-04-12T07:07:35.931Z</time></trkpt><trkpt lat="43.6269258" lon="6.7611465"><ele>360.0</ele><time>2026-04-12T07:07:36.931Z</time></trkpt><trkpt lat="43.6269852" lon="6.7611156"><ele>362.5</ele><time>2026-04-12T07:07:37.931Z</time></trkpt><trkpt lat="43.6270992" lon="6.7611242"><ele>365.0</ele><time>2026-04-12T07:07:39.931Z</time></trkpt><trkpt lat="43.6271612" lon="6.7611522"><ele>367.5</ele><time>2026-04-12T07:07:41.931Z</time></trkpt><trkpt lat="43.6272183" lon="6.7612093"><ele>370.0</ele><time>2026-04-12T07:07:46.931Z</time></trkpt><trkpt lat="43.6272852" lon="6.7612356"><ele>372.5</ele><time>2026-04-12T07:08:03.932Z</time></trkpt><trkpt lat="43.6273439" lon="6.7612928"><ele>375.0</ele><time>2026-04-12T07:08:20.322Z</time></trkpt><trkpt lat="43.6274201" lon="6.7613249"><ele>375.0</ele><time>2026-04-12T07:08:25.756Z</time></trkpt><trkpt lat="43.6274904" lon="6.7613298"><ele>375.0</ele><time>2026-04-12T07:08:30.962Z</time></trkpt><trkpt lat="43.6275507" lon="6.7613583"><ele>375.0</ele><time>2026-04-12T07:09:46.06Z</time></trkpt><trkpt lat="43.6276151" lon="6.7613755"><ele>375.0</ele><time>2026-04-12T07:09:51.057Z</time></trkpt><trkpt lat="43.6276886" lon="6.7613987"><ele>375.0</ele><time>2026-04-12T07:09:55.016Z</time></trkpt><trkpt lat="43.6277673" lon="6.7614283"><ele>375.0</ele><time>2026-04-12T07:09:59.085Z</time></trkpt><trkpt lat="43.6278431" lon="6.7614436"><ele>375.0</ele><time>2026-04-12T07:10:02.054Z</time></trkpt><trkpt lat="43.6279124" lon="6.7614535"><ele>376.7142857142857</ele><time>2026-04-12T07:10:05.025Z</time></trkpt><trkpt lat="43.6279775" lon="6.7614559"><ele>378.4285714285714</ele><time>2026-04-12T07:10:09.092Z</time></trkpt><trkpt lat="43.6280433" lon="6.7614615"><ele>380.1428571428571</ele><time>2026-04-12T07:10:13.051Z</time></trkpt><trkpt lat="43.6281171" lon="6.7614732"><ele>381.8571428571429</ele><time>2026-04-12T07:10:17.082Z</time></trkpt><trkpt lat="43.6281885" lon="6.7614894"><ele>383.57142857142856</ele><time>2026-04-12T07:10:21.125Z</time></trkpt><trkpt lat="43.6282604" lon="6.7615058"><ele>385.2857142857143</ele><time>2026-04-12T07:10:25.038Z</time></trkpt><trkpt lat="43.6283383" lon="6.7615326"><ele>387.0</ele><time>2026-04-12T07:10:29.107Z</time></trkpt><trkpt lat="43.6284063" lon="6.761568"><ele>387.0</ele><time>2026-04-12T07:10:33.066Z</time></trkpt><trkpt lat="43.6284753" lon="6.7615884"><ele>387.0</ele><time>2026-04-12T07:11:18.045Z</time></trkpt><trkpt lat="43.6285592" lon="6.7616045"><ele>387.0</ele><time>2026-04-12T07:11:22.113Z</time></trkpt><trkpt lat="43.6286394" lon="6.761611"><ele>387.0</ele><time>2026-04-12T07:11:25.52Z</time></trkpt><trkpt lat="43.6287277" lon="6.7616193"><ele>387.0</ele><time>2026-04-12T07:11:29.041Z</time></trkpt><trkpt lat="43.6288036" lon="6.7616275"><ele>387.0</ele><time>2026-04-12T07:11:33.11Z</time></trkpt><trkpt lat="43.6288796" lon="6.7616476"><ele>387.6666666666667</ele><time>2026-04-12T07:11:37.069Z</time></trkpt><trkpt lat="43.6289437" lon="6.7616402"><ele>388.33333333333337</ele><time>2026-04-12T07:11:40.038Z</time></trkpt><trkpt lat="43.6290362" lon="6.7616346"><ele>389.0</ele><time>2026-04-12T07:11:43.045Z</time></trkpt><trkpt lat="43.6291234" lon="6.7616439"><ele>389.6666666666667</ele><time>2026-04-12T07:11:46.086Z</time></trkpt><trkpt lat="43.6291969" lon="6.7616532"><ele>390.33333333333337</ele><time>2026-04-12T07:11:48.066Z</time></trkpt><trkpt lat="43.6292759" lon="6.7616544"><ele>391.0</ele><time>2026-04-12T07:11:50.045Z</time></trkpt><trkpt lat="43.6293613" lon="6.7616324"><ele>391.00000000000006</ele><time>2026-04-12T07:11:52.04Z</time></trkpt><trkpt lat="43.6294342" lon="6.7615813"><ele>391.0</ele><time>2026-04-12T07:11:54.005Z</time></trkpt><trkpt lat="43.6294919" lon="6.7614984"><ele>391.0</ele><time>2026-04-12T07:11:55.899Z</time></trkpt><trkpt lat="43.6295356" lon="6.7614016"><ele>391.0</ele><time>2026-04-12T07:11:58.074Z</time></trkpt><trkpt lat="43.6295736" lon="6.7613057"><ele>391.00000000000006</ele><time>2026-04-12T07:12:00.052Z</time></trkpt><trkpt lat="43.6295989" lon="6.7611813"><ele>391.0</ele><time>2026-04-12T07:12:01.937Z</time></trkpt><trkpt lat="43.6296184" lon="6.7610567"><ele>391.0</ele><time>2026-04-12T07:12:03.937Z</time></trkpt><trkpt lat="43.6296336" lon="6.7609354"><ele>391.0</ele><time>2026-04-12T07:12:05.937Z</time></trkpt><trkpt lat="43.6296495" lon="6.7608115"><ele>391.0</ele><time>2026-04-12T07:12:07.937Z</time></trkpt><trkpt lat="43.629669" lon="6.7606875"><ele>391.0</ele><time>2026-04-12T07:12:09.938Z</time></trkpt><trkpt lat="43.6296824" lon="6.7605622"><ele>391.0</ele><time>2026-04-12T07:12:11.937Z</time></trkpt><trkpt lat="43.6297054" lon="6.760441"><ele>391.0</ele><time>2026-04-12T07:12:13.937Z</time></trkpt><trkpt lat="43.6297273" lon="6.760318"><ele>391.0</ele><time>2026-04-12T07:12:15.937Z</time></trkpt><trkpt lat="43.6297513" lon="6.7601791"><ele>391.0</ele><time>2026-04-12T07:12:17.937Z</time></trkpt><trkpt lat="43.6297813" lon="6.760043"><ele>391.0</ele><time>2026-04-12T07:12:19.937Z</time></trkpt><trkpt lat="43.629809" lon="6.7599125"><ele>391.0</ele><time>2026-04-12T07:12:21.937Z</time></trkpt><trkpt lat="43.6298295" lon="6.7597839"><ele>390.8</ele><time>2026-04-12T07:12:23.938Z</time></trkpt><trkpt lat="43.6298482" lon="6.7596548"><ele>390.6</ele><time>2026-04-12T07:12:25.937Z</time></trkpt><trkpt lat="43.6298645" lon="6.7595229"><ele>390.4</ele><time>2026-04-12T07:12:27.938Z</time></trkpt><trkpt lat="43.6298863" lon="6.7593874"><ele>390.2</ele><time>2026-04-12T07:12:29.937Z</time></trkpt><trkpt lat="43.629912" lon="6.7592451"><ele>390.0</ele><time>2026-04-12T07:12:31.937Z</time></trkpt><trkpt lat="43.6299332" lon="6.759094"><ele>390.4</ele><time>2026-04-12T07:12:33.938Z</time></trkpt><trkpt lat="43.6299509" lon="6.7589387"><ele>390.8</ele><time>2026-04-12T07:12:35.937Z</time></trkpt><trkpt lat="43.6299777" lon="6.7588168"><ele>391.20000000000005</ele><time>2026-04-12T07:12:37.938Z</time></trkpt><trkpt lat="43.6300406" lon="6.7587841"><ele>391.6</ele><time>2026-04-12T07:12:39.938Z</time></trkpt><trkpt lat="43.6301198" lon="6.758843"><ele>392.0</ele><time>2026-04-12T07:12:41.938Z</time></trkpt><trkpt lat="43.6302073" lon="6.7589218"><ele>391.99999999999994</ele><time>2026-04-12T07:12:43.939Z</time></trkpt><trkpt lat="43.6303088" lon="6.7590068"><ele>392.0</ele><time>2026-04-12T07:12:45.938Z</time></trkpt><trkpt lat="43.6303617" lon="6.7590572"><ele>392.0</ele><time>2026-04-12T07:12:46.938Z</time></trkpt><trkpt lat="43.6304154" lon="6.7591089"><ele>392.0</ele><time>2026-04-12T07:12:47.938Z</time></trkpt><trkpt lat="43.6304724" lon="6.7591583"><ele>391.99999999999994</ele><time>2026-04-12T07:12:48.938Z</time></trkpt><trkpt lat="43.6305311" lon="6.759211"><ele>392.0</ele><time>2026-04-12T07:12:49.938Z</time></trkpt><trkpt lat="43.6305901" lon="6.7592653"><ele>392.0</ele><time>2026-04-12T07:12:50.938Z</time></trkpt><trkpt lat="43.630646" lon="6.7593139"><ele>392.0</ele><time>2026-04-12T07:12:51.939Z</time></trkpt><trkpt lat="43.6307043" lon="6.7593652"><ele>392.0</ele><time>2026-04-12T07:12:52.938Z</time></trkpt><trkpt lat="43.6307671" lon="6.7594244"><ele>392.0</ele><time>2026-04-12T07:12:53.938Z</time></trkpt><trkpt lat="43.6308301" lon="6.7594815"><ele>392.0</ele><time>2026-04-12T07:12:54.938Z</time></trkpt><trkpt lat="43.6308921" lon="6.7595406"><ele>392.0</ele><time>2026-04-12T07:12:55.939Z</time></trkpt><trkpt lat="43.6309546" lon="6.7595989"><ele>392.0</ele><time>2026-04-12T07:12:56.938Z</time></trkpt><trkpt lat="43.6310184" lon="6.7596546"><ele>391.99999999999994</ele><time>2026-04-12T07:12:57.939Z</time></trkpt><trkpt lat="43.6310826" lon="6.7597107"><ele>392.0</ele><time>2026-04-12T07:12:58.938Z</time></trkpt><trkpt lat="43.6311448" lon="6.7597701"><ele>392.0</ele><time>2026-04-12T07:12:59.938Z</time></trkpt><trkpt lat="43.631209" lon="6.7598262"><ele>392.0</ele><time>2026-04-12T07:13:00.938Z</time></trkpt><trkpt lat="43.6312731" lon="6.7598883"><ele>391.99999999999994</ele><time>2026-04-12T07:13:01.938Z</time></trkpt><trkpt lat="43.6313354" lon="6.7599465"><ele>392.0</ele><time>2026-04-12T07:13:02.938Z</time></trkpt><trkpt lat="43.6313981" lon="6.7600028"><ele>392.0</ele><time>2026-04-12T07:13:03.938Z</time></trkpt><trkpt lat="43.6314609" lon="6.7600582"><ele>392.0</ele><time>2026-04-12T07:13:04.938Z</time></trkpt><trkpt lat="43.6315259" lon="6.7601096"><ele>392.0</ele><time>2026-04-12T07:13:05.938Z</time></trkpt><trkpt lat="43.6315912" lon="6.7601575"><ele>392.0</ele><time>2026-04-12T07:13:06.938Z</time></trkpt><trkpt lat="43.6316564" lon="6.760203"><ele>392.0</ele><time>2026-04-12T07:13:07.938Z</time></trkpt><trkpt lat="43.631722" lon="6.7602486"><ele>392.0</ele><time>2026-04-12T07:13:08.938Z</time></trkpt><trkpt lat="43.6317896" lon="6.76029"><ele>392.0</ele><time>2026-04-12T07:13:09.94Z</time></trkpt><trkpt lat="43.6318568" lon="6.7603297"><ele>391.49999999999994</ele><time>2026-04-12T07:13:10.94Z</time></trkpt><trkpt lat="43.6319296" lon="6.7603659"><ele>391.0</ele><time>2026-04-12T07:13:11.939Z</time></trkpt><trkpt lat="43.6319993" lon="6.7604084"><ele>390.5</ele><time>2026-04-12T07:13:12.938Z</time></trkpt><trkpt lat="43.6320691" lon="6.7604507"><ele>390.0</ele><time>2026-04-12T07:13:13.939Z</time></trkpt><trkpt lat="43.6321374" lon="6.7604952"><ele>389.49999999999994</ele><time>2026-04-12T07:13:14.939Z</time></trkpt><trkpt lat="43.6322031" lon="6.7605471"><ele>389.0</ele><time>2026-04-12T07:13:15.939Z</time></trkpt><trkpt lat="43.6322711" lon="6.7605943"><ele>388.99999999999994</ele><time>2026-04-12T07:13:16.94Z</time></trkpt><trkpt lat="43.6323396" lon="6.7606396"><ele>389.0</ele><time>2026-04-12T07:13:17.938Z</time></trkpt><trkpt lat="43.6324083" lon="6.7606845"><ele>389.0</ele><time>2026-04-12T07:13:18.939Z</time></trkpt><trkpt lat="43.6324796" lon="6.7607256"><ele>389.0</ele><time>2026-04-12T07:13:19.938Z</time></trkpt><trkpt lat="43.63255" lon="6.7607683"><ele>388.99999999999994</ele><time>2026-04-12T07:13:20.939Z</time></trkpt><trkpt lat="43.6326175" lon="6.7608157"><ele>389.0</ele><time>2026-04-12T07:13:21.939Z</time></trkpt><trkpt lat="43.632687" lon="6.7608616"><ele>388.99999999999994</ele><time>2026-04-12T07:13:22.939Z</time></trkpt><trkpt lat="43.6327563" lon="6.7609093"><ele>389.0</ele><time>2026-04-12T07:13:23.939Z</time></trkpt><trkpt lat="43.6328248" lon="6.7609597"><ele>389.0</ele><time>2026-04-12T07:13:24.939Z</time></trkpt><trkpt lat="43.6328922" lon="6.7610111"><ele>389.0</ele><time>2026-04-12T07:13:25.94Z</time></trkpt><trkpt lat="43.6329584" lon="6.7610648"><ele>388.99999999999994</ele><time>2026-04-12T07:13:26.939Z</time></trkpt><trkpt lat="43.6330221" lon="6.7611239"><ele>389.0</ele><time>2026-04-12T07:13:27.939Z</time></trkpt><trkpt lat="43.6330825" lon="6.761189"><ele>389.49999999999994</ele><time>2026-04-12T07:13:28.939Z</time></trkpt><trkpt lat="43.6331418" lon="6.7612541"><ele>390.0</ele><time>2026-04-12T07:13:29.939Z</time></trkpt><trkpt lat="43.6332024" lon="6.7613175"><ele>390.5</ele><time>2026-04-12T07:13:30.939Z</time></trkpt><trkpt lat="43.6332658" lon="6.7613732"><ele>391.0</ele><time>2026-04-12T07:13:31.939Z</time></trkpt><trkpt lat="43.6333328" lon="6.7614195"><ele>391.49999999999994</ele><time>2026-04-12T07:13:32.939Z</time></trkpt><trkpt lat="43.6334014" lon="6.7614592"><ele>392.0</ele><time>2026-04-12T07:13:33.939Z</time></trkpt><trkpt lat="43.6334728" lon="6.761488"><ele>392.0</ele><time>2026-04-12T07:13:34.939Z</time></trkpt><trkpt lat="43.6335409" lon="6.7615092"><ele>392.0</ele><time>2026-04-12T07:13:35.939Z</time></trkpt><trkpt lat="43.6336092" lon="6.7615256"><ele>392.0</ele><time>2026-04-12T07:13:36.939Z</time></trkpt><trkpt lat="43.633678" lon="6.7615488"><ele>392.0</ele><time>2026-04-12T07:13:37.939Z</time></trkpt><trkpt lat="43.6337426" lon="6.7615795"><ele>392.0</ele><time>2026-04-12T07:13:38.939Z</time></trkpt><trkpt lat="43.6338055" lon="6.7616224"><ele>392.0</ele><time>2026-04-12T07:13:39.939Z</time></trkpt><trkpt lat="43.6338649" lon="6.7616664"><ele>392.0</ele><time>2026-04-12T07:13:40.939Z</time></trkpt><trkpt lat="43.6339234" lon="6.7617126"><ele>391.85714285714283</ele><time>2026-04-12T07:13:41.939Z</time></trkpt><trkpt lat="43.6339822" lon="6.7617644"><ele>391.7142857142857</ele><time>2026-04-12T07:13:42.94Z</time></trkpt><trkpt lat="43.6340428" lon="6.7618163"><ele>391.57142857142856</ele><time>2026-04-12T07:13:43.939Z</time></trkpt><trkpt lat="43.6341053" lon="6.7618681"><ele>391.42857142857144</ele><time>2026-04-12T07:13:44.939Z</time></trkpt><trkpt lat="43.634169" lon="6.7619191"><ele>391.2857142857143</ele><time>2026-04-12T07:13:45.939Z</time></trkpt><trkpt lat="43.634234" lon="6.7619702"><ele>391.1428571428571</ele><time>2026-04-12T07:13:46.939Z</time></trkpt><trkpt lat="43.6343042" lon="6.7620141"><ele>391.0</ele><time>2026-04-12T07:13:47.939Z</time></trkpt><trkpt lat="43.6343737" lon="6.7620531"><ele>391.33333333333337</ele><time>2026-04-12T07:13:48.939Z</time></trkpt><trkpt lat="43.6344439" lon="6.7620884"><ele>391.6666666666667</ele><time>2026-04-12T07:13:49.939Z</time></trkpt><trkpt lat="43.6345117" lon="6.7621234"><ele>392.0</ele><time>2026-04-12T07:13:50.939Z</time></trkpt><trkpt lat="43.6345879" lon="6.7621599"><ele>392.33333333333337</ele><time>2026-04-12T07:13:51.939Z</time></trkpt><trkpt lat="43.6346606" lon="6.7621925"><ele>392.6666666666667</ele><time>2026-04-12T07:13:52.939Z</time></trkpt><trkpt lat="43.6347292" lon="6.7622245"><ele>393.0</ele><time>2026-04-12T07:13:53.94Z</time></trkpt><trkpt lat="43.6348028" lon="6.7622594"><ele>393.00000000000006</ele><time>2026-04-12T07:13:54.939Z</time></trkpt><trkpt lat="43.634869" lon="6.7623116"><ele>393.0</ele><time>2026-04-12T07:13:55.941Z</time></trkpt><trkpt lat="43.6349353" lon="6.762367"><ele>393.0</ele><time>2026-04-12T07:13:56.94Z</time></trkpt><trkpt lat="43.6349834" lon="6.7624399"><ele>393.0</ele><time>2026-04-12T07:13:57.939Z</time></trkpt><trkpt lat="43.635024" lon="6.7625179"><ele>393.0</ele><time>2026-04-12T07:13:58.939Z</time></trkpt><trkpt lat="43.6350558" lon="6.7625971"><ele>393.00000000000006</ele><time>2026-04-12T07:13:59.939Z</time></trkpt><trkpt lat="43.6350843" lon="6.7626753"><ele>393.0</ele><time>2026-04-12T07:14:00.94Z</time></trkpt><trkpt lat="43.6351234" lon="6.7628229"><ele>392.79999999999995</ele><time>2026-04-12T07:14:02.941Z</time></trkpt><trkpt lat="43.6351643" lon="6.7629607"><ele>392.6</ele><time>2026-04-12T07:14:04.939Z</time></trkpt><trkpt lat="43.635214" lon="6.7630886"><ele>392.4</ele><time>2026-04-12T07:14:06.94Z</time></trkpt><trkpt lat="43.6352687" lon="6.7632053"><ele>392.20000000000005</ele><time>2026-04-12T07:14:08.94Z</time></trkpt><trkpt lat="43.6353302" lon="6.7633208"><ele>392.0</ele><time>2026-04-12T07:14:10.94Z</time></trkpt><trkpt lat="43.6353975" lon="6.7634372"><ele>392.40000000000003</ele><time>2026-04-12T07:14:12.94Z</time></trkpt><trkpt lat="43.6354564" lon="6.7635523"><ele>392.8</ele><time>2026-04-12T07:14:14.94Z</time></trkpt><trkpt lat="43.6355203" lon="6.7636639"><ele>393.2</ele><time>2026-04-12T07:14:16.94Z</time></trkpt><trkpt lat="43.635596" lon="6.7637593"><ele>393.6</ele><time>2026-04-12T07:14:18.94Z</time></trkpt><trkpt lat="43.6356917" lon="6.7638234"><ele>394.0</ele><time>2026-04-12T07:14:20.941Z</time></trkpt><trkpt lat="43.6357955" lon="6.7638782"><ele>394.00000000000006</ele><time>2026-04-12T07:14:22.94Z</time></trkpt><trkpt lat="43.635915" lon="6.763928"><ele>394.0</ele><time>2026-04-12T07:14:24.94Z</time></trkpt><trkpt lat="43.635976" lon="6.7639545"><ele>394.0</ele><time>2026-04-12T07:14:25.94Z</time></trkpt><trkpt lat="43.6360385" lon="6.7639802"><ele>394.0</ele><time>2026-04-12T07:14:26.94Z</time></trkpt><trkpt lat="43.6361012" lon="6.7640097"><ele>394.00000000000006</ele><time>2026-04-12T07:14:27.94Z</time></trkpt><trkpt lat="43.6361618" lon="6.764039"><ele>394.0</ele><time>2026-04-12T07:14:28.94Z</time></trkpt><trkpt lat="43.63622" lon="6.7640802"><ele>394.00000000000006</ele><time>2026-04-12T07:14:29.94Z</time></trkpt><trkpt lat="43.6363309" lon="6.7641631"><ele>394.0</ele><time>2026-04-12T07:14:31.94Z</time></trkpt><trkpt lat="43.6363884" lon="6.7642062"><ele>394.0</ele><time>2026-04-12T07:14:32.941Z</time></trkpt><trkpt lat="43.6364472" lon="6.764248"><ele>394.0</ele><time>2026-04-12T07:14:33.94Z</time></trkpt><trkpt lat="43.6365076" lon="6.7642862"><ele>394.00000000000006</ele><time>2026-04-12T07:14:34.941Z</time></trkpt><trkpt lat="43.6365705" lon="6.764322"><ele>394.0</ele><time>2026-04-12T07:14:35.94Z</time></trkpt><trkpt lat="43.6366348" lon="6.7643534"><ele>394.0</ele><time>2026-04-12T07:14:36.94Z</time></trkpt><trkpt lat="43.6367016" lon="6.7643793"><ele>394.0</ele><time>2026-04-12T07:14:37.94Z</time></trkpt><trkpt lat="43.636769" lon="6.7644056"><ele>394.0</ele><time>2026-04-12T07:14:38.941Z</time></trkpt><trkpt lat="43.6368367" lon="6.7644378"><ele>394.0</ele><time>2026-04-12T07:14:39.94Z</time></trkpt><trkpt lat="43.6369025" lon="6.7644807"><ele>394.0</ele><time>2026-04-12T07:14:40.94Z</time></trkpt><trkpt lat="43.6369648" lon="6.7645416"><ele>394.0</ele><time>2026-04-12T07:14:41.941Z</time></trkpt><trkpt lat="43.6370205" lon="6.7646183"><ele>394.0</ele><time>2026-04-12T07:14:42.94Z</time></trkpt><trkpt lat="43.6370712" lon="6.7647057"><ele>393.6666666666667</ele><time>2026-04-12T07:14:43.94Z</time></trkpt><trkpt lat="43.6371221" lon="6.7647968"><ele>393.33333333333337</ele><time>2026-04-12T07:14:44.941Z</time></trkpt><trkpt lat="43.6371735" lon="6.7648882"><ele>393.0</ele><time>2026-04-12T07:14:45.94Z</time></trkpt><trkpt lat="43.6372263" lon="6.7649798"><ele>392.66666666666663</ele><time>2026-04-12T07:14:46.941Z</time></trkpt><trkpt lat="43.6372772" lon="6.7650664"><ele>392.3333333333333</ele><time>2026-04-12T07:14:47.94Z</time></trkpt><trkpt lat="43.6373313" lon="6.7651515"><ele>392.0</ele><time>2026-04-12T07:14:48.94Z</time></trkpt><trkpt lat="43.6373946" lon="6.7652292"><ele>391.66666666666663</ele><time>2026-04-12T07:14:49.94Z</time></trkpt><trkpt lat="43.6374561" lon="6.7653013"><ele>391.3333333333333</ele><time>2026-04-12T07:14:50.941Z</time></trkpt><trkpt lat="43.6375185" lon="6.7653692"><ele>391.0</ele><time>2026-04-12T07:14:51.94Z</time></trkpt><trkpt lat="43.6375811" lon="6.7654436"><ele>390.66666666666663</ele><time>2026-04-12T07:14:52.941Z</time></trkpt><trkpt lat="43.6376376" lon="6.7655243"><ele>390.3333333333333</ele><time>2026-04-12T07:14:53.941Z</time></trkpt><trkpt lat="43.6376952" lon="6.7656075"><ele>390.0</ele><time>2026-04-12T07:14:54.941Z</time></trkpt><trkpt lat="43.637756" lon="6.7656979"><ele>389.6</ele><time>2026-04-12T07:14:55.941Z</time></trkpt><trkpt lat="43.6378169" lon="6.7657891"><ele>389.2</ele><time>2026-04-12T07:14:56.941Z</time></trkpt><trkpt lat="43.6378829" lon="6.7658793"><ele>388.79999999999995</ele><time>2026-04-12T07:14:57.942Z</time></trkpt><trkpt lat="43.637947" lon="6.7659674"><ele>388.4</ele><time>2026-04-12T07:14:58.941Z</time></trkpt><trkpt lat="43.6380104" lon="6.7660551"><ele>388.0</ele><time>2026-04-12T07:14:59.942Z</time></trkpt><trkpt lat="43.638073" lon="6.766141"><ele>388.0</ele><time>2026-04-12T07:15:00.941Z</time></trkpt><trkpt lat="43.6381364" lon="6.7662239"><ele>388.0</ele><time>2026-04-12T07:15:01.941Z</time></trkpt><trkpt lat="43.6382009" lon="6.7663105"><ele>388.0</ele><time>2026-04-12T07:15:02.941Z</time></trkpt><trkpt lat="43.6382671" lon="6.7664028"><ele>388.0</ele><time>2026-04-12T07:15:03.941Z</time></trkpt><trkpt lat="43.6383371" lon="6.7664978"><ele>388.0</ele><time>2026-04-12T07:15:04.941Z</time></trkpt><trkpt lat="43.6384125" lon="6.7665882"><ele>388.0</ele><time>2026-04-12T07:15:05.941Z</time></trkpt><trkpt lat="43.6384933" lon="6.7666668"><ele>388.0</ele><time>2026-04-12T07:15:06.941Z</time></trkpt><trkpt lat="43.6385757" lon="6.7667319"><ele>388.0</ele><time>2026-04-12T07:15:07.941Z</time></trkpt><trkpt lat="43.6386588" lon="6.7667897"><ele>388.0</ele><time>2026-04-12T07:15:08.941Z</time></trkpt><trkpt lat="43.6387482" lon="6.7668253"><ele>388.0</ele><time>2026-04-12T07:15:09.941Z</time></trkpt><trkpt lat="43.6388403" lon="6.7668551"><ele>388.4</ele><time>2026-04-12T07:15:10.941Z</time></trkpt><trkpt lat="43.6389309" lon="6.7668889"><ele>388.79999999999995</ele><time>2026-04-12T07:15:11.941Z</time></trkpt><trkpt lat="43.6390219" lon="6.7669235"><ele>389.2</ele><time>2026-04-12T07:15:12.941Z</time></trkpt><trkpt lat="43.6391124" lon="6.7669615"><ele>389.6</ele><time>2026-04-12T07:15:13.941Z</time></trkpt><trkpt lat="43.6392019" lon="6.7669978"><ele>390.0</ele><time>2026-04-12T07:15:14.941Z</time></trkpt><trkpt lat="43.6392926" lon="6.7670292"><ele>390.0</ele><time>2026-04-12T07:15:15.941Z</time></trkpt><trkpt lat="43.6393807" lon="6.7670578"><ele>390.0</ele><time>2026-04-12T07:15:16.941Z</time></trkpt><trkpt lat="43.6394629" lon="6.7670895"><ele>390.0</ele><time>2026-04-12T07:15:17.941Z</time></trkpt><trkpt lat="43.6395432" lon="6.7671193"><ele>390.0</ele><time>2026-04-12T07:15:18.941Z</time></trkpt><trkpt lat="43.6396157" lon="6.7671558"><ele>390.0</ele><time>2026-04-12T07:15:19.942Z</time></trkpt><trkpt lat="43.6396836" lon="6.7671941"><ele>390.0</ele><time>2026-04-12T07:15:20.941Z</time></trkpt><trkpt lat="43.6397478" lon="6.7672335"><ele>389.8333333333333</ele><time>2026-04-12T07:15:21.941Z</time></trkpt><trkpt lat="43.6398092" lon="6.7672735"><ele>389.66666666666663</ele><time>2026-04-12T07:15:22.941Z</time></trkpt><trkpt lat="43.6398684" lon="6.7673113"><ele>389.5</ele><time>2026-04-12T07:15:23.941Z</time></trkpt><trkpt lat="43.6399263" lon="6.7673474"><ele>389.3333333333333</ele><time>2026-04-12T07:15:24.942Z</time></trkpt><trkpt lat="43.6400435" lon="6.7674077"><ele>389.16666666666663</ele><time>2026-04-12T07:15:26.942Z</time></trkpt><trkpt lat="43.6401043" lon="6.7674319"><ele>389.0</ele><time>2026-04-12T07:15:27.941Z</time></trkpt><trkpt lat="43.6401673" lon="6.7674527"><ele>388.99999999999994</ele><time>2026-04-12T07:15:28.942Z</time></trkpt><trkpt lat="43.640232" lon="6.7674716"><ele>389.0</ele><time>2026-04-12T07:15:29.942Z</time></trkpt><trkpt lat="43.6402976" lon="6.7674891"><ele>389.0</ele><time>2026-04-12T07:15:30.941Z</time></trkpt><trkpt lat="43.640362" lon="6.7675091"><ele>389.0</ele><time>2026-04-12T07:15:31.941Z</time></trkpt><trkpt lat="43.6404257" lon="6.7675339"><ele>388.99999999999994</ele><time>2026-04-12T07:15:32.941Z</time></trkpt><trkpt lat="43.6404865" lon="6.7675642"><ele>389.0</ele><time>2026-04-12T07:15:33.942Z</time></trkpt><trkpt lat="43.6405964" lon="6.7676333"><ele>390.25</ele><time>2026-04-12T07:15:35.941Z</time></trkpt><trkpt lat="43.6406979" lon="6.767732"><ele>391.5</ele><time>2026-04-12T07:15:37.942Z</time></trkpt><trkpt lat="43.6407948" lon="6.7678348"><ele>392.75</ele><time>2026-04-12T07:15:39.942Z</time></trkpt><trkpt lat="43.640883" lon="6.7679282"><ele>394.0</ele><time>2026-04-12T07:15:41.942Z</time></trkpt><trkpt lat="43.6409664" lon="6.7680169"><ele>394.0</ele><time>2026-04-12T07:15:43.942Z</time></trkpt><trkpt lat="43.6410509" lon="6.7681134"><ele>394.0</ele><time>2026-04-12T07:15:45.942Z</time></trkpt><trkpt lat="43.6411413" lon="6.7682183"><ele>394.0</ele><time>2026-04-12T07:15:47.942Z</time></trkpt><trkpt lat="43.6412307" lon="6.76833"><ele>394.0</ele><time>2026-04-12T07:15:49.942Z</time></trkpt><trkpt lat="43.6413185" lon="6.7684425"><ele>394.1666666666667</ele><time>2026-04-12T07:15:51.942Z</time></trkpt><trkpt lat="43.6414088" lon="6.7685528"><ele>394.33333333333337</ele><time>2026-04-12T07:15:53.942Z</time></trkpt><trkpt lat="43.6414984" lon="6.7686695"><ele>394.5</ele><time>2026-04-12T07:15:55.943Z</time></trkpt><trkpt lat="43.6415449" lon="6.7687299"><ele>394.66666666666663</ele><time>2026-04-12T07:15:56.943Z</time></trkpt><trkpt lat="43.6415927" lon="6.7687879"><ele>394.8333333333333</ele><time>2026-04-12T07:15:57.942Z</time></trkpt><trkpt lat="43.6416403" lon="6.7688461"><ele>395.0</ele><time>2026-04-12T07:15:58.943Z</time></trkpt><trkpt lat="43.6416869" lon="6.7689051"><ele>395.0</ele><time>2026-04-12T07:15:59.942Z</time></trkpt><trkpt lat="43.6417352" lon="6.7689619"><ele>395.0</ele><time>2026-04-12T07:16:00.942Z</time></trkpt><trkpt lat="43.641786" lon="6.7690162"><ele>395.0</ele><time>2026-04-12T07:16:01.942Z</time></trkpt><trkpt lat="43.6418394" lon="6.769065"><ele>395.0</ele><time>2026-04-12T07:16:02.942Z</time></trkpt><trkpt lat="43.6418963" lon="6.7691085"><ele>395.0</ele><time>2026-04-12T07:16:03.943Z</time></trkpt><trkpt lat="43.6419595" lon="6.7691396"><ele>395.0</ele><time>2026-04-12T07:16:04.942Z</time></trkpt><trkpt lat="43.6420266" lon="6.7691601"><ele>395.0</ele><time>2026-04-12T07:16:05.942Z</time></trkpt><trkpt lat="43.6420981" lon="6.7691737"><ele>394.57142857142856</ele><time>2026-04-12T07:16:06.942Z</time></trkpt><trkpt lat="43.6421728" lon="6.7691791"><ele>394.14285714285717</ele><time>2026-04-12T07:16:07.942Z</time></trkpt><trkpt lat="43.6422486" lon="6.7691841"><ele>393.7142857142857</ele><time>2026-04-12T07:16:08.943Z</time></trkpt><trkpt lat="43.6423221" lon="6.7691983"><ele>393.2857142857143</ele><time>2026-04-12T07:16:09.942Z</time></trkpt><trkpt lat="43.6423939" lon="6.7692176"><ele>392.8571428571429</ele><time>2026-04-12T07:16:10.942Z</time></trkpt><trkpt lat="43.6424565" lon="6.7692598"><ele>392.42857142857144</ele><time>2026-04-12T07:16:11.942Z</time></trkpt><trkpt lat="43.6425178" lon="6.7693056"><ele>392.0</ele><time>2026-04-12T07:16:12.942Z</time></trkpt><trkpt lat="43.6425735" lon="6.7693592"><ele>392.0</ele><time>2026-04-12T07:16:13.942Z</time></trkpt><trkpt lat="43.6426274" lon="6.7694197"><ele>392.0</ele><time>2026-04-12T07:16:14.943Z</time></trkpt><trkpt lat="43.6426767" lon="6.7694848"><ele>392.0</ele><time>2026-04-12T07:16:15.943Z</time></trkpt><trkpt lat="43.6427249" lon="6.7695543"><ele>392.0</ele><time>2026-04-12T07:16:16.942Z</time></trkpt><trkpt lat="43.6427719" lon="6.7696273"><ele>392.0</ele><time>2026-04-12T07:16:17.942Z</time></trkpt><trkpt lat="43.6428167" lon="6.7696972"><ele>392.0</ele><time>2026-04-12T07:16:18.942Z</time></trkpt><trkpt lat="43.6428574" lon="6.7697671"><ele>392.0</ele><time>2026-04-12T07:16:19.942Z</time></trkpt><trkpt lat="43.6429183" lon="6.7699045"><ele>392.8</ele><time>2026-04-12T07:16:21.942Z</time></trkpt><trkpt lat="43.6429801" lon="6.7700259"><ele>393.6</ele><time>2026-04-12T07:16:23.943Z</time></trkpt><trkpt lat="43.6430521" lon="6.7701277"><ele>394.40000000000003</ele><time>2026-04-12T07:16:25.943Z</time></trkpt><trkpt lat="43.6431266" lon="6.7702197"><ele>395.20000000000005</ele><time>2026-04-12T07:16:27.943Z</time></trkpt><trkpt lat="43.6432078" lon="6.7703032"><ele>396.0</ele><time>2026-04-12T07:16:29.943Z</time></trkpt><trkpt lat="43.6432883" lon="6.7703918"><ele>396.0</ele><time>2026-04-12T07:16:31.943Z</time></trkpt><trkpt lat="43.6433581" lon="6.7704905"><ele>396.0</ele><time>2026-04-12T07:16:33.943Z</time></trkpt><trkpt lat="43.6434156" lon="6.7705948"><ele>396.0</ele><time>2026-04-12T07:16:35.943Z</time></trkpt><trkpt lat="43.6434691" lon="6.7707052"><ele>396.0</ele><time>2026-04-12T07:16:37.943Z</time></trkpt><trkpt lat="43.6435212" lon="6.7708198"><ele>396.0</ele><time>2026-04-12T07:16:39.943Z</time></trkpt><trkpt lat="43.6435742" lon="6.7709278"><ele>396.0</ele><time>2026-04-12T07:16:41.943Z</time></trkpt><trkpt lat="43.6436299" lon="6.7710347"><ele>396.0</ele><time>2026-04-12T07:16:43.943Z</time></trkpt><trkpt lat="43.6436882" lon="6.7711357"><ele>396.0</ele><time>2026-04-12T07:16:45.943Z</time></trkpt><trkpt lat="43.6437498" lon="6.7712394"><ele>396.0</ele><time>2026-04-12T07:16:47.943Z</time></trkpt><trkpt lat="43.6438097" lon="6.7713382"><ele>396.0</ele><time>2026-04-12T07:16:49.943Z</time></trkpt><trkpt lat="43.6438691" lon="6.7714329"><ele>396.8</ele><time>2026-04-12T07:16:51.943Z</time></trkpt><trkpt lat="43.6439267" lon="6.7715251"><ele>397.6</ele><time>2026-04-12T07:16:53.943Z</time></trkpt><trkpt lat="43.6439825" lon="6.7716132"><ele>398.4</ele><time>2026-04-12T07:16:55.943Z</time></trkpt><trkpt lat="43.644039" lon="6.7717092"><ele>399.2</ele><time>2026-04-12T07:16:57.943Z</time></trkpt><trkpt lat="43.6440923" lon="6.7718157"><ele>400.0</ele><time>2026-04-12T07:16:59.943Z</time></trkpt><trkpt lat="43.6441473" lon="6.7719267"><ele>400.0</ele><time>2026-04-12T07:17:01.944Z</time></trkpt><trkpt lat="43.6442011" lon="6.7720409"><ele>400.0</ele><time>2026-04-12T07:17:03.943Z</time></trkpt><trkpt lat="43.6442579" lon="6.7721587"><ele>400.0</ele><time>2026-04-12T07:17:05.944Z</time></trkpt><trkpt lat="43.6443177" lon="6.7722794"><ele>400.0</ele><time>2026-04-12T07:17:07.944Z</time></trkpt><trkpt lat="43.6443822" lon="6.7723948"><ele>400.0</ele><time>2026-04-12T07:17:09.944Z</time></trkpt><trkpt lat="43.644447" lon="6.7725129"><ele>400.8</ele><time>2026-04-12T07:17:11.944Z</time></trkpt><trkpt lat="43.6445094" lon="6.7726296"><ele>401.6</ele><time>2026-04-12T07:17:13.944Z</time></trkpt><trkpt lat="43.6445722" lon="6.7727468"><ele>402.4</ele><time>2026-04-12T07:17:15.944Z</time></trkpt><trkpt lat="43.644641" lon="6.7728617"><ele>403.2</ele><time>2026-04-12T07:17:17.944Z</time></trkpt><trkpt lat="43.6447091" lon="6.772976"><ele>404.0</ele><time>2026-04-12T07:17:19.944Z</time></trkpt><trkpt lat="43.644776" lon="6.7730973"><ele>404.0</ele><time>2026-04-12T07:17:21.944Z</time></trkpt><trkpt lat="43.6448435" lon="6.7732173"><ele>404.0</ele><time>2026-04-12T07:17:23.944Z</time></trkpt><trkpt lat="43.6449141" lon="6.773338"><ele>404.0</ele><time>2026-04-12T07:17:25.944Z</time></trkpt><trkpt lat="43.6449892" lon="6.7734612"><ele>404.0</ele><time>2026-04-12T07:17:27.944Z</time></trkpt><trkpt lat="43.645068" lon="6.7735815"><ele>403.25</ele><time>2026-04-12T07:17:29.944Z</time></trkpt><trkpt lat="43.645148" lon="6.7736976"><ele>402.5</ele><time>2026-04-12T07:17:31.944Z</time></trkpt><trkpt lat="43.6452356" lon="6.7738066"><ele>401.75</ele><time>2026-04-12T07:17:33.944Z</time></trkpt><trkpt lat="43.645328" lon="6.7739125"><ele>401.0</ele><time>2026-04-12T07:17:35.944Z</time></trkpt><trkpt lat="43.6454142" lon="6.7740141"><ele>402.20000000000005</ele><time>2026-04-12T07:17:37.944Z</time></trkpt><trkpt lat="43.6454943" lon="6.774114"><ele>403.40000000000003</ele><time>2026-04-12T07:17:39.945Z</time></trkpt><trkpt lat="43.6455714" lon="6.7742112"><ele>404.6</ele><time>2026-04-12T07:17:41.944Z</time></trkpt><trkpt lat="43.6456395" lon="6.7743008"><ele>405.8</ele><time>2026-04-12T07:17:43.944Z</time></trkpt><trkpt lat="43.6457023" lon="6.7743966"><ele>407.0</ele><time>2026-04-12T07:17:45.944Z</time></trkpt><trkpt lat="43.6457677" lon="6.7744893"><ele>406.99999999999994</ele><time>2026-04-12T07:17:47.945Z</time></trkpt><trkpt lat="43.6458289" lon="6.7745893"><ele>407.0</ele><time>2026-04-12T07:17:49.945Z</time></trkpt><trkpt lat="43.6458816" lon="6.7746956"><ele>407.0</ele><time>2026-04-12T07:17:51.945Z</time></trkpt><trkpt lat="43.6459271" lon="6.7748059"><ele>407.0</ele><time>2026-04-12T07:17:53.945Z</time></trkpt><trkpt lat="43.6459737" lon="6.7749041"><ele>406.99999999999994</ele><time>2026-04-12T07:17:55.945Z</time></trkpt><trkpt lat="43.646018" lon="6.7749882"><ele>407.0</ele><time>2026-04-12T07:17:57.945Z</time></trkpt><trkpt lat="43.6460692" lon="6.7750934"><ele>406.99999999999994</ele><time>2026-04-12T07:18:00.945Z</time></trkpt><trkpt lat="43.6461069" lon="6.7751687"><ele>407.0</ele><time>2026-04-12T07:18:02.945Z</time></trkpt><trkpt lat="43.6461422" lon="6.7752408"><ele>407.0</ele><time>2026-04-12T07:18:04.945Z</time></trkpt><trkpt lat="43.6461944" lon="6.7753476"><ele>407.0</ele><time>2026-04-12T07:18:07.945Z</time></trkpt><trkpt lat="43.646232" lon="6.7754253"><ele>406.99999999999994</ele><time>2026-04-12T07:18:09.945Z</time></trkpt><trkpt lat="43.6462829" lon="6.775528"><ele>407.0</ele><time>2026-04-12T07:18:12.945Z</time></trkpt><trkpt lat="43.6463343" lon="6.7756353"><ele>408.7142857142857</ele><time>2026-04-12T07:18:15.945Z</time></trkpt><trkpt lat="43.6463928" lon="6.7757354"><ele>410.42857142857144</ele><time>2026-04-12T07:18:18.945Z</time></trkpt><trkpt lat="43.6464315" lon="6.775811"><ele>412.1428571428571</ele><time>2026-04-12T07:18:20.945Z</time></trkpt><trkpt lat="43.6464647" lon="6.7758886"><ele>413.8571428571429</ele><time>2026-04-12T07:18:22.946Z</time></trkpt><trkpt lat="43.6464998" lon="6.7759628"><ele>415.57142857142856</ele><time>2026-04-12T07:18:24.945Z</time></trkpt><trkpt lat="43.6465328" lon="6.7760373"><ele>417.2857142857143</ele><time>2026-04-12T07:18:26.945Z</time></trkpt><trkpt lat="43.6465688" lon="6.7761105"><ele>419.0</ele><time>2026-04-12T07:18:28.945Z</time></trkpt><trkpt lat="43.6466064" lon="6.7761818"><ele>418.99999999999994</ele><time>2026-04-12T07:18:30.945Z</time></trkpt><trkpt lat="43.6466585" lon="6.7762897"><ele>419.0</ele><time>2026-04-12T07:18:33.945Z</time></trkpt><trkpt lat="43.6467122" lon="6.776396"><ele>419.0</ele><time>2026-04-12T07:18:36.946Z</time></trkpt><trkpt lat="43.6467452" lon="6.7764706"><ele>419.0</ele><time>2026-04-12T07:18:38.946Z</time></trkpt><trkpt lat="43.646789" lon="6.7765866"><ele>418.99999999999994</ele><time>2026-04-12T07:18:41.946Z</time></trkpt><trkpt lat="43.6468169" lon="6.7766657"><ele>419.0</ele><time>2026-04-12T07:18:43.947Z</time></trkpt><trkpt lat="43.6468371" lon="6.7767495"><ele>418.99999999999994</ele><time>2026-04-12T07:18:45.946Z</time></trkpt><trkpt lat="43.6468537" lon="6.7768344"><ele>419.0</ele><time>2026-04-12T07:18:47.946Z</time></trkpt><trkpt lat="43.646865" lon="6.7769228"><ele>419.0</ele><time>2026-04-12T07:18:49.946Z</time></trkpt><trkpt lat="43.6468821" lon="6.7770482"><ele>419.0</ele><time>2026-04-12T07:18:52.946Z</time></trkpt><trkpt lat="43.6469053" lon="6.777174"><ele>419.0</ele><time>2026-04-12T07:18:55.946Z</time></trkpt><trkpt lat="43.6469144" lon="6.7772608"><ele>418.99999999999994</ele><time>2026-04-12T07:18:57.947Z</time></trkpt><trkpt lat="43.6469197" lon="6.7773486"><ele>419.0</ele><time>2026-04-12T07:18:59.946Z</time></trkpt><trkpt lat="43.6469369" lon="6.7774695"><ele>419.4285714285714</ele><time>2026-04-12T07:19:02.946Z</time></trkpt><trkpt lat="43.6469434" lon="6.7775591"><ele>419.85714285714283</ele><time>2026-04-12T07:19:04.947Z</time></trkpt><trkpt lat="43.6469439" lon="6.7776507"><ele>420.2857142857143</ele><time>2026-04-12T07:19:06.946Z</time></trkpt><trkpt lat="43.6469443" lon="6.7777417"><ele>420.71428571428567</ele><time>2026-04-12T07:19:08.946Z</time></trkpt><trkpt lat="43.6469409" lon="6.77783"><ele>421.14285714285717</ele><time>2026-04-12T07:19:10.947Z</time></trkpt><trkpt lat="43.6469357" lon="6.7779174"><ele>421.57142857142856</ele><time>2026-04-12T07:19:12.946Z</time></trkpt><trkpt lat="43.6469308" lon="6.7780048"><ele>422.0</ele><time>2026-04-12T07:19:14.946Z</time></trkpt><trkpt lat="43.6469228" lon="6.7780945"><ele>423.0</ele><time>2026-04-12T07:19:16.947Z</time></trkpt><trkpt lat="43.6469164" lon="6.7781836"><ele>424.0</ele><time>2026-04-12T07:19:18.948Z</time></trkpt><trkpt lat="43.6469083" lon="6.7782723"><ele>425.0</ele><time>2026-04-12T07:19:20.947Z</time></trkpt><trkpt lat="43.6468988" lon="6.7783598"><ele>426.0</ele><time>2026-04-12T07:19:22.947Z</time></trkpt><trkpt lat="43.6468907" lon="6.7784921"><ele>427.0</ele><time>2026-04-12T07:19:25.947Z</time></trkpt><trkpt lat="43.6468851" lon="6.7785884"><ele>428.0</ele><time>2026-04-12T07:19:27.948Z</time></trkpt><trkpt lat="43.6468779" lon="6.7786946"><ele>429.0</ele><time>2026-04-12T07:19:29.947Z</time></trkpt><trkpt lat="43.6468696" lon="6.7788056"><ele>429.0</ele><time>2026-04-12T07:19:31.947Z</time></trkpt><trkpt lat="43.646864" lon="6.7789224"><ele>429.0</ele><time>2026-04-12T07:19:33.948Z</time></trkpt><trkpt lat="43.6468575" lon="6.7790412"><ele>429.0</ele><time>2026-04-12T07:19:35.947Z</time></trkpt><trkpt lat="43.6468438" lon="6.7791665"><ele>429.0</ele><time>2026-04-12T07:19:37.947Z</time></trkpt><trkpt lat="43.6468221" lon="6.779307"><ele>429.0</ele><time>2026-04-12T07:19:39.947Z</time></trkpt><trkpt lat="43.6468019" lon="6.7794693"><ele>428.1666666666667</ele><time>2026-04-12T07:19:41.948Z</time></trkpt><trkpt lat="43.6467804" lon="6.7795603"><ele>427.33333333333337</ele><time>2026-04-12T07:19:42.947Z</time></trkpt><trkpt lat="43.6467515" lon="6.7796536"><ele>426.5</ele><time>2026-04-12T07:19:43.947Z</time></trkpt><trkpt lat="43.6467175" lon="6.7797461"><ele>425.6666666666667</ele><time>2026-04-12T07:19:44.947Z</time></trkpt><trkpt lat="43.6466861" lon="6.7798354"><ele>424.83333333333337</ele><time>2026-04-12T07:19:45.947Z</time></trkpt><trkpt lat="43.6466654" lon="6.7799249"><ele>424.0</ele><time>2026-04-12T07:19:46.947Z</time></trkpt><trkpt lat="43.6466816" lon="6.7800906"><ele>424.0</ele><time>2026-04-12T07:19:48.948Z</time></trkpt><trkpt lat="43.6467317" lon="6.780152"><ele>424.0</ele><time>2026-04-12T07:19:49.948Z</time></trkpt><trkpt lat="43.6468682" lon="6.7801988"><ele>424.0</ele><time>2026-04-12T07:19:51.947Z</time></trkpt><trkpt lat="43.6469525" lon="6.780193"><ele>424.0</ele><time>2026-04-12T07:19:52.947Z</time></trkpt><trkpt lat="43.6470386" lon="6.7801808"><ele>424.0</ele><time>2026-04-12T07:19:53.948Z</time></trkpt><trkpt lat="43.6471334" lon="6.7801425"><ele>422.4</ele><time>2026-04-12T07:19:54.947Z</time></trkpt><trkpt lat="43.6472301" lon="6.7800979"><ele>420.79999999999995</ele><time>2026-04-12T07:19:55.947Z</time></trkpt><trkpt lat="43.6473315" lon="6.7800517"><ele>419.20000000000005</ele><time>2026-04-12T07:19:56.948Z</time></trkpt><trkpt lat="43.64743" lon="6.7799849"><ele>417.6</ele><time>2026-04-12T07:19:57.948Z</time></trkpt><trkpt lat="43.6475257" lon="6.7799152"><ele>416.0</ele><time>2026-04-12T07:19:58.947Z</time></trkpt><trkpt lat="43.6476246" lon="6.7798443"><ele>416.0</ele><time>2026-04-12T07:19:59.947Z</time></trkpt><trkpt lat="43.64773" lon="6.7797828"><ele>416.0</ele><time>2026-04-12T07:20:00.948Z</time></trkpt><trkpt lat="43.6478453" lon="6.779748"><ele>416.0</ele><time>2026-04-12T07:20:01.947Z</time></trkpt><trkpt lat="43.6479663" lon="6.7797435"><ele>416.0</ele><time>2026-04-12T07:20:02.948Z</time></trkpt><trkpt lat="43.6480886" lon="6.7797592"><ele>411.5</ele><time>2026-04-12T07:20:03.947Z</time></trkpt><trkpt lat="43.6482123" lon="6.7797818"><ele>407.0</ele><time>2026-04-12T07:20:04.948Z</time></trkpt><trkpt lat="43.648337" lon="6.779801"><ele>402.5</ele><time>2026-04-12T07:20:05.948Z</time></trkpt><trkpt lat="43.6484652" lon="6.7798115"><ele>398.0</ele><time>2026-04-12T07:20:06.948Z</time></trkpt><trkpt lat="43.6485958" lon="6.779815"><ele>397.0</ele><time>2026-04-12T07:20:07.948Z</time></trkpt><trkpt lat="43.6487265" lon="6.7798083"><ele>396.0</ele><time>2026-04-12T07:20:08.948Z</time></trkpt><trkpt lat="43.6488578" lon="6.7798048"><ele>395.0</ele><time>2026-04-12T07:20:09.949Z</time></trkpt><trkpt lat="43.6489886" lon="6.7798036"><ele>394.0</ele><time>2026-04-12T07:20:10.948Z</time></trkpt><trkpt lat="43.6491204" lon="6.7798053"><ele>394.0</ele><time>2026-04-12T07:20:11.948Z</time></trkpt><trkpt lat="43.6492509" lon="6.7798092"><ele>394.0</ele><time>2026-04-12T07:20:12.948Z</time></trkpt><trkpt lat="43.6493799" lon="6.7798128"><ele>394.0</ele><time>2026-04-12T07:20:13.948Z</time></trkpt><trkpt lat="43.6495083" lon="6.7798185"><ele>394.0</ele><time>2026-04-12T07:20:14.948Z</time></trkpt><trkpt lat="43.6496329" lon="6.7798282"><ele>393.0</ele><time>2026-04-12T07:20:15.948Z</time></trkpt><trkpt lat="43.6497542" lon="6.7798328"><ele>392.0</ele><time>2026-04-12T07:20:16.948Z</time></trkpt><trkpt lat="43.6498774" lon="6.7798425"><ele>391.0</ele><time>2026-04-12T07:20:17.949Z</time></trkpt><trkpt lat="43.6500028" lon="6.7798403"><ele>390.0</ele><time>2026-04-12T07:20:18.948Z</time></trkpt><trkpt lat="43.6501265" lon="6.7798213"><ele>390.0</ele><time>2026-04-12T07:20:19.948Z</time></trkpt><trkpt lat="43.6502447" lon="6.7797818"><ele>390.0</ele><time>2026-04-12T07:20:20.949Z</time></trkpt><trkpt lat="43.6503553" lon="6.7797289"><ele>390.0</ele><time>2026-04-12T07:20:21.948Z</time></trkpt><trkpt lat="43.6504642" lon="6.7796565"><ele>390.0</ele><time>2026-04-12T07:20:22.949Z</time></trkpt><trkpt lat="43.65057" lon="6.7795676"><ele>391.0</ele><time>2026-04-12T07:20:23.948Z</time></trkpt><trkpt lat="43.6506719" lon="6.7794653"><ele>392.0</ele><time>2026-04-12T07:20:24.948Z</time></trkpt><trkpt lat="43.6507701" lon="6.7793536"><ele>393.0</ele><time>2026-04-12T07:20:25.948Z</time></trkpt><trkpt lat="43.6508685" lon="6.779236"><ele>394.0</ele><time>2026-04-12T07:20:26.948Z</time></trkpt><trkpt lat="43.650965" lon="6.7791143"><ele>394.0</ele><time>2026-04-12T07:20:27.948Z</time></trkpt><trkpt lat="43.6510639" lon="6.778993"><ele>394.0</ele><time>2026-04-12T07:20:28.948Z</time></trkpt><trkpt lat="43.6511631" lon="6.7788782"><ele>394.0</ele><time>2026-04-12T07:20:29.948Z</time></trkpt><trkpt lat="43.6512635" lon="6.7787586"><ele>394.0</ele><time>2026-04-12T07:20:30.948Z</time></trkpt><trkpt lat="43.6513621" lon="6.7786371"><ele>388.5</ele><time>2026-04-12T07:20:31.949Z</time></trkpt><trkpt lat="43.6514573" lon="6.778503"><ele>383.0</ele><time>2026-04-12T07:20:32.948Z</time></trkpt><trkpt lat="43.6515457" lon="6.7783581"><ele>377.5</ele><time>2026-04-12T07:20:33.948Z</time></trkpt><trkpt lat="43.6516278" lon="6.7782043"><ele>372.0</ele><time>2026-04-12T07:20:34.948Z</time></trkpt><trkpt lat="43.6517024" lon="6.7780413"><ele>372.0</ele><time>2026-04-12T07:20:35.948Z</time></trkpt><trkpt lat="43.6517728" lon="6.7778738"><ele>372.0</ele><time>2026-04-12T07:20:36.95Z</time></trkpt><trkpt lat="43.6518387" lon="6.7777027"><ele>372.0</ele><time>2026-04-12T07:20:37.948Z</time></trkpt><trkpt lat="43.6519022" lon="6.7775268"><ele>372.0</ele><time>2026-04-12T07:20:38.949Z</time></trkpt><trkpt lat="43.6519642" lon="6.7773482"><ele>369.0</ele><time>2026-04-12T07:20:39.948Z</time></trkpt><trkpt lat="43.6520262" lon="6.7771692"><ele>366.0</ele><time>2026-04-12T07:20:40.948Z</time></trkpt><trkpt lat="43.6520897" lon="6.776989"><ele>363.0</ele><time>2026-04-12T07:20:41.949Z</time></trkpt><trkpt lat="43.652149" lon="6.7768111"><ele>360.0</ele><time>2026-04-12T07:20:42.949Z</time></trkpt><trkpt lat="43.6522059" lon="6.7766411"><ele>360.0</ele><time>2026-04-12T07:20:43.948Z</time></trkpt><trkpt lat="43.6522682" lon="6.7764749"><ele>360.0</ele><time>2026-04-12T07:20:44.948Z</time></trkpt><trkpt lat="43.6523408" lon="6.7763234"><ele>360.0</ele><time>2026-04-12T07:20:45.949Z</time></trkpt><trkpt lat="43.6524301" lon="6.7761957"><ele>360.0</ele><time>2026-04-12T07:20:46.948Z</time></trkpt><trkpt lat="43.6525284" lon="6.7760811"><ele>355.25</ele><time>2026-04-12T07:20:47.949Z</time></trkpt><trkpt lat="43.652631" lon="6.7759691"><ele>350.5</ele><time>2026-04-12T07:20:48.948Z</time></trkpt><trkpt lat="43.6527319" lon="6.7758637"><ele>345.75</ele><time>2026-04-12T07:20:49.948Z</time></trkpt><trkpt lat="43.6528276" lon="6.7757617"><ele>341.0</ele><time>2026-04-12T07:20:50.948Z</time></trkpt><trkpt lat="43.6529249" lon="6.7756627"><ele>341.0</ele><time>2026-04-12T07:20:51.948Z</time></trkpt><trkpt lat="43.6530199" lon="6.7755593"><ele>341.0</ele><time>2026-04-12T07:20:52.948Z</time></trkpt><trkpt lat="43.6531101" lon="6.7754546"><ele>341.0</ele><time>2026-04-12T07:20:53.949Z</time></trkpt><trkpt lat="43.653202" lon="6.7753452"><ele>341.0</ele><time>2026-04-12T07:20:54.949Z</time></trkpt><trkpt lat="43.6532919" lon="6.7752258"><ele>336.5</ele><time>2026-04-12T07:20:55.949Z</time></trkpt><trkpt lat="43.6533781" lon="6.7750944"><ele>332.0</ele><time>2026-04-12T07:20:56.949Z</time></trkpt><trkpt lat="43.6534648" lon="6.7749567"><ele>327.5</ele><time>2026-04-12T07:20:57.949Z</time></trkpt><trkpt lat="43.653548" lon="6.7748117"><ele>323.0</ele><time>2026-04-12T07:20:58.949Z</time></trkpt><trkpt lat="43.6536335" lon="6.7746631"><ele>323.0</ele><time>2026-04-12T07:20:59.949Z</time></trkpt><trkpt lat="43.6537192" lon="6.7745151"><ele>323.0</ele><time>2026-04-12T07:21:00.949Z</time></trkpt><trkpt lat="43.6538182" lon="6.7743792"><ele>323.0</ele><time>2026-04-12T07:21:01.949Z</time></trkpt><trkpt lat="43.6539182" lon="6.7742523"><ele>323.0</ele><time>2026-04-12T07:21:02.949Z</time></trkpt><trkpt lat="43.6540264" lon="6.774134"><ele>328.5</ele><time>2026-04-12T07:21:03.949Z</time></trkpt><trkpt lat="43.6541387" lon="6.7740207"><ele>334.0</ele><time>2026-04-12T07:21:04.949Z</time></trkpt><trkpt lat="43.6542432" lon="6.7739143"><ele>339.5</ele><time>2026-04-12T07:21:05.949Z</time></trkpt><trkpt lat="43.6543404" lon="6.7738186"><ele>345.0</ele><time>2026-04-12T07:21:06.949Z</time></trkpt><trkpt lat="43.6544287" lon="6.77373"><ele>342.0</ele><time>2026-04-12T07:21:07.949Z</time></trkpt><trkpt lat="43.6545065" lon="6.7736446"><ele>339.0</ele><time>2026-04-12T07:21:08.949Z</time></trkpt><trkpt lat="43.6545634" lon="6.7735293"><ele>336.0</ele><time>2026-04-12T07:21:09.95Z</time></trkpt><trkpt lat="43.6546019" lon="6.7733863"><ele>333.0</ele><time>2026-04-12T07:21:10.949Z</time></trkpt><trkpt lat="43.6546202" lon="6.7732105"><ele>330.0</ele><time>2026-04-12T07:21:11.949Z</time></trkpt><trkpt lat="43.6546244" lon="6.7730396"><ele>330.0</ele><time>2026-04-12T07:21:12.949Z</time></trkpt><trkpt lat="43.6546291" lon="6.7728693"><ele>330.0</ele><time>2026-04-12T07:21:13.95Z</time></trkpt><trkpt lat="43.6546484" lon="6.772698"><ele>330.0</ele><time>2026-04-12T07:21:14.949Z</time></trkpt><trkpt lat="43.6546803" lon="6.7725276"><ele>330.0</ele><time>2026-04-12T07:21:15.949Z</time></trkpt><trkpt lat="43.6547296" lon="6.772361"><ele>331.25</ele><time>2026-04-12T07:21:16.95Z</time></trkpt><trkpt lat="43.654796" lon="6.772193"><ele>332.5</ele><time>2026-04-12T07:21:17.949Z</time></trkpt><trkpt lat="43.6548608" lon="6.7720344"><ele>333.75</ele><time>2026-04-12T07:21:18.949Z</time></trkpt><trkpt lat="43.6549256" lon="6.7718745"><ele>335.0</ele><time>2026-04-12T07:21:19.949Z</time></trkpt><trkpt lat="43.654998" lon="6.7717165"><ele>337.0</ele><time>2026-04-12T07:21:20.949Z</time></trkpt><trkpt lat="43.6550662" lon="6.7715554"><ele>339.0</ele><time>2026-04-12T07:21:21.949Z</time></trkpt><trkpt lat="43.655131" lon="6.7713966"><ele>341.0</ele><time>2026-04-12T07:21:22.949Z</time></trkpt><trkpt lat="43.6551992" lon="6.7712311"><ele>343.0</ele><time>2026-04-12T07:21:23.95Z</time></trkpt><trkpt lat="43.6552732" lon="6.7710825"><ele>339.0</ele><time>2026-04-12T07:21:24.949Z</time></trkpt><trkpt lat="43.6553591" lon="6.7709563"><ele>335.0</ele><time>2026-04-12T07:21:25.949Z</time></trkpt><trkpt lat="43.6554799" lon="6.7708757"><ele>331.0</ele><time>2026-04-12T07:21:26.95Z</time></trkpt><trkpt lat="43.6556107" lon="6.7708315"><ele>327.0</ele><time>2026-04-12T07:21:27.949Z</time></trkpt><trkpt lat="43.6557499" lon="6.7707907"><ele>327.0</ele><time>2026-04-12T07:21:28.949Z</time></trkpt><trkpt lat="43.6558901" lon="6.7707413"><ele>327.0</ele><time>2026-04-12T07:21:29.95Z</time></trkpt><trkpt lat="43.656022" lon="6.7706689"><ele>327.0</ele><time>2026-04-12T07:21:30.95Z</time></trkpt><trkpt lat="43.6561493" lon="6.7705803"><ele>327.0</ele><time>2026-04-12T07:21:31.951Z</time></trkpt><trkpt lat="43.6562683" lon="6.7704802"><ele>325.75</ele><time>2026-04-12T07:21:32.949Z</time></trkpt><trkpt lat="43.6563743" lon="6.7703654"><ele>324.5</ele><time>2026-04-12T07:21:33.95Z</time></trkpt><trkpt lat="43.6564786" lon="6.77025"><ele>323.25</ele><time>2026-04-12T07:21:34.949Z</time></trkpt><trkpt lat="43.6565907" lon="6.7701325"><ele>322.0</ele><time>2026-04-12T07:21:35.95Z</time></trkpt><trkpt lat="43.6567043" lon="6.7700115"><ele>322.0</ele><time>2026-04-12T07:21:36.95Z</time></trkpt><trkpt lat="43.6568205" lon="6.7699047"><ele>322.0</ele><time>2026-04-12T07:21:37.951Z</time></trkpt><trkpt lat="43.6569331" lon="6.7698056"><ele>322.0</ele><time>2026-04-12T07:21:38.95Z</time></trkpt><trkpt lat="43.6570513" lon="6.7697127"><ele>322.0</ele><time>2026-04-12T07:21:39.95Z</time></trkpt><trkpt lat="43.6571668" lon="6.7696367"><ele>320.0</ele><time>2026-04-12T07:21:40.95Z</time></trkpt><trkpt lat="43.6572826" lon="6.7695718"><ele>318.0</ele><time>2026-04-12T07:21:41.95Z</time></trkpt><trkpt lat="43.6573866" lon="6.7695114"><ele>316.0</ele><time>2026-04-12T07:21:42.951Z</time></trkpt><trkpt lat="43.6574746" lon="6.7694553"><ele>314.0</ele><time>2026-04-12T07:21:43.95Z</time></trkpt><trkpt lat="43.6575457" lon="6.7693955"><ele>312.0</ele><time>2026-04-12T07:21:44.95Z</time></trkpt><trkpt lat="43.6575986" lon="6.7693315"><ele>312.0</ele><time>2026-04-12T07:21:45.95Z</time></trkpt><trkpt lat="43.6576412" lon="6.7692551"><ele>312.0</ele><time>2026-04-12T07:21:46.95Z</time></trkpt><trkpt lat="43.6576619" lon="6.7691581"><ele>312.0</ele><time>2026-04-12T07:21:47.95Z</time></trkpt><trkpt lat="43.6576515" lon="6.7690342"><ele>312.0</ele><time>2026-04-12T07:21:48.95Z</time></trkpt><trkpt lat="43.6576267" lon="6.7688864"><ele>312.0</ele><time>2026-04-12T07:21:49.95Z</time></trkpt><trkpt lat="43.6576078" lon="6.7687404"><ele>312.0</ele><time>2026-04-12T07:21:50.95Z</time></trkpt><trkpt lat="43.6576028" lon="6.7685905"><ele>312.0</ele><time>2026-04-12T07:21:51.95Z</time></trkpt><trkpt lat="43.6576078" lon="6.7684389"><ele>312.0</ele><time>2026-04-12T07:21:52.95Z</time></trkpt><trkpt lat="43.6576124" lon="6.7682836"><ele>312.0</ele><time>2026-04-12T07:21:53.95Z</time></trkpt><trkpt lat="43.6576388" lon="6.7681333"><ele>312.0</ele><time>2026-04-12T07:21:54.95Z</time></trkpt><trkpt lat="43.6576924" lon="6.7680025"><ele>314.25</ele><time>2026-04-12T07:21:55.95Z</time></trkpt><trkpt lat="43.657776" lon="6.7678946"><ele>316.5</ele><time>2026-04-12T07:21:56.951Z</time></trkpt><trkpt lat="43.6578912" lon="6.7678267"><ele>318.75</ele><time>2026-04-12T07:21:57.95Z</time></trkpt><trkpt lat="43.6580136" lon="6.7677646"><ele>321.0</ele><time>2026-04-12T07:21:58.95Z</time></trkpt><trkpt lat="43.6581316" lon="6.7676863"><ele>316.5</ele><time>2026-04-12T07:21:59.95Z</time></trkpt><trkpt lat="43.6582351" lon="6.7675959"><ele>312.0</ele><time>2026-04-12T07:22:00.95Z</time></trkpt><trkpt lat="43.6583463" lon="6.7675059"><ele>307.5</ele><time>2026-04-12T07:22:01.95Z</time></trkpt><trkpt lat="43.6584503" lon="6.7674076"><ele>303.0</ele><time>2026-04-12T07:22:02.95Z</time></trkpt><trkpt lat="43.6585529" lon="6.7673069"><ele>296.5</ele><time>2026-04-12T07:22:03.95Z</time></trkpt><trkpt lat="43.6586507" lon="6.7671948"><ele>290.0</ele><time>2026-04-12T07:22:04.95Z</time></trkpt><trkpt lat="43.6587408" lon="6.7670831"><ele>283.5</ele><time>2026-04-12T07:22:05.95Z</time></trkpt><trkpt lat="43.6588222" lon="6.766973"><ele>277.0</ele><time>2026-04-12T07:22:06.95Z</time></trkpt><trkpt lat="43.6588966" lon="6.766859"><ele>277.0</ele><time>2026-04-12T07:22:07.95Z</time></trkpt><trkpt lat="43.658963" lon="6.7667261"><ele>277.0</ele><time>2026-04-12T07:22:08.95Z</time></trkpt><trkpt lat="43.6590038" lon="6.7665634"><ele>277.0</ele><time>2026-04-12T07:22:09.95Z</time></trkpt><trkpt lat="43.6590403" lon="6.7663939"><ele>277.0</ele><time>2026-04-12T07:22:10.951Z</time></trkpt><trkpt lat="43.6590868" lon="6.7662302"><ele>277.0</ele><time>2026-04-12T07:22:11.95Z</time></trkpt><trkpt lat="43.6591441" lon="6.766077"><ele>277.0</ele><time>2026-04-12T07:22:12.95Z</time></trkpt><trkpt lat="43.6592007" lon="6.7659215"><ele>277.0</ele><time>2026-04-12T07:22:13.95Z</time></trkpt><trkpt lat="43.6592538" lon="6.7657796"><ele>277.0</ele><time>2026-04-12T07:22:14.95Z</time></trkpt><trkpt lat="43.6593028" lon="6.7656604"><ele>279.3333333333333</ele><time>2026-04-12T07:22:15.95Z</time></trkpt><trkpt lat="43.6593406" lon="6.7655631"><ele>281.66666666666663</ele><time>2026-04-12T07:22:16.951Z</time></trkpt><trkpt lat="43.6593725" lon="6.7654697"><ele>284.0</ele><time>2026-04-12T07:22:17.95Z</time></trkpt><trkpt lat="43.6593656" lon="6.765348"><ele>286.3333333333333</ele><time>2026-04-12T07:22:18.951Z</time></trkpt><trkpt lat="43.6593472" lon="6.7652177"><ele>288.6666666666667</ele><time>2026-04-12T07:22:19.951Z</time></trkpt><trkpt lat="43.6593251" lon="6.7651015"><ele>291.0</ele><time>2026-04-12T07:22:20.951Z</time></trkpt><trkpt lat="43.6593041" lon="6.7649848"><ele>294.2</ele><time>2026-04-12T07:22:21.952Z</time></trkpt><trkpt lat="43.6593139" lon="6.7648654"><ele>297.40000000000003</ele><time>2026-04-12T07:22:22.951Z</time></trkpt><trkpt lat="43.6593477" lon="6.7647729"><ele>300.6</ele><time>2026-04-12T07:22:23.951Z</time></trkpt><trkpt lat="43.6594204" lon="6.7647161"><ele>303.8</ele><time>2026-04-12T07:22:24.951Z</time></trkpt><trkpt lat="43.6595176" lon="6.7646538"><ele>307.0</ele><time>2026-04-12T07:22:25.952Z</time></trkpt><trkpt lat="43.6596085" lon="6.7645678"><ele>300.2</ele><time>2026-04-12T07:22:26.951Z</time></trkpt><trkpt lat="43.6596897" lon="6.7644706"><ele>293.4</ele><time>2026-04-12T07:22:27.951Z</time></trkpt><trkpt lat="43.659768" lon="6.7643494"><ele>286.6</ele><time>2026-04-12T07:22:28.951Z</time></trkpt><trkpt lat="43.6598461" lon="6.7642391"><ele>279.8</ele><time>2026-04-12T07:22:29.951Z</time></trkpt><trkpt lat="43.65992" lon="6.7641381"><ele>273.0</ele><time>2026-04-12T07:22:30.951Z</time></trkpt><trkpt lat="43.659986" lon="6.7640424"><ele>273.0</ele><time>2026-04-12T07:22:31.952Z</time></trkpt><trkpt lat="43.6600371" lon="6.7639352"><ele>273.0</ele><time>2026-04-12T07:22:32.951Z</time></trkpt><trkpt lat="43.6600649" lon="6.7638104"><ele>273.0</ele><time>2026-04-12T07:22:33.951Z</time></trkpt><trkpt lat="43.6600722" lon="6.7636576"><ele>273.0</ele><time>2026-04-12T07:22:34.951Z</time></trkpt><trkpt lat="43.6600977" lon="6.7635083"><ele>273.0</ele><time>2026-04-12T07:22:35.951Z</time></trkpt><trkpt lat="43.6601627" lon="6.7633887"><ele>270.75</ele><time>2026-04-12T07:22:36.951Z</time></trkpt><trkpt lat="43.6602582" lon="6.7633021"><ele>268.5</ele><time>2026-04-12T07:22:37.951Z</time></trkpt><trkpt lat="43.6603687" lon="6.7632522"><ele>266.25</ele><time>2026-04-12T07:22:38.951Z</time></trkpt><trkpt lat="43.6605007" lon="6.7632466"><ele>264.0</ele><time>2026-04-12T07:22:39.951Z</time></trkpt><trkpt lat="43.6606231" lon="6.763232"><ele>264.0</ele><time>2026-04-12T07:22:40.951Z</time></trkpt><trkpt lat="43.6607304" lon="6.7631917"><ele>264.0</ele><time>2026-04-12T07:22:41.951Z</time></trkpt><trkpt lat="43.6608332" lon="6.7631144"><ele>264.0</ele><time>2026-04-12T07:22:42.951Z</time></trkpt><trkpt lat="43.6609244" lon="6.7630223"><ele>264.0</ele><time>2026-04-12T07:22:43.951Z</time></trkpt><trkpt lat="43.6610158" lon="6.762928"><ele>264.0</ele><time>2026-04-12T07:22:44.951Z</time></trkpt><trkpt lat="43.6611042" lon="6.762827"><ele>264.0</ele><time>2026-04-12T07:22:45.951Z</time></trkpt><trkpt lat="43.6611927" lon="6.7627194"><ele>264.0</ele><time>2026-04-12T07:22:46.951Z</time></trkpt><trkpt lat="43.6612816" lon="6.7625975"><ele>264.0</ele><time>2026-04-12T07:22:47.952Z</time></trkpt><trkpt lat="43.6613708" lon="6.7624667"><ele>262.5</ele><time>2026-04-12T07:22:48.952Z</time></trkpt><trkpt lat="43.6614587" lon="6.762338"><ele>261.0</ele><time>2026-04-12T07:22:49.952Z</time></trkpt><trkpt lat="43.6615509" lon="6.7622169"><ele>259.5</ele><time>2026-04-12T07:22:50.951Z</time></trkpt><trkpt lat="43.6616495" lon="6.7621107"><ele>258.0</ele><time>2026-04-12T07:22:51.951Z</time></trkpt><trkpt lat="43.6617582" lon="6.7620194"><ele>258.0</ele><time>2026-04-12T07:22:52.951Z</time></trkpt><trkpt lat="43.661867" lon="6.7619353"><ele>258.0</ele><time>2026-04-12T07:22:53.951Z</time></trkpt><trkpt lat="43.6619833" lon="6.7618577"><ele>258.0</ele><time>2026-04-12T07:22:54.952Z</time></trkpt><trkpt lat="43.6621123" lon="6.7617995"><ele>258.0</ele><time>2026-04-12T07:22:55.952Z</time></trkpt><trkpt lat="43.6622476" lon="6.7617612"><ele>259.75</ele><time>2026-04-12T07:22:56.952Z</time></trkpt><trkpt lat="43.6623775" lon="6.7617257"><ele>261.5</ele><time>2026-04-12T07:22:57.951Z</time></trkpt><trkpt lat="43.6624992" lon="6.7616989"><ele>263.25</ele><time>2026-04-12T07:22:58.951Z</time></trkpt><trkpt lat="43.6626245" lon="6.7616772"><ele>265.0</ele><time>2026-04-12T07:22:59.952Z</time></trkpt><trkpt lat="43.662753" lon="6.7616712"><ele>262.5</ele><time>2026-04-12T07:23:00.951Z</time></trkpt><trkpt lat="43.6628825" lon="6.7616762"><ele>260.0</ele><time>2026-04-12T07:23:01.952Z</time></trkpt><trkpt lat="43.6630098" lon="6.7616875"><ele>257.5</ele><time>2026-04-12T07:23:02.952Z</time></trkpt><trkpt lat="43.6631512" lon="6.7616843"><ele>255.0</ele><time>2026-04-12T07:23:03.952Z</time></trkpt><trkpt lat="43.6632826" lon="6.7616611"><ele>255.0</ele><time>2026-04-12T07:23:04.951Z</time></trkpt><trkpt lat="43.663409" lon="6.761653"><ele>255.0</ele><time>2026-04-12T07:23:05.951Z</time></trkpt><trkpt lat="43.6635323" lon="6.7616741"><ele>255.0</ele><time>2026-04-12T07:23:06.951Z</time></trkpt><trkpt lat="43.6636627" lon="6.7616903"><ele>255.0</ele><time>2026-04-12T07:23:07.952Z</time></trkpt><trkpt lat="43.663796" lon="6.761701"><ele>252.4</ele><time>2026-04-12T07:23:08.952Z</time></trkpt><trkpt lat="43.6639131" lon="6.761708"><ele>249.8</ele><time>2026-04-12T07:23:09.952Z</time></trkpt><trkpt lat="43.6640268" lon="6.761729"><ele>247.2</ele><time>2026-04-12T07:23:10.953Z</time></trkpt><trkpt lat="43.6641309" lon="6.7617461"><ele>244.6</ele><time>2026-04-12T07:23:11.952Z</time></trkpt><trkpt lat="43.6642388" lon="6.7617215"><ele>242.0</ele><time>2026-04-12T07:23:12.952Z</time></trkpt><trkpt lat="43.6643525" lon="6.7616806"><ele>239.25</ele><time>2026-04-12T07:23:13.953Z</time></trkpt><trkpt lat="43.6644733" lon="6.7616374"><ele>236.5</ele><time>2026-04-12T07:23:14.952Z</time></trkpt><trkpt lat="43.6646046" lon="6.761596"><ele>233.75</ele><time>2026-04-12T07:23:15.952Z</time></trkpt><trkpt lat="43.6647387" lon="6.7615569"><ele>231.0</ele><time>2026-04-12T07:23:16.952Z</time></trkpt><trkpt lat="43.6648711" lon="6.7615251"><ele>231.0</ele><time>2026-04-12T07:23:17.952Z</time></trkpt><trkpt lat="43.6649916" lon="6.7614958"><ele>231.00000000000003</ele><time>2026-04-12T07:23:18.952Z</time></trkpt><trkpt lat="43.6651072" lon="6.7614754"><ele>231.00000000000003</ele><time>2026-04-12T07:23:19.952Z</time></trkpt><trkpt lat="43.6652082" lon="6.7614634"><ele>231.0</ele><time>2026-04-12T07:23:20.952Z</time></trkpt><trkpt lat="43.6653015" lon="6.7614423"><ele>231.0</ele><time>2026-04-12T07:23:21.952Z</time></trkpt><trkpt lat="43.6653916" lon="6.7613877"><ele>230.60000000000002</ele><time>2026-04-12T07:23:22.952Z</time></trkpt><trkpt lat="43.6654864" lon="6.7612985"><ele>230.20000000000002</ele><time>2026-04-12T07:23:23.952Z</time></trkpt><trkpt lat="43.6655576" lon="6.7611928"><ele>229.79999999999998</ele><time>2026-04-12T07:23:24.952Z</time></trkpt><trkpt lat="43.6656173" lon="6.7610707"><ele>229.39999999999998</ele><time>2026-04-12T07:23:25.952Z</time></trkpt><trkpt lat="43.6656564" lon="6.7609476"><ele>229.0</ele><time>2026-04-12T07:23:26.953Z</time></trkpt><trkpt lat="43.6656879" lon="6.7608386"><ele>228.66666666666666</ele><time>2026-04-12T07:23:27.952Z</time></trkpt><trkpt lat="43.6657216" lon="6.7607375"><ele>228.33333333333331</ele><time>2026-04-12T07:23:28.954Z</time></trkpt><trkpt lat="43.6657707" lon="6.7606497"><ele>228.0</ele><time>2026-04-12T07:23:29.952Z</time></trkpt><trkpt lat="43.665835" lon="6.7605782"><ele>227.66666666666669</ele><time>2026-04-12T07:23:30.952Z</time></trkpt><trkpt lat="43.665913" lon="6.7605109"><ele>227.33333333333334</ele><time>2026-04-12T07:23:31.952Z</time></trkpt><trkpt lat="43.6659995" lon="6.7604545"><ele>227.0</ele><time>2026-04-12T07:23:32.952Z</time></trkpt><trkpt lat="43.6660865" lon="6.7604156"><ele>228.33333333333334</ele><time>2026-04-12T07:23:33.952Z</time></trkpt><trkpt lat="43.6661792" lon="6.7604044"><ele>229.66666666666669</ele><time>2026-04-12T07:23:34.952Z</time></trkpt><trkpt lat="43.6662692" lon="6.7604128"><ele>231.0</ele><time>2026-04-12T07:23:35.952Z</time></trkpt><trkpt lat="43.6663516" lon="6.7604353"><ele>232.33333333333331</ele><time>2026-04-12T07:23:36.953Z</time></trkpt><trkpt lat="43.6664261" lon="6.7604603"><ele>233.66666666666666</ele><time>2026-04-12T07:23:37.952Z</time></trkpt><trkpt lat="43.6664965" lon="6.7604819"><ele>235.0</ele><time>2026-04-12T07:23:38.953Z</time></trkpt><trkpt lat="43.6665612" lon="6.7604998"><ele>234.99999999999997</ele><time>2026-04-12T07:23:39.953Z</time></trkpt><trkpt lat="43.6666699" lon="6.7605207"><ele>235.0</ele><time>2026-04-12T07:23:41.952Z</time></trkpt><trkpt lat="43.6667764" lon="6.7605396"><ele>235.0</ele><time>2026-04-12T07:23:43.953Z</time></trkpt><trkpt lat="43.6668643" lon="6.7605593"><ele>235.0</ele><time>2026-04-12T07:23:45.952Z</time></trkpt><trkpt lat="43.6669283" lon="6.7605939"><ele>234.99999999999997</ele><time>2026-04-12T07:23:47.952Z</time></trkpt><trkpt lat="43.6669976" lon="6.7606071"><ele>235.0</ele><time>2026-04-12T07:23:50.952Z</time></trkpt><trkpt lat="43.6669945" lon="6.7605195"><ele>234.99999999999997</ele><time>2026-04-12T07:23:53.953Z</time></trkpt><trkpt lat="43.6669407" lon="6.7604556"><ele>235.0</ele><time>2026-04-12T07:23:55.953Z</time></trkpt><trkpt lat="43.6668712" lon="6.7603904"><ele>235.0</ele><time>2026-04-12T07:23:58.953Z</time></trkpt><trkpt lat="43.6668098" lon="6.7603469"><ele>235.0</ele><time>2026-04-12T07:24:00.953Z</time></trkpt><trkpt lat="43.6667149" lon="6.7603169"><ele>234.99999999999997</ele><time>2026-04-12T07:24:03.954Z</time></trkpt><trkpt lat="43.6666395" lon="6.7603158"><ele>235.0</ele><time>2026-04-12T07:24:05.953Z</time></trkpt><trkpt lat="43.6665585" lon="6.7603076"><ele>235.0</ele><time>2026-04-12T07:24:07.953Z</time></trkpt><trkpt lat="43.6664796" lon="6.7603013"><ele>234.99999999999997</ele><time>2026-04-12T07:24:09.953Z</time></trkpt><trkpt lat="43.6664124" lon="6.7602734"><ele>235.0</ele><time>2026-04-12T07:24:11.953Z</time></trkpt><trkpt lat="43.6664056" lon="6.76018"><ele>235.0</ele><time>2026-04-12T07:24:14.953Z</time></trkpt><trkpt lat="43.666485" lon="6.7601581"><ele>234.99999999999997</ele><time>2026-04-12T07:24:17.953Z</time></trkpt><trkpt lat="43.666548" lon="6.7601398"><ele>235.0</ele><time>2026-04-12T07:24:19.953Z</time></trkpt><trkpt lat="43.6666125" lon="6.7601295"><ele>235.0</ele><time>2026-04-12T07:24:21.953Z</time></trkpt><trkpt lat="43.666702" lon="6.7600918"><ele>237.33333333333331</ele><time>2026-04-12T07:24:24.953Z</time></trkpt><trkpt lat="43.6667663" lon="6.7600909"><ele>239.66666666666666</ele><time>2026-04-12T07:24:26.954Z</time></trkpt><trkpt lat="43.6668561" lon="6.7601276"><ele>242.0</ele><time>2026-04-12T07:24:30.953Z</time></trkpt><trkpt lat="43.666944" lon="6.7601549"><ele>244.33333333333331</ele><time>2026-04-12T07:24:33.953Z</time></trkpt><trkpt lat="43.6670059" lon="6.7601871"><ele>246.66666666666666</ele><time>2026-04-12T07:24:35.953Z</time></trkpt><trkpt lat="43.6670735" lon="6.7602232"><ele>249.0</ele><time>2026-04-12T07:24:37.954Z</time></trkpt><trkpt lat="43.667141" lon="6.760268"><ele>249.0</ele><time>2026-04-12T07:24:40.954Z</time></trkpt><trkpt lat="43.6672235" lon="6.7602982"><ele>249.0</ele><time>2026-04-12T07:24:43.954Z</time></trkpt><trkpt lat="43.6673033" lon="6.760335"><ele>249.0</ele><time>2026-04-12T07:24:46.954Z</time></trkpt><trkpt lat="43.6673738" lon="6.7603844"><ele>249.0</ele><time>2026-04-12T07:24:49.954Z</time></trkpt><trkpt lat="43.6674417" lon="6.7604436"><ele>249.0</ele><time>2026-04-12T07:24:52.954Z</time></trkpt><trkpt lat="43.6675112" lon="6.7605134"><ele>249.0</ele><time>2026-04-12T07:24:54.954Z</time></trkpt><trkpt lat="43.6675746" lon="6.7605663"><ele>249.0</ele><time>2026-04-12T07:24:56.954Z</time></trkpt><trkpt lat="43.667648" lon="6.76062"><ele>249.0</ele><time>2026-04-12T07:24:58.954Z</time></trkpt><trkpt lat="43.6677137" lon="6.7606876"><ele>249.0</ele><time>2026-04-12T07:25:00.954Z</time></trkpt><trkpt lat="43.6677941" lon="6.7607422"><ele>249.0</ele><time>2026-04-12T07:25:03.955Z</time></trkpt><trkpt lat="43.6678496" lon="6.7607878"><ele>249.0</ele><time>2026-04-12T07:25:05.954Z</time></trkpt><trkpt lat="43.6679077" lon="6.7608297"><ele>249.0</ele><time>2026-04-12T07:25:07.956Z</time></trkpt><trkpt lat="43.6679684" lon="6.7608915"><ele>247.83333333333334</ele><time>2026-04-12T07:25:10.954Z</time></trkpt><trkpt lat="43.6680243" lon="6.7609343"><ele>246.66666666666669</ele><time>2026-04-12T07:25:12.955Z</time></trkpt><trkpt lat="43.6680811" lon="6.7609985"><ele>245.5</ele><time>2026-04-12T07:25:14.954Z</time></trkpt><trkpt lat="43.6681605" lon="6.7610646"><ele>244.33333333333334</ele><time>2026-04-12T07:25:17.955Z</time></trkpt><trkpt lat="43.6682386" lon="6.7611087"><ele>243.16666666666669</ele><time>2026-04-12T07:25:20.954Z</time></trkpt><trkpt lat="43.668336" lon="6.7611387"><ele>242.0</ele><time>2026-04-12T07:25:23.956Z</time></trkpt><trkpt lat="43.6684034" lon="6.7611452"><ele>242.00000000000003</ele><time>2026-04-12T07:25:25.955Z</time></trkpt><trkpt lat="43.6684908" lon="6.7611557"><ele>242.0</ele><time>2026-04-12T07:25:28.955Z</time></trkpt><trkpt lat="43.6685688" lon="6.7611614"><ele>242.0</ele><time>2026-04-12T07:25:31.955Z</time></trkpt><trkpt lat="43.6686344" lon="6.7611614"><ele>242.0</ele><time>2026-04-12T07:25:34.955Z</time></trkpt><trkpt lat="43.6687161" lon="6.7611587"><ele>242.00000000000003</ele><time>2026-04-12T07:25:37.955Z</time></trkpt><trkpt lat="43.6688161" lon="6.7611494"><ele>242.0</ele><time>2026-04-12T07:25:40.955Z</time></trkpt><trkpt lat="43.6688796" lon="6.7611333"><ele>243.33333333333334</ele><time>2026-04-12T07:25:42.955Z</time></trkpt><trkpt lat="43.6689638" lon="6.761117"><ele>244.66666666666669</ele><time>2026-04-12T07:25:45.955Z</time></trkpt><trkpt lat="43.669027" lon="6.7610972"><ele>246.0</ele><time>2026-04-12T07:25:47.955Z</time></trkpt><trkpt lat="43.669113" lon="6.7610721"><ele>247.33333333333331</ele><time>2026-04-12T07:25:50.955Z</time></trkpt><trkpt lat="43.6691913" lon="6.7610352"><ele>248.66666666666666</ele><time>2026-04-12T07:25:53.955Z</time></trkpt><trkpt lat="43.6692648" lon="6.7609886"><ele>250.0</ele><time>2026-04-12T07:25:56.955Z</time></trkpt><trkpt lat="43.6693339" lon="6.760932"><ele>250.66666666666666</ele><time>2026-04-12T07:25:59.956Z</time></trkpt><trkpt lat="43.6693883" lon="6.7608828"><ele>251.33333333333331</ele><time>2026-04-12T07:26:01.956Z</time></trkpt><trkpt lat="43.6694538" lon="6.7608024"><ele>252.0</ele><time>2026-04-12T07:26:04.956Z</time></trkpt><trkpt lat="43.6695138" lon="6.7607326"><ele>252.66666666666669</ele><time>2026-04-12T07:26:07.957Z</time></trkpt><trkpt lat="43.6695703" lon="6.7606724"><ele>253.33333333333334</ele><time>2026-04-12T07:26:10.956Z</time></trkpt><trkpt lat="43.6696319" lon="6.7606152"><ele>254.0</ele><time>2026-04-12T07:26:13.956Z</time></trkpt><trkpt lat="43.6697052" lon="6.760551"><ele>254.00000000000003</ele><time>2026-04-12T07:26:16.956Z</time></trkpt><trkpt lat="43.6697854" lon="6.7605103"><ele>254.0</ele><time>2026-04-12T07:26:19.956Z</time></trkpt><trkpt lat="43.6698714" lon="6.7604823"><ele>254.0</ele><time>2026-04-12T07:26:22.956Z</time></trkpt><trkpt lat="43.6699297" lon="6.7604457"><ele>254.0</ele><time>2026-04-12T07:26:24.957Z</time></trkpt><trkpt lat="43.6699791" lon="6.760378"><ele>254.00000000000003</ele><time>2026-04-12T07:26:26.957Z</time></trkpt><trkpt lat="43.6700446" lon="6.760301"><ele>254.0</ele><time>2026-04-12T07:26:29.957Z</time></trkpt><trkpt lat="43.6700965" lon="6.7602394"><ele>256.5</ele><time>2026-04-12T07:26:31.956Z</time></trkpt><trkpt lat="43.6701509" lon="6.7601774"><ele>259.0</ele><time>2026-04-12T07:26:33.957Z</time></trkpt><trkpt lat="43.6702226" lon="6.7601138"><ele>261.5</ele><time>2026-04-12T07:26:36.956Z</time></trkpt><trkpt lat="43.6703107" lon="6.7600813"><ele>264.0</ele><time>2026-04-12T07:26:39.956Z</time></trkpt><trkpt lat="43.6703812" lon="6.7600808"><ele>266.5</ele><time>2026-04-12T07:26:41.956Z</time></trkpt><trkpt lat="43.6704484" lon="6.7600769"><ele>269.0</ele><time>2026-04-12T07:26:43.956Z</time></trkpt><trkpt lat="43.6705293" lon="6.7600272"><ele>269.0</ele><time>2026-04-12T07:26:46.956Z</time></trkpt><trkpt lat="43.6705984" lon="6.7599491"><ele>269.0</ele><time>2026-04-12T07:26:49.956Z</time></trkpt><trkpt lat="43.6706583" lon="6.7598691"><ele>269.0</ele><time>2026-04-12T07:26:52.957Z</time></trkpt><trkpt lat="43.6707208" lon="6.7598032"><ele>269.0</ele><time>2026-04-12T07:26:55.957Z</time></trkpt><trkpt lat="43.6707792" lon="6.7597406"><ele>269.0</ele><time>2026-04-12T07:26:58.957Z</time></trkpt><trkpt lat="43.6708424" lon="6.7597061"><ele>269.0</ele><time>2026-04-12T07:27:00.958Z</time></trkpt><trkpt lat="43.6709013" lon="6.7596743"><ele>269.0</ele><time>2026-04-12T07:27:02.958Z</time></trkpt><trkpt lat="43.6709694" lon="6.7596628"><ele>269.0</ele><time>2026-04-12T07:27:04.958Z</time></trkpt><trkpt lat="43.6710633" lon="6.7596544"><ele>269.0</ele><time>2026-04-12T07:27:07.958Z</time></trkpt><trkpt lat="43.6711366" lon="6.7596347"><ele>269.0</ele><time>2026-04-12T07:27:10.957Z</time></trkpt><trkpt lat="43.6712134" lon="6.7596099"><ele>269.0</ele><time>2026-04-12T07:27:13.957Z</time></trkpt><trkpt lat="43.6712896" lon="6.7595642"><ele>269.0</ele><time>2026-04-12T07:27:16.957Z</time></trkpt><trkpt lat="43.6713783" lon="6.7595479"><ele>268.5</ele><time>2026-04-12T07:27:19.959Z</time></trkpt><trkpt lat="43.6714398" lon="6.7595727"><ele>268.0</ele><time>2026-04-12T07:27:21.957Z</time></trkpt><trkpt lat="43.6715273" lon="6.7596028"><ele>267.5</ele><time>2026-04-12T07:27:24.957Z</time></trkpt><trkpt lat="43.6715934" lon="6.759602"><ele>267.0</ele><time>2026-04-12T07:27:26.958Z</time></trkpt><trkpt lat="43.6716755" lon="6.7595835"><ele>266.5</ele><time>2026-04-12T07:27:29.958Z</time></trkpt><trkpt lat="43.6717514" lon="6.7595532"><ele>266.0</ele><time>2026-04-12T07:27:32.959Z</time></trkpt><trkpt lat="43.6718359" lon="6.7595267"><ele>266.0</ele><time>2026-04-12T07:27:35.958Z</time></trkpt><trkpt lat="43.6719258" lon="6.7595206"><ele>266.0</ele><time>2026-04-12T07:27:38.958Z</time></trkpt><trkpt lat="43.6720128" lon="6.7595282"><ele>266.0</ele><time>2026-04-12T07:27:41.959Z</time></trkpt><trkpt lat="43.6720955" lon="6.7595221"><ele>266.0</ele><time>2026-04-12T07:27:44.959Z</time></trkpt><trkpt lat="43.6721667" lon="6.7595266"><ele>266.0</ele><time>2026-04-12T07:27:47.958Z</time></trkpt><trkpt lat="43.6722501" lon="6.7595379"><ele>266.0</ele><time>2026-04-12T07:27:50.958Z</time></trkpt><trkpt lat="43.6723129" lon="6.7595306"><ele>266.6666666666667</ele><time>2026-04-12T07:27:52.959Z</time></trkpt><trkpt lat="43.6724066" lon="6.7595221"><ele>267.33333333333337</ele><time>2026-04-12T07:27:55.958Z</time></trkpt><trkpt lat="43.6724936" lon="6.7595277"><ele>268.0</ele><time>2026-04-12T07:27:58.958Z</time></trkpt><trkpt lat="43.6725763" lon="6.7595343"><ele>268.6666666666667</ele><time>2026-04-12T07:28:01.958Z</time></trkpt><trkpt lat="43.672658" lon="6.759541"><ele>269.3333333333333</ele><time>2026-04-12T07:28:04.958Z</time></trkpt><trkpt lat="43.6727398" lon="6.7595354"><ele>270.0</ele><time>2026-04-12T07:28:07.958Z</time></trkpt><trkpt lat="43.6728197" lon="6.7595348"><ele>270.1666666666667</ele><time>2026-04-12T07:28:10.958Z</time></trkpt><trkpt lat="43.6728978" lon="6.7595047"><ele>270.3333333333333</ele><time>2026-04-12T07:28:13.958Z</time></trkpt><trkpt lat="43.6729738" lon="6.759448"><ele>270.5</ele><time>2026-04-12T07:28:16.959Z</time></trkpt><trkpt lat="43.6730256" lon="6.759363"><ele>270.66666666666663</ele><time>2026-04-12T07:28:19.959Z</time></trkpt><trkpt lat="43.673068" lon="6.759269"><ele>270.8333333333333</ele><time>2026-04-12T07:28:22.959Z</time></trkpt><trkpt lat="43.6731096" lon="6.7591843"><ele>271.0</ele><time>2026-04-12T07:28:25.959Z</time></trkpt><trkpt lat="43.6731633" lon="6.7590882"><ele>274.5</ele><time>2026-04-12T07:28:28.959Z</time></trkpt><trkpt lat="43.6732202" lon="6.7590049"><ele>278.0</ele><time>2026-04-12T07:28:31.959Z</time></trkpt><trkpt lat="43.6732938" lon="6.7589371"><ele>281.5</ele><time>2026-04-12T07:28:34.959Z</time></trkpt><trkpt lat="43.6733666" lon="6.7588594"><ele>285.0</ele><time>2026-04-12T07:28:37.959Z</time></trkpt><trkpt lat="43.6734293" lon="6.7587625"><ele>288.5</ele><time>2026-04-12T07:28:40.959Z</time></trkpt><trkpt lat="43.6734618" lon="6.7586604"><ele>292.0</ele><time>2026-04-12T07:28:43.959Z</time></trkpt><trkpt lat="43.6735118" lon="6.7585877"><ele>292.0</ele><time>2026-04-12T07:28:46.959Z</time></trkpt><trkpt lat="43.6736012" lon="6.7586029"><ele>292.0</ele><time>2026-04-12T07:28:49.959Z</time></trkpt><trkpt lat="43.6736913" lon="6.7586252"><ele>292.0</ele><time>2026-04-12T07:28:52.959Z</time></trkpt><trkpt lat="43.6737613" lon="6.7586334"><ele>292.0</ele><time>2026-04-12T07:28:54.961Z</time></trkpt><trkpt lat="43.6738492" lon="6.7586183"><ele>292.0</ele><time>2026-04-12T07:28:57.96Z</time></trkpt><trkpt lat="43.6739396" lon="6.7586174"><ele>292.0</ele><time>2026-04-12T07:29:00.959Z</time></trkpt><trkpt lat="43.6740169" lon="6.758602"><ele>292.66666666666663</ele><time>2026-04-12T07:29:03.96Z</time></trkpt><trkpt lat="43.6741023" lon="6.7586172"><ele>293.3333333333333</ele><time>2026-04-12T07:29:06.96Z</time></trkpt><trkpt lat="43.6741919" lon="6.7586532"><ele>294.0</ele><time>2026-04-12T07:29:09.96Z</time></trkpt><trkpt lat="43.6742671" lon="6.7587165"><ele>294.6666666666667</ele><time>2026-04-12T07:29:12.96Z</time></trkpt><trkpt lat="43.6743278" lon="6.7588029"><ele>295.33333333333337</ele><time>2026-04-12T07:29:15.96Z</time></trkpt><trkpt lat="43.6743841" lon="6.7588988"><ele>296.0</ele><time>2026-04-12T07:29:18.96Z</time></trkpt><trkpt lat="43.6744385" lon="6.7589947"><ele>299.1666666666667</ele><time>2026-04-12T07:29:21.96Z</time></trkpt><trkpt lat="43.6744774" lon="6.7590845"><ele>302.33333333333337</ele><time>2026-04-12T07:29:24.96Z</time></trkpt><trkpt lat="43.6745408" lon="6.7591818"><ele>305.5</ele><time>2026-04-12T07:29:27.961Z</time></trkpt><trkpt lat="43.6745911" lon="6.7592803"><ele>308.6666666666667</ele><time>2026-04-12T07:29:30.96Z</time></trkpt><trkpt lat="43.6746189" lon="6.7593997"><ele>311.8333333333333</ele><time>2026-04-12T07:29:33.96Z</time></trkpt><trkpt lat="43.6746459" lon="6.7594829"><ele>315.0</ele><time>2026-04-12T07:29:35.96Z</time></trkpt><trkpt lat="43.6746651" lon="6.7595997"><ele>315.0</ele><time>2026-04-12T07:29:38.96Z</time></trkpt><trkpt lat="43.674692" lon="6.7596996"><ele>315.0</ele><time>2026-04-12T07:29:41.961Z</time></trkpt><trkpt lat="43.6747386" lon="6.759793"><ele>315.0</ele><time>2026-04-12T07:29:44.961Z</time></trkpt><trkpt lat="43.6747846" lon="6.7598968"><ele>315.0</ele><time>2026-04-12T07:29:47.96Z</time></trkpt><trkpt lat="43.6748356" lon="6.759999"><ele>315.0</ele><time>2026-04-12T07:29:50.96Z</time></trkpt><trkpt lat="43.6748834" lon="6.7600944"><ele>315.0</ele><time>2026-04-12T07:29:53.961Z</time></trkpt><trkpt lat="43.6749179" lon="6.7601913"><ele>312.6666666666667</ele><time>2026-04-12T07:29:56.961Z</time></trkpt><trkpt lat="43.6749656" lon="6.7602915"><ele>310.3333333333333</ele><time>2026-04-12T07:29:59.961Z</time></trkpt><trkpt lat="43.6750315" lon="6.7603789"><ele>308.0</ele><time>2026-04-12T07:30:02.961Z</time></trkpt><trkpt lat="43.6750903" lon="6.7604113"><ele>305.66666666666663</ele><time>2026-04-12T07:30:04.961Z</time></trkpt><trkpt lat="43.6751695" lon="6.7603588"><ele>303.3333333333333</ele><time>2026-04-12T07:30:07.961Z</time></trkpt><trkpt lat="43.6752281" lon="6.7602775"><ele>301.0</ele><time>2026-04-12T07:30:10.961Z</time></trkpt><trkpt lat="43.6753138" lon="6.7602264"><ele>301.0</ele><time>2026-04-12T07:30:13.961Z</time></trkpt><trkpt lat="43.6753947" lon="6.7602029"><ele>301.0</ele><time>2026-04-12T07:30:16.961Z</time></trkpt><trkpt lat="43.6754578" lon="6.760175"><ele>301.0</ele><time>2026-04-12T07:30:18.961Z</time></trkpt><trkpt lat="43.6755418" lon="6.7601502"><ele>301.0</ele><time>2026-04-12T07:30:21.961Z</time></trkpt><trkpt lat="43.6756309" lon="6.7601519"><ele>301.0</ele><time>2026-04-12T07:30:24.962Z</time></trkpt><trkpt lat="43.6757185" lon="6.7601469"><ele>301.0</ele><time>2026-04-12T07:30:27.961Z</time></trkpt><trkpt lat="43.6757941" lon="6.7601478"><ele>307.5</ele><time>2026-04-12T07:30:30.963Z</time></trkpt><trkpt lat="43.6758794" lon="6.760158"><ele>314.0</ele><time>2026-04-12T07:30:33.962Z</time></trkpt><trkpt lat="43.6759447" lon="6.7601605"><ele>320.5</ele><time>2026-04-12T07:30:35.961Z</time></trkpt><trkpt lat="43.6760107" lon="6.7601655"><ele>327.0</ele><time>2026-04-12T07:30:37.962Z</time></trkpt><trkpt lat="43.676097" lon="6.7601773"><ele>333.5</ele><time>2026-04-12T07:30:40.962Z</time></trkpt><trkpt lat="43.6761767" lon="6.7601907"><ele>340.0</ele><time>2026-04-12T07:30:43.962Z</time></trkpt><trkpt lat="43.6762542" lon="6.7601992"><ele>336.14285714285717</ele><time>2026-04-12T07:30:46.962Z</time></trkpt><trkpt lat="43.6763273" lon="6.7602195"><ele>332.2857142857143</ele><time>2026-04-12T07:30:49.962Z</time></trkpt><trkpt lat="43.6763937" lon="6.7602238"><ele>328.42857142857144</ele><time>2026-04-12T07:30:52.962Z</time></trkpt><trkpt lat="43.6764706" lon="6.7602285"><ele>324.57142857142856</ele><time>2026-04-12T07:30:55.962Z</time></trkpt><trkpt lat="43.6765533" lon="6.7602359"><ele>320.7142857142857</ele><time>2026-04-12T07:30:58.962Z</time></trkpt><trkpt lat="43.6766276" lon="6.7602415"><ele>316.85714285714283</ele><time>2026-04-12T07:31:01.962Z</time></trkpt><trkpt lat="43.6766994" lon="6.7602586"><ele>313.0</ele><time>2026-04-12T07:31:04.962Z</time></trkpt><trkpt lat="43.6767656" lon="6.7602744"><ele>313.0</ele><time>2026-04-12T07:31:07.962Z</time></trkpt><trkpt lat="43.6768404" lon="6.7603129"><ele>313.0</ele><time>2026-04-12T07:31:10.962Z</time></trkpt><trkpt lat="43.6769149" lon="6.7603416"><ele>313.0</ele><time>2026-04-12T07:31:13.963Z</time></trkpt><trkpt lat="43.6769951" lon="6.7603691"><ele>313.0</ele><time>2026-04-12T07:31:16.962Z</time></trkpt><trkpt lat="43.6770795" lon="6.7603902"><ele>313.0</ele><time>2026-04-12T07:31:19.962Z</time></trkpt><trkpt lat="43.6771559" lon="6.7604322"><ele>313.0</ele><time>2026-04-12T07:31:22.963Z</time></trkpt><trkpt lat="43.6772234" lon="6.760448"><ele>315.1428571428571</ele><time>2026-04-12T07:31:24.964Z</time></trkpt><trkpt lat="43.6772922" lon="6.7604215"><ele>317.2857142857143</ele><time>2026-04-12T07:31:27.963Z</time></trkpt><trkpt lat="43.6773201" lon="6.7603419"><ele>319.42857142857144</ele><time>2026-04-12T07:31:30.963Z</time></trkpt><trkpt lat="43.6772663" lon="6.7602637"><ele>321.57142857142856</ele><time>2026-04-12T07:31:33.963Z</time></trkpt><trkpt lat="43.6771857" lon="6.7602457"><ele>323.7142857142857</ele><time>2026-04-12T07:31:36.963Z</time></trkpt><trkpt lat="43.6771138" lon="6.7602335"><ele>325.85714285714283</ele><time>2026-04-12T07:31:38.963Z</time></trkpt><trkpt lat="43.6770448" lon="6.7602262"><ele>328.0</ele><time>2026-04-12T07:31:40.963Z</time></trkpt><trkpt lat="43.6769823" lon="6.7602134"><ele>331.3333333333333</ele><time>2026-04-12T07:31:42.963Z</time></trkpt><trkpt lat="43.6769207" lon="6.7601893"><ele>334.66666666666663</ele><time>2026-04-12T07:31:44.964Z</time></trkpt><trkpt lat="43.6768407" lon="6.7601585"><ele>338.0</ele><time>2026-04-12T07:31:47.963Z</time></trkpt><trkpt lat="43.6767655" lon="6.7600869"><ele>341.3333333333333</ele><time>2026-04-12T07:31:50.964Z</time></trkpt><trkpt lat="43.6766973" lon="6.7600438"><ele>344.6666666666667</ele><time>2026-04-12T07:31:53.963Z</time></trkpt><trkpt lat="43.6766215" lon="6.7600138"><ele>348.0</ele><time>2026-04-12T07:31:56.963Z</time></trkpt><trkpt lat="43.6765457" lon="6.7599815"><ele>348.0</ele><time>2026-04-12T07:31:59.963Z</time></trkpt><trkpt lat="43.6764718" lon="6.7599272"><ele>348.0</ele><time>2026-04-12T07:32:03.964Z</time></trkpt><trkpt lat="43.6763934" lon="6.7598715"><ele>348.0</ele><time>2026-04-12T07:32:06.964Z</time></trkpt><trkpt lat="43.6763116" lon="6.7598336"><ele>348.0</ele><time>2026-04-12T07:32:09.964Z</time></trkpt><trkpt lat="43.6762402" lon="6.7597592"><ele>348.0</ele><time>2026-04-12T07:32:12.964Z</time></trkpt><trkpt lat="43.6761642" lon="6.7597142"><ele>348.0</ele><time>2026-04-12T07:32:15.964Z</time></trkpt><trkpt lat="43.676076" lon="6.7596971"><ele>346.6666666666667</ele><time>2026-04-12T07:32:18.964Z</time></trkpt><trkpt lat="43.6759892" lon="6.7596846"><ele>345.3333333333333</ele><time>2026-04-12T07:32:21.964Z</time></trkpt><trkpt lat="43.675926" lon="6.7596782"><ele>344.0</ele><time>2026-04-12T07:32:23.964Z</time></trkpt><trkpt lat="43.6758424" lon="6.7596789"><ele>342.66666666666663</ele><time>2026-04-12T07:32:26.964Z</time></trkpt><trkpt lat="43.6757587" lon="6.7596914"><ele>341.3333333333333</ele><time>2026-04-12T07:32:29.964Z</time></trkpt><trkpt lat="43.6756743" lon="6.7596811"><ele>340.0</ele><time>2026-04-12T07:32:32.964Z</time></trkpt><trkpt lat="43.6756015" lon="6.759676"><ele>340.0</ele><time>2026-04-12T07:32:35.965Z</time></trkpt><trkpt lat="43.6755196" lon="6.7596848"><ele>340.0</ele><time>2026-04-12T07:32:38.964Z</time></trkpt><trkpt lat="43.6754428" lon="6.7596755"><ele>340.0</ele><time>2026-04-12T07:32:41.964Z</time></trkpt><trkpt lat="43.675372" lon="6.7596567"><ele>340.0</ele><time>2026-04-12T07:32:44.964Z</time></trkpt><trkpt lat="43.6752883" lon="6.7596149"><ele>340.0</ele><time>2026-04-12T07:32:47.964Z</time></trkpt><trkpt lat="43.6752449" lon="6.7595044"><ele>340.0</ele><time>2026-04-12T07:32:50.964Z</time></trkpt><trkpt lat="43.6752152" lon="6.7593871"><ele>340.3333333333333</ele><time>2026-04-12T07:32:53.965Z</time></trkpt><trkpt lat="43.6751923" lon="6.7592691"><ele>340.66666666666663</ele><time>2026-04-12T07:32:56.965Z</time></trkpt><trkpt lat="43.6751744" lon="6.7591502"><ele>341.0</ele><time>2026-04-12T07:32:59.965Z</time></trkpt><trkpt lat="43.6751543" lon="6.7590399"><ele>341.3333333333333</ele><time>2026-04-12T07:33:02.965Z</time></trkpt><trkpt lat="43.6751354" lon="6.7589489"><ele>341.6666666666667</ele><time>2026-04-12T07:33:05.965Z</time></trkpt><trkpt lat="43.6751084" lon="6.7588531"><ele>342.0</ele><time>2026-04-12T07:33:08.965Z</time></trkpt><trkpt lat="43.6750851" lon="6.7587666"><ele>342.0</ele><time>2026-04-12T07:33:11.965Z</time></trkpt><trkpt lat="43.6750626" lon="6.7586606"><ele>342.0</ele><time>2026-04-12T07:33:14.965Z</time></trkpt><trkpt lat="43.675041" lon="6.7585615"><ele>342.0</ele><time>2026-04-12T07:33:17.965Z</time></trkpt><trkpt lat="43.6750135" lon="6.7584602"><ele>342.0</ele><time>2026-04-12T07:33:20.965Z</time></trkpt><trkpt lat="43.6749747" lon="6.7583624"><ele>342.0</ele><time>2026-04-12T07:33:23.965Z</time></trkpt><trkpt lat="43.6749348" lon="6.7582759"><ele>342.0</ele><time>2026-04-12T07:33:26.966Z</time></trkpt><trkpt lat="43.6748858" lon="6.7581948"><ele>345.85714285714283</ele><time>2026-04-12T07:33:29.965Z</time></trkpt><trkpt lat="43.6748512" lon="6.7581094"><ele>349.7142857142857</ele><time>2026-04-12T07:33:32.966Z</time></trkpt><trkpt lat="43.6748112" lon="6.7580272"><ele>353.57142857142856</ele><time>2026-04-12T07:33:35.966Z</time></trkpt><trkpt lat="43.6747748" lon="6.7579453"><ele>357.42857142857144</ele><time>2026-04-12T07:33:38.966Z</time></trkpt><trkpt lat="43.6747253" lon="6.7578815"><ele>361.2857142857143</ele><time>2026-04-12T07:33:41.966Z</time></trkpt><trkpt lat="43.6746833" lon="6.757816"><ele>365.1428571428571</ele><time>2026-04-12T07:33:44.967Z</time></trkpt><trkpt lat="43.67463" lon="6.7577534"><ele>369.0</ele><time>2026-04-12T07:33:47.966Z</time></trkpt><trkpt lat="43.6745688" lon="6.7576889"><ele>370.2857142857143</ele><time>2026-04-12T07:33:50.966Z</time></trkpt><trkpt lat="43.6744995" lon="6.7576509"><ele>371.57142857142856</ele><time>2026-04-12T07:33:53.966Z</time></trkpt><trkpt lat="43.6744259" lon="6.7576126"><ele>372.8571428571429</ele><time>2026-04-12T07:33:56.966Z</time></trkpt><trkpt lat="43.6743625" lon="6.7575819"><ele>374.1428571428571</ele><time>2026-04-12T07:33:59.966Z</time></trkpt><trkpt lat="43.6742878" lon="6.757556"><ele>375.42857142857144</ele><time>2026-04-12T07:34:02.966Z</time></trkpt><trkpt lat="43.674216" lon="6.7575461"><ele>376.7142857142857</ele><time>2026-04-12T07:34:05.966Z</time></trkpt><trkpt lat="43.6741376" lon="6.7575668"><ele>378.0</ele><time>2026-04-12T07:34:08.966Z</time></trkpt><trkpt lat="43.6740721" lon="6.7576373"><ele>378.0</ele><time>2026-04-12T07:34:11.967Z</time></trkpt><trkpt lat="43.6740156" lon="6.7577195"><ele>378.0</ele><time>2026-04-12T07:34:14.966Z</time></trkpt><trkpt lat="43.6739426" lon="6.7577699"><ele>378.0</ele><time>2026-04-12T07:34:17.966Z</time></trkpt><trkpt lat="43.6738573" lon="6.7577271"><ele>378.0</ele><time>2026-04-12T07:34:20.967Z</time></trkpt><trkpt lat="43.673877" lon="6.757595"><ele>378.0</ele><time>2026-04-12T07:34:23.967Z</time></trkpt><trkpt lat="43.6739237" lon="6.7575337"><ele>378.0</ele><time>2026-04-12T07:34:25.967Z</time></trkpt><trkpt lat="43.6740042" lon="6.7574823"><ele>378.0</ele><time>2026-04-12T07:34:28.967Z</time></trkpt><trkpt lat="43.6740771" lon="6.7574412"><ele>378.0</ele><time>2026-04-12T07:34:31.968Z</time></trkpt><trkpt lat="43.6741565" lon="6.7574059"><ele>378.0</ele><time>2026-04-12T07:34:34.967Z</time></trkpt><trkpt lat="43.6742382" lon="6.7573926"><ele>378.0</ele><time>2026-04-12T07:34:37.967Z</time></trkpt><trkpt lat="43.6743078" lon="6.7573813"><ele>378.0</ele><time>2026-04-12T07:34:40.968Z</time></trkpt><trkpt lat="43.674383" lon="6.757397"><ele>378.0</ele><time>2026-04-12T07:34:43.967Z</time></trkpt><trkpt lat="43.674461" lon="6.757424"><ele>382.3333333333333</ele><time>2026-04-12T07:34:46.967Z</time></trkpt><trkpt lat="43.6745402" lon="6.7574496"><ele>386.66666666666663</ele><time>2026-04-12T07:34:49.967Z</time></trkpt><trkpt lat="43.6746135" lon="6.7574789"><ele>391.0</ele><time>2026-04-12T07:34:52.969Z</time></trkpt><trkpt lat="43.6746777" lon="6.7575188"><ele>395.3333333333333</ele><time>2026-04-12T07:34:55.967Z</time></trkpt><trkpt lat="43.674751" lon="6.7575628"><ele>399.66666666666663</ele><time>2026-04-12T07:34:58.967Z</time></trkpt><trkpt lat="43.6748219" lon="6.7576052"><ele>404.0</ele><time>2026-04-12T07:35:01.967Z</time></trkpt><trkpt lat="43.6748811" lon="6.7576796"><ele>398.16666666666663</ele><time>2026-04-12T07:35:04.967Z</time></trkpt><trkpt lat="43.674948" lon="6.7577448"><ele>392.3333333333333</ele><time>2026-04-12T07:35:07.967Z</time></trkpt><trkpt lat="43.6750082" lon="6.7578163"><ele>386.5</ele><time>2026-04-12T07:35:10.968Z</time></trkpt><trkpt lat="43.6750677" lon="6.7578705"><ele>380.66666666666663</ele><time>2026-04-12T07:35:13.969Z</time></trkpt><trkpt lat="43.6751182" lon="6.7579295"><ele>374.8333333333333</ele><time>2026-04-12T07:35:16.968Z</time></trkpt><trkpt lat="43.6751757" lon="6.7580046"><ele>369.0</ele><time>2026-04-12T07:35:19.968Z</time></trkpt><trkpt lat="43.675229" lon="6.7580736"><ele>370.42857142857144</ele><time>2026-04-12T07:35:22.968Z</time></trkpt><trkpt lat="43.6752844" lon="6.7581424"><ele>371.85714285714283</ele><time>2026-04-12T07:35:25.968Z</time></trkpt><trkpt lat="43.6753416" lon="6.7582094"><ele>373.28571428571433</ele><time>2026-04-12T07:35:28.968Z</time></trkpt><trkpt lat="43.6753892" lon="6.7582856"><ele>374.7142857142857</ele><time>2026-04-12T07:35:32.968Z</time></trkpt><trkpt lat="43.6754276" lon="6.7583678"><ele>376.14285714285717</ele><time>2026-04-12T07:35:35.969Z</time></trkpt><trkpt lat="43.6754648" lon="6.758469"><ele>377.5714285714286</ele><time>2026-04-12T07:35:38.968Z</time></trkpt><trkpt lat="43.6754926" lon="6.7585626"><ele>379.0</ele><time>2026-04-12T07:35:41.969Z</time></trkpt><trkpt lat="43.675534" lon="6.7586728"><ele>379.0</ele><time>2026-04-12T07:35:44.968Z</time></trkpt><trkpt lat="43.675584" lon="6.7587585"><ele>379.0</ele><time>2026-04-12T07:35:47.969Z</time></trkpt><trkpt lat="43.6756578" lon="6.7588255"><ele>379.0</ele><time>2026-04-12T07:35:50.969Z</time></trkpt><trkpt lat="43.6757363" lon="6.7588645"><ele>379.0</ele><time>2026-04-12T07:35:52.968Z</time></trkpt><trkpt lat="43.6758159" lon="6.7588706"><ele>379.0</ele><time>2026-04-12T07:35:54.969Z</time></trkpt><trkpt lat="43.6758852" lon="6.7588716"><ele>379.0</ele><time>2026-04-12T07:35:56.969Z</time></trkpt><trkpt lat="43.6759779" lon="6.7588719"><ele>379.00000000000006</ele><time>2026-04-12T07:35:59.97Z</time></trkpt><trkpt lat="43.6760416" lon="6.7588601"><ele>379.0</ele><time>2026-04-12T07:36:01.969Z</time></trkpt><trkpt lat="43.6761077" lon="6.7588501"><ele>379.0</ele><time>2026-04-12T07:36:03.969Z</time></trkpt><trkpt lat="43.676172" lon="6.7588479"><ele>379.0</ele><time>2026-04-12T07:36:05.969Z</time></trkpt><trkpt lat="43.6762652" lon="6.7588554"><ele>379.0</ele><time>2026-04-12T07:36:08.969Z</time></trkpt><trkpt lat="43.6763314" lon="6.7588554"><ele>379.00000000000006</ele><time>2026-04-12T07:36:10.97Z</time></trkpt><trkpt lat="43.6763944" lon="6.7588494"><ele>379.0</ele><time>2026-04-12T07:36:12.97Z</time></trkpt><trkpt lat="43.6764877" lon="6.7588424"><ele>381.3333333333333</ele><time>2026-04-12T07:36:15.969Z</time></trkpt><trkpt lat="43.6765709" lon="6.75884"><ele>383.66666666666663</ele><time>2026-04-12T07:36:18.969Z</time></trkpt><trkpt lat="43.6766514" lon="6.7588272"><ele>386.0</ele><time>2026-04-12T07:36:21.969Z</time></trkpt><trkpt lat="43.6767374" lon="6.7588562"><ele>388.3333333333333</ele><time>2026-04-12T07:36:24.969Z</time></trkpt><trkpt lat="43.6768284" lon="6.7588798"><ele>390.6666666666667</ele><time>2026-04-12T07:36:27.969Z</time></trkpt><trkpt lat="43.6769085" lon="6.758943"><ele>393.0</ele><time>2026-04-12T07:36:30.969Z</time></trkpt><trkpt lat="43.6769857" lon="6.7590022"><ele>394.8333333333333</ele><time>2026-04-12T07:36:33.97Z</time></trkpt><trkpt lat="43.6770573" lon="6.7590378"><ele>396.66666666666663</ele><time>2026-04-12T07:36:36.971Z</time></trkpt><trkpt lat="43.6771334" lon="6.759087"><ele>398.5</ele><time>2026-04-12T07:36:39.97Z</time></trkpt><trkpt lat="43.6771984" lon="6.759103"><ele>400.3333333333333</ele><time>2026-04-12T07:36:42.97Z</time></trkpt><trkpt lat="43.6772749" lon="6.7591066"><ele>402.16666666666663</ele><time>2026-04-12T07:36:45.97Z</time></trkpt><trkpt lat="43.6773451" lon="6.7591199"><ele>404.0</ele><time>2026-04-12T07:36:48.97Z</time></trkpt><trkpt lat="43.6774218" lon="6.7591156"><ele>403.99999999999994</ele><time>2026-04-12T07:36:51.971Z</time></trkpt><trkpt lat="43.6775031" lon="6.7591227"><ele>404.0</ele><time>2026-04-12T07:36:54.97Z</time></trkpt><trkpt lat="43.6775788" lon="6.7591337"><ele>404.0</ele><time>2026-04-12T07:36:57.97Z</time></trkpt><trkpt lat="43.6776659" lon="6.7591411"><ele>404.0</ele><time>2026-04-12T07:37:00.97Z</time></trkpt><trkpt lat="43.677745" lon="6.7591573"><ele>403.99999999999994</ele><time>2026-04-12T07:37:03.97Z</time></trkpt><trkpt lat="43.6778272" lon="6.7591671"><ele>404.0</ele><time>2026-04-12T07:37:06.97Z</time></trkpt><trkpt lat="43.6778926" lon="6.7591475"><ele>404.49999999999994</ele><time>2026-04-12T07:37:09.97Z</time></trkpt><trkpt lat="43.6779683" lon="6.7591344"><ele>405.0</ele><time>2026-04-12T07:37:12.97Z</time></trkpt><trkpt lat="43.6780431" lon="6.7590863"><ele>405.5</ele><time>2026-04-12T07:37:16.97Z</time></trkpt><trkpt lat="43.6780976" lon="6.7590419"><ele>406.0</ele><time>2026-04-12T07:37:18.97Z</time></trkpt><trkpt lat="43.678164" lon="6.7589841"><ele>406.49999999999994</ele><time>2026-04-12T07:37:21.972Z</time></trkpt><trkpt lat="43.6782593" lon="6.7589472"><ele>407.0</ele><time>2026-04-12T07:37:24.971Z</time></trkpt><trkpt lat="43.6783186" lon="6.7589168"><ele>406.99999999999994</ele><time>2026-04-12T07:37:26.972Z</time></trkpt><trkpt lat="43.678382" lon="6.7588871"><ele>407.0</ele><time>2026-04-12T07:37:28.971Z</time></trkpt><trkpt lat="43.678474" lon="6.7588669"><ele>407.0</ele><time>2026-04-12T07:37:31.971Z</time></trkpt><trkpt lat="43.6785558" lon="6.7588592"><ele>407.0</ele><time>2026-04-12T07:37:34.971Z</time></trkpt><trkpt lat="43.6786319" lon="6.7588302"><ele>406.99999999999994</ele><time>2026-04-12T07:37:38.971Z</time></trkpt><trkpt lat="43.6787116" lon="6.7588136"><ele>407.0</ele><time>2026-04-12T07:37:41.972Z</time></trkpt><trkpt lat="43.6787819" lon="6.758798"><ele>404.8571428571429</ele><time>2026-04-12T07:37:44.971Z</time></trkpt><trkpt lat="43.6788516" lon="6.7587618"><ele>402.7142857142857</ele><time>2026-04-12T07:37:47.971Z</time></trkpt><trkpt lat="43.6789149" lon="6.75871"><ele>400.57142857142856</ele><time>2026-04-12T07:37:50.971Z</time></trkpt><trkpt lat="43.6789723" lon="6.7586708"><ele>398.42857142857144</ele><time>2026-04-12T07:37:53.971Z</time></trkpt><trkpt lat="43.6790336" lon="6.758612"><ele>396.2857142857143</ele><time>2026-04-12T07:37:56.971Z</time></trkpt><trkpt lat="43.6790971" lon="6.7585595"><ele>394.14285714285717</ele><time>2026-04-12T07:37:59.972Z</time></trkpt><trkpt lat="43.6791477" lon="6.7585027"><ele>392.0</ele><time>2026-04-12T07:38:02.971Z</time></trkpt><trkpt lat="43.6792122" lon="6.7584286"><ele>395.8333333333333</ele><time>2026-04-12T07:38:07.971Z</time></trkpt><trkpt lat="43.6792629" lon="6.7583632"><ele>399.66666666666663</ele><time>2026-04-12T07:38:10.972Z</time></trkpt><trkpt lat="43.6793247" lon="6.7582881"><ele>403.5</ele><time>2026-04-12T07:38:13.972Z</time></trkpt><trkpt lat="43.6793859" lon="6.758243"><ele>407.33333333333337</ele><time>2026-04-12T07:38:16.972Z</time></trkpt><trkpt lat="43.679459" lon="6.7582008"><ele>411.1666666666667</ele><time>2026-04-12T07:38:19.972Z</time></trkpt><trkpt lat="43.6795345" lon="6.7581768"><ele>415.0</ele><time>2026-04-12T07:38:23.973Z</time></trkpt><trkpt lat="43.679622" lon="6.7581664"><ele>415.0</ele><time>2026-04-12T07:38:26.972Z</time></trkpt><trkpt lat="43.6796971" lon="6.7581553"><ele>415.0</ele><time>2026-04-12T07:38:29.972Z</time></trkpt><trkpt lat="43.679762" lon="6.7581493"><ele>415.0</ele><time>2026-04-12T07:38:32.972Z</time></trkpt><trkpt lat="43.6798422" lon="6.7581445"><ele>415.0</ele><time>2026-04-12T07:38:35.972Z</time></trkpt><trkpt lat="43.6799075" lon="6.7581335"><ele>415.0</ele><time>2026-04-12T07:38:38.972Z</time></trkpt><trkpt lat="43.679976" lon="6.7581395"><ele>415.0</ele><time>2026-04-12T07:38:41.972Z</time></trkpt><trkpt lat="43.6800693" lon="6.758133"><ele>415.0</ele><time>2026-04-12T07:38:44.972Z</time></trkpt><trkpt lat="43.6801266" lon="6.7580795"><ele>415.00000000000006</ele><time>2026-04-12T07:38:46.972Z</time></trkpt><trkpt lat="43.6801805" lon="6.7580098"><ele>415.0</ele><time>2026-04-12T07:38:48.974Z</time></trkpt><trkpt lat="43.6802205" lon="6.7579249"><ele>415.0</ele><time>2026-04-12T07:38:50.973Z</time></trkpt><trkpt lat="43.6802699" lon="6.7578255"><ele>415.0</ele><time>2026-04-12T07:38:53.973Z</time></trkpt><trkpt lat="43.6803114" lon="6.7577368"><ele>415.00000000000006</ele><time>2026-04-12T07:38:56.973Z</time></trkpt><trkpt lat="43.6803405" lon="6.7576314"><ele>415.0</ele><time>2026-04-12T07:38:59.973Z</time></trkpt><trkpt lat="43.6803693" lon="6.7575164"><ele>414.83333333333337</ele><time>2026-04-12T07:39:02.973Z</time></trkpt><trkpt lat="43.6803741" lon="6.757408"><ele>414.6666666666667</ele><time>2026-04-12T07:39:05.974Z</time></trkpt><trkpt lat="43.6803875" lon="6.7573206"><ele>414.5</ele><time>2026-04-12T07:39:07.973Z</time></trkpt><trkpt lat="43.6804036" lon="6.7572273"><ele>414.33333333333337</ele><time>2026-04-12T07:39:09.973Z</time></trkpt><trkpt lat="43.6804171" lon="6.7571098"><ele>414.1666666666667</ele><time>2026-04-12T07:39:12.973Z</time></trkpt><trkpt lat="43.6804161" lon="6.7570063"><ele>414.0</ele><time>2026-04-12T07:39:15.973Z</time></trkpt><trkpt lat="43.6804161" lon="6.7568814"><ele>414.5</ele><time>2026-04-12T07:39:19.973Z</time></trkpt><trkpt lat="43.6804189" lon="6.756787"><ele>415.0</ele><time>2026-04-12T07:39:21.973Z</time></trkpt><trkpt lat="43.6804238" lon="6.7566913"><ele>415.5</ele><time>2026-04-12T07:39:23.974Z</time></trkpt><trkpt lat="43.6804236" lon="6.7566041"><ele>416.0</ele><time>2026-04-12T07:39:25.973Z</time></trkpt><trkpt lat="43.6804299" lon="6.7564813"><ele>416.5</ele><time>2026-04-12T07:39:28.973Z</time></trkpt><trkpt lat="43.6804358" lon="6.7563674"><ele>417.0</ele><time>2026-04-12T07:39:31.973Z</time></trkpt><trkpt lat="43.6804405" lon="6.7562571"><ele>417.0</ele><time>2026-04-12T07:39:34.974Z</time></trkpt><trkpt lat="43.6804271" lon="6.7561436"><ele>417.0</ele><time>2026-04-12T07:39:37.974Z</time></trkpt><trkpt lat="43.6804311" lon="6.7560434"><ele>417.0</ele><time>2026-04-12T07:39:40.974Z</time></trkpt><trkpt lat="43.6804319" lon="6.7559527"><ele>417.0</ele><time>2026-04-12T07:39:42.974Z</time></trkpt><trkpt lat="43.6804356" lon="6.7558654"><ele>417.0</ele><time>2026-04-12T07:39:44.974Z</time></trkpt><trkpt lat="43.6804395" lon="6.7557502"><ele>417.0</ele><time>2026-04-12T07:39:47.974Z</time></trkpt><trkpt lat="43.6804468" lon="6.7556322"><ele>418.0</ele><time>2026-04-12T07:39:50.974Z</time></trkpt><trkpt lat="43.6804597" lon="6.7555177"><ele>419.0</ele><time>2026-04-12T07:39:53.974Z</time></trkpt><trkpt lat="43.6804624" lon="6.7553983"><ele>420.0</ele><time>2026-04-12T07:39:56.974Z</time></trkpt><trkpt lat="43.6804562" lon="6.7553086"><ele>421.0</ele><time>2026-04-12T07:39:58.974Z</time></trkpt><trkpt lat="43.6804269" lon="6.7552249"><ele>422.0</ele><time>2026-04-12T07:40:00.974Z</time></trkpt><trkpt lat="43.6803848" lon="6.7551331"><ele>423.0</ele><time>2026-04-12T07:40:03.975Z</time></trkpt><trkpt lat="43.6803423" lon="6.7550371"><ele>423.0</ele><time>2026-04-12T07:40:06.974Z</time></trkpt><trkpt lat="43.6802903" lon="6.7549568"><ele>423.0</ele><time>2026-04-12T07:40:09.974Z</time></trkpt><trkpt lat="43.68024" lon="6.7548677"><ele>423.0</ele><time>2026-04-12T07:40:12.974Z</time></trkpt><trkpt lat="43.6801978" lon="6.7547714"><ele>423.0</ele><time>2026-04-12T07:40:15.975Z</time></trkpt><trkpt lat="43.6801428" lon="6.7546751"><ele>423.0</ele><time>2026-04-12T07:40:18.975Z</time></trkpt><trkpt lat="43.6801154" lon="6.7545726"><ele>423.0</ele><time>2026-04-12T07:40:21.974Z</time></trkpt><trkpt lat="43.6800794" lon="6.7544679"><ele>428.6666666666667</ele><time>2026-04-12T07:40:24.974Z</time></trkpt><trkpt lat="43.6800499" lon="6.7543501"><ele>434.33333333333337</ele><time>2026-04-12T07:40:27.976Z</time></trkpt><trkpt lat="43.6800337" lon="6.7542399"><ele>440.0</ele><time>2026-04-12T07:40:30.975Z</time></trkpt><trkpt lat="43.6800377" lon="6.7541116"><ele>445.6666666666667</ele><time>2026-04-12T07:40:33.975Z</time></trkpt><trkpt lat="43.6800458" lon="6.7539985"><ele>451.33333333333337</ele><time>2026-04-12T07:40:36.976Z</time></trkpt><trkpt lat="43.6800578" lon="6.7538911"><ele>457.0</ele><time>2026-04-12T07:40:39.975Z</time></trkpt><trkpt lat="43.6800794" lon="6.7537768"><ele>457.00000000000006</ele><time>2026-04-12T07:40:42.975Z</time></trkpt><trkpt lat="43.6801071" lon="6.7536615"><ele>457.0</ele><time>2026-04-12T07:40:45.975Z</time></trkpt><trkpt lat="43.6801342" lon="6.7535625"><ele>457.0</ele><time>2026-04-12T07:40:48.975Z</time></trkpt><trkpt lat="43.680174" lon="6.7534722"><ele>457.0</ele><time>2026-04-12T07:40:51.975Z</time></trkpt><trkpt lat="43.680221" lon="6.753396"><ele>457.00000000000006</ele><time>2026-04-12T07:40:54.975Z</time></trkpt><trkpt lat="43.6802671" lon="6.7533047"><ele>457.0</ele><time>2026-04-12T07:40:57.975Z</time></trkpt><trkpt lat="43.6803033" lon="6.7532191"><ele>457.50000000000006</ele><time>2026-04-12T07:41:00.975Z</time></trkpt><trkpt lat="43.680334" lon="6.7531179"><ele>458.0</ele><time>2026-04-12T07:41:03.975Z</time></trkpt><trkpt lat="43.6803542" lon="6.7530032"><ele>458.5</ele><time>2026-04-12T07:41:06.976Z</time></trkpt><trkpt lat="43.6803517" lon="6.7528813"><ele>459.0</ele><time>2026-04-12T07:41:09.975Z</time></trkpt><trkpt lat="43.6803358" lon="6.7527704"><ele>459.50000000000006</ele><time>2026-04-12T07:41:12.976Z</time></trkpt><trkpt lat="43.6803173" lon="6.7526584"><ele>460.0</ele><time>2026-04-12T07:41:15.976Z</time></trkpt><trkpt lat="43.6802987" lon="6.7525524"><ele>462.1666666666667</ele><time>2026-04-12T07:41:18.976Z</time></trkpt><trkpt lat="43.6802763" lon="6.7524442"><ele>464.33333333333337</ele><time>2026-04-12T07:41:21.976Z</time></trkpt><trkpt lat="43.6802619" lon="6.7523242"><ele>466.5</ele><time>2026-04-12T07:41:24.977Z</time></trkpt><trkpt lat="43.6802448" lon="6.7522076"><ele>468.66666666666663</ele><time>2026-04-12T07:41:27.977Z</time></trkpt><trkpt lat="43.6802252" lon="6.7521018"><ele>470.8333333333333</ele><time>2026-04-12T07:41:30.976Z</time></trkpt><trkpt lat="43.6802131" lon="6.751997"><ele>473.0</ele><time>2026-04-12T07:41:33.976Z</time></trkpt><trkpt lat="43.6801938" lon="6.7518998"><ele>472.8333333333333</ele><time>2026-04-12T07:41:36.976Z</time></trkpt><trkpt lat="43.6801718" lon="6.7517847"><ele>472.66666666666663</ele><time>2026-04-12T07:41:39.976Z</time></trkpt><trkpt lat="43.6801353" lon="6.7517112"><ele>472.5</ele><time>2026-04-12T07:41:41.977Z</time></trkpt><trkpt lat="43.6800762" lon="6.751621"><ele>472.33333333333337</ele><time>2026-04-12T07:41:44.976Z</time></trkpt><trkpt lat="43.6800193" lon="6.7515572"><ele>472.1666666666667</ele><time>2026-04-12T07:41:47.977Z</time></trkpt><trkpt lat="43.6799441" lon="6.7515177"><ele>472.0</ele><time>2026-04-12T07:41:50.976Z</time></trkpt><trkpt lat="43.6798851" lon="6.7514424"><ele>472.00000000000006</ele><time>2026-04-12T07:41:53.976Z</time></trkpt><trkpt lat="43.6798342" lon="6.7513812"><ele>472.0</ele><time>2026-04-12T07:41:56.977Z</time></trkpt><trkpt lat="43.6797732" lon="6.7513163"><ele>472.0</ele><time>2026-04-12T07:41:59.977Z</time></trkpt><trkpt lat="43.679711" lon="6.7512398"><ele>472.0</ele><time>2026-04-12T07:42:02.978Z</time></trkpt><trkpt lat="43.6796539" lon="6.7511621"><ele>472.00000000000006</ele><time>2026-04-12T07:42:05.978Z</time></trkpt><trkpt lat="43.6795994" lon="6.7510733"><ele>472.0</ele><time>2026-04-12T07:42:08.977Z</time></trkpt><trkpt lat="43.6795495" lon="6.7509741"><ele>473.00000000000006</ele><time>2026-04-12T07:42:11.977Z</time></trkpt><trkpt lat="43.6795167" lon="6.7508836"><ele>474.0</ele><time>2026-04-12T07:42:14.978Z</time></trkpt><trkpt lat="43.6794895" lon="6.7507782"><ele>475.0</ele><time>2026-04-12T07:42:17.977Z</time></trkpt><trkpt lat="43.6794772" lon="6.7506646"><ele>476.0</ele><time>2026-04-12T07:42:20.978Z</time></trkpt><trkpt lat="43.6794717" lon="6.7505379"><ele>477.00000000000006</ele><time>2026-04-12T07:42:23.978Z</time></trkpt><trkpt lat="43.6794635" lon="6.7504206"><ele>478.0</ele><time>2026-04-12T07:42:26.977Z</time></trkpt><trkpt lat="43.6794596" lon="6.7503098"><ele>478.83333333333337</ele><time>2026-04-12T07:42:29.977Z</time></trkpt><trkpt lat="43.6794577" lon="6.7501953"><ele>479.6666666666667</ele><time>2026-04-12T07:42:32.977Z</time></trkpt><trkpt lat="43.6794688" lon="6.7500882"><ele>480.5</ele><time>2026-04-12T07:42:35.978Z</time></trkpt><trkpt lat="43.6794935" lon="6.7499743"><ele>481.33333333333337</ele><time>2026-04-12T07:42:38.978Z</time></trkpt><trkpt lat="43.6795303" lon="6.7498737"><ele>482.1666666666667</ele><time>2026-04-12T07:42:41.978Z</time></trkpt><trkpt lat="43.6795826" lon="6.7497767"><ele>483.0</ele><time>2026-04-12T07:42:44.978Z</time></trkpt><trkpt lat="43.6796267" lon="6.7496825"><ele>483.0</ele><time>2026-04-12T07:42:47.978Z</time></trkpt><trkpt lat="43.6796736" lon="6.7495984"><ele>483.0</ele><time>2026-04-12T07:42:50.978Z</time></trkpt><trkpt lat="43.6797229" lon="6.7495153"><ele>483.0</ele><time>2026-04-12T07:42:53.978Z</time></trkpt><trkpt lat="43.6797724" lon="6.7494241"><ele>483.0</ele><time>2026-04-12T07:42:56.978Z</time></trkpt><trkpt lat="43.6797913" lon="6.7493072"><ele>483.0</ele><time>2026-04-12T07:42:59.978Z</time></trkpt><trkpt lat="43.6797869" lon="6.7492078"><ele>483.0</ele><time>2026-04-12T07:43:02.978Z</time></trkpt><trkpt lat="43.6797493" lon="6.7491066"><ele>483.5</ele><time>2026-04-12T07:43:05.978Z</time></trkpt><trkpt lat="43.679706" lon="6.7490118"><ele>484.0</ele><time>2026-04-12T07:43:08.978Z</time></trkpt><trkpt lat="43.6796597" lon="6.7489284"><ele>484.5</ele><time>2026-04-12T07:43:11.978Z</time></trkpt><trkpt lat="43.6796106" lon="6.7488444"><ele>485.0</ele><time>2026-04-12T07:43:14.978Z</time></trkpt><trkpt lat="43.6795626" lon="6.7487535"><ele>485.5</ele><time>2026-04-12T07:43:17.978Z</time></trkpt><trkpt lat="43.6795273" lon="6.7486634"><ele>486.0</ele><time>2026-04-12T07:43:20.978Z</time></trkpt><trkpt lat="43.6794799" lon="6.7485752"><ele>486.5</ele><time>2026-04-12T07:43:23.979Z</time></trkpt><trkpt lat="43.6794395" lon="6.7484959"><ele>487.0</ele><time>2026-04-12T07:43:26.978Z</time></trkpt><trkpt lat="43.6793993" lon="6.7484189"><ele>487.5</ele><time>2026-04-12T07:43:29.98Z</time></trkpt><trkpt lat="43.6793663" lon="6.7483135"><ele>488.0</ele><time>2026-04-12T07:43:32.979Z</time></trkpt><trkpt lat="43.6793423" lon="6.7482202"><ele>488.5</ele><time>2026-04-12T07:43:35.979Z</time></trkpt><trkpt lat="43.679337" lon="6.7481075"><ele>489.0</ele><time>2026-04-12T07:43:38.979Z</time></trkpt><trkpt lat="43.6793384" lon="6.7479929"><ele>489.8333333333333</ele><time>2026-04-12T07:43:41.98Z</time></trkpt><trkpt lat="43.6793578" lon="6.7478918"><ele>490.66666666666663</ele><time>2026-04-12T07:43:44.979Z</time></trkpt><trkpt lat="43.67937" lon="6.7477858"><ele>491.5</ele><time>2026-04-12T07:43:47.979Z</time></trkpt><trkpt lat="43.6793822" lon="6.7476858"><ele>492.3333333333333</ele><time>2026-04-12T07:43:50.979Z</time></trkpt><trkpt lat="43.6793869" lon="6.7475758"><ele>493.16666666666663</ele><time>2026-04-12T07:43:53.979Z</time></trkpt><trkpt lat="43.6793732" lon="6.7474796"><ele>494.0</ele><time>2026-04-12T07:43:56.979Z</time></trkpt><trkpt lat="43.6793237" lon="6.7474001"><ele>494.3333333333333</ele><time>2026-04-12T07:43:59.979Z</time></trkpt><trkpt lat="43.6792618" lon="6.7473409"><ele>494.66666666666663</ele><time>2026-04-12T07:44:02.98Z</time></trkpt><trkpt lat="43.6791859" lon="6.7472933"><ele>495.0</ele><time>2026-04-12T07:44:05.979Z</time></trkpt><trkpt lat="43.6791185" lon="6.7472279"><ele>495.33333333333337</ele><time>2026-04-12T07:44:08.979Z</time></trkpt><trkpt lat="43.6790447" lon="6.7471692"><ele>495.6666666666667</ele><time>2026-04-12T07:44:11.98Z</time></trkpt><trkpt lat="43.6789709" lon="6.7471297"><ele>496.0</ele><time>2026-04-12T07:44:14.98Z</time></trkpt><trkpt lat="43.6788996" lon="6.7470649"><ele>496.00000000000006</ele><time>2026-04-12T07:44:17.98Z</time></trkpt><trkpt lat="43.6788297" lon="6.7470099"><ele>496.0</ele><time>2026-04-12T07:44:20.98Z</time></trkpt><trkpt lat="43.6787587" lon="6.746956"><ele>496.0</ele><time>2026-04-12T07:44:23.98Z</time></trkpt><trkpt lat="43.678683" lon="6.7469114"><ele>496.0</ele><time>2026-04-12T07:44:26.981Z</time></trkpt><trkpt lat="43.6786083" lon="6.7468528"><ele>496.00000000000006</ele><time>2026-04-12T07:44:29.98Z</time></trkpt><trkpt lat="43.6785411" lon="6.7467836"><ele>496.0</ele><time>2026-04-12T07:44:32.98Z</time></trkpt><trkpt lat="43.6784683" lon="6.7467536"><ele>497.83333333333337</ele><time>2026-04-12T07:44:35.98Z</time></trkpt><trkpt lat="43.6783947" lon="6.7467265"><ele>499.6666666666667</ele><time>2026-04-12T07:44:38.98Z</time></trkpt><trkpt lat="43.6783089" lon="6.746709"><ele>501.5</ele><time>2026-04-12T07:44:41.98Z</time></trkpt><trkpt lat="43.6782306" lon="6.7467047"><ele>503.33333333333337</ele><time>2026-04-12T07:44:44.98Z</time></trkpt><trkpt lat="43.6781534" lon="6.7466984"><ele>505.1666666666667</ele><time>2026-04-12T07:44:47.98Z</time></trkpt><trkpt lat="43.678067" lon="6.7467032"><ele>507.0</ele><time>2026-04-12T07:44:50.981Z</time></trkpt><trkpt lat="43.6779824" lon="6.746697"><ele>507.0</ele><time>2026-04-12T07:44:53.981Z</time></trkpt><trkpt lat="43.6778953" lon="6.7466981"><ele>507.0</ele><time>2026-04-12T07:44:56.98Z</time></trkpt><trkpt lat="43.6778195" lon="6.7466926"><ele>507.0</ele><time>2026-04-12T07:44:59.982Z</time></trkpt><trkpt lat="43.6777376" lon="6.7466853"><ele>507.0</ele><time>2026-04-12T07:45:02.981Z</time></trkpt><trkpt lat="43.6776468" lon="6.7466686"><ele>507.0</ele><time>2026-04-12T07:45:05.981Z</time></trkpt><trkpt lat="43.6775724" lon="6.7466258"><ele>507.0</ele><time>2026-04-12T07:45:08.981Z</time></trkpt><trkpt lat="43.6774945" lon="6.7465879"><ele>507.8333333333333</ele><time>2026-04-12T07:45:11.981Z</time></trkpt><trkpt lat="43.6774347" lon="6.7465558"><ele>508.66666666666663</ele><time>2026-04-12T07:45:13.981Z</time></trkpt><trkpt lat="43.6773785" lon="6.7465143"><ele>509.5</ele><time>2026-04-12T07:45:15.981Z</time></trkpt><trkpt lat="43.677298" lon="6.7464569"><ele>510.3333333333333</ele><time>2026-04-12T07:45:18.981Z</time></trkpt><trkpt lat="43.6772205" lon="6.7464055"><ele>511.16666666666663</ele><time>2026-04-12T07:45:21.981Z</time></trkpt><trkpt lat="43.6771369" lon="6.746365"><ele>512.0</ele><time>2026-04-12T07:45:24.981Z</time></trkpt><trkpt lat="43.6770545" lon="6.7463139"><ele>511.99999999999994</ele><time>2026-04-12T07:45:27.981Z</time></trkpt><trkpt lat="43.6769812" lon="6.7462455"><ele>512.0</ele><time>2026-04-12T07:45:30.982Z</time></trkpt><trkpt lat="43.6769128" lon="6.7461679"><ele>512.0</ele><time>2026-04-12T07:45:33.981Z</time></trkpt><trkpt lat="43.6768536" lon="6.7460753"><ele>512.0</ele><time>2026-04-12T07:45:36.981Z</time></trkpt><trkpt lat="43.6768068" lon="6.7459816"><ele>511.99999999999994</ele><time>2026-04-12T07:45:39.982Z</time></trkpt><trkpt lat="43.6767682" lon="6.7458778"><ele>512.0</ele><time>2026-04-12T07:45:42.982Z</time></trkpt><trkpt lat="43.6767278" lon="6.7457862"><ele>512.8333333333333</ele><time>2026-04-12T07:45:45.982Z</time></trkpt><trkpt lat="43.6766881" lon="6.7456909"><ele>513.6666666666666</ele><time>2026-04-12T07:45:48.982Z</time></trkpt><trkpt lat="43.6766421" lon="6.7455882"><ele>514.5</ele><time>2026-04-12T07:45:51.982Z</time></trkpt><trkpt lat="43.6766036" lon="6.7454964"><ele>515.3333333333334</ele><time>2026-04-12T07:45:53.982Z</time></trkpt><trkpt lat="43.6765721" lon="6.7454029"><ele>516.1666666666667</ele><time>2026-04-12T07:45:55.982Z</time></trkpt><trkpt lat="43.6765433" lon="6.74532"><ele>517.0</ele><time>2026-04-12T07:45:57.982Z</time></trkpt><trkpt lat="43.6765038" lon="6.7452472"><ele>517.7142857142858</ele><time>2026-04-12T07:45:59.982Z</time></trkpt><trkpt lat="43.6764685" lon="6.745172"><ele>518.4285714285714</ele><time>2026-04-12T07:46:01.982Z</time></trkpt><trkpt lat="43.6764392" lon="6.7450819"><ele>519.1428571428571</ele><time>2026-04-12T07:46:03.982Z</time></trkpt><trkpt lat="43.6764113" lon="6.7449982"><ele>519.8571428571429</ele><time>2026-04-12T07:46:05.982Z</time></trkpt><trkpt lat="43.6763877" lon="6.7449103"><ele>520.5714285714286</ele><time>2026-04-12T07:46:07.982Z</time></trkpt><trkpt lat="43.6763651" lon="6.7448224"><ele>521.2857142857143</ele><time>2026-04-12T07:46:09.982Z</time></trkpt><trkpt lat="43.6763477" lon="6.7447283"><ele>522.0</ele><time>2026-04-12T07:46:11.982Z</time></trkpt><trkpt lat="43.676343" lon="6.7446375"><ele>522.0</ele><time>2026-04-12T07:46:13.982Z</time></trkpt><trkpt lat="43.6763413" lon="6.7445392"><ele>522.0</ele><time>2026-04-12T07:46:15.983Z</time></trkpt><trkpt lat="43.6763445" lon="6.7444473"><ele>522.0</ele><time>2026-04-12T07:46:17.983Z</time></trkpt><trkpt lat="43.6763595" lon="6.7443385"><ele>522.0</ele><time>2026-04-12T07:46:19.982Z</time></trkpt><trkpt lat="43.6763849" lon="6.7442291"><ele>522.0</ele><time>2026-04-12T07:46:21.982Z</time></trkpt><trkpt lat="43.6763998" lon="6.7441386"><ele>522.0</ele><time>2026-04-12T07:46:23.982Z</time></trkpt><trkpt lat="43.6764241" lon="6.7440105"><ele>522.6666666666666</ele><time>2026-04-12T07:46:26.983Z</time></trkpt><trkpt lat="43.6764383" lon="6.7439136"><ele>523.3333333333334</ele><time>2026-04-12T07:46:28.982Z</time></trkpt><trkpt lat="43.6764651" lon="6.7437812"><ele>524.0</ele><time>2026-04-12T07:46:31.983Z</time></trkpt><trkpt lat="43.6764852" lon="6.7436796"><ele>524.6666666666667</ele><time>2026-04-12T07:46:33.983Z</time></trkpt><trkpt lat="43.6765027" lon="6.7435839"><ele>525.3333333333334</ele><time>2026-04-12T07:46:35.983Z</time></trkpt><trkpt lat="43.6765163" lon="6.7434926"><ele>526.0</ele><time>2026-04-12T07:46:37.983Z</time></trkpt><trkpt lat="43.6765341" lon="6.7434015"><ele>526.0</ele><time>2026-04-12T07:46:39.983Z</time></trkpt><trkpt lat="43.6765419" lon="6.7433094"><ele>526.0</ele><time>2026-04-12T07:46:41.984Z</time></trkpt><trkpt lat="43.6765367" lon="6.7431807"><ele>526.0</ele><time>2026-04-12T07:46:44.983Z</time></trkpt><trkpt lat="43.6765257" lon="6.7430721"><ele>526.0</ele><time>2026-04-12T07:46:46.984Z</time></trkpt><trkpt lat="43.676502" lon="6.742967"><ele>526.0</ele><time>2026-04-12T07:46:48.983Z</time></trkpt><trkpt lat="43.6764663" lon="6.7428824"><ele>526.0</ele><time>2026-04-12T07:46:50.983Z</time></trkpt><trkpt lat="43.6764274" lon="6.7428073"><ele>526.0</ele><time>2026-04-12T07:46:52.984Z</time></trkpt><trkpt lat="43.6763925" lon="6.7427178"><ele>526.0</ele><time>2026-04-12T07:46:54.983Z</time></trkpt><trkpt lat="43.6763577" lon="6.7426423"><ele>526.0</ele><time>2026-04-12T07:46:56.984Z</time></trkpt><trkpt lat="43.6763176" lon="6.7425523"><ele>526.0</ele><time>2026-04-12T07:46:58.983Z</time></trkpt><trkpt lat="43.6762743" lon="6.7424557"><ele>526.0</ele><time>2026-04-12T07:47:00.983Z</time></trkpt><trkpt lat="43.6762294" lon="6.7423635"><ele>526.0</ele><time>2026-04-12T07:47:02.983Z</time></trkpt><trkpt lat="43.6761864" lon="6.7422706"><ele>526.3333333333334</ele><time>2026-04-12T07:47:04.984Z</time></trkpt><trkpt lat="43.6761456" lon="6.7421718"><ele>526.6666666666667</ele><time>2026-04-12T07:47:06.983Z</time></trkpt><trkpt lat="43.6761034" lon="6.7420762"><ele>527.0</ele><time>2026-04-12T07:47:08.983Z</time></trkpt><trkpt lat="43.6760555" lon="6.7419873"><ele>527.3333333333334</ele><time>2026-04-12T07:47:10.983Z</time></trkpt><trkpt lat="43.676014" lon="6.7418987"><ele>527.6666666666666</ele><time>2026-04-12T07:47:12.984Z</time></trkpt><trkpt lat="43.6759749" lon="6.7418116"><ele>528.0</ele><time>2026-04-12T07:47:14.984Z</time></trkpt><trkpt lat="43.675935" lon="6.7417298"><ele>528.4285714285714</ele><time>2026-04-12T07:47:16.984Z</time></trkpt><trkpt lat="43.6759016" lon="6.741644"><ele>528.8571428571429</ele><time>2026-04-12T07:47:18.984Z</time></trkpt><trkpt lat="43.6758646" lon="6.7415583"><ele>529.2857142857143</ele><time>2026-04-12T07:47:20.984Z</time></trkpt><trkpt lat="43.6758256" lon="6.7414818"><ele>529.7142857142858</ele><time>2026-04-12T07:47:22.984Z</time></trkpt><trkpt lat="43.6757886" lon="6.7414049"><ele>530.1428571428572</ele><time>2026-04-12T07:47:24.984Z</time></trkpt><trkpt lat="43.6757514" lon="6.7413125"><ele>530.5714285714286</ele><time>2026-04-12T07:47:26.984Z</time></trkpt><trkpt lat="43.6757162" lon="6.7412258"><ele>531.0</ele><time>2026-04-12T07:47:28.985Z</time></trkpt><trkpt lat="43.6756839" lon="6.7411473"><ele>531.0</ele><time>2026-04-12T07:47:30.984Z</time></trkpt><trkpt lat="43.6756481" lon="6.7410754"><ele>531.0</ele><time>2026-04-12T07:47:32.984Z</time></trkpt><trkpt lat="43.6756058" lon="6.7410058"><ele>531.0</ele><time>2026-04-12T07:47:34.984Z</time></trkpt><trkpt lat="43.6755657" lon="6.7409266"><ele>531.0</ele><time>2026-04-12T07:47:36.985Z</time></trkpt><trkpt lat="43.6755327" lon="6.7408485"><ele>531.0</ele><time>2026-04-12T07:47:38.984Z</time></trkpt><trkpt lat="43.6754958" lon="6.7407714"><ele>531.0</ele><time>2026-04-12T07:47:40.985Z</time></trkpt><trkpt lat="43.6754552" lon="6.7406809"><ele>531.0</ele><time>2026-04-12T07:47:42.984Z</time></trkpt><trkpt lat="43.6754165" lon="6.7406068"><ele>531.2857142857143</ele><time>2026-04-12T07:47:44.984Z</time></trkpt><trkpt lat="43.6753776" lon="6.7405136"><ele>531.5714285714287</ele><time>2026-04-12T07:47:46.985Z</time></trkpt><trkpt lat="43.6753383" lon="6.7404272"><ele>531.8571428571429</ele><time>2026-04-12T07:47:48.985Z</time></trkpt><trkpt lat="43.6752992" lon="6.7403503"><ele>532.1428571428571</ele><time>2026-04-12T07:47:50.984Z</time></trkpt><trkpt lat="43.6752553" lon="6.7402625"><ele>532.4285714285713</ele><time>2026-04-12T07:47:52.985Z</time></trkpt><trkpt lat="43.6752176" lon="6.7401733"><ele>532.7142857142857</ele><time>2026-04-12T07:47:54.984Z</time></trkpt><trkpt lat="43.6751798" lon="6.7400934"><ele>533.0</ele><time>2026-04-12T07:47:56.984Z</time></trkpt><trkpt lat="43.6751364" lon="6.740003"><ele>533.8333333333333</ele><time>2026-04-12T07:47:58.985Z</time></trkpt><trkpt lat="43.6750995" lon="6.7399119"><ele>534.6666666666666</ele><time>2026-04-12T07:48:00.985Z</time></trkpt><trkpt lat="43.6750624" lon="6.7398248"><ele>535.5</ele><time>2026-04-12T07:48:02.985Z</time></trkpt><trkpt lat="43.6750078" lon="6.7397129"><ele>536.3333333333334</ele><time>2026-04-12T07:48:05.985Z</time></trkpt><trkpt lat="43.6749705" lon="6.7396229"><ele>537.1666666666667</ele><time>2026-04-12T07:48:07.985Z</time></trkpt><trkpt lat="43.6749327" lon="6.7395487"><ele>538.0</ele><time>2026-04-12T07:48:09.985Z</time></trkpt><trkpt lat="43.674894" lon="6.739479"><ele>538.3333333333334</ele><time>2026-04-12T07:48:11.985Z</time></trkpt><trkpt lat="43.6748371" lon="6.7393703"><ele>538.6666666666667</ele><time>2026-04-12T07:48:14.985Z</time></trkpt><trkpt lat="43.674805" lon="6.7392676"><ele>539.0</ele><time>2026-04-12T07:48:16.985Z</time></trkpt><trkpt lat="43.6747669" lon="6.7391695"><ele>539.3333333333334</ele><time>2026-04-12T07:48:18.986Z</time></trkpt><trkpt lat="43.6747289" lon="6.7390882"><ele>539.6666666666666</ele><time>2026-04-12T07:48:20.985Z</time></trkpt><trkpt lat="43.6746889" lon="6.7390033"><ele>540.0</ele><time>2026-04-12T07:48:22.985Z</time></trkpt><trkpt lat="43.6746467" lon="6.7389213"><ele>540.0</ele><time>2026-04-12T07:48:24.985Z</time></trkpt><trkpt lat="43.674611" lon="6.7388428"><ele>540.0</ele><time>2026-04-12T07:48:26.985Z</time></trkpt><trkpt lat="43.6745757" lon="6.7387619"><ele>540.0</ele><time>2026-04-12T07:48:28.985Z</time></trkpt><trkpt lat="43.6745385" lon="6.7386784"><ele>540.0</ele><time>2026-04-12T07:48:30.986Z</time></trkpt><trkpt lat="43.6744952" lon="6.7385978"><ele>540.0</ele><time>2026-04-12T07:48:32.986Z</time></trkpt><trkpt lat="43.6744529" lon="6.7385124"><ele>540.0</ele><time>2026-04-12T07:48:34.986Z</time></trkpt><trkpt lat="43.6744205" lon="6.7384333"><ele>540.0</ele><time>2026-04-12T07:48:36.985Z</time></trkpt><trkpt lat="43.6743842" lon="6.7383543"><ele>540.2857142857142</ele><time>2026-04-12T07:48:38.985Z</time></trkpt><trkpt lat="43.6743445" lon="6.7382744"><ele>540.5714285714286</ele><time>2026-04-12T07:48:40.986Z</time></trkpt><trkpt lat="43.6743064" lon="6.7381921"><ele>540.8571428571429</ele><time>2026-04-12T07:48:42.985Z</time></trkpt><trkpt lat="43.6742682" lon="6.738114"><ele>541.1428571428571</ele><time>2026-04-12T07:48:44.986Z</time></trkpt><trkpt lat="43.6742322" lon="6.7380109"><ele>541.4285714285714</ele><time>2026-04-12T07:48:46.987Z</time></trkpt><trkpt lat="43.6741969" lon="6.7379347"><ele>541.7142857142857</ele><time>2026-04-12T07:48:48.986Z</time></trkpt><trkpt lat="43.6741675" lon="6.7378576"><ele>542.0</ele><time>2026-04-12T07:48:50.986Z</time></trkpt><trkpt lat="43.6741194" lon="6.7377457"><ele>542.8333333333333</ele><time>2026-04-12T07:48:53.986Z</time></trkpt><trkpt lat="43.6740805" lon="6.7376679"><ele>543.6666666666666</ele><time>2026-04-12T07:48:55.986Z</time></trkpt><trkpt lat="43.6740309" lon="6.7375538"><ele>544.5</ele><time>2026-04-12T07:48:58.986Z</time></trkpt><trkpt lat="43.6739954" lon="6.7374768"><ele>545.3333333333334</ele><time>2026-04-12T07:49:00.986Z</time></trkpt><trkpt lat="43.6739472" lon="6.7373729"><ele>546.1666666666667</ele><time>2026-04-12T07:49:03.986Z</time></trkpt><trkpt lat="43.6739008" lon="6.7372806"><ele>547.0</ele><time>2026-04-12T07:49:06.986Z</time></trkpt><trkpt lat="43.6738555" lon="6.7371836"><ele>547.0</ele><time>2026-04-12T07:49:09.986Z</time></trkpt><trkpt lat="43.6738046" lon="6.7370684"><ele>547.0</ele><time>2026-04-12T07:49:12.986Z</time></trkpt><trkpt lat="43.6737736" lon="6.7369827"><ele>547.0</ele><time>2026-04-12T07:49:14.987Z</time></trkpt><trkpt lat="43.6737436" lon="6.7369003"><ele>547.0</ele><time>2026-04-12T07:49:16.988Z</time></trkpt><trkpt lat="43.6736944" lon="6.7368143"><ele>547.0</ele><time>2026-04-12T07:49:19.986Z</time></trkpt><trkpt lat="43.673647" lon="6.7367302"><ele>547.0</ele><time>2026-04-12T07:49:22.986Z</time></trkpt><trkpt lat="43.6736005" lon="6.7366495"><ele>547.3333333333334</ele><time>2026-04-12T07:49:25.986Z</time></trkpt><trkpt lat="43.673575" lon="6.7365624"><ele>547.6666666666667</ele><time>2026-04-12T07:49:27.986Z</time></trkpt><trkpt lat="43.6735439" lon="6.7364707"><ele>548.0</ele><time>2026-04-12T07:49:29.987Z</time></trkpt><trkpt lat="43.6735233" lon="6.7363838"><ele>548.3333333333334</ele><time>2026-04-12T07:49:31.987Z</time></trkpt><trkpt lat="43.6735015" lon="6.7362548"><ele>548.6666666666666</ele><time>2026-04-12T07:49:34.987Z</time></trkpt><trkpt lat="43.6734837" lon="6.7361521"><ele>549.0</ele><time>2026-04-12T07:49:37.987Z</time></trkpt><trkpt lat="43.6734723" lon="6.7360281"><ele>549.8333333333334</ele><time>2026-04-12T07:49:40.987Z</time></trkpt><trkpt lat="43.6734719" lon="6.7359338"><ele>550.6666666666666</ele><time>2026-04-12T07:49:42.987Z</time></trkpt><trkpt lat="43.6734866" lon="6.7358096"><ele>551.5</ele><time>2026-04-12T07:49:45.987Z</time></trkpt><trkpt lat="43.6735127" lon="6.7356913"><ele>552.3333333333333</ele><time>2026-04-12T07:49:48.987Z</time></trkpt><trkpt lat="43.6735415" lon="6.7355769"><ele>553.1666666666666</ele><time>2026-04-12T07:49:51.987Z</time></trkpt><trkpt lat="43.6735822" lon="6.7354671"><ele>554.0</ele><time>2026-04-12T07:49:54.987Z</time></trkpt><trkpt lat="43.6736209" lon="6.735358"><ele>555.1666666666666</ele><time>2026-04-12T07:49:57.987Z</time></trkpt><trkpt lat="43.6736661" lon="6.7352501"><ele>556.3333333333333</ele><time>2026-04-12T07:50:00.987Z</time></trkpt><trkpt lat="43.6737077" lon="6.7351486"><ele>557.5</ele><time>2026-04-12T07:50:03.987Z</time></trkpt><trkpt lat="43.6737477" lon="6.735038"><ele>558.6666666666666</ele><time>2026-04-12T07:50:06.988Z</time></trkpt><trkpt lat="43.673782" lon="6.7349571"><ele>559.8333333333334</ele><time>2026-04-12T07:50:08.988Z</time></trkpt><trkpt lat="43.6737954" lon="6.7348373"><ele>561.0</ele><time>2026-04-12T07:50:11.988Z</time></trkpt><trkpt lat="43.6737998" lon="6.7347429"><ele>561.5</ele><time>2026-04-12T07:50:13.988Z</time></trkpt><trkpt lat="43.6737911" lon="6.7346513"><ele>562.0</ele><time>2026-04-12T07:50:15.988Z</time></trkpt><trkpt lat="43.6737739" lon="6.734525"><ele>562.5</ele><time>2026-04-12T07:50:18.988Z</time></trkpt><trkpt lat="43.6737545" lon="6.734414"><ele>563.0</ele><time>2026-04-12T07:50:21.988Z</time></trkpt><trkpt lat="43.6737393" lon="6.734292"><ele>563.5</ele><time>2026-04-12T07:50:24.988Z</time></trkpt><trkpt lat="43.6737249" lon="6.7341731"><ele>564.0</ele><time>2026-04-12T07:50:27.988Z</time></trkpt><trkpt lat="43.6736991" lon="6.7340594"><ele>563.6666666666666</ele><time>2026-04-12T07:50:30.988Z</time></trkpt><trkpt lat="43.6736804" lon="6.7339469"><ele>563.3333333333334</ele><time>2026-04-12T07:50:33.988Z</time></trkpt><trkpt lat="43.6736512" lon="6.7338277"><ele>563.0</ele><time>2026-04-12T07:50:36.988Z</time></trkpt><trkpt lat="43.673641" lon="6.7337368"><ele>562.6666666666667</ele><time>2026-04-12T07:50:38.988Z</time></trkpt><trkpt lat="43.6736174" lon="6.7336256"><ele>562.3333333333334</ele><time>2026-04-12T07:50:41.989Z</time></trkpt><trkpt lat="43.6735997" lon="6.7335088"><ele>562.0</ele><time>2026-04-12T07:50:44.988Z</time></trkpt><trkpt lat="43.6735992" lon="6.7334205"><ele>563.0</ele><time>2026-04-12T07:50:46.989Z</time></trkpt><trkpt lat="43.6736356" lon="6.7333154"><ele>564.0</ele><time>2026-04-12T07:50:49.989Z</time></trkpt><trkpt lat="43.6737264" lon="6.7332668"><ele>565.0</ele><time>2026-04-12T07:50:52.989Z</time></trkpt><trkpt lat="43.6737728" lon="6.7333442"><ele>566.0</ele><time>2026-04-12T07:50:54.989Z</time></trkpt><trkpt lat="43.6738123" lon="6.7334229"><ele>567.0</ele><time>2026-04-12T07:50:56.99Z</time></trkpt><trkpt lat="43.6738574" lon="6.7334917"><ele>568.0</ele><time>2026-04-12T07:50:58.989Z</time></trkpt><trkpt lat="43.6739145" lon="6.7335673"><ele>568.0</ele><time>2026-04-12T07:51:00.99Z</time></trkpt><trkpt lat="43.6739896" lon="6.7336445"><ele>568.0</ele><time>2026-04-12T07:51:02.989Z</time></trkpt><trkpt lat="43.6740674" lon="6.7336868"><ele>568.0</ele><time>2026-04-12T07:51:04.989Z</time></trkpt><trkpt lat="43.6741376" lon="6.7336704"><ele>568.0</ele><time>2026-04-12T07:51:06.989Z</time></trkpt><trkpt lat="43.6741907" lon="6.7336223"><ele>568.0</ele><time>2026-04-12T07:51:08.989Z</time></trkpt><trkpt lat="43.6742636" lon="6.7335553"><ele>568.0</ele><time>2026-04-12T07:51:11.989Z</time></trkpt><trkpt lat="43.6743226" lon="6.7334941"><ele>569.0</ele><time>2026-04-12T07:51:13.989Z</time></trkpt><trkpt lat="43.6743878" lon="6.7334602"><ele>570.0</ele><time>2026-04-12T07:51:15.989Z</time></trkpt><trkpt lat="43.6744637" lon="6.733402"><ele>571.0</ele><time>2026-04-12T07:51:18.989Z</time></trkpt><trkpt lat="43.6745367" lon="6.7333358"><ele>572.0</ele><time>2026-04-12T07:51:21.989Z</time></trkpt><trkpt lat="43.6746015" lon="6.7332824"><ele>573.0</ele><time>2026-04-12T07:51:24.989Z</time></trkpt><trkpt lat="43.6746708" lon="6.7332266"><ele>574.0</ele><time>2026-04-12T07:51:27.989Z</time></trkpt><trkpt lat="43.6747319" lon="6.7331745"><ele>574.6666666666667</ele><time>2026-04-12T07:51:30.99Z</time></trkpt><trkpt lat="43.6747988" lon="6.7331069"><ele>575.3333333333334</ele><time>2026-04-12T07:51:33.989Z</time></trkpt><trkpt lat="43.6748541" lon="6.733056"><ele>576.0</ele><time>2026-04-12T07:51:35.99Z</time></trkpt><trkpt lat="43.6749306" lon="6.7329883"><ele>576.6666666666666</ele><time>2026-04-12T07:51:38.99Z</time></trkpt><trkpt lat="43.6749885" lon="6.732946"><ele>577.3333333333333</ele><time>2026-04-12T07:51:40.99Z</time></trkpt><trkpt lat="43.6750707" lon="6.7328851"><ele>578.0</ele><time>2026-04-12T07:51:43.99Z</time></trkpt><trkpt lat="43.6751463" lon="6.7328189"><ele>578.0</ele><time>2026-04-12T07:51:46.99Z</time></trkpt><trkpt lat="43.6752274" lon="6.7327516"><ele>578.0</ele><time>2026-04-12T07:51:49.99Z</time></trkpt><trkpt lat="43.6752798" lon="6.7327019"><ele>578.0</ele><time>2026-04-12T07:51:51.99Z</time></trkpt><trkpt lat="43.6753575" lon="6.7326397"><ele>578.0</ele><time>2026-04-12T07:51:54.99Z</time></trkpt><trkpt lat="43.6754344" lon="6.7325792"><ele>578.0</ele><time>2026-04-12T07:51:57.99Z</time></trkpt><trkpt lat="43.6754986" lon="6.7325306"><ele>578.0</ele><time>2026-04-12T07:52:00.99Z</time></trkpt><trkpt lat="43.6755652" lon="6.732465"><ele>579.8333333333333</ele><time>2026-04-12T07:52:03.991Z</time></trkpt><trkpt lat="43.6756409" lon="6.7324034"><ele>581.6666666666666</ele><time>2026-04-12T07:52:06.99Z</time></trkpt><trkpt lat="43.6757095" lon="6.7323465"><ele>583.5</ele><time>2026-04-12T07:52:09.991Z</time></trkpt><trkpt lat="43.6757912" lon="6.7322876"><ele>585.3333333333334</ele><time>2026-04-12T07:52:12.99Z</time></trkpt><trkpt lat="43.6758559" lon="6.7322167"><ele>587.1666666666667</ele><time>2026-04-12T07:52:15.99Z</time></trkpt><trkpt lat="43.6759045" lon="6.7321406"><ele>589.0</ele><time>2026-04-12T07:52:18.991Z</time></trkpt><trkpt lat="43.6759625" lon="6.7320492"><ele>589.0</ele><time>2026-04-12T07:52:21.99Z</time></trkpt><trkpt lat="43.6760159" lon="6.73198"><ele>589.0</ele><time>2026-04-12T07:52:24.991Z</time></trkpt><trkpt lat="43.6760731" lon="6.731915"><ele>589.0</ele><time>2026-04-12T07:52:27.99Z</time></trkpt><trkpt lat="43.6761325" lon="6.7318538"><ele>589.0</ele><time>2026-04-12T07:52:30.99Z</time></trkpt><trkpt lat="43.6761965" lon="6.7318044"><ele>589.0</ele><time>2026-04-12T07:52:33.991Z</time></trkpt><trkpt lat="43.6762652" lon="6.7317494"><ele>589.0</ele><time>2026-04-12T07:52:37.991Z</time></trkpt><trkpt lat="43.676324" lon="6.7316842"><ele>589.0</ele><time>2026-04-12T07:52:41.991Z</time></trkpt><trkpt lat="43.6763774" lon="6.7316275"><ele>590.5714285714286</ele><time>2026-04-12T07:52:45.991Z</time></trkpt><trkpt lat="43.6764395" lon="6.7315724"><ele>592.1428571428571</ele><time>2026-04-12T07:52:49.992Z</time></trkpt><trkpt lat="43.6765139" lon="6.7315214"><ele>593.7142857142857</ele><time>2026-04-12T07:52:53.991Z</time></trkpt><trkpt lat="43.6765787" lon="6.7314652"><ele>595.2857142857142</ele><time>2026-04-12T07:52:57.991Z</time></trkpt><trkpt lat="43.6766411" lon="6.7314339"><ele>596.8571428571429</ele><time>2026-04-12T07:53:00.991Z</time></trkpt><trkpt lat="43.6766959" lon="6.7313863"><ele>598.4285714285713</ele><time>2026-04-12T07:53:03.992Z</time></trkpt><trkpt lat="43.6767576" lon="6.7313449"><ele>600.0</ele><time>2026-04-12T07:53:06.992Z</time></trkpt><trkpt lat="43.6768149" lon="6.7313002"><ele>600.0</ele><time>2026-04-12T07:53:09.992Z</time></trkpt><trkpt lat="43.6768742" lon="6.7312332"><ele>600.0</ele><time>2026-04-12T07:53:13.018Z</time></trkpt><trkpt lat="43.6769408" lon="6.7311674"><ele>600.0</ele><time>2026-04-12T07:53:15.992Z</time></trkpt><trkpt lat="43.6770154" lon="6.7311174"><ele>600.0</ele><time>2026-04-12T07:53:18.992Z</time></trkpt><trkpt lat="43.677085" lon="6.731066"><ele>600.0</ele><time>2026-04-12T07:53:21.992Z</time></trkpt><trkpt lat="43.6771585" lon="6.7310089"><ele>600.0</ele><time>2026-04-12T07:53:25.992Z</time></trkpt><trkpt lat="43.6772235" lon="6.7309745"><ele>601.4285714285713</ele><time>2026-04-12T07:53:28.992Z</time></trkpt><trkpt lat="43.6772837" lon="6.7309407"><ele>602.8571428571429</ele><time>2026-04-12T07:53:31.992Z</time></trkpt><trkpt lat="43.6773414" lon="6.7308957"><ele>604.2857142857142</ele><time>2026-04-12T07:53:34.992Z</time></trkpt><trkpt lat="43.6773933" lon="6.7308445"><ele>605.7142857142857</ele><time>2026-04-12T07:53:37.993Z</time></trkpt><trkpt lat="43.6774492" lon="6.7307993"><ele>607.1428571428571</ele><time>2026-04-12T07:53:40.992Z</time></trkpt><trkpt lat="43.6775104" lon="6.7307384"><ele>608.5714285714286</ele><time>2026-04-12T07:53:44.992Z</time></trkpt><trkpt lat="43.6775669" lon="6.730694"><ele>610.0</ele><time>2026-04-12T07:53:47.992Z</time></trkpt><trkpt lat="43.6776225" lon="6.7306482"><ele>610.0</ele><time>2026-04-12T07:53:50.992Z</time></trkpt><trkpt lat="43.6776967" lon="6.7305959"><ele>610.0</ele><time>2026-04-12T07:53:53.992Z</time></trkpt><trkpt lat="43.6777583" lon="6.730552"><ele>610.0</ele><time>2026-04-12T07:53:56.992Z</time></trkpt><trkpt lat="43.6778334" lon="6.7305"><ele>610.0</ele><time>2026-04-12T07:53:59.992Z</time></trkpt><trkpt lat="43.6779029" lon="6.7304498"><ele>610.0</ele><time>2026-04-12T07:54:02.993Z</time></trkpt><trkpt lat="43.6779725" lon="6.7304036"><ele>610.0</ele><time>2026-04-12T07:54:05.993Z</time></trkpt><trkpt lat="43.6780393" lon="6.7303539"><ele>610.5714285714286</ele><time>2026-04-12T07:54:08.993Z</time></trkpt><trkpt lat="43.6780982" lon="6.7303059"><ele>611.1428571428571</ele><time>2026-04-12T07:54:11.993Z</time></trkpt><trkpt lat="43.6781508" lon="6.7302537"><ele>611.7142857142857</ele><time>2026-04-12T07:54:14.993Z</time></trkpt><trkpt lat="43.6782096" lon="6.730191"><ele>612.2857142857142</ele><time>2026-04-12T07:54:17.993Z</time></trkpt><trkpt lat="43.678265" lon="6.7301305"><ele>612.8571428571429</ele><time>2026-04-12T07:54:20.993Z</time></trkpt><trkpt lat="43.6783089" lon="6.7300622"><ele>613.4285714285713</ele><time>2026-04-12T07:54:23.993Z</time></trkpt><trkpt lat="43.6783667" lon="6.7299832"><ele>614.0</ele><time>2026-04-12T07:54:27.993Z</time></trkpt><trkpt lat="43.6784127" lon="6.7299032"><ele>614.7142857142857</ele><time>2026-04-12T07:54:30.993Z</time></trkpt><trkpt lat="43.678477" lon="6.729839"><ele>615.4285714285714</ele><time>2026-04-12T07:54:33.994Z</time></trkpt><trkpt lat="43.6785434" lon="6.7297736"><ele>616.1428571428571</ele><time>2026-04-12T07:54:36.993Z</time></trkpt><trkpt lat="43.678591" lon="6.729707"><ele>616.8571428571429</ele><time>2026-04-12T07:54:39.993Z</time></trkpt><trkpt lat="43.6786406" lon="6.7296356"><ele>617.5714285714286</ele><time>2026-04-12T07:54:42.995Z</time></trkpt><trkpt lat="43.6786867" lon="6.7295412"><ele>618.2857142857142</ele><time>2026-04-12T07:54:46.994Z</time></trkpt><trkpt lat="43.6787177" lon="6.7294618"><ele>619.0</ele><time>2026-04-12T07:54:49.994Z</time></trkpt><trkpt lat="43.6787541" lon="6.7293765"><ele>621.0</ele><time>2026-04-12T07:54:52.994Z</time></trkpt><trkpt lat="43.6787897" lon="6.7292952"><ele>623.0</ele><time>2026-04-12T07:54:55.994Z</time></trkpt><trkpt lat="43.6788408" lon="6.729213"><ele>625.0</ele><time>2026-04-12T07:54:59.994Z</time></trkpt><trkpt lat="43.6788862" lon="6.7291421"><ele>627.0</ele><time>2026-04-12T07:55:02.994Z</time></trkpt><trkpt lat="43.6789409" lon="6.7290673"><ele>629.0</ele><time>2026-04-12T07:55:05.994Z</time></trkpt><trkpt lat="43.6790064" lon="6.7289968"><ele>631.0</ele><time>2026-04-12T07:55:09.994Z</time></trkpt><trkpt lat="43.679078" lon="6.7289481"><ele>631.0</ele><time>2026-04-12T07:55:12.994Z</time></trkpt><trkpt lat="43.679157" lon="6.7289013"><ele>631.0</ele><time>2026-04-12T07:55:15.995Z</time></trkpt><trkpt lat="43.6792327" lon="6.7288607"><ele>631.0</ele><time>2026-04-12T07:55:18.994Z</time></trkpt><trkpt lat="43.6793036" lon="6.7288359"><ele>631.0</ele><time>2026-04-12T07:55:21.994Z</time></trkpt><trkpt lat="43.6793757" lon="6.7287997"><ele>631.0</ele><time>2026-04-12T07:55:24.994Z</time></trkpt><trkpt lat="43.6794373" lon="6.7287728"><ele>631.0</ele><time>2026-04-12T07:55:27.994Z</time></trkpt><trkpt lat="43.6795002" lon="6.7287509"><ele>631.0</ele><time>2026-04-12T07:55:30.994Z</time></trkpt><trkpt lat="43.6795726" lon="6.7287264"><ele>631.5</ele><time>2026-04-12T07:55:32.996Z</time></trkpt><trkpt lat="43.6796554" lon="6.7286943"><ele>632.0</ele><time>2026-04-12T07:55:35.995Z</time></trkpt><trkpt lat="43.6797349" lon="6.7286596"><ele>632.5</ele><time>2026-04-12T07:55:38.995Z</time></trkpt><trkpt lat="43.6798039" lon="6.728615"><ele>633.0</ele><time>2026-04-12T07:55:41.995Z</time></trkpt><trkpt lat="43.6798796" lon="6.7285586"><ele>633.5</ele><time>2026-04-12T07:55:44.995Z</time></trkpt><trkpt lat="43.6799604" lon="6.7284968"><ele>634.0</ele><time>2026-04-12T07:55:47.995Z</time></trkpt><trkpt lat="43.6800515" lon="6.728435"><ele>634.1666666666667</ele><time>2026-04-12T07:55:50.995Z</time></trkpt><trkpt lat="43.6801276" lon="6.7283918"><ele>634.3333333333334</ele><time>2026-04-12T07:55:52.995Z</time></trkpt><trkpt lat="43.6802038" lon="6.7283469"><ele>634.5</ele><time>2026-04-12T07:55:54.995Z</time></trkpt><trkpt lat="43.6802764" lon="6.7282985"><ele>634.6666666666666</ele><time>2026-04-12T07:55:56.996Z</time></trkpt><trkpt lat="43.6803473" lon="6.7282527"><ele>634.8333333333333</ele><time>2026-04-12T07:55:58.995Z</time></trkpt><trkpt lat="43.6804092" lon="6.72821"><ele>635.0</ele><time>2026-04-12T07:56:00.995Z</time></trkpt><trkpt lat="43.6804675" lon="6.7281734"><ele>635.8571428571428</ele><time>2026-04-12T07:56:02.996Z</time></trkpt><trkpt lat="43.6805263" lon="6.7281322"><ele>636.7142857142857</ele><time>2026-04-12T07:56:04.996Z</time></trkpt><trkpt lat="43.6805854" lon="6.7280885"><ele>637.5714285714286</ele><time>2026-04-12T07:56:06.995Z</time></trkpt><trkpt lat="43.6806407" lon="6.7280455"><ele>638.4285714285713</ele><time>2026-04-12T07:56:08.996Z</time></trkpt><trkpt lat="43.6807269" lon="6.7279874"><ele>639.2857142857142</ele><time>2026-04-12T07:56:11.996Z</time></trkpt><trkpt lat="43.6807826" lon="6.7279446"><ele>640.1428571428571</ele><time>2026-04-12T07:56:13.996Z</time></trkpt><trkpt lat="43.6808624" lon="6.7278939"><ele>641.0</ele><time>2026-04-12T07:56:16.995Z</time></trkpt><trkpt lat="43.6809301" lon="6.7278436"><ele>641.0</ele><time>2026-04-12T07:56:19.997Z</time></trkpt><trkpt lat="43.6810073" lon="6.7277894"><ele>641.0</ele><time>2026-04-12T07:56:22.996Z</time></trkpt><trkpt lat="43.6810863" lon="6.7277318"><ele>641.0</ele><time>2026-04-12T07:56:25.996Z</time></trkpt><trkpt lat="43.6811536" lon="6.7276578"><ele>641.0</ele><time>2026-04-12T07:56:28.996Z</time></trkpt><trkpt lat="43.6812255" lon="6.7276177"><ele>641.0</ele><time>2026-04-12T07:56:31.996Z</time></trkpt><trkpt lat="43.681294" lon="6.7275726"><ele>641.0</ele><time>2026-04-12T07:56:34.996Z</time></trkpt><trkpt lat="43.681374" lon="6.7275325"><ele>642.4285714285714</ele><time>2026-04-12T07:56:37.996Z</time></trkpt><trkpt lat="43.681444" lon="6.7274683"><ele>643.8571428571429</ele><time>2026-04-12T07:56:40.997Z</time></trkpt><trkpt lat="43.6814993" lon="6.7274157"><ele>645.2857142857142</ele><time>2026-04-12T07:56:43.996Z</time></trkpt><trkpt lat="43.6815585" lon="6.7273775"><ele>646.7142857142858</ele><time>2026-04-12T07:56:45.996Z</time></trkpt><trkpt lat="43.6816219" lon="6.7273468"><ele>648.1428571428571</ele><time>2026-04-12T07:56:47.996Z</time></trkpt><trkpt lat="43.6817007" lon="6.7272972"><ele>649.5714285714286</ele><time>2026-04-12T07:56:50.996Z</time></trkpt><trkpt lat="43.6817642" lon="6.7272454"><ele>651.0</ele><time>2026-04-12T07:56:52.997Z</time></trkpt><trkpt lat="43.6818253" lon="6.7271831"><ele>651.0</ele><time>2026-04-12T07:56:54.997Z</time></trkpt><trkpt lat="43.6818904" lon="6.7271231"><ele>651.0</ele><time>2026-04-12T07:56:56.997Z</time></trkpt><trkpt lat="43.6819476" lon="6.7270779"><ele>651.0</ele><time>2026-04-12T07:56:58.996Z</time></trkpt><trkpt lat="43.6820307" lon="6.7270617"><ele>651.0</ele><time>2026-04-12T07:57:01.997Z</time></trkpt><trkpt lat="43.6821058" lon="6.7270944"><ele>651.0</ele><time>2026-04-12T07:57:03.997Z</time></trkpt><trkpt lat="43.6821622" lon="6.7271593"><ele>651.0</ele><time>2026-04-12T07:57:05.997Z</time></trkpt><trkpt lat="43.6821844" lon="6.7272596"><ele>652.4285714285714</ele><time>2026-04-12T07:57:07.997Z</time></trkpt><trkpt lat="43.6821889" lon="6.7273502"><ele>653.8571428571429</ele><time>2026-04-12T07:57:09.998Z</time></trkpt><trkpt lat="43.6821856" lon="6.7274381"><ele>655.2857142857142</ele><time>2026-04-12T07:57:11.997Z</time></trkpt><trkpt lat="43.6821704" lon="6.7275502"><ele>656.7142857142858</ele><time>2026-04-12T07:57:14.997Z</time></trkpt><trkpt lat="43.6821736" lon="6.7276399"><ele>658.1428571428571</ele><time>2026-04-12T07:57:16.997Z</time></trkpt><trkpt lat="43.6821747" lon="6.7277538"><ele>659.5714285714286</ele><time>2026-04-12T07:57:18.997Z</time></trkpt><trkpt lat="43.6821816" lon="6.7278526"><ele>661.0</ele><time>2026-04-12T07:57:20.997Z</time></trkpt><trkpt lat="43.6821935" lon="6.7279714"><ele>661.1428571428571</ele><time>2026-04-12T07:57:23.997Z</time></trkpt><trkpt lat="43.6822153" lon="6.7280582"><ele>661.2857142857143</ele><time>2026-04-12T07:57:25.997Z</time></trkpt><trkpt lat="43.6822319" lon="6.7281454"><ele>661.4285714285714</ele><time>2026-04-12T07:57:27.997Z</time></trkpt><trkpt lat="43.6822494" lon="6.7282295"><ele>661.5714285714286</ele><time>2026-04-12T07:57:29.997Z</time></trkpt><trkpt lat="43.6822668" lon="6.7283139"><ele>661.7142857142857</ele><time>2026-04-12T07:57:31.997Z</time></trkpt><trkpt lat="43.6822952" lon="6.7284257"><ele>661.8571428571429</ele><time>2026-04-12T07:57:34.998Z</time></trkpt><trkpt lat="43.6823211" lon="6.7285431"><ele>662.0</ele><time>2026-04-12T07:57:37.997Z</time></trkpt><trkpt lat="43.6823536" lon="6.7286601"><ele>662.0</ele><time>2026-04-12T07:57:40.997Z</time></trkpt><trkpt lat="43.682379" lon="6.7287399"><ele>662.0</ele><time>2026-04-12T07:57:42.998Z</time></trkpt><trkpt lat="43.6824211" lon="6.7288313"><ele>662.0</ele><time>2026-04-12T07:57:44.998Z</time></trkpt><trkpt lat="43.6824787" lon="6.7289339"><ele>662.0</ele><time>2026-04-12T07:57:46.998Z</time></trkpt><trkpt lat="43.6825353" lon="6.729045"><ele>662.0</ele><time>2026-04-12T07:57:48.998Z</time></trkpt><trkpt lat="43.6825904" lon="6.7291357"><ele>662.0</ele><time>2026-04-12T07:57:50.998Z</time></trkpt><trkpt lat="43.682646" lon="6.7292163"><ele>662.0</ele><time>2026-04-12T07:57:52.998Z</time></trkpt><trkpt lat="43.682697" lon="6.7292992"><ele>662.0</ele><time>2026-04-12T07:57:54.998Z</time></trkpt><trkpt lat="43.6827393" lon="6.7293825"><ele>662.0</ele><time>2026-04-12T07:57:56.998Z</time></trkpt><trkpt lat="43.6827749" lon="6.7294563"><ele>662.0</ele><time>2026-04-12T07:57:58.998Z</time></trkpt><trkpt lat="43.6828182" lon="6.7295509"><ele>662.0</ele><time>2026-04-12T07:58:01.998Z</time></trkpt><trkpt lat="43.6828579" lon="6.7296534"><ele>662.0</ele><time>2026-04-12T07:58:04.998Z</time></trkpt><trkpt lat="43.6828949" lon="6.729749"><ele>664.3333333333333</ele><time>2026-04-12T07:58:07.998Z</time></trkpt><trkpt lat="43.6829301" lon="6.7298476"><ele>666.6666666666666</ele><time>2026-04-12T07:58:10.998Z</time></trkpt><trkpt lat="43.6829557" lon="6.7299357"><ele>669.0</ele><time>2026-04-12T07:58:13.998Z</time></trkpt><trkpt lat="43.6829583" lon="6.7300286"><ele>671.3333333333334</ele><time>2026-04-12T07:58:17.998Z</time></trkpt><trkpt lat="43.6829924" lon="6.730146"><ele>673.6666666666667</ele><time>2026-04-12T07:58:20.999Z</time></trkpt><trkpt lat="43.6830073" lon="6.7302703"><ele>676.0</ele><time>2026-04-12T07:58:23.998Z</time></trkpt><trkpt lat="43.6830176" lon="6.7303854"><ele>676.1666666666667</ele><time>2026-04-12T07:58:26.998Z</time></trkpt><trkpt lat="43.6830311" lon="6.7304913"><ele>676.3333333333334</ele><time>2026-04-12T07:58:29.998Z</time></trkpt><trkpt lat="43.6830584" lon="6.7306164"><ele>676.5</ele><time>2026-04-12T07:58:32.999Z</time></trkpt><trkpt lat="43.6830997" lon="6.7307275"><ele>676.6666666666666</ele><time>2026-04-12T07:58:35.999Z</time></trkpt><trkpt lat="43.6831395" lon="6.7308188"><ele>676.8333333333333</ele><time>2026-04-12T07:58:37.999Z</time></trkpt><trkpt lat="43.683167" lon="6.7309023"><ele>677.0</ele><time>2026-04-12T07:58:39.999Z</time></trkpt><trkpt lat="43.6832024" lon="6.7310313"><ele>676.9999999999999</ele><time>2026-04-12T07:58:41.999Z</time></trkpt><trkpt lat="43.6832316" lon="6.7311353"><ele>677.0</ele><time>2026-04-12T07:58:43.999Z</time></trkpt><trkpt lat="43.6832553" lon="6.7312203"><ele>677.0</ele><time>2026-04-12T07:58:45.999Z</time></trkpt><trkpt lat="43.6832854" lon="6.7313069"><ele>677.0</ele><time>2026-04-12T07:58:47.999Z</time></trkpt><trkpt lat="43.683317" lon="6.731387"><ele>677.0</ele><time>2026-04-12T07:58:49.999Z</time></trkpt><trkpt lat="43.6833457" lon="6.7314645"><ele>676.9999999999999</ele><time>2026-04-12T07:58:51.999Z</time></trkpt><trkpt lat="43.6833873" lon="6.7315672"><ele>677.0</ele><time>2026-04-12T07:58:54.999Z</time></trkpt><trkpt lat="43.6834276" lon="6.7316536"><ele>676.9999999999999</ele><time>2026-04-12T07:58:57.999Z</time></trkpt><trkpt lat="43.6834669" lon="6.7317424"><ele>677.0</ele><time>2026-04-12T07:59:00.999Z</time></trkpt><trkpt lat="43.683504" lon="6.7318211"><ele>677.0</ele><time>2026-04-12T07:59:03.999Z</time></trkpt><trkpt lat="43.6835464" lon="6.731907"><ele>677.0</ele><time>2026-04-12T07:59:06.999Z</time></trkpt><trkpt lat="43.6835906" lon="6.7320088"><ele>677.0</ele><time>2026-04-12T07:59:10Z</time></trkpt><trkpt lat="43.6836314" lon="6.7320867"><ele>676.9999999999999</ele><time>2026-04-12T07:59:12.999Z</time></trkpt><trkpt lat="43.6836662" lon="6.7321606"><ele>677.0</ele><time>2026-04-12T07:59:15.999Z</time></trkpt><trkpt lat="43.6837026" lon="6.7322336"><ele>677.5</ele><time>2026-04-12T07:59:19.001Z</time></trkpt><trkpt lat="43.6837574" lon="6.7323298"><ele>678.0</ele><time>2026-04-12T07:59:23Z</time></trkpt><trkpt lat="43.6837945" lon="6.7324198"><ele>678.5</ele><time>2026-04-12T07:59:26Z</time></trkpt><trkpt lat="43.6838432" lon="6.7325045"><ele>679.0</ele><time>2026-04-12T07:59:29Z</time></trkpt><trkpt lat="43.6838875" lon="6.7325798"><ele>679.5</ele><time>2026-04-12T07:59:32Z</time></trkpt><trkpt lat="43.6839335" lon="6.7326545"><ele>680.0</ele><time>2026-04-12T07:59:36Z</time></trkpt><trkpt lat="43.6839831" lon="6.7327321"><ele>680.0</ele><time>2026-04-12T07:59:39Z</time></trkpt><trkpt lat="43.6840483" lon="6.7327833"><ele>680.0</ele><time>2026-04-12T07:59:43Z</time></trkpt><trkpt lat="43.6841084" lon="6.7327281"><ele>680.0</ele><time>2026-04-12T07:59:47Z</time></trkpt><trkpt lat="43.6840981" lon="6.732626"><ele>680.0</ele><time>2026-04-12T07:59:50Z</time></trkpt><trkpt lat="43.6840993" lon="6.7325056"><ele>680.0</ele><time>2026-04-12T07:59:53Z</time></trkpt><trkpt lat="43.6840981" lon="6.7323829"><ele>680.0</ele><time>2026-04-12T07:59:56.001Z</time></trkpt><trkpt lat="43.6840948" lon="6.7322753"><ele>681.8333333333333</ele><time>2026-04-12T07:59:59.001Z</time></trkpt><trkpt lat="43.6840924" lon="6.7321534"><ele>683.6666666666666</ele><time>2026-04-12T08:00:02.001Z</time></trkpt><trkpt lat="43.6840864" lon="6.7320543"><ele>685.5</ele><time>2026-04-12T08:00:05Z</time></trkpt><trkpt lat="43.6840657" lon="6.7319441"><ele>687.3333333333334</ele><time>2026-04-12T08:00:08.001Z</time></trkpt><trkpt lat="43.6840587" lon="6.7318241"><ele>689.1666666666667</ele><time>2026-04-12T08:00:11.002Z</time></trkpt><trkpt lat="43.6840475" lon="6.7317064"><ele>691.0</ele><time>2026-04-12T08:00:14.001Z</time></trkpt><trkpt lat="43.6840358" lon="6.7315693"><ele>692.0</ele><time>2026-04-12T08:00:17.001Z</time></trkpt><trkpt lat="43.6840336" lon="6.7314687"><ele>693.0</ele><time>2026-04-12T08:00:19.001Z</time></trkpt><trkpt lat="43.6840515" lon="6.7313454"><ele>694.0</ele><time>2026-04-12T08:00:22.002Z</time></trkpt><trkpt lat="43.6840703" lon="6.7312354"><ele>695.0</ele><time>2026-04-12T08:00:25.001Z</time></trkpt><trkpt lat="43.684091" lon="6.7311234"><ele>696.0</ele><time>2026-04-12T08:00:28.001Z</time></trkpt><trkpt lat="43.6841066" lon="6.7310196"><ele>697.0</ele><time>2026-04-12T08:00:31.002Z</time></trkpt><trkpt lat="43.6841247" lon="6.7309171"><ele>697.3333333333334</ele><time>2026-04-12T08:00:34.001Z</time></trkpt><trkpt lat="43.6841455" lon="6.7308067"><ele>697.6666666666667</ele><time>2026-04-12T08:00:37.001Z</time></trkpt><trkpt lat="43.6841747" lon="6.730702"><ele>698.0</ele><time>2026-04-12T08:00:40.001Z</time></trkpt><trkpt lat="43.6842004" lon="6.7305995"><ele>698.3333333333334</ele><time>2026-04-12T08:00:43.001Z</time></trkpt><trkpt lat="43.6842239" lon="6.7305148"><ele>698.6666666666666</ele><time>2026-04-12T08:00:46.002Z</time></trkpt><trkpt lat="43.6842673" lon="6.7304117"><ele>699.0</ele><time>2026-04-12T08:00:49.003Z</time></trkpt><trkpt lat="43.6843156" lon="6.7303152"><ele>698.5</ele><time>2026-04-12T08:00:52.002Z</time></trkpt><trkpt lat="43.6843617" lon="6.7302127"><ele>698.0</ele><time>2026-04-12T08:00:55.002Z</time></trkpt><trkpt lat="43.6843963" lon="6.7301375"><ele>697.5</ele><time>2026-04-12T08:00:57.002Z</time></trkpt><trkpt lat="43.6844504" lon="6.7300538"><ele>697.0</ele><time>2026-04-12T08:00:59.002Z</time></trkpt><trkpt lat="43.6844923" lon="6.7299852"><ele>696.5</ele><time>2026-04-12T08:01:01.002Z</time></trkpt><trkpt lat="43.6845328" lon="6.729883"><ele>696.0</ele><time>2026-04-12T08:01:04.003Z</time></trkpt><trkpt lat="43.6845862" lon="6.7297727"><ele>698.5</ele><time>2026-04-12T08:01:07.002Z</time></trkpt><trkpt lat="43.6846297" lon="6.7297036"><ele>701.0</ele><time>2026-04-12T08:01:09.002Z</time></trkpt><trkpt lat="43.6846662" lon="6.7296324"><ele>703.5</ele><time>2026-04-12T08:01:11.002Z</time></trkpt><trkpt lat="43.6847091" lon="6.7295353"><ele>706.0</ele><time>2026-04-12T08:01:14.002Z</time></trkpt><trkpt lat="43.6847503" lon="6.7294366"><ele>708.5</ele><time>2026-04-12T08:01:17.002Z</time></trkpt><trkpt lat="43.6848087" lon="6.7293386"><ele>711.0</ele><time>2026-04-12T08:01:20.002Z</time></trkpt><trkpt lat="43.6848603" lon="6.7292473"><ele>711.0</ele><time>2026-04-12T08:01:23.002Z</time></trkpt><trkpt lat="43.684908" lon="6.7291443"><ele>711.0</ele><time>2026-04-12T08:01:26.002Z</time></trkpt><trkpt lat="43.684956" lon="6.7290736"><ele>711.0</ele><time>2026-04-12T08:01:28.002Z</time></trkpt><trkpt lat="43.6850021" lon="6.7290142"><ele>711.0</ele><time>2026-04-12T08:01:30.003Z</time></trkpt><trkpt lat="43.6850657" lon="6.7289411"><ele>711.0</ele><time>2026-04-12T08:01:33.002Z</time></trkpt><trkpt lat="43.6851397" lon="6.7288655"><ele>711.0</ele><time>2026-04-12T08:01:36.002Z</time></trkpt><trkpt lat="43.6852056" lon="6.7287781"><ele>711.0</ele><time>2026-04-12T08:01:39.003Z</time></trkpt><trkpt lat="43.6852581" lon="6.7286974"><ele>711.0</ele><time>2026-04-12T08:01:42.003Z</time></trkpt><trkpt lat="43.6853144" lon="6.7286208"><ele>711.0</ele><time>2026-04-12T08:01:45.003Z</time></trkpt><trkpt lat="43.6853675" lon="6.7285453"><ele>711.0</ele><time>2026-04-12T08:01:48.003Z</time></trkpt><trkpt lat="43.6854385" lon="6.7284641"><ele>711.0</ele><time>2026-04-12T08:01:51.004Z</time></trkpt><trkpt lat="43.6855015" lon="6.7284009"><ele>711.0</ele><time>2026-04-12T08:01:54.003Z</time></trkpt><trkpt lat="43.6855608" lon="6.7283388"><ele>712.0</ele><time>2026-04-12T08:01:57.003Z</time></trkpt><trkpt lat="43.6856219" lon="6.7282951"><ele>713.0</ele><time>2026-04-12T08:02:00.004Z</time></trkpt><trkpt lat="43.6856904" lon="6.7282575"><ele>714.0</ele><time>2026-04-12T08:02:03.003Z</time></trkpt><trkpt lat="43.6857821" lon="6.7282352"><ele>715.0</ele><time>2026-04-12T08:02:06.004Z</time></trkpt><trkpt lat="43.6858744" lon="6.728246"><ele>716.0</ele><time>2026-04-12T08:02:09.003Z</time></trkpt><trkpt lat="43.6859636" lon="6.7282437"><ele>717.0</ele><time>2026-04-12T08:02:12.003Z</time></trkpt><trkpt lat="43.6860465" lon="6.7282425"><ele>719.1666666666666</ele><time>2026-04-12T08:02:15.003Z</time></trkpt><trkpt lat="43.6861226" lon="6.728245"><ele>721.3333333333334</ele><time>2026-04-12T08:02:18.003Z</time></trkpt><trkpt lat="43.6861956" lon="6.7282296"><ele>723.5</ele><time>2026-04-12T08:02:21.004Z</time></trkpt><trkpt lat="43.6862677" lon="6.7282098"><ele>725.6666666666667</ele><time>2026-04-12T08:02:24.004Z</time></trkpt><trkpt lat="43.686348" lon="6.7281861"><ele>727.8333333333334</ele><time>2026-04-12T08:02:27.004Z</time></trkpt><trkpt lat="43.6864175" lon="6.7281524"><ele>730.0</ele><time>2026-04-12T08:02:30.004Z</time></trkpt><trkpt lat="43.6864789" lon="6.7281047"><ele>730.0</ele><time>2026-04-12T08:02:33.004Z</time></trkpt><trkpt lat="43.6865411" lon="6.7280444"><ele>730.0</ele><time>2026-04-12T08:02:36.004Z</time></trkpt><trkpt lat="43.6866018" lon="6.7279653"><ele>730.0</ele><time>2026-04-12T08:02:40.005Z</time></trkpt><trkpt lat="43.6866453" lon="6.7278878"><ele>730.0</ele><time>2026-04-12T08:02:43.004Z</time></trkpt><trkpt lat="43.6866835" lon="6.7278176"><ele>730.0</ele><time>2026-04-12T08:02:46.004Z</time></trkpt><trkpt lat="43.6867531" lon="6.727731"><ele>730.0</ele><time>2026-04-12T08:02:49.004Z</time></trkpt><trkpt lat="43.6868066" lon="6.7276799"><ele>730.4285714285714</ele><time>2026-04-12T08:02:51.004Z</time></trkpt><trkpt lat="43.6868701" lon="6.7276219"><ele>730.8571428571429</ele><time>2026-04-12T08:02:53.004Z</time></trkpt><trkpt lat="43.686932" lon="6.727563"><ele>731.2857142857142</ele><time>2026-04-12T08:02:55.005Z</time></trkpt><trkpt lat="43.6870005" lon="6.7275088"><ele>731.7142857142858</ele><time>2026-04-12T08:02:57.004Z</time></trkpt><trkpt lat="43.6870605" lon="6.7274585"><ele>732.1428571428571</ele><time>2026-04-12T08:02:59.004Z</time></trkpt><trkpt lat="43.6871254" lon="6.7274021"><ele>732.5714285714286</ele><time>2026-04-12T08:03:01.004Z</time></trkpt><trkpt lat="43.6871877" lon="6.7273527"><ele>733.0</ele><time>2026-04-12T08:03:03.004Z</time></trkpt><trkpt lat="43.6872481" lon="6.727305"><ele>732.9999999999999</ele><time>2026-04-12T08:03:05.005Z</time></trkpt><trkpt lat="43.6873317" lon="6.7272406"><ele>733.0</ele><time>2026-04-12T08:03:08.005Z</time></trkpt><trkpt lat="43.6873928" lon="6.7272001"><ele>733.0</ele><time>2026-04-12T08:03:10.005Z</time></trkpt><trkpt lat="43.6874501" lon="6.7271573"><ele>733.0</ele><time>2026-04-12T08:03:12.005Z</time></trkpt><trkpt lat="43.687509" lon="6.7271188"><ele>733.0</ele><time>2026-04-12T08:03:14.005Z</time></trkpt><trkpt lat="43.6875675" lon="6.7270802"><ele>732.9999999999999</ele><time>2026-04-12T08:03:16.005Z</time></trkpt><trkpt lat="43.687631" lon="6.7270305"><ele>733.0</ele><time>2026-04-12T08:03:19.005Z</time></trkpt><trkpt lat="43.6877176" lon="6.7269702"><ele>732.5999999999999</ele><time>2026-04-12T08:03:22.005Z</time></trkpt><trkpt lat="43.6877956" lon="6.7269101"><ele>732.1999999999999</ele><time>2026-04-12T08:03:25.005Z</time></trkpt><trkpt lat="43.6878741" lon="6.72686"><ele>731.8</ele><time>2026-04-12T08:03:28.005Z</time></trkpt><trkpt lat="43.6879556" lon="6.7268034"><ele>731.4</ele><time>2026-04-12T08:03:31.006Z</time></trkpt><trkpt lat="43.6880464" lon="6.7267759"><ele>731.0</ele><time>2026-04-12T08:03:34.005Z</time></trkpt><trkpt lat="43.688139" lon="6.7267561"><ele>731.0</ele><time>2026-04-12T08:03:37.005Z</time></trkpt><trkpt lat="43.6882257" lon="6.7267397"><ele>731.0</ele><time>2026-04-12T08:03:40.005Z</time></trkpt><trkpt lat="43.6882895" lon="6.7267341"><ele>731.0</ele><time>2026-04-12T08:03:42.005Z</time></trkpt><trkpt lat="43.6883526" lon="6.7267287"><ele>731.0</ele><time>2026-04-12T08:03:44.006Z</time></trkpt><trkpt lat="43.6884146" lon="6.726712"><ele>731.0</ele><time>2026-04-12T08:03:46.005Z</time></trkpt><trkpt lat="43.688483" lon="6.7266936"><ele>731.0</ele><time>2026-04-12T08:03:48.005Z</time></trkpt><trkpt lat="43.6885538" lon="6.7266817"><ele>731.0</ele><time>2026-04-12T08:03:50.006Z</time></trkpt><trkpt lat="43.6886267" lon="6.7266719"><ele>732.5</ele><time>2026-04-12T08:03:52.006Z</time></trkpt><trkpt lat="43.6887011" lon="6.7266651"><ele>734.0</ele><time>2026-04-12T08:03:54.006Z</time></trkpt><trkpt lat="43.6887663" lon="6.7266677"><ele>735.5</ele><time>2026-04-12T08:03:56.006Z</time></trkpt><trkpt lat="43.6888457" lon="6.7266895"><ele>737.0</ele><time>2026-04-12T08:03:58.006Z</time></trkpt><trkpt lat="43.6889517" lon="6.7267275"><ele>738.5</ele><time>2026-04-12T08:04:00.006Z</time></trkpt><trkpt lat="43.6890365" lon="6.7267401"><ele>740.0</ele><time>2026-04-12T08:04:02.006Z</time></trkpt><trkpt lat="43.6891196" lon="6.7267515"><ele>740.0</ele><time>2026-04-12T08:04:04.006Z</time></trkpt><trkpt lat="43.6892111" lon="6.7267761"><ele>740.0</ele><time>2026-04-12T08:04:06.006Z</time></trkpt><trkpt lat="43.6892968" lon="6.726795"><ele>740.0</ele><time>2026-04-12T08:04:08.006Z</time></trkpt><trkpt lat="43.6893675" lon="6.7267921"><ele>740.0</ele><time>2026-04-12T08:04:10.007Z</time></trkpt><trkpt lat="43.6894402" lon="6.7267772"><ele>740.0</ele><time>2026-04-12T08:04:12.007Z</time></trkpt><trkpt lat="43.6895012" lon="6.7267497"><ele>740.0</ele><time>2026-04-12T08:04:14.006Z</time></trkpt><trkpt lat="43.6895606" lon="6.7266711"><ele>743.0</ele><time>2026-04-12T08:04:17.006Z</time></trkpt><trkpt lat="43.6895681" lon="6.7265589"><ele>746.0</ele><time>2026-04-12T08:04:19.006Z</time></trkpt><trkpt lat="43.6895504" lon="6.7264537"><ele>749.0</ele><time>2026-04-12T08:04:21.006Z</time></trkpt><trkpt lat="43.6895085" lon="6.7263636"><ele>752.0</ele><time>2026-04-12T08:04:23.007Z</time></trkpt><trkpt lat="43.689484" lon="6.7262491"><ele>755.0</ele><time>2026-04-12T08:04:25.006Z</time></trkpt><trkpt lat="43.6894589" lon="6.7261419"><ele>758.0</ele><time>2026-04-12T08:04:27.007Z</time></trkpt><trkpt lat="43.6894267" lon="6.7260186"><ele>758.0</ele><time>2026-04-12T08:04:29.007Z</time></trkpt><trkpt lat="43.6894165" lon="6.725892"><ele>758.0</ele><time>2026-04-12T08:04:31.006Z</time></trkpt><trkpt lat="43.6894306" lon="6.7257732"><ele>758.0</ele><time>2026-04-12T08:04:33.007Z</time></trkpt><trkpt lat="43.689464" lon="6.7256717"><ele>758.0</ele><time>2026-04-12T08:04:35.007Z</time></trkpt><trkpt lat="43.6895168" lon="6.7255847"><ele>758.0</ele><time>2026-04-12T08:04:37.006Z</time></trkpt><trkpt lat="43.6895821" lon="6.7254973"><ele>758.0</ele><time>2026-04-12T08:04:39.007Z</time></trkpt><trkpt lat="43.6896393" lon="6.7254215"><ele>758.0</ele><time>2026-04-12T08:04:41.007Z</time></trkpt><trkpt lat="43.6897146" lon="6.7253429"><ele>758.0</ele><time>2026-04-12T08:04:43.007Z</time></trkpt><trkpt lat="43.6898131" lon="6.7252737"><ele>758.0</ele><time>2026-04-12T08:04:45.007Z</time></trkpt><trkpt lat="43.6899394" lon="6.7251956"><ele>758.0</ele><time>2026-04-12T08:04:47.007Z</time></trkpt><trkpt lat="43.6900492" lon="6.7251171"><ele>756.0</ele><time>2026-04-12T08:04:49.007Z</time></trkpt><trkpt lat="43.6901546" lon="6.725041"><ele>754.0</ele><time>2026-04-12T08:04:51.007Z</time></trkpt><trkpt lat="43.6902088" lon="6.7249062"><ele>752.0</ele><time>2026-04-12T08:04:53.007Z</time></trkpt><trkpt lat="43.690196" lon="6.7248103"><ele>750.0</ele><time>2026-04-12T08:04:54.007Z</time></trkpt><trkpt lat="43.690101" lon="6.7246862"><ele>748.0</ele><time>2026-04-12T08:04:56.007Z</time></trkpt><trkpt lat="43.690009" lon="6.7245992"><ele>748.0</ele><time>2026-04-12T08:04:58.007Z</time></trkpt><trkpt lat="43.6899321" lon="6.7245304"><ele>748.0</ele><time>2026-04-12T08:05:00.007Z</time></trkpt><trkpt lat="43.689875" lon="6.724472"><ele>748.0</ele><time>2026-04-12T08:05:02.007Z</time></trkpt><trkpt lat="43.6897994" lon="6.7244072"><ele>748.0</ele><time>2026-04-12T08:05:05.007Z</time></trkpt><trkpt lat="43.6897203" lon="6.724362"><ele>748.0</ele><time>2026-04-12T08:05:08.007Z</time></trkpt><trkpt lat="43.6896586" lon="6.724331"><ele>748.0</ele><time>2026-04-12T08:05:11.008Z</time></trkpt><trkpt lat="43.6895688" lon="6.7242893"><ele>749.6666666666667</ele><time>2026-04-12T08:05:14.008Z</time></trkpt><trkpt lat="43.6894886" lon="6.724226"><ele>751.3333333333334</ele><time>2026-04-12T08:05:17.007Z</time></trkpt><trkpt lat="43.6894551" lon="6.72412"><ele>753.0</ele><time>2026-04-12T08:05:20.007Z</time></trkpt><trkpt lat="43.6894522" lon="6.7239914"><ele>754.6666666666666</ele><time>2026-04-12T08:05:23.008Z</time></trkpt><trkpt lat="43.6894562" lon="6.723898"><ele>756.3333333333333</ele><time>2026-04-12T08:05:25.008Z</time></trkpt><trkpt lat="43.6894673" lon="6.7237945"><ele>758.0</ele><time>2026-04-12T08:05:27.008Z</time></trkpt><trkpt lat="43.6894816" lon="6.7236905"><ele>758.0</ele><time>2026-04-12T08:05:29.008Z</time></trkpt><trkpt lat="43.6895057" lon="6.7235882"><ele>758.0</ele><time>2026-04-12T08:05:31.008Z</time></trkpt><trkpt lat="43.689526" lon="6.723448"><ele>758.0</ele><time>2026-04-12T08:05:33.008Z</time></trkpt><trkpt lat="43.6895534" lon="6.7233456"><ele>758.0</ele><time>2026-04-12T08:05:35.008Z</time></trkpt><trkpt lat="43.6895956" lon="6.7232385"><ele>758.0</ele><time>2026-04-12T08:05:37.008Z</time></trkpt><trkpt lat="43.6896425" lon="6.7231395"><ele>758.0</ele><time>2026-04-12T08:05:39.009Z</time></trkpt><trkpt lat="43.6897044" lon="6.7230485"><ele>758.3333333333333</ele><time>2026-04-12T08:05:41.008Z</time></trkpt><trkpt lat="43.6897673" lon="6.7229749"><ele>758.6666666666666</ele><time>2026-04-12T08:05:43.008Z</time></trkpt><trkpt lat="43.6898232" lon="6.7229052"><ele>759.0</ele><time>2026-04-12T08:05:45.008Z</time></trkpt><trkpt lat="43.6898816" lon="6.722832"><ele>759.3333333333334</ele><time>2026-04-12T08:05:47.008Z</time></trkpt><trkpt lat="43.6899427" lon="6.7227553"><ele>759.6666666666667</ele><time>2026-04-12T08:05:49.009Z</time></trkpt><trkpt lat="43.6900014" lon="6.7226811"><ele>760.0</ele><time>2026-04-12T08:05:51.008Z</time></trkpt><trkpt lat="43.6900578" lon="6.7226108"><ele>759.0</ele><time>2026-04-12T08:05:53.008Z</time></trkpt><trkpt lat="43.6901119" lon="6.7225451"><ele>758.0</ele><time>2026-04-12T08:05:55.008Z</time></trkpt><trkpt lat="43.690163" lon="6.7224834"><ele>757.0</ele><time>2026-04-12T08:05:57.008Z</time></trkpt><trkpt lat="43.6902148" lon="6.7224269"><ele>756.0</ele><time>2026-04-12T08:05:59.008Z</time></trkpt><trkpt lat="43.6902657" lon="6.7223659"><ele>755.0</ele><time>2026-04-12T08:06:01.008Z</time></trkpt><trkpt lat="43.690322" lon="6.7223058"><ele>754.0</ele><time>2026-04-12T08:06:03.008Z</time></trkpt><trkpt lat="43.6903748" lon="6.7222481"><ele>753.0</ele><time>2026-04-12T08:06:05.008Z</time></trkpt><trkpt lat="43.690432" lon="6.7221975"><ele>754.1666666666666</ele><time>2026-04-12T08:06:07.009Z</time></trkpt><trkpt lat="43.6904918" lon="6.7221456"><ele>755.3333333333334</ele><time>2026-04-12T08:06:09.009Z</time></trkpt><trkpt lat="43.6905473" lon="6.7220994"><ele>756.5</ele><time>2026-04-12T08:06:11.009Z</time></trkpt><trkpt lat="43.690619" lon="6.7220188"><ele>757.6666666666667</ele><time>2026-04-12T08:06:14.009Z</time></trkpt><trkpt lat="43.6906749" lon="6.7219556"><ele>758.8333333333334</ele><time>2026-04-12T08:06:16.01Z</time></trkpt><trkpt lat="43.6907319" lon="6.7218965"><ele>760.0</ele><time>2026-04-12T08:06:18.01Z</time></trkpt><trkpt lat="43.6908094" lon="6.7218167"><ele>760.0</ele><time>2026-04-12T08:06:21.009Z</time></trkpt><trkpt lat="43.6908581" lon="6.721756"><ele>760.0</ele><time>2026-04-12T08:06:23.009Z</time></trkpt><trkpt lat="43.6909041" lon="6.7216963"><ele>760.0</ele><time>2026-04-12T08:06:25.009Z</time></trkpt><trkpt lat="43.6909609" lon="6.7216046"><ele>760.0</ele><time>2026-04-12T08:06:28.009Z</time></trkpt><trkpt lat="43.6910088" lon="6.7215138"><ele>760.0</ele><time>2026-04-12T08:06:31.009Z</time></trkpt><trkpt lat="43.6910518" lon="6.7214412"><ele>760.0</ele><time>2026-04-12T08:06:33.009Z</time></trkpt><trkpt lat="43.6910935" lon="6.7213603"><ele>760.0</ele><time>2026-04-12T08:06:35.009Z</time></trkpt><trkpt lat="43.6911548" lon="6.7212657"><ele>762.3333333333334</ele><time>2026-04-12T08:06:38.009Z</time></trkpt><trkpt lat="43.6912175" lon="6.721197"><ele>764.6666666666667</ele><time>2026-04-12T08:06:41.009Z</time></trkpt><trkpt lat="43.6912733" lon="6.7211494"><ele>767.0</ele><time>2026-04-12T08:06:43.011Z</time></trkpt><trkpt lat="43.6913521" lon="6.7210944"><ele>769.3333333333334</ele><time>2026-04-12T08:06:46.01Z</time></trkpt><trkpt lat="43.6914243" lon="6.7210543"><ele>771.6666666666666</ele><time>2026-04-12T08:06:49.009Z</time></trkpt><trkpt lat="43.6914894" lon="6.7210223"><ele>774.0</ele><time>2026-04-12T08:06:52.01Z</time></trkpt><trkpt lat="43.6915107" lon="6.7211202"><ele>775.2857142857143</ele><time>2026-04-12T08:06:55.01Z</time></trkpt><trkpt lat="43.6914662" lon="6.7211908"><ele>776.5714285714287</ele><time>2026-04-12T08:06:57.01Z</time></trkpt><trkpt lat="43.6914009" lon="6.7212649"><ele>777.8571428571429</ele><time>2026-04-12T08:07:00.011Z</time></trkpt><trkpt lat="43.6913475" lon="6.7213225"><ele>779.1428571428571</ele><time>2026-04-12T08:07:02.011Z</time></trkpt><trkpt lat="43.691297" lon="6.721386"><ele>780.4285714285714</ele><time>2026-04-12T08:07:04.01Z</time></trkpt><trkpt lat="43.6912493" lon="6.7214542"><ele>781.7142857142857</ele><time>2026-04-12T08:07:06.011Z</time></trkpt><trkpt lat="43.691211" lon="6.7215271"><ele>783.0</ele><time>2026-04-12T08:07:08.01Z</time></trkpt><trkpt lat="43.6911606" lon="6.7216325"><ele>783.0</ele><time>2026-04-12T08:07:11.01Z</time></trkpt><trkpt lat="43.6911286" lon="6.7217092"><ele>783.0</ele><time>2026-04-12T08:07:13.01Z</time></trkpt><trkpt lat="43.6911002" lon="6.7217952"><ele>783.0</ele><time>2026-04-12T08:07:15.01Z</time></trkpt><trkpt lat="43.6910617" lon="6.721902"><ele>783.0</ele><time>2026-04-12T08:07:18.01Z</time></trkpt><trkpt lat="43.6910331" lon="6.7220113"><ele>783.0</ele><time>2026-04-12T08:07:21.01Z</time></trkpt><trkpt lat="43.6910129" lon="6.7220962"><ele>783.0</ele><time>2026-04-12T08:07:23.01Z</time></trkpt><trkpt lat="43.690988" lon="6.7221766"><ele>783.0</ele><time>2026-04-12T08:07:25.01Z</time></trkpt><trkpt lat="43.6909581" lon="6.7222901"><ele>782.1666666666666</ele><time>2026-04-12T08:07:28.01Z</time></trkpt><trkpt lat="43.6909319" lon="6.7224212"><ele>781.3333333333333</ele><time>2026-04-12T08:07:31.011Z</time></trkpt><trkpt lat="43.6909129" lon="6.7225067"><ele>780.5</ele><time>2026-04-12T08:07:33.01Z</time></trkpt><trkpt lat="43.6908835" lon="6.7226151"><ele>779.6666666666666</ele><time>2026-04-12T08:07:36.011Z</time></trkpt><trkpt lat="43.6908699" lon="6.7227076"><ele>778.8333333333333</ele><time>2026-04-12T08:07:38.01Z</time></trkpt><trkpt lat="43.6908526" lon="6.7228033"><ele>778.0</ele><time>2026-04-12T08:07:40.011Z</time></trkpt><trkpt lat="43.6908284" lon="6.7228952"><ele>778.0</ele><time>2026-04-12T08:07:42.011Z</time></trkpt><trkpt lat="43.6907937" lon="6.7230173"><ele>778.0</ele><time>2026-04-12T08:07:45.011Z</time></trkpt><trkpt lat="43.6907742" lon="6.7231003"><ele>778.0</ele><time>2026-04-12T08:07:47.011Z</time></trkpt><trkpt lat="43.6907979" lon="6.7232022"><ele>778.0</ele><time>2026-04-12T08:07:50.012Z</time></trkpt><trkpt lat="43.6908575" lon="6.7232342"><ele>778.0</ele><time>2026-04-12T08:07:52.011Z</time></trkpt><trkpt lat="43.6909171" lon="6.7231902"><ele>778.0</ele><time>2026-04-12T08:07:54.011Z</time></trkpt><trkpt lat="43.6909585" lon="6.7230938"><ele>778.0</ele><time>2026-04-12T08:07:56.011Z</time></trkpt><trkpt lat="43.6909939" lon="6.7230159"><ele>777.9999999999999</ele><time>2026-04-12T08:07:58.011Z</time></trkpt><trkpt lat="43.6910269" lon="6.7229406"><ele>778.0</ele><time>2026-04-12T08:08:00.011Z</time></trkpt><trkpt lat="43.6910777" lon="6.7228323"><ele>778.0</ele><time>2026-04-12T08:08:03.011Z</time></trkpt><trkpt lat="43.6911191" lon="6.7227532"><ele>778.0</ele><time>2026-04-12T08:08:05.011Z</time></trkpt><trkpt lat="43.6911587" lon="6.7226825"><ele>777.9999999999999</ele><time>2026-04-12T08:08:07.011Z</time></trkpt><trkpt lat="43.691208" lon="6.7225843"><ele>778.0</ele><time>2026-04-12T08:08:10.011Z</time></trkpt><trkpt lat="43.6912566" lon="6.7225072"><ele>780.1666666666666</ele><time>2026-04-12T08:08:12.012Z</time></trkpt><trkpt lat="43.6913092" lon="6.7224351"><ele>782.3333333333333</ele><time>2026-04-12T08:08:14.012Z</time></trkpt><trkpt lat="43.6913524" lon="6.7223584"><ele>784.5</ele><time>2026-04-12T08:08:16.012Z</time></trkpt><trkpt lat="43.6913931" lon="6.7222808"><ele>786.6666666666667</ele><time>2026-04-12T08:08:18.011Z</time></trkpt><trkpt lat="43.6914476" lon="6.7221728"><ele>788.8333333333334</ele><time>2026-04-12T08:08:21.011Z</time></trkpt><trkpt lat="43.6915042" lon="6.72207"><ele>791.0</ele><time>2026-04-12T08:08:24.011Z</time></trkpt><trkpt lat="43.6915478" lon="6.7219997"><ele>791.0000000000001</ele><time>2026-04-12T08:08:26.012Z</time></trkpt><trkpt lat="43.6915901" lon="6.7219272"><ele>791.0</ele><time>2026-04-12T08:08:28.012Z</time></trkpt><trkpt lat="43.691643" lon="6.7218204"><ele>791.0</ele><time>2026-04-12T08:08:31.012Z</time></trkpt><trkpt lat="43.6916877" lon="6.721742"><ele>791.0</ele><time>2026-04-12T08:08:33.012Z</time></trkpt><trkpt lat="43.6917322" lon="6.7216752"><ele>791.0000000000001</ele><time>2026-04-12T08:08:35.013Z</time></trkpt><trkpt lat="43.6917841" lon="6.7215985"><ele>791.0</ele><time>2026-04-12T08:08:37.012Z</time></trkpt><trkpt lat="43.6918417" lon="6.7215211"><ele>789.6666666666667</ele><time>2026-04-12T08:08:39.012Z</time></trkpt><trkpt lat="43.6918953" lon="6.7214547"><ele>788.3333333333334</ele><time>2026-04-12T08:08:41.012Z</time></trkpt><trkpt lat="43.6919448" lon="6.721391"><ele>787.0</ele><time>2026-04-12T08:08:43.012Z</time></trkpt><trkpt lat="43.6919921" lon="6.7213277"><ele>785.6666666666667</ele><time>2026-04-12T08:08:45.012Z</time></trkpt><trkpt lat="43.6920539" lon="6.7212391"><ele>784.3333333333334</ele><time>2026-04-12T08:08:48.013Z</time></trkpt><trkpt lat="43.6921233" lon="6.7211485"><ele>783.0</ele><time>2026-04-12T08:08:51.012Z</time></trkpt><trkpt lat="43.6921838" lon="6.7210751"><ele>784.6666666666666</ele><time>2026-04-12T08:08:53.012Z</time></trkpt><trkpt lat="43.6922464" lon="6.721006"><ele>786.3333333333333</ele><time>2026-04-12T08:08:55.012Z</time></trkpt><trkpt lat="43.6923115" lon="6.7209388"><ele>788.0</ele><time>2026-04-12T08:08:57.013Z</time></trkpt><trkpt lat="43.6923817" lon="6.7208844"><ele>789.6666666666666</ele><time>2026-04-12T08:08:59.012Z</time></trkpt><trkpt lat="43.6924484" lon="6.7208353"><ele>791.3333333333333</ele><time>2026-04-12T08:09:01.012Z</time></trkpt><trkpt lat="43.6925058" lon="6.7207888"><ele>793.0</ele><time>2026-04-12T08:09:03.012Z</time></trkpt><trkpt lat="43.6925651" lon="6.7207216"><ele>792.9999999999999</ele><time>2026-04-12T08:09:05.012Z</time></trkpt><trkpt lat="43.6926275" lon="6.7206365"><ele>793.0</ele><time>2026-04-12T08:09:07.012Z</time></trkpt><trkpt lat="43.6926592" lon="6.7205307"><ele>793.0</ele><time>2026-04-12T08:09:09.012Z</time></trkpt><trkpt lat="43.692661" lon="6.7204013"><ele>793.0</ele><time>2026-04-12T08:09:11.013Z</time></trkpt><trkpt lat="43.6926446" lon="6.7202813"><ele>792.9999999999999</ele><time>2026-04-12T08:09:13.013Z</time></trkpt><trkpt lat="43.6926158" lon="6.7201568"><ele>793.0</ele><time>2026-04-12T08:09:15.013Z</time></trkpt><trkpt lat="43.6925822" lon="6.720025"><ele>793.4</ele><time>2026-04-12T08:09:17.013Z</time></trkpt><trkpt lat="43.6925462" lon="6.7198821"><ele>793.8</ele><time>2026-04-12T08:09:19.013Z</time></trkpt><trkpt lat="43.6925111" lon="6.7197596"><ele>794.2</ele><time>2026-04-12T08:09:21.013Z</time></trkpt><trkpt lat="43.6924621" lon="6.7196238"><ele>794.6</ele><time>2026-04-12T08:09:23.013Z</time></trkpt><trkpt lat="43.6924109" lon="6.7195058"><ele>795.0</ele><time>2026-04-12T08:09:25.013Z</time></trkpt><trkpt lat="43.6923591" lon="6.7194177"><ele>796.3333333333334</ele><time>2026-04-12T08:09:27.013Z</time></trkpt><trkpt lat="43.6923005" lon="6.7193354"><ele>797.6666666666667</ele><time>2026-04-12T08:09:29.014Z</time></trkpt><trkpt lat="43.6922396" lon="6.7192548"><ele>799.0</ele><time>2026-04-12T08:09:31.013Z</time></trkpt><trkpt lat="43.6921799" lon="6.7191769"><ele>800.3333333333334</ele><time>2026-04-12T08:09:33.013Z</time></trkpt><trkpt lat="43.692117" lon="6.7191037"><ele>801.6666666666667</ele><time>2026-04-12T08:09:35.013Z</time></trkpt><trkpt lat="43.6920612" lon="6.7190276"><ele>803.0</ele><time>2026-04-12T08:09:37.013Z</time></trkpt><trkpt lat="43.6920111" lon="6.7189433"><ele>803.0000000000001</ele><time>2026-04-12T08:09:39.013Z</time></trkpt><trkpt lat="43.6919634" lon="6.7188569"><ele>803.0</ele><time>2026-04-12T08:09:41.013Z</time></trkpt><trkpt lat="43.6919066" lon="6.7187617"><ele>803.0</ele><time>2026-04-12T08:09:43.013Z</time></trkpt><trkpt lat="43.6918666" lon="6.7186521"><ele>803.0</ele><time>2026-04-12T08:09:45.014Z</time></trkpt><trkpt lat="43.6918408" lon="6.71855"><ele>803.0000000000001</ele><time>2026-04-12T08:09:47.014Z</time></trkpt><trkpt lat="43.6918108" lon="6.7184414"><ele>803.0</ele><time>2026-04-12T08:09:49.014Z</time></trkpt><trkpt lat="43.6917826" lon="6.7183373"><ele>802.8333333333334</ele><time>2026-04-12T08:09:51.013Z</time></trkpt><trkpt lat="43.691755" lon="6.7182415"><ele>802.6666666666667</ele><time>2026-04-12T08:09:53.013Z</time></trkpt><trkpt lat="43.6917255" lon="6.718137"><ele>802.5</ele><time>2026-04-12T08:09:55.014Z</time></trkpt><trkpt lat="43.6917002" lon="6.718024"><ele>802.3333333333333</ele><time>2026-04-12T08:09:57.014Z</time></trkpt><trkpt lat="43.6916796" lon="6.7179205"><ele>802.1666666666666</ele><time>2026-04-12T08:09:59.014Z</time></trkpt><trkpt lat="43.6916617" lon="6.7178253"><ele>802.0</ele><time>2026-04-12T08:10:01.014Z</time></trkpt><trkpt lat="43.6916548" lon="6.7177263"><ele>802.4999999999999</ele><time>2026-04-12T08:10:03.014Z</time></trkpt><trkpt lat="43.6916501" lon="6.7176203"><ele>803.0</ele><time>2026-04-12T08:10:05.014Z</time></trkpt><trkpt lat="43.6916419" lon="6.7175186"><ele>803.5</ele><time>2026-04-12T08:10:07.014Z</time></trkpt><trkpt lat="43.6916389" lon="6.7174183"><ele>804.0</ele><time>2026-04-12T08:10:09.015Z</time></trkpt><trkpt lat="43.6916637" lon="6.7173121"><ele>804.4999999999999</ele><time>2026-04-12T08:10:11.014Z</time></trkpt><trkpt lat="43.6917011" lon="6.7171835"><ele>805.0</ele><time>2026-04-12T08:10:13.014Z</time></trkpt><trkpt lat="43.6917375" lon="6.7170546"><ele>805.0</ele><time>2026-04-12T08:10:15.014Z</time></trkpt><trkpt lat="43.6917745" lon="6.7169201"><ele>805.0</ele><time>2026-04-12T08:10:17.014Z</time></trkpt><trkpt lat="43.6918218" lon="6.7167754"><ele>805.0</ele><time>2026-04-12T08:10:19.014Z</time></trkpt><trkpt lat="43.6918761" lon="6.7166277"><ele>805.0</ele><time>2026-04-12T08:10:21.014Z</time></trkpt><trkpt lat="43.6919423" lon="6.7164795"><ele>805.8571428571429</ele><time>2026-04-12T08:10:23.014Z</time></trkpt><trkpt lat="43.6919821" lon="6.7164011"><ele>806.7142857142858</ele><time>2026-04-12T08:10:24.014Z</time></trkpt><trkpt lat="43.6920302" lon="6.7163263"><ele>807.5714285714286</ele><time>2026-04-12T08:10:25.014Z</time></trkpt><trkpt lat="43.6920775" lon="6.7162483"><ele>808.4285714285714</ele><time>2026-04-12T08:10:26.015Z</time></trkpt><trkpt lat="43.6921247" lon="6.7161619"><ele>809.2857142857143</ele><time>2026-04-12T08:10:27.015Z</time></trkpt><trkpt lat="43.6921675" lon="6.7160863"><ele>810.1428571428571</ele><time>2026-04-12T08:10:28.015Z</time></trkpt><trkpt lat="43.692211" lon="6.7160127"><ele>811.0</ele><time>2026-04-12T08:10:29.015Z</time></trkpt><trkpt lat="43.6922556" lon="6.7159321"><ele>811.0</ele><time>2026-04-12T08:10:30.015Z</time></trkpt><trkpt lat="43.6923037" lon="6.7158421"><ele>811.0</ele><time>2026-04-12T08:10:31.015Z</time></trkpt><trkpt lat="43.6923348" lon="6.7157554"><ele>811.0</ele><time>2026-04-12T08:10:32.015Z</time></trkpt><trkpt lat="43.6923775" lon="6.7156728"><ele>811.0</ele><time>2026-04-12T08:10:33.014Z</time></trkpt><trkpt lat="43.6924106" lon="6.7155965"><ele>811.0</ele><time>2026-04-12T08:10:34.015Z</time></trkpt><trkpt lat="43.6924312" lon="6.7155131"><ele>811.0</ele><time>2026-04-12T08:10:35.015Z</time></trkpt><trkpt lat="43.6924488" lon="6.7154243"><ele>811.0</ele><time>2026-04-12T08:10:36.015Z</time></trkpt><trkpt lat="43.6924612" lon="6.7153365"><ele>810.9999999999999</ele><time>2026-04-12T08:10:37.016Z</time></trkpt><trkpt lat="43.6924652" lon="6.7152432"><ele>811.0</ele><time>2026-04-12T08:10:38.015Z</time></trkpt><trkpt lat="43.6924608" lon="6.7151454"><ele>811.0</ele><time>2026-04-12T08:10:39.015Z</time></trkpt><trkpt lat="43.6924372" lon="6.7150494"><ele>811.0</ele><time>2026-04-12T08:10:40.015Z</time></trkpt><trkpt lat="43.6923922" lon="6.7149671"><ele>810.9999999999999</ele><time>2026-04-12T08:10:41.015Z</time></trkpt><trkpt lat="43.6923433" lon="6.7149016"><ele>811.0</ele><time>2026-04-12T08:10:42.015Z</time></trkpt><trkpt lat="43.6922766" lon="6.7147851"><ele>810.1999999999999</ele><time>2026-04-12T08:10:44.015Z</time></trkpt><trkpt lat="43.6923047" lon="6.7146367"><ele>809.4</ele><time>2026-04-12T08:10:46.015Z</time></trkpt><trkpt lat="43.6923602" lon="6.7144948"><ele>808.6</ele><time>2026-04-12T08:10:48.015Z</time></trkpt><trkpt lat="43.6924107" lon="6.7143645"><ele>807.8</ele><time>2026-04-12T08:10:50.015Z</time></trkpt><trkpt lat="43.6924487" lon="6.714228"><ele>807.0</ele><time>2026-04-12T08:10:52.015Z</time></trkpt><trkpt lat="43.692472" lon="6.7141405"><ele>806.8333333333334</ele><time>2026-04-12T08:10:53.015Z</time></trkpt><trkpt lat="43.6924931" lon="6.7140472"><ele>806.6666666666667</ele><time>2026-04-12T08:10:54.015Z</time></trkpt><trkpt lat="43.6925149" lon="6.7139586"><ele>806.5</ele><time>2026-04-12T08:10:55.015Z</time></trkpt><trkpt lat="43.6925406" lon="6.7138635"><ele>806.3333333333334</ele><time>2026-04-12T08:10:56.015Z</time></trkpt><trkpt lat="43.6925638" lon="6.7137639"><ele>806.1666666666667</ele><time>2026-04-12T08:10:57.015Z</time></trkpt><trkpt lat="43.6925706" lon="6.7136477"><ele>806.0</ele><time>2026-04-12T08:10:58.015Z</time></trkpt><trkpt lat="43.692549" lon="6.7135354"><ele>805.4</ele><time>2026-04-12T08:10:59.015Z</time></trkpt><trkpt lat="43.6925025" lon="6.7134328"><ele>804.8</ele><time>2026-04-12T08:11:00.015Z</time></trkpt><trkpt lat="43.6924331" lon="6.7133378"><ele>804.1999999999999</ele><time>2026-04-12T08:11:01.015Z</time></trkpt><trkpt lat="43.6923542" lon="6.7132589"><ele>803.5999999999999</ele><time>2026-04-12T08:11:02.015Z</time></trkpt><trkpt lat="43.6922669" lon="6.7131867"><ele>803.0</ele><time>2026-04-12T08:11:03.015Z</time></trkpt><trkpt lat="43.692185" lon="6.7131043"><ele>803.0</ele><time>2026-04-12T08:11:04.015Z</time></trkpt><trkpt lat="43.6921086" lon="6.7130214"><ele>803.0</ele><time>2026-04-12T08:11:05.015Z</time></trkpt><trkpt lat="43.6920333" lon="6.7129377"><ele>803.0</ele><time>2026-04-12T08:11:06.015Z</time></trkpt><trkpt lat="43.6919566" lon="6.712852"><ele>803.0</ele><time>2026-04-12T08:11:07.015Z</time></trkpt><trkpt lat="43.691881" lon="6.7127665"><ele>803.0</ele><time>2026-04-12T08:11:08.015Z</time></trkpt><trkpt lat="43.6918052" lon="6.712684"><ele>801.8</ele><time>2026-04-12T08:11:09.015Z</time></trkpt><trkpt lat="43.6917272" lon="6.7125954"><ele>800.5999999999999</ele><time>2026-04-12T08:11:10.015Z</time></trkpt><trkpt lat="43.6916457" lon="6.7125028"><ele>799.4000000000001</ele><time>2026-04-12T08:11:11.015Z</time></trkpt><trkpt lat="43.691562" lon="6.7124092"><ele>798.2</ele><time>2026-04-12T08:11:12.016Z</time></trkpt><trkpt lat="43.6914779" lon="6.7123175"><ele>797.0</ele><time>2026-04-12T08:11:13.016Z</time></trkpt><trkpt lat="43.6913981" lon="6.7122306"><ele>797.0</ele><time>2026-04-12T08:11:14.016Z</time></trkpt><trkpt lat="43.6913192" lon="6.7121405"><ele>797.0</ele><time>2026-04-12T08:11:15.016Z</time></trkpt><trkpt lat="43.6912417" lon="6.7120522"><ele>797.0</ele><time>2026-04-12T08:11:16.016Z</time></trkpt><trkpt lat="43.6911643" lon="6.7119615"><ele>797.0</ele><time>2026-04-12T08:11:17.015Z</time></trkpt><trkpt lat="43.6910846" lon="6.7118691"><ele>797.0</ele><time>2026-04-12T08:11:18.016Z</time></trkpt><trkpt lat="43.6910044" lon="6.7117777"><ele>796.4000000000001</ele><time>2026-04-12T08:11:19.016Z</time></trkpt><trkpt lat="43.6909275" lon="6.7116885"><ele>795.8000000000001</ele><time>2026-04-12T08:11:20.016Z</time></trkpt><trkpt lat="43.6908539" lon="6.7116003"><ele>795.2</ele><time>2026-04-12T08:11:21.016Z</time></trkpt><trkpt lat="43.6907806" lon="6.7115102"><ele>794.6</ele><time>2026-04-12T08:11:22.016Z</time></trkpt><trkpt lat="43.690708" lon="6.7114194"><ele>794.0</ele><time>2026-04-12T08:11:23.016Z</time></trkpt><trkpt lat="43.6906381" lon="6.7113327"><ele>794.0</ele><time>2026-04-12T08:11:24.016Z</time></trkpt><trkpt lat="43.6905706" lon="6.7112458"><ele>794.0</ele><time>2026-04-12T08:11:25.016Z</time></trkpt><trkpt lat="43.6905029" lon="6.711158"><ele>794.0</ele><time>2026-04-12T08:11:26.016Z</time></trkpt><trkpt lat="43.6904343" lon="6.7110738"><ele>794.0</ele><time>2026-04-12T08:11:27.016Z</time></trkpt><trkpt lat="43.6903664" lon="6.7109918"><ele>794.0</ele><time>2026-04-12T08:11:28.016Z</time></trkpt><trkpt lat="43.6902975" lon="6.7109077"><ele>793.6</ele><time>2026-04-12T08:11:29.016Z</time></trkpt><trkpt lat="43.6902285" lon="6.710823"><ele>793.2</ele><time>2026-04-12T08:11:30.016Z</time></trkpt><trkpt lat="43.6901589" lon="6.7107404"><ele>792.8000000000001</ele><time>2026-04-12T08:11:31.016Z</time></trkpt><trkpt lat="43.6900885" lon="6.7106593"><ele>792.4000000000001</ele><time>2026-04-12T08:11:32.016Z</time></trkpt><trkpt lat="43.6900182" lon="6.7105791"><ele>792.0</ele><time>2026-04-12T08:11:33.016Z</time></trkpt><trkpt lat="43.6899486" lon="6.7104983"><ele>792.0</ele><time>2026-04-12T08:11:34.016Z</time></trkpt><trkpt lat="43.6898798" lon="6.710419"><ele>792.0</ele><time>2026-04-12T08:11:35.016Z</time></trkpt><trkpt lat="43.6898116" lon="6.7103391"><ele>792.0</ele><time>2026-04-12T08:11:36.016Z</time></trkpt><trkpt lat="43.6897436" lon="6.7102593"><ele>792.0</ele><time>2026-04-12T08:11:37.016Z</time></trkpt><trkpt lat="43.689678" lon="6.7101823"><ele>792.0</ele><time>2026-04-12T08:11:38.016Z</time></trkpt><trkpt lat="43.6896142" lon="6.710108"><ele>792.0</ele><time>2026-04-12T08:11:39.016Z</time></trkpt><trkpt lat="43.6895525" lon="6.7100365"><ele>792.1666666666666</ele><time>2026-04-12T08:11:40.017Z</time></trkpt><trkpt lat="43.6894919" lon="6.7099653"><ele>792.3333333333333</ele><time>2026-04-12T08:11:41.016Z</time></trkpt><trkpt lat="43.6894335" lon="6.7098963"><ele>792.5</ele><time>2026-04-12T08:11:42.016Z</time></trkpt><trkpt lat="43.6893747" lon="6.7098296"><ele>792.6666666666666</ele><time>2026-04-12T08:11:43.016Z</time></trkpt><trkpt lat="43.6893148" lon="6.7097649"><ele>792.8333333333333</ele><time>2026-04-12T08:11:44.016Z</time></trkpt><trkpt lat="43.6892571" lon="6.709702"><ele>793.0</ele><time>2026-04-12T08:11:45.016Z</time></trkpt><trkpt lat="43.6891989" lon="6.709635"><ele>793.0000000000001</ele><time>2026-04-12T08:11:46.017Z</time></trkpt><trkpt lat="43.6891418" lon="6.709565"><ele>793.0</ele><time>2026-04-12T08:11:47.016Z</time></trkpt><trkpt lat="43.6890854" lon="6.7094921"><ele>793.0</ele><time>2026-04-12T08:11:48.016Z</time></trkpt><trkpt lat="43.6890308" lon="6.7094225"><ele>793.0</ele><time>2026-04-12T08:11:49.016Z</time></trkpt><trkpt lat="43.6889763" lon="6.7093557"><ele>793.0</ele><time>2026-04-12T08:11:50.016Z</time></trkpt><trkpt lat="43.6889212" lon="6.7092929"><ele>793.0000000000001</ele><time>2026-04-12T08:11:51.016Z</time></trkpt><trkpt lat="43.6888657" lon="6.7092359"><ele>793.0</ele><time>2026-04-12T08:11:52.016Z</time></trkpt><trkpt lat="43.6888084" lon="6.709184"><ele>794.4285714285714</ele><time>2026-04-12T08:11:53.016Z</time></trkpt><trkpt lat="43.6887461" lon="6.7091412"><ele>795.8571428571429</ele><time>2026-04-12T08:11:54.016Z</time></trkpt><trkpt lat="43.688681" lon="6.7091013"><ele>797.2857142857142</ele><time>2026-04-12T08:11:55.016Z</time></trkpt><trkpt lat="43.688611" lon="6.709064"><ele>798.7142857142858</ele><time>2026-04-12T08:11:56.016Z</time></trkpt><trkpt lat="43.6885381" lon="6.7090277"><ele>800.1428571428571</ele><time>2026-04-12T08:11:57.017Z</time></trkpt><trkpt lat="43.6884688" lon="6.7089913"><ele>801.5714285714286</ele><time>2026-04-12T08:11:58.017Z</time></trkpt><trkpt lat="43.688398" lon="6.7089429"><ele>803.0</ele><time>2026-04-12T08:11:59.017Z</time></trkpt><trkpt lat="43.6883307" lon="6.7088823"><ele>802.9999999999999</ele><time>2026-04-12T08:12:00.017Z</time></trkpt><trkpt lat="43.6882661" lon="6.7088174"><ele>803.0</ele><time>2026-04-12T08:12:01.017Z</time></trkpt><trkpt lat="43.688207" lon="6.7087469"><ele>803.0</ele><time>2026-04-12T08:12:02.016Z</time></trkpt><trkpt lat="43.6881547" lon="6.7086616"><ele>803.0</ele><time>2026-04-12T08:12:03.017Z</time></trkpt><trkpt lat="43.6881108" lon="6.7085802"><ele>803.0</ele><time>2026-04-12T08:12:04.016Z</time></trkpt><trkpt lat="43.6880629" lon="6.7085102"><ele>802.9999999999999</ele><time>2026-04-12T08:12:05.017Z</time></trkpt><trkpt lat="43.6880169" lon="6.708447"><ele>803.0</ele><time>2026-04-12T08:12:06.018Z</time></trkpt><trkpt lat="43.6879244" lon="6.7083344"><ele>803.4</ele><time>2026-04-12T08:12:08.017Z</time></trkpt><trkpt lat="43.6878386" lon="6.7082154"><ele>803.8</ele><time>2026-04-12T08:12:10.017Z</time></trkpt><trkpt lat="43.6877496" lon="6.708104"><ele>804.2</ele><time>2026-04-12T08:12:12.017Z</time></trkpt><trkpt lat="43.6876978" lon="6.7080493"><ele>804.6</ele><time>2026-04-12T08:12:13.017Z</time></trkpt><trkpt lat="43.6876513" lon="6.7079902"><ele>805.0</ele><time>2026-04-12T08:12:14.017Z</time></trkpt><trkpt lat="43.6875626" lon="6.7078688"><ele>804.9999999999999</ele><time>2026-04-12T08:12:16.017Z</time></trkpt><trkpt lat="43.6875139" lon="6.7077978"><ele>805.0</ele><time>2026-04-12T08:12:17.017Z</time></trkpt><trkpt lat="43.6874632" lon="6.7077284"><ele>805.0</ele><time>2026-04-12T08:12:18.018Z</time></trkpt><trkpt lat="43.6874115" lon="6.7076592"><ele>805.0</ele><time>2026-04-12T08:12:19.017Z</time></trkpt><trkpt lat="43.6873575" lon="6.7075876"><ele>804.9999999999999</ele><time>2026-04-12T08:12:20.017Z</time></trkpt><trkpt lat="43.6873015" lon="6.707508"><ele>805.0</ele><time>2026-04-12T08:12:21.017Z</time></trkpt><trkpt lat="43.6872418" lon="6.7074221"><ele>805.9999999999999</ele><time>2026-04-12T08:12:22.017Z</time></trkpt><trkpt lat="43.6871805" lon="6.7073349"><ele>807.0</ele><time>2026-04-12T08:12:23.017Z</time></trkpt><trkpt lat="43.6871166" lon="6.7072523"><ele>808.0</ele><time>2026-04-12T08:12:24.017Z</time></trkpt><trkpt lat="43.6870523" lon="6.7071768"><ele>809.0</ele><time>2026-04-12T08:12:25.017Z</time></trkpt><trkpt lat="43.6869903" lon="6.7070982"><ele>809.9999999999999</ele><time>2026-04-12T08:12:26.017Z</time></trkpt><trkpt lat="43.6869276" lon="6.7070186"><ele>811.0</ele><time>2026-04-12T08:12:27.017Z</time></trkpt><trkpt lat="43.6868705" lon="6.706927"><ele>808.4</ele><time>2026-04-12T08:12:28.018Z</time></trkpt><trkpt lat="43.6868209" lon="6.7068144"><ele>805.8</ele><time>2026-04-12T08:12:29.017Z</time></trkpt><trkpt lat="43.686786" lon="6.706689"><ele>803.1999999999999</ele><time>2026-04-12T08:12:30.017Z</time></trkpt><trkpt lat="43.6867606" lon="6.7065612"><ele>800.5999999999999</ele><time>2026-04-12T08:12:31.017Z</time></trkpt><trkpt lat="43.686727" lon="6.7064498"><ele>798.0</ele><time>2026-04-12T08:12:32.017Z</time></trkpt><trkpt lat="43.6866843" lon="6.7063406"><ele>798.0</ele><time>2026-04-12T08:12:33.017Z</time></trkpt><trkpt lat="43.686626" lon="6.7062388"><ele>798.0</ele><time>2026-04-12T08:12:34.017Z</time></trkpt><trkpt lat="43.6865635" lon="6.7061359"><ele>798.0</ele><time>2026-04-12T08:12:35.017Z</time></trkpt><trkpt lat="43.686501" lon="6.7060333"><ele>798.0</ele><time>2026-04-12T08:12:36.017Z</time></trkpt><trkpt lat="43.6864383" lon="6.7059261"><ele>798.0</ele><time>2026-04-12T08:12:37.017Z</time></trkpt><trkpt lat="43.6863773" lon="6.7058137"><ele>800.2</ele><time>2026-04-12T08:12:38.017Z</time></trkpt><trkpt lat="43.6863138" lon="6.7057007"><ele>802.4</ele><time>2026-04-12T08:12:39.017Z</time></trkpt><trkpt lat="43.6862436" lon="6.7055955"><ele>804.6</ele><time>2026-04-12T08:12:40.017Z</time></trkpt><trkpt lat="43.6861675" lon="6.7054901"><ele>806.8000000000001</ele><time>2026-04-12T08:12:41.017Z</time></trkpt><trkpt lat="43.6860944" lon="6.7053834"><ele>809.0</ele><time>2026-04-12T08:12:42.017Z</time></trkpt><trkpt lat="43.6860284" lon="6.7052632"><ele>804.0</ele><time>2026-04-12T08:12:43.017Z</time></trkpt><trkpt lat="43.6859747" lon="6.7051289"><ele>799.0</ele><time>2026-04-12T08:12:44.018Z</time></trkpt><trkpt lat="43.6859247" lon="6.7049876"><ele>794.0</ele><time>2026-04-12T08:12:45.017Z</time></trkpt><trkpt lat="43.6858724" lon="6.7048509"><ele>789.0</ele><time>2026-04-12T08:12:46.017Z</time></trkpt><trkpt lat="43.6858199" lon="6.7047098"><ele>789.0</ele><time>2026-04-12T08:12:47.017Z</time></trkpt><trkpt lat="43.6857705" lon="6.7045663"><ele>789.0</ele><time>2026-04-12T08:12:48.017Z</time></trkpt><trkpt lat="43.6857216" lon="6.7044224"><ele>789.0</ele><time>2026-04-12T08:12:49.017Z</time></trkpt><trkpt lat="43.6856723" lon="6.7042809"><ele>789.0</ele><time>2026-04-12T08:12:50.018Z</time></trkpt><trkpt lat="43.6856239" lon="6.7041414"><ele>792.25</ele><time>2026-04-12T08:12:51.018Z</time></trkpt><trkpt lat="43.6855757" lon="6.7039935"><ele>795.5</ele><time>2026-04-12T08:12:52.018Z</time></trkpt><trkpt lat="43.6855286" lon="6.7038448"><ele>798.75</ele><time>2026-04-12T08:12:53.018Z</time></trkpt><trkpt lat="43.6854797" lon="6.7036986"><ele>802.0</ele><time>2026-04-12T08:12:54.018Z</time></trkpt><trkpt lat="43.6854239" lon="6.7035586"><ele>804.25</ele><time>2026-04-12T08:12:55.018Z</time></trkpt><trkpt lat="43.6853647" lon="6.7034225"><ele>806.5</ele><time>2026-04-12T08:12:56.018Z</time></trkpt><trkpt lat="43.6852983" lon="6.7032904"><ele>808.75</ele><time>2026-04-12T08:12:57.018Z</time></trkpt><trkpt lat="43.6852242" lon="6.7031679"><ele>811.0</ele><time>2026-04-12T08:12:58.019Z</time></trkpt><trkpt lat="43.685137" lon="6.7030576"><ele>803.25</ele><time>2026-04-12T08:12:59.018Z</time></trkpt><trkpt lat="43.6850336" lon="6.7029669"><ele>795.5</ele><time>2026-04-12T08:13:00.018Z</time></trkpt><trkpt lat="43.6849196" lon="6.702896"><ele>787.75</ele><time>2026-04-12T08:13:01.018Z</time></trkpt><trkpt lat="43.6848016" lon="6.7028336"><ele>780.0</ele><time>2026-04-12T08:13:02.018Z</time></trkpt><trkpt lat="43.6846839" lon="6.702774"><ele>777.75</ele><time>2026-04-12T08:13:03.018Z</time></trkpt><trkpt lat="43.6845697" lon="6.7027053"><ele>775.5</ele><time>2026-04-12T08:13:04.018Z</time></trkpt><trkpt lat="43.6844643" lon="6.7026162"><ele>773.25</ele><time>2026-04-12T08:13:05.018Z</time></trkpt><trkpt lat="43.6843746" lon="6.7024984"><ele>771.0</ele><time>2026-04-12T08:13:06.018Z</time></trkpt><trkpt lat="43.6842977" lon="6.7023651"><ele>771.0</ele><time>2026-04-12T08:13:07.018Z</time></trkpt><trkpt lat="43.6842253" lon="6.7022236"><ele>771.0</ele><time>2026-04-12T08:13:08.018Z</time></trkpt><trkpt lat="43.6841499" lon="6.7020813"><ele>771.0</ele><time>2026-04-12T08:13:09.018Z</time></trkpt><trkpt lat="43.6840625" lon="6.7019479"><ele>771.0</ele><time>2026-04-12T08:13:10.018Z</time></trkpt><trkpt lat="43.6839672" lon="6.7018237"><ele>768.0</ele><time>2026-04-12T08:13:11.018Z</time></trkpt><trkpt lat="43.6838704" lon="6.7016993"><ele>765.0</ele><time>2026-04-12T08:13:12.018Z</time></trkpt><trkpt lat="43.6837717" lon="6.7015848"><ele>762.0</ele><time>2026-04-12T08:13:13.018Z</time></trkpt><trkpt lat="43.6836673" lon="6.7014703"><ele>759.0</ele><time>2026-04-12T08:13:14.019Z</time></trkpt><trkpt lat="43.6835664" lon="6.7013543"><ele>759.0</ele><time>2026-04-12T08:13:15.019Z</time></trkpt><trkpt lat="43.683472" lon="6.7012262"><ele>759.0</ele><time>2026-04-12T08:13:16.018Z</time></trkpt><trkpt lat="43.6833903" lon="6.7010779"><ele>759.0</ele><time>2026-04-12T08:13:17.018Z</time></trkpt><trkpt lat="43.6833295" lon="6.7009089"><ele>759.0</ele><time>2026-04-12T08:13:18.018Z</time></trkpt><trkpt lat="43.6832972" lon="6.7007189"><ele>760.5</ele><time>2026-04-12T08:13:19.018Z</time></trkpt><trkpt lat="43.6832822" lon="6.7005253"><ele>762.0</ele><time>2026-04-12T08:13:20.018Z</time></trkpt><trkpt lat="43.6832757" lon="6.7003389"><ele>763.5</ele><time>2026-04-12T08:13:21.018Z</time></trkpt><trkpt lat="43.6832677" lon="6.7001521"><ele>765.0</ele><time>2026-04-12T08:13:22.018Z</time></trkpt><trkpt lat="43.6832582" lon="6.6999675"><ele>765.0</ele><time>2026-04-12T08:13:23.018Z</time></trkpt><trkpt lat="43.6832439" lon="6.6997817"><ele>765.0</ele><time>2026-04-12T08:13:24.018Z</time></trkpt><trkpt lat="43.6832237" lon="6.6995948"><ele>765.0</ele><time>2026-04-12T08:13:25.018Z</time></trkpt><trkpt lat="43.6831978" lon="6.6994056"><ele>765.0</ele><time>2026-04-12T08:13:26.019Z</time></trkpt><trkpt lat="43.6831618" lon="6.6992262"><ele>764.75</ele><time>2026-04-12T08:13:27.018Z</time></trkpt><trkpt lat="43.6831044" lon="6.6990627"><ele>764.5</ele><time>2026-04-12T08:13:28.019Z</time></trkpt><trkpt lat="43.6830101" lon="6.698905"><ele>764.25</ele><time>2026-04-12T08:13:29.019Z</time></trkpt><trkpt lat="43.6829103" lon="6.6987556"><ele>764.0</ele><time>2026-04-12T08:13:30.018Z</time></trkpt><trkpt lat="43.682815" lon="6.6986138"><ele>761.25</ele><time>2026-04-12T08:13:31.019Z</time></trkpt><trkpt lat="43.6827218" lon="6.6984683"><ele>758.5</ele><time>2026-04-12T08:13:32.019Z</time></trkpt><trkpt lat="43.682634" lon="6.6983255"><ele>755.75</ele><time>2026-04-12T08:13:33.019Z</time></trkpt><trkpt lat="43.6825453" lon="6.6981766"><ele>753.0</ele><time>2026-04-12T08:13:34.018Z</time></trkpt><trkpt lat="43.6824529" lon="6.6980288"><ele>753.0</ele><time>2026-04-12T08:13:35.018Z</time></trkpt><trkpt lat="43.6823509" lon="6.6978916"><ele>753.0</ele><time>2026-04-12T08:13:36.018Z</time></trkpt><trkpt lat="43.682243" lon="6.6977671"><ele>753.0</ele><time>2026-04-12T08:13:37.018Z</time></trkpt><trkpt lat="43.6821242" lon="6.6976584"><ele>753.0</ele><time>2026-04-12T08:13:38.019Z</time></trkpt><trkpt lat="43.6819995" lon="6.6975667"><ele>751.0</ele><time>2026-04-12T08:13:39.019Z</time></trkpt><trkpt lat="43.6818706" lon="6.6974816"><ele>749.0</ele><time>2026-04-12T08:13:40.019Z</time></trkpt><trkpt lat="43.6817432" lon="6.697394"><ele>747.0</ele><time>2026-04-12T08:13:41.019Z</time></trkpt><trkpt lat="43.6816167" lon="6.6973013"><ele>745.0</ele><time>2026-04-12T08:13:42.018Z</time></trkpt><trkpt lat="43.6814951" lon="6.6972106"><ele>745.0</ele><time>2026-04-12T08:13:43.02Z</time></trkpt><trkpt lat="43.6813734" lon="6.6971191"><ele>745.0</ele><time>2026-04-12T08:13:44.019Z</time></trkpt><trkpt lat="43.6812535" lon="6.6970255"><ele>745.0</ele><time>2026-04-12T08:13:45.02Z</time></trkpt><trkpt lat="43.681134" lon="6.6969325"><ele>745.0</ele><time>2026-04-12T08:13:46.019Z</time></trkpt><trkpt lat="43.6810153" lon="6.6968413"><ele>742.25</ele><time>2026-04-12T08:13:47.019Z</time></trkpt><trkpt lat="43.6808972" lon="6.6967491"><ele>739.5</ele><time>2026-04-12T08:13:48.019Z</time></trkpt><trkpt lat="43.6807801" lon="6.6966563"><ele>736.75</ele><time>2026-04-12T08:13:49.019Z</time></trkpt><trkpt lat="43.6806596" lon="6.6965715"><ele>734.0</ele><time>2026-04-12T08:13:50.019Z</time></trkpt><trkpt lat="43.6805302" lon="6.6965048"><ele>734.0</ele><time>2026-04-12T08:13:51.019Z</time></trkpt><trkpt lat="43.6803925" lon="6.6964743"><ele>734.0</ele><time>2026-04-12T08:13:52.019Z</time></trkpt><trkpt lat="43.6802476" lon="6.6964869"><ele>734.0</ele><time>2026-04-12T08:13:53.02Z</time></trkpt><trkpt lat="43.6801064" lon="6.6965306"><ele>734.0</ele><time>2026-04-12T08:13:54.019Z</time></trkpt><trkpt lat="43.6799791" lon="6.6966033"><ele>732.6</ele><time>2026-04-12T08:13:55.02Z</time></trkpt><trkpt lat="43.6798678" lon="6.6966325"><ele>731.2</ele><time>2026-04-12T08:13:56.02Z</time></trkpt><trkpt lat="43.6797697" lon="6.6966178"><ele>729.8000000000001</ele><time>2026-04-12T08:13:57.019Z</time></trkpt><trkpt lat="43.6796804" lon="6.6965496"><ele>728.4000000000001</ele><time>2026-04-12T08:13:58.02Z</time></trkpt><trkpt lat="43.6796487" lon="6.6963995"><ele>727.0</ele><time>2026-04-12T08:13:59.019Z</time></trkpt><trkpt lat="43.6796627" lon="6.6962295"><ele>726.25</ele><time>2026-04-12T08:14:00.019Z</time></trkpt><trkpt lat="43.6797051" lon="6.696066"><ele>725.5</ele><time>2026-04-12T08:14:01.02Z</time></trkpt><trkpt lat="43.6797702" lon="6.6959371"><ele>724.75</ele><time>2026-04-12T08:14:02.02Z</time></trkpt><trkpt lat="43.6798741" lon="6.695836"><ele>724.0</ele><time>2026-04-12T08:14:03.019Z</time></trkpt><trkpt lat="43.6799766" lon="6.6957504"><ele>724.0</ele><time>2026-04-12T08:14:04.019Z</time></trkpt><trkpt lat="43.6800732" lon="6.6956606"><ele>724.0</ele><time>2026-04-12T08:14:05.019Z</time></trkpt><trkpt lat="43.6801832" lon="6.6955801"><ele>724.0</ele><time>2026-04-12T08:14:06.019Z</time></trkpt><trkpt lat="43.6802902" lon="6.6955014"><ele>724.0</ele><time>2026-04-12T08:14:07.019Z</time></trkpt><trkpt lat="43.6804067" lon="6.6954462"><ele>724.75</ele><time>2026-04-12T08:14:08.019Z</time></trkpt><trkpt lat="43.6805412" lon="6.6954129"><ele>725.5</ele><time>2026-04-12T08:14:09.019Z</time></trkpt><trkpt lat="43.6806682" lon="6.6953673"><ele>726.25</ele><time>2026-04-12T08:14:10.019Z</time></trkpt><trkpt lat="43.6807795" lon="6.6952959"><ele>727.0</ele><time>2026-04-12T08:14:11.02Z</time></trkpt><trkpt lat="43.680878" lon="6.6951886"><ele>724.5</ele><time>2026-04-12T08:14:12.019Z</time></trkpt><trkpt lat="43.6809687" lon="6.6950676"><ele>722.0</ele><time>2026-04-12T08:14:13.02Z</time></trkpt><trkpt lat="43.6810604" lon="6.6949528"><ele>719.5</ele><time>2026-04-12T08:14:14.019Z</time></trkpt><trkpt lat="43.6811572" lon="6.6948592"><ele>717.0</ele><time>2026-04-12T08:14:15.019Z</time></trkpt><trkpt lat="43.6812678" lon="6.6948193"><ele>716.75</ele><time>2026-04-12T08:14:16.019Z</time></trkpt><trkpt lat="43.6813978" lon="6.6948491"><ele>716.5</ele><time>2026-04-12T08:14:17.019Z</time></trkpt><trkpt lat="43.6815255" lon="6.6949268"><ele>716.25</ele><time>2026-04-12T08:14:18.02Z</time></trkpt><trkpt lat="43.6816478" lon="6.6950054"><ele>716.0</ele><time>2026-04-12T08:14:19.021Z</time></trkpt><trkpt lat="43.6817701" lon="6.6950692"><ele>716.0</ele><time>2026-04-12T08:14:20.02Z</time></trkpt><trkpt lat="43.6818883" lon="6.6950943"><ele>716.0</ele><time>2026-04-12T08:14:21.02Z</time></trkpt><trkpt lat="43.6819888" lon="6.6950605"><ele>716.0</ele><time>2026-04-12T08:14:22.02Z</time></trkpt><trkpt lat="43.6820719" lon="6.6949525"><ele>716.0</ele><time>2026-04-12T08:14:23.019Z</time></trkpt><trkpt lat="43.6821236" lon="6.6948017"><ele>715.25</ele><time>2026-04-12T08:14:24.02Z</time></trkpt><trkpt lat="43.6821505" lon="6.6946424"><ele>714.5</ele><time>2026-04-12T08:14:25.02Z</time></trkpt><trkpt lat="43.6821693" lon="6.6944699"><ele>713.75</ele><time>2026-04-12T08:14:26.019Z</time></trkpt><trkpt lat="43.6821946" lon="6.6943069"><ele>713.0</ele><time>2026-04-12T08:14:27.02Z</time></trkpt><trkpt lat="43.6822345" lon="6.6941376"><ele>713.0</ele><time>2026-04-12T08:14:28.02Z</time></trkpt><trkpt lat="43.6822863" lon="6.693977"><ele>713.0</ele><time>2026-04-12T08:14:29.02Z</time></trkpt><trkpt lat="43.6823422" lon="6.693813"><ele>713.0</ele><time>2026-04-12T08:14:30.02Z</time></trkpt><trkpt lat="43.6824087" lon="6.6936588"><ele>713.0</ele><time>2026-04-12T08:14:31.02Z</time></trkpt><trkpt lat="43.6824821" lon="6.6935134"><ele>712.25</ele><time>2026-04-12T08:14:32.02Z</time></trkpt><trkpt lat="43.6825702" lon="6.6933862"><ele>711.5</ele><time>2026-04-12T08:14:33.02Z</time></trkpt><trkpt lat="43.6826787" lon="6.6932884"><ele>710.75</ele><time>2026-04-12T08:14:34.02Z</time></trkpt><trkpt lat="43.6828003" lon="6.6932111"><ele>710.0</ele><time>2026-04-12T08:14:35.02Z</time></trkpt><trkpt lat="43.6829287" lon="6.6931514"><ele>710.0</ele><time>2026-04-12T08:14:36.02Z</time></trkpt><trkpt lat="43.6830568" lon="6.6930875"><ele>710.0</ele><time>2026-04-12T08:14:37.02Z</time></trkpt><trkpt lat="43.6831752" lon="6.6929958"><ele>710.0</ele><time>2026-04-12T08:14:38.02Z</time></trkpt><trkpt lat="43.6832784" lon="6.6928676"><ele>710.0</ele><time>2026-04-12T08:14:39.02Z</time></trkpt><trkpt lat="43.6833631" lon="6.6927229"><ele>708.75</ele><time>2026-04-12T08:14:40.021Z</time></trkpt><trkpt lat="43.6834412" lon="6.6925791"><ele>707.5</ele><time>2026-04-12T08:14:41.02Z</time></trkpt><trkpt lat="43.6835172" lon="6.6924443"><ele>706.25</ele><time>2026-04-12T08:14:42.02Z</time></trkpt><trkpt lat="43.683593" lon="6.6923185"><ele>705.0</ele><time>2026-04-12T08:14:43.02Z</time></trkpt><trkpt lat="43.6836707" lon="6.6922129"><ele>705.0</ele><time>2026-04-12T08:14:44.02Z</time></trkpt><trkpt lat="43.6837595" lon="6.6921351"><ele>705.0</ele><time>2026-04-12T08:14:45.021Z</time></trkpt><trkpt lat="43.6838454" lon="6.6920609"><ele>705.0</ele><time>2026-04-12T08:14:46.02Z</time></trkpt><trkpt lat="43.6839141" lon="6.6919803"><ele>705.0</ele><time>2026-04-12T08:14:47.02Z</time></trkpt><trkpt lat="43.6839347" lon="6.6918733"><ele>705.0</ele><time>2026-04-12T08:14:48.021Z</time></trkpt><trkpt lat="43.6839081" lon="6.6917477"><ele>702.6</ele><time>2026-04-12T08:14:49.02Z</time></trkpt><trkpt lat="43.6838458" lon="6.6916247"><ele>700.2</ele><time>2026-04-12T08:14:50.02Z</time></trkpt><trkpt lat="43.6837509" lon="6.6915362"><ele>697.8</ele><time>2026-04-12T08:14:51.021Z</time></trkpt><trkpt lat="43.6836659" lon="6.6914695"><ele>695.4</ele><time>2026-04-12T08:14:52.02Z</time></trkpt><trkpt lat="43.6835878" lon="6.6914237"><ele>693.0</ele><time>2026-04-12T08:14:53.02Z</time></trkpt><trkpt lat="43.6835092" lon="6.691406"><ele>692.8333333333334</ele><time>2026-04-12T08:14:54.02Z</time></trkpt><trkpt lat="43.6834161" lon="6.6914124"><ele>692.6666666666666</ele><time>2026-04-12T08:14:55.02Z</time></trkpt><trkpt lat="43.6833228" lon="6.6914295"><ele>692.5</ele><time>2026-04-12T08:14:56.021Z</time></trkpt><trkpt lat="43.6832418" lon="6.6914594"><ele>692.3333333333333</ele><time>2026-04-12T08:14:57.02Z</time></trkpt><trkpt lat="43.6831765" lon="6.6915016"><ele>692.1666666666666</ele><time>2026-04-12T08:14:58.02Z</time></trkpt><trkpt lat="43.6831219" lon="6.6915587"><ele>692.0</ele><time>2026-04-12T08:14:59.021Z</time></trkpt><trkpt lat="43.6830545" lon="6.6916137"><ele>692.0</ele><time>2026-04-12T08:15:00.021Z</time></trkpt><trkpt lat="43.6829958" lon="6.6916493"><ele>692.0</ele><time>2026-04-12T08:15:01.02Z</time></trkpt><trkpt lat="43.6828834" lon="6.6916665"><ele>692.0</ele><time>2026-04-12T08:15:03.021Z</time></trkpt><trkpt lat="43.6827978" lon="6.6916213"><ele>692.0</ele><time>2026-04-12T08:15:05.02Z</time></trkpt><trkpt lat="43.6827395" lon="6.6915435"><ele>692.0</ele><time>2026-04-12T08:15:07.021Z</time></trkpt><trkpt lat="43.6826869" lon="6.6914652"><ele>692.0</ele><time>2026-04-12T08:15:09.02Z</time></trkpt><trkpt lat="43.6826349" lon="6.691387"><ele>691.1428571428571</ele><time>2026-04-12T08:15:11.021Z</time></trkpt><trkpt lat="43.6825875" lon="6.6912978"><ele>690.2857142857143</ele><time>2026-04-12T08:15:13.021Z</time></trkpt><trkpt lat="43.6825418" lon="6.6912214"><ele>689.4285714285714</ele><time>2026-04-12T08:15:15.021Z</time></trkpt><trkpt lat="43.6824785" lon="6.6911232"><ele>688.5714285714286</ele><time>2026-04-12T08:15:18.021Z</time></trkpt><trkpt lat="43.6824353" lon="6.6910555"><ele>687.7142857142858</ele><time>2026-04-12T08:15:20.022Z</time></trkpt><trkpt lat="43.6823886" lon="6.690994"><ele>686.8571428571429</ele><time>2026-04-12T08:15:22.021Z</time></trkpt><trkpt lat="43.6823312" lon="6.6909568"><ele>686.0</ele><time>2026-04-12T08:15:24.021Z</time></trkpt><trkpt lat="43.6822667" lon="6.6909333"><ele>689.8571428571429</ele><time>2026-04-12T08:15:26.021Z</time></trkpt><trkpt lat="43.6822019" lon="6.6909149"><ele>693.7142857142858</ele><time>2026-04-12T08:15:28.021Z</time></trkpt><trkpt lat="43.6821355" lon="6.6908824"><ele>697.5714285714286</ele><time>2026-04-12T08:15:30.021Z</time></trkpt><trkpt lat="43.682072" lon="6.6908672"><ele>701.4285714285714</ele><time>2026-04-12T08:15:32.021Z</time></trkpt><trkpt lat="43.681979" lon="6.6908923"><ele>705.2857142857143</ele><time>2026-04-12T08:15:35.021Z</time></trkpt><trkpt lat="43.6819158" lon="6.6909021"><ele>709.1428571428571</ele><time>2026-04-12T08:15:37.021Z</time></trkpt><trkpt lat="43.681848" lon="6.6909161"><ele>713.0</ele><time>2026-04-12T08:15:39.021Z</time></trkpt><trkpt lat="43.6817742" lon="6.6908892"><ele>713.0</ele><time>2026-04-12T08:15:41.022Z</time></trkpt><trkpt lat="43.681681" lon="6.6908863"><ele>713.0</ele><time>2026-04-12T08:15:44.021Z</time></trkpt><trkpt lat="43.6815945" lon="6.6908941"><ele>713.0</ele><time>2026-04-12T08:15:47.021Z</time></trkpt><trkpt lat="43.6815036" lon="6.6909388"><ele>713.0</ele><time>2026-04-12T08:15:50.022Z</time></trkpt><trkpt lat="43.6814367" lon="6.690939"><ele>713.0</ele><time>2026-04-12T08:15:52.022Z</time></trkpt><trkpt lat="43.6813693" lon="6.690941"><ele>713.0</ele><time>2026-04-12T08:15:54.021Z</time></trkpt><trkpt lat="43.6813024" lon="6.690976"><ele>713.0</ele><time>2026-04-12T08:15:56.022Z</time></trkpt><trkpt lat="43.6812413" lon="6.6910113"><ele>713.0</ele><time>2026-04-12T08:15:58.021Z</time></trkpt><trkpt lat="43.6811836" lon="6.6910485"><ele>713.0</ele><time>2026-04-12T08:16:00.022Z</time></trkpt><trkpt lat="43.6811023" lon="6.691082"><ele>713.0</ele><time>2026-04-12T08:16:04.022Z</time></trkpt><trkpt lat="43.6810401" lon="6.6911248"><ele>713.0</ele><time>2026-04-12T08:16:06.022Z</time></trkpt><trkpt lat="43.6809739" lon="6.6911906"><ele>713.0</ele><time>2026-04-12T08:16:09.022Z</time></trkpt><trkpt lat="43.6808981" lon="6.6912744"><ele>711.1666666666666</ele><time>2026-04-12T08:16:12.022Z</time></trkpt><trkpt lat="43.6808502" lon="6.6913591"><ele>709.3333333333333</ele><time>2026-04-12T08:16:15.022Z</time></trkpt><trkpt lat="43.68082" lon="6.6914402"><ele>707.5</ele><time>2026-04-12T08:16:17.022Z</time></trkpt><trkpt lat="43.6807459" lon="6.6915204"><ele>705.6666666666666</ele><time>2026-04-12T08:16:20.022Z</time></trkpt><trkpt lat="43.6806847" lon="6.6915729"><ele>703.8333333333334</ele><time>2026-04-12T08:16:22.022Z</time></trkpt><trkpt lat="43.680612" lon="6.6915982"><ele>702.0</ele><time>2026-04-12T08:16:24.023Z</time></trkpt><trkpt lat="43.6805477" lon="6.6916271"><ele>702.0</ele><time>2026-04-12T08:16:26.022Z</time></trkpt><trkpt lat="43.6804723" lon="6.6916895"><ele>702.0</ele><time>2026-04-12T08:16:30.023Z</time></trkpt><trkpt lat="43.6804069" lon="6.6917265"><ele>702.0</ele><time>2026-04-12T08:16:33.023Z</time></trkpt><trkpt lat="43.680342" lon="6.6917244"><ele>702.0</ele><time>2026-04-12T08:16:35.022Z</time></trkpt><trkpt lat="43.680267" lon="6.6917506"><ele>702.0</ele><time>2026-04-12T08:16:37.022Z</time></trkpt><trkpt lat="43.6801948" lon="6.6917434"><ele>702.0</ele><time>2026-04-12T08:16:40.023Z</time></trkpt><trkpt lat="43.6801026" lon="6.6917501"><ele>704.6666666666666</ele><time>2026-04-12T08:16:43.022Z</time></trkpt><trkpt lat="43.6800069" lon="6.6917503"><ele>707.3333333333334</ele><time>2026-04-12T08:16:46.023Z</time></trkpt><trkpt lat="43.6799437" lon="6.6917586"><ele>710.0</ele><time>2026-04-12T08:16:49.023Z</time></trkpt><trkpt lat="43.6798654" lon="6.6917493"><ele>712.6666666666667</ele><time>2026-04-12T08:16:51.024Z</time></trkpt><trkpt lat="43.6797839" lon="6.691745"><ele>715.3333333333334</ele><time>2026-04-12T08:16:54.023Z</time></trkpt><trkpt lat="43.6797022" lon="6.6917421"><ele>718.0</ele><time>2026-04-12T08:16:57.023Z</time></trkpt><trkpt lat="43.6796176" lon="6.6917255"><ele>718.0</ele><time>2026-04-12T08:17:00.023Z</time></trkpt><trkpt lat="43.6795322" lon="6.6917069"><ele>718.0</ele><time>2026-04-12T08:17:03.024Z</time></trkpt><trkpt lat="43.679453" lon="6.6916482"><ele>718.0</ele><time>2026-04-12T08:17:06.023Z</time></trkpt><trkpt lat="43.6793802" lon="6.6916102"><ele>718.0</ele><time>2026-04-12T08:17:09.023Z</time></trkpt><trkpt lat="43.6792986" lon="6.6915888"><ele>718.0</ele><time>2026-04-12T08:17:12.023Z</time></trkpt><trkpt lat="43.6792227" lon="6.6915507"><ele>718.0</ele><time>2026-04-12T08:17:15.023Z</time></trkpt><trkpt lat="43.6791643" lon="6.6915031"><ele>719.0</ele><time>2026-04-12T08:17:18.024Z</time></trkpt><trkpt lat="43.6791088" lon="6.691459"><ele>720.0</ele><time>2026-04-12T08:17:20.024Z</time></trkpt><trkpt lat="43.6790413" lon="6.6913716"><ele>721.0</ele><time>2026-04-12T08:17:23.024Z</time></trkpt><trkpt lat="43.6790056" lon="6.6912951"><ele>722.0</ele><time>2026-04-12T08:17:25.023Z</time></trkpt><trkpt lat="43.6789791" lon="6.6912013"><ele>723.0</ele><time>2026-04-12T08:17:27.024Z</time></trkpt><trkpt lat="43.6789589" lon="6.6911028"><ele>724.0</ele><time>2026-04-12T08:17:29.024Z</time></trkpt><trkpt lat="43.6789336" lon="6.6909884"><ele>725.0</ele><time>2026-04-12T08:17:32.024Z</time></trkpt><trkpt lat="43.6789214" lon="6.6908617"><ele>726.0</ele><time>2026-04-12T08:17:35.024Z</time></trkpt><trkpt lat="43.6789199" lon="6.6907682"><ele>727.0</ele><time>2026-04-12T08:17:37.024Z</time></trkpt><trkpt lat="43.6789373" lon="6.6906381"><ele>728.0</ele><time>2026-04-12T08:17:40.024Z</time></trkpt><trkpt lat="43.6789636" lon="6.6905578"><ele>729.0</ele><time>2026-04-12T08:17:42.025Z</time></trkpt><trkpt lat="43.6789879" lon="6.6904721"><ele>730.0</ele><time>2026-04-12T08:17:44.024Z</time></trkpt><trkpt lat="43.6790118" lon="6.6903859"><ele>730.0</ele><time>2026-04-12T08:17:46.024Z</time></trkpt><trkpt lat="43.679055" lon="6.6902684"><ele>730.0</ele><time>2026-04-12T08:17:49.024Z</time></trkpt><trkpt lat="43.6790788" lon="6.6901869"><ele>730.0</ele><time>2026-04-12T08:17:51.024Z</time></trkpt><trkpt lat="43.6790889" lon="6.6900935"><ele>730.0</ele><time>2026-04-12T08:17:53.024Z</time></trkpt><trkpt lat="43.6790898" lon="6.6899945"><ele>730.0</ele><time>2026-04-12T08:17:55.024Z</time></trkpt><trkpt lat="43.6790781" lon="6.6899061"><ele>730.0</ele><time>2026-04-12T08:17:57.024Z</time></trkpt><trkpt lat="43.6790466" lon="6.6897953"><ele>730.3333333333334</ele><time>2026-04-12T08:18:00.024Z</time></trkpt><trkpt lat="43.6789911" lon="6.6896916"><ele>730.6666666666667</ele><time>2026-04-12T08:18:03.025Z</time></trkpt><trkpt lat="43.678936" lon="6.6896244"><ele>731.0</ele><time>2026-04-12T08:18:05.025Z</time></trkpt><trkpt lat="43.6788855" lon="6.6895532"><ele>731.3333333333334</ele><time>2026-04-12T08:18:07.025Z</time></trkpt><trkpt lat="43.6788335" lon="6.6894929"><ele>731.6666666666666</ele><time>2026-04-12T08:18:09.025Z</time></trkpt><trkpt lat="43.6787815" lon="6.689414"><ele>732.0</ele><time>2026-04-12T08:18:11.024Z</time></trkpt><trkpt lat="43.6787308" lon="6.6893193"><ele>733.4000000000001</ele><time>2026-04-12T08:18:13.024Z</time></trkpt><trkpt lat="43.6786768" lon="6.6892189"><ele>734.8000000000001</ele><time>2026-04-12T08:18:15.025Z</time></trkpt><trkpt lat="43.6786204" lon="6.6891258"><ele>736.2</ele><time>2026-04-12T08:18:17.025Z</time></trkpt><trkpt lat="43.6785596" lon="6.6890241"><ele>737.6</ele><time>2026-04-12T08:18:19.025Z</time></trkpt><trkpt lat="43.678497" lon="6.6889283"><ele>739.0</ele><time>2026-04-12T08:18:21.025Z</time></trkpt><trkpt lat="43.6784392" lon="6.6888326"><ele>737.2</ele><time>2026-04-12T08:18:23.025Z</time></trkpt><trkpt lat="43.6783797" lon="6.6887297"><ele>735.4000000000001</ele><time>2026-04-12T08:18:25.025Z</time></trkpt><trkpt lat="43.6783199" lon="6.688614"><ele>733.6</ele><time>2026-04-12T08:18:27.025Z</time></trkpt><trkpt lat="43.6782672" lon="6.6884758"><ele>731.8</ele><time>2026-04-12T08:18:29.025Z</time></trkpt><trkpt lat="43.6782469" lon="6.688324"><ele>730.0</ele><time>2026-04-12T08:18:31.025Z</time></trkpt><trkpt lat="43.6782487" lon="6.6881591"><ele>730.0</ele><time>2026-04-12T08:18:33.025Z</time></trkpt><trkpt lat="43.6782673" lon="6.6879987"><ele>730.0</ele><time>2026-04-12T08:18:35.025Z</time></trkpt><trkpt lat="43.6782798" lon="6.6878455"><ele>730.0</ele><time>2026-04-12T08:18:37.025Z</time></trkpt><trkpt lat="43.6782878" lon="6.6876852"><ele>730.0</ele><time>2026-04-12T08:18:39.026Z</time></trkpt><trkpt lat="43.678306" lon="6.6875153"><ele>729.8</ele><time>2026-04-12T08:18:41.025Z</time></trkpt><trkpt lat="43.6783169" lon="6.6874269"><ele>729.6</ele><time>2026-04-12T08:18:42.025Z</time></trkpt><trkpt lat="43.6783342" lon="6.687261"><ele>729.4000000000001</ele><time>2026-04-12T08:18:44.025Z</time></trkpt><trkpt lat="43.6783466" lon="6.6870935"><ele>729.2</ele><time>2026-04-12T08:18:46.025Z</time></trkpt><trkpt lat="43.6783672" lon="6.6869231"><ele>729.0</ele><time>2026-04-12T08:18:48.025Z</time></trkpt><trkpt lat="43.6783883" lon="6.6868401"><ele>729.0</ele><time>2026-04-12T08:18:49.025Z</time></trkpt><trkpt lat="43.678419" lon="6.6867603"><ele>729.0</ele><time>2026-04-12T08:18:50.025Z</time></trkpt><trkpt lat="43.678453" lon="6.6866848"><ele>729.0</ele><time>2026-04-12T08:18:51.025Z</time></trkpt><trkpt lat="43.6784893" lon="6.6866115"><ele>729.0</ele><time>2026-04-12T08:18:52.025Z</time></trkpt><trkpt lat="43.6785286" lon="6.6865346"><ele>729.0</ele><time>2026-04-12T08:18:53.025Z</time></trkpt><trkpt lat="43.678568" lon="6.6864574"><ele>729.0</ele><time>2026-04-12T08:18:54.026Z</time></trkpt><trkpt lat="43.6786052" lon="6.6863801"><ele>729.0</ele><time>2026-04-12T08:18:55.026Z</time></trkpt><trkpt lat="43.6786432" lon="6.6863038"><ele>730.4285714285714</ele><time>2026-04-12T08:18:56.026Z</time></trkpt><trkpt lat="43.6786803" lon="6.686231"><ele>731.8571428571428</ele><time>2026-04-12T08:18:57.026Z</time></trkpt><trkpt lat="43.6787103" lon="6.6861544"><ele>733.2857142857142</ele><time>2026-04-12T08:18:58.026Z</time></trkpt><trkpt lat="43.6787337" lon="6.6860703"><ele>734.7142857142858</ele><time>2026-04-12T08:18:59.027Z</time></trkpt><trkpt lat="43.6787462" lon="6.685977"><ele>736.1428571428571</ele><time>2026-04-12T08:19:00.026Z</time></trkpt><trkpt lat="43.6787523" lon="6.6858813"><ele>737.5714285714286</ele><time>2026-04-12T08:19:01.026Z</time></trkpt><trkpt lat="43.6787486" lon="6.6857896"><ele>739.0</ele><time>2026-04-12T08:19:02.026Z</time></trkpt><trkpt lat="43.6787411" lon="6.6857016"><ele>739.0</ele><time>2026-04-12T08:19:03.026Z</time></trkpt><trkpt lat="43.6787315" lon="6.68561"><ele>739.0</ele><time>2026-04-12T08:19:04.026Z</time></trkpt><trkpt lat="43.6787196" lon="6.6855232"><ele>739.0</ele><time>2026-04-12T08:19:05.026Z</time></trkpt><trkpt lat="43.6787074" lon="6.685434"><ele>739.0</ele><time>2026-04-12T08:19:06.026Z</time></trkpt><trkpt lat="43.6786948" lon="6.6853452"><ele>739.0</ele><time>2026-04-12T08:19:07.026Z</time></trkpt><trkpt lat="43.6786836" lon="6.6852535"><ele>739.0</ele><time>2026-04-12T08:19:08.026Z</time></trkpt><trkpt lat="43.6786729" lon="6.6851618"><ele>739.0</ele><time>2026-04-12T08:19:09.026Z</time></trkpt><trkpt lat="43.6786624" lon="6.6850663"><ele>739.0</ele><time>2026-04-12T08:19:10.027Z</time></trkpt><trkpt lat="43.6786542" lon="6.6849715"><ele>739.0</ele><time>2026-04-12T08:19:11.026Z</time></trkpt><trkpt lat="43.6786457" lon="6.6848794"><ele>739.0</ele><time>2026-04-12T08:19:12.027Z</time></trkpt><trkpt lat="43.6786346" lon="6.6847896"><ele>739.0</ele><time>2026-04-12T08:19:13.026Z</time></trkpt><trkpt lat="43.6786206" lon="6.6847037"><ele>739.0</ele><time>2026-04-12T08:19:14.026Z</time></trkpt><trkpt lat="43.6786078" lon="6.6846157"><ele>739.0</ele><time>2026-04-12T08:19:15.026Z</time></trkpt><trkpt lat="43.6785845" lon="6.6844426"><ele>737.2857142857143</ele><time>2026-04-12T08:19:17.026Z</time></trkpt><trkpt lat="43.6785749" lon="6.6843534"><ele>735.5714285714287</ele><time>2026-04-12T08:19:18.026Z</time></trkpt><trkpt lat="43.6785684" lon="6.6842615"><ele>733.8571428571429</ele><time>2026-04-12T08:19:19.026Z</time></trkpt><trkpt lat="43.678559" lon="6.6841674"><ele>732.1428571428571</ele><time>2026-04-12T08:19:20.026Z</time></trkpt><trkpt lat="43.6785475" lon="6.6840784"><ele>730.4285714285714</ele><time>2026-04-12T08:19:21.026Z</time></trkpt><trkpt lat="43.6785351" lon="6.6839899"><ele>728.7142857142857</ele><time>2026-04-12T08:19:22.026Z</time></trkpt><trkpt lat="43.6785224" lon="6.6838999"><ele>727.0</ele><time>2026-04-12T08:19:23.026Z</time></trkpt><trkpt lat="43.678511" lon="6.6838101"><ele>727.0</ele><time>2026-04-12T08:19:24.027Z</time></trkpt><trkpt lat="43.6784993" lon="6.6837199"><ele>727.0</ele><time>2026-04-12T08:19:25.026Z</time></trkpt><trkpt lat="43.6784886" lon="6.6836299"><ele>727.0</ele><time>2026-04-12T08:19:26.027Z</time></trkpt><trkpt lat="43.6784791" lon="6.6835369"><ele>727.0</ele><time>2026-04-12T08:19:27.026Z</time></trkpt><trkpt lat="43.678468" lon="6.6834502"><ele>727.0</ele><time>2026-04-12T08:19:28.026Z</time></trkpt><trkpt lat="43.6784592" lon="6.6833629"><ele>727.0</ele><time>2026-04-12T08:19:29.026Z</time></trkpt><trkpt lat="43.678442" lon="6.683191"><ele>727.4285714285714</ele><time>2026-04-12T08:19:31.027Z</time></trkpt><trkpt lat="43.6784313" lon="6.6831018"><ele>727.8571428571429</ele><time>2026-04-12T08:19:32.026Z</time></trkpt><trkpt lat="43.6784204" lon="6.6830116"><ele>728.2857142857143</ele><time>2026-04-12T08:19:33.026Z</time></trkpt><trkpt lat="43.6784099" lon="6.6829195"><ele>728.7142857142858</ele><time>2026-04-12T08:19:34.026Z</time></trkpt><trkpt lat="43.6783987" lon="6.6828295"><ele>729.1428571428571</ele><time>2026-04-12T08:19:35.027Z</time></trkpt><trkpt lat="43.6783868" lon="6.6827419"><ele>729.5714285714287</ele><time>2026-04-12T08:19:36.027Z</time></trkpt><trkpt lat="43.6783707" lon="6.6826562"><ele>730.0</ele><time>2026-04-12T08:19:37.027Z</time></trkpt><trkpt lat="43.678329" lon="6.6825051"><ele>730.2</ele><time>2026-04-12T08:19:39.027Z</time></trkpt><trkpt lat="43.6782963" lon="6.6824263"><ele>730.4</ele><time>2026-04-12T08:19:40.027Z</time></trkpt><trkpt lat="43.6782316" lon="6.6822878"><ele>730.5999999999999</ele><time>2026-04-12T08:19:42.027Z</time></trkpt><trkpt lat="43.678158" lon="6.6821733"><ele>730.8</ele><time>2026-04-12T08:19:44.027Z</time></trkpt><trkpt lat="43.6780743" lon="6.6820858"><ele>731.0</ele><time>2026-04-12T08:19:46.027Z</time></trkpt><trkpt lat="43.6779987" lon="6.6820022"><ele>731.4285714285714</ele><time>2026-04-12T08:19:48.027Z</time></trkpt><trkpt lat="43.6779615" lon="6.6819187"><ele>731.8571428571429</ele><time>2026-04-12T08:19:51.027Z</time></trkpt><trkpt lat="43.6780028" lon="6.6818495"><ele>732.2857142857142</ele><time>2026-04-12T08:19:58.027Z</time></trkpt><trkpt lat="43.6780502" lon="6.6817879"><ele>732.7142857142858</ele><time>2026-04-12T08:21:11.061Z</time></trkpt><trkpt lat="43.6780057" lon="6.6818798"><ele>733.1428571428572</ele><time>2026-04-12T08:25:00.136Z</time></trkpt><trkpt lat="43.6779364" lon="6.6819268"><ele>733.5714285714286</ele><time>2026-04-12T08:25:07.174Z</time></trkpt><trkpt lat="43.6778763" lon="6.681857"><ele>734.0</ele><time>2026-04-12T08:25:10.145Z</time></trkpt><trkpt lat="43.6778307" lon="6.6817749"><ele>734.0</ele><time>2026-04-12T08:25:12.124Z</time></trkpt><trkpt lat="43.6777977" lon="6.6816779"><ele>734.0</ele><time>2026-04-12T08:25:14.052Z</time></trkpt><trkpt lat="43.6777324" lon="6.6816038"><ele>734.0</ele><time>2026-04-12T08:25:16.192Z</time></trkpt><trkpt lat="43.6776597" lon="6.6815421"><ele>734.0</ele><time>2026-04-12T08:25:18.095Z</time></trkpt><trkpt lat="43.6775708" lon="6.6814389"><ele>734.0</ele><time>2026-04-12T08:25:20.034Z</time></trkpt><trkpt lat="43.6774929" lon="6.6813391"><ele>734.4000000000001</ele><time>2026-04-12T08:25:22.034Z</time></trkpt><trkpt lat="43.6774169" lon="6.6812378"><ele>734.8</ele><time>2026-04-12T08:25:24.034Z</time></trkpt><trkpt lat="43.6773359" lon="6.6811365"><ele>735.2</ele><time>2026-04-12T08:25:26.034Z</time></trkpt><trkpt lat="43.67726" lon="6.6810412"><ele>735.5999999999999</ele><time>2026-04-12T08:25:28.034Z</time></trkpt><trkpt lat="43.6771888" lon="6.6809532"><ele>736.0</ele><time>2026-04-12T08:25:30.034Z</time></trkpt><trkpt lat="43.6770966" lon="6.6808496"><ele>736.0</ele><time>2026-04-12T08:25:32.034Z</time></trkpt><trkpt lat="43.6770008" lon="6.6807423"><ele>736.0</ele><time>2026-04-12T08:25:34.034Z</time></trkpt><trkpt lat="43.6769073" lon="6.6806216"><ele>736.0</ele><time>2026-04-12T08:25:36.035Z</time></trkpt><trkpt lat="43.6768566" lon="6.680557"><ele>736.0</ele><time>2026-04-12T08:25:37.034Z</time></trkpt><trkpt lat="43.6768019" lon="6.6804989"><ele>736.0</ele><time>2026-04-12T08:25:38.035Z</time></trkpt><trkpt lat="43.6767456" lon="6.6804432"><ele>735.8571428571429</ele><time>2026-04-12T08:25:39.035Z</time></trkpt><trkpt lat="43.6766888" lon="6.6803929"><ele>735.7142857142857</ele><time>2026-04-12T08:25:40.034Z</time></trkpt><trkpt lat="43.6766311" lon="6.6803437"><ele>735.5714285714286</ele><time>2026-04-12T08:25:41.035Z</time></trkpt><trkpt lat="43.6765727" lon="6.6802977"><ele>735.4285714285714</ele><time>2026-04-12T08:25:42.034Z</time></trkpt><trkpt lat="43.6765121" lon="6.6802536"><ele>735.2857142857142</ele><time>2026-04-12T08:25:43.034Z</time></trkpt><trkpt lat="43.676451" lon="6.6802134"><ele>735.1428571428571</ele><time>2026-04-12T08:25:44.034Z</time></trkpt><trkpt lat="43.6763903" lon="6.6801721"><ele>735.0</ele><time>2026-04-12T08:25:45.035Z</time></trkpt><trkpt lat="43.6763303" lon="6.6801289"><ele>735.0</ele><time>2026-04-12T08:25:46.034Z</time></trkpt><trkpt lat="43.6762699" lon="6.6800869"><ele>735.0</ele><time>2026-04-12T08:25:47.034Z</time></trkpt><trkpt lat="43.6762091" lon="6.6800439"><ele>735.0</ele><time>2026-04-12T08:25:48.034Z</time></trkpt><trkpt lat="43.6761481" lon="6.6800019"><ele>735.0</ele><time>2026-04-12T08:25:49.034Z</time></trkpt><trkpt lat="43.6760858" lon="6.6799635"><ele>735.0</ele><time>2026-04-12T08:25:50.035Z</time></trkpt><trkpt lat="43.6760228" lon="6.6799309"><ele>735.0</ele><time>2026-04-12T08:25:51.035Z</time></trkpt><trkpt lat="43.6759579" lon="6.6799054"><ele>735.0</ele><time>2026-04-12T08:25:52.035Z</time></trkpt><trkpt lat="43.6758915" lon="6.6798913"><ele>735.0</ele><time>2026-04-12T08:25:53.035Z</time></trkpt><trkpt lat="43.6758253" lon="6.6798843"><ele>735.0</ele><time>2026-04-12T08:25:54.035Z</time></trkpt><trkpt lat="43.6757615" lon="6.6798796"><ele>735.0</ele><time>2026-04-12T08:25:55.035Z</time></trkpt><trkpt lat="43.6756429" lon="6.6798753"><ele>735.0</ele><time>2026-04-12T08:25:57.035Z</time></trkpt><trkpt lat="43.6755239" lon="6.6798766"><ele>735.0</ele><time>2026-04-12T08:25:59.035Z</time></trkpt><trkpt lat="43.6754211" lon="6.6798758"><ele>735.0</ele><time>2026-04-12T08:26:01.035Z</time></trkpt><trkpt lat="43.6753305" lon="6.6798674"><ele>735.0</ele><time>2026-04-12T08:26:03.035Z</time></trkpt><trkpt lat="43.6752344" lon="6.6798582"><ele>735.0</ele><time>2026-04-12T08:26:05.035Z</time></trkpt><trkpt lat="43.6751407" lon="6.6798326"><ele>735.0</ele><time>2026-04-12T08:26:07.035Z</time></trkpt><trkpt lat="43.675052" lon="6.6797783"><ele>735.0</ele><time>2026-04-12T08:26:09.035Z</time></trkpt><trkpt lat="43.6749761" lon="6.6797078"><ele>735.8333333333334</ele><time>2026-04-12T08:26:11.035Z</time></trkpt><trkpt lat="43.6749083" lon="6.6796299"><ele>736.6666666666666</ele><time>2026-04-12T08:26:13.035Z</time></trkpt><trkpt lat="43.6748465" lon="6.679554"><ele>737.5</ele><time>2026-04-12T08:26:15.035Z</time></trkpt><trkpt lat="43.6747826" lon="6.6794793"><ele>738.3333333333333</ele><time>2026-04-12T08:26:17.035Z</time></trkpt><trkpt lat="43.6747203" lon="6.6794636"><ele>739.1666666666666</ele><time>2026-04-12T08:26:20.135Z</time></trkpt><trkpt lat="43.6746767" lon="6.6793614"><ele>740.0</ele><time>2026-04-12T08:26:21.125Z</time></trkpt><trkpt lat="43.6746076" lon="6.6792637"><ele>740.1666666666666</ele><time>2026-04-12T08:26:23.063Z</time></trkpt><trkpt lat="43.6745399" lon="6.6791921"><ele>740.3333333333333</ele><time>2026-04-12T08:26:25.194Z</time></trkpt><trkpt lat="43.6744799" lon="6.6791183"><ele>740.5</ele><time>2026-04-12T08:26:27.142Z</time></trkpt><trkpt lat="43.6744209" lon="6.6790551"><ele>740.6666666666666</ele><time>2026-04-12T08:26:29.138Z</time></trkpt><trkpt lat="43.6743658" lon="6.6789931"><ele>740.8333333333334</ele><time>2026-04-12T08:26:31.133Z</time></trkpt><trkpt lat="43.6742851" lon="6.6788912"><ele>741.0</ele><time>2026-04-12T08:26:34.096Z</time></trkpt><trkpt lat="43.6742292" lon="6.6788245"><ele>741.7142857142857</ele><time>2026-04-12T08:26:36.183Z</time></trkpt><trkpt lat="43.674179" lon="6.6787643"><ele>742.4285714285714</ele><time>2026-04-12T08:26:38.171Z</time></trkpt><trkpt lat="43.6741235" lon="6.6787067"><ele>743.1428571428571</ele><time>2026-04-12T08:26:40.151Z</time></trkpt><trkpt lat="43.6740694" lon="6.6786453"><ele>743.8571428571429</ele><time>2026-04-12T08:26:42.132Z</time></trkpt><trkpt lat="43.6740126" lon="6.6785844"><ele>744.5714285714287</ele><time>2026-04-12T08:26:44.11Z</time></trkpt><trkpt lat="43.6739571" lon="6.678532"><ele>745.2857142857143</ele><time>2026-04-12T08:26:46.176Z</time></trkpt><trkpt lat="43.6739093" lon="6.6784739"><ele>746.0</ele><time>2026-04-12T08:26:48.135Z</time></trkpt><trkpt lat="43.6738519" lon="6.6784075"><ele>746.3333333333333</ele><time>2026-04-12T08:26:50.152Z</time></trkpt><trkpt lat="43.6737979" lon="6.6783358"><ele>746.6666666666666</ele><time>2026-04-12T08:26:52.139Z</time></trkpt><trkpt lat="43.67374" lon="6.6782604"><ele>747.0</ele><time>2026-04-12T08:26:54.228Z</time></trkpt><trkpt lat="43.6736829" lon="6.6781902"><ele>747.3333333333334</ele><time>2026-04-12T08:26:56.208Z</time></trkpt><trkpt lat="43.6736223" lon="6.678128"><ele>747.6666666666667</ele><time>2026-04-12T08:26:58.188Z</time></trkpt><trkpt lat="43.6735649" lon="6.678059"><ele>748.0</ele><time>2026-04-12T08:27:00.133Z</time></trkpt><trkpt lat="43.6735143" lon="6.67799"><ele>749.0</ele><time>2026-04-12T08:27:02.147Z</time></trkpt><trkpt lat="43.673461" lon="6.677916"><ele>750.0</ele><time>2026-04-12T08:27:04.127Z</time></trkpt><trkpt lat="43.673404" lon="6.6778532"><ele>751.0</ele><time>2026-04-12T08:27:06.107Z</time></trkpt><trkpt lat="43.6733449" lon="6.6777945"><ele>752.0</ele><time>2026-04-12T08:27:08.197Z</time></trkpt><trkpt lat="43.6732896" lon="6.6777383"><ele>753.0</ele><time>2026-04-12T08:27:10.175Z</time></trkpt><trkpt lat="43.6732368" lon="6.677682"><ele>754.0</ele><time>2026-04-12T08:27:12.155Z</time></trkpt><trkpt lat="43.6731875" lon="6.6776245"><ele>755.0</ele><time>2026-04-12T08:27:14.135Z</time></trkpt><trkpt lat="43.6731373" lon="6.6775626"><ele>755.0</ele><time>2026-04-12T08:27:16.224Z</time></trkpt><trkpt lat="43.6730905" lon="6.6775026"><ele>755.0</ele><time>2026-04-12T08:27:18.204Z</time></trkpt><trkpt lat="43.6730449" lon="6.6774411"><ele>755.0</ele><time>2026-04-12T08:27:20.184Z</time></trkpt><trkpt lat="43.6729961" lon="6.6773823"><ele>755.0</ele><time>2026-04-12T08:27:22.222Z</time></trkpt><trkpt lat="43.6729265" lon="6.677304"><ele>755.0</ele><time>2026-04-12T08:27:25.133Z</time></trkpt><trkpt lat="43.6728707" lon="6.6772399"><ele>755.0</ele><time>2026-04-12T08:27:27.484Z</time></trkpt><trkpt lat="43.6728123" lon="6.6771713"><ele>755.0</ele><time>2026-04-12T08:27:29.996Z</time></trkpt><trkpt lat="43.6727323" lon="6.6771096"><ele>756.1666666666666</ele><time>2026-04-12T08:27:33.1Z</time></trkpt><trkpt lat="43.6726593" lon="6.6770779"><ele>757.3333333333333</ele><time>2026-04-12T08:27:36.097Z</time></trkpt><trkpt lat="43.672582" lon="6.6770557"><ele>758.5</ele><time>2026-04-12T08:27:39.1Z</time></trkpt><trkpt lat="43.6724938" lon="6.6770659"><ele>759.6666666666666</ele><time>2026-04-12T08:27:42.12Z</time></trkpt><trkpt lat="43.6724069" lon="6.6771089"><ele>760.8333333333334</ele><time>2026-04-12T08:27:45.149Z</time></trkpt><trkpt lat="43.6723186" lon="6.6771642"><ele>762.0</ele><time>2026-04-12T08:27:48.212Z</time></trkpt><trkpt lat="43.6722511" lon="6.6771932"><ele>762.0</ele><time>2026-04-12T08:27:50.574Z</time></trkpt><trkpt lat="43.6721818" lon="6.6772336"><ele>762.0</ele><time>2026-04-12T08:27:53.179Z</time></trkpt><trkpt lat="43.6721021" lon="6.6772883"><ele>762.0</ele><time>2026-04-12T08:27:56.147Z</time></trkpt><trkpt lat="43.6720249" lon="6.6773538"><ele>762.0</ele><time>2026-04-12T08:27:59.176Z</time></trkpt><trkpt lat="43.6719552" lon="6.677428"><ele>762.0</ele><time>2026-04-12T08:28:02.196Z</time></trkpt><trkpt lat="43.6719071" lon="6.6774915"><ele>762.0</ele><time>2026-04-12T08:28:04.134Z</time></trkpt><trkpt lat="43.67187" lon="6.6775715"><ele>763.1666666666666</ele><time>2026-04-12T08:28:06.157Z</time></trkpt><trkpt lat="43.6718453" lon="6.6776571"><ele>764.3333333333333</ele><time>2026-04-12T08:28:08.135Z</time></trkpt><trkpt lat="43.6718249" lon="6.677743"><ele>765.5</ele><time>2026-04-12T08:28:10.116Z</time></trkpt><trkpt lat="43.6718098" lon="6.6778326"><ele>766.6666666666666</ele><time>2026-04-12T08:28:12.205Z</time></trkpt><trkpt lat="43.6717836" lon="6.6779545"><ele>767.8333333333333</ele><time>2026-04-12T08:28:15.175Z</time></trkpt><trkpt lat="43.671762" lon="6.6780812"><ele>769.0</ele><time>2026-04-12T08:28:18.174Z</time></trkpt><trkpt lat="43.67174" lon="6.6782"><ele>769.3333333333333</ele><time>2026-04-12T08:28:21.113Z</time></trkpt><trkpt lat="43.6717254" lon="6.6783207"><ele>769.6666666666666</ele><time>2026-04-12T08:28:24.192Z</time></trkpt><trkpt lat="43.6717032" lon="6.6784428"><ele>770.0</ele><time>2026-04-12T08:28:27.119Z</time></trkpt><trkpt lat="43.6716906" lon="6.678565"><ele>770.3333333333333</ele><time>2026-04-12T08:28:30.132Z</time></trkpt><trkpt lat="43.671672" lon="6.6786889"><ele>770.6666666666666</ele><time>2026-04-12T08:28:33.165Z</time></trkpt><trkpt lat="43.6716451" lon="6.6788013"><ele>771.0</ele><time>2026-04-12T08:28:36.181Z</time></trkpt><trkpt lat="43.6716137" lon="6.6789112"><ele>771.1666666666666</ele><time>2026-04-12T08:28:39.15Z</time></trkpt><trkpt lat="43.6715517" lon="6.6790041"><ele>771.3333333333333</ele><time>2026-04-12T08:28:42.147Z</time></trkpt><trkpt lat="43.6714724" lon="6.679062"><ele>771.5</ele><time>2026-04-12T08:28:45.199Z</time></trkpt><trkpt lat="43.6713874" lon="6.6790949"><ele>771.6666666666666</ele><time>2026-04-12T08:28:48.155Z</time></trkpt><trkpt lat="43.6713018" lon="6.6791393"><ele>771.8333333333333</ele><time>2026-04-12T08:28:51.138Z</time></trkpt><trkpt lat="43.6712408" lon="6.6791698"><ele>772.0</ele><time>2026-04-12T08:28:53.118Z</time></trkpt><trkpt lat="43.6711758" lon="6.6791968"><ele>771.9999999999999</ele><time>2026-04-12T08:28:55.124Z</time></trkpt><trkpt lat="43.6711104" lon="6.6792281"><ele>772.0</ele><time>2026-04-12T08:28:57.187Z</time></trkpt><trkpt lat="43.6710275" lon="6.6792689"><ele>772.0</ele><time>2026-04-12T08:28:59.167Z</time></trkpt><trkpt lat="43.6709482" lon="6.6793054"><ele>772.0</ele><time>2026-04-12T08:29:01.148Z</time></trkpt><trkpt lat="43.6708724" lon="6.6793469"><ele>771.9999999999999</ele><time>2026-04-12T08:29:03.141Z</time></trkpt><trkpt lat="43.6708032" lon="6.6793814"><ele>772.0</ele><time>2026-04-12T08:29:05.106Z</time></trkpt><trkpt lat="43.670731" lon="6.6794105"><ele>772.9999999999999</ele><time>2026-04-12T08:29:07.197Z</time></trkpt><trkpt lat="43.6706656" lon="6.6794421"><ele>774.0</ele><time>2026-04-12T08:29:09.175Z</time></trkpt><trkpt lat="43.6705968" lon="6.6794694"><ele>775.0</ele><time>2026-04-12T08:29:11.155Z</time></trkpt><trkpt lat="43.6705278" lon="6.6794877"><ele>776.0</ele><time>2026-04-12T08:29:13.135Z</time></trkpt><trkpt lat="43.6704566" lon="6.6794933"><ele>776.9999999999999</ele><time>2026-04-12T08:29:15.224Z</time></trkpt><trkpt lat="43.6703505" lon="6.6794724"><ele>778.0</ele><time>2026-04-12T08:29:18.015Z</time></trkpt><trkpt lat="43.6702737" lon="6.6794389"><ele>778.2</ele><time>2026-04-12T08:29:20.174Z</time></trkpt><trkpt lat="43.6701973" lon="6.6793905"><ele>778.4</ele><time>2026-04-12T08:29:22.157Z</time></trkpt><trkpt lat="43.6701276" lon="6.6793257"><ele>778.6</ele><time>2026-04-12T08:29:24.133Z</time></trkpt><trkpt lat="43.6700437" lon="6.6792539"><ele>778.8000000000001</ele><time>2026-04-12T08:29:26.039Z</time></trkpt><trkpt lat="43.6699508" lon="6.6791739"><ele>779.0</ele><time>2026-04-12T08:29:28.039Z</time></trkpt><trkpt lat="43.6698586" lon="6.6790878"><ele>779.0000000000001</ele><time>2026-04-12T08:29:30.039Z</time></trkpt><trkpt lat="43.669747" lon="6.6789958"><ele>779.0</ele><time>2026-04-12T08:29:32.039Z</time></trkpt><trkpt lat="43.6696869" lon="6.6789408"><ele>779.0</ele><time>2026-04-12T08:29:33.04Z</time></trkpt><trkpt lat="43.6696251" lon="6.6788828"><ele>779.0</ele><time>2026-04-12T08:29:34.04Z</time></trkpt><trkpt lat="43.6695611" lon="6.6788162"><ele>779.0000000000001</ele><time>2026-04-12T08:29:35.039Z</time></trkpt><trkpt lat="43.6694992" lon="6.6787362"><ele>779.0</ele><time>2026-04-12T08:29:36.041Z</time></trkpt><trkpt lat="43.6694443" lon="6.6786423"><ele>778.0</ele><time>2026-04-12T08:29:37.039Z</time></trkpt><trkpt lat="43.6693933" lon="6.6785398"><ele>777.0</ele><time>2026-04-12T08:29:38.04Z</time></trkpt><trkpt lat="43.6693521" lon="6.6784205"><ele>776.0</ele><time>2026-04-12T08:29:39.039Z</time></trkpt><trkpt lat="43.6693114" lon="6.6782998"><ele>775.0</ele><time>2026-04-12T08:29:40.04Z</time></trkpt><trkpt lat="43.6692701" lon="6.6781795"><ele>774.0</ele><time>2026-04-12T08:29:41.04Z</time></trkpt><trkpt lat="43.6692293" lon="6.6780528"><ele>774.0</ele><time>2026-04-12T08:29:42.039Z</time></trkpt><trkpt lat="43.669185" lon="6.6779293"><ele>774.0</ele><time>2026-04-12T08:29:43.04Z</time></trkpt><trkpt lat="43.669133" lon="6.6778044"><ele>774.0</ele><time>2026-04-12T08:29:44.04Z</time></trkpt><trkpt lat="43.669066" lon="6.677689"><ele>774.0</ele><time>2026-04-12T08:29:45.04Z</time></trkpt><trkpt lat="43.6689912" lon="6.6775868"><ele>774.0</ele><time>2026-04-12T08:29:46.041Z</time></trkpt><trkpt lat="43.6689127" lon="6.6774994"><ele>775.0</ele><time>2026-04-12T08:29:47.04Z</time></trkpt><trkpt lat="43.6688241" lon="6.677456"><ele>776.0</ele><time>2026-04-12T08:29:48.04Z</time></trkpt><trkpt lat="43.6687376" lon="6.6774226"><ele>777.0</ele><time>2026-04-12T08:29:49.04Z</time></trkpt><trkpt lat="43.668655" lon="6.6774171"><ele>778.0</ele><time>2026-04-12T08:29:50.04Z</time></trkpt><trkpt lat="43.6685926" lon="6.6774422"><ele>779.0</ele><time>2026-04-12T08:29:51.04Z</time></trkpt><trkpt lat="43.6685541" lon="6.6775386"><ele>780.0</ele><time>2026-04-12T08:29:52.04Z</time></trkpt><trkpt lat="43.6685569" lon="6.6777047"><ele>774.75</ele><time>2026-04-12T08:29:53.04Z</time></trkpt><trkpt lat="43.6685569" lon="6.6778773"><ele>769.5</ele><time>2026-04-12T08:29:54.04Z</time></trkpt><trkpt lat="43.6685683" lon="6.6780432"><ele>764.25</ele><time>2026-04-12T08:29:55.04Z</time></trkpt><trkpt lat="43.6685779" lon="6.678215"><ele>759.0</ele><time>2026-04-12T08:29:56.04Z</time></trkpt><trkpt lat="43.6685885" lon="6.678379"><ele>759.0</ele><time>2026-04-12T08:29:57.04Z</time></trkpt><trkpt lat="43.6685993" lon="6.6785347"><ele>759.0</ele><time>2026-04-12T08:29:58.04Z</time></trkpt><trkpt lat="43.668609" lon="6.6786927"><ele>759.0</ele><time>2026-04-12T08:29:59.041Z</time></trkpt><trkpt lat="43.6686079" lon="6.6788531"><ele>759.0</ele><time>2026-04-12T08:30:00.04Z</time></trkpt><trkpt lat="43.668592" lon="6.6790145"><ele>758.75</ele><time>2026-04-12T08:30:01.041Z</time></trkpt><trkpt lat="43.6685518" lon="6.6791674"><ele>758.5</ele><time>2026-04-12T08:30:02.04Z</time></trkpt><trkpt lat="43.6684943" lon="6.6793125"><ele>758.25</ele><time>2026-04-12T08:30:03.04Z</time></trkpt><trkpt lat="43.6684221" lon="6.6794475"><ele>758.0</ele><time>2026-04-12T08:30:04.04Z</time></trkpt><trkpt lat="43.6683392" lon="6.6795741"><ele>757.75</ele><time>2026-04-12T08:30:05.041Z</time></trkpt><trkpt lat="43.6682506" lon="6.6796997"><ele>757.5</ele><time>2026-04-12T08:30:06.04Z</time></trkpt><trkpt lat="43.6681649" lon="6.6798277"><ele>757.25</ele><time>2026-04-12T08:30:07.04Z</time></trkpt><trkpt lat="43.6680878" lon="6.6799563"><ele>757.0</ele><time>2026-04-12T08:30:08.04Z</time></trkpt><trkpt lat="43.6680171" lon="6.6800813"><ele>757.0</ele><time>2026-04-12T08:30:09.041Z</time></trkpt><trkpt lat="43.667967" lon="6.6801859"><ele>757.0</ele><time>2026-04-12T08:30:10.04Z</time></trkpt><trkpt lat="43.6679184" lon="6.6802593"><ele>757.0</ele><time>2026-04-12T08:30:11.04Z</time></trkpt><trkpt lat="43.6678594" lon="6.6802975"><ele>757.0</ele><time>2026-04-12T08:30:12.04Z</time></trkpt><trkpt lat="43.6677941" lon="6.6802973"><ele>757.0</ele><time>2026-04-12T08:30:13.04Z</time></trkpt><trkpt lat="43.6677321" lon="6.6802591"><ele>757.0</ele><time>2026-04-12T08:30:14.04Z</time></trkpt><trkpt lat="43.6676822" lon="6.6801943"><ele>757.0</ele><time>2026-04-12T08:30:15.04Z</time></trkpt><trkpt lat="43.6676364" lon="6.6801257"><ele>757.1428571428572</ele><time>2026-04-12T08:30:16.04Z</time></trkpt><trkpt lat="43.6675932" lon="6.6800541"><ele>757.2857142857142</ele><time>2026-04-12T08:30:17.041Z</time></trkpt><trkpt lat="43.6675515" lon="6.6799757"><ele>757.4285714285714</ele><time>2026-04-12T08:30:18.04Z</time></trkpt><trkpt lat="43.6675101" lon="6.6798912"><ele>757.5714285714287</ele><time>2026-04-12T08:30:19.041Z</time></trkpt><trkpt lat="43.6674654" lon="6.679807"><ele>757.7142857142858</ele><time>2026-04-12T08:30:20.041Z</time></trkpt><trkpt lat="43.6674148" lon="6.679723"><ele>757.8571428571429</ele><time>2026-04-12T08:30:21.041Z</time></trkpt><trkpt lat="43.6673625" lon="6.6796389"><ele>758.0</ele><time>2026-04-12T08:30:22.041Z</time></trkpt><trkpt lat="43.6673081" lon="6.6795499"><ele>758.0</ele><time>2026-04-12T08:30:23.041Z</time></trkpt><trkpt lat="43.6672528" lon="6.6794575"><ele>758.0</ele><time>2026-04-12T08:30:24.04Z</time></trkpt><trkpt lat="43.6671986" lon="6.6793612"><ele>758.0</ele><time>2026-04-12T08:30:25.042Z</time></trkpt><trkpt lat="43.6671424" lon="6.6792532"><ele>758.0</ele><time>2026-04-12T08:30:26.041Z</time></trkpt><trkpt lat="43.6670815" lon="6.6791352"><ele>758.0</ele><time>2026-04-12T08:30:27.041Z</time></trkpt><trkpt lat="43.66701" lon="6.6790165"><ele>758.75</ele><time>2026-04-12T08:30:28.041Z</time></trkpt><trkpt lat="43.6669342" lon="6.6788983"><ele>759.5</ele><time>2026-04-12T08:30:29.042Z</time></trkpt><trkpt lat="43.666851" lon="6.6787875"><ele>760.25</ele><time>2026-04-12T08:30:30.041Z</time></trkpt><trkpt lat="43.6667632" lon="6.6786808"><ele>761.0</ele><time>2026-04-12T08:30:31.041Z</time></trkpt><trkpt lat="43.666672" lon="6.6785766"><ele>756.75</ele><time>2026-04-12T08:30:32.041Z</time></trkpt><trkpt lat="43.6665785" lon="6.6784716"><ele>752.5</ele><time>2026-04-12T08:30:33.041Z</time></trkpt><trkpt lat="43.6664769" lon="6.6783672"><ele>748.25</ele><time>2026-04-12T08:30:34.041Z</time></trkpt><trkpt lat="43.6663741" lon="6.6782663"><ele>744.0</ele><time>2026-04-12T08:30:35.041Z</time></trkpt><trkpt lat="43.6662706" lon="6.6781675"><ele>744.0</ele><time>2026-04-12T08:30:36.041Z</time></trkpt><trkpt lat="43.666167" lon="6.6780711"><ele>744.0</ele><time>2026-04-12T08:30:37.041Z</time></trkpt><trkpt lat="43.666064" lon="6.677975"><ele>744.0</ele><time>2026-04-12T08:30:38.041Z</time></trkpt><trkpt lat="43.6659617" lon="6.6778767"><ele>744.0</ele><time>2026-04-12T08:30:39.041Z</time></trkpt><trkpt lat="43.6658593" lon="6.6777768"><ele>743.0</ele><time>2026-04-12T08:30:40.041Z</time></trkpt><trkpt lat="43.665759" lon="6.6776738"><ele>742.0</ele><time>2026-04-12T08:30:41.042Z</time></trkpt><trkpt lat="43.6656588" lon="6.6775697"><ele>741.0</ele><time>2026-04-12T08:30:42.041Z</time></trkpt><trkpt lat="43.6655585" lon="6.677467"><ele>740.0</ele><time>2026-04-12T08:30:43.041Z</time></trkpt><trkpt lat="43.6654596" lon="6.6773646"><ele>740.0</ele><time>2026-04-12T08:30:44.041Z</time></trkpt><trkpt lat="43.6653691" lon="6.6772549"><ele>740.0</ele><time>2026-04-12T08:30:45.041Z</time></trkpt><trkpt lat="43.665284" lon="6.6771402"><ele>740.0</ele><time>2026-04-12T08:30:46.041Z</time></trkpt><trkpt lat="43.6652055" lon="6.6770289"><ele>740.0</ele><time>2026-04-12T08:30:47.041Z</time></trkpt><trkpt lat="43.6651327" lon="6.6769202"><ele>740.6</ele><time>2026-04-12T08:30:48.041Z</time></trkpt><trkpt lat="43.6650626" lon="6.6768101"><ele>741.2</ele><time>2026-04-12T08:30:49.041Z</time></trkpt><trkpt lat="43.6649949" lon="6.6767018"><ele>741.8</ele><time>2026-04-12T08:30:50.041Z</time></trkpt><trkpt lat="43.6649281" lon="6.6765941"><ele>742.4</ele><time>2026-04-12T08:30:51.041Z</time></trkpt><trkpt lat="43.6648608" lon="6.6764864"><ele>743.0</ele><time>2026-04-12T08:30:52.042Z</time></trkpt><trkpt lat="43.6647941" lon="6.6763788"><ele>743.0</ele><time>2026-04-12T08:30:53.041Z</time></trkpt><trkpt lat="43.6647294" lon="6.6762709"><ele>743.0</ele><time>2026-04-12T08:30:54.041Z</time></trkpt><trkpt lat="43.6646665" lon="6.6761613"><ele>743.0</ele><time>2026-04-12T08:30:55.041Z</time></trkpt><trkpt lat="43.6646075" lon="6.6760495"><ele>743.0</ele><time>2026-04-12T08:30:56.041Z</time></trkpt><trkpt lat="43.6645509" lon="6.6759385"><ele>743.0</ele><time>2026-04-12T08:30:57.041Z</time></trkpt><trkpt lat="43.6644983" lon="6.6758231"><ele>742.5999999999999</ele><time>2026-04-12T08:30:58.042Z</time></trkpt><trkpt lat="43.6644483" lon="6.6757081"><ele>742.1999999999999</ele><time>2026-04-12T08:30:59.041Z</time></trkpt><trkpt lat="43.6643991" lon="6.6755869"><ele>741.8</ele><time>2026-04-12T08:31:00.042Z</time></trkpt><trkpt lat="43.6643488" lon="6.6754664"><ele>741.4</ele><time>2026-04-12T08:31:01.042Z</time></trkpt><trkpt lat="43.6642952" lon="6.6753451"><ele>741.0</ele><time>2026-04-12T08:31:02.041Z</time></trkpt><trkpt lat="43.6642389" lon="6.6752238"><ele>741.0</ele><time>2026-04-12T08:31:03.043Z</time></trkpt><trkpt lat="43.6641814" lon="6.6750985"><ele>741.0</ele><time>2026-04-12T08:31:04.041Z</time></trkpt><trkpt lat="43.6641264" lon="6.6749685"><ele>741.0</ele><time>2026-04-12T08:31:05.041Z</time></trkpt><trkpt lat="43.6640723" lon="6.6748348"><ele>741.0</ele><time>2026-04-12T08:31:06.042Z</time></trkpt><trkpt lat="43.6640179" lon="6.6747012"><ele>741.0</ele><time>2026-04-12T08:31:07.041Z</time></trkpt><trkpt lat="43.6639605" lon="6.6745717"><ele>741.0</ele><time>2026-04-12T08:31:08.042Z</time></trkpt><trkpt lat="43.6638972" lon="6.6744492"><ele>741.0</ele><time>2026-04-12T08:31:09.041Z</time></trkpt><trkpt lat="43.6638297" lon="6.674334"><ele>741.0</ele><time>2026-04-12T08:31:10.041Z</time></trkpt><trkpt lat="43.6637598" lon="6.674224"><ele>741.0</ele><time>2026-04-12T08:31:11.042Z</time></trkpt><trkpt lat="43.6636895" lon="6.6741159"><ele>741.0</ele><time>2026-04-12T08:31:12.042Z</time></trkpt><trkpt lat="43.6636185" lon="6.6740089"><ele>742.0</ele><time>2026-04-12T08:31:13.042Z</time></trkpt><trkpt lat="43.6635429" lon="6.6739085"><ele>743.0</ele><time>2026-04-12T08:31:14.041Z</time></trkpt><trkpt lat="43.6634643" lon="6.6738132"><ele>744.0</ele><time>2026-04-12T08:31:15.041Z</time></trkpt><trkpt lat="43.6633807" lon="6.6737197"><ele>745.0</ele><time>2026-04-12T08:31:16.042Z</time></trkpt><trkpt lat="43.6632999" lon="6.6736155"><ele>746.0</ele><time>2026-04-12T08:31:17.042Z</time></trkpt><trkpt lat="43.6632253" lon="6.6735"><ele>743.1999999999999</ele><time>2026-04-12T08:31:18.042Z</time></trkpt><trkpt lat="43.6631562" lon="6.6733773"><ele>740.4</ele><time>2026-04-12T08:31:19.042Z</time></trkpt><trkpt lat="43.6630889" lon="6.6732527"><ele>737.6</ele><time>2026-04-12T08:31:20.042Z</time></trkpt><trkpt lat="43.6630258" lon="6.6731289"><ele>734.8</ele><time>2026-04-12T08:31:21.042Z</time></trkpt><trkpt lat="43.6629655" lon="6.6730053"><ele>732.0</ele><time>2026-04-12T08:31:22.042Z</time></trkpt><trkpt lat="43.6629076" lon="6.672881"><ele>733.0</ele><time>2026-04-12T08:31:23.043Z</time></trkpt><trkpt lat="43.6628521" lon="6.6727556"><ele>734.0</ele><time>2026-04-12T08:31:24.042Z</time></trkpt><trkpt lat="43.6628032" lon="6.6726274"><ele>735.0</ele><time>2026-04-12T08:31:25.042Z</time></trkpt><trkpt lat="43.6627548" lon="6.6724977"><ele>736.0</ele><time>2026-04-12T08:31:26.042Z</time></trkpt><trkpt lat="43.6627053" lon="6.6723647"><ele>737.0</ele><time>2026-04-12T08:31:27.043Z</time></trkpt><trkpt lat="43.6626547" lon="6.6722256"><ele>737.0</ele><time>2026-04-12T08:31:28.042Z</time></trkpt><trkpt lat="43.6626046" lon="6.6720833"><ele>737.0</ele><time>2026-04-12T08:31:29.042Z</time></trkpt><trkpt lat="43.6625559" lon="6.6719384"><ele>737.0</ele><time>2026-04-12T08:31:30.042Z</time></trkpt><trkpt lat="43.662499" lon="6.6717957"><ele>737.0</ele><time>2026-04-12T08:31:31.042Z</time></trkpt><trkpt lat="43.6624296" lon="6.6716673"><ele>735.8</ele><time>2026-04-12T08:31:32.043Z</time></trkpt><trkpt lat="43.6623476" lon="6.6715563"><ele>734.6</ele><time>2026-04-12T08:31:33.042Z</time></trkpt><trkpt lat="43.6622581" lon="6.6714636"><ele>733.4</ele><time>2026-04-12T08:31:34.042Z</time></trkpt><trkpt lat="43.662167" lon="6.671383"><ele>732.1999999999999</ele><time>2026-04-12T08:31:35.042Z</time></trkpt><trkpt lat="43.6620702" lon="6.6713161"><ele>731.0</ele><time>2026-04-12T08:31:36.042Z</time></trkpt><trkpt lat="43.6619705" lon="6.6712684"><ele>730.5999999999999</ele><time>2026-04-12T08:31:37.042Z</time></trkpt><trkpt lat="43.6618676" lon="6.6712435"><ele>730.2</ele><time>2026-04-12T08:31:38.042Z</time></trkpt><trkpt lat="43.6617638" lon="6.6712426"><ele>729.8</ele><time>2026-04-12T08:31:39.042Z</time></trkpt><trkpt lat="43.6616609" lon="6.6712616"><ele>729.4000000000001</ele><time>2026-04-12T08:31:40.042Z</time></trkpt><trkpt lat="43.6615577" lon="6.6712972"><ele>729.0</ele><time>2026-04-12T08:31:41.042Z</time></trkpt><trkpt lat="43.6614523" lon="6.6713458"><ele>729.0</ele><time>2026-04-12T08:31:42.042Z</time></trkpt><trkpt lat="43.661343" lon="6.6714017"><ele>729.0</ele><time>2026-04-12T08:31:43.042Z</time></trkpt><trkpt lat="43.6612299" lon="6.6714603"><ele>729.0</ele><time>2026-04-12T08:31:44.042Z</time></trkpt><trkpt lat="43.6611133" lon="6.6715162"><ele>729.0</ele><time>2026-04-12T08:31:45.042Z</time></trkpt><trkpt lat="43.6609939" lon="6.6715704"><ele>727.75</ele><time>2026-04-12T08:31:46.042Z</time></trkpt><trkpt lat="43.660874" lon="6.671623"><ele>726.5</ele><time>2026-04-12T08:31:47.043Z</time></trkpt><trkpt lat="43.6607538" lon="6.6716755"><ele>725.25</ele><time>2026-04-12T08:31:48.043Z</time></trkpt><trkpt lat="43.6606334" lon="6.6717292"><ele>724.0</ele><time>2026-04-12T08:31:49.042Z</time></trkpt><trkpt lat="43.6605129" lon="6.6717806"><ele>724.0</ele><time>2026-04-12T08:31:50.043Z</time></trkpt><trkpt lat="43.6603912" lon="6.6718232"><ele>724.0</ele><time>2026-04-12T08:31:51.043Z</time></trkpt><trkpt lat="43.6602685" lon="6.6718486"><ele>724.0</ele><time>2026-04-12T08:31:52.043Z</time></trkpt><trkpt lat="43.6601455" lon="6.6718545"><ele>724.0</ele><time>2026-04-12T08:31:53.042Z</time></trkpt><trkpt lat="43.6600218" lon="6.6718476"><ele>723.0</ele><time>2026-04-12T08:31:54.043Z</time></trkpt><trkpt lat="43.6598993" lon="6.6718321"><ele>722.0</ele><time>2026-04-12T08:31:55.042Z</time></trkpt><trkpt lat="43.6597795" lon="6.6718137"><ele>721.0</ele><time>2026-04-12T08:31:56.043Z</time></trkpt><trkpt lat="43.6596597" lon="6.6717943"><ele>720.0</ele><time>2026-04-12T08:31:57.043Z</time></trkpt><trkpt lat="43.6595423" lon="6.6717754"><ele>719.75</ele><time>2026-04-12T08:31:58.043Z</time></trkpt><trkpt lat="43.6594252" lon="6.6717544"><ele>719.5</ele><time>2026-04-12T08:31:59.044Z</time></trkpt><trkpt lat="43.6593117" lon="6.6717171"><ele>719.25</ele><time>2026-04-12T08:32:00.043Z</time></trkpt><trkpt lat="43.6592021" lon="6.6716655"><ele>719.0</ele><time>2026-04-12T08:32:01.043Z</time></trkpt><trkpt lat="43.6590966" lon="6.6716054"><ele>719.0</ele><time>2026-04-12T08:32:02.043Z</time></trkpt><trkpt lat="43.6589967" lon="6.6715278"><ele>719.0</ele><time>2026-04-12T08:32:03.042Z</time></trkpt><trkpt lat="43.658905" lon="6.6714386"><ele>719.0</ele><time>2026-04-12T08:32:04.043Z</time></trkpt><trkpt lat="43.6588213" lon="6.6713403"><ele>719.0</ele><time>2026-04-12T08:32:05.043Z</time></trkpt><trkpt lat="43.6587422" lon="6.6712392"><ele>719.0</ele><time>2026-04-12T08:32:06.043Z</time></trkpt><trkpt lat="43.6586721" lon="6.6711301"><ele>720.2</ele><time>2026-04-12T08:32:07.044Z</time></trkpt><trkpt lat="43.6586112" lon="6.6710153"><ele>721.4000000000001</ele><time>2026-04-12T08:32:08.043Z</time></trkpt><trkpt lat="43.6585529" lon="6.6709043"><ele>722.6</ele><time>2026-04-12T08:32:09.043Z</time></trkpt><trkpt lat="43.6584942" lon="6.6707928"><ele>723.8</ele><time>2026-04-12T08:32:10.043Z</time></trkpt><trkpt lat="43.6584351" lon="6.6706814"><ele>725.0</ele><time>2026-04-12T08:32:11.043Z</time></trkpt><trkpt lat="43.6583774" lon="6.6705719"><ele>725.0</ele><time>2026-04-12T08:32:12.043Z</time></trkpt><trkpt lat="43.658322" lon="6.6704634"><ele>725.0</ele><time>2026-04-12T08:32:13.043Z</time></trkpt><trkpt lat="43.6582667" lon="6.6703562"><ele>725.0</ele><time>2026-04-12T08:32:14.043Z</time></trkpt><trkpt lat="43.6582092" lon="6.6702522"><ele>725.0</ele><time>2026-04-12T08:32:15.044Z</time></trkpt><trkpt lat="43.6581517" lon="6.6701452"><ele>725.0</ele><time>2026-04-12T08:32:16.043Z</time></trkpt><trkpt lat="43.6580931" lon="6.6700428"><ele>725.6666666666666</ele><time>2026-04-12T08:32:17.043Z</time></trkpt><trkpt lat="43.6580358" lon="6.6699437"><ele>726.3333333333333</ele><time>2026-04-12T08:32:18.043Z</time></trkpt><trkpt lat="43.6579795" lon="6.6698453"><ele>727.0</ele><time>2026-04-12T08:32:19.043Z</time></trkpt><trkpt lat="43.6579255" lon="6.6697493"><ele>727.6666666666666</ele><time>2026-04-12T08:32:20.043Z</time></trkpt><trkpt lat="43.6578735" lon="6.6696576"><ele>728.3333333333334</ele><time>2026-04-12T08:32:21.043Z</time></trkpt><trkpt lat="43.6578244" lon="6.6695687"><ele>729.0</ele><time>2026-04-12T08:32:22.044Z</time></trkpt><trkpt lat="43.6577767" lon="6.6694808"><ele>728.0</ele><time>2026-04-12T08:32:23.043Z</time></trkpt><trkpt lat="43.6577326" lon="6.6693972"><ele>727.0</ele><time>2026-04-12T08:32:24.043Z</time></trkpt><trkpt lat="43.6576873" lon="6.6693155"><ele>726.0</ele><time>2026-04-12T08:32:25.043Z</time></trkpt><trkpt lat="43.6576375" lon="6.669241"><ele>725.0</ele><time>2026-04-12T08:32:26.043Z</time></trkpt><trkpt lat="43.6575858" lon="6.6691628"><ele>724.0</ele><time>2026-04-12T08:32:27.043Z</time></trkpt><trkpt lat="43.657532" lon="6.6690774"><ele>723.0</ele><time>2026-04-12T08:32:28.043Z</time></trkpt><trkpt lat="43.6574806" lon="6.6689854"><ele>723.0</ele><time>2026-04-12T08:32:29.044Z</time></trkpt><trkpt lat="43.6574323" lon="6.6688854"><ele>723.0</ele><time>2026-04-12T08:32:30.044Z</time></trkpt><trkpt lat="43.6573826" lon="6.6687909"><ele>723.0</ele><time>2026-04-12T08:32:31.043Z</time></trkpt><trkpt lat="43.6573276" lon="6.6686944"><ele>723.0</ele><time>2026-04-12T08:32:32.044Z</time></trkpt><trkpt lat="43.6572706" lon="6.6685955"><ele>723.0</ele><time>2026-04-12T08:32:33.043Z</time></trkpt><trkpt lat="43.6572154" lon="6.6684915"><ele>723.0</ele><time>2026-04-12T08:32:34.044Z</time></trkpt><trkpt lat="43.6571592" lon="6.6683926"><ele>723.5999999999999</ele><time>2026-04-12T08:32:35.043Z</time></trkpt><trkpt lat="43.6571016" lon="6.6682946"><ele>724.1999999999999</ele><time>2026-04-12T08:32:36.043Z</time></trkpt><trkpt lat="43.6570451" lon="6.668195"><ele>724.8</ele><time>2026-04-12T08:32:37.044Z</time></trkpt><trkpt lat="43.6569893" lon="6.6680952"><ele>725.4</ele><time>2026-04-12T08:32:38.043Z</time></trkpt><trkpt lat="43.656929" lon="6.6679941"><ele>726.0</ele><time>2026-04-12T08:32:39.043Z</time></trkpt><trkpt lat="43.656867" lon="6.6678914"><ele>726.0</ele><time>2026-04-12T08:32:40.044Z</time></trkpt><trkpt lat="43.6568057" lon="6.66779"><ele>726.0</ele><time>2026-04-12T08:32:41.045Z</time></trkpt><trkpt lat="43.6567427" lon="6.6676911"><ele>726.0</ele><time>2026-04-12T08:32:42.045Z</time></trkpt><trkpt lat="43.656675" lon="6.6675953"><ele>726.0</ele><time>2026-04-12T08:32:43.044Z</time></trkpt><trkpt lat="43.6566051" lon="6.6675039"><ele>726.0</ele><time>2026-04-12T08:32:44.044Z</time></trkpt><trkpt lat="43.6565337" lon="6.6674175"><ele>724.4</ele><time>2026-04-12T08:32:45.044Z</time></trkpt><trkpt lat="43.6564593" lon="6.6673346"><ele>722.8</ele><time>2026-04-12T08:32:46.044Z</time></trkpt><trkpt lat="43.6563853" lon="6.667254"><ele>721.1999999999999</ele><time>2026-04-12T08:32:47.044Z</time></trkpt><trkpt lat="43.6563117" lon="6.6671736"><ele>719.5999999999999</ele><time>2026-04-12T08:32:48.043Z</time></trkpt><trkpt lat="43.6562383" lon="6.6670923"><ele>718.0</ele><time>2026-04-12T08:32:49.044Z</time></trkpt><trkpt lat="43.6561653" lon="6.6670092"><ele>718.0</ele><time>2026-04-12T08:32:50.043Z</time></trkpt><trkpt lat="43.6560909" lon="6.6669246"><ele>718.0</ele><time>2026-04-12T08:32:51.044Z</time></trkpt><trkpt lat="43.6560137" lon="6.6668416"><ele>718.0</ele><time>2026-04-12T08:32:52.044Z</time></trkpt><trkpt lat="43.6559352" lon="6.6667579"><ele>718.0</ele><time>2026-04-12T08:32:53.044Z</time></trkpt><trkpt lat="43.655857" lon="6.6666776"><ele>718.0</ele><time>2026-04-12T08:32:54.044Z</time></trkpt><trkpt lat="43.655782" lon="6.6665936"><ele>718.0</ele><time>2026-04-12T08:32:55.044Z</time></trkpt><trkpt lat="43.6557073" lon="6.6665088"><ele>718.0</ele><time>2026-04-12T08:32:56.045Z</time></trkpt><trkpt lat="43.6556315" lon="6.666426"><ele>718.0</ele><time>2026-04-12T08:32:57.044Z</time></trkpt><trkpt lat="43.6555579" lon="6.6663428"><ele>718.0</ele><time>2026-04-12T08:32:58.044Z</time></trkpt><trkpt lat="43.6554861" lon="6.6662634"><ele>718.0</ele><time>2026-04-12T08:32:59.044Z</time></trkpt><trkpt lat="43.6554146" lon="6.6661877"><ele>718.0</ele><time>2026-04-12T08:33:00.044Z</time></trkpt><trkpt lat="43.6553428" lon="6.6661134"><ele>718.0</ele><time>2026-04-12T08:33:01.044Z</time></trkpt><trkpt lat="43.6552672" lon="6.6660392"><ele>718.0</ele><time>2026-04-12T08:33:02.044Z</time></trkpt><trkpt lat="43.6551939" lon="6.6659655"><ele>718.0</ele><time>2026-04-12T08:33:03.044Z</time></trkpt><trkpt lat="43.6551191" lon="6.6658927"><ele>718.0</ele><time>2026-04-12T08:33:04.044Z</time></trkpt><trkpt lat="43.6550446" lon="6.6658196"><ele>717.0</ele><time>2026-04-12T08:33:05.044Z</time></trkpt><trkpt lat="43.6549664" lon="6.6657462"><ele>716.0</ele><time>2026-04-12T08:33:06.045Z</time></trkpt><trkpt lat="43.654885" lon="6.6656706"><ele>715.0</ele><time>2026-04-12T08:33:07.045Z</time></trkpt><trkpt lat="43.6548015" lon="6.665595"><ele>714.0</ele><time>2026-04-12T08:33:08.044Z</time></trkpt><trkpt lat="43.6547159" lon="6.6655197"><ele>713.0</ele><time>2026-04-12T08:33:09.044Z</time></trkpt><trkpt lat="43.6546289" lon="6.6654416"><ele>713.0</ele><time>2026-04-12T08:33:10.044Z</time></trkpt><trkpt lat="43.6545406" lon="6.6653621"><ele>713.0</ele><time>2026-04-12T08:33:11.044Z</time></trkpt><trkpt lat="43.6544514" lon="6.6652836"><ele>713.0</ele><time>2026-04-12T08:33:12.044Z</time></trkpt><trkpt lat="43.6543607" lon="6.6652034"><ele>713.0</ele><time>2026-04-12T08:33:13.044Z</time></trkpt><trkpt lat="43.6542705" lon="6.6651188"><ele>713.0</ele><time>2026-04-12T08:33:14.044Z</time></trkpt><trkpt lat="43.6541822" lon="6.6650297"><ele>712.0</ele><time>2026-04-12T08:33:15.044Z</time></trkpt><trkpt lat="43.6541052" lon="6.6649188"><ele>711.0</ele><time>2026-04-12T08:33:16.044Z</time></trkpt><trkpt lat="43.6540378" lon="6.6647936"><ele>710.0</ele><time>2026-04-12T08:33:17.044Z</time></trkpt><trkpt lat="43.6539909" lon="6.6646497"><ele>709.0</ele><time>2026-04-12T08:33:18.044Z</time></trkpt><trkpt lat="43.6539646" lon="6.664492"><ele>707.75</ele><time>2026-04-12T08:33:19.044Z</time></trkpt><trkpt lat="43.6539484" lon="6.6643301"><ele>706.5</ele><time>2026-04-12T08:33:20.044Z</time></trkpt><trkpt lat="43.6539427" lon="6.6641716"><ele>705.25</ele><time>2026-04-12T08:33:21.044Z</time></trkpt><trkpt lat="43.6539549" lon="6.6640183"><ele>704.0</ele><time>2026-04-12T08:33:22.044Z</time></trkpt><trkpt lat="43.6539767" lon="6.6638664"><ele>704.0</ele><time>2026-04-12T08:33:23.044Z</time></trkpt><trkpt lat="43.654002" lon="6.6637157"><ele>704.0</ele><time>2026-04-12T08:33:24.045Z</time></trkpt><trkpt lat="43.6540296" lon="6.6635657"><ele>704.0</ele><time>2026-04-12T08:33:25.045Z</time></trkpt><trkpt lat="43.6540557" lon="6.6634147"><ele>704.0</ele><time>2026-04-12T08:33:26.045Z</time></trkpt><trkpt lat="43.6540809" lon="6.6632628"><ele>704.0</ele><time>2026-04-12T08:33:27.044Z</time></trkpt><trkpt lat="43.6541034" lon="6.6631079"><ele>702.75</ele><time>2026-04-12T08:33:28.044Z</time></trkpt><trkpt lat="43.6541186" lon="6.6629494"><ele>701.5</ele><time>2026-04-12T08:33:29.045Z</time></trkpt><trkpt lat="43.6541239" lon="6.6627876"><ele>700.25</ele><time>2026-04-12T08:33:30.045Z</time></trkpt><trkpt lat="43.6541153" lon="6.6626229"><ele>699.0</ele><time>2026-04-12T08:33:31.045Z</time></trkpt><trkpt lat="43.654089" lon="6.662463"><ele>698.5</ele><time>2026-04-12T08:33:32.045Z</time></trkpt><trkpt lat="43.6540523" lon="6.6623103"><ele>698.0</ele><time>2026-04-12T08:33:33.045Z</time></trkpt><trkpt lat="43.6540104" lon="6.6621608"><ele>697.5</ele><time>2026-04-12T08:33:34.046Z</time></trkpt><trkpt lat="43.6539645" lon="6.6620151"><ele>697.0</ele><time>2026-04-12T08:33:35.045Z</time></trkpt><trkpt lat="43.6539196" lon="6.661866"><ele>697.0</ele><time>2026-04-12T08:33:36.045Z</time></trkpt><trkpt lat="43.6538748" lon="6.6617139"><ele>697.0</ele><time>2026-04-12T08:33:37.046Z</time></trkpt><trkpt lat="43.653832" lon="6.66156"><ele>697.0</ele><time>2026-04-12T08:33:38.044Z</time></trkpt><trkpt lat="43.6537928" lon="6.6614028"><ele>697.0</ele><time>2026-04-12T08:33:39.045Z</time></trkpt><trkpt lat="43.6537604" lon="6.6612431"><ele>696.8</ele><time>2026-04-12T08:33:40.045Z</time></trkpt><trkpt lat="43.6537397" lon="6.6610891"><ele>696.6</ele><time>2026-04-12T08:33:41.045Z</time></trkpt><trkpt lat="43.6537613" lon="6.6609419"><ele>696.4</ele><time>2026-04-12T08:33:42.045Z</time></trkpt><trkpt lat="43.653808" lon="6.6608015"><ele>696.1999999999999</ele><time>2026-04-12T08:33:43.045Z</time></trkpt><trkpt lat="43.6538664" lon="6.6606666"><ele>696.0</ele><time>2026-04-12T08:33:44.045Z</time></trkpt><trkpt lat="43.6539293" lon="6.6605316"><ele>696.0</ele><time>2026-04-12T08:33:45.045Z</time></trkpt><trkpt lat="43.6539895" lon="6.6603954"><ele>696.0</ele><time>2026-04-12T08:33:46.045Z</time></trkpt><trkpt lat="43.6540483" lon="6.6602576"><ele>696.0</ele><time>2026-04-12T08:33:47.045Z</time></trkpt><trkpt lat="43.6541077" lon="6.6601188"><ele>696.0</ele><time>2026-04-12T08:33:48.046Z</time></trkpt><trkpt lat="43.654167" lon="6.6599792"><ele>695.0</ele><time>2026-04-12T08:33:49.045Z</time></trkpt><trkpt lat="43.6542248" lon="6.6598388"><ele>694.0</ele><time>2026-04-12T08:33:50.046Z</time></trkpt><trkpt lat="43.654279" lon="6.6597034"><ele>693.0</ele><time>2026-04-12T08:33:51.045Z</time></trkpt><trkpt lat="43.6543291" lon="6.659581"><ele>692.0</ele><time>2026-04-12T08:33:52.046Z</time></trkpt><trkpt lat="43.6543702" lon="6.659475"><ele>691.0</ele><time>2026-04-12T08:33:53.045Z</time></trkpt><trkpt lat="43.6543938" lon="6.6593792"><ele>690.9999999999999</ele><time>2026-04-12T08:33:54.045Z</time></trkpt><trkpt lat="43.6543881" lon="6.6592908"><ele>691.0</ele><time>2026-04-12T08:33:55.045Z</time></trkpt><trkpt lat="43.6543424" lon="6.6592187"><ele>691.0</ele><time>2026-04-12T08:33:56.045Z</time></trkpt><trkpt lat="43.6542859" lon="6.6591571"><ele>691.0</ele><time>2026-04-12T08:33:57.045Z</time></trkpt><trkpt lat="43.6542203" lon="6.659144"><ele>691.0</ele><time>2026-04-12T08:33:58.045Z</time></trkpt><trkpt lat="43.6541593" lon="6.6591816"><ele>690.9999999999999</ele><time>2026-04-12T08:33:59.045Z</time></trkpt><trkpt lat="43.6540975" lon="6.6592719"><ele>691.0</ele><time>2026-04-12T08:34:00.045Z</time></trkpt><trkpt lat="43.6540271" lon="6.6593834"><ele>690.5999999999999</ele><time>2026-04-12T08:34:01.045Z</time></trkpt><trkpt lat="43.65395" lon="6.6595016"><ele>690.2</ele><time>2026-04-12T08:34:02.045Z</time></trkpt><trkpt lat="43.653864" lon="6.6596104"><ele>689.8</ele><time>2026-04-12T08:34:03.045Z</time></trkpt><trkpt lat="43.6537741" lon="6.6596944"><ele>689.4000000000001</ele><time>2026-04-12T08:34:04.045Z</time></trkpt><trkpt lat="43.6536767" lon="6.659746"><ele>689.0</ele><time>2026-04-12T08:34:05.045Z</time></trkpt><trkpt lat="43.653573" lon="6.6597571"><ele>686.6</ele><time>2026-04-12T08:34:06.045Z</time></trkpt><trkpt lat="43.6534689" lon="6.6597475"><ele>684.2</ele><time>2026-04-12T08:34:07.045Z</time></trkpt><trkpt lat="43.6533657" lon="6.6597306"><ele>681.8000000000001</ele><time>2026-04-12T08:34:08.045Z</time></trkpt><trkpt lat="43.6532629" lon="6.6597091"><ele>679.4000000000001</ele><time>2026-04-12T08:34:09.045Z</time></trkpt><trkpt lat="43.6531644" lon="6.65969"><ele>677.0</ele><time>2026-04-12T08:34:10.045Z</time></trkpt><trkpt lat="43.6530706" lon="6.6596777"><ele>677.0</ele><time>2026-04-12T08:34:11.045Z</time></trkpt><trkpt lat="43.6529836" lon="6.659694"><ele>677.0</ele><time>2026-04-12T08:34:12.046Z</time></trkpt><trkpt lat="43.6528985" lon="6.6597267"><ele>677.0</ele><time>2026-04-12T08:34:13.046Z</time></trkpt><trkpt lat="43.6528202" lon="6.6598009"><ele>677.0</ele><time>2026-04-12T08:34:14.046Z</time></trkpt><trkpt lat="43.6527474" lon="6.6599029"><ele>677.0</ele><time>2026-04-12T08:34:15.045Z</time></trkpt><trkpt lat="43.6526747" lon="6.6600134"><ele>677.6</ele><time>2026-04-12T08:34:16.046Z</time></trkpt><trkpt lat="43.6526009" lon="6.6601263"><ele>678.2</ele><time>2026-04-12T08:34:17.047Z</time></trkpt><trkpt lat="43.6525227" lon="6.6602339"><ele>678.8</ele><time>2026-04-12T08:34:18.046Z</time></trkpt><trkpt lat="43.6524394" lon="6.6603375"><ele>679.4</ele><time>2026-04-12T08:34:19.045Z</time></trkpt><trkpt lat="43.6523523" lon="6.6604384"><ele>680.0</ele><time>2026-04-12T08:34:20.046Z</time></trkpt><trkpt lat="43.6522657" lon="6.660542"><ele>677.8</ele><time>2026-04-12T08:34:21.045Z</time></trkpt><trkpt lat="43.6521835" lon="6.6606495"><ele>675.6</ele><time>2026-04-12T08:34:22.046Z</time></trkpt><trkpt lat="43.6521037" lon="6.6607565"><ele>673.4000000000001</ele><time>2026-04-12T08:34:23.046Z</time></trkpt><trkpt lat="43.6520267" lon="6.6608647"><ele>671.2</ele><time>2026-04-12T08:34:24.046Z</time></trkpt><trkpt lat="43.6519485" lon="6.6609757"><ele>669.0</ele><time>2026-04-12T08:34:25.046Z</time></trkpt><trkpt lat="43.6518635" lon="6.6610751"><ele>668.8000000000001</ele><time>2026-04-12T08:34:26.046Z</time></trkpt><trkpt lat="43.6517702" lon="6.6611386"><ele>668.6</ele><time>2026-04-12T08:34:27.046Z</time></trkpt><trkpt lat="43.6516741" lon="6.6611775"><ele>668.4</ele><time>2026-04-12T08:34:28.046Z</time></trkpt><trkpt lat="43.6515807" lon="6.6611653"><ele>668.2</ele><time>2026-04-12T08:34:29.046Z</time></trkpt><trkpt lat="43.6514946" lon="6.6610996"><ele>668.0</ele><time>2026-04-12T08:34:30.046Z</time></trkpt><trkpt lat="43.6514233" lon="6.66098"><ele>668.0</ele><time>2026-04-12T08:34:31.046Z</time></trkpt><trkpt lat="43.6513561" lon="6.6608423"><ele>668.0</ele><time>2026-04-12T08:34:32.046Z</time></trkpt><trkpt lat="43.6512902" lon="6.6607031"><ele>668.0</ele><time>2026-04-12T08:34:33.046Z</time></trkpt><trkpt lat="43.6512152" lon="6.6605804"><ele>668.0</ele><time>2026-04-12T08:34:34.046Z</time></trkpt><trkpt lat="43.6511257" lon="6.6604817"><ele>664.75</ele><time>2026-04-12T08:34:35.046Z</time></trkpt><trkpt lat="43.6510231" lon="6.6604099"><ele>661.5</ele><time>2026-04-12T08:34:36.046Z</time></trkpt><trkpt lat="43.6509123" lon="6.6603643"><ele>658.25</ele><time>2026-04-12T08:34:37.046Z</time></trkpt><trkpt lat="43.6507987" lon="6.6603336"><ele>655.0</ele><time>2026-04-12T08:34:38.046Z</time></trkpt><trkpt lat="43.6506829" lon="6.6603138"><ele>655.0</ele><time>2026-04-12T08:34:39.046Z</time></trkpt><trkpt lat="43.6505681" lon="6.6603161"><ele>655.0</ele><time>2026-04-12T08:34:40.046Z</time></trkpt><trkpt lat="43.6504509" lon="6.6603279"><ele>655.0</ele><time>2026-04-12T08:34:41.047Z</time></trkpt><trkpt lat="43.6503332" lon="6.6603271"><ele>655.0</ele><time>2026-04-12T08:34:42.046Z</time></trkpt><trkpt lat="43.650217" lon="6.6603099"><ele>652.25</ele><time>2026-04-12T08:34:43.046Z</time></trkpt><trkpt lat="43.6501008" lon="6.6602835"><ele>649.5</ele><time>2026-04-12T08:34:44.046Z</time></trkpt><trkpt lat="43.6499835" lon="6.6602542"><ele>646.75</ele><time>2026-04-12T08:34:45.047Z</time></trkpt><trkpt lat="43.6498668" lon="6.6602196"><ele>644.0</ele><time>2026-04-12T08:34:46.046Z</time></trkpt><trkpt lat="43.6497496" lon="6.6601892"><ele>647.0</ele><time>2026-04-12T08:34:47.046Z</time></trkpt><trkpt lat="43.6496325" lon="6.6601575"><ele>650.0</ele><time>2026-04-12T08:34:48.046Z</time></trkpt><trkpt lat="43.6495166" lon="6.6601236"><ele>653.0</ele><time>2026-04-12T08:34:49.046Z</time></trkpt><trkpt lat="43.6494" lon="6.6600874"><ele>656.0</ele><time>2026-04-12T08:34:50.046Z</time></trkpt><trkpt lat="43.6492838" lon="6.660049"><ele>656.0</ele><time>2026-04-12T08:34:51.046Z</time></trkpt><trkpt lat="43.649167" lon="6.6600088"><ele>656.0</ele><time>2026-04-12T08:34:52.046Z</time></trkpt><trkpt lat="43.6490496" lon="6.659967"><ele>656.0</ele><time>2026-04-12T08:34:53.046Z</time></trkpt><trkpt lat="43.6489317" lon="6.659932"><ele>656.0</ele><time>2026-04-12T08:34:54.046Z</time></trkpt><trkpt lat="43.6488121" lon="6.6599124"><ele>656.0</ele><time>2026-04-12T08:34:55.046Z</time></trkpt><trkpt lat="43.6486926" lon="6.6599098"><ele>656.0</ele><time>2026-04-12T08:34:56.046Z</time></trkpt><trkpt lat="43.6485742" lon="6.6599251"><ele>656.0</ele><time>2026-04-12T08:34:57.046Z</time></trkpt><trkpt lat="43.6484575" lon="6.6599485"><ele>656.0</ele><time>2026-04-12T08:34:58.047Z</time></trkpt><trkpt lat="43.6483399" lon="6.6599693"><ele>654.0</ele><time>2026-04-12T08:34:59.047Z</time></trkpt><trkpt lat="43.648223" lon="6.6599896"><ele>652.0</ele><time>2026-04-12T08:35:00.047Z</time></trkpt><trkpt lat="43.6481036" lon="6.6600083"><ele>650.0</ele><time>2026-04-12T08:35:01.046Z</time></trkpt><trkpt lat="43.6479832" lon="6.6600241"><ele>648.0</ele><time>2026-04-12T08:35:02.047Z</time></trkpt><trkpt lat="43.6478601" lon="6.6600381"><ele>646.25</ele><time>2026-04-12T08:35:03.046Z</time></trkpt><trkpt lat="43.6477359" lon="6.6600541"><ele>644.5</ele><time>2026-04-12T08:35:04.046Z</time></trkpt><trkpt lat="43.6476093" lon="6.6600693"><ele>642.75</ele><time>2026-04-12T08:35:05.047Z</time></trkpt><trkpt lat="43.6474831" lon="6.660069"><ele>641.0</ele><time>2026-04-12T08:35:06.047Z</time></trkpt><trkpt lat="43.6473585" lon="6.6600522"><ele>641.0</ele><time>2026-04-12T08:35:07.046Z</time></trkpt><trkpt lat="43.6472337" lon="6.6600245"><ele>641.0</ele><time>2026-04-12T08:35:08.047Z</time></trkpt><trkpt lat="43.6471081" lon="6.6599956"><ele>641.0</ele><time>2026-04-12T08:35:09.047Z</time></trkpt><trkpt lat="43.6469831" lon="6.6599741"><ele>641.0</ele><time>2026-04-12T08:35:10.046Z</time></trkpt><trkpt lat="43.6468609" lon="6.6599601"><ele>638.6666666666666</ele><time>2026-04-12T08:35:11.047Z</time></trkpt><trkpt lat="43.6467504" lon="6.6599604"><ele>636.3333333333333</ele><time>2026-04-12T08:35:12.046Z</time></trkpt><trkpt lat="43.6466548" lon="6.6599631"><ele>634.0</ele><time>2026-04-12T08:35:13.047Z</time></trkpt><trkpt lat="43.6465746" lon="6.6599455"><ele>631.6666666666666</ele><time>2026-04-12T08:35:14.047Z</time></trkpt><trkpt lat="43.6465097" lon="6.659891"><ele>629.3333333333334</ele><time>2026-04-12T08:35:15.047Z</time></trkpt><trkpt lat="43.6464454" lon="6.6598257"><ele>627.0</ele><time>2026-04-12T08:35:16.047Z</time></trkpt><trkpt lat="43.6463866" lon="6.659747"><ele>627.0</ele><time>2026-04-12T08:35:17.047Z</time></trkpt><trkpt lat="43.6463518" lon="6.6596382"><ele>627.0</ele><time>2026-04-12T08:35:18.047Z</time></trkpt><trkpt lat="43.6463504" lon="6.6594921"><ele>627.0</ele><time>2026-04-12T08:35:19.047Z</time></trkpt><trkpt lat="43.6463693" lon="6.6593363"><ele>627.0</ele><time>2026-04-12T08:35:20.047Z</time></trkpt><trkpt lat="43.6464032" lon="6.6591689"><ele>627.0</ele><time>2026-04-12T08:35:21.047Z</time></trkpt><trkpt lat="43.6464565" lon="6.6589903"><ele>626.0</ele><time>2026-04-12T08:35:22.047Z</time></trkpt><trkpt lat="43.6465265" lon="6.6588196"><ele>625.0</ele><time>2026-04-12T08:35:23.047Z</time></trkpt><trkpt lat="43.6465966" lon="6.658664"><ele>624.0</ele><time>2026-04-12T08:35:24.047Z</time></trkpt><trkpt lat="43.6466678" lon="6.6585181"><ele>623.0</ele><time>2026-04-12T08:35:25.047Z</time></trkpt><trkpt lat="43.646733" lon="6.6583829"><ele>623.0</ele><time>2026-04-12T08:35:26.047Z</time></trkpt><trkpt lat="43.6467899" lon="6.6582628"><ele>623.0</ele><time>2026-04-12T08:35:27.047Z</time></trkpt><trkpt lat="43.6468377" lon="6.6581454"><ele>623.0</ele><time>2026-04-12T08:35:28.047Z</time></trkpt><trkpt lat="43.6468479" lon="6.6580236"><ele>623.0</ele><time>2026-04-12T08:35:29.047Z</time></trkpt><trkpt lat="43.6468053" lon="6.6579017"><ele>623.0</ele><time>2026-04-12T08:35:30.047Z</time></trkpt><trkpt lat="43.6467154" lon="6.6578047"><ele>625.0</ele><time>2026-04-12T08:35:31.047Z</time></trkpt><trkpt lat="43.6466181" lon="6.6577301"><ele>627.0</ele><time>2026-04-12T08:35:32.047Z</time></trkpt><trkpt lat="43.6464994" lon="6.6576848"><ele>629.0</ele><time>2026-04-12T08:35:33.048Z</time></trkpt><trkpt lat="43.6463837" lon="6.6576522"><ele>631.0</ele><time>2026-04-12T08:35:34.047Z</time></trkpt><trkpt lat="43.6462755" lon="6.6576149"><ele>631.0</ele><time>2026-04-12T08:35:35.047Z</time></trkpt><trkpt lat="43.6461752" lon="6.6575734"><ele>631.0</ele><time>2026-04-12T08:35:36.047Z</time></trkpt><trkpt lat="43.6460863" lon="6.657531"><ele>631.0</ele><time>2026-04-12T08:35:37.047Z</time></trkpt><trkpt lat="43.6460088" lon="6.6574827"><ele>631.0</ele><time>2026-04-12T08:35:38.047Z</time></trkpt><trkpt lat="43.645943" lon="6.6574214"><ele>631.0</ele><time>2026-04-12T08:35:39.047Z</time></trkpt><trkpt lat="43.6458916" lon="6.6573434"><ele>631.0</ele><time>2026-04-12T08:35:40.047Z</time></trkpt><trkpt lat="43.6458477" lon="6.6572535"><ele>626.4</ele><time>2026-04-12T08:35:41.047Z</time></trkpt><trkpt lat="43.6458235" lon="6.6571323"><ele>621.8</ele><time>2026-04-12T08:35:42.047Z</time></trkpt><trkpt lat="43.6458187" lon="6.6569966"><ele>617.1999999999999</ele><time>2026-04-12T08:35:43.048Z</time></trkpt><trkpt lat="43.6458282" lon="6.6568544"><ele>612.6</ele><time>2026-04-12T08:35:44.048Z</time></trkpt><trkpt lat="43.6458375" lon="6.6567108"><ele>608.0</ele><time>2026-04-12T08:35:45.047Z</time></trkpt><trkpt lat="43.6458363" lon="6.6565668"><ele>608.0</ele><time>2026-04-12T08:35:46.048Z</time></trkpt><trkpt lat="43.6458173" lon="6.656425"><ele>608.0</ele><time>2026-04-12T08:35:47.048Z</time></trkpt><trkpt lat="43.6457795" lon="6.6562855"><ele>608.0</ele><time>2026-04-12T08:35:48.048Z</time></trkpt><trkpt lat="43.6457281" lon="6.6561488"><ele>608.0</ele><time>2026-04-12T08:35:49.048Z</time></trkpt><trkpt lat="43.6456667" lon="6.6560148"><ele>608.0</ele><time>2026-04-12T08:35:50.047Z</time></trkpt><trkpt lat="43.6455878" lon="6.6558962"><ele>609.25</ele><time>2026-04-12T08:35:51.047Z</time></trkpt><trkpt lat="43.6454942" lon="6.6557999"><ele>610.5</ele><time>2026-04-12T08:35:52.047Z</time></trkpt><trkpt lat="43.645396" lon="6.6557151"><ele>611.75</ele><time>2026-04-12T08:35:53.048Z</time></trkpt><trkpt lat="43.6453021" lon="6.6556225"><ele>613.0</ele><time>2026-04-12T08:35:54.048Z</time></trkpt><trkpt lat="43.6452168" lon="6.6555137"><ele>609.0</ele><time>2026-04-12T08:35:55.047Z</time></trkpt><trkpt lat="43.6451399" lon="6.6553893"><ele>605.0</ele><time>2026-04-12T08:35:56.047Z</time></trkpt><trkpt lat="43.6450661" lon="6.6552576"><ele>601.0</ele><time>2026-04-12T08:35:57.047Z</time></trkpt><trkpt lat="43.6449954" lon="6.6551191"><ele>597.0</ele><time>2026-04-12T08:35:58.048Z</time></trkpt><trkpt lat="43.6449272" lon="6.6549785"><ele>597.0</ele><time>2026-04-12T08:35:59.047Z</time></trkpt><trkpt lat="43.6448613" lon="6.6548339"><ele>597.0</ele><time>2026-04-12T08:36:00.048Z</time></trkpt><trkpt lat="43.6447984" lon="6.6546848"><ele>597.0</ele><time>2026-04-12T08:36:01.048Z</time></trkpt><trkpt lat="43.6447422" lon="6.6545295"><ele>597.0</ele><time>2026-04-12T08:36:02.048Z</time></trkpt><trkpt lat="43.6446908" lon="6.6543696"><ele>597.5</ele><time>2026-04-12T08:36:03.048Z</time></trkpt><trkpt lat="43.6446409" lon="6.6542091"><ele>598.0</ele><time>2026-04-12T08:36:04.048Z</time></trkpt><trkpt lat="43.6445942" lon="6.6540469"><ele>598.5</ele><time>2026-04-12T08:36:05.048Z</time></trkpt><trkpt lat="43.6445546" lon="6.6538865"><ele>599.0</ele><time>2026-04-12T08:36:06.048Z</time></trkpt><trkpt lat="43.6445283" lon="6.6537345"><ele>597.8</ele><time>2026-04-12T08:36:07.048Z</time></trkpt><trkpt lat="43.6445197" lon="6.6535932"><ele>596.5999999999999</ele><time>2026-04-12T08:36:08.048Z</time></trkpt><trkpt lat="43.644537" lon="6.6534573"><ele>595.4</ele><time>2026-04-12T08:36:09.048Z</time></trkpt><trkpt lat="43.6445729" lon="6.653327"><ele>594.1999999999999</ele><time>2026-04-12T08:36:10.048Z</time></trkpt><trkpt lat="43.6446376" lon="6.6532142"><ele>593.0</ele><time>2026-04-12T08:36:11.048Z</time></trkpt><trkpt lat="43.644713" lon="6.6531076"><ele>593.0</ele><time>2026-04-12T08:36:12.048Z</time></trkpt><trkpt lat="43.6447912" lon="6.653002"><ele>593.0</ele><time>2026-04-12T08:36:13.048Z</time></trkpt><trkpt lat="43.6448739" lon="6.6528978"><ele>593.0</ele><time>2026-04-12T08:36:14.048Z</time></trkpt><trkpt lat="43.6449566" lon="6.6527873"><ele>593.0</ele><time>2026-04-12T08:36:15.048Z</time></trkpt><trkpt lat="43.6450383" lon="6.6526778"><ele>593.1999999999999</ele><time>2026-04-12T08:36:16.048Z</time></trkpt><trkpt lat="43.6451176" lon="6.652579"><ele>593.4</ele><time>2026-04-12T08:36:17.049Z</time></trkpt><trkpt lat="43.645194" lon="6.6524963"><ele>593.5999999999999</ele><time>2026-04-12T08:36:18.048Z</time></trkpt><trkpt lat="43.6452623" lon="6.6524303"><ele>593.8</ele><time>2026-04-12T08:36:19.048Z</time></trkpt><trkpt lat="43.6453186" lon="6.65237"><ele>594.0</ele><time>2026-04-12T08:36:20.048Z</time></trkpt><trkpt lat="43.6453623" lon="6.6522228"><ele>591.2</ele><time>2026-04-12T08:36:22.048Z</time></trkpt><trkpt lat="43.6452554" lon="6.6521271"><ele>588.4</ele><time>2026-04-12T08:36:24.048Z</time></trkpt><trkpt lat="43.6451757" lon="6.652149"><ele>585.6</ele><time>2026-04-12T08:36:25.048Z</time></trkpt><trkpt lat="43.6451016" lon="6.6522105"><ele>582.8</ele><time>2026-04-12T08:36:26.048Z</time></trkpt><trkpt lat="43.6450292" lon="6.6522834"><ele>580.0</ele><time>2026-04-12T08:36:27.049Z</time></trkpt><trkpt lat="43.6449544" lon="6.6523597"><ele>580.0</ele><time>2026-04-12T08:36:28.048Z</time></trkpt><trkpt lat="43.6448723" lon="6.6524281"><ele>580.0</ele><time>2026-04-12T08:36:29.048Z</time></trkpt><trkpt lat="43.6447862" lon="6.652486"><ele>580.0</ele><time>2026-04-12T08:36:30.048Z</time></trkpt><trkpt lat="43.6446899" lon="6.652536"><ele>580.0</ele><time>2026-04-12T08:36:31.048Z</time></trkpt><trkpt lat="43.6445907" lon="6.6525918"><ele>580.0</ele><time>2026-04-12T08:36:32.048Z</time></trkpt><trkpt lat="43.6444933" lon="6.6526612"><ele>577.75</ele><time>2026-04-12T08:36:33.048Z</time></trkpt><trkpt lat="43.6444" lon="6.6527476"><ele>575.5</ele><time>2026-04-12T08:36:34.049Z</time></trkpt><trkpt lat="43.6443108" lon="6.652847"><ele>573.25</ele><time>2026-04-12T08:36:35.049Z</time></trkpt><trkpt lat="43.6442253" lon="6.6529574"><ele>571.0</ele><time>2026-04-12T08:36:36.048Z</time></trkpt><trkpt lat="43.6441479" lon="6.6530815"><ele>571.0</ele><time>2026-04-12T08:36:37.049Z</time></trkpt><trkpt lat="43.6440794" lon="6.653219"><ele>571.0</ele><time>2026-04-12T08:36:38.048Z</time></trkpt><trkpt lat="43.6440187" lon="6.6533655"><ele>571.0</ele><time>2026-04-12T08:36:39.049Z</time></trkpt><trkpt lat="43.6439638" lon="6.6535186"><ele>571.0</ele><time>2026-04-12T08:36:40.049Z</time></trkpt><trkpt lat="43.6439118" lon="6.6536752"><ele>571.75</ele><time>2026-04-12T08:36:41.049Z</time></trkpt><trkpt lat="43.6438642" lon="6.6538349"><ele>572.5</ele><time>2026-04-12T08:36:42.048Z</time></trkpt><trkpt lat="43.6438226" lon="6.6539985"><ele>573.25</ele><time>2026-04-12T08:36:43.049Z</time></trkpt><trkpt lat="43.6437897" lon="6.6541662"><ele>574.0</ele><time>2026-04-12T08:36:44.05Z</time></trkpt><trkpt lat="43.6437595" lon="6.6543347"><ele>573.75</ele><time>2026-04-12T08:36:45.049Z</time></trkpt><trkpt lat="43.6437276" lon="6.6545022"><ele>573.5</ele><time>2026-04-12T08:36:46.049Z</time></trkpt><trkpt lat="43.6436984" lon="6.6546705"><ele>573.25</ele><time>2026-04-12T08:36:47.048Z</time></trkpt><trkpt lat="43.643674" lon="6.6548413"><ele>573.0</ele><time>2026-04-12T08:36:48.048Z</time></trkpt><trkpt lat="43.6436608" lon="6.655015"><ele>573.0</ele><time>2026-04-12T08:36:49.048Z</time></trkpt><trkpt lat="43.6436578" lon="6.6551865"><ele>573.0</ele><time>2026-04-12T08:36:50.048Z</time></trkpt><trkpt lat="43.6436792" lon="6.6553548"><ele>573.0</ele><time>2026-04-12T08:36:51.049Z</time></trkpt><trkpt lat="43.6437133" lon="6.6555166"><ele>573.0</ele><time>2026-04-12T08:36:52.049Z</time></trkpt><trkpt lat="43.6437212" lon="6.6556715"><ele>571.75</ele><time>2026-04-12T08:36:53.049Z</time></trkpt><trkpt lat="43.6437026" lon="6.6558244"><ele>570.5</ele><time>2026-04-12T08:36:54.049Z</time></trkpt><trkpt lat="43.6436642" lon="6.6559735"><ele>569.25</ele><time>2026-04-12T08:36:55.049Z</time></trkpt><trkpt lat="43.6436178" lon="6.6561209"><ele>568.0</ele><time>2026-04-12T08:36:56.049Z</time></trkpt><trkpt lat="43.643577" lon="6.6562705"><ele>562.1999999999999</ele><time>2026-04-12T08:36:57.049Z</time></trkpt><trkpt lat="43.6435453" lon="6.6564174"><ele>556.4</ele><time>2026-04-12T08:36:58.049Z</time></trkpt><trkpt lat="43.6435264" lon="6.6565599"><ele>550.5999999999999</ele><time>2026-04-12T08:36:59.049Z</time></trkpt><trkpt lat="43.6435187" lon="6.6566961"><ele>544.8</ele><time>2026-04-12T08:37:00.05Z</time></trkpt><trkpt lat="43.6435521" lon="6.6568242"><ele>539.0</ele><time>2026-04-12T08:37:01.049Z</time></trkpt><trkpt lat="43.6436169" lon="6.6569369"><ele>542.4</ele><time>2026-04-12T08:37:02.049Z</time></trkpt><trkpt lat="43.6436837" lon="6.6570532"><ele>545.8</ele><time>2026-04-12T08:37:03.049Z</time></trkpt><trkpt lat="43.6437313" lon="6.6571891"><ele>549.2</ele><time>2026-04-12T08:37:04.049Z</time></trkpt><trkpt lat="43.6437548" lon="6.6573384"><ele>552.6</ele><time>2026-04-12T08:37:05.049Z</time></trkpt><trkpt lat="43.6437649" lon="6.6574933"><ele>556.0</ele><time>2026-04-12T08:37:06.049Z</time></trkpt><trkpt lat="43.6437707" lon="6.6576461"><ele>553.8</ele><time>2026-04-12T08:37:07.049Z</time></trkpt><trkpt lat="43.6437787" lon="6.6577878"><ele>551.6</ele><time>2026-04-12T08:37:08.049Z</time></trkpt><trkpt lat="43.6438054" lon="6.6579093"><ele>549.4</ele><time>2026-04-12T08:37:09.049Z</time></trkpt><trkpt lat="43.6438525" lon="6.6580135"><ele>547.2</ele><time>2026-04-12T08:37:10.049Z</time></trkpt><trkpt lat="43.6439166" lon="6.6580952"><ele>545.0</ele><time>2026-04-12T08:37:11.05Z</time></trkpt><trkpt lat="43.6439876" lon="6.6581514"><ele>545.0</ele><time>2026-04-12T08:37:12.049Z</time></trkpt><trkpt lat="43.644056" lon="6.6581975"><ele>545.0</ele><time>2026-04-12T08:37:13.049Z</time></trkpt><trkpt lat="43.6441107" lon="6.6582485"><ele>545.0</ele><time>2026-04-12T08:37:14.049Z</time></trkpt><trkpt lat="43.6441394" lon="6.6583937"><ele>545.0</ele><time>2026-04-12T08:37:16.049Z</time></trkpt><trkpt lat="43.6440393" lon="6.6584835"><ele>545.0</ele><time>2026-04-12T08:37:18.05Z</time></trkpt><trkpt lat="43.643964" lon="6.6584658"><ele>545.0</ele><time>2026-04-12T08:37:19.049Z</time></trkpt><trkpt lat="43.6438895" lon="6.6584193"><ele>545.0</ele><time>2026-04-12T08:37:20.049Z</time></trkpt><trkpt lat="43.6438172" lon="6.6583594"><ele>545.0</ele><time>2026-04-12T08:37:21.049Z</time></trkpt><trkpt lat="43.6437482" lon="6.65828"><ele>545.0</ele><time>2026-04-12T08:37:22.049Z</time></trkpt><trkpt lat="43.6436803" lon="6.6581858"><ele>545.0</ele><time>2026-04-12T08:37:23.049Z</time></trkpt><trkpt lat="43.6436177" lon="6.6580763"><ele>545.0</ele><time>2026-04-12T08:37:24.05Z</time></trkpt><trkpt lat="43.6435576" lon="6.6579592"><ele>542.8</ele><time>2026-04-12T08:37:25.05Z</time></trkpt><trkpt lat="43.6434987" lon="6.6578365"><ele>540.6</ele><time>2026-04-12T08:37:26.049Z</time></trkpt><trkpt lat="43.6434345" lon="6.657722"><ele>538.4</ele><time>2026-04-12T08:37:27.05Z</time></trkpt><trkpt lat="43.6433685" lon="6.6576336"><ele>536.2</ele><time>2026-04-12T08:37:28.05Z</time></trkpt><trkpt lat="43.6433041" lon="6.6575691"><ele>534.0</ele><time>2026-04-12T08:37:29.05Z</time></trkpt><trkpt lat="43.6432386" lon="6.6575196"><ele>534.0</ele><time>2026-04-12T08:37:30.049Z</time></trkpt><trkpt lat="43.6431729" lon="6.6574621"><ele>534.0</ele><time>2026-04-12T08:37:31.05Z</time></trkpt><trkpt lat="43.643114" lon="6.6573796"><ele>534.0</ele><time>2026-04-12T08:37:32.051Z</time></trkpt><trkpt lat="43.6430691" lon="6.6572701"><ele>534.0</ele><time>2026-04-12T08:37:33.051Z</time></trkpt><trkpt lat="43.6430378" lon="6.6571408"><ele>534.0</ele><time>2026-04-12T08:37:34.05Z</time></trkpt><trkpt lat="43.6430188" lon="6.6570018"><ele>535.0</ele><time>2026-04-12T08:37:35.05Z</time></trkpt><trkpt lat="43.6429993" lon="6.6568616"><ele>536.0</ele><time>2026-04-12T08:37:36.05Z</time></trkpt><trkpt lat="43.6429656" lon="6.656725"><ele>537.0</ele><time>2026-04-12T08:37:37.051Z</time></trkpt><trkpt lat="43.6429198" lon="6.6565923"><ele>538.0</ele><time>2026-04-12T08:37:38.051Z</time></trkpt><trkpt lat="43.642867" lon="6.6564616"><ele>539.0</ele><time>2026-04-12T08:37:39.05Z</time></trkpt><trkpt lat="43.6428158" lon="6.6563355"><ele>534.6</ele><time>2026-04-12T08:37:40.05Z</time></trkpt><trkpt lat="43.6427698" lon="6.6562101"><ele>530.2</ele><time>2026-04-12T08:37:41.051Z</time></trkpt><trkpt lat="43.6427365" lon="6.6560777"><ele>525.8000000000001</ele><time>2026-04-12T08:37:42.05Z</time></trkpt><trkpt lat="43.6427125" lon="6.6559416"><ele>521.4</ele><time>2026-04-12T08:37:43.05Z</time></trkpt><trkpt lat="43.6426814" lon="6.6558154"><ele>517.0</ele><time>2026-04-12T08:37:44.05Z</time></trkpt><trkpt lat="43.6426321" lon="6.655703"><ele>517.0</ele><time>2026-04-12T08:37:45.05Z</time></trkpt><trkpt lat="43.6425648" lon="6.6556064"><ele>517.0</ele><time>2026-04-12T08:37:46.05Z</time></trkpt><trkpt lat="43.6424912" lon="6.655515"><ele>517.0</ele><time>2026-04-12T08:37:47.05Z</time></trkpt><trkpt lat="43.6424209" lon="6.6554186"><ele>517.0</ele><time>2026-04-12T08:37:48.05Z</time></trkpt><trkpt lat="43.6423609" lon="6.6553183"><ele>517.0</ele><time>2026-04-12T08:37:49.05Z</time></trkpt><trkpt lat="43.6423148" lon="6.6552015"><ele>518.0</ele><time>2026-04-12T08:37:50.05Z</time></trkpt><trkpt lat="43.6422892" lon="6.6550662"><ele>519.0</ele><time>2026-04-12T08:37:51.05Z</time></trkpt><trkpt lat="43.6422784" lon="6.6549186"><ele>520.0</ele><time>2026-04-12T08:37:52.05Z</time></trkpt><trkpt lat="43.6422717" lon="6.6547673"><ele>521.0</ele><time>2026-04-12T08:37:53.051Z</time></trkpt><trkpt lat="43.6422689" lon="6.6546108"><ele>522.0</ele><time>2026-04-12T08:37:54.05Z</time></trkpt><trkpt lat="43.6422687" lon="6.6544451"><ele>522.0</ele><time>2026-04-12T08:37:55.051Z</time></trkpt><trkpt lat="43.6422708" lon="6.6542754"><ele>522.0</ele><time>2026-04-12T08:37:56.051Z</time></trkpt><trkpt lat="43.6422713" lon="6.6541047"><ele>522.0</ele><time>2026-04-12T08:37:57.05Z</time></trkpt><trkpt lat="43.6422708" lon="6.6539363"><ele>522.0</ele><time>2026-04-12T08:37:58.05Z</time></trkpt><trkpt lat="43.6422701" lon="6.6537731"><ele>520.25</ele><time>2026-04-12T08:37:59.05Z</time></trkpt><trkpt lat="43.6422683" lon="6.6536123"><ele>518.5</ele><time>2026-04-12T08:38:00.05Z</time></trkpt><trkpt lat="43.6422718" lon="6.6534467"><ele>516.75</ele><time>2026-04-12T08:38:01.05Z</time></trkpt><trkpt lat="43.6422832" lon="6.6532772"><ele>515.0</ele><time>2026-04-12T08:38:02.05Z</time></trkpt><trkpt lat="43.6423046" lon="6.6531061"><ele>515.0</ele><time>2026-04-12T08:38:03.05Z</time></trkpt><trkpt lat="43.6423358" lon="6.6529362"><ele>515.0</ele><time>2026-04-12T08:38:04.05Z</time></trkpt><trkpt lat="43.6423756" lon="6.6527691"><ele>515.0</ele><time>2026-04-12T08:38:05.051Z</time></trkpt><trkpt lat="43.6424158" lon="6.6526051"><ele>515.0</ele><time>2026-04-12T08:38:06.05Z</time></trkpt><trkpt lat="43.6424486" lon="6.6524379"><ele>513.0</ele><time>2026-04-12T08:38:07.05Z</time></trkpt><trkpt lat="43.6424737" lon="6.6522705"><ele>511.0</ele><time>2026-04-12T08:38:08.051Z</time></trkpt><trkpt lat="43.6424988" lon="6.652104"><ele>509.0</ele><time>2026-04-12T08:38:09.05Z</time></trkpt><trkpt lat="43.6425305" lon="6.6519388"><ele>507.0</ele><time>2026-04-12T08:38:10.051Z</time></trkpt><trkpt lat="43.6425736" lon="6.6517848"><ele>504.0</ele><time>2026-04-12T08:38:11.051Z</time></trkpt><trkpt lat="43.6426269" lon="6.6516404"><ele>501.0</ele><time>2026-04-12T08:38:12.051Z</time></trkpt><trkpt lat="43.6426892" lon="6.6515006"><ele>498.0</ele><time>2026-04-12T08:38:13.051Z</time></trkpt><trkpt lat="43.6427591" lon="6.6513656"><ele>495.0</ele><time>2026-04-12T08:38:14.051Z</time></trkpt><trkpt lat="43.6428535" lon="6.651252"><ele>496.5</ele><time>2026-04-12T08:38:15.05Z</time></trkpt><trkpt lat="43.6429518" lon="6.6511488"><ele>498.0</ele><time>2026-04-12T08:38:16.051Z</time></trkpt><trkpt lat="43.6430493" lon="6.6510453"><ele>499.5</ele><time>2026-04-12T08:38:17.051Z</time></trkpt><trkpt lat="43.6431406" lon="6.6509303"><ele>501.0</ele><time>2026-04-12T08:38:18.051Z</time></trkpt><trkpt lat="43.6432188" lon="6.6508032"><ele>501.0</ele><time>2026-04-12T08:38:19.05Z</time></trkpt><trkpt lat="43.6432858" lon="6.650674"><ele>501.0</ele><time>2026-04-12T08:38:20.051Z</time></trkpt><trkpt lat="43.643347" lon="6.6505523"><ele>501.0</ele><time>2026-04-12T08:38:21.05Z</time></trkpt><trkpt lat="43.6434059" lon="6.6504469"><ele>501.0</ele><time>2026-04-12T08:38:22.051Z</time></trkpt><trkpt lat="43.6434748" lon="6.6503502"><ele>501.0</ele><time>2026-04-12T08:38:23.05Z</time></trkpt><trkpt lat="43.6435601" lon="6.6502728"><ele>500.6666666666667</ele><time>2026-04-12T08:38:24.05Z</time></trkpt><trkpt lat="43.6436511" lon="6.6502191"><ele>500.33333333333337</ele><time>2026-04-12T08:38:25.051Z</time></trkpt><trkpt lat="43.6437308" lon="6.6501718"><ele>500.0</ele><time>2026-04-12T08:38:26.05Z</time></trkpt><trkpt lat="43.6437969" lon="6.6500986"><ele>499.6666666666667</ele><time>2026-04-12T08:38:27.051Z</time></trkpt><trkpt lat="43.6438509" lon="6.6500039"><ele>499.33333333333337</ele><time>2026-04-12T08:38:28.051Z</time></trkpt><trkpt lat="43.6439042" lon="6.6499044"><ele>499.0</ele><time>2026-04-12T08:38:29.051Z</time></trkpt><trkpt lat="43.6439652" lon="6.6498138"><ele>499.0</ele><time>2026-04-12T08:38:30.051Z</time></trkpt><trkpt lat="43.6440427" lon="6.6497436"><ele>499.0</ele><time>2026-04-12T08:38:31.051Z</time></trkpt><trkpt lat="43.6441349" lon="6.6496971"><ele>499.0</ele><time>2026-04-12T08:38:32.051Z</time></trkpt><trkpt lat="43.6442346" lon="6.6496618"><ele>499.0</ele><time>2026-04-12T08:38:33.052Z</time></trkpt><trkpt lat="43.6443248" lon="6.6496276"><ele>499.0</ele><time>2026-04-12T08:38:34.051Z</time></trkpt><trkpt lat="43.6443921" lon="6.6495866"><ele>499.0</ele><time>2026-04-12T08:38:35.051Z</time></trkpt><trkpt lat="43.6444154" lon="6.6494615"><ele>499.0</ele><time>2026-04-12T08:38:37.051Z</time></trkpt><trkpt lat="43.6443337" lon="6.6493749"><ele>499.0</ele><time>2026-04-12T08:38:39.051Z</time></trkpt><trkpt lat="43.6442618" lon="6.6494059"><ele>499.0</ele><time>2026-04-12T08:38:40.051Z</time></trkpt><trkpt lat="43.6441843" lon="6.6494702"><ele>499.0</ele><time>2026-04-12T08:38:41.052Z</time></trkpt><trkpt lat="43.6440938" lon="6.6495391"><ele>499.0</ele><time>2026-04-12T08:38:42.051Z</time></trkpt><trkpt lat="43.6439954" lon="6.6496043"><ele>499.0</ele><time>2026-04-12T08:38:43.051Z</time></trkpt><trkpt lat="43.6438922" lon="6.6496616"><ele>499.0</ele><time>2026-04-12T08:38:44.051Z</time></trkpt><trkpt lat="43.6437837" lon="6.6497175"><ele>499.0</ele><time>2026-04-12T08:38:45.051Z</time></trkpt><trkpt lat="43.643674" lon="6.649794"><ele>494.0</ele><time>2026-04-12T08:38:46.051Z</time></trkpt><trkpt lat="43.6435674" lon="6.6498922"><ele>489.0</ele><time>2026-04-12T08:38:47.051Z</time></trkpt><trkpt lat="43.643455" lon="6.6499731"><ele>484.0</ele><time>2026-04-12T08:38:48.051Z</time></trkpt><trkpt lat="43.6433435" lon="6.6500376"><ele>479.0</ele><time>2026-04-12T08:38:49.051Z</time></trkpt><trkpt lat="43.6432287" lon="6.6500728"><ele>479.0</ele><time>2026-04-12T08:38:50.051Z</time></trkpt><trkpt lat="43.643108" lon="6.6501009"><ele>479.0</ele><time>2026-04-12T08:38:51.051Z</time></trkpt><trkpt lat="43.6429795" lon="6.6501476"><ele>479.0</ele><time>2026-04-12T08:38:52.051Z</time></trkpt><trkpt lat="43.6428585" lon="6.6502201"><ele>479.0</ele><time>2026-04-12T08:38:53.051Z</time></trkpt><trkpt lat="43.642745" lon="6.6502979"><ele>479.5</ele><time>2026-04-12T08:38:54.051Z</time></trkpt><trkpt lat="43.6426295" lon="6.6503651"><ele>480.0</ele><time>2026-04-12T08:38:55.051Z</time></trkpt><trkpt lat="43.642504" lon="6.6504099"><ele>480.5</ele><time>2026-04-12T08:38:56.051Z</time></trkpt><trkpt lat="43.6423703" lon="6.6504272"><ele>481.0</ele><time>2026-04-12T08:38:57.051Z</time></trkpt><trkpt lat="43.6422348" lon="6.6504372"><ele>481.0</ele><time>2026-04-12T08:38:58.051Z</time></trkpt><trkpt lat="43.6420984" lon="6.6504553"><ele>481.0</ele><time>2026-04-12T08:38:59.051Z</time></trkpt><trkpt lat="43.6419661" lon="6.6504901"><ele>481.0</ele><time>2026-04-12T08:39:00.052Z</time></trkpt><trkpt lat="43.6418358" lon="6.6505331"><ele>481.0</ele><time>2026-04-12T08:39:01.051Z</time></trkpt><trkpt lat="43.6417058" lon="6.6505777"><ele>477.75</ele><time>2026-04-12T08:39:02.052Z</time></trkpt><trkpt lat="43.6415746" lon="6.6506181"><ele>474.5</ele><time>2026-04-12T08:39:03.052Z</time></trkpt><trkpt lat="43.6414451" lon="6.6506519"><ele>471.25</ele><time>2026-04-12T08:39:04.051Z</time></trkpt><trkpt lat="43.6413221" lon="6.6506662"><ele>468.0</ele><time>2026-04-12T08:39:05.052Z</time></trkpt><trkpt lat="43.6412167" lon="6.6506477"><ele>464.0</ele><time>2026-04-12T08:39:06.052Z</time></trkpt><trkpt lat="43.6411155" lon="6.6506344"><ele>459.99999999999994</ele><time>2026-04-12T08:39:07.052Z</time></trkpt><trkpt lat="43.6410234" lon="6.6506637"><ele>455.99999999999994</ele><time>2026-04-12T08:39:08.052Z</time></trkpt><trkpt lat="43.6409587" lon="6.6507627"><ele>452.0</ele><time>2026-04-12T08:39:09.052Z</time></trkpt><trkpt lat="43.6409264" lon="6.6509026"><ele>448.0</ele><time>2026-04-12T08:39:10.051Z</time></trkpt><trkpt lat="43.6409225" lon="6.6510583"><ele>448.25</ele><time>2026-04-12T08:39:11.052Z</time></trkpt><trkpt lat="43.6409286" lon="6.6512197"><ele>448.5</ele><time>2026-04-12T08:39:12.051Z</time></trkpt><trkpt lat="43.6409306" lon="6.6513827"><ele>448.75</ele><time>2026-04-12T08:39:13.053Z</time></trkpt><trkpt lat="43.6409197" lon="6.651546"><ele>449.0</ele><time>2026-04-12T08:39:14.052Z</time></trkpt><trkpt lat="43.640899" lon="6.6517082"><ele>449.0</ele><time>2026-04-12T08:39:15.052Z</time></trkpt><trkpt lat="43.6408729" lon="6.6518696"><ele>449.0</ele><time>2026-04-12T08:39:16.052Z</time></trkpt><trkpt lat="43.6408448" lon="6.6520332"><ele>449.0</ele><time>2026-04-12T08:39:17.052Z</time></trkpt><trkpt lat="43.6408009" lon="6.652188"><ele>449.0</ele><time>2026-04-12T08:39:18.052Z</time></trkpt><trkpt lat="43.6407327" lon="6.6523203"><ele>450.75</ele><time>2026-04-12T08:39:19.052Z</time></trkpt><trkpt lat="43.6406383" lon="6.6524166"><ele>452.5</ele><time>2026-04-12T08:39:20.053Z</time></trkpt><trkpt lat="43.6405283" lon="6.6524776"><ele>454.25</ele><time>2026-04-12T08:39:21.052Z</time></trkpt><trkpt lat="43.6404155" lon="6.6525249"><ele>456.0</ele><time>2026-04-12T08:39:22.052Z</time></trkpt><trkpt lat="43.6403001" lon="6.6525626"><ele>451.75</ele><time>2026-04-12T08:39:23.052Z</time></trkpt><trkpt lat="43.6401842" lon="6.6526041"><ele>447.5</ele><time>2026-04-12T08:39:24.052Z</time></trkpt><trkpt lat="43.640069" lon="6.6526556"><ele>443.25</ele><time>2026-04-12T08:39:25.052Z</time></trkpt><trkpt lat="43.6399536" lon="6.6527127"><ele>439.0</ele><time>2026-04-12T08:39:26.052Z</time></trkpt><trkpt lat="43.6398372" lon="6.6527744"><ele>441.5</ele><time>2026-04-12T08:39:27.052Z</time></trkpt><trkpt lat="43.6397218" lon="6.6528422"><ele>444.0</ele><time>2026-04-12T08:39:28.053Z</time></trkpt><trkpt lat="43.6396063" lon="6.6529147"><ele>446.5</ele><time>2026-04-12T08:39:29.052Z</time></trkpt><trkpt lat="43.6394932" lon="6.6529993"><ele>449.0</ele><time>2026-04-12T08:39:30.052Z</time></trkpt><trkpt lat="43.6393954" lon="6.6531182"><ele>445.0</ele><time>2026-04-12T08:39:31.052Z</time></trkpt><trkpt lat="43.639319" lon="6.6532476"><ele>441.0</ele><time>2026-04-12T08:39:32.052Z</time></trkpt><trkpt lat="43.63927" lon="6.6533845"><ele>437.0</ele><time>2026-04-12T08:39:33.052Z</time></trkpt><trkpt lat="43.6392574" lon="6.65353"><ele>433.0</ele><time>2026-04-12T08:39:34.053Z</time></trkpt><trkpt lat="43.6392786" lon="6.6536696"><ele>429.0</ele><time>2026-04-12T08:39:35.052Z</time></trkpt><trkpt lat="43.6393451" lon="6.6537889"><ele>427.8333333333333</ele><time>2026-04-12T08:39:36.052Z</time></trkpt><trkpt lat="43.6394051" lon="6.6538929"><ele>426.66666666666663</ele><time>2026-04-12T08:39:37.052Z</time></trkpt><trkpt lat="43.639463" lon="6.6539874"><ele>425.5</ele><time>2026-04-12T08:39:38.052Z</time></trkpt><trkpt lat="43.6394894" lon="6.6540783"><ele>424.3333333333333</ele><time>2026-04-12T08:39:39.052Z</time></trkpt><trkpt lat="43.639465" lon="6.654168"><ele>423.16666666666663</ele><time>2026-04-12T08:39:40.052Z</time></trkpt><trkpt lat="43.6394067" lon="6.6542286"><ele>422.0</ele><time>2026-04-12T08:39:41.052Z</time></trkpt><trkpt lat="43.6393315" lon="6.6542407"><ele>422.0</ele><time>2026-04-12T08:39:42.052Z</time></trkpt><trkpt lat="43.6392556" lon="6.6542219"><ele>422.0</ele><time>2026-04-12T08:39:43.052Z</time></trkpt><trkpt lat="43.6391906" lon="6.6541425"><ele>422.0</ele><time>2026-04-12T08:39:44.053Z</time></trkpt><trkpt lat="43.6391374" lon="6.6540349"><ele>422.0</ele><time>2026-04-12T08:39:45.052Z</time></trkpt><trkpt lat="43.6390806" lon="6.6539252"><ele>422.0</ele><time>2026-04-12T08:39:46.052Z</time></trkpt><trkpt lat="43.6390165" lon="6.6538074"><ele>422.0</ele><time>2026-04-12T08:39:47.052Z</time></trkpt><trkpt lat="43.6389524" lon="6.6536861"><ele>422.0</ele><time>2026-04-12T08:39:48.053Z</time></trkpt><trkpt lat="43.6388879" lon="6.6535564"><ele>422.0</ele><time>2026-04-12T08:39:49.052Z</time></trkpt><trkpt lat="43.6388284" lon="6.6534205"><ele>422.0</ele><time>2026-04-12T08:39:50.052Z</time></trkpt><trkpt lat="43.6387799" lon="6.6532905"><ele>422.0</ele><time>2026-04-12T08:39:51.053Z</time></trkpt><trkpt lat="43.63874" lon="6.6531728"><ele>421.99999999999994</ele><time>2026-04-12T08:39:52.052Z</time></trkpt><trkpt lat="43.6387047" lon="6.6530637"><ele>422.0</ele><time>2026-04-12T08:39:53.053Z</time></trkpt><trkpt lat="43.6386816" lon="6.6529625"><ele>422.0</ele><time>2026-04-12T08:39:54.053Z</time></trkpt><trkpt lat="43.6386686" lon="6.6528591"><ele>422.0</ele><time>2026-04-12T08:39:55.052Z</time></trkpt><trkpt lat="43.6386989" lon="6.6527525"><ele>421.99999999999994</ele><time>2026-04-12T08:39:56.053Z</time></trkpt><trkpt lat="43.6387478" lon="6.6526504"><ele>422.0</ele><time>2026-04-12T08:39:57.053Z</time></trkpt><trkpt lat="43.6388303" lon="6.6525576"><ele>422.0</ele><time>2026-04-12T08:39:58.053Z</time></trkpt><trkpt lat="43.6389191" lon="6.6524699"><ele>422.0</ele><time>2026-04-12T08:39:59.052Z</time></trkpt><trkpt lat="43.6390123" lon="6.652384"><ele>422.0</ele><time>2026-04-12T08:40:00.053Z</time></trkpt><trkpt lat="43.639107" lon="6.6522978"><ele>422.0</ele><time>2026-04-12T08:40:01.052Z</time></trkpt><trkpt lat="43.6392016" lon="6.652208"><ele>422.0</ele><time>2026-04-12T08:40:02.053Z</time></trkpt><trkpt lat="43.6392927" lon="6.6521063"><ele>422.0</ele><time>2026-04-12T08:40:03.053Z</time></trkpt><trkpt lat="43.6393553" lon="6.6519763"><ele>422.0</ele><time>2026-04-12T08:40:04.053Z</time></trkpt><trkpt lat="43.6393901" lon="6.6518267"><ele>422.0</ele><time>2026-04-12T08:40:05.053Z</time></trkpt><trkpt lat="43.6393933" lon="6.6516673"><ele>422.0</ele><time>2026-04-12T08:40:06.053Z</time></trkpt><trkpt lat="43.6393781" lon="6.6515071"><ele>418.75</ele><time>2026-04-12T08:40:07.053Z</time></trkpt><trkpt lat="43.6393589" lon="6.6513471"><ele>415.5</ele><time>2026-04-12T08:40:08.053Z</time></trkpt><trkpt lat="43.6393393" lon="6.6511872"><ele>412.25</ele><time>2026-04-12T08:40:09.053Z</time></trkpt><trkpt lat="43.6393202" lon="6.6510267"><ele>409.0</ele><time>2026-04-12T08:40:10.054Z</time></trkpt><trkpt lat="43.6393013" lon="6.650866"><ele>407.5</ele><time>2026-04-12T08:40:11.053Z</time></trkpt><trkpt lat="43.6392843" lon="6.6507052"><ele>406.0</ele><time>2026-04-12T08:40:12.053Z</time></trkpt><trkpt lat="43.6392729" lon="6.6505429"><ele>404.5</ele><time>2026-04-12T08:40:13.053Z</time></trkpt><trkpt lat="43.6392666" lon="6.6503757"><ele>403.0</ele><time>2026-04-12T08:40:14.053Z</time></trkpt><trkpt lat="43.6392722" lon="6.6502076"><ele>401.75</ele><time>2026-04-12T08:40:15.054Z</time></trkpt><trkpt lat="43.6392887" lon="6.6500405"><ele>400.5</ele><time>2026-04-12T08:40:16.054Z</time></trkpt><trkpt lat="43.6393147" lon="6.6498769"><ele>399.25</ele><time>2026-04-12T08:40:17.053Z</time></trkpt><trkpt lat="43.639346" lon="6.6497178"><ele>398.0</ele><time>2026-04-12T08:40:18.053Z</time></trkpt><trkpt lat="43.6393756" lon="6.6495677"><ele>398.0</ele><time>2026-04-12T08:40:19.053Z</time></trkpt><trkpt lat="43.6393968" lon="6.6494212"><ele>398.0</ele><time>2026-04-12T08:40:20.053Z</time></trkpt><trkpt lat="43.6393893" lon="6.6492756"><ele>398.0</ele><time>2026-04-12T08:40:21.053Z</time></trkpt><trkpt lat="43.6393579" lon="6.6491317"><ele>398.0</ele><time>2026-04-12T08:40:22.053Z</time></trkpt><trkpt lat="43.6392941" lon="6.6490114"><ele>398.0</ele><time>2026-04-12T08:40:23.053Z</time></trkpt><trkpt lat="43.6392139" lon="6.6489028"><ele>398.0</ele><time>2026-04-12T08:40:24.053Z</time></trkpt><trkpt lat="43.6391218" lon="6.6488119"><ele>398.0</ele><time>2026-04-12T08:40:25.053Z</time></trkpt><trkpt lat="43.6390259" lon="6.6487334"><ele>398.0</ele><time>2026-04-12T08:40:26.054Z</time></trkpt><trkpt lat="43.6389225" lon="6.6486694"><ele>398.0</ele><time>2026-04-12T08:40:27.053Z</time></trkpt><trkpt lat="43.6388291" lon="6.648585"><ele>397.4</ele><time>2026-04-12T08:40:28.053Z</time></trkpt><trkpt lat="43.63875" lon="6.6484813"><ele>396.79999999999995</ele><time>2026-04-12T08:40:29.053Z</time></trkpt><trkpt lat="43.6386758" lon="6.6483722"><ele>396.2</ele><time>2026-04-12T08:40:30.054Z</time></trkpt><trkpt lat="43.6386072" lon="6.6482543"><ele>395.6</ele><time>2026-04-12T08:40:31.053Z</time></trkpt><trkpt lat="43.6385414" lon="6.648131"><ele>395.0</ele><time>2026-04-12T08:40:32.053Z</time></trkpt><trkpt lat="43.6384771" lon="6.6480023"><ele>395.0</ele><time>2026-04-12T08:40:33.053Z</time></trkpt><trkpt lat="43.6384177" lon="6.6478677"><ele>395.0</ele><time>2026-04-12T08:40:34.053Z</time></trkpt><trkpt lat="43.6383608" lon="6.6477329"><ele>395.0</ele><time>2026-04-12T08:40:35.053Z</time></trkpt><trkpt lat="43.6383026" lon="6.6476074"><ele>395.0</ele><time>2026-04-12T08:40:36.053Z</time></trkpt><trkpt lat="43.6382458" lon="6.6474947"><ele>395.0</ele><time>2026-04-12T08:40:37.053Z</time></trkpt><trkpt lat="43.6381954" lon="6.6474023"><ele>394.4</ele><time>2026-04-12T08:40:38.053Z</time></trkpt><trkpt lat="43.6381532" lon="6.6473328"><ele>393.8</ele><time>2026-04-12T08:40:39.053Z</time></trkpt><trkpt lat="43.6380672" lon="6.6472569"><ele>393.20000000000005</ele><time>2026-04-12T08:40:41.054Z</time></trkpt><trkpt lat="43.6379354" lon="6.6473291"><ele>392.6</ele><time>2026-04-12T08:40:43.053Z</time></trkpt><trkpt lat="43.6378523" lon="6.6473863"><ele>392.0</ele><time>2026-04-12T08:40:44.054Z</time></trkpt><trkpt lat="43.6377571" lon="6.6474369"><ele>389.8</ele><time>2026-04-12T08:40:45.055Z</time></trkpt><trkpt lat="43.6376483" lon="6.6474865"><ele>387.6</ele><time>2026-04-12T08:40:46.054Z</time></trkpt><trkpt lat="43.6375395" lon="6.6475309"><ele>385.40000000000003</ele><time>2026-04-12T08:40:47.054Z</time></trkpt><trkpt lat="43.6374345" lon="6.6475596"><ele>383.20000000000005</ele><time>2026-04-12T08:40:48.054Z</time></trkpt><trkpt lat="43.6373396" lon="6.6475701"><ele>381.0</ele><time>2026-04-12T08:40:49.054Z</time></trkpt><trkpt lat="43.6372551" lon="6.647568"><ele>381.0</ele><time>2026-04-12T08:40:50.054Z</time></trkpt><trkpt lat="43.63717" lon="6.6475586"><ele>381.0</ele><time>2026-04-12T08:40:51.054Z</time></trkpt><trkpt lat="43.6370776" lon="6.6475517"><ele>381.0</ele><time>2026-04-12T08:40:52.054Z</time></trkpt><trkpt lat="43.636973" lon="6.6475508"><ele>381.0</ele><time>2026-04-12T08:40:53.054Z</time></trkpt><trkpt lat="43.6368623" lon="6.6475461"><ele>381.0</ele><time>2026-04-12T08:40:54.054Z</time></trkpt><trkpt lat="43.6367477" lon="6.6475388"><ele>379.5</ele><time>2026-04-12T08:40:55.054Z</time></trkpt><trkpt lat="43.636633" lon="6.6475313"><ele>378.0</ele><time>2026-04-12T08:40:56.055Z</time></trkpt><trkpt lat="43.6365149" lon="6.6475283"><ele>376.5</ele><time>2026-04-12T08:40:57.054Z</time></trkpt><trkpt lat="43.6363955" lon="6.6475248"><ele>375.0</ele><time>2026-04-12T08:40:58.054Z</time></trkpt><trkpt lat="43.6362755" lon="6.6475242"><ele>375.0</ele><time>2026-04-12T08:40:59.054Z</time></trkpt><trkpt lat="43.6361601" lon="6.6475519"><ele>375.0</ele><time>2026-04-12T08:41:00.055Z</time></trkpt><trkpt lat="43.6360611" lon="6.6476245"><ele>375.0</ele><time>2026-04-12T08:41:01.054Z</time></trkpt><trkpt lat="43.6359879" lon="6.6477434"><ele>375.0</ele><time>2026-04-12T08:41:02.054Z</time></trkpt><trkpt lat="43.6359412" lon="6.6478907"><ele>373.25</ele><time>2026-04-12T08:41:03.054Z</time></trkpt><trkpt lat="43.6359098" lon="6.6480485"><ele>371.5</ele><time>2026-04-12T08:41:04.054Z</time></trkpt><trkpt lat="43.635865" lon="6.6481984"><ele>369.75</ele><time>2026-04-12T08:41:05.054Z</time></trkpt><trkpt lat="43.6357962" lon="6.6483279"><ele>368.0</ele><time>2026-04-12T08:41:06.054Z</time></trkpt><trkpt lat="43.6357043" lon="6.6484311"><ele>368.0</ele><time>2026-04-12T08:41:07.054Z</time></trkpt><trkpt lat="43.6356013" lon="6.6485169"><ele>368.0</ele><time>2026-04-12T08:41:08.054Z</time></trkpt><trkpt lat="43.6354954" lon="6.6485988"><ele>368.0</ele><time>2026-04-12T08:41:09.054Z</time></trkpt><trkpt lat="43.6353873" lon="6.6486786"><ele>368.0</ele><time>2026-04-12T08:41:10.055Z</time></trkpt><trkpt lat="43.6352794" lon="6.6487604"><ele>366.0</ele><time>2026-04-12T08:41:11.054Z</time></trkpt><trkpt lat="43.6351721" lon="6.6488467"><ele>364.0</ele><time>2026-04-12T08:41:12.054Z</time></trkpt><trkpt lat="43.6350673" lon="6.6489405"><ele>362.0</ele><time>2026-04-12T08:41:13.054Z</time></trkpt><trkpt lat="43.6349693" lon="6.6490482"><ele>360.0</ele><time>2026-04-12T08:41:14.054Z</time></trkpt><trkpt lat="43.6348795" lon="6.6491683"><ele>360.0</ele><time>2026-04-12T08:41:15.055Z</time></trkpt><trkpt lat="43.6347937" lon="6.649294"><ele>360.0</ele><time>2026-04-12T08:41:16.054Z</time></trkpt><trkpt lat="43.6347128" lon="6.6494186"><ele>360.0</ele><time>2026-04-12T08:41:17.054Z</time></trkpt><trkpt lat="43.6346383" lon="6.6495404"><ele>360.0</ele><time>2026-04-12T08:41:18.054Z</time></trkpt><trkpt lat="43.634566" lon="6.6496575"><ele>359.8333333333333</ele><time>2026-04-12T08:41:19.054Z</time></trkpt><trkpt lat="43.6344972" lon="6.6497699"><ele>359.6666666666667</ele><time>2026-04-12T08:41:20.054Z</time></trkpt><trkpt lat="43.6344348" lon="6.6498756"><ele>359.5</ele><time>2026-04-12T08:41:21.054Z</time></trkpt><trkpt lat="43.6343834" lon="6.6499701"><ele>359.33333333333337</ele><time>2026-04-12T08:41:22.054Z</time></trkpt><trkpt lat="43.6343437" lon="6.6500618"><ele>359.1666666666667</ele><time>2026-04-12T08:41:23.054Z</time></trkpt><trkpt lat="43.6343096" lon="6.6501481"><ele>359.0</ele><time>2026-04-12T08:41:24.055Z</time></trkpt><trkpt lat="43.634279" lon="6.6502323"><ele>358.0</ele><time>2026-04-12T08:41:25.054Z</time></trkpt><trkpt lat="43.63425" lon="6.6503207"><ele>357.0</ele><time>2026-04-12T08:41:26.055Z</time></trkpt><trkpt lat="43.6342226" lon="6.6504115"><ele>356.0</ele><time>2026-04-12T08:41:27.055Z</time></trkpt><trkpt lat="43.6341979" lon="6.6504942"><ele>355.0</ele><time>2026-04-12T08:41:28.054Z</time></trkpt><trkpt lat="43.6341273" lon="6.6506098"><ele>354.0</ele><time>2026-04-12T08:41:30.055Z</time></trkpt><trkpt lat="43.6340258" lon="6.6506329"><ele>353.0</ele><time>2026-04-12T08:41:32.055Z</time></trkpt><trkpt lat="43.6339023" lon="6.6505618"><ele>353.0</ele><time>2026-04-12T08:41:34.054Z</time></trkpt><trkpt lat="43.633835" lon="6.6505031"><ele>353.0</ele><time>2026-04-12T08:41:35.055Z</time></trkpt><trkpt lat="43.633763" lon="6.6504424"><ele>353.0</ele><time>2026-04-12T08:41:36.055Z</time></trkpt><trkpt lat="43.6336855" lon="6.6503824"><ele>353.0</ele><time>2026-04-12T08:41:37.055Z</time></trkpt><trkpt lat="43.6336022" lon="6.6503227"><ele>353.0</ele><time>2026-04-12T08:41:38.055Z</time></trkpt><trkpt lat="43.6335159" lon="6.6502599"><ele>353.0</ele><time>2026-04-12T08:41:39.055Z</time></trkpt><trkpt lat="43.6334293" lon="6.6501889"><ele>352.0</ele><time>2026-04-12T08:41:40.055Z</time></trkpt><trkpt lat="43.6333399" lon="6.6501172"><ele>351.0</ele><time>2026-04-12T08:41:41.056Z</time></trkpt><trkpt lat="43.6332479" lon="6.6500453"><ele>350.0</ele><time>2026-04-12T08:41:42.056Z</time></trkpt><trkpt lat="43.6331543" lon="6.6499738"><ele>349.0</ele><time>2026-04-12T08:41:43.056Z</time></trkpt><trkpt lat="43.6330592" lon="6.649906"><ele>348.0</ele><time>2026-04-12T08:41:44.056Z</time></trkpt><trkpt lat="43.6329625" lon="6.6498393"><ele>348.0</ele><time>2026-04-12T08:41:45.055Z</time></trkpt><trkpt lat="43.6328656" lon="6.6497737"><ele>348.0</ele><time>2026-04-12T08:41:46.055Z</time></trkpt><trkpt lat="43.6327689" lon="6.6497083"><ele>348.0</ele><time>2026-04-12T08:41:47.055Z</time></trkpt><trkpt lat="43.6326711" lon="6.649643"><ele>348.0</ele><time>2026-04-12T08:41:48.055Z</time></trkpt><trkpt lat="43.6325715" lon="6.6495731"><ele>348.0</ele><time>2026-04-12T08:41:49.055Z</time></trkpt><trkpt lat="43.6324716" lon="6.6494997"><ele>347.0</ele><time>2026-04-12T08:41:50.055Z</time></trkpt><trkpt lat="43.6323729" lon="6.6494256"><ele>346.0</ele><time>2026-04-12T08:41:51.055Z</time></trkpt><trkpt lat="43.6322692" lon="6.6493566"><ele>345.0</ele><time>2026-04-12T08:41:52.055Z</time></trkpt><trkpt lat="43.6321654" lon="6.6492879"><ele>344.0</ele><time>2026-04-12T08:41:53.056Z</time></trkpt><trkpt lat="43.632065" lon="6.6492158"><ele>343.2</ele><time>2026-04-12T08:41:54.055Z</time></trkpt><trkpt lat="43.6319658" lon="6.6491452"><ele>342.4</ele><time>2026-04-12T08:41:55.056Z</time></trkpt><trkpt lat="43.6318672" lon="6.6490806"><ele>341.6</ele><time>2026-04-12T08:41:56.055Z</time></trkpt><trkpt lat="43.6317668" lon="6.6490287"><ele>340.8</ele><time>2026-04-12T08:41:57.055Z</time></trkpt><trkpt lat="43.6316618" lon="6.649"><ele>340.0</ele><time>2026-04-12T08:41:58.055Z</time></trkpt><trkpt lat="43.6315546" lon="6.648997"><ele>340.0</ele><time>2026-04-12T08:41:59.055Z</time></trkpt><trkpt lat="43.6314487" lon="6.6490155"><ele>340.0</ele><time>2026-04-12T08:42:00.056Z</time></trkpt><trkpt lat="43.6313502" lon="6.6490539"><ele>340.0</ele><time>2026-04-12T08:42:01.055Z</time></trkpt><trkpt lat="43.6312671" lon="6.6491264"><ele>340.0</ele><time>2026-04-12T08:42:02.055Z</time></trkpt><trkpt lat="43.6312086" lon="6.649232"><ele>340.0</ele><time>2026-04-12T08:42:03.056Z</time></trkpt><trkpt lat="43.6311611" lon="6.6493475"><ele>340.16666666666663</ele><time>2026-04-12T08:42:04.055Z</time></trkpt><trkpt lat="43.631134" lon="6.6494679"><ele>340.3333333333333</ele><time>2026-04-12T08:42:05.055Z</time></trkpt><trkpt lat="43.6311003" lon="6.649578"><ele>340.5</ele><time>2026-04-12T08:42:06.055Z</time></trkpt><trkpt lat="43.6310544" lon="6.6496712"><ele>340.6666666666667</ele><time>2026-04-12T08:42:07.055Z</time></trkpt><trkpt lat="43.6309998" lon="6.6497532"><ele>340.83333333333337</ele><time>2026-04-12T08:42:08.055Z</time></trkpt><trkpt lat="43.6309337" lon="6.6498208"><ele>341.0</ele><time>2026-04-12T08:42:09.055Z</time></trkpt><trkpt lat="43.6308625" lon="6.6498815"><ele>341.0</ele><time>2026-04-12T08:42:10.056Z</time></trkpt><trkpt lat="43.630788" lon="6.6499263"><ele>341.0</ele><time>2026-04-12T08:42:11.055Z</time></trkpt><trkpt lat="43.6307108" lon="6.6499583"><ele>341.0</ele><time>2026-04-12T08:42:12.056Z</time></trkpt><trkpt lat="43.6306305" lon="6.6499788"><ele>341.0</ele><time>2026-04-12T08:42:13.056Z</time></trkpt><trkpt lat="43.6305495" lon="6.649988"><ele>341.0</ele><time>2026-04-12T08:42:14.055Z</time></trkpt><trkpt lat="43.6304662" lon="6.6499888"><ele>341.0</ele><time>2026-04-12T08:42:15.056Z</time></trkpt><trkpt lat="43.6303832" lon="6.649972"><ele>341.0</ele><time>2026-04-12T08:42:16.055Z</time></trkpt><trkpt lat="43.630299" lon="6.6499511"><ele>341.0</ele><time>2026-04-12T08:42:17.055Z</time></trkpt><trkpt lat="43.6302147" lon="6.6499198"><ele>341.0</ele><time>2026-04-12T08:42:18.055Z</time></trkpt><trkpt lat="43.6301293" lon="6.6498865"><ele>341.0</ele><time>2026-04-12T08:42:19.055Z</time></trkpt><trkpt lat="43.6300426" lon="6.6498547"><ele>341.0</ele><time>2026-04-12T08:42:20.057Z</time></trkpt><trkpt lat="43.6299546" lon="6.6498217"><ele>341.0</ele><time>2026-04-12T08:42:21.056Z</time></trkpt><trkpt lat="43.6298642" lon="6.6497919"><ele>341.0</ele><time>2026-04-12T08:42:22.056Z</time></trkpt><trkpt lat="43.6297734" lon="6.6497636"><ele>341.0</ele><time>2026-04-12T08:42:23.056Z</time></trkpt><trkpt lat="43.629679" lon="6.6497452"><ele>341.0</ele><time>2026-04-12T08:42:24.057Z</time></trkpt><trkpt lat="43.6295817" lon="6.6497459"><ele>341.0</ele><time>2026-04-12T08:42:25.056Z</time></trkpt><trkpt lat="43.6294848" lon="6.6497697"><ele>341.0</ele><time>2026-04-12T08:42:26.055Z</time></trkpt><trkpt lat="43.6293891" lon="6.6498081"><ele>341.0</ele><time>2026-04-12T08:42:27.056Z</time></trkpt><trkpt lat="43.6292985" lon="6.6498608"><ele>341.0</ele><time>2026-04-12T08:42:28.056Z</time></trkpt><trkpt lat="43.6292105" lon="6.6499202"><ele>341.0</ele><time>2026-04-12T08:42:29.056Z</time></trkpt><trkpt lat="43.6291282" lon="6.6499872"><ele>341.0</ele><time>2026-04-12T08:42:30.056Z</time></trkpt><trkpt lat="43.6290552" lon="6.6500615"><ele>341.0</ele><time>2026-04-12T08:42:31.057Z</time></trkpt><trkpt lat="43.6289919" lon="6.6501428"><ele>341.0</ele><time>2026-04-12T08:42:32.056Z</time></trkpt><trkpt lat="43.628935" lon="6.650227"><ele>341.0</ele><time>2026-04-12T08:42:33.056Z</time></trkpt><trkpt lat="43.6288883" lon="6.6503154"><ele>341.0</ele><time>2026-04-12T08:42:34.056Z</time></trkpt><trkpt lat="43.6288462" lon="6.650402"><ele>341.0</ele><time>2026-04-12T08:42:35.056Z</time></trkpt><trkpt lat="43.6288085" lon="6.6504871"><ele>341.0</ele><time>2026-04-12T08:42:36.056Z</time></trkpt><trkpt lat="43.6287692" lon="6.6505718"><ele>341.0</ele><time>2026-04-12T08:42:37.056Z</time></trkpt><trkpt lat="43.6287277" lon="6.6506528"><ele>340.83333333333337</ele><time>2026-04-12T08:42:38.056Z</time></trkpt><trkpt lat="43.6286808" lon="6.6507285"><ele>340.6666666666667</ele><time>2026-04-12T08:42:39.056Z</time></trkpt><trkpt lat="43.6286227" lon="6.6507907"><ele>340.5</ele><time>2026-04-12T08:42:40.056Z</time></trkpt><trkpt lat="43.6285497" lon="6.6508274"><ele>340.3333333333333</ele><time>2026-04-12T08:42:41.056Z</time></trkpt><trkpt lat="43.6284671" lon="6.6508356"><ele>340.16666666666663</ele><time>2026-04-12T08:42:42.056Z</time></trkpt><trkpt lat="43.6283817" lon="6.6508294"><ele>340.0</ele><time>2026-04-12T08:42:43.056Z</time></trkpt><trkpt lat="43.6282957" lon="6.6508167"><ele>340.4</ele><time>2026-04-12T08:42:44.056Z</time></trkpt><trkpt lat="43.6282096" lon="6.6507969"><ele>340.8</ele><time>2026-04-12T08:42:45.056Z</time></trkpt><trkpt lat="43.6281221" lon="6.6507774"><ele>341.20000000000005</ele><time>2026-04-12T08:42:46.056Z</time></trkpt><trkpt lat="43.6280326" lon="6.6507643"><ele>341.6</ele><time>2026-04-12T08:42:47.056Z</time></trkpt><trkpt lat="43.6279418" lon="6.6507536"><ele>342.0</ele><time>2026-04-12T08:42:48.056Z</time></trkpt><trkpt lat="43.6278496" lon="6.6507387"><ele>340.40000000000003</ele><time>2026-04-12T08:42:49.056Z</time></trkpt><trkpt lat="43.627756" lon="6.6507204"><ele>338.8</ele><time>2026-04-12T08:42:50.056Z</time></trkpt><trkpt lat="43.6276604" lon="6.6507008"><ele>337.2</ele><time>2026-04-12T08:42:51.056Z</time></trkpt><trkpt lat="43.6275632" lon="6.6506776"><ele>335.6</ele><time>2026-04-12T08:42:52.056Z</time></trkpt><trkpt lat="43.6274651" lon="6.6506479"><ele>334.0</ele><time>2026-04-12T08:42:53.056Z</time></trkpt><trkpt lat="43.6273658" lon="6.6506208"><ele>334.0</ele><time>2026-04-12T08:42:54.056Z</time></trkpt><trkpt lat="43.627264" lon="6.6506064"><ele>334.0</ele><time>2026-04-12T08:42:55.056Z</time></trkpt><trkpt lat="43.6271601" lon="6.6506081"><ele>334.0</ele><time>2026-04-12T08:42:56.056Z</time></trkpt><trkpt lat="43.6270562" lon="6.6506271"><ele>334.0</ele><time>2026-04-12T08:42:57.056Z</time></trkpt><trkpt lat="43.6269533" lon="6.6506578"><ele>334.0</ele><time>2026-04-12T08:42:58.056Z</time></trkpt><trkpt lat="43.6268508" lon="6.6506962"><ele>332.79999999999995</ele><time>2026-04-12T08:42:59.056Z</time></trkpt><trkpt lat="43.6267492" lon="6.6507364"><ele>331.59999999999997</ele><time>2026-04-12T08:43:00.056Z</time></trkpt><trkpt lat="43.6266486" lon="6.6507777"><ele>330.4</ele><time>2026-04-12T08:43:01.057Z</time></trkpt><trkpt lat="43.6265496" lon="6.6508202"><ele>329.2</ele><time>2026-04-12T08:43:02.056Z</time></trkpt><trkpt lat="43.6264515" lon="6.6508634"><ele>328.0</ele><time>2026-04-12T08:43:03.056Z</time></trkpt><trkpt lat="43.6263531" lon="6.6509031"><ele>328.0</ele><time>2026-04-12T08:43:04.057Z</time></trkpt><trkpt lat="43.626255" lon="6.6509399"><ele>328.0</ele><time>2026-04-12T08:43:05.058Z</time></trkpt><trkpt lat="43.6261569" lon="6.6509762"><ele>328.0</ele><time>2026-04-12T08:43:06.057Z</time></trkpt><trkpt lat="43.6260618" lon="6.6510154"><ele>328.0</ele><time>2026-04-12T08:43:07.056Z</time></trkpt><trkpt lat="43.6259695" lon="6.6510595"><ele>328.0</ele><time>2026-04-12T08:43:08.057Z</time></trkpt><trkpt lat="43.6258809" lon="6.6511069"><ele>328.0</ele><time>2026-04-12T08:43:09.056Z</time></trkpt><trkpt lat="43.6257971" lon="6.6511588"><ele>328.0</ele><time>2026-04-12T08:43:10.057Z</time></trkpt><trkpt lat="43.6257187" lon="6.6512146"><ele>328.0</ele><time>2026-04-12T08:43:11.058Z</time></trkpt><trkpt lat="43.6256449" lon="6.6512713"><ele>328.0</ele><time>2026-04-12T08:43:12.057Z</time></trkpt><trkpt lat="43.6255744" lon="6.6513272"><ele>328.0</ele><time>2026-04-12T08:43:13.057Z</time></trkpt><trkpt lat="43.6255073" lon="6.6513821"><ele>328.0</ele><time>2026-04-12T08:43:14.057Z</time></trkpt><trkpt lat="43.6254441" lon="6.6514377"><ele>328.0</ele><time>2026-04-12T08:43:15.057Z</time></trkpt><trkpt lat="43.6253842" lon="6.651492"><ele>328.0</ele><time>2026-04-12T08:43:16.057Z</time></trkpt><trkpt lat="43.6253271" lon="6.6515439"><ele>328.0</ele><time>2026-04-12T08:43:17.057Z</time></trkpt><trkpt lat="43.6252718" lon="6.6515937"><ele>328.0</ele><time>2026-04-12T08:43:18.057Z</time></trkpt><trkpt lat="43.6252177" lon="6.651643"><ele>328.0</ele><time>2026-04-12T08:43:19.057Z</time></trkpt><trkpt lat="43.6251657" lon="6.6516924"><ele>328.0</ele><time>2026-04-12T08:43:20.057Z</time></trkpt><trkpt lat="43.6250684" lon="6.6517945"><ele>329.0</ele><time>2026-04-12T08:43:22.057Z</time></trkpt><trkpt lat="43.6249833" lon="6.6519027"><ele>330.0</ele><time>2026-04-12T08:43:24.057Z</time></trkpt><trkpt lat="43.6249046" lon="6.65201"><ele>331.0</ele><time>2026-04-12T08:43:26.057Z</time></trkpt><trkpt lat="43.6248287" lon="6.6521148"><ele>332.0</ele><time>2026-04-12T08:43:28.057Z</time></trkpt><trkpt lat="43.6247614" lon="6.6522208"><ele>333.0</ele><time>2026-04-12T08:43:30.057Z</time></trkpt><trkpt lat="43.6246909" lon="6.6523134"><ele>333.0</ele><time>2026-04-12T08:43:32.057Z</time></trkpt><trkpt lat="43.62462" lon="6.6524"><ele>333.0</ele><time>2026-04-12T08:43:34.057Z</time></trkpt><trkpt lat="43.6245546" lon="6.6524925"><ele>333.0</ele><time>2026-04-12T08:43:36.057Z</time></trkpt><trkpt lat="43.6244897" lon="6.652581"><ele>333.0</ele><time>2026-04-12T08:43:38.057Z</time></trkpt><trkpt lat="43.6244311" lon="6.6526683"><ele>333.0</ele><time>2026-04-12T08:43:40.057Z</time></trkpt><trkpt lat="43.624367" lon="6.6527501"><ele>334.6666666666667</ele><time>2026-04-12T08:43:42.058Z</time></trkpt><trkpt lat="43.6243209" lon="6.652813"><ele>336.3333333333333</ele><time>2026-04-12T08:43:44.15Z</time></trkpt><trkpt lat="43.6242689" lon="6.6528843"><ele>338.0</ele><time>2026-04-12T08:43:46.13Z</time></trkpt><trkpt lat="43.6242012" lon="6.6529887"><ele>339.66666666666663</ele><time>2026-04-12T08:43:48.221Z</time></trkpt><trkpt lat="43.6241622" lon="6.653078"><ele>341.3333333333333</ele><time>2026-04-12T08:43:50.2Z</time></trkpt><trkpt lat="43.6241237" lon="6.6531594"><ele>343.0</ele><time>2026-04-12T08:43:52.18Z</time></trkpt><trkpt lat="43.6240937" lon="6.6532562"><ele>343.0</ele><time>2026-04-12T08:43:54.16Z</time></trkpt><trkpt lat="43.6240507" lon="6.6533437"><ele>343.0</ele><time>2026-04-12T08:43:56.14Z</time></trkpt><trkpt lat="43.6239988" lon="6.6534337"><ele>343.0</ele><time>2026-04-12T08:43:58.23Z</time></trkpt><trkpt lat="43.6239444" lon="6.6535134"><ele>343.0</ele><time>2026-04-12T08:44:00.138Z</time></trkpt><trkpt lat="43.6238846" lon="6.653599"><ele>343.0</ele><time>2026-04-12T08:44:02.137Z</time></trkpt><trkpt lat="43.623758" lon="6.6537072"><ele>342.59999999999997</ele><time>2026-04-12T08:44:05.058Z</time></trkpt><trkpt lat="43.6236433" lon="6.653733"><ele>342.2</ele><time>2026-04-12T08:44:07.059Z</time></trkpt><trkpt lat="43.623517" lon="6.6537054"><ele>341.8</ele><time>2026-04-12T08:44:09.058Z</time></trkpt><trkpt lat="43.6234473" lon="6.6536862"><ele>341.4</ele><time>2026-04-12T08:44:10.058Z</time></trkpt><trkpt lat="43.6233745" lon="6.6536691"><ele>341.0</ele><time>2026-04-12T08:44:11.058Z</time></trkpt><trkpt lat="43.6232993" lon="6.653653"><ele>341.0</ele><time>2026-04-12T08:44:12.058Z</time></trkpt><trkpt lat="43.6232235" lon="6.6536417"><ele>341.0</ele><time>2026-04-12T08:44:13.058Z</time></trkpt><trkpt lat="43.6231475" lon="6.6536368"><ele>341.0</ele><time>2026-04-12T08:44:14.058Z</time></trkpt><trkpt lat="43.6230727" lon="6.6536415"><ele>341.0</ele><time>2026-04-12T08:44:15.058Z</time></trkpt><trkpt lat="43.6229997" lon="6.6536557"><ele>341.0</ele><time>2026-04-12T08:44:16.058Z</time></trkpt><trkpt lat="43.622928" lon="6.6536663"><ele>341.0</ele><time>2026-04-12T08:44:17.058Z</time></trkpt><trkpt lat="43.6228581" lon="6.653673"><ele>341.0</ele><time>2026-04-12T08:44:18.058Z</time></trkpt><trkpt lat="43.6227864" lon="6.6536791"><ele>341.4</ele><time>2026-04-12T08:44:19.058Z</time></trkpt><trkpt lat="43.6227185" lon="6.6536887"><ele>341.8</ele><time>2026-04-12T08:44:20.058Z</time></trkpt><trkpt lat="43.6226558" lon="6.6537021"><ele>342.2</ele><time>2026-04-12T08:44:21.058Z</time></trkpt><trkpt lat="43.6225342" lon="6.6537287"><ele>342.59999999999997</ele><time>2026-04-12T08:44:23.059Z</time></trkpt><trkpt lat="43.6224165" lon="6.6537442"><ele>343.0</ele><time>2026-04-12T08:44:25.058Z</time></trkpt><trkpt lat="43.6223048" lon="6.6537588"><ele>343.0</ele><time>2026-04-12T08:44:27.058Z</time></trkpt><trkpt lat="43.6222011" lon="6.653772"><ele>343.0</ele><time>2026-04-12T08:44:29.058Z</time></trkpt><trkpt lat="43.6221014" lon="6.6537858"><ele>343.0</ele><time>2026-04-12T08:44:31.058Z</time></trkpt><trkpt lat="43.6220006" lon="6.6537985"><ele>343.0</ele><time>2026-04-12T08:44:33.058Z</time></trkpt><trkpt lat="43.6219007" lon="6.6538119"><ele>343.0</ele><time>2026-04-12T08:44:35.058Z</time></trkpt><trkpt lat="43.6218007" lon="6.6538264"><ele>343.2</ele><time>2026-04-12T08:44:37.058Z</time></trkpt><trkpt lat="43.6217017" lon="6.6538365"><ele>343.4</ele><time>2026-04-12T08:44:39.058Z</time></trkpt><trkpt lat="43.6216035" lon="6.6538442"><ele>343.59999999999997</ele><time>2026-04-12T08:44:41.059Z</time></trkpt><trkpt lat="43.6215013" lon="6.6538502"><ele>343.79999999999995</ele><time>2026-04-12T08:44:43.059Z</time></trkpt><trkpt lat="43.6213994" lon="6.6538572"><ele>344.0</ele><time>2026-04-12T08:44:45.058Z</time></trkpt><trkpt lat="43.6212987" lon="6.653858"><ele>344.0</ele><time>2026-04-12T08:44:47.059Z</time></trkpt><trkpt lat="43.6211946" lon="6.6538611"><ele>344.0</ele><time>2026-04-12T08:44:49.058Z</time></trkpt><trkpt lat="43.6210916" lon="6.6538633"><ele>344.0</ele><time>2026-04-12T08:44:51.059Z</time></trkpt><trkpt lat="43.6209842" lon="6.6538426"><ele>344.0</ele><time>2026-04-12T08:44:53.059Z</time></trkpt><trkpt lat="43.6208773" lon="6.6538116"><ele>344.0</ele><time>2026-04-12T08:44:55.059Z</time></trkpt><trkpt lat="43.6207716" lon="6.6537685"><ele>344.0</ele><time>2026-04-12T08:44:57.059Z</time></trkpt><trkpt lat="43.6206604" lon="6.6537164"><ele>344.0</ele><time>2026-04-12T08:44:59.059Z</time></trkpt><trkpt lat="43.6205469" lon="6.6536722"><ele>344.0</ele><time>2026-04-12T08:45:01.059Z</time></trkpt><trkpt lat="43.6204299" lon="6.6536267"><ele>344.0</ele><time>2026-04-12T08:45:03.059Z</time></trkpt><trkpt lat="43.6203115" lon="6.6535802"><ele>344.75</ele><time>2026-04-12T08:45:05.059Z</time></trkpt><trkpt lat="43.6201897" lon="6.6535449"><ele>345.5</ele><time>2026-04-12T08:45:07.059Z</time></trkpt><trkpt lat="43.6200677" lon="6.6535017"><ele>346.25</ele><time>2026-04-12T08:45:09.059Z</time></trkpt><trkpt lat="43.619949" lon="6.6534484"><ele>347.0</ele><time>2026-04-12T08:45:11.059Z</time></trkpt><trkpt lat="43.619836" lon="6.6533791"><ele>347.0</ele><time>2026-04-12T08:45:13.06Z</time></trkpt><trkpt lat="43.619779" lon="6.6533412"><ele>347.0</ele><time>2026-04-12T08:45:14.059Z</time></trkpt><trkpt lat="43.6197212" lon="6.6533021"><ele>347.0</ele><time>2026-04-12T08:45:15.059Z</time></trkpt><trkpt lat="43.6196633" lon="6.6532574"><ele>347.0</ele><time>2026-04-12T08:45:16.059Z</time></trkpt><trkpt lat="43.6196046" lon="6.6532075"><ele>347.0</ele><time>2026-04-12T08:45:17.06Z</time></trkpt><trkpt lat="43.6195441" lon="6.653154"><ele>347.0</ele><time>2026-04-12T08:45:18.059Z</time></trkpt><trkpt lat="43.619482" lon="6.6530958"><ele>347.0</ele><time>2026-04-12T08:45:19.059Z</time></trkpt><trkpt lat="43.619418" lon="6.6530343"><ele>346.83333333333337</ele><time>2026-04-12T08:45:20.059Z</time></trkpt><trkpt lat="43.6193519" lon="6.652972"><ele>346.6666666666667</ele><time>2026-04-12T08:45:21.059Z</time></trkpt><trkpt lat="43.619284" lon="6.65291"><ele>346.5</ele><time>2026-04-12T08:45:22.059Z</time></trkpt><trkpt lat="43.6192162" lon="6.6528478"><ele>346.3333333333333</ele><time>2026-04-12T08:45:23.059Z</time></trkpt><trkpt lat="43.6191478" lon="6.6527852"><ele>346.16666666666663</ele><time>2026-04-12T08:45:24.059Z</time></trkpt><trkpt lat="43.6190786" lon="6.6527203"><ele>346.0</ele><time>2026-04-12T08:45:25.059Z</time></trkpt><trkpt lat="43.6190106" lon="6.6526557"><ele>346.0</ele><time>2026-04-12T08:45:26.059Z</time></trkpt><trkpt lat="43.6189439" lon="6.6525909"><ele>346.0</ele><time>2026-04-12T08:45:27.059Z</time></trkpt><trkpt lat="43.6188777" lon="6.6525257"><ele>346.0</ele><time>2026-04-12T08:45:28.059Z</time></trkpt><trkpt lat="43.6188116" lon="6.6524612"><ele>346.0</ele><time>2026-04-12T08:45:29.059Z</time></trkpt><trkpt lat="43.6187439" lon="6.6523982"><ele>346.0</ele><time>2026-04-12T08:45:30.059Z</time></trkpt><trkpt lat="43.6186745" lon="6.6523402"><ele>346.0</ele><time>2026-04-12T08:45:31.06Z</time></trkpt><trkpt lat="43.6186039" lon="6.6522852"><ele>345.3333333333333</ele><time>2026-04-12T08:45:32.06Z</time></trkpt><trkpt lat="43.6185315" lon="6.6522339"><ele>344.66666666666663</ele><time>2026-04-12T08:45:33.059Z</time></trkpt><trkpt lat="43.6184575" lon="6.6521842"><ele>344.0</ele><time>2026-04-12T08:45:34.06Z</time></trkpt><trkpt lat="43.6183802" lon="6.65214"><ele>343.3333333333333</ele><time>2026-04-12T08:45:35.059Z</time></trkpt><trkpt lat="43.618301" lon="6.6521005"><ele>342.6666666666667</ele><time>2026-04-12T08:45:36.06Z</time></trkpt><trkpt lat="43.6182175" lon="6.6520675"><ele>342.0</ele><time>2026-04-12T08:45:37.059Z</time></trkpt><trkpt lat="43.6181305" lon="6.6520425"><ele>342.0</ele><time>2026-04-12T08:45:38.059Z</time></trkpt><trkpt lat="43.6180414" lon="6.6520201"><ele>342.0</ele><time>2026-04-12T08:45:39.06Z</time></trkpt><trkpt lat="43.6179479" lon="6.6520075"><ele>342.0</ele><time>2026-04-12T08:45:40.06Z</time></trkpt><trkpt lat="43.6178486" lon="6.6519993"><ele>342.0</ele><time>2026-04-12T08:45:41.06Z</time></trkpt><trkpt lat="43.6177448" lon="6.6519961"><ele>342.0</ele><time>2026-04-12T08:45:42.06Z</time></trkpt><trkpt lat="43.6176399" lon="6.6519922"><ele>341.40000000000003</ele><time>2026-04-12T08:45:43.06Z</time></trkpt><trkpt lat="43.6175343" lon="6.6519922"><ele>340.8</ele><time>2026-04-12T08:45:44.06Z</time></trkpt><trkpt lat="43.6174285" lon="6.6520016"><ele>340.2</ele><time>2026-04-12T08:45:45.06Z</time></trkpt><trkpt lat="43.6173167" lon="6.6520227"><ele>339.6</ele><time>2026-04-12T08:45:46.06Z</time></trkpt><trkpt lat="43.6172017" lon="6.6520381"><ele>339.0</ele><time>2026-04-12T08:45:47.06Z</time></trkpt><trkpt lat="43.617084" lon="6.6520544"><ele>337.25</ele><time>2026-04-12T08:45:48.06Z</time></trkpt><trkpt lat="43.6169625" lon="6.6520665"><ele>335.5</ele><time>2026-04-12T08:45:49.061Z</time></trkpt><trkpt lat="43.6168311" lon="6.6520599"><ele>333.75</ele><time>2026-04-12T08:45:50.06Z</time></trkpt><trkpt lat="43.6167003" lon="6.6520452"><ele>332.0</ele><time>2026-04-12T08:45:51.06Z</time></trkpt><trkpt lat="43.6165657" lon="6.6520088"><ele>332.0</ele><time>2026-04-12T08:45:52.06Z</time></trkpt><trkpt lat="43.6164327" lon="6.6519703"><ele>332.0</ele><time>2026-04-12T08:45:53.06Z</time></trkpt><trkpt lat="43.6163012" lon="6.6519372"><ele>332.0</ele><time>2026-04-12T08:45:54.06Z</time></trkpt><trkpt lat="43.6161634" lon="6.6519432"><ele>332.0</ele><time>2026-04-12T08:45:55.06Z</time></trkpt><trkpt lat="43.6160215" lon="6.6519656"><ele>330.75</ele><time>2026-04-12T08:45:56.06Z</time></trkpt><trkpt lat="43.6158802" lon="6.6519948"><ele>329.5</ele><time>2026-04-12T08:45:57.06Z</time></trkpt><trkpt lat="43.6157399" lon="6.652027"><ele>328.25</ele><time>2026-04-12T08:45:58.06Z</time></trkpt><trkpt lat="43.6155985" lon="6.6520555"><ele>327.0</ele><time>2026-04-12T08:45:59.06Z</time></trkpt><trkpt lat="43.6154565" lon="6.6520847"><ele>325.5</ele><time>2026-04-12T08:46:00.06Z</time></trkpt><trkpt lat="43.6153142" lon="6.6521097"><ele>324.0</ele><time>2026-04-12T08:46:01.06Z</time></trkpt><trkpt lat="43.6151744" lon="6.6521317"><ele>322.5</ele><time>2026-04-12T08:46:02.06Z</time></trkpt><trkpt lat="43.6150397" lon="6.6521511"><ele>321.0</ele><time>2026-04-12T08:46:03.06Z</time></trkpt><trkpt lat="43.6149118" lon="6.6521735"><ele>321.0</ele><time>2026-04-12T08:46:04.06Z</time></trkpt><trkpt lat="43.6147889" lon="6.652197"><ele>321.0</ele><time>2026-04-12T08:46:05.06Z</time></trkpt><trkpt lat="43.6146723" lon="6.6522168"><ele>321.0</ele><time>2026-04-12T08:46:06.06Z</time></trkpt><trkpt lat="43.6145593" lon="6.6522333"><ele>321.0</ele><time>2026-04-12T08:46:07.061Z</time></trkpt><trkpt lat="43.614449" lon="6.6522465"><ele>321.0</ele><time>2026-04-12T08:46:08.06Z</time></trkpt><trkpt lat="43.6143405" lon="6.6522558"><ele>321.0</ele><time>2026-04-12T08:46:09.06Z</time></trkpt><trkpt lat="43.6142309" lon="6.6522602"><ele>321.0</ele><time>2026-04-12T08:46:10.061Z</time></trkpt><trkpt lat="43.6141215" lon="6.6522556"><ele>321.0</ele><time>2026-04-12T08:46:11.06Z</time></trkpt><trkpt lat="43.6140134" lon="6.6522396"><ele>321.0</ele><time>2026-04-12T08:46:12.06Z</time></trkpt><trkpt lat="43.6139099" lon="6.6521984"><ele>321.0</ele><time>2026-04-12T08:46:13.06Z</time></trkpt><trkpt lat="43.6138159" lon="6.6521303"><ele>321.0</ele><time>2026-04-12T08:46:14.061Z</time></trkpt><trkpt lat="43.6137322" lon="6.6520422"><ele>321.0</ele><time>2026-04-12T08:46:15.06Z</time></trkpt><trkpt lat="43.6136519" lon="6.6519504"><ele>321.0</ele><time>2026-04-12T08:46:16.061Z</time></trkpt><trkpt lat="43.6135723" lon="6.6518595"><ele>321.0</ele><time>2026-04-12T08:46:17.06Z</time></trkpt><trkpt lat="43.6134847" lon="6.6517909"><ele>322.0</ele><time>2026-04-12T08:46:18.06Z</time></trkpt><trkpt lat="43.6133935" lon="6.6517386"><ele>323.0</ele><time>2026-04-12T08:46:19.061Z</time></trkpt><trkpt lat="43.6133043" lon="6.651705"><ele>324.0</ele><time>2026-04-12T08:46:20.06Z</time></trkpt><trkpt lat="43.6132138" lon="6.6516806"><ele>325.0</ele><time>2026-04-12T08:46:21.06Z</time></trkpt><trkpt lat="43.6131398" lon="6.6517007"><ele>326.0</ele><time>2026-04-12T08:46:22.06Z</time></trkpt><trkpt lat="43.6130746" lon="6.6517419"><ele>327.0</ele><time>2026-04-12T08:46:23.061Z</time></trkpt><trkpt lat="43.6130211" lon="6.6517968"><ele>327.0</ele><time>2026-04-12T08:46:24.061Z</time></trkpt><trkpt lat="43.6129696" lon="6.6518559"><ele>327.0</ele><time>2026-04-12T08:46:25.062Z</time></trkpt><trkpt lat="43.6129176" lon="6.6519154"><ele>327.0</ele><time>2026-04-12T08:46:26.06Z</time></trkpt><trkpt lat="43.6128685" lon="6.6519747"><ele>327.0</ele><time>2026-04-12T08:46:27.061Z</time></trkpt><trkpt lat="43.612818" lon="6.6520311"><ele>327.0</ele><time>2026-04-12T08:46:28.06Z</time></trkpt><trkpt lat="43.6127682" lon="6.6520846"><ele>327.0</ele><time>2026-04-12T08:46:29.061Z</time></trkpt><trkpt lat="43.6127159" lon="6.6521368"><ele>327.0</ele><time>2026-04-12T08:46:30.062Z</time></trkpt><trkpt lat="43.6126634" lon="6.6521893"><ele>327.5</ele><time>2026-04-12T08:46:31.061Z</time></trkpt><trkpt lat="43.61261" lon="6.6522361"><ele>328.0</ele><time>2026-04-12T08:46:32.061Z</time></trkpt><trkpt lat="43.6125559" lon="6.6522813"><ele>328.5</ele><time>2026-04-12T08:46:33.061Z</time></trkpt><trkpt lat="43.6125" lon="6.6523219"><ele>329.0</ele><time>2026-04-12T08:46:34.061Z</time></trkpt><trkpt lat="43.6124428" lon="6.6523583"><ele>329.5</ele><time>2026-04-12T08:46:35.061Z</time></trkpt><trkpt lat="43.6123307" lon="6.652419"><ele>330.0</ele><time>2026-04-12T08:46:37.061Z</time></trkpt><trkpt lat="43.6122169" lon="6.6524716"><ele>330.0</ele><time>2026-04-12T08:46:39.061Z</time></trkpt><trkpt lat="43.6121061" lon="6.6525285"><ele>330.0</ele><time>2026-04-12T08:46:41.061Z</time></trkpt><trkpt lat="43.6120017" lon="6.6525857"><ele>330.0</ele><time>2026-04-12T08:46:43.061Z</time></trkpt><trkpt lat="43.6118941" lon="6.6526384"><ele>330.0</ele><time>2026-04-12T08:46:45.061Z</time></trkpt><trkpt lat="43.6117879" lon="6.652692"><ele>330.0</ele><time>2026-04-12T08:46:47.061Z</time></trkpt><trkpt lat="43.6116882" lon="6.6527451"><ele>330.0</ele><time>2026-04-12T08:46:49.061Z</time></trkpt><trkpt lat="43.6115892" lon="6.6527932"><ele>330.0</ele><time>2026-04-12T08:46:51.061Z</time></trkpt><trkpt lat="43.6114895" lon="6.6528436"><ele>330.0</ele><time>2026-04-12T08:46:53.061Z</time></trkpt><trkpt lat="43.6113903" lon="6.6528988"><ele>330.0</ele><time>2026-04-12T08:46:55.061Z</time></trkpt><trkpt lat="43.6112888" lon="6.6529512"><ele>330.0</ele><time>2026-04-12T08:46:57.061Z</time></trkpt><trkpt lat="43.6111896" lon="6.6529985"><ele>330.0</ele><time>2026-04-12T08:46:59.061Z</time></trkpt><trkpt lat="43.6110927" lon="6.6530364"><ele>330.0</ele><time>2026-04-12T08:47:01.062Z</time></trkpt><trkpt lat="43.6109916" lon="6.6530702"><ele>330.0</ele><time>2026-04-12T08:47:03.062Z</time></trkpt><trkpt lat="43.6108892" lon="6.6531016"><ele>330.0</ele><time>2026-04-12T08:47:05.061Z</time></trkpt><trkpt lat="43.610789" lon="6.6531288"><ele>330.8</ele><time>2026-04-12T08:47:07.061Z</time></trkpt><trkpt lat="43.6106907" lon="6.6531538"><ele>331.6</ele><time>2026-04-12T08:47:09.062Z</time></trkpt><trkpt lat="43.610594" lon="6.6531772"><ele>332.4</ele><time>2026-04-12T08:47:11.062Z</time></trkpt><trkpt lat="43.6104931" lon="6.6531823"><ele>333.2</ele><time>2026-04-12T08:47:13.062Z</time></trkpt><trkpt lat="43.6103849" lon="6.653186"><ele>334.0</ele><time>2026-04-12T08:47:15.062Z</time></trkpt><trkpt lat="43.6102757" lon="6.6531809"><ele>335.5</ele><time>2026-04-12T08:47:17.062Z</time></trkpt><trkpt lat="43.6101594" lon="6.6531744"><ele>337.0</ele><time>2026-04-12T08:47:19.062Z</time></trkpt><trkpt lat="43.6100375" lon="6.6531645"><ele>338.5</ele><time>2026-04-12T08:47:21.062Z</time></trkpt><trkpt lat="43.6099171" lon="6.6531395"><ele>340.0</ele><time>2026-04-12T08:47:23.062Z</time></trkpt><trkpt lat="43.609799" lon="6.6531079"><ele>340.0</ele><time>2026-04-12T08:47:25.062Z</time></trkpt><trkpt lat="43.6096901" lon="6.6530761"><ele>340.0</ele><time>2026-04-12T08:47:27.062Z</time></trkpt><trkpt lat="43.6095815" lon="6.6530496"><ele>340.0</ele><time>2026-04-12T08:47:29.062Z</time></trkpt><trkpt lat="43.6094766" lon="6.6530434"><ele>340.0</ele><time>2026-04-12T08:47:31.062Z</time></trkpt><trkpt lat="43.6093665" lon="6.6530525"><ele>340.0</ele><time>2026-04-12T08:47:33.062Z</time></trkpt><trkpt lat="43.6092694" lon="6.6530687"><ele>339.75</ele><time>2026-04-12T08:47:35.062Z</time></trkpt><trkpt lat="43.6091657" lon="6.6530843"><ele>339.5</ele><time>2026-04-12T08:47:37.062Z</time></trkpt><trkpt lat="43.6090493" lon="6.6531001"><ele>339.25</ele><time>2026-04-12T08:47:39.062Z</time></trkpt><trkpt lat="43.6089326" lon="6.6531433"><ele>339.0</ele><time>2026-04-12T08:47:41.063Z</time></trkpt><trkpt lat="43.6088194" lon="6.6532008"><ele>339.0</ele><time>2026-04-12T08:47:43.062Z</time></trkpt><trkpt lat="43.6087088" lon="6.653256"><ele>339.0</ele><time>2026-04-12T08:47:45.062Z</time></trkpt><trkpt lat="43.6085952" lon="6.653302"><ele>339.0</ele><time>2026-04-12T08:47:47.062Z</time></trkpt><trkpt lat="43.6084866" lon="6.6533591"><ele>339.0</ele><time>2026-04-12T08:47:49.062Z</time></trkpt><trkpt lat="43.6084258" lon="6.6533912"><ele>339.0</ele><time>2026-04-12T08:47:50.062Z</time></trkpt><trkpt lat="43.6083101" lon="6.6534512"><ele>338.6666666666667</ele><time>2026-04-12T08:47:52.063Z</time></trkpt><trkpt lat="43.6082478" lon="6.6534786"><ele>338.3333333333333</ele><time>2026-04-12T08:47:53.064Z</time></trkpt><trkpt lat="43.6081851" lon="6.6535026"><ele>338.0</ele><time>2026-04-12T08:47:54.062Z</time></trkpt><trkpt lat="43.608123" lon="6.6535257"><ele>337.66666666666663</ele><time>2026-04-12T08:47:55.063Z</time></trkpt><trkpt lat="43.6080048" lon="6.6535768"><ele>337.3333333333333</ele><time>2026-04-12T08:47:57.062Z</time></trkpt><trkpt lat="43.6078849" lon="6.6536227"><ele>337.0</ele><time>2026-04-12T08:47:59.062Z</time></trkpt><trkpt lat="43.6078221" lon="6.653644"><ele>337.0</ele><time>2026-04-12T08:48:00.062Z</time></trkpt><trkpt lat="43.607708" lon="6.653674"><ele>337.0</ele><time>2026-04-12T08:48:02.063Z</time></trkpt><trkpt lat="43.6076426" lon="6.6536921"><ele>337.0</ele><time>2026-04-12T08:48:03.063Z</time></trkpt><trkpt lat="43.6075796" lon="6.6537152"><ele>337.0</ele><time>2026-04-12T08:48:04.063Z</time></trkpt><trkpt lat="43.6074641" lon="6.6537552"><ele>337.0</ele><time>2026-04-12T08:48:06.063Z</time></trkpt><trkpt lat="43.6073974" lon="6.6537683"><ele>337.0</ele><time>2026-04-12T08:48:07.063Z</time></trkpt><trkpt lat="43.6073346" lon="6.6537876"><ele>337.0</ele><time>2026-04-12T08:48:08.063Z</time></trkpt><trkpt lat="43.6072101" lon="6.6538312"><ele>337.0</ele><time>2026-04-12T08:48:10.063Z</time></trkpt><trkpt lat="43.6071449" lon="6.6538516"><ele>337.0</ele><time>2026-04-12T08:48:11.063Z</time></trkpt><trkpt lat="43.6070806" lon="6.6538738"><ele>337.0</ele><time>2026-04-12T08:48:12.063Z</time></trkpt><trkpt lat="43.6070137" lon="6.6538962"><ele>337.0</ele><time>2026-04-12T08:48:13.063Z</time></trkpt><trkpt lat="43.6069483" lon="6.653921"><ele>337.0</ele><time>2026-04-12T08:48:14.063Z</time></trkpt><trkpt lat="43.6068818" lon="6.653945"><ele>337.42857142857144</ele><time>2026-04-12T08:48:15.064Z</time></trkpt><trkpt lat="43.6068152" lon="6.6539691"><ele>337.8571428571429</ele><time>2026-04-12T08:48:16.063Z</time></trkpt><trkpt lat="43.6067492" lon="6.6539968"><ele>338.28571428571433</ele><time>2026-04-12T08:48:17.063Z</time></trkpt><trkpt lat="43.6066831" lon="6.6540215"><ele>338.7142857142857</ele><time>2026-04-12T08:48:18.063Z</time></trkpt><trkpt lat="43.606618" lon="6.6540427"><ele>339.1428571428571</ele><time>2026-04-12T08:48:19.063Z</time></trkpt><trkpt lat="43.6065528" lon="6.6540626"><ele>339.5714285714286</ele><time>2026-04-12T08:48:20.063Z</time></trkpt><trkpt lat="43.6064885" lon="6.6540816"><ele>340.0</ele><time>2026-04-12T08:48:21.064Z</time></trkpt><trkpt lat="43.6064224" lon="6.6540939"><ele>340.0</ele><time>2026-04-12T08:48:22.063Z</time></trkpt><trkpt lat="43.606356" lon="6.6541002"><ele>340.0</ele><time>2026-04-12T08:48:23.063Z</time></trkpt><trkpt lat="43.6062901" lon="6.6540984"><ele>340.0</ele><time>2026-04-12T08:48:24.063Z</time></trkpt><trkpt lat="43.6062228" lon="6.6540871"><ele>340.0</ele><time>2026-04-12T08:48:25.063Z</time></trkpt><trkpt lat="43.6061651" lon="6.6540357"><ele>340.0</ele><time>2026-04-12T08:48:26.063Z</time></trkpt><trkpt lat="43.6061204" lon="6.6539676"><ele>340.0</ele><time>2026-04-12T08:48:27.063Z</time></trkpt><trkpt lat="43.6060871" lon="6.6538906"><ele>340.0</ele><time>2026-04-12T08:48:28.063Z</time></trkpt><trkpt lat="43.6060664" lon="6.6538004"><ele>340.16666666666663</ele><time>2026-04-12T08:48:29.063Z</time></trkpt><trkpt lat="43.6060514" lon="6.6537037"><ele>340.3333333333333</ele><time>2026-04-12T08:48:30.063Z</time></trkpt><trkpt lat="43.6060381" lon="6.6536021"><ele>340.5</ele><time>2026-04-12T08:48:31.063Z</time></trkpt><trkpt lat="43.6060303" lon="6.6534953"><ele>340.6666666666667</ele><time>2026-04-12T08:48:32.064Z</time></trkpt><trkpt lat="43.6060244" lon="6.6533853"><ele>340.83333333333337</ele><time>2026-04-12T08:48:33.063Z</time></trkpt><trkpt lat="43.606013" lon="6.6532734"><ele>341.0</ele><time>2026-04-12T08:48:34.063Z</time></trkpt><trkpt lat="43.6059924" lon="6.6531612"><ele>341.0</ele><time>2026-04-12T08:48:35.064Z</time></trkpt><trkpt lat="43.6059602" lon="6.653051"><ele>341.0</ele><time>2026-04-12T08:48:36.063Z</time></trkpt><trkpt lat="43.6059142" lon="6.6529474"><ele>341.0</ele><time>2026-04-12T08:48:37.063Z</time></trkpt><trkpt lat="43.6058514" lon="6.6528556"><ele>341.0</ele><time>2026-04-12T08:48:38.063Z</time></trkpt><trkpt lat="43.6057734" lon="6.6527779"><ele>341.0</ele><time>2026-04-12T08:48:39.063Z</time></trkpt><trkpt lat="43.6056832" lon="6.6527148"><ele>340.6</ele><time>2026-04-12T08:48:40.064Z</time></trkpt><trkpt lat="43.6055837" lon="6.6526659"><ele>340.20000000000005</ele><time>2026-04-12T08:48:41.063Z</time></trkpt><trkpt lat="43.6054798" lon="6.6526236"><ele>339.79999999999995</ele><time>2026-04-12T08:48:42.063Z</time></trkpt><trkpt lat="43.6053764" lon="6.6525743"><ele>339.4</ele><time>2026-04-12T08:48:43.064Z</time></trkpt><trkpt lat="43.6052767" lon="6.6525044"><ele>339.0</ele><time>2026-04-12T08:48:44.064Z</time></trkpt><trkpt lat="43.6051895" lon="6.6524044"><ele>338.5</ele><time>2026-04-12T08:48:45.063Z</time></trkpt><trkpt lat="43.6051051" lon="6.6522959"><ele>338.0</ele><time>2026-04-12T08:48:46.065Z</time></trkpt><trkpt lat="43.6050156" lon="6.6521911"><ele>337.5</ele><time>2026-04-12T08:48:47.063Z</time></trkpt><trkpt lat="43.6049177" lon="6.6520977"><ele>337.0</ele><time>2026-04-12T08:48:48.064Z</time></trkpt><trkpt lat="43.6048099" lon="6.6520209"><ele>337.0</ele><time>2026-04-12T08:48:49.063Z</time></trkpt><trkpt lat="43.6046957" lon="6.6519597"><ele>337.0</ele><time>2026-04-12T08:48:50.063Z</time></trkpt><trkpt lat="43.604579" lon="6.6519161"><ele>337.0</ele><time>2026-04-12T08:48:51.064Z</time></trkpt><trkpt lat="43.6044579" lon="6.6518866"><ele>337.0</ele><time>2026-04-12T08:48:52.063Z</time></trkpt><trkpt lat="43.6043373" lon="6.651873"><ele>335.0</ele><time>2026-04-12T08:48:53.064Z</time></trkpt><trkpt lat="43.6042187" lon="6.6518663"><ele>333.0</ele><time>2026-04-12T08:48:54.064Z</time></trkpt><trkpt lat="43.6040975" lon="6.6518778"><ele>331.0</ele><time>2026-04-12T08:48:55.064Z</time></trkpt><trkpt lat="43.6039741" lon="6.6518893"><ele>329.0</ele><time>2026-04-12T08:48:56.064Z</time></trkpt><trkpt lat="43.6038484" lon="6.6519043"><ele>329.0</ele><time>2026-04-12T08:48:57.064Z</time></trkpt><trkpt lat="43.6037227" lon="6.6519197"><ele>329.0</ele><time>2026-04-12T08:48:58.065Z</time></trkpt><trkpt lat="43.6036033" lon="6.65194"><ele>329.0</ele><time>2026-04-12T08:48:59.064Z</time></trkpt><trkpt lat="43.6034878" lon="6.6519915"><ele>329.0</ele><time>2026-04-12T08:49:00.064Z</time></trkpt><trkpt lat="43.603378" lon="6.6520669"><ele>330.0</ele><time>2026-04-12T08:49:01.064Z</time></trkpt><trkpt lat="43.6032722" lon="6.6521501"><ele>331.0</ele><time>2026-04-12T08:49:02.064Z</time></trkpt><trkpt lat="43.6031602" lon="6.6522209"><ele>332.0</ele><time>2026-04-12T08:49:03.064Z</time></trkpt><trkpt lat="43.6030382" lon="6.6522677"><ele>333.0</ele><time>2026-04-12T08:49:04.065Z</time></trkpt><trkpt lat="43.602912" lon="6.6522954"><ele>330.75</ele><time>2026-04-12T08:49:05.064Z</time></trkpt><trkpt lat="43.6027825" lon="6.6523084"><ele>328.5</ele><time>2026-04-12T08:49:06.064Z</time></trkpt><trkpt lat="43.6026507" lon="6.6523163"><ele>326.25</ele><time>2026-04-12T08:49:07.064Z</time></trkpt><trkpt lat="43.6025187" lon="6.6523281"><ele>324.0</ele><time>2026-04-12T08:49:08.064Z</time></trkpt><trkpt lat="43.6023871" lon="6.6523546"><ele>324.0</ele><time>2026-04-12T08:49:09.065Z</time></trkpt><trkpt lat="43.6022559" lon="6.6523912"><ele>324.0</ele><time>2026-04-12T08:49:10.064Z</time></trkpt><trkpt lat="43.6021266" lon="6.6524375"><ele>324.0</ele><time>2026-04-12T08:49:11.064Z</time></trkpt><trkpt lat="43.6019983" lon="6.6524953"><ele>324.0</ele><time>2026-04-12T08:49:12.064Z</time></trkpt><trkpt lat="43.6018707" lon="6.6525571"><ele>324.25</ele><time>2026-04-12T08:49:13.064Z</time></trkpt><trkpt lat="43.6017453" lon="6.6526246"><ele>324.5</ele><time>2026-04-12T08:49:14.064Z</time></trkpt><trkpt lat="43.6016223" lon="6.6526928"><ele>324.75</ele><time>2026-04-12T08:49:15.064Z</time></trkpt><trkpt lat="43.6015069" lon="6.6527726"><ele>325.0</ele><time>2026-04-12T08:49:16.064Z</time></trkpt><trkpt lat="43.6013925" lon="6.6528505"><ele>325.0</ele><time>2026-04-12T08:49:17.064Z</time></trkpt><trkpt lat="43.601276" lon="6.6529068"><ele>325.0</ele><time>2026-04-12T08:49:18.064Z</time></trkpt><trkpt lat="43.6011621" lon="6.6529446"><ele>325.0</ele><time>2026-04-12T08:49:19.064Z</time></trkpt><trkpt lat="43.6010432" lon="6.6529124"><ele>325.0</ele><time>2026-04-12T08:49:20.065Z</time></trkpt><trkpt lat="43.6009409" lon="6.6528303"><ele>319.75</ele><time>2026-04-12T08:49:21.064Z</time></trkpt><trkpt lat="43.6008736" lon="6.6526939"><ele>314.5</ele><time>2026-04-12T08:49:22.064Z</time></trkpt><trkpt lat="43.6008533" lon="6.6525295"><ele>309.25</ele><time>2026-04-12T08:49:23.064Z</time></trkpt><trkpt lat="43.6008439" lon="6.6523601"><ele>304.0</ele><time>2026-04-12T08:49:24.064Z</time></trkpt><trkpt lat="43.6008772" lon="6.652192"><ele>304.0</ele><time>2026-04-12T08:49:25.064Z</time></trkpt><trkpt lat="43.6009197" lon="6.652018"><ele>304.0</ele><time>2026-04-12T08:49:26.064Z</time></trkpt><trkpt lat="43.6009595" lon="6.651839"><ele>304.0</ele><time>2026-04-12T08:49:27.064Z</time></trkpt><trkpt lat="43.6009756" lon="6.6516676"><ele>304.0</ele><time>2026-04-12T08:49:28.066Z</time></trkpt><trkpt lat="43.6009535" lon="6.6515028"><ele>304.0</ele><time>2026-04-12T08:49:29.064Z</time></trkpt><trkpt lat="43.6008913" lon="6.651358"><ele>304.0</ele><time>2026-04-12T08:49:30.064Z</time></trkpt><trkpt lat="43.6008248" lon="6.6512327"><ele>304.0</ele><time>2026-04-12T08:49:31.064Z</time></trkpt><trkpt lat="43.6007124" lon="6.6511656"><ele>304.0</ele><time>2026-04-12T08:49:32.065Z</time></trkpt><trkpt lat="43.6005987" lon="6.6511122"><ele>304.0</ele><time>2026-04-12T08:49:33.066Z</time></trkpt><trkpt lat="43.6004787" lon="6.6510951"><ele>304.0</ele><time>2026-04-12T08:49:34.065Z</time></trkpt><trkpt lat="43.6003635" lon="6.6510736"><ele>304.0</ele><time>2026-04-12T08:49:35.065Z</time></trkpt><trkpt lat="43.6002542" lon="6.651043"><ele>304.0</ele><time>2026-04-12T08:49:36.064Z</time></trkpt><trkpt lat="43.6001518" lon="6.6510134"><ele>304.2</ele><time>2026-04-12T08:49:37.065Z</time></trkpt><trkpt lat="43.6000526" lon="6.6509859"><ele>304.4</ele><time>2026-04-12T08:49:38.064Z</time></trkpt><trkpt lat="43.5999587" lon="6.6509638"><ele>304.6</ele><time>2026-04-12T08:49:39.065Z</time></trkpt><trkpt lat="43.5998682" lon="6.6509426"><ele>304.8</ele><time>2026-04-12T08:49:40.064Z</time></trkpt><trkpt lat="43.5997818" lon="6.6509231"><ele>305.0</ele><time>2026-04-12T08:49:41.065Z</time></trkpt><trkpt lat="43.5996955" lon="6.6508986"><ele>305.0</ele><time>2026-04-12T08:49:42.064Z</time></trkpt><trkpt lat="43.5996085" lon="6.6508697"><ele>305.0</ele><time>2026-04-12T08:49:43.065Z</time></trkpt><trkpt lat="43.5995205" lon="6.6508422"><ele>305.0</ele><time>2026-04-12T08:49:44.065Z</time></trkpt><trkpt lat="43.5994335" lon="6.6508203"><ele>305.0</ele><time>2026-04-12T08:49:45.066Z</time></trkpt><trkpt lat="43.5993492" lon="6.6508077"><ele>305.0</ele><time>2026-04-12T08:49:46.066Z</time></trkpt><trkpt lat="43.5992654" lon="6.6508004"><ele>305.0</ele><time>2026-04-12T08:49:47.065Z</time></trkpt><trkpt lat="43.5991855" lon="6.6507932"><ele>305.83333333333337</ele><time>2026-04-12T08:49:48.065Z</time></trkpt><trkpt lat="43.5991078" lon="6.6507841"><ele>306.6666666666667</ele><time>2026-04-12T08:49:49.065Z</time></trkpt><trkpt lat="43.5990337" lon="6.6507776"><ele>307.5</ele><time>2026-04-12T08:49:50.065Z</time></trkpt><trkpt lat="43.5989621" lon="6.6507665"><ele>308.3333333333333</ele><time>2026-04-12T08:49:51.065Z</time></trkpt><trkpt lat="43.598894" lon="6.650751"><ele>309.16666666666663</ele><time>2026-04-12T08:49:52.065Z</time></trkpt><trkpt lat="43.5988291" lon="6.6507323"><ele>310.0</ele><time>2026-04-12T08:49:53.065Z</time></trkpt><trkpt lat="43.5987091" lon="6.650698"><ele>311.0</ele><time>2026-04-12T08:49:55.066Z</time></trkpt><trkpt lat="43.5985922" lon="6.6506758"><ele>312.0</ele><time>2026-04-12T08:49:57.065Z</time></trkpt><trkpt lat="43.5984819" lon="6.6506592"><ele>313.0</ele><time>2026-04-12T08:49:59.065Z</time></trkpt><trkpt lat="43.5983725" lon="6.65063"><ele>314.0</ele><time>2026-04-12T08:50:01.065Z</time></trkpt><trkpt lat="43.5982618" lon="6.6506133"><ele>314.0</ele><time>2026-04-12T08:50:03.065Z</time></trkpt><trkpt lat="43.598158" lon="6.6505948"><ele>314.0</ele><time>2026-04-12T08:50:05.065Z</time></trkpt><trkpt lat="43.5980582" lon="6.6505774"><ele>314.0</ele><time>2026-04-12T08:50:07.066Z</time></trkpt><trkpt lat="43.5979479" lon="6.6505185"><ele>314.0</ele><time>2026-04-12T08:50:09.066Z</time></trkpt><trkpt lat="43.5978385" lon="6.6504545"><ele>314.0</ele><time>2026-04-12T08:50:11.065Z</time></trkpt><trkpt lat="43.597718" lon="6.6503987"><ele>314.1666666666667</ele><time>2026-04-12T08:50:13.065Z</time></trkpt><trkpt lat="43.5975978" lon="6.6503356"><ele>314.33333333333337</ele><time>2026-04-12T08:50:15.065Z</time></trkpt><trkpt lat="43.5975349" lon="6.6503009"><ele>314.5</ele><time>2026-04-12T08:50:16.065Z</time></trkpt><trkpt lat="43.5974696" lon="6.6502624"><ele>314.6666666666667</ele><time>2026-04-12T08:50:17.066Z</time></trkpt><trkpt lat="43.5974004" lon="6.6502249"><ele>314.8333333333333</ele><time>2026-04-12T08:50:18.065Z</time></trkpt><trkpt lat="43.5973297" lon="6.6501887"><ele>315.0</ele><time>2026-04-12T08:50:19.066Z</time></trkpt><trkpt lat="43.5972599" lon="6.6501517"><ele>315.0</ele><time>2026-04-12T08:50:20.066Z</time></trkpt><trkpt lat="43.5971903" lon="6.6501165"><ele>315.0</ele><time>2026-04-12T08:50:21.066Z</time></trkpt><trkpt lat="43.5971157" lon="6.6500773"><ele>315.0</ele><time>2026-04-12T08:50:22.065Z</time></trkpt><trkpt lat="43.5970439" lon="6.6500414"><ele>315.0</ele><time>2026-04-12T08:50:23.066Z</time></trkpt><trkpt lat="43.5969729" lon="6.6500089"><ele>315.0</ele><time>2026-04-12T08:50:24.067Z</time></trkpt><trkpt lat="43.5969013" lon="6.649972"><ele>315.0</ele><time>2026-04-12T08:50:25.065Z</time></trkpt><trkpt lat="43.5968334" lon="6.6499358"><ele>314.0</ele><time>2026-04-12T08:50:26.065Z</time></trkpt><trkpt lat="43.5967624" lon="6.649896"><ele>313.0</ele><time>2026-04-12T08:50:27.066Z</time></trkpt><trkpt lat="43.5966938" lon="6.6498511"><ele>312.0</ele><time>2026-04-12T08:50:28.066Z</time></trkpt><trkpt lat="43.5966257" lon="6.6498009"><ele>311.0</ele><time>2026-04-12T08:50:29.066Z</time></trkpt><trkpt lat="43.5965588" lon="6.6497395"><ele>310.0</ele><time>2026-04-12T08:50:30.065Z</time></trkpt><trkpt lat="43.5964905" lon="6.6496694"><ele>309.0</ele><time>2026-04-12T08:50:31.066Z</time></trkpt><trkpt lat="43.59642" lon="6.6495951"><ele>309.0</ele><time>2026-04-12T08:50:32.066Z</time></trkpt><trkpt lat="43.5963498" lon="6.6495168"><ele>309.0</ele><time>2026-04-12T08:50:33.066Z</time></trkpt><trkpt lat="43.5962833" lon="6.6494238"><ele>309.0</ele><time>2026-04-12T08:50:34.066Z</time></trkpt><trkpt lat="43.596224" lon="6.6493093"><ele>309.0</ele><time>2026-04-12T08:50:35.066Z</time></trkpt><trkpt lat="43.5961737" lon="6.6491739"><ele>309.0</ele><time>2026-04-12T08:50:36.066Z</time></trkpt><trkpt lat="43.5961353" lon="6.6490285"><ele>308.0</ele><time>2026-04-12T08:50:37.066Z</time></trkpt><trkpt lat="43.596095" lon="6.6488808"><ele>307.0</ele><time>2026-04-12T08:50:38.067Z</time></trkpt><trkpt lat="43.5960544" lon="6.6487436"><ele>306.0</ele><time>2026-04-12T08:50:39.066Z</time></trkpt><trkpt lat="43.5960103" lon="6.6486057"><ele>305.0</ele><time>2026-04-12T08:50:40.066Z</time></trkpt><trkpt lat="43.5959595" lon="6.6484716"><ele>304.0</ele><time>2026-04-12T08:50:41.066Z</time></trkpt><trkpt lat="43.5958906" lon="6.648345"><ele>304.0</ele><time>2026-04-12T08:50:42.066Z</time></trkpt><trkpt lat="43.5958067" lon="6.6482316"><ele>304.0</ele><time>2026-04-12T08:50:43.067Z</time></trkpt><trkpt lat="43.5957135" lon="6.6481285"><ele>304.0</ele><time>2026-04-12T08:50:44.066Z</time></trkpt><trkpt lat="43.5956176" lon="6.6480259"><ele>304.0</ele><time>2026-04-12T08:50:45.067Z</time></trkpt><trkpt lat="43.5955206" lon="6.647928"><ele>304.0</ele><time>2026-04-12T08:50:46.067Z</time></trkpt><trkpt lat="43.5954194" lon="6.6478268"><ele>304.0</ele><time>2026-04-12T08:50:47.066Z</time></trkpt><trkpt lat="43.5953212" lon="6.6477257"><ele>304.0</ele><time>2026-04-12T08:50:48.066Z</time></trkpt><trkpt lat="43.5952277" lon="6.6476327"><ele>304.0</ele><time>2026-04-12T08:50:49.066Z</time></trkpt><trkpt lat="43.5951358" lon="6.6475412"><ele>303.5</ele><time>2026-04-12T08:50:50.067Z</time></trkpt><trkpt lat="43.5950453" lon="6.647444"><ele>303.0</ele><time>2026-04-12T08:50:51.066Z</time></trkpt><trkpt lat="43.5949578" lon="6.647341"><ele>302.5</ele><time>2026-04-12T08:50:52.066Z</time></trkpt><trkpt lat="43.5948683" lon="6.6472346"><ele>302.0</ele><time>2026-04-12T08:50:53.066Z</time></trkpt><trkpt lat="43.5947778" lon="6.6471276"><ele>302.0</ele><time>2026-04-12T08:50:54.066Z</time></trkpt><trkpt lat="43.5946855" lon="6.6470152"><ele>302.0</ele><time>2026-04-12T08:50:55.067Z</time></trkpt><trkpt lat="43.5945976" lon="6.6469026"><ele>302.0</ele><time>2026-04-12T08:50:56.066Z</time></trkpt><trkpt lat="43.5945062" lon="6.6467816"><ele>302.0</ele><time>2026-04-12T08:50:57.066Z</time></trkpt><trkpt lat="43.5944157" lon="6.6466597"><ele>301.0</ele><time>2026-04-12T08:50:58.066Z</time></trkpt><trkpt lat="43.5943222" lon="6.6465304"><ele>300.0</ele><time>2026-04-12T08:50:59.066Z</time></trkpt><trkpt lat="43.5942308" lon="6.6464012"><ele>299.0</ele><time>2026-04-12T08:51:00.066Z</time></trkpt><trkpt lat="43.5941436" lon="6.6462708"><ele>298.0</ele><time>2026-04-12T08:51:01.066Z</time></trkpt><trkpt lat="43.5940568" lon="6.6461337"><ele>297.75</ele><time>2026-04-12T08:51:02.066Z</time></trkpt><trkpt lat="43.5939715" lon="6.6459947"><ele>297.5</ele><time>2026-04-12T08:51:03.066Z</time></trkpt><trkpt lat="43.5938837" lon="6.6458502"><ele>297.25</ele><time>2026-04-12T08:51:04.067Z</time></trkpt><trkpt lat="43.5938011" lon="6.6457138"><ele>297.0</ele><time>2026-04-12T08:51:05.067Z</time></trkpt><trkpt lat="43.5937154" lon="6.6455663"><ele>295.5</ele><time>2026-04-12T08:51:06.066Z</time></trkpt><trkpt lat="43.5936257" lon="6.6454147"><ele>294.0</ele><time>2026-04-12T08:51:07.066Z</time></trkpt><trkpt lat="43.5935345" lon="6.6452674"><ele>292.5</ele><time>2026-04-12T08:51:08.067Z</time></trkpt><trkpt lat="43.5934455" lon="6.6451207"><ele>291.0</ele><time>2026-04-12T08:51:09.067Z</time></trkpt><trkpt lat="43.5933559" lon="6.6449763"><ele>290.75</ele><time>2026-04-12T08:51:10.067Z</time></trkpt><trkpt lat="43.593267" lon="6.6448337"><ele>290.5</ele><time>2026-04-12T08:51:11.067Z</time></trkpt><trkpt lat="43.5931787" lon="6.6446873"><ele>290.25</ele><time>2026-04-12T08:51:12.067Z</time></trkpt><trkpt lat="43.5930928" lon="6.6445443"><ele>290.0</ele><time>2026-04-12T08:51:13.066Z</time></trkpt><trkpt lat="43.5930087" lon="6.6444042"><ele>290.0</ele><time>2026-04-12T08:51:14.067Z</time></trkpt><trkpt lat="43.5929243" lon="6.6442631"><ele>290.0</ele><time>2026-04-12T08:51:15.066Z</time></trkpt><trkpt lat="43.5928407" lon="6.6441243"><ele>290.0</ele><time>2026-04-12T08:51:16.066Z</time></trkpt><trkpt lat="43.5927588" lon="6.6439914"><ele>290.0</ele><time>2026-04-12T08:51:17.067Z</time></trkpt><trkpt lat="43.5926792" lon="6.6438589"><ele>289.0</ele><time>2026-04-12T08:51:18.066Z</time></trkpt><trkpt lat="43.592601" lon="6.6437245"><ele>288.0</ele><time>2026-04-12T08:51:19.067Z</time></trkpt><trkpt lat="43.5925274" lon="6.6435797"><ele>287.0</ele><time>2026-04-12T08:51:20.067Z</time></trkpt><trkpt lat="43.5924601" lon="6.643422"><ele>286.0</ele><time>2026-04-12T08:51:21.067Z</time></trkpt><trkpt lat="43.5923984" lon="6.6432506"><ele>285.5</ele><time>2026-04-12T08:51:22.067Z</time></trkpt><trkpt lat="43.5923361" lon="6.6430798"><ele>285.0</ele><time>2026-04-12T08:51:23.067Z</time></trkpt><trkpt lat="43.5922723" lon="6.642911"><ele>284.5</ele><time>2026-04-12T08:51:24.067Z</time></trkpt><trkpt lat="43.5922056" lon="6.6427436"><ele>284.0</ele><time>2026-04-12T08:51:25.067Z</time></trkpt><trkpt lat="43.5921353" lon="6.6425769"><ele>284.0</ele><time>2026-04-12T08:51:26.067Z</time></trkpt><trkpt lat="43.5920633" lon="6.6424192"><ele>284.0</ele><time>2026-04-12T08:51:27.067Z</time></trkpt><trkpt lat="43.5919895" lon="6.6422651"><ele>284.0</ele><time>2026-04-12T08:51:28.067Z</time></trkpt><trkpt lat="43.5919199" lon="6.6421159"><ele>284.0</ele><time>2026-04-12T08:51:29.067Z</time></trkpt><trkpt lat="43.5918516" lon="6.6419714"><ele>283.0</ele><time>2026-04-12T08:51:30.068Z</time></trkpt><trkpt lat="43.5917814" lon="6.6418289"><ele>282.0</ele><time>2026-04-12T08:51:31.067Z</time></trkpt><trkpt lat="43.5917063" lon="6.6416953"><ele>281.0</ele><time>2026-04-12T08:51:32.067Z</time></trkpt><trkpt lat="43.5916231" lon="6.6415761"><ele>280.0</ele><time>2026-04-12T08:51:33.068Z</time></trkpt><trkpt lat="43.5915336" lon="6.6414655"><ele>280.0</ele><time>2026-04-12T08:51:34.067Z</time></trkpt><trkpt lat="43.5914416" lon="6.6413722"><ele>280.0</ele><time>2026-04-12T08:51:35.067Z</time></trkpt><trkpt lat="43.5913507" lon="6.6412805"><ele>280.0</ele><time>2026-04-12T08:51:36.067Z</time></trkpt><trkpt lat="43.5912619" lon="6.6411863"><ele>280.0</ele><time>2026-04-12T08:51:37.067Z</time></trkpt><trkpt lat="43.591172" lon="6.6410869"><ele>280.0</ele><time>2026-04-12T08:51:38.067Z</time></trkpt><trkpt lat="43.5910839" lon="6.6409886"><ele>280.0</ele><time>2026-04-12T08:51:39.067Z</time></trkpt><trkpt lat="43.5909933" lon="6.640894"><ele>280.0</ele><time>2026-04-12T08:51:40.067Z</time></trkpt><trkpt lat="43.5908943" lon="6.6408177"><ele>280.0</ele><time>2026-04-12T08:51:41.067Z</time></trkpt><trkpt lat="43.5907878" lon="6.6407834"><ele>280.0</ele><time>2026-04-12T08:51:42.067Z</time></trkpt><trkpt lat="43.5906652" lon="6.6407857"><ele>280.0</ele><time>2026-04-12T08:51:43.067Z</time></trkpt><trkpt lat="43.5905439" lon="6.6408374"><ele>280.0</ele><time>2026-04-12T08:51:44.067Z</time></trkpt><trkpt lat="43.5904198" lon="6.6408897"><ele>280.0</ele><time>2026-04-12T08:51:45.067Z</time></trkpt><trkpt lat="43.5902922" lon="6.6409438"><ele>279.25</ele><time>2026-04-12T08:51:46.067Z</time></trkpt><trkpt lat="43.5901645" lon="6.6409916"><ele>278.5</ele><time>2026-04-12T08:51:47.067Z</time></trkpt><trkpt lat="43.5900406" lon="6.6410327"><ele>277.75</ele><time>2026-04-12T08:51:48.068Z</time></trkpt><trkpt lat="43.5899194" lon="6.6410796"><ele>277.0</ele><time>2026-04-12T08:51:49.068Z</time></trkpt><trkpt lat="43.5898017" lon="6.6411274"><ele>276.5</ele><time>2026-04-12T08:51:50.067Z</time></trkpt><trkpt lat="43.5896835" lon="6.6411819"><ele>276.0</ele><time>2026-04-12T08:51:51.068Z</time></trkpt><trkpt lat="43.5895716" lon="6.641245"><ele>275.5</ele><time>2026-04-12T08:51:52.068Z</time></trkpt><trkpt lat="43.58946" lon="6.641307"><ele>275.0</ele><time>2026-04-12T08:51:53.068Z</time></trkpt><trkpt lat="43.5893526" lon="6.6413684"><ele>274.75</ele><time>2026-04-12T08:51:54.067Z</time></trkpt><trkpt lat="43.5892468" lon="6.6414353"><ele>274.5</ele><time>2026-04-12T08:51:55.067Z</time></trkpt><trkpt lat="43.5891403" lon="6.641507"><ele>274.25</ele><time>2026-04-12T08:51:56.068Z</time></trkpt><trkpt lat="43.5890392" lon="6.6415849"><ele>274.0</ele><time>2026-04-12T08:51:57.067Z</time></trkpt><trkpt lat="43.5889469" lon="6.641676"><ele>274.0</ele><time>2026-04-12T08:51:58.067Z</time></trkpt><trkpt lat="43.5888605" lon="6.6417762"><ele>274.0</ele><time>2026-04-12T08:51:59.068Z</time></trkpt><trkpt lat="43.588782" lon="6.6418927"><ele>274.0</ele><time>2026-04-12T08:52:00.068Z</time></trkpt><trkpt lat="43.5887064" lon="6.6420165"><ele>274.0</ele><time>2026-04-12T08:52:01.068Z</time></trkpt><trkpt lat="43.5886273" lon="6.6421369"><ele>272.75</ele><time>2026-04-12T08:52:02.067Z</time></trkpt><trkpt lat="43.5885353" lon="6.6422401"><ele>271.5</ele><time>2026-04-12T08:52:03.068Z</time></trkpt><trkpt lat="43.5884362" lon="6.6423222"><ele>270.25</ele><time>2026-04-12T08:52:04.068Z</time></trkpt><trkpt lat="43.5883308" lon="6.6423894"><ele>269.0</ele><time>2026-04-12T08:52:05.068Z</time></trkpt><trkpt lat="43.5882235" lon="6.6424443"><ele>269.0</ele><time>2026-04-12T08:52:06.068Z</time></trkpt><trkpt lat="43.5881149" lon="6.6424793"><ele>269.0</ele><time>2026-04-12T08:52:07.068Z</time></trkpt><trkpt lat="43.588016" lon="6.6425107"><ele>269.0</ele><time>2026-04-12T08:52:08.068Z</time></trkpt><trkpt lat="43.5879157" lon="6.6425423"><ele>269.0</ele><time>2026-04-12T08:52:09.068Z</time></trkpt><trkpt lat="43.5878176" lon="6.6425726"><ele>269.0</ele><time>2026-04-12T08:52:10.068Z</time></trkpt><trkpt lat="43.5877233" lon="6.6426056"><ele>269.4</ele><time>2026-04-12T08:52:11.068Z</time></trkpt><trkpt lat="43.5876342" lon="6.6426419"><ele>269.79999999999995</ele><time>2026-04-12T08:52:12.068Z</time></trkpt><trkpt lat="43.587546" lon="6.6426776"><ele>270.20000000000005</ele><time>2026-04-12T08:52:13.068Z</time></trkpt><trkpt lat="43.5874581" lon="6.6427127"><ele>270.6</ele><time>2026-04-12T08:52:14.068Z</time></trkpt><trkpt lat="43.587365" lon="6.6427374"><ele>271.0</ele><time>2026-04-12T08:52:15.068Z</time></trkpt><trkpt lat="43.5872696" lon="6.6427646"><ele>271.0</ele><time>2026-04-12T08:52:16.068Z</time></trkpt><trkpt lat="43.5871733" lon="6.642791"><ele>271.0</ele><time>2026-04-12T08:52:17.069Z</time></trkpt><trkpt lat="43.5870796" lon="6.6428192"><ele>271.0</ele><time>2026-04-12T08:52:18.068Z</time></trkpt><trkpt lat="43.5869886" lon="6.6428468"><ele>271.0</ele><time>2026-04-12T08:52:19.069Z</time></trkpt><trkpt lat="43.5868992" lon="6.6428758"><ele>271.0</ele><time>2026-04-12T08:52:20.068Z</time></trkpt><trkpt lat="43.5868043" lon="6.6428974"><ele>270.0</ele><time>2026-04-12T08:52:21.068Z</time></trkpt><trkpt lat="43.5867105" lon="6.6428981"><ele>269.0</ele><time>2026-04-12T08:52:22.068Z</time></trkpt><trkpt lat="43.5866184" lon="6.6428759"><ele>268.0</ele><time>2026-04-12T08:52:23.068Z</time></trkpt><trkpt lat="43.5865335" lon="6.6428212"><ele>267.0</ele><time>2026-04-12T08:52:24.068Z</time></trkpt><trkpt lat="43.5864548" lon="6.6427503"><ele>266.0</ele><time>2026-04-12T08:52:25.068Z</time></trkpt><trkpt lat="43.5863693" lon="6.6426872"><ele>266.0</ele><time>2026-04-12T08:52:26.068Z</time></trkpt><trkpt lat="43.5863051" lon="6.6426581"><ele>266.0</ele><time>2026-04-12T08:52:27.068Z</time></trkpt><trkpt lat="43.5862306" lon="6.6426697"><ele>266.0</ele><time>2026-04-12T08:52:28.068Z</time></trkpt><trkpt lat="43.5861569" lon="6.6427401"><ele>266.0</ele><time>2026-04-12T08:52:29.068Z</time></trkpt><trkpt lat="43.586112" lon="6.6428532"><ele>266.0</ele><time>2026-04-12T08:52:30.068Z</time></trkpt><trkpt lat="43.5860719" lon="6.6429772"><ele>266.0</ele><time>2026-04-12T08:52:31.069Z</time></trkpt><trkpt lat="43.5860336" lon="6.6430974"><ele>265.8</ele><time>2026-04-12T08:52:32.068Z</time></trkpt><trkpt lat="43.585985" lon="6.6432147"><ele>265.6</ele><time>2026-04-12T08:52:33.068Z</time></trkpt><trkpt lat="43.5859346" lon="6.6433392"><ele>265.4</ele><time>2026-04-12T08:52:34.069Z</time></trkpt><trkpt lat="43.5858823" lon="6.6434661"><ele>265.2</ele><time>2026-04-12T08:52:35.069Z</time></trkpt><trkpt lat="43.5858271" lon="6.643591"><ele>265.0</ele><time>2026-04-12T08:52:36.068Z</time></trkpt><trkpt lat="43.5857674" lon="6.6437115"><ele>264.2</ele><time>2026-04-12T08:52:37.068Z</time></trkpt><trkpt lat="43.5857058" lon="6.6438339"><ele>263.4</ele><time>2026-04-12T08:52:38.069Z</time></trkpt><trkpt lat="43.5856453" lon="6.6439628"><ele>262.6</ele><time>2026-04-12T08:52:39.068Z</time></trkpt><trkpt lat="43.5855828" lon="6.6440881"><ele>261.8</ele><time>2026-04-12T08:52:40.069Z</time></trkpt><trkpt lat="43.5855218" lon="6.6442176"><ele>261.0</ele><time>2026-04-12T08:52:41.068Z</time></trkpt><trkpt lat="43.5854623" lon="6.6443448"><ele>261.2</ele><time>2026-04-12T08:52:42.069Z</time></trkpt><trkpt lat="43.5854005" lon="6.6444651"><ele>261.40000000000003</ele><time>2026-04-12T08:52:43.069Z</time></trkpt><trkpt lat="43.5853391" lon="6.6445914"><ele>261.6</ele><time>2026-04-12T08:52:44.069Z</time></trkpt><trkpt lat="43.5852805" lon="6.6447181"><ele>261.8</ele><time>2026-04-12T08:52:45.069Z</time></trkpt><trkpt lat="43.5852224" lon="6.6448431"><ele>262.0</ele><time>2026-04-12T08:52:46.069Z</time></trkpt><trkpt lat="43.585166" lon="6.6449632"><ele>262.0</ele><time>2026-04-12T08:52:47.069Z</time></trkpt><trkpt lat="43.5851103" lon="6.6450836"><ele>262.0</ele><time>2026-04-12T08:52:48.069Z</time></trkpt><trkpt lat="43.5850558" lon="6.6452022"><ele>262.0</ele><time>2026-04-12T08:52:49.068Z</time></trkpt><trkpt lat="43.585002" lon="6.6453235"><ele>262.0</ele><time>2026-04-12T08:52:50.069Z</time></trkpt><trkpt lat="43.5849516" lon="6.6454487"><ele>262.0</ele><time>2026-04-12T08:52:51.069Z</time></trkpt><trkpt lat="43.5849134" lon="6.645577"><ele>261.4</ele><time>2026-04-12T08:52:52.069Z</time></trkpt><trkpt lat="43.584885" lon="6.6457103"><ele>260.79999999999995</ele><time>2026-04-12T08:52:53.069Z</time></trkpt><trkpt lat="43.5848664" lon="6.6458463"><ele>260.2</ele><time>2026-04-12T08:52:54.069Z</time></trkpt><trkpt lat="43.5848537" lon="6.6459848"><ele>259.59999999999997</ele><time>2026-04-12T08:52:55.069Z</time></trkpt><trkpt lat="43.5848435" lon="6.6461244"><ele>259.0</ele><time>2026-04-12T08:52:56.07Z</time></trkpt><trkpt lat="43.5848321" lon="6.6462613"><ele>258.0</ele><time>2026-04-12T08:52:57.069Z</time></trkpt><trkpt lat="43.5848211" lon="6.646397"><ele>257.0</ele><time>2026-04-12T08:52:58.069Z</time></trkpt><trkpt lat="43.5848112" lon="6.6465312"><ele>255.99999999999997</ele><time>2026-04-12T08:52:59.069Z</time></trkpt><trkpt lat="43.5848007" lon="6.646662"><ele>255.0</ele><time>2026-04-12T08:53:00.069Z</time></trkpt><trkpt lat="43.5847926" lon="6.646802"><ele>254.0</ele><time>2026-04-12T08:53:01.07Z</time></trkpt><trkpt lat="43.5847839" lon="6.6469511"><ele>253.6</ele><time>2026-04-12T08:53:02.069Z</time></trkpt><trkpt lat="43.5847756" lon="6.6471031"><ele>253.2</ele><time>2026-04-12T08:53:03.069Z</time></trkpt><trkpt lat="43.5847665" lon="6.6472531"><ele>252.79999999999998</ele><time>2026-04-12T08:53:04.069Z</time></trkpt><trkpt lat="43.5847596" lon="6.6474007"><ele>252.39999999999998</ele><time>2026-04-12T08:53:05.069Z</time></trkpt><trkpt lat="43.5847616" lon="6.6475541"><ele>252.0</ele><time>2026-04-12T08:53:06.069Z</time></trkpt><trkpt lat="43.5847831" lon="6.6477048"><ele>251.5</ele><time>2026-04-12T08:53:07.069Z</time></trkpt><trkpt lat="43.5848325" lon="6.6478424"><ele>251.0</ele><time>2026-04-12T08:53:08.069Z</time></trkpt><trkpt lat="43.5848979" lon="6.6479765"><ele>250.5</ele><time>2026-04-12T08:53:09.069Z</time></trkpt><trkpt lat="43.5849619" lon="6.648107"><ele>250.0</ele><time>2026-04-12T08:53:10.069Z</time></trkpt><trkpt lat="43.5850194" lon="6.6482451"><ele>250.0</ele><time>2026-04-12T08:53:11.069Z</time></trkpt><trkpt lat="43.5850595" lon="6.6483917"><ele>250.0</ele><time>2026-04-12T08:53:12.07Z</time></trkpt><trkpt lat="43.5850763" lon="6.6485523"><ele>250.0</ele><time>2026-04-12T08:53:13.069Z</time></trkpt><trkpt lat="43.5850774" lon="6.6487205"><ele>250.0</ele><time>2026-04-12T08:53:14.069Z</time></trkpt><trkpt lat="43.5850676" lon="6.6488878"><ele>249.75</ele><time>2026-04-12T08:53:15.069Z</time></trkpt><trkpt lat="43.5850479" lon="6.6490529"><ele>249.5</ele><time>2026-04-12T08:53:16.07Z</time></trkpt><trkpt lat="43.5850203" lon="6.6492127"><ele>249.25</ele><time>2026-04-12T08:53:17.069Z</time></trkpt><trkpt lat="43.584987" lon="6.6493722"><ele>249.0</ele><time>2026-04-12T08:53:18.069Z</time></trkpt><trkpt lat="43.5849521" lon="6.6495334"><ele>247.25</ele><time>2026-04-12T08:53:19.069Z</time></trkpt><trkpt lat="43.5849211" lon="6.6496959"><ele>245.5</ele><time>2026-04-12T08:53:20.069Z</time></trkpt><trkpt lat="43.584893" lon="6.6498595"><ele>243.75</ele><time>2026-04-12T08:53:21.069Z</time></trkpt><trkpt lat="43.5848671" lon="6.6500297"><ele>242.0</ele><time>2026-04-12T08:53:22.07Z</time></trkpt><trkpt lat="43.5848413" lon="6.6501946"><ele>241.0</ele><time>2026-04-12T08:53:23.07Z</time></trkpt><trkpt lat="43.5848251" lon="6.6503681"><ele>240.0</ele><time>2026-04-12T08:53:24.069Z</time></trkpt><trkpt lat="43.5848193" lon="6.650538"><ele>239.0</ele><time>2026-04-12T08:53:25.069Z</time></trkpt><trkpt lat="43.5848265" lon="6.6507073"><ele>238.0</ele><time>2026-04-12T08:53:26.07Z</time></trkpt><trkpt lat="43.5848469" lon="6.6508707"><ele>238.0</ele><time>2026-04-12T08:53:27.07Z</time></trkpt><trkpt lat="43.5848812" lon="6.6510313"><ele>238.0</ele><time>2026-04-12T08:53:28.069Z</time></trkpt><trkpt lat="43.5849283" lon="6.6511822"><ele>238.0</ele><time>2026-04-12T08:53:29.069Z</time></trkpt><trkpt lat="43.5849798" lon="6.6513165"><ele>238.0</ele><time>2026-04-12T08:53:30.07Z</time></trkpt><trkpt lat="43.5850411" lon="6.6514464"><ele>237.8</ele><time>2026-04-12T08:53:31.07Z</time></trkpt><trkpt lat="43.5851097" lon="6.6515725"><ele>237.60000000000002</ele><time>2026-04-12T08:53:32.069Z</time></trkpt><trkpt lat="43.5851731" lon="6.6516968"><ele>237.39999999999998</ele><time>2026-04-12T08:53:33.07Z</time></trkpt><trkpt lat="43.5852349" lon="6.651819"><ele>237.2</ele><time>2026-04-12T08:53:34.071Z</time></trkpt><trkpt lat="43.5852935" lon="6.651943"><ele>237.0</ele><time>2026-04-12T08:53:35.07Z</time></trkpt><trkpt lat="43.5853423" lon="6.6520735"><ele>237.39999999999998</ele><time>2026-04-12T08:53:36.071Z</time></trkpt><trkpt lat="43.5853759" lon="6.6522113"><ele>237.79999999999998</ele><time>2026-04-12T08:53:37.07Z</time></trkpt><trkpt lat="43.5853948" lon="6.6523527"><ele>238.2</ele><time>2026-04-12T08:53:38.07Z</time></trkpt><trkpt lat="43.5853988" lon="6.6524938"><ele>238.6</ele><time>2026-04-12T08:53:39.07Z</time></trkpt><trkpt lat="43.5853944" lon="6.6526342"><ele>239.0</ele><time>2026-04-12T08:53:40.07Z</time></trkpt><trkpt lat="43.585387" lon="6.6527649"><ele>239.00000000000003</ele><time>2026-04-12T08:53:41.07Z</time></trkpt><trkpt lat="43.5853804" lon="6.6528983"><ele>239.0</ele><time>2026-04-12T08:53:42.071Z</time></trkpt><trkpt lat="43.5853763" lon="6.6530246"><ele>239.0</ele><time>2026-04-12T08:53:43.07Z</time></trkpt><trkpt lat="43.5853726" lon="6.6531457"><ele>239.0</ele><time>2026-04-12T08:53:44.07Z</time></trkpt><trkpt lat="43.5853675" lon="6.6532633"><ele>239.00000000000003</ele><time>2026-04-12T08:53:45.07Z</time></trkpt><trkpt lat="43.5853636" lon="6.6533746"><ele>239.0</ele><time>2026-04-12T08:53:46.07Z</time></trkpt><trkpt lat="43.5853624" lon="6.6534851"><ele>239.00000000000003</ele><time>2026-04-12T08:53:47.071Z</time></trkpt><trkpt lat="43.5853621" lon="6.653594"><ele>239.0</ele><time>2026-04-12T08:53:48.07Z</time></trkpt><trkpt lat="43.5853624" lon="6.6537043"><ele>239.0</ele><time>2026-04-12T08:53:49.07Z</time></trkpt><trkpt lat="43.5853619" lon="6.6538104"><ele>239.0</ele><time>2026-04-12T08:53:50.07Z</time></trkpt><trkpt lat="43.5853614" lon="6.6539147"><ele>239.00000000000003</ele><time>2026-04-12T08:53:51.07Z</time></trkpt><trkpt lat="43.585361" lon="6.6540209"><ele>239.0</ele><time>2026-04-12T08:53:52.07Z</time></trkpt><trkpt lat="43.5853597" lon="6.6541278"><ele>239.33333333333334</ele><time>2026-04-12T08:53:53.07Z</time></trkpt><trkpt lat="43.585358" lon="6.6542344"><ele>239.66666666666669</ele><time>2026-04-12T08:53:54.07Z</time></trkpt><trkpt lat="43.5853573" lon="6.6543384"><ele>240.0</ele><time>2026-04-12T08:53:55.07Z</time></trkpt><trkpt lat="43.5853561" lon="6.6544421"><ele>240.33333333333331</ele><time>2026-04-12T08:53:56.07Z</time></trkpt><trkpt lat="43.5853566" lon="6.6545455"><ele>240.66666666666666</ele><time>2026-04-12T08:53:57.07Z</time></trkpt><trkpt lat="43.5853562" lon="6.6546486"><ele>241.0</ele><time>2026-04-12T08:53:58.07Z</time></trkpt><trkpt lat="43.5853555" lon="6.6547514"><ele>241.42857142857144</ele><time>2026-04-12T08:53:59.07Z</time></trkpt><trkpt lat="43.5853551" lon="6.6548499"><ele>241.8571428571429</ele><time>2026-04-12T08:54:00.07Z</time></trkpt><trkpt lat="43.5853542" lon="6.6549479"><ele>242.28571428571428</ele><time>2026-04-12T08:54:01.07Z</time></trkpt><trkpt lat="43.5853537" lon="6.6550446"><ele>242.71428571428572</ele><time>2026-04-12T08:54:02.07Z</time></trkpt><trkpt lat="43.5853532" lon="6.6551449"><ele>243.14285714285714</ele><time>2026-04-12T08:54:03.07Z</time></trkpt><trkpt lat="43.5853509" lon="6.6552437"><ele>243.57142857142856</ele><time>2026-04-12T08:54:04.07Z</time></trkpt><trkpt lat="43.5853495" lon="6.6553433"><ele>243.99999999999997</ele><time>2026-04-12T08:54:05.07Z</time></trkpt><trkpt lat="43.5853481" lon="6.6554384"><ele>244.1428571428571</ele><time>2026-04-12T08:54:06.071Z</time></trkpt><trkpt lat="43.5853477" lon="6.6555369"><ele>244.28571428571428</ele><time>2026-04-12T08:54:07.07Z</time></trkpt><trkpt lat="43.5853481" lon="6.6556322"><ele>244.42857142857142</ele><time>2026-04-12T08:54:08.07Z</time></trkpt><trkpt lat="43.5853474" lon="6.6557274"><ele>244.57142857142856</ele><time>2026-04-12T08:54:09.07Z</time></trkpt><trkpt lat="43.5853475" lon="6.6558226"><ele>244.71428571428572</ele><time>2026-04-12T08:54:10.07Z</time></trkpt><trkpt lat="43.5853447" lon="6.6559154"><ele>244.85714285714286</ele><time>2026-04-12T08:54:11.071Z</time></trkpt><trkpt lat="43.5853401" lon="6.6560079"><ele>245.0</ele><time>2026-04-12T08:54:12.071Z</time></trkpt><trkpt lat="43.585339" lon="6.6561085"><ele>244.28571428571428</ele><time>2026-04-12T08:54:13.07Z</time></trkpt><trkpt lat="43.5853368" lon="6.6562121"><ele>243.57142857142856</ele><time>2026-04-12T08:54:14.07Z</time></trkpt><trkpt lat="43.5853378" lon="6.6563115"><ele>242.85714285714286</ele><time>2026-04-12T08:54:15.071Z</time></trkpt><trkpt lat="43.5853398" lon="6.6564083"><ele>242.14285714285714</ele><time>2026-04-12T08:54:16.071Z</time></trkpt><trkpt lat="43.585341" lon="6.6565083"><ele>241.42857142857142</ele><time>2026-04-12T08:54:17.071Z</time></trkpt><trkpt lat="43.5853424" lon="6.6566014"><ele>240.71428571428572</ele><time>2026-04-12T08:54:18.07Z</time></trkpt><trkpt lat="43.585342" lon="6.6567053"><ele>240.0</ele><time>2026-04-12T08:54:19.07Z</time></trkpt><trkpt lat="43.585341" lon="6.6568079"><ele>240.0</ele><time>2026-04-12T08:54:20.07Z</time></trkpt><trkpt lat="43.5853417" lon="6.656909"><ele>240.0</ele><time>2026-04-12T08:54:21.071Z</time></trkpt><trkpt lat="43.5853423" lon="6.6570107"><ele>240.0</ele><time>2026-04-12T08:54:22.071Z</time></trkpt><trkpt lat="43.5853414" lon="6.6571122"><ele>240.0</ele><time>2026-04-12T08:54:23.071Z</time></trkpt><trkpt lat="43.5853386" lon="6.6572129"><ele>240.0</ele><time>2026-04-12T08:54:24.07Z</time></trkpt><trkpt lat="43.5853335" lon="6.6573168"><ele>240.0</ele><time>2026-04-12T08:54:25.072Z</time></trkpt><trkpt lat="43.5853224" lon="6.6574156"><ele>240.0</ele><time>2026-04-12T08:54:26.071Z</time></trkpt><trkpt lat="43.5853056" lon="6.6575126"><ele>240.14285714285717</ele><time>2026-04-12T08:54:27.071Z</time></trkpt><trkpt lat="43.5852851" lon="6.6576059"><ele>240.28571428571428</ele><time>2026-04-12T08:54:28.071Z</time></trkpt><trkpt lat="43.5852609" lon="6.6576969"><ele>240.42857142857144</ele><time>2026-04-12T08:54:29.071Z</time></trkpt><trkpt lat="43.5852343" lon="6.6577806"><ele>240.57142857142858</ele><time>2026-04-12T08:54:30.071Z</time></trkpt><trkpt lat="43.5852072" lon="6.6578643"><ele>240.71428571428572</ele><time>2026-04-12T08:54:31.071Z</time></trkpt><trkpt lat="43.5851785" lon="6.6579483"><ele>240.85714285714286</ele><time>2026-04-12T08:54:32.071Z</time></trkpt><trkpt lat="43.5851456" lon="6.6580278"><ele>241.0</ele><time>2026-04-12T08:54:33.071Z</time></trkpt><trkpt lat="43.585112" lon="6.6581055"><ele>242.20000000000002</ele><time>2026-04-12T08:54:34.071Z</time></trkpt><trkpt lat="43.5850739" lon="6.6581795"><ele>243.40000000000003</ele><time>2026-04-12T08:54:35.071Z</time></trkpt><trkpt lat="43.5850323" lon="6.6582478"><ele>244.6</ele><time>2026-04-12T08:54:36.072Z</time></trkpt><trkpt lat="43.5849577" lon="6.6583625"><ele>245.8</ele><time>2026-04-12T08:54:38.071Z</time></trkpt><trkpt lat="43.5848786" lon="6.6584604"><ele>247.0</ele><time>2026-04-12T08:54:40.071Z</time></trkpt><trkpt lat="43.584802" lon="6.6585603"><ele>248.8</ele><time>2026-04-12T08:54:42.071Z</time></trkpt><trkpt lat="43.5847385" lon="6.6586483"><ele>250.6</ele><time>2026-04-12T08:54:44.071Z</time></trkpt><trkpt lat="43.5846736" lon="6.658752"><ele>252.40000000000003</ele><time>2026-04-12T08:54:46.071Z</time></trkpt><trkpt lat="43.5846146" lon="6.6588488"><ele>254.20000000000002</ele><time>2026-04-12T08:54:48.071Z</time></trkpt><trkpt lat="43.584585" lon="6.6589617"><ele>256.0</ele><time>2026-04-12T08:54:50.071Z</time></trkpt><trkpt lat="43.5845538" lon="6.659076"><ele>256.0</ele><time>2026-04-12T08:54:52.071Z</time></trkpt><trkpt lat="43.5845283" lon="6.6592065"><ele>256.0</ele><time>2026-04-12T08:54:54.071Z</time></trkpt><trkpt lat="43.5845219" lon="6.6593358"><ele>256.0</ele><time>2026-04-12T08:54:56.071Z</time></trkpt><trkpt lat="43.5845296" lon="6.6594648"><ele>256.0</ele><time>2026-04-12T08:54:58.071Z</time></trkpt><trkpt lat="43.5845474" lon="6.6595841"><ele>256.0</ele><time>2026-04-12T08:55:00.071Z</time></trkpt><trkpt lat="43.5845805" lon="6.6596866"><ele>255.99999999999997</ele><time>2026-04-12T08:55:02.072Z</time></trkpt><trkpt lat="43.5846346" lon="6.6597821"><ele>256.0</ele><time>2026-04-12T08:55:04.072Z</time></trkpt><trkpt lat="43.5846933" lon="6.659864"><ele>256.0</ele><time>2026-04-12T08:55:06.073Z</time></trkpt><trkpt lat="43.5847634" lon="6.6599293"><ele>256.0</ele><time>2026-04-12T08:55:08.071Z</time></trkpt><trkpt lat="43.5848352" lon="6.6599754"><ele>255.99999999999997</ele><time>2026-04-12T08:55:10.072Z</time></trkpt><trkpt lat="43.5849046" lon="6.6600217"><ele>256.0</ele><time>2026-04-12T08:55:12.072Z</time></trkpt><trkpt lat="43.5849765" lon="6.6600671"><ele>255.99999999999997</ele><time>2026-04-12T08:55:14.072Z</time></trkpt><trkpt lat="43.5850533" lon="6.6601105"><ele>256.0</ele><time>2026-04-12T08:55:16.072Z</time></trkpt><trkpt lat="43.5851167" lon="6.6601542"><ele>256.0</ele><time>2026-04-12T08:55:18.072Z</time></trkpt><trkpt lat="43.5851783" lon="6.6602086"><ele>256.0</ele><time>2026-04-12T08:55:20.072Z</time></trkpt><trkpt lat="43.5852448" lon="6.660296"><ele>255.99999999999997</ele><time>2026-04-12T08:55:22.073Z</time></trkpt><trkpt lat="43.5853104" lon="6.6603636"><ele>256.0</ele><time>2026-04-12T08:55:24.072Z</time></trkpt><trkpt lat="43.5853448" lon="6.6604619"><ele>256.3333333333333</ele><time>2026-04-12T08:55:26.073Z</time></trkpt><trkpt lat="43.5853516" lon="6.6606022"><ele>256.66666666666663</ele><time>2026-04-12T08:55:28.072Z</time></trkpt><trkpt lat="43.5853261" lon="6.6607296"><ele>257.0</ele><time>2026-04-12T08:55:30.072Z</time></trkpt><trkpt lat="43.5852853" lon="6.6608213"><ele>257.3333333333333</ele><time>2026-04-12T08:55:32.072Z</time></trkpt><trkpt lat="43.5852366" lon="6.6608995"><ele>257.6666666666667</ele><time>2026-04-12T08:55:34.072Z</time></trkpt><trkpt lat="43.5851933" lon="6.6609716"><ele>258.0</ele><time>2026-04-12T08:55:36.073Z</time></trkpt><trkpt lat="43.5851432" lon="6.6610376"><ele>257.99999999999994</ele><time>2026-04-12T08:55:38.072Z</time></trkpt><trkpt lat="43.5850898" lon="6.661099"><ele>258.0</ele><time>2026-04-12T08:55:40.072Z</time></trkpt><trkpt lat="43.5850522" lon="6.6611762"><ele>258.0</ele><time>2026-04-12T08:55:42.072Z</time></trkpt><trkpt lat="43.5849888" lon="6.661238"><ele>258.0</ele><time>2026-04-12T08:55:44.072Z</time></trkpt><trkpt lat="43.5849207" lon="6.6613015"><ele>258.0</ele><time>2026-04-12T08:55:46.072Z</time></trkpt><trkpt lat="43.5848688" lon="6.6613706"><ele>257.99999999999994</ele><time>2026-04-12T08:55:48.072Z</time></trkpt><trkpt lat="43.5848257" lon="6.6614434"><ele>258.0</ele><time>2026-04-12T08:55:50.072Z</time></trkpt><trkpt lat="43.5847901" lon="6.6615355"><ele>259.5</ele><time>2026-04-12T08:55:52.072Z</time></trkpt><trkpt lat="43.5847492" lon="6.6616669"><ele>261.0</ele><time>2026-04-12T08:55:55.072Z</time></trkpt><trkpt lat="43.5847097" lon="6.6617864"><ele>262.5</ele><time>2026-04-12T08:55:57.072Z</time></trkpt><trkpt lat="43.5846861" lon="6.6618799"><ele>264.0</ele><time>2026-04-12T08:55:59.073Z</time></trkpt><trkpt lat="43.5846667" lon="6.6619944"><ele>265.5</ele><time>2026-04-12T08:56:01.073Z</time></trkpt><trkpt lat="43.5846468" lon="6.6621029"><ele>267.0</ele><time>2026-04-12T08:56:03.073Z</time></trkpt><trkpt lat="43.5846308" lon="6.6622058"><ele>268.0</ele><time>2026-04-12T08:56:05.074Z</time></trkpt><trkpt lat="43.5846206" lon="6.6623082"><ele>269.0</ele><time>2026-04-12T08:56:07.073Z</time></trkpt><trkpt lat="43.5846086" lon="6.6624132"><ele>270.0</ele><time>2026-04-12T08:56:09.073Z</time></trkpt><trkpt lat="43.5845989" lon="6.6625082"><ele>271.0</ele><time>2026-04-12T08:56:11.073Z</time></trkpt><trkpt lat="43.5845916" lon="6.6626074"><ele>272.0</ele><time>2026-04-12T08:56:13.073Z</time></trkpt><trkpt lat="43.584585" lon="6.6627172"><ele>273.0</ele><time>2026-04-12T08:56:15.073Z</time></trkpt><trkpt lat="43.5845758" lon="6.6628237"><ele>274.14285714285717</ele><time>2026-04-12T08:56:17.073Z</time></trkpt><trkpt lat="43.5845676" lon="6.6629244"><ele>275.2857142857143</ele><time>2026-04-12T08:56:19.073Z</time></trkpt><trkpt lat="43.5845678" lon="6.6630164"><ele>276.42857142857144</ele><time>2026-04-12T08:56:21.073Z</time></trkpt><trkpt lat="43.5845598" lon="6.6631029"><ele>277.57142857142856</ele><time>2026-04-12T08:56:23.073Z</time></trkpt><trkpt lat="43.584559" lon="6.6632018"><ele>278.7142857142857</ele><time>2026-04-12T08:56:25.073Z</time></trkpt><trkpt lat="43.5845643" lon="6.6633003"><ele>279.8571428571429</ele><time>2026-04-12T08:56:27.073Z</time></trkpt><trkpt lat="43.5845465" lon="6.6634002"><ele>281.0</ele><time>2026-04-12T08:56:29.073Z</time></trkpt><trkpt lat="43.5845302" lon="6.6635111"><ele>281.0</ele><time>2026-04-12T08:56:31.073Z</time></trkpt><trkpt lat="43.5845178" lon="6.6636086"><ele>281.0</ele><time>2026-04-12T08:56:33.074Z</time></trkpt><trkpt lat="43.5844997" lon="6.6637084"><ele>281.0</ele><time>2026-04-12T08:56:35.073Z</time></trkpt><trkpt lat="43.5844794" lon="6.6638278"><ele>281.0</ele><time>2026-04-12T08:56:37.073Z</time></trkpt><trkpt lat="43.5844451" lon="6.6639366"><ele>281.0</ele><time>2026-04-12T08:56:39.073Z</time></trkpt><trkpt lat="43.5844028" lon="6.6640604"><ele>281.0</ele><time>2026-04-12T08:56:42.074Z</time></trkpt><trkpt lat="43.5843657" lon="6.6641767"><ele>281.28571428571433</ele><time>2026-04-12T08:56:44.073Z</time></trkpt><trkpt lat="43.5843247" lon="6.6642436"><ele>281.57142857142856</ele><time>2026-04-12T08:56:46.074Z</time></trkpt><trkpt lat="43.5842849" lon="6.6643217"><ele>281.8571428571429</ele><time>2026-04-12T08:56:48.075Z</time></trkpt><trkpt lat="43.584221" lon="6.6644092"><ele>282.14285714285717</ele><time>2026-04-12T08:56:51.074Z</time></trkpt><trkpt lat="43.5841755" lon="6.6644799"><ele>282.42857142857144</ele><time>2026-04-12T08:56:53.075Z</time></trkpt><trkpt lat="43.5841328" lon="6.6645445"><ele>282.7142857142857</ele><time>2026-04-12T08:56:55.074Z</time></trkpt><trkpt lat="43.5840709" lon="6.6645929"><ele>283.0</ele><time>2026-04-12T08:56:57.075Z</time></trkpt><trkpt lat="43.5839971" lon="6.6646483"><ele>283.0</ele><time>2026-04-12T08:56:59.074Z</time></trkpt><trkpt lat="43.5839155" lon="6.6647182"><ele>283.0</ele><time>2026-04-12T08:57:01.074Z</time></trkpt><trkpt lat="43.5838456" lon="6.6647783"><ele>283.0</ele><time>2026-04-12T08:57:03.075Z</time></trkpt><trkpt lat="43.5838083" lon="6.6648571"><ele>283.0</ele><time>2026-04-12T08:57:05.074Z</time></trkpt><trkpt lat="43.5837276" lon="6.6649317"><ele>283.0</ele><time>2026-04-12T08:57:07.074Z</time></trkpt><trkpt lat="43.5836515" lon="6.6650012"><ele>283.0</ele><time>2026-04-12T08:57:09.074Z</time></trkpt><trkpt lat="43.5835751" lon="6.6650734"><ele>282.3333333333333</ele><time>2026-04-12T08:57:11.074Z</time></trkpt><trkpt lat="43.5835101" lon="6.6651425"><ele>281.66666666666663</ele><time>2026-04-12T08:57:13.074Z</time></trkpt><trkpt lat="43.5834497" lon="6.6652131"><ele>281.0</ele><time>2026-04-12T08:57:15.074Z</time></trkpt><trkpt lat="43.5833959" lon="6.6652984"><ele>280.3333333333333</ele><time>2026-04-12T08:57:17.075Z</time></trkpt><trkpt lat="43.5833383" lon="6.6653909"><ele>279.6666666666667</ele><time>2026-04-12T08:57:19.075Z</time></trkpt><trkpt lat="43.5832994" lon="6.6654972"><ele>279.0</ele><time>2026-04-12T08:57:21.074Z</time></trkpt><trkpt lat="43.5832585" lon="6.6656133"><ele>279.0</ele><time>2026-04-12T08:57:23.074Z</time></trkpt><trkpt lat="43.5832133" lon="6.6657405"><ele>279.0</ele><time>2026-04-12T08:57:25.075Z</time></trkpt><trkpt lat="43.5831861" lon="6.665873"><ele>279.0</ele><time>2026-04-12T08:57:27.075Z</time></trkpt><trkpt lat="43.5831666" lon="6.6660149"><ele>279.0</ele><time>2026-04-12T08:57:29.075Z</time></trkpt><trkpt lat="43.5831516" lon="6.6661657"><ele>279.0</ele><time>2026-04-12T08:57:31.076Z</time></trkpt><trkpt lat="43.5831498" lon="6.6663138"><ele>279.0</ele><time>2026-04-12T08:57:33.075Z</time></trkpt><trkpt lat="43.5831602" lon="6.6664599"><ele>279.0</ele><time>2026-04-12T08:57:35.075Z</time></trkpt><trkpt lat="43.5831805" lon="6.6666149"><ele>279.0</ele><time>2026-04-12T08:57:37.075Z</time></trkpt><trkpt lat="43.5832136" lon="6.6667716"><ele>279.0</ele><time>2026-04-12T08:57:39.076Z</time></trkpt><trkpt lat="43.583238" lon="6.666929"><ele>278.5</ele><time>2026-04-12T08:57:41.075Z</time></trkpt><trkpt lat="43.5832622" lon="6.6670935"><ele>278.0</ele><time>2026-04-12T08:57:43.076Z</time></trkpt><trkpt lat="43.5832927" lon="6.6672524"><ele>277.5</ele><time>2026-04-12T08:57:45.075Z</time></trkpt><trkpt lat="43.5833239" lon="6.6674094"><ele>277.0</ele><time>2026-04-12T08:57:47.075Z</time></trkpt><trkpt lat="43.5833488" lon="6.6675664"><ele>277.0</ele><time>2026-04-12T08:57:49.075Z</time></trkpt><trkpt lat="43.5833661" lon="6.6676508"><ele>277.0</ele><time>2026-04-12T08:57:50.075Z</time></trkpt><trkpt lat="43.5833792" lon="6.667744"><ele>277.0</ele><time>2026-04-12T08:57:51.076Z</time></trkpt><trkpt lat="43.5833951" lon="6.6678356"><ele>277.0</ele><time>2026-04-12T08:57:52.075Z</time></trkpt><trkpt lat="43.5834159" lon="6.6679349"><ele>277.0</ele><time>2026-04-12T08:57:53.075Z</time></trkpt><trkpt lat="43.5834355" lon="6.66803"><ele>277.0</ele><time>2026-04-12T08:57:54.075Z</time></trkpt><trkpt lat="43.5834603" lon="6.6681285"><ele>277.0</ele><time>2026-04-12T08:57:55.076Z</time></trkpt><trkpt lat="43.5834795" lon="6.6682161"><ele>277.0</ele><time>2026-04-12T08:57:56.075Z</time></trkpt><trkpt lat="43.5834929" lon="6.6683063"><ele>277.0</ele><time>2026-04-12T08:57:57.075Z</time></trkpt><trkpt lat="43.5835066" lon="6.6683949"><ele>277.0</ele><time>2026-04-12T08:57:58.075Z</time></trkpt><trkpt lat="43.583521" lon="6.6684832"><ele>277.0</ele><time>2026-04-12T08:57:59.075Z</time></trkpt><trkpt lat="43.5835637" lon="6.6686559"><ele>277.0</ele><time>2026-04-12T08:58:01.076Z</time></trkpt><trkpt lat="43.583591" lon="6.6687403"><ele>277.0</ele><time>2026-04-12T08:58:02.075Z</time></trkpt><trkpt lat="43.5836252" lon="6.6688159"><ele>277.0</ele><time>2026-04-12T08:58:03.077Z</time></trkpt><trkpt lat="43.5836645" lon="6.6688922"><ele>277.0</ele><time>2026-04-12T08:58:04.076Z</time></trkpt><trkpt lat="43.5837489" lon="6.6690156"><ele>277.0</ele><time>2026-04-12T08:58:06.076Z</time></trkpt><trkpt lat="43.5838027" lon="6.6690635"><ele>277.0</ele><time>2026-04-12T08:58:07.076Z</time></trkpt><trkpt lat="43.5838622" lon="6.6691115"><ele>277.0</ele><time>2026-04-12T08:58:08.076Z</time></trkpt><trkpt lat="43.5839249" lon="6.6691635"><ele>277.0</ele><time>2026-04-12T08:58:09.075Z</time></trkpt><trkpt lat="43.5839821" lon="6.6692037"><ele>277.85714285714283</ele><time>2026-04-12T08:58:10.075Z</time></trkpt><trkpt lat="43.5840415" lon="6.6692348"><ele>278.71428571428567</ele><time>2026-04-12T08:58:11.075Z</time></trkpt><trkpt lat="43.5841028" lon="6.6692705"><ele>279.57142857142856</ele><time>2026-04-12T08:58:12.077Z</time></trkpt><trkpt lat="43.5841682" lon="6.6692927"><ele>280.42857142857144</ele><time>2026-04-12T08:58:13.075Z</time></trkpt><trkpt lat="43.5842311" lon="6.6693049"><ele>281.28571428571433</ele><time>2026-04-12T08:58:14.076Z</time></trkpt><trkpt lat="43.5842965" lon="6.6693231"><ele>282.14285714285717</ele><time>2026-04-12T08:58:15.076Z</time></trkpt><trkpt lat="43.5843603" lon="6.669355"><ele>283.0</ele><time>2026-04-12T08:58:16.076Z</time></trkpt><trkpt lat="43.5844323" lon="6.6693865"><ele>283.0</ele><time>2026-04-12T08:58:17.076Z</time></trkpt><trkpt lat="43.5845032" lon="6.6694036"><ele>283.0</ele><time>2026-04-12T08:58:18.076Z</time></trkpt><trkpt lat="43.5845743" lon="6.6694193"><ele>283.0</ele><time>2026-04-12T08:58:19.076Z</time></trkpt><trkpt lat="43.5846469" lon="6.66944"><ele>283.0</ele><time>2026-04-12T08:58:20.077Z</time></trkpt><trkpt lat="43.5847071" lon="6.6694659"><ele>283.0</ele><time>2026-04-12T08:58:21.076Z</time></trkpt><trkpt lat="43.5848284" lon="6.6695168"><ele>283.0</ele><time>2026-04-12T08:58:23.076Z</time></trkpt><trkpt lat="43.5848895" lon="6.6695467"><ele>282.0</ele><time>2026-04-12T08:58:24.076Z</time></trkpt><trkpt lat="43.5849493" lon="6.6695835"><ele>281.0</ele><time>2026-04-12T08:58:25.077Z</time></trkpt><trkpt lat="43.5850091" lon="6.6696336"><ele>280.0</ele><time>2026-04-12T08:58:26.076Z</time></trkpt><trkpt lat="43.58507" lon="6.6696853"><ele>279.0</ele><time>2026-04-12T08:58:27.076Z</time></trkpt><trkpt lat="43.5851436" lon="6.669734"><ele>278.0</ele><time>2026-04-12T08:58:28.077Z</time></trkpt><trkpt lat="43.5852101" lon="6.6697889"><ele>277.0</ele><time>2026-04-12T08:58:29.076Z</time></trkpt><trkpt lat="43.5852737" lon="6.6698447"><ele>276.0</ele><time>2026-04-12T08:58:30.076Z</time></trkpt><trkpt lat="43.5853351" lon="6.6699025"><ele>277.2857142857143</ele><time>2026-04-12T08:58:31.076Z</time></trkpt><trkpt lat="43.5853943" lon="6.669959"><ele>278.5714285714286</ele><time>2026-04-12T08:58:32.076Z</time></trkpt><trkpt lat="43.5854593" lon="6.6700102"><ele>279.8571428571429</ele><time>2026-04-12T08:58:33.076Z</time></trkpt><trkpt lat="43.5855267" lon="6.6700592"><ele>281.14285714285717</ele><time>2026-04-12T08:58:34.076Z</time></trkpt><trkpt lat="43.5855876" lon="6.670108"><ele>282.42857142857144</ele><time>2026-04-12T08:58:35.077Z</time></trkpt><trkpt lat="43.5856448" lon="6.670153"><ele>283.7142857142857</ele><time>2026-04-12T08:58:36.076Z</time></trkpt><trkpt lat="43.5857041" lon="6.6701935"><ele>285.0</ele><time>2026-04-12T08:58:37.076Z</time></trkpt><trkpt lat="43.5857637" lon="6.6702287"><ele>285.0</ele><time>2026-04-12T08:58:38.076Z</time></trkpt><trkpt lat="43.5858276" lon="6.6702639"><ele>285.0</ele><time>2026-04-12T08:58:39.076Z</time></trkpt><trkpt lat="43.5858926" lon="6.6702972"><ele>285.0</ele><time>2026-04-12T08:58:40.076Z</time></trkpt><trkpt lat="43.5859596" lon="6.670319"><ele>285.0</ele><time>2026-04-12T08:58:41.076Z</time></trkpt><trkpt lat="43.5860235" lon="6.6703332"><ele>285.0</ele><time>2026-04-12T08:58:42.076Z</time></trkpt><trkpt lat="43.5860913" lon="6.6703406"><ele>285.0</ele><time>2026-04-12T08:58:43.076Z</time></trkpt><trkpt lat="43.5861634" lon="6.6703459"><ele>285.0</ele><time>2026-04-12T08:58:44.076Z</time></trkpt><trkpt lat="43.5862408" lon="6.6703435"><ele>284.7142857142857</ele><time>2026-04-12T08:58:45.076Z</time></trkpt><trkpt lat="43.5863103" lon="6.6703318"><ele>284.42857142857144</ele><time>2026-04-12T08:58:46.076Z</time></trkpt><trkpt lat="43.5863776" lon="6.6703093"><ele>284.14285714285717</ele><time>2026-04-12T08:58:47.076Z</time></trkpt><trkpt lat="43.5864409" lon="6.6702776"><ele>283.8571428571429</ele><time>2026-04-12T08:58:48.076Z</time></trkpt><trkpt lat="43.5864964" lon="6.6702351"><ele>283.5714285714286</ele><time>2026-04-12T08:58:49.076Z</time></trkpt><trkpt lat="43.5865529" lon="6.670182"><ele>283.2857142857143</ele><time>2026-04-12T08:58:50.077Z</time></trkpt><trkpt lat="43.5866019" lon="6.670121"><ele>283.0</ele><time>2026-04-12T08:58:51.077Z</time></trkpt><trkpt lat="43.5866976" lon="6.6699913"><ele>283.0</ele><time>2026-04-12T08:58:53.077Z</time></trkpt><trkpt lat="43.5867404" lon="6.6699246"><ele>283.0</ele><time>2026-04-12T08:58:54.076Z</time></trkpt><trkpt lat="43.5867893" lon="6.6698626"><ele>283.0</ele><time>2026-04-12T08:58:55.076Z</time></trkpt><trkpt lat="43.5868405" lon="6.6697979"><ele>283.0</ele><time>2026-04-12T08:58:56.076Z</time></trkpt><trkpt lat="43.5868936" lon="6.6697364"><ele>283.0</ele><time>2026-04-12T08:58:57.077Z</time></trkpt><trkpt lat="43.5869518" lon="6.6696784"><ele>283.0</ele><time>2026-04-12T08:58:58.077Z</time></trkpt><trkpt lat="43.5870053" lon="6.669622"><ele>283.0</ele><time>2026-04-12T08:58:59.077Z</time></trkpt><trkpt lat="43.5870693" lon="6.6695625"><ele>282.7142857142857</ele><time>2026-04-12T08:59:00.077Z</time></trkpt><trkpt lat="43.5871404" lon="6.6695146"><ele>282.42857142857144</ele><time>2026-04-12T08:59:01.076Z</time></trkpt><trkpt lat="43.5872141" lon="6.6694912"><ele>282.14285714285717</ele><time>2026-04-12T08:59:02.077Z</time></trkpt><trkpt lat="43.5872939" lon="6.6694634"><ele>281.8571428571429</ele><time>2026-04-12T08:59:03.077Z</time></trkpt><trkpt lat="43.5873648" lon="6.6694419"><ele>281.57142857142856</ele><time>2026-04-12T08:59:04.077Z</time></trkpt><trkpt lat="43.5874348" lon="6.6694393"><ele>281.28571428571433</ele><time>2026-04-12T08:59:05.077Z</time></trkpt><trkpt lat="43.5875023" lon="6.6694612"><ele>281.0</ele><time>2026-04-12T08:59:06.078Z</time></trkpt><trkpt lat="43.5875662" lon="6.6695142"><ele>280.5</ele><time>2026-04-12T08:59:07.077Z</time></trkpt><trkpt lat="43.5876304" lon="6.6695849"><ele>280.0</ele><time>2026-04-12T08:59:08.077Z</time></trkpt><trkpt lat="43.58768" lon="6.6696728"><ele>279.5</ele><time>2026-04-12T08:59:09.077Z</time></trkpt><trkpt lat="43.5877144" lon="6.6697672"><ele>279.0</ele><time>2026-04-12T08:59:10.078Z</time></trkpt><trkpt lat="43.58774" lon="6.6698803"><ele>278.5</ele><time>2026-04-12T08:59:11.077Z</time></trkpt><trkpt lat="43.5877532" lon="6.6699996"><ele>278.0</ele><time>2026-04-12T08:59:12.077Z</time></trkpt><trkpt lat="43.5877513" lon="6.6701103"><ele>278.0</ele><time>2026-04-12T08:59:13.077Z</time></trkpt><trkpt lat="43.5877434" lon="6.6702029"><ele>278.0</ele><time>2026-04-12T08:59:14.077Z</time></trkpt><trkpt lat="43.5877123" lon="6.6703654"><ele>278.0</ele><time>2026-04-12T08:59:16.077Z</time></trkpt><trkpt lat="43.587669" lon="6.6705142"><ele>278.0</ele><time>2026-04-12T08:59:18.077Z</time></trkpt><trkpt lat="43.5876195" lon="6.6706639"><ele>278.0</ele><time>2026-04-12T08:59:20.077Z</time></trkpt><trkpt lat="43.5875616" lon="6.6707978"><ele>278.8</ele><time>2026-04-12T08:59:22.077Z</time></trkpt><trkpt lat="43.5875006" lon="6.6709171"><ele>279.6</ele><time>2026-04-12T08:59:24.077Z</time></trkpt><trkpt lat="43.58744" lon="6.6710414"><ele>280.4</ele><time>2026-04-12T08:59:26.077Z</time></trkpt><trkpt lat="43.5873844" lon="6.6711706"><ele>281.2</ele><time>2026-04-12T08:59:28.077Z</time></trkpt><trkpt lat="43.587331" lon="6.6713013"><ele>282.0</ele><time>2026-04-12T08:59:30.077Z</time></trkpt><trkpt lat="43.587269" lon="6.671426"><ele>283.4</ele><time>2026-04-12T08:59:32.077Z</time></trkpt><trkpt lat="43.5872092" lon="6.6715494"><ele>284.79999999999995</ele><time>2026-04-12T08:59:34.077Z</time></trkpt><trkpt lat="43.5871554" lon="6.6716819"><ele>286.2</ele><time>2026-04-12T08:59:36.077Z</time></trkpt><trkpt lat="43.5871111" lon="6.671795"><ele>287.59999999999997</ele><time>2026-04-12T08:59:38.078Z</time></trkpt><trkpt lat="43.5870646" lon="6.6718972"><ele>289.0</ele><time>2026-04-12T08:59:40.078Z</time></trkpt><trkpt lat="43.587021" lon="6.672001"><ele>288.8333333333333</ele><time>2026-04-12T08:59:42.078Z</time></trkpt><trkpt lat="43.5869761" lon="6.6721058"><ele>288.66666666666663</ele><time>2026-04-12T08:59:44.078Z</time></trkpt><trkpt lat="43.5869343" lon="6.6722169"><ele>288.5</ele><time>2026-04-12T08:59:46.078Z</time></trkpt><trkpt lat="43.5868991" lon="6.6723084"><ele>288.3333333333333</ele><time>2026-04-12T08:59:48.078Z</time></trkpt><trkpt lat="43.586864" lon="6.6723907"><ele>288.1666666666667</ele><time>2026-04-12T08:59:50.077Z</time></trkpt><trkpt lat="43.5868265" lon="6.6725264"><ele>288.0</ele><time>2026-04-12T08:59:52.078Z</time></trkpt><trkpt lat="43.5868031" lon="6.6726536"><ele>287.8</ele><time>2026-04-12T08:59:54.078Z</time></trkpt><trkpt lat="43.5867914" lon="6.672792"><ele>287.6</ele><time>2026-04-12T08:59:56.078Z</time></trkpt><trkpt lat="43.5867841" lon="6.6729337"><ele>287.4</ele><time>2026-04-12T08:59:58.078Z</time></trkpt><trkpt lat="43.5867898" lon="6.67307"><ele>287.2</ele><time>2026-04-12T09:00:00.078Z</time></trkpt><trkpt lat="43.5868013" lon="6.6732127"><ele>287.0</ele><time>2026-04-12T09:00:02.079Z</time></trkpt><trkpt lat="43.5868245" lon="6.6733477"><ele>287.0</ele><time>2026-04-12T09:00:04.078Z</time></trkpt><trkpt lat="43.5868545" lon="6.6734828"><ele>287.0</ele><time>2026-04-12T09:00:06.078Z</time></trkpt><trkpt lat="43.5868868" lon="6.6736172"><ele>287.0</ele><time>2026-04-12T09:00:08.078Z</time></trkpt><trkpt lat="43.586917" lon="6.6737468"><ele>287.0</ele><time>2026-04-12T09:00:10.078Z</time></trkpt><trkpt lat="43.5869471" lon="6.6738781"><ele>287.0</ele><time>2026-04-12T09:00:12.078Z</time></trkpt><trkpt lat="43.5869775" lon="6.6740121"><ele>286.6</ele><time>2026-04-12T09:00:14.078Z</time></trkpt><trkpt lat="43.5870095" lon="6.6741494"><ele>286.2</ele><time>2026-04-12T09:00:16.078Z</time></trkpt><trkpt lat="43.5870411" lon="6.6742874"><ele>285.8</ele><time>2026-04-12T09:00:18.078Z</time></trkpt><trkpt lat="43.5870733" lon="6.6744228"><ele>285.4</ele><time>2026-04-12T09:00:20.078Z</time></trkpt><trkpt lat="43.5871059" lon="6.6745634"><ele>285.0</ele><time>2026-04-12T09:00:22.078Z</time></trkpt><trkpt lat="43.5871384" lon="6.6747027"><ele>286.0</ele><time>2026-04-12T09:00:24.078Z</time></trkpt><trkpt lat="43.587169" lon="6.6748427"><ele>287.0</ele><time>2026-04-12T09:00:26.08Z</time></trkpt><trkpt lat="43.5872012" lon="6.6749808"><ele>288.0</ele><time>2026-04-12T09:00:28.079Z</time></trkpt><trkpt lat="43.5872315" lon="6.6751167"><ele>289.0</ele><time>2026-04-12T09:00:30.079Z</time></trkpt><trkpt lat="43.5872633" lon="6.6752475"><ele>290.0</ele><time>2026-04-12T09:00:32.078Z</time></trkpt><trkpt lat="43.5872957" lon="6.6753795"><ele>290.0</ele><time>2026-04-12T09:00:34.079Z</time></trkpt><trkpt lat="43.5873315" lon="6.6755131"><ele>290.0</ele><time>2026-04-12T09:00:36.079Z</time></trkpt><trkpt lat="43.5873787" lon="6.6756382"><ele>290.0</ele><time>2026-04-12T09:00:38.079Z</time></trkpt><trkpt lat="43.5874393" lon="6.6757524"><ele>290.0</ele><time>2026-04-12T09:00:40.079Z</time></trkpt><trkpt lat="43.5875146" lon="6.6758489"><ele>290.0</ele><time>2026-04-12T09:00:42.079Z</time></trkpt><trkpt lat="43.5876031" lon="6.6759251"><ele>290.0</ele><time>2026-04-12T09:00:44.079Z</time></trkpt><trkpt lat="43.5877027" lon="6.6759847"><ele>290.0</ele><time>2026-04-12T09:00:46.079Z</time></trkpt><trkpt lat="43.5878111" lon="6.6760235"><ele>290.0</ele><time>2026-04-12T09:00:48.08Z</time></trkpt><trkpt lat="43.5879249" lon="6.6760534"><ele>290.0</ele><time>2026-04-12T09:00:50.079Z</time></trkpt><trkpt lat="43.5880399" lon="6.6760882"><ele>289.83333333333337</ele><time>2026-04-12T09:00:52.079Z</time></trkpt><trkpt lat="43.5881609" lon="6.6761191"><ele>289.6666666666667</ele><time>2026-04-12T09:00:54.079Z</time></trkpt><trkpt lat="43.5882232" lon="6.6761359"><ele>289.5</ele><time>2026-04-12T09:00:55.08Z</time></trkpt><trkpt lat="43.5882854" lon="6.6761503"><ele>289.3333333333333</ele><time>2026-04-12T09:00:56.079Z</time></trkpt><trkpt lat="43.588411" lon="6.6761763"><ele>289.16666666666663</ele><time>2026-04-12T09:00:58.079Z</time></trkpt><trkpt lat="43.5884768" lon="6.6761898"><ele>289.0</ele><time>2026-04-12T09:00:59.079Z</time></trkpt><trkpt lat="43.5885426" lon="6.6762033"><ele>289.0</ele><time>2026-04-12T09:01:00.079Z</time></trkpt><trkpt lat="43.5886067" lon="6.6762166"><ele>289.0</ele><time>2026-04-12T09:01:01.08Z</time></trkpt><trkpt lat="43.5886692" lon="6.6762294"><ele>289.0</ele><time>2026-04-12T09:01:02.079Z</time></trkpt><trkpt lat="43.5887373" lon="6.6762478"><ele>289.0</ele><time>2026-04-12T09:01:03.079Z</time></trkpt><trkpt lat="43.588806" lon="6.6762662"><ele>289.0</ele><time>2026-04-12T09:01:04.079Z</time></trkpt><trkpt lat="43.5888769" lon="6.6762914"><ele>289.0</ele><time>2026-04-12T09:01:05.079Z</time></trkpt><trkpt lat="43.5889497" lon="6.6763098"><ele>289.0</ele><time>2026-04-12T09:01:06.079Z</time></trkpt><trkpt lat="43.5890253" lon="6.6763265"><ele>289.5</ele><time>2026-04-12T09:01:07.079Z</time></trkpt><trkpt lat="43.5891016" lon="6.6763471"><ele>290.0</ele><time>2026-04-12T09:01:08.081Z</time></trkpt><trkpt lat="43.5891789" lon="6.6763656"><ele>290.5</ele><time>2026-04-12T09:01:09.079Z</time></trkpt><trkpt lat="43.5892567" lon="6.6763823"><ele>291.0</ele><time>2026-04-12T09:01:10.079Z</time></trkpt><trkpt lat="43.5893343" lon="6.6764038"><ele>291.5</ele><time>2026-04-12T09:01:11.08Z</time></trkpt><trkpt lat="43.5894123" lon="6.6764262"><ele>292.0</ele><time>2026-04-12T09:01:12.08Z</time></trkpt><trkpt lat="43.5894942" lon="6.6764455"><ele>292.5</ele><time>2026-04-12T09:01:13.08Z</time></trkpt><trkpt lat="43.5895756" lon="6.6764626"><ele>293.0</ele><time>2026-04-12T09:01:14.08Z</time></trkpt><trkpt lat="43.5896569" lon="6.6764811"><ele>293.5</ele><time>2026-04-12T09:01:15.08Z</time></trkpt><trkpt lat="43.589738" lon="6.6765077"><ele>294.0</ele><time>2026-04-12T09:01:16.079Z</time></trkpt><trkpt lat="43.5898183" lon="6.6765401"><ele>294.5</ele><time>2026-04-12T09:01:17.08Z</time></trkpt><trkpt lat="43.5898958" lon="6.6765822"><ele>295.0</ele><time>2026-04-12T09:01:18.079Z</time></trkpt><trkpt lat="43.5899693" lon="6.6766381"><ele>295.0</ele><time>2026-04-12T09:01:19.079Z</time></trkpt><trkpt lat="43.5900369" lon="6.6767078"><ele>295.0</ele><time>2026-04-12T09:01:20.08Z</time></trkpt><trkpt lat="43.5900956" lon="6.6767916"><ele>295.0</ele><time>2026-04-12T09:01:21.079Z</time></trkpt><trkpt lat="43.5901514" lon="6.6768868"><ele>295.0</ele><time>2026-04-12T09:01:22.08Z</time></trkpt><trkpt lat="43.5901902" lon="6.6769919"><ele>295.0</ele><time>2026-04-12T09:01:23.08Z</time></trkpt><trkpt lat="43.5902168" lon="6.6771003"><ele>295.0</ele><time>2026-04-12T09:01:24.08Z</time></trkpt><trkpt lat="43.5902359" lon="6.6772117"><ele>294.8571428571429</ele><time>2026-04-12T09:01:25.08Z</time></trkpt><trkpt lat="43.590244" lon="6.6773215"><ele>294.7142857142857</ele><time>2026-04-12T09:01:26.08Z</time></trkpt><trkpt lat="43.5902467" lon="6.6774298"><ele>294.57142857142856</ele><time>2026-04-12T09:01:27.081Z</time></trkpt><trkpt lat="43.590247" lon="6.677534"><ele>294.42857142857144</ele><time>2026-04-12T09:01:28.08Z</time></trkpt><trkpt lat="43.5902363" lon="6.6776335"><ele>294.2857142857143</ele><time>2026-04-12T09:01:29.08Z</time></trkpt><trkpt lat="43.5902162" lon="6.6777302"><ele>294.14285714285717</ele><time>2026-04-12T09:01:30.08Z</time></trkpt><trkpt lat="43.590192" lon="6.677819"><ele>294.0</ele><time>2026-04-12T09:01:31.08Z</time></trkpt><trkpt lat="43.5901648" lon="6.6779007"><ele>295.0</ele><time>2026-04-12T09:01:32.08Z</time></trkpt><trkpt lat="43.5901329" lon="6.6779765"><ele>296.0</ele><time>2026-04-12T09:01:33.081Z</time></trkpt><trkpt lat="43.5900656" lon="6.6781151"><ele>297.0</ele><time>2026-04-12T09:01:35.08Z</time></trkpt><trkpt lat="43.5899997" lon="6.6782354"><ele>298.0</ele><time>2026-04-12T09:01:37.08Z</time></trkpt><trkpt lat="43.5899302" lon="6.6783536"><ele>299.0</ele><time>2026-04-12T09:01:39.08Z</time></trkpt><trkpt lat="43.5898606" lon="6.6784771"><ele>299.0</ele><time>2026-04-12T09:01:41.08Z</time></trkpt><trkpt lat="43.589788" lon="6.6785939"><ele>299.0</ele><time>2026-04-12T09:01:43.08Z</time></trkpt><trkpt lat="43.5897175" lon="6.6787179"><ele>299.0</ele><time>2026-04-12T09:01:45.08Z</time></trkpt><trkpt lat="43.5896423" lon="6.6788365"><ele>299.0</ele><time>2026-04-12T09:01:47.08Z</time></trkpt><trkpt lat="43.5895702" lon="6.6789611"><ele>299.25</ele><time>2026-04-12T09:01:49.08Z</time></trkpt><trkpt lat="43.5894979" lon="6.679088"><ele>299.5</ele><time>2026-04-12T09:01:51.081Z</time></trkpt><trkpt lat="43.5894244" lon="6.679212"><ele>299.75</ele><time>2026-04-12T09:01:53.081Z</time></trkpt><trkpt lat="43.5893519" lon="6.679334"><ele>300.0</ele><time>2026-04-12T09:01:55.081Z</time></trkpt><trkpt lat="43.5892788" lon="6.6794539"><ele>300.8</ele><time>2026-04-12T09:01:57.081Z</time></trkpt><trkpt lat="43.589209" lon="6.6795691"><ele>301.6</ele><time>2026-04-12T09:01:59.08Z</time></trkpt><trkpt lat="43.5891495" lon="6.679673"><ele>302.4</ele><time>2026-04-12T09:02:01.08Z</time></trkpt><trkpt lat="43.5890944" lon="6.67978"><ele>303.2</ele><time>2026-04-12T09:02:03.08Z</time></trkpt><trkpt lat="43.5890509" lon="6.6798927"><ele>304.0</ele><time>2026-04-12T09:02:05.081Z</time></trkpt><trkpt lat="43.5890174" lon="6.6800168"><ele>304.0</ele><time>2026-04-12T09:02:07.08Z</time></trkpt><trkpt lat="43.5889941" lon="6.6801484"><ele>304.0</ele><time>2026-04-12T09:02:09.082Z</time></trkpt><trkpt lat="43.5889832" lon="6.6802831"><ele>304.0</ele><time>2026-04-12T09:02:11.081Z</time></trkpt><trkpt lat="43.5889831" lon="6.680417"><ele>304.0</ele><time>2026-04-12T09:02:13.081Z</time></trkpt><trkpt lat="43.5889964" lon="6.6805495"><ele>304.0</ele><time>2026-04-12T09:02:15.081Z</time></trkpt><trkpt lat="43.5890161" lon="6.6806802"><ele>304.0</ele><time>2026-04-12T09:02:17.081Z</time></trkpt><trkpt lat="43.5890537" lon="6.6807991"><ele>304.0</ele><time>2026-04-12T09:02:19.082Z</time></trkpt><trkpt lat="43.589101" lon="6.6808992"><ele>304.0</ele><time>2026-04-12T09:02:21.082Z</time></trkpt><trkpt lat="43.5891642" lon="6.6809967"><ele>304.0</ele><time>2026-04-12T09:02:23.081Z</time></trkpt><trkpt lat="43.5892452" lon="6.681086"><ele>304.0</ele><time>2026-04-12T09:02:25.081Z</time></trkpt><trkpt lat="43.5893417" lon="6.6811612"><ele>304.0</ele><time>2026-04-12T09:02:27.081Z</time></trkpt><trkpt lat="43.5894536" lon="6.6812188"><ele>304.0</ele><time>2026-04-12T09:02:29.081Z</time></trkpt><trkpt lat="43.5895759" lon="6.6812751"><ele>304.0</ele><time>2026-04-12T09:02:31.081Z</time></trkpt><trkpt lat="43.5896385" lon="6.6813057"><ele>304.0</ele><time>2026-04-12T09:02:32.082Z</time></trkpt><trkpt lat="43.5896988" lon="6.6813316"><ele>304.0</ele><time>2026-04-12T09:02:33.081Z</time></trkpt><trkpt lat="43.5897716" lon="6.6813653"><ele>304.0</ele><time>2026-04-12T09:02:34.081Z</time></trkpt><trkpt lat="43.5898371" lon="6.6813928"><ele>304.0</ele><time>2026-04-12T09:02:35.081Z</time></trkpt><trkpt lat="43.5899074" lon="6.6814179"><ele>304.0</ele><time>2026-04-12T09:02:36.081Z</time></trkpt><trkpt lat="43.5899829" lon="6.6814509"><ele>304.0</ele><time>2026-04-12T09:02:37.081Z</time></trkpt><trkpt lat="43.590058" lon="6.6814843"><ele>304.0</ele><time>2026-04-12T09:02:38.081Z</time></trkpt><trkpt lat="43.5901328" lon="6.6815161"><ele>304.0</ele><time>2026-04-12T09:02:39.082Z</time></trkpt><trkpt lat="43.5902101" lon="6.6815471"><ele>304.0</ele><time>2026-04-12T09:02:40.082Z</time></trkpt><trkpt lat="43.5902892" lon="6.6815817"><ele>304.0</ele><time>2026-04-12T09:02:41.082Z</time></trkpt><trkpt lat="43.5903712" lon="6.6816181"><ele>304.0</ele><time>2026-04-12T09:02:42.081Z</time></trkpt><trkpt lat="43.5904583" lon="6.6816563"><ele>304.0</ele><time>2026-04-12T09:02:43.083Z</time></trkpt><trkpt lat="43.5905471" lon="6.6816921"><ele>304.0</ele><time>2026-04-12T09:02:44.081Z</time></trkpt><trkpt lat="43.5906369" lon="6.6817286"><ele>304.0</ele><time>2026-04-12T09:02:45.081Z</time></trkpt><trkpt lat="43.5907318" lon="6.6817663"><ele>303.8</ele><time>2026-04-12T09:02:46.082Z</time></trkpt><trkpt lat="43.5908227" lon="6.6818044"><ele>303.59999999999997</ele><time>2026-04-12T09:02:47.081Z</time></trkpt><trkpt lat="43.5909151" lon="6.6818439"><ele>303.4</ele><time>2026-04-12T09:02:48.082Z</time></trkpt><trkpt lat="43.5910078" lon="6.6818835"><ele>303.2</ele><time>2026-04-12T09:02:49.082Z</time></trkpt><trkpt lat="43.5911023" lon="6.6819239"><ele>303.0</ele><time>2026-04-12T09:02:50.082Z</time></trkpt><trkpt lat="43.5911963" lon="6.6819607"><ele>300.8</ele><time>2026-04-12T09:02:51.082Z</time></trkpt><trkpt lat="43.5912924" lon="6.6820016"><ele>298.6</ele><time>2026-04-12T09:02:52.082Z</time></trkpt><trkpt lat="43.5913897" lon="6.6820443"><ele>296.4</ele><time>2026-04-12T09:02:53.081Z</time></trkpt><trkpt lat="43.591487" lon="6.6820887"><ele>294.2</ele><time>2026-04-12T09:02:54.082Z</time></trkpt><trkpt lat="43.5915853" lon="6.6821324"><ele>292.0</ele><time>2026-04-12T09:02:55.082Z</time></trkpt><trkpt lat="43.5916849" lon="6.6821754"><ele>292.0</ele><time>2026-04-12T09:02:56.082Z</time></trkpt><trkpt lat="43.5917872" lon="6.6822211"><ele>292.0</ele><time>2026-04-12T09:02:57.082Z</time></trkpt><trkpt lat="43.5918889" lon="6.6822682"><ele>292.0</ele><time>2026-04-12T09:02:58.082Z</time></trkpt><trkpt lat="43.5919901" lon="6.6823118"><ele>292.0</ele><time>2026-04-12T09:02:59.082Z</time></trkpt><trkpt lat="43.5920931" lon="6.682358"><ele>292.0</ele><time>2026-04-12T09:03:00.082Z</time></trkpt><trkpt lat="43.5922002" lon="6.682404"><ele>292.25</ele><time>2026-04-12T09:03:01.082Z</time></trkpt><trkpt lat="43.5923068" lon="6.6824494"><ele>292.5</ele><time>2026-04-12T09:03:02.082Z</time></trkpt><trkpt lat="43.5924171" lon="6.6824947"><ele>292.75</ele><time>2026-04-12T09:03:03.082Z</time></trkpt><trkpt lat="43.5925267" lon="6.68254"><ele>293.0</ele><time>2026-04-12T09:03:04.082Z</time></trkpt><trkpt lat="43.5926377" lon="6.6825844"><ele>293.0</ele><time>2026-04-12T09:03:05.082Z</time></trkpt><trkpt lat="43.5927439" lon="6.6826301"><ele>293.0</ele><time>2026-04-12T09:03:06.082Z</time></trkpt><trkpt lat="43.5928535" lon="6.682674"><ele>293.0</ele><time>2026-04-12T09:03:07.082Z</time></trkpt><trkpt lat="43.5929617" lon="6.6827118"><ele>293.0</ele><time>2026-04-12T09:03:08.082Z</time></trkpt><trkpt lat="43.5930713" lon="6.6827421"><ele>293.0</ele><time>2026-04-12T09:03:09.082Z</time></trkpt><trkpt lat="43.5931859" lon="6.6827655"><ele>292.75</ele><time>2026-04-12T09:03:10.082Z</time></trkpt><trkpt lat="43.5933027" lon="6.6827845"><ele>292.5</ele><time>2026-04-12T09:03:11.083Z</time></trkpt><trkpt lat="43.5934211" lon="6.6828024"><ele>292.25</ele><time>2026-04-12T09:03:12.082Z</time></trkpt><trkpt lat="43.5935412" lon="6.682822"><ele>292.0</ele><time>2026-04-12T09:03:13.082Z</time></trkpt><trkpt lat="43.5936635" lon="6.6828448"><ele>291.25</ele><time>2026-04-12T09:03:14.082Z</time></trkpt><trkpt lat="43.5937855" lon="6.6828678"><ele>290.5</ele><time>2026-04-12T09:03:15.083Z</time></trkpt><trkpt lat="43.5939095" lon="6.6828871"><ele>289.75</ele><time>2026-04-12T09:03:16.082Z</time></trkpt><trkpt lat="43.594033" lon="6.6829075"><ele>289.0</ele><time>2026-04-12T09:03:17.082Z</time></trkpt><trkpt lat="43.5941576" lon="6.6829306"><ele>289.0</ele><time>2026-04-12T09:03:18.083Z</time></trkpt><trkpt lat="43.5942792" lon="6.6829568"><ele>289.0</ele><time>2026-04-12T09:03:19.082Z</time></trkpt><trkpt lat="43.594398" lon="6.6829939"><ele>289.0</ele><time>2026-04-12T09:03:20.082Z</time></trkpt><trkpt lat="43.5945045" lon="6.6830735"><ele>289.0</ele><time>2026-04-12T09:03:21.082Z</time></trkpt><trkpt lat="43.5945888" lon="6.6831968"><ele>286.5</ele><time>2026-04-12T09:03:22.082Z</time></trkpt><trkpt lat="43.594644" lon="6.6833479"><ele>284.0</ele><time>2026-04-12T09:03:23.082Z</time></trkpt><trkpt lat="43.5946733" lon="6.683517"><ele>281.5</ele><time>2026-04-12T09:03:24.082Z</time></trkpt><trkpt lat="43.5946857" lon="6.6836934"><ele>279.0</ele><time>2026-04-12T09:03:25.082Z</time></trkpt><trkpt lat="43.5946849" lon="6.683874"><ele>278.25</ele><time>2026-04-12T09:03:26.083Z</time></trkpt><trkpt lat="43.5946651" lon="6.6840542"><ele>277.5</ele><time>2026-04-12T09:03:27.082Z</time></trkpt><trkpt lat="43.5946268" lon="6.6842289"><ele>276.75</ele><time>2026-04-12T09:03:28.083Z</time></trkpt><trkpt lat="43.5945884" lon="6.6844006"><ele>276.0</ele><time>2026-04-12T09:03:29.082Z</time></trkpt><trkpt lat="43.5945457" lon="6.6845684"><ele>276.5</ele><time>2026-04-12T09:03:30.083Z</time></trkpt><trkpt lat="43.5944955" lon="6.6847368"><ele>277.0</ele><time>2026-04-12T09:03:31.083Z</time></trkpt><trkpt lat="43.5944473" lon="6.6849125"><ele>277.5</ele><time>2026-04-12T09:03:32.083Z</time></trkpt><trkpt lat="43.5943991" lon="6.6850825"><ele>278.0</ele><time>2026-04-12T09:03:33.084Z</time></trkpt><trkpt lat="43.5943462" lon="6.6852572"><ele>276.25</ele><time>2026-04-12T09:03:34.083Z</time></trkpt><trkpt lat="43.5942902" lon="6.6854302"><ele>274.5</ele><time>2026-04-12T09:03:35.083Z</time></trkpt><trkpt lat="43.5942313" lon="6.6855963"><ele>272.75</ele><time>2026-04-12T09:03:36.082Z</time></trkpt><trkpt lat="43.5941729" lon="6.6857665"><ele>271.0</ele><time>2026-04-12T09:03:37.082Z</time></trkpt><trkpt lat="43.5941171" lon="6.6859382"><ele>270.75</ele><time>2026-04-12T09:03:38.083Z</time></trkpt><trkpt lat="43.5940626" lon="6.6861076"><ele>270.5</ele><time>2026-04-12T09:03:39.083Z</time></trkpt><trkpt lat="43.5940122" lon="6.6862795"><ele>270.25</ele><time>2026-04-12T09:03:40.083Z</time></trkpt><trkpt lat="43.5939584" lon="6.6864553"><ele>270.0</ele><time>2026-04-12T09:03:41.083Z</time></trkpt><trkpt lat="43.5939042" lon="6.6866281"><ele>270.0</ele><time>2026-04-12T09:03:42.083Z</time></trkpt><trkpt lat="43.5938478" lon="6.6867982"><ele>270.0</ele><time>2026-04-12T09:03:43.084Z</time></trkpt><trkpt lat="43.5937931" lon="6.6869675"><ele>270.0</ele><time>2026-04-12T09:03:44.083Z</time></trkpt><trkpt lat="43.5937396" lon="6.6871357"><ele>270.0</ele><time>2026-04-12T09:03:45.083Z</time></trkpt><trkpt lat="43.5936906" lon="6.6873048"><ele>267.75</ele><time>2026-04-12T09:03:46.084Z</time></trkpt><trkpt lat="43.5936524" lon="6.6874787"><ele>265.5</ele><time>2026-04-12T09:03:47.083Z</time></trkpt><trkpt lat="43.5936261" lon="6.687656"><ele>263.25</ele><time>2026-04-12T09:03:48.083Z</time></trkpt><trkpt lat="43.5936064" lon="6.6878335"><ele>261.0</ele><time>2026-04-12T09:03:49.083Z</time></trkpt><trkpt lat="43.593622" lon="6.6880151"><ele>260.75</ele><time>2026-04-12T09:03:50.083Z</time></trkpt><trkpt lat="43.5936587" lon="6.6881879"><ele>260.5</ele><time>2026-04-12T09:03:51.083Z</time></trkpt><trkpt lat="43.5937147" lon="6.6883485"><ele>260.25</ele><time>2026-04-12T09:03:52.083Z</time></trkpt><trkpt lat="43.5937886" lon="6.6884944"><ele>260.0</ele><time>2026-04-12T09:03:53.083Z</time></trkpt><trkpt lat="43.5938785" lon="6.6886198"><ele>259.5</ele><time>2026-04-12T09:03:54.083Z</time></trkpt><trkpt lat="43.5939774" lon="6.6887283"><ele>259.0</ele><time>2026-04-12T09:03:55.083Z</time></trkpt><trkpt lat="43.5940783" lon="6.6888312"><ele>258.5</ele><time>2026-04-12T09:03:56.083Z</time></trkpt><trkpt lat="43.5941785" lon="6.6889332"><ele>258.0</ele><time>2026-04-12T09:03:57.083Z</time></trkpt><trkpt lat="43.5942794" lon="6.6890304"><ele>258.0</ele><time>2026-04-12T09:03:58.083Z</time></trkpt><trkpt lat="43.5943805" lon="6.6891237"><ele>258.0</ele><time>2026-04-12T09:03:59.083Z</time></trkpt><trkpt lat="43.5944834" lon="6.6892106"><ele>258.0</ele><time>2026-04-12T09:04:00.083Z</time></trkpt><trkpt lat="43.5945916" lon="6.6892778"><ele>258.0</ele><time>2026-04-12T09:04:01.083Z</time></trkpt><trkpt lat="43.5947042" lon="6.6893229"><ele>257.5</ele><time>2026-04-12T09:04:02.083Z</time></trkpt><trkpt lat="43.5948191" lon="6.6893488"><ele>257.0</ele><time>2026-04-12T09:04:03.083Z</time></trkpt><trkpt lat="43.5949351" lon="6.6893547"><ele>256.5</ele><time>2026-04-12T09:04:04.083Z</time></trkpt><trkpt lat="43.5950517" lon="6.6893496"><ele>256.0</ele><time>2026-04-12T09:04:05.083Z</time></trkpt><trkpt lat="43.5951693" lon="6.6893445"><ele>256.0</ele><time>2026-04-12T09:04:06.083Z</time></trkpt><trkpt lat="43.5952901" lon="6.6893365"><ele>256.0</ele><time>2026-04-12T09:04:07.083Z</time></trkpt><trkpt lat="43.5954067" lon="6.6893263"><ele>256.0</ele><time>2026-04-12T09:04:08.084Z</time></trkpt><trkpt lat="43.5955223" lon="6.6893155"><ele>256.0</ele><time>2026-04-12T09:04:09.083Z</time></trkpt><trkpt lat="43.5956392" lon="6.6893095"><ele>255.0</ele><time>2026-04-12T09:04:10.083Z</time></trkpt><trkpt lat="43.5957545" lon="6.6893076"><ele>254.0</ele><time>2026-04-12T09:04:11.084Z</time></trkpt><trkpt lat="43.5958711" lon="6.68931"><ele>253.0</ele><time>2026-04-12T09:04:12.084Z</time></trkpt><trkpt lat="43.5959907" lon="6.6893214"><ele>252.0</ele><time>2026-04-12T09:04:13.084Z</time></trkpt><trkpt lat="43.5961041" lon="6.6893392"><ele>251.0</ele><time>2026-04-12T09:04:14.083Z</time></trkpt><trkpt lat="43.5962203" lon="6.6893781"><ele>250.0</ele><time>2026-04-12T09:04:15.084Z</time></trkpt><trkpt lat="43.5963331" lon="6.6894298"><ele>249.0</ele><time>2026-04-12T09:04:16.085Z</time></trkpt><trkpt lat="43.59644" lon="6.6895027"><ele>248.0</ele><time>2026-04-12T09:04:17.083Z</time></trkpt><trkpt lat="43.5965408" lon="6.689588"><ele>247.5</ele><time>2026-04-12T09:04:18.084Z</time></trkpt><trkpt lat="43.596637" lon="6.6896792"><ele>247.0</ele><time>2026-04-12T09:04:19.083Z</time></trkpt><trkpt lat="43.5967258" lon="6.689778"><ele>246.5</ele><time>2026-04-12T09:04:20.084Z</time></trkpt><trkpt lat="43.5968101" lon="6.6898824"><ele>246.0</ele><time>2026-04-12T09:04:21.083Z</time></trkpt><trkpt lat="43.5968778" lon="6.6899944"><ele>246.0</ele><time>2026-04-12T09:04:22.084Z</time></trkpt><trkpt lat="43.5969281" lon="6.6901244"><ele>246.00000000000003</ele><time>2026-04-12T09:04:23.083Z</time></trkpt><trkpt lat="43.5969532" lon="6.6902656"><ele>246.00000000000003</ele><time>2026-04-12T09:04:24.083Z</time></trkpt><trkpt lat="43.5969563" lon="6.6904093"><ele>246.0</ele><time>2026-04-12T09:04:25.084Z</time></trkpt><trkpt lat="43.596965" lon="6.6905461"><ele>246.0</ele><time>2026-04-12T09:04:26.085Z</time></trkpt><trkpt lat="43.5970084" lon="6.6906671"><ele>245.8</ele><time>2026-04-12T09:04:27.085Z</time></trkpt><trkpt lat="43.5970714" lon="6.6907711"><ele>245.60000000000002</ele><time>2026-04-12T09:04:28.084Z</time></trkpt><trkpt lat="43.5971304" lon="6.6908779"><ele>245.4</ele><time>2026-04-12T09:04:29.084Z</time></trkpt><trkpt lat="43.5971652" lon="6.6910022"><ele>245.2</ele><time>2026-04-12T09:04:30.084Z</time></trkpt><trkpt lat="43.5971801" lon="6.6911324"><ele>245.0</ele><time>2026-04-12T09:04:31.084Z</time></trkpt><trkpt lat="43.5971871" lon="6.691264"><ele>245.0</ele><time>2026-04-12T09:04:32.085Z</time></trkpt><trkpt lat="43.5971868" lon="6.6913954"><ele>245.0</ele><time>2026-04-12T09:04:33.084Z</time></trkpt><trkpt lat="43.5971767" lon="6.6915245"><ele>245.0</ele><time>2026-04-12T09:04:34.084Z</time></trkpt><trkpt lat="43.5971552" lon="6.6916509"><ele>245.0</ele><time>2026-04-12T09:04:35.084Z</time></trkpt><trkpt lat="43.5971337" lon="6.6917767"><ele>245.0</ele><time>2026-04-12T09:04:36.084Z</time></trkpt><trkpt lat="43.5971108" lon="6.6919023"><ele>245.0</ele><time>2026-04-12T09:04:37.084Z</time></trkpt><trkpt lat="43.5970859" lon="6.6920279"><ele>245.0</ele><time>2026-04-12T09:04:38.084Z</time></trkpt><trkpt lat="43.597058" lon="6.6921518"><ele>245.0</ele><time>2026-04-12T09:04:39.084Z</time></trkpt><trkpt lat="43.597028" lon="6.6922747"><ele>245.0</ele><time>2026-04-12T09:04:40.085Z</time></trkpt><trkpt lat="43.5969944" lon="6.6923942"><ele>245.0</ele><time>2026-04-12T09:04:41.084Z</time></trkpt><trkpt lat="43.5969537" lon="6.6925116"><ele>244.83333333333334</ele><time>2026-04-12T09:04:42.084Z</time></trkpt><trkpt lat="43.5969135" lon="6.692624"><ele>244.66666666666669</ele><time>2026-04-12T09:04:43.084Z</time></trkpt><trkpt lat="43.5968709" lon="6.6927322"><ele>244.5</ele><time>2026-04-12T09:04:44.086Z</time></trkpt><trkpt lat="43.5968246" lon="6.6928353"><ele>244.33333333333331</ele><time>2026-04-12T09:04:45.084Z</time></trkpt><trkpt lat="43.5967766" lon="6.6929352"><ele>244.16666666666666</ele><time>2026-04-12T09:04:46.084Z</time></trkpt><trkpt lat="43.5967295" lon="6.693035"><ele>244.0</ele><time>2026-04-12T09:04:47.084Z</time></trkpt><trkpt lat="43.596684" lon="6.693136"><ele>243.99999999999997</ele><time>2026-04-12T09:04:48.084Z</time></trkpt><trkpt lat="43.5966379" lon="6.6932347"><ele>244.0</ele><time>2026-04-12T09:04:49.085Z</time></trkpt><trkpt lat="43.5965942" lon="6.6933292"><ele>244.0</ele><time>2026-04-12T09:04:50.084Z</time></trkpt><trkpt lat="43.596549" lon="6.6934272"><ele>244.0</ele><time>2026-04-12T09:04:51.084Z</time></trkpt><trkpt lat="43.596502" lon="6.6935247"><ele>243.99999999999997</ele><time>2026-04-12T09:04:52.085Z</time></trkpt><trkpt lat="43.5964568" lon="6.6936233"><ele>244.0</ele><time>2026-04-12T09:04:53.084Z</time></trkpt><trkpt lat="43.5964128" lon="6.693721"><ele>244.83333333333331</ele><time>2026-04-12T09:04:54.084Z</time></trkpt><trkpt lat="43.596371" lon="6.6938189"><ele>245.66666666666666</ele><time>2026-04-12T09:04:55.084Z</time></trkpt><trkpt lat="43.5963323" lon="6.6939157"><ele>246.5</ele><time>2026-04-12T09:04:56.084Z</time></trkpt><trkpt lat="43.5962962" lon="6.6940151"><ele>247.33333333333331</ele><time>2026-04-12T09:04:57.084Z</time></trkpt><trkpt lat="43.5962601" lon="6.6941125"><ele>248.16666666666666</ele><time>2026-04-12T09:04:58.084Z</time></trkpt><trkpt lat="43.5962272" lon="6.6942104"><ele>249.0</ele><time>2026-04-12T09:04:59.084Z</time></trkpt><trkpt lat="43.5961987" lon="6.6943094"><ele>249.0</ele><time>2026-04-12T09:05:00.084Z</time></trkpt><trkpt lat="43.5961752" lon="6.6944108"><ele>249.0</ele><time>2026-04-12T09:05:01.084Z</time></trkpt><trkpt lat="43.5961521" lon="6.694512"><ele>249.0</ele><time>2026-04-12T09:05:02.085Z</time></trkpt><trkpt lat="43.5961283" lon="6.6946135"><ele>249.0</ele><time>2026-04-12T09:05:03.085Z</time></trkpt><trkpt lat="43.5961066" lon="6.6947155"><ele>249.0</ele><time>2026-04-12T09:05:04.085Z</time></trkpt><trkpt lat="43.5960895" lon="6.6948181"><ele>249.0</ele><time>2026-04-12T09:05:05.086Z</time></trkpt><trkpt lat="43.596076" lon="6.6949227"><ele>248.5</ele><time>2026-04-12T09:05:06.085Z</time></trkpt><trkpt lat="43.5960664" lon="6.6950285"><ele>248.0</ele><time>2026-04-12T09:05:07.085Z</time></trkpt><trkpt lat="43.5960627" lon="6.6951335"><ele>247.5</ele><time>2026-04-12T09:05:08.086Z</time></trkpt><trkpt lat="43.5960666" lon="6.6952405"><ele>247.0</ele><time>2026-04-12T09:05:09.085Z</time></trkpt><trkpt lat="43.5960713" lon="6.6953475"><ele>246.5</ele><time>2026-04-12T09:05:10.084Z</time></trkpt><trkpt lat="43.596079" lon="6.6954537"><ele>246.0</ele><time>2026-04-12T09:05:11.084Z</time></trkpt><trkpt lat="43.5960935" lon="6.6955591"><ele>245.83333333333334</ele><time>2026-04-12T09:05:12.085Z</time></trkpt><trkpt lat="43.596114" lon="6.6956616"><ele>245.66666666666669</ele><time>2026-04-12T09:05:13.085Z</time></trkpt><trkpt lat="43.5961341" lon="6.6957626"><ele>245.5</ele><time>2026-04-12T09:05:14.085Z</time></trkpt><trkpt lat="43.5961581" lon="6.6958613"><ele>245.33333333333334</ele><time>2026-04-12T09:05:15.085Z</time></trkpt><trkpt lat="43.596184" lon="6.6959585"><ele>245.16666666666669</ele><time>2026-04-12T09:05:16.085Z</time></trkpt><trkpt lat="43.5962123" lon="6.6960546"><ele>245.0</ele><time>2026-04-12T09:05:17.085Z</time></trkpt><trkpt lat="43.5962436" lon="6.6961498"><ele>245.33333333333334</ele><time>2026-04-12T09:05:18.085Z</time></trkpt><trkpt lat="43.5962771" lon="6.6962438"><ele>245.66666666666669</ele><time>2026-04-12T09:05:19.085Z</time></trkpt><trkpt lat="43.5963113" lon="6.6963384"><ele>246.0</ele><time>2026-04-12T09:05:20.085Z</time></trkpt><trkpt lat="43.5963451" lon="6.6964342"><ele>246.33333333333331</ele><time>2026-04-12T09:05:21.085Z</time></trkpt><trkpt lat="43.5963799" lon="6.6965297"><ele>246.66666666666666</ele><time>2026-04-12T09:05:22.085Z</time></trkpt><trkpt lat="43.596413" lon="6.6966256"><ele>247.0</ele><time>2026-04-12T09:05:23.085Z</time></trkpt><trkpt lat="43.5964442" lon="6.6967224"><ele>247.0</ele><time>2026-04-12T09:05:24.085Z</time></trkpt><trkpt lat="43.5964789" lon="6.6968161"><ele>247.0</ele><time>2026-04-12T09:05:25.085Z</time></trkpt><trkpt lat="43.5965128" lon="6.6969094"><ele>247.0</ele><time>2026-04-12T09:05:26.085Z</time></trkpt><trkpt lat="43.5965442" lon="6.6969968"><ele>247.0</ele><time>2026-04-12T09:05:27.086Z</time></trkpt><trkpt lat="43.5965766" lon="6.6970887"><ele>247.0</ele><time>2026-04-12T09:05:28.085Z</time></trkpt><trkpt lat="43.5966109" lon="6.6971802"><ele>247.0</ele><time>2026-04-12T09:05:29.085Z</time></trkpt><trkpt lat="43.5966467" lon="6.6972688"><ele>247.0</ele><time>2026-04-12T09:05:30.085Z</time></trkpt><trkpt lat="43.5966856" lon="6.6973589"><ele>246.85714285714286</ele><time>2026-04-12T09:05:31.085Z</time></trkpt><trkpt lat="43.596727" lon="6.6974437"><ele>246.71428571428572</ele><time>2026-04-12T09:05:32.085Z</time></trkpt><trkpt lat="43.5967712" lon="6.6975246"><ele>246.57142857142858</ele><time>2026-04-12T09:05:33.085Z</time></trkpt><trkpt lat="43.5968164" lon="6.6976037"><ele>246.42857142857144</ele><time>2026-04-12T09:05:34.085Z</time></trkpt><trkpt lat="43.5968637" lon="6.6976816"><ele>246.28571428571428</ele><time>2026-04-12T09:05:35.085Z</time></trkpt><trkpt lat="43.5969106" lon="6.6977557"><ele>246.14285714285717</ele><time>2026-04-12T09:05:36.085Z</time></trkpt><trkpt lat="43.5969625" lon="6.6978303"><ele>246.00000000000003</ele><time>2026-04-12T09:05:37.086Z</time></trkpt><trkpt lat="43.5970183" lon="6.6978995"><ele>245.8571428571429</ele><time>2026-04-12T09:05:38.085Z</time></trkpt><trkpt lat="43.5970769" lon="6.6979681"><ele>245.71428571428572</ele><time>2026-04-12T09:05:39.085Z</time></trkpt><trkpt lat="43.5971354" lon="6.6980334"><ele>245.57142857142858</ele><time>2026-04-12T09:05:40.085Z</time></trkpt><trkpt lat="43.5971944" lon="6.6980901"><ele>245.42857142857144</ele><time>2026-04-12T09:05:41.085Z</time></trkpt><trkpt lat="43.5972565" lon="6.6981436"><ele>245.28571428571428</ele><time>2026-04-12T09:05:42.086Z</time></trkpt><trkpt lat="43.5973178" lon="6.6981997"><ele>245.14285714285714</ele><time>2026-04-12T09:05:43.086Z</time></trkpt><trkpt lat="43.5973794" lon="6.6982514"><ele>245.0</ele><time>2026-04-12T09:05:44.085Z</time></trkpt><trkpt lat="43.597439" lon="6.6982955"><ele>245.00000000000003</ele><time>2026-04-12T09:05:45.086Z</time></trkpt><trkpt lat="43.597498" lon="6.6983445"><ele>245.0</ele><time>2026-04-12T09:05:46.086Z</time></trkpt><trkpt lat="43.5975592" lon="6.6983903"><ele>245.0</ele><time>2026-04-12T09:05:47.086Z</time></trkpt><trkpt lat="43.5976765" lon="6.6984631"><ele>245.0</ele><time>2026-04-12T09:05:49.086Z</time></trkpt><trkpt lat="43.5977549" lon="6.6985024"><ele>245.00000000000003</ele><time>2026-04-12T09:05:50.086Z</time></trkpt><trkpt lat="43.5978287" lon="6.6985359"><ele>245.0</ele><time>2026-04-12T09:05:51.085Z</time></trkpt><trkpt lat="43.5979021" lon="6.6985643"><ele>244.83333333333334</ele><time>2026-04-12T09:05:52.086Z</time></trkpt><trkpt lat="43.5979754" lon="6.6985917"><ele>244.66666666666669</ele><time>2026-04-12T09:05:53.086Z</time></trkpt><trkpt lat="43.598048" lon="6.6986119"><ele>244.5</ele><time>2026-04-12T09:05:54.085Z</time></trkpt><trkpt lat="43.5981213" lon="6.6986336"><ele>244.33333333333331</ele><time>2026-04-12T09:05:55.086Z</time></trkpt><trkpt lat="43.5981948" lon="6.6986564"><ele>244.16666666666666</ele><time>2026-04-12T09:05:56.085Z</time></trkpt><trkpt lat="43.5982697" lon="6.6986762"><ele>244.0</ele><time>2026-04-12T09:05:57.086Z</time></trkpt><trkpt lat="43.5983445" lon="6.6986955"><ele>243.99999999999997</ele><time>2026-04-12T09:05:58.085Z</time></trkpt><trkpt lat="43.5984196" lon="6.698717"><ele>244.0</ele><time>2026-04-12T09:05:59.087Z</time></trkpt><trkpt lat="43.5984974" lon="6.6987365"><ele>244.0</ele><time>2026-04-12T09:06:00.086Z</time></trkpt><trkpt lat="43.5985805" lon="6.698754"><ele>244.0</ele><time>2026-04-12T09:06:01.086Z</time></trkpt><trkpt lat="43.598669" lon="6.6987729"><ele>243.99999999999997</ele><time>2026-04-12T09:06:02.086Z</time></trkpt><trkpt lat="43.5987625" lon="6.6987927"><ele>244.0</ele><time>2026-04-12T09:06:03.086Z</time></trkpt><trkpt lat="43.5988601" lon="6.698821"><ele>243.0</ele><time>2026-04-12T09:06:04.086Z</time></trkpt><trkpt lat="43.5989619" lon="6.6988503"><ele>241.99999999999997</ele><time>2026-04-12T09:06:05.086Z</time></trkpt><trkpt lat="43.5990655" lon="6.6988734"><ele>240.99999999999997</ele><time>2026-04-12T09:06:06.086Z</time></trkpt><trkpt lat="43.5991678" lon="6.6989001"><ele>240.0</ele><time>2026-04-12T09:06:07.086Z</time></trkpt><trkpt lat="43.599271" lon="6.6989241"><ele>239.0</ele><time>2026-04-12T09:06:08.086Z</time></trkpt><trkpt lat="43.5993745" lon="6.69895"><ele>239.0</ele><time>2026-04-12T09:06:09.086Z</time></trkpt><trkpt lat="43.5994792" lon="6.6989804"><ele>238.99999999999997</ele><time>2026-04-12T09:06:10.086Z</time></trkpt><trkpt lat="43.5995847" lon="6.6990091"><ele>238.99999999999997</ele><time>2026-04-12T09:06:11.086Z</time></trkpt><trkpt lat="43.5996933" lon="6.6990355"><ele>239.0</ele><time>2026-04-12T09:06:12.086Z</time></trkpt><trkpt lat="43.5998035" lon="6.6990655"><ele>239.0</ele><time>2026-04-12T09:06:13.086Z</time></trkpt><trkpt lat="43.5999155" lon="6.6990942"><ele>238.25</ele><time>2026-04-12T09:06:14.086Z</time></trkpt><trkpt lat="43.6000265" lon="6.6991218"><ele>237.5</ele><time>2026-04-12T09:06:15.086Z</time></trkpt><trkpt lat="43.6001397" lon="6.699148"><ele>236.75</ele><time>2026-04-12T09:06:16.086Z</time></trkpt><trkpt lat="43.6002505" lon="6.6991756"><ele>236.0</ele><time>2026-04-12T09:06:17.086Z</time></trkpt><trkpt lat="43.6003652" lon="6.699201"><ele>235.5</ele><time>2026-04-12T09:06:18.086Z</time></trkpt><trkpt lat="43.6004802" lon="6.6992283"><ele>235.0</ele><time>2026-04-12T09:06:19.086Z</time></trkpt><trkpt lat="43.6005942" lon="6.6992552"><ele>234.5</ele><time>2026-04-12T09:06:20.086Z</time></trkpt><trkpt lat="43.600711" lon="6.6992825"><ele>234.0</ele><time>2026-04-12T09:06:21.086Z</time></trkpt><trkpt lat="43.6008287" lon="6.6993102"><ele>234.0</ele><time>2026-04-12T09:06:22.086Z</time></trkpt><trkpt lat="43.6009468" lon="6.6993393"><ele>234.0</ele><time>2026-04-12T09:06:23.087Z</time></trkpt><trkpt lat="43.6010642" lon="6.6993674"><ele>234.0</ele><time>2026-04-12T09:06:24.086Z</time></trkpt><trkpt lat="43.6011822" lon="6.699398"><ele>234.0</ele><time>2026-04-12T09:06:25.086Z</time></trkpt><trkpt lat="43.6013009" lon="6.6994309"><ele>233.25</ele><time>2026-04-12T09:06:26.086Z</time></trkpt><trkpt lat="43.6014216" lon="6.6994608"><ele>232.5</ele><time>2026-04-12T09:06:27.087Z</time></trkpt><trkpt lat="43.6015405" lon="6.6994882"><ele>231.75</ele><time>2026-04-12T09:06:28.086Z</time></trkpt><trkpt lat="43.6016584" lon="6.6995152"><ele>231.0</ele><time>2026-04-12T09:06:29.087Z</time></trkpt><trkpt lat="43.6017767" lon="6.6995441"><ele>231.0</ele><time>2026-04-12T09:06:30.086Z</time></trkpt><trkpt lat="43.6018943" lon="6.6995775"><ele>231.0</ele><time>2026-04-12T09:06:31.087Z</time></trkpt><trkpt lat="43.6020156" lon="6.6996078"><ele>231.0</ele><time>2026-04-12T09:06:32.087Z</time></trkpt><trkpt lat="43.6021357" lon="6.6996388"><ele>231.0</ele><time>2026-04-12T09:06:33.087Z</time></trkpt><trkpt lat="43.6022546" lon="6.6996704"><ele>229.0</ele><time>2026-04-12T09:06:34.086Z</time></trkpt><trkpt lat="43.6023737" lon="6.6996997"><ele>227.0</ele><time>2026-04-12T09:06:35.087Z</time></trkpt><trkpt lat="43.6024921" lon="6.6997292"><ele>225.0</ele><time>2026-04-12T09:06:36.087Z</time></trkpt><trkpt lat="43.6026088" lon="6.6997589"><ele>223.0</ele><time>2026-04-12T09:06:37.087Z</time></trkpt><trkpt lat="43.6027245" lon="6.6997891"><ele>222.25</ele><time>2026-04-12T09:06:38.088Z</time></trkpt><trkpt lat="43.6028402" lon="6.6998207"><ele>221.5</ele><time>2026-04-12T09:06:39.086Z</time></trkpt><trkpt lat="43.6029529" lon="6.699854"><ele>220.75</ele><time>2026-04-12T09:06:40.087Z</time></trkpt><trkpt lat="43.6030641" lon="6.6998849"><ele>220.0</ele><time>2026-04-12T09:06:41.086Z</time></trkpt><trkpt lat="43.6031735" lon="6.6999175"><ele>220.0</ele><time>2026-04-12T09:06:42.087Z</time></trkpt><trkpt lat="43.6032795" lon="6.6999512"><ele>220.0</ele><time>2026-04-12T09:06:43.086Z</time></trkpt><trkpt lat="43.6033838" lon="6.6999916"><ele>220.0</ele><time>2026-04-12T09:06:44.087Z</time></trkpt><trkpt lat="43.6034866" lon="6.7000322"><ele>220.0</ele><time>2026-04-12T09:06:45.087Z</time></trkpt><trkpt lat="43.6035873" lon="6.7000751"><ele>220.0</ele><time>2026-04-12T09:06:46.087Z</time></trkpt><trkpt lat="43.6036873" lon="6.7001238"><ele>220.0</ele><time>2026-04-12T09:06:47.087Z</time></trkpt><trkpt lat="43.6037844" lon="6.7001681"><ele>220.0</ele><time>2026-04-12T09:06:48.087Z</time></trkpt><trkpt lat="43.6038822" lon="6.7002132"><ele>220.0</ele><time>2026-04-12T09:06:49.087Z</time></trkpt><trkpt lat="43.6039798" lon="6.7002614"><ele>220.0</ele><time>2026-04-12T09:06:50.087Z</time></trkpt><trkpt lat="43.6040788" lon="6.7003062"><ele>220.0</ele><time>2026-04-12T09:06:51.087Z</time></trkpt><trkpt lat="43.6041758" lon="6.7003532"><ele>219.4</ele><time>2026-04-12T09:06:52.088Z</time></trkpt><trkpt lat="43.6042767" lon="6.7003988"><ele>218.8</ele><time>2026-04-12T09:06:53.088Z</time></trkpt><trkpt lat="43.6043792" lon="6.7004449"><ele>218.2</ele><time>2026-04-12T09:06:54.087Z</time></trkpt><trkpt lat="43.6044796" lon="6.7004927"><ele>217.6</ele><time>2026-04-12T09:06:55.087Z</time></trkpt><trkpt lat="43.6045793" lon="6.7005392"><ele>217.0</ele><time>2026-04-12T09:06:56.087Z</time></trkpt><trkpt lat="43.604681" lon="6.7005865"><ele>217.0</ele><time>2026-04-12T09:06:57.087Z</time></trkpt><trkpt lat="43.6047816" lon="6.7006345"><ele>217.0</ele><time>2026-04-12T09:06:58.087Z</time></trkpt><trkpt lat="43.6048819" lon="6.7006829"><ele>217.0</ele><time>2026-04-12T09:06:59.087Z</time></trkpt><trkpt lat="43.6049828" lon="6.7007282"><ele>217.0</ele><time>2026-04-12T09:07:00.087Z</time></trkpt><trkpt lat="43.6050842" lon="6.7007733"><ele>217.0</ele><time>2026-04-12T09:07:01.087Z</time></trkpt><trkpt lat="43.6051844" lon="6.7008189"><ele>217.0</ele><time>2026-04-12T09:07:02.088Z</time></trkpt><trkpt lat="43.6052838" lon="6.7008642"><ele>217.0</ele><time>2026-04-12T09:07:03.087Z</time></trkpt><trkpt lat="43.6053808" lon="6.7009094"><ele>217.0</ele><time>2026-04-12T09:07:04.087Z</time></trkpt><trkpt lat="43.6054757" lon="6.7009534"><ele>217.0</ele><time>2026-04-12T09:07:05.087Z</time></trkpt><trkpt lat="43.6055678" lon="6.7009952"><ele>217.0</ele><time>2026-04-12T09:07:06.087Z</time></trkpt><trkpt lat="43.6056561" lon="6.7010381"><ele>217.0</ele><time>2026-04-12T09:07:07.087Z</time></trkpt><trkpt lat="43.6057428" lon="6.7010779"><ele>217.0</ele><time>2026-04-12T09:07:08.087Z</time></trkpt><trkpt lat="43.6058279" lon="6.7011188"><ele>217.0</ele><time>2026-04-12T09:07:09.087Z</time></trkpt><trkpt lat="43.6059129" lon="6.7011597"><ele>217.0</ele><time>2026-04-12T09:07:10.087Z</time></trkpt><trkpt lat="43.6059993" lon="6.7012031"><ele>217.0</ele><time>2026-04-12T09:07:11.088Z</time></trkpt><trkpt lat="43.6060853" lon="6.7012488"><ele>217.0</ele><time>2026-04-12T09:07:12.087Z</time></trkpt><trkpt lat="43.6061704" lon="6.7013006"><ele>217.0</ele><time>2026-04-12T09:07:13.087Z</time></trkpt><trkpt lat="43.6062518" lon="6.7013559"><ele>217.0</ele><time>2026-04-12T09:07:14.087Z</time></trkpt><trkpt lat="43.6063289" lon="6.7014204"><ele>217.0</ele><time>2026-04-12T09:07:15.087Z</time></trkpt><trkpt lat="43.606402" lon="6.701495"><ele>217.0</ele><time>2026-04-12T09:07:16.087Z</time></trkpt><trkpt lat="43.6064718" lon="6.7015769"><ele>217.0</ele><time>2026-04-12T09:07:17.087Z</time></trkpt><trkpt lat="43.6065369" lon="6.7016678"><ele>217.0</ele><time>2026-04-12T09:07:18.088Z</time></trkpt><trkpt lat="43.6065975" lon="6.7017648"><ele>217.0</ele><time>2026-04-12T09:07:19.087Z</time></trkpt><trkpt lat="43.6066536" lon="6.7018674"><ele>217.0</ele><time>2026-04-12T09:07:20.087Z</time></trkpt><trkpt lat="43.6067044" lon="6.7019738"><ele>217.0</ele><time>2026-04-12T09:07:21.088Z</time></trkpt><trkpt lat="43.6067485" lon="6.7020842"><ele>216.8</ele><time>2026-04-12T09:07:22.087Z</time></trkpt><trkpt lat="43.6067881" lon="6.7021979"><ele>216.6</ele><time>2026-04-12T09:07:23.088Z</time></trkpt><trkpt lat="43.6068219" lon="6.7023166"><ele>216.40000000000003</ele><time>2026-04-12T09:07:24.088Z</time></trkpt><trkpt lat="43.6068517" lon="6.7024376"><ele>216.20000000000002</ele><time>2026-04-12T09:07:25.087Z</time></trkpt><trkpt lat="43.6068776" lon="6.7025605"><ele>216.0</ele><time>2026-04-12T09:07:26.088Z</time></trkpt><trkpt lat="43.6069014" lon="6.7026838"><ele>215.8</ele><time>2026-04-12T09:07:27.087Z</time></trkpt><trkpt lat="43.6069258" lon="6.7028076"><ele>215.60000000000002</ele><time>2026-04-12T09:07:28.088Z</time></trkpt><trkpt lat="43.6069423" lon="6.702935"><ele>215.4</ele><time>2026-04-12T09:07:29.088Z</time></trkpt><trkpt lat="43.6069587" lon="6.7030651"><ele>215.2</ele><time>2026-04-12T09:07:30.089Z</time></trkpt><trkpt lat="43.6069739" lon="6.7031955"><ele>215.0</ele><time>2026-04-12T09:07:31.088Z</time></trkpt><trkpt lat="43.6069892" lon="6.7033273"><ele>214.6</ele><time>2026-04-12T09:07:32.088Z</time></trkpt><trkpt lat="43.6070047" lon="6.7034587"><ele>214.2</ele><time>2026-04-12T09:07:33.088Z</time></trkpt><trkpt lat="43.6070191" lon="6.7035895"><ele>213.8</ele><time>2026-04-12T09:07:34.088Z</time></trkpt><trkpt lat="43.6070339" lon="6.703722"><ele>213.4</ele><time>2026-04-12T09:07:35.088Z</time></trkpt><trkpt lat="43.6070529" lon="6.7038547"><ele>213.0</ele><time>2026-04-12T09:07:36.089Z</time></trkpt><trkpt lat="43.6070723" lon="6.7039885"><ele>213.0</ele><time>2026-04-12T09:07:37.088Z</time></trkpt><trkpt lat="43.6070916" lon="6.7041215"><ele>213.0</ele><time>2026-04-12T09:07:38.088Z</time></trkpt><trkpt lat="43.6071138" lon="6.704254"><ele>213.0</ele><time>2026-04-12T09:07:39.088Z</time></trkpt><trkpt lat="43.6071332" lon="6.7043834"><ele>213.0</ele><time>2026-04-12T09:07:40.088Z</time></trkpt><trkpt lat="43.6071489" lon="6.7045099"><ele>213.0</ele><time>2026-04-12T09:07:41.088Z</time></trkpt><trkpt lat="43.6071645" lon="6.7046372"><ele>212.8</ele><time>2026-04-12T09:07:42.088Z</time></trkpt><trkpt lat="43.6071818" lon="6.7047635"><ele>212.60000000000002</ele><time>2026-04-12T09:07:43.088Z</time></trkpt><trkpt lat="43.6071993" lon="6.7048881"><ele>212.39999999999998</ele><time>2026-04-12T09:07:44.088Z</time></trkpt><trkpt lat="43.6072145" lon="6.705013"><ele>212.2</ele><time>2026-04-12T09:07:45.088Z</time></trkpt><trkpt lat="43.6072296" lon="6.7051372"><ele>212.0</ele><time>2026-04-12T09:07:46.088Z</time></trkpt><trkpt lat="43.6072461" lon="6.7052592"><ele>212.33333333333334</ele><time>2026-04-12T09:07:47.088Z</time></trkpt><trkpt lat="43.6072629" lon="6.7053788"><ele>212.66666666666669</ele><time>2026-04-12T09:07:48.088Z</time></trkpt><trkpt lat="43.6072801" lon="6.7054979"><ele>213.0</ele><time>2026-04-12T09:07:49.089Z</time></trkpt><trkpt lat="43.6072982" lon="6.7056161"><ele>213.33333333333331</ele><time>2026-04-12T09:07:50.089Z</time></trkpt><trkpt lat="43.6073173" lon="6.7057327"><ele>213.66666666666666</ele><time>2026-04-12T09:07:51.089Z</time></trkpt><trkpt lat="43.6073368" lon="6.7058485"><ele>214.0</ele><time>2026-04-12T09:07:52.088Z</time></trkpt><trkpt lat="43.6073557" lon="6.7059646"><ele>213.83333333333331</ele><time>2026-04-12T09:07:53.088Z</time></trkpt><trkpt lat="43.6073753" lon="6.7060786"><ele>213.66666666666666</ele><time>2026-04-12T09:07:54.088Z</time></trkpt><trkpt lat="43.6073951" lon="6.7061896"><ele>213.5</ele><time>2026-04-12T09:07:55.088Z</time></trkpt><trkpt lat="43.607415" lon="6.7063009"><ele>213.33333333333331</ele><time>2026-04-12T09:07:56.088Z</time></trkpt><trkpt lat="43.6074357" lon="6.7064121"><ele>213.16666666666666</ele><time>2026-04-12T09:07:57.088Z</time></trkpt><trkpt lat="43.6074561" lon="6.7065227"><ele>213.0</ele><time>2026-04-12T09:07:58.088Z</time></trkpt><trkpt lat="43.6074751" lon="6.7066331"><ele>213.0</ele><time>2026-04-12T09:07:59.088Z</time></trkpt><trkpt lat="43.6074917" lon="6.7067436"><ele>213.0</ele><time>2026-04-12T09:08:00.089Z</time></trkpt><trkpt lat="43.6075066" lon="6.7068533"><ele>213.0</ele><time>2026-04-12T09:08:01.089Z</time></trkpt><trkpt lat="43.6075209" lon="6.7069617"><ele>213.0</ele><time>2026-04-12T09:08:02.089Z</time></trkpt><trkpt lat="43.6075341" lon="6.7070699"><ele>213.0</ele><time>2026-04-12T09:08:03.088Z</time></trkpt><trkpt lat="43.607548" lon="6.7071772"><ele>213.0</ele><time>2026-04-12T09:08:04.089Z</time></trkpt><trkpt lat="43.6075623" lon="6.7072845"><ele>213.0</ele><time>2026-04-12T09:08:05.088Z</time></trkpt><trkpt lat="43.6075743" lon="6.7073915"><ele>213.0</ele><time>2026-04-12T09:08:06.089Z</time></trkpt><trkpt lat="43.6075851" lon="6.7074989"><ele>213.0</ele><time>2026-04-12T09:08:07.088Z</time></trkpt><trkpt lat="43.6075955" lon="6.7076023"><ele>213.0</ele><time>2026-04-12T09:08:08.088Z</time></trkpt><trkpt lat="43.6076059" lon="6.7077105"><ele>213.0</ele><time>2026-04-12T09:08:09.088Z</time></trkpt><trkpt lat="43.607617" lon="6.7078205"><ele>213.0</ele><time>2026-04-12T09:08:10.088Z</time></trkpt><trkpt lat="43.607631" lon="6.7079336"><ele>213.0</ele><time>2026-04-12T09:08:11.089Z</time></trkpt><trkpt lat="43.6076447" lon="6.7080496"><ele>213.0</ele><time>2026-04-12T09:08:12.088Z</time></trkpt><trkpt lat="43.6076574" lon="6.7081563"><ele>213.0</ele><time>2026-04-12T09:08:13.089Z</time></trkpt><trkpt lat="43.6076687" lon="6.7082643"><ele>213.0</ele><time>2026-04-12T09:08:14.089Z</time></trkpt><trkpt lat="43.6076774" lon="6.7083691"><ele>213.0</ele><time>2026-04-12T09:08:15.089Z</time></trkpt><trkpt lat="43.6076893" lon="6.7084712"><ele>213.0</ele><time>2026-04-12T09:08:16.09Z</time></trkpt><trkpt lat="43.6077012" lon="6.7085752"><ele>213.16666666666666</ele><time>2026-04-12T09:08:17.089Z</time></trkpt><trkpt lat="43.6077114" lon="6.7086829"><ele>213.33333333333331</ele><time>2026-04-12T09:08:18.089Z</time></trkpt><trkpt lat="43.6077234" lon="6.7087915"><ele>213.5</ele><time>2026-04-12T09:08:19.089Z</time></trkpt><trkpt lat="43.6077344" lon="6.7089006"><ele>213.66666666666666</ele><time>2026-04-12T09:08:20.089Z</time></trkpt><trkpt lat="43.607747" lon="6.7090073"><ele>213.83333333333331</ele><time>2026-04-12T09:08:21.09Z</time></trkpt><trkpt lat="43.6077595" lon="6.7091124"><ele>214.0</ele><time>2026-04-12T09:08:22.089Z</time></trkpt><trkpt lat="43.6077721" lon="6.7092195"><ele>213.99999999999997</ele><time>2026-04-12T09:08:23.089Z</time></trkpt><trkpt lat="43.6077845" lon="6.7093261"><ele>214.0</ele><time>2026-04-12T09:08:24.089Z</time></trkpt><trkpt lat="43.6077967" lon="6.7094362"><ele>214.0</ele><time>2026-04-12T09:08:25.089Z</time></trkpt><trkpt lat="43.6078086" lon="6.7095443"><ele>214.0</ele><time>2026-04-12T09:08:26.09Z</time></trkpt><trkpt lat="43.6078227" lon="6.7096543"><ele>213.99999999999997</ele><time>2026-04-12T09:08:27.089Z</time></trkpt><trkpt lat="43.60784" lon="6.7097625"><ele>214.0</ele><time>2026-04-12T09:08:28.089Z</time></trkpt><trkpt lat="43.6078576" lon="6.7098702"><ele>213.99999999999997</ele><time>2026-04-12T09:08:29.089Z</time></trkpt><trkpt lat="43.607873" lon="6.7099821"><ele>214.0</ele><time>2026-04-12T09:08:30.089Z</time></trkpt><trkpt lat="43.6078858" lon="6.7100923"><ele>214.0</ele><time>2026-04-12T09:08:31.089Z</time></trkpt><trkpt lat="43.6078991" lon="6.7102022"><ele>214.0</ele><time>2026-04-12T09:08:32.089Z</time></trkpt><trkpt lat="43.6079143" lon="6.7103123"><ele>213.99999999999997</ele><time>2026-04-12T09:08:33.089Z</time></trkpt><trkpt lat="43.6079305" lon="6.7104203"><ele>214.0</ele><time>2026-04-12T09:08:34.089Z</time></trkpt><trkpt lat="43.6079455" lon="6.7105305"><ele>213.83333333333331</ele><time>2026-04-12T09:08:35.089Z</time></trkpt><trkpt lat="43.6079599" lon="6.7106367"><ele>213.66666666666666</ele><time>2026-04-12T09:08:36.089Z</time></trkpt><trkpt lat="43.6079765" lon="6.7107426"><ele>213.5</ele><time>2026-04-12T09:08:37.089Z</time></trkpt><trkpt lat="43.6079943" lon="6.7108448"><ele>213.33333333333331</ele><time>2026-04-12T09:08:38.089Z</time></trkpt><trkpt lat="43.6080109" lon="6.7109429"><ele>213.16666666666666</ele><time>2026-04-12T09:08:39.089Z</time></trkpt><trkpt lat="43.6080231" lon="6.7110414"><ele>213.0</ele><time>2026-04-12T09:08:40.09Z</time></trkpt><trkpt lat="43.6080249" lon="6.7111491"><ele>213.33333333333334</ele><time>2026-04-12T09:08:41.089Z</time></trkpt><trkpt lat="43.608006" lon="6.7112593"><ele>213.66666666666669</ele><time>2026-04-12T09:08:42.089Z</time></trkpt><trkpt lat="43.6079798" lon="6.7113634"><ele>214.0</ele><time>2026-04-12T09:08:43.089Z</time></trkpt><trkpt lat="43.6079693" lon="6.7114667"><ele>214.33333333333334</ele><time>2026-04-12T09:08:44.089Z</time></trkpt><trkpt lat="43.6079843" lon="6.7115736"><ele>214.66666666666669</ele><time>2026-04-12T09:08:45.089Z</time></trkpt><trkpt lat="43.6080275" lon="6.71167"><ele>215.0</ele><time>2026-04-12T09:08:46.09Z</time></trkpt><trkpt lat="43.6080888" lon="6.711759"><ele>215.00000000000003</ele><time>2026-04-12T09:08:47.09Z</time></trkpt><trkpt lat="43.6081314" lon="6.7118554"><ele>215.0</ele><time>2026-04-12T09:08:48.089Z</time></trkpt><trkpt lat="43.6081563" lon="6.7119656"><ele>215.0</ele><time>2026-04-12T09:08:49.089Z</time></trkpt><trkpt lat="43.6081763" lon="6.7120799"><ele>215.0</ele><time>2026-04-12T09:08:50.089Z</time></trkpt><trkpt lat="43.6081957" lon="6.7121871"><ele>215.00000000000003</ele><time>2026-04-12T09:08:51.09Z</time></trkpt><trkpt lat="43.6082108" lon="6.7122958"><ele>215.0</ele><time>2026-04-12T09:08:52.09Z</time></trkpt><trkpt lat="43.6082218" lon="6.7124062"><ele>214.66666666666669</ele><time>2026-04-12T09:08:53.089Z</time></trkpt><trkpt lat="43.6082331" lon="6.712522"><ele>214.33333333333334</ele><time>2026-04-12T09:08:54.089Z</time></trkpt><trkpt lat="43.608244" lon="6.7126372"><ele>214.0</ele><time>2026-04-12T09:08:55.089Z</time></trkpt><trkpt lat="43.608258" lon="6.7127522"><ele>213.66666666666669</ele><time>2026-04-12T09:08:56.09Z</time></trkpt><trkpt lat="43.6082712" lon="6.7128628"><ele>213.33333333333334</ele><time>2026-04-12T09:08:57.089Z</time></trkpt><trkpt lat="43.6082837" lon="6.712978"><ele>213.0</ele><time>2026-04-12T09:08:58.09Z</time></trkpt><trkpt lat="43.6082972" lon="6.7130923"><ele>212.83333333333334</ele><time>2026-04-12T09:08:59.089Z</time></trkpt><trkpt lat="43.6083114" lon="6.7132076"><ele>212.66666666666669</ele><time>2026-04-12T09:09:00.09Z</time></trkpt><trkpt lat="43.6083252" lon="6.7133207"><ele>212.5</ele><time>2026-04-12T09:09:01.09Z</time></trkpt><trkpt lat="43.6083404" lon="6.7134316"><ele>212.33333333333334</ele><time>2026-04-12T09:09:02.09Z</time></trkpt><trkpt lat="43.6083551" lon="6.7135462"><ele>212.16666666666669</ele><time>2026-04-12T09:09:03.09Z</time></trkpt><trkpt lat="43.6083703" lon="6.7136624"><ele>212.0</ele><time>2026-04-12T09:09:04.09Z</time></trkpt><trkpt lat="43.6083845" lon="6.7137788"><ele>211.83333333333334</ele><time>2026-04-12T09:09:05.091Z</time></trkpt><trkpt lat="43.6083979" lon="6.7138932"><ele>211.66666666666669</ele><time>2026-04-12T09:09:06.09Z</time></trkpt><trkpt lat="43.6084142" lon="6.7140106"><ele>211.5</ele><time>2026-04-12T09:09:07.09Z</time></trkpt><trkpt lat="43.6084319" lon="6.7141283"><ele>211.33333333333331</ele><time>2026-04-12T09:09:08.09Z</time></trkpt><trkpt lat="43.6084523" lon="6.7142438"><ele>211.16666666666666</ele><time>2026-04-12T09:09:09.09Z</time></trkpt><trkpt lat="43.6084744" lon="6.7143619"><ele>211.0</ele><time>2026-04-12T09:09:10.09Z</time></trkpt><trkpt lat="43.6084996" lon="6.7144703"><ele>210.83333333333331</ele><time>2026-04-12T09:09:11.09Z</time></trkpt><trkpt lat="43.6085289" lon="6.7145835"><ele>210.66666666666666</ele><time>2026-04-12T09:09:12.091Z</time></trkpt><trkpt lat="43.608562" lon="6.7146925"><ele>210.5</ele><time>2026-04-12T09:09:13.09Z</time></trkpt><trkpt lat="43.6085995" lon="6.7148014"><ele>210.33333333333331</ele><time>2026-04-12T09:09:14.09Z</time></trkpt><trkpt lat="43.6086371" lon="6.7149116"><ele>210.16666666666666</ele><time>2026-04-12T09:09:15.09Z</time></trkpt><trkpt lat="43.6086764" lon="6.7150241"><ele>210.0</ele><time>2026-04-12T09:09:16.09Z</time></trkpt><trkpt lat="43.6087189" lon="6.7151399"><ele>210.2</ele><time>2026-04-12T09:09:17.09Z</time></trkpt><trkpt lat="43.6087607" lon="6.7152559"><ele>210.4</ele><time>2026-04-12T09:09:18.09Z</time></trkpt><trkpt lat="43.6088026" lon="6.7153715"><ele>210.60000000000002</ele><time>2026-04-12T09:09:19.09Z</time></trkpt><trkpt lat="43.6088459" lon="6.7154869"><ele>210.8</ele><time>2026-04-12T09:09:20.09Z</time></trkpt><trkpt lat="43.6088894" lon="6.7156027"><ele>211.0</ele><time>2026-04-12T09:09:21.09Z</time></trkpt><trkpt lat="43.6089319" lon="6.7157179"><ele>210.99999999999997</ele><time>2026-04-12T09:09:22.09Z</time></trkpt><trkpt lat="43.6089747" lon="6.7158264"><ele>211.0</ele><time>2026-04-12T09:09:23.09Z</time></trkpt><trkpt lat="43.6090154" lon="6.7159331"><ele>211.0</ele><time>2026-04-12T09:09:24.09Z</time></trkpt><trkpt lat="43.6090565" lon="6.7160394"><ele>211.0</ele><time>2026-04-12T09:09:25.091Z</time></trkpt><trkpt lat="43.6090996" lon="6.7161503"><ele>210.99999999999997</ele><time>2026-04-12T09:09:26.091Z</time></trkpt><trkpt lat="43.6091391" lon="6.7162601"><ele>211.0</ele><time>2026-04-12T09:09:27.09Z</time></trkpt><trkpt lat="43.6091748" lon="6.7163652"><ele>211.16666666666666</ele><time>2026-04-12T09:09:28.09Z</time></trkpt><trkpt lat="43.6092123" lon="6.7164685"><ele>211.33333333333331</ele><time>2026-04-12T09:09:29.09Z</time></trkpt><trkpt lat="43.6092483" lon="6.7165658"><ele>211.5</ele><time>2026-04-12T09:09:30.091Z</time></trkpt><trkpt lat="43.6092855" lon="6.7166661"><ele>211.66666666666669</ele><time>2026-04-12T09:09:31.09Z</time></trkpt><trkpt lat="43.609323" lon="6.7167691"><ele>211.83333333333334</ele><time>2026-04-12T09:09:32.09Z</time></trkpt><trkpt lat="43.6093592" lon="6.7168701"><ele>212.0</ele><time>2026-04-12T09:09:33.09Z</time></trkpt><trkpt lat="43.6093954" lon="6.7169724"><ele>212.00000000000003</ele><time>2026-04-12T09:09:34.09Z</time></trkpt><trkpt lat="43.6094331" lon="6.717073"><ele>212.0</ele><time>2026-04-12T09:09:35.09Z</time></trkpt><trkpt lat="43.6094699" lon="6.7171674"><ele>212.0</ele><time>2026-04-12T09:09:36.09Z</time></trkpt><trkpt lat="43.6095067" lon="6.717262"><ele>212.0</ele><time>2026-04-12T09:09:37.09Z</time></trkpt><trkpt lat="43.6095403" lon="6.7173544"><ele>212.00000000000003</ele><time>2026-04-12T09:09:38.09Z</time></trkpt><trkpt lat="43.6095732" lon="6.7174498"><ele>212.0</ele><time>2026-04-12T09:09:39.091Z</time></trkpt><trkpt lat="43.6096018" lon="6.7175431"><ele>212.00000000000003</ele><time>2026-04-12T09:09:40.09Z</time></trkpt><trkpt lat="43.6096293" lon="6.7176375"><ele>212.0</ele><time>2026-04-12T09:09:41.09Z</time></trkpt><trkpt lat="43.6096559" lon="6.7177341"><ele>212.0</ele><time>2026-04-12T09:09:42.09Z</time></trkpt><trkpt lat="43.6096828" lon="6.7178307"><ele>212.0</ele><time>2026-04-12T09:09:43.09Z</time></trkpt><trkpt lat="43.6097095" lon="6.7179295"><ele>212.00000000000003</ele><time>2026-04-12T09:09:44.09Z</time></trkpt><trkpt lat="43.6097313" lon="6.7180361"><ele>212.0</ele><time>2026-04-12T09:09:45.091Z</time></trkpt><trkpt lat="43.6097476" lon="6.7181404"><ele>212.00000000000003</ele><time>2026-04-12T09:09:46.091Z</time></trkpt><trkpt lat="43.6097629" lon="6.7182417"><ele>212.0</ele><time>2026-04-12T09:09:47.091Z</time></trkpt><trkpt lat="43.6097792" lon="6.7183478"><ele>212.0</ele><time>2026-04-12T09:09:48.092Z</time></trkpt><trkpt lat="43.6097932" lon="6.7184537"><ele>212.0</ele><time>2026-04-12T09:09:49.091Z</time></trkpt><trkpt lat="43.609803" lon="6.7185609"><ele>212.00000000000003</ele><time>2026-04-12T09:09:50.092Z</time></trkpt><trkpt lat="43.6098101" lon="6.7186686"><ele>212.0</ele><time>2026-04-12T09:09:51.092Z</time></trkpt><trkpt lat="43.6098173" lon="6.7187746"><ele>212.00000000000003</ele><time>2026-04-12T09:09:52.091Z</time></trkpt><trkpt lat="43.6098252" lon="6.7188867"><ele>212.0</ele><time>2026-04-12T09:09:53.091Z</time></trkpt><trkpt lat="43.6098336" lon="6.7189978"><ele>212.0</ele><time>2026-04-12T09:09:54.091Z</time></trkpt><trkpt lat="43.6098418" lon="6.7191042"><ele>212.0</ele><time>2026-04-12T09:09:55.092Z</time></trkpt><trkpt lat="43.6098515" lon="6.7192161"><ele>212.00000000000003</ele><time>2026-04-12T09:09:56.091Z</time></trkpt><trkpt lat="43.6098633" lon="6.7193254"><ele>212.0</ele><time>2026-04-12T09:09:57.091Z</time></trkpt><trkpt lat="43.6098759" lon="6.7194303"><ele>211.83333333333334</ele><time>2026-04-12T09:09:58.091Z</time></trkpt><trkpt lat="43.6098897" lon="6.7195337"><ele>211.66666666666669</ele><time>2026-04-12T09:09:59.091Z</time></trkpt><trkpt lat="43.609903" lon="6.7196374"><ele>211.5</ele><time>2026-04-12T09:10:00.091Z</time></trkpt><trkpt lat="43.6099141" lon="6.719739"><ele>211.33333333333331</ele><time>2026-04-12T09:10:01.091Z</time></trkpt><trkpt lat="43.6099235" lon="6.7198417"><ele>211.16666666666666</ele><time>2026-04-12T09:10:02.091Z</time></trkpt><trkpt lat="43.6099333" lon="6.7199444"><ele>211.0</ele><time>2026-04-12T09:10:03.091Z</time></trkpt><trkpt lat="43.6099444" lon="6.7200458"><ele>211.0</ele><time>2026-04-12T09:10:04.091Z</time></trkpt><trkpt lat="43.6099557" lon="6.7201476"><ele>211.0</ele><time>2026-04-12T09:10:05.091Z</time></trkpt><trkpt lat="43.6099657" lon="6.720247"><ele>211.0</ele><time>2026-04-12T09:10:06.092Z</time></trkpt><trkpt lat="43.6099765" lon="6.7203401"><ele>211.0</ele><time>2026-04-12T09:10:07.091Z</time></trkpt><trkpt lat="43.6099868" lon="6.7204322"><ele>211.0</ele><time>2026-04-12T09:10:08.091Z</time></trkpt><trkpt lat="43.6099976" lon="6.7205233"><ele>211.0</ele><time>2026-04-12T09:10:09.091Z</time></trkpt><trkpt lat="43.6100089" lon="6.7206205"><ele>211.0</ele><time>2026-04-12T09:10:10.091Z</time></trkpt><trkpt lat="43.610018" lon="6.7207168"><ele>211.28571428571428</ele><time>2026-04-12T09:10:11.091Z</time></trkpt><trkpt lat="43.6100281" lon="6.7208143"><ele>211.57142857142858</ele><time>2026-04-12T09:10:12.091Z</time></trkpt><trkpt lat="43.6100389" lon="6.7209131"><ele>211.85714285714283</ele><time>2026-04-12T09:10:13.091Z</time></trkpt><trkpt lat="43.6100534" lon="6.7210153"><ele>212.14285714285714</ele><time>2026-04-12T09:10:14.091Z</time></trkpt><trkpt lat="43.6100652" lon="6.7211161"><ele>212.42857142857142</ele><time>2026-04-12T09:10:15.091Z</time></trkpt><trkpt lat="43.6100751" lon="6.7212154"><ele>212.7142857142857</ele><time>2026-04-12T09:10:16.091Z</time></trkpt><trkpt lat="43.6100869" lon="6.7213151"><ele>213.0</ele><time>2026-04-12T09:10:17.092Z</time></trkpt><trkpt lat="43.6100983" lon="6.7214043"><ele>213.4</ele><time>2026-04-12T09:10:18.092Z</time></trkpt><trkpt lat="43.6101171" lon="6.7215715"><ele>213.8</ele><time>2026-04-12T09:10:20.092Z</time></trkpt><trkpt lat="43.6101369" lon="6.7217409"><ele>214.2</ele><time>2026-04-12T09:10:22.093Z</time></trkpt><trkpt lat="43.61015" lon="6.7218298"><ele>214.6</ele><time>2026-04-12T09:10:23.091Z</time></trkpt><trkpt lat="43.6101752" lon="6.7219891"><ele>215.0</ele><time>2026-04-12T09:10:25.091Z</time></trkpt><trkpt lat="43.6102016" lon="6.7221588"><ele>215.00000000000003</ele><time>2026-04-12T09:10:27.091Z</time></trkpt><trkpt lat="43.610216" lon="6.7222469"><ele>215.0</ele><time>2026-04-12T09:10:28.091Z</time></trkpt><trkpt lat="43.6102442" lon="6.7224233"><ele>215.0</ele><time>2026-04-12T09:10:30.092Z</time></trkpt><trkpt lat="43.6102597" lon="6.7225184"><ele>215.0</ele><time>2026-04-12T09:10:31.092Z</time></trkpt><trkpt lat="43.6102724" lon="6.722612"><ele>215.00000000000003</ele><time>2026-04-12T09:10:32.092Z</time></trkpt><trkpt lat="43.6102837" lon="6.7227113"><ele>215.0</ele><time>2026-04-12T09:10:33.092Z</time></trkpt><trkpt lat="43.6102922" lon="6.7228113"><ele>215.0</ele><time>2026-04-12T09:10:34.092Z</time></trkpt><trkpt lat="43.6102959" lon="6.7229164"><ele>215.0</ele><time>2026-04-12T09:10:35.092Z</time></trkpt><trkpt lat="43.6102985" lon="6.7230135"><ele>215.0</ele><time>2026-04-12T09:10:36.092Z</time></trkpt><trkpt lat="43.6103018" lon="6.7231187"><ele>215.0</ele><time>2026-04-12T09:10:37.092Z</time></trkpt><trkpt lat="43.6103042" lon="6.7232211"><ele>215.0</ele><time>2026-04-12T09:10:38.092Z</time></trkpt><trkpt lat="43.6103062" lon="6.7233198"><ele>215.0</ele><time>2026-04-12T09:10:39.092Z</time></trkpt><trkpt lat="43.6103085" lon="6.7234192"><ele>215.0</ele><time>2026-04-12T09:10:40.092Z</time></trkpt><trkpt lat="43.6103101" lon="6.7235202"><ele>215.14285714285714</ele><time>2026-04-12T09:10:41.092Z</time></trkpt><trkpt lat="43.6103166" lon="6.7236209"><ele>215.2857142857143</ele><time>2026-04-12T09:10:42.092Z</time></trkpt><trkpt lat="43.6103224" lon="6.7237234"><ele>215.42857142857144</ele><time>2026-04-12T09:10:43.092Z</time></trkpt><trkpt lat="43.6103274" lon="6.7238251"><ele>215.57142857142856</ele><time>2026-04-12T09:10:44.092Z</time></trkpt><trkpt lat="43.6103339" lon="6.7239249"><ele>215.71428571428572</ele><time>2026-04-12T09:10:45.092Z</time></trkpt><trkpt lat="43.6103422" lon="6.7240285"><ele>215.85714285714286</ele><time>2026-04-12T09:10:46.092Z</time></trkpt><trkpt lat="43.6103494" lon="6.7241299"><ele>216.0</ele><time>2026-04-12T09:10:47.092Z</time></trkpt><trkpt lat="43.6103597" lon="6.7242308"><ele>216.28571428571428</ele><time>2026-04-12T09:10:48.092Z</time></trkpt><trkpt lat="43.6103698" lon="6.7243332"><ele>216.57142857142856</ele><time>2026-04-12T09:10:49.092Z</time></trkpt><trkpt lat="43.6103796" lon="6.7244341"><ele>216.85714285714286</ele><time>2026-04-12T09:10:50.092Z</time></trkpt><trkpt lat="43.6103905" lon="6.7245387"><ele>217.14285714285714</ele><time>2026-04-12T09:10:51.093Z</time></trkpt><trkpt lat="43.6104023" lon="6.7246408"><ele>217.42857142857144</ele><time>2026-04-12T09:10:52.092Z</time></trkpt><trkpt lat="43.6104159" lon="6.7247383"><ele>217.71428571428572</ele><time>2026-04-12T09:10:53.092Z</time></trkpt><trkpt lat="43.6104331" lon="6.7248305"><ele>218.0</ele><time>2026-04-12T09:10:54.092Z</time></trkpt><trkpt lat="43.6104525" lon="6.724927"><ele>218.28571428571428</ele><time>2026-04-12T09:10:55.092Z</time></trkpt><trkpt lat="43.6104735" lon="6.7250203"><ele>218.57142857142858</ele><time>2026-04-12T09:10:56.092Z</time></trkpt><trkpt lat="43.6104952" lon="6.7251174"><ele>218.85714285714283</ele><time>2026-04-12T09:10:57.092Z</time></trkpt><trkpt lat="43.6105154" lon="6.725208"><ele>219.14285714285714</ele><time>2026-04-12T09:10:58.092Z</time></trkpt><trkpt lat="43.6105356" lon="6.7252953"><ele>219.42857142857142</ele><time>2026-04-12T09:10:59.092Z</time></trkpt><trkpt lat="43.6105557" lon="6.7253897"><ele>219.7142857142857</ele><time>2026-04-12T09:11:00.092Z</time></trkpt><trkpt lat="43.6105739" lon="6.7254841"><ele>220.0</ele><time>2026-04-12T09:11:01.092Z</time></trkpt><trkpt lat="43.6105884" lon="6.7255758"><ele>220.28571428571428</ele><time>2026-04-12T09:11:02.092Z</time></trkpt><trkpt lat="43.6106014" lon="6.7256646"><ele>220.57142857142856</ele><time>2026-04-12T09:11:03.092Z</time></trkpt><trkpt lat="43.6106149" lon="6.7257522"><ele>220.85714285714283</ele><time>2026-04-12T09:11:04.092Z</time></trkpt><trkpt lat="43.610623" lon="6.7258477"><ele>221.14285714285714</ele><time>2026-04-12T09:11:05.092Z</time></trkpt><trkpt lat="43.6106264" lon="6.7259454"><ele>221.42857142857144</ele><time>2026-04-12T09:11:06.092Z</time></trkpt><trkpt lat="43.6106277" lon="6.7260422"><ele>221.7142857142857</ele><time>2026-04-12T09:11:07.092Z</time></trkpt><trkpt lat="43.6106302" lon="6.7261305"><ele>222.0</ele><time>2026-04-12T09:11:08.092Z</time></trkpt><trkpt lat="43.61063" lon="6.7262195"><ele>222.83333333333334</ele><time>2026-04-12T09:11:09.092Z</time></trkpt><trkpt lat="43.6106251" lon="6.7263926"><ele>223.66666666666669</ele><time>2026-04-12T09:11:11.093Z</time></trkpt><trkpt lat="43.6106167" lon="6.7265632"><ele>224.5</ele><time>2026-04-12T09:11:13.092Z</time></trkpt><trkpt lat="43.6106119" lon="6.7266527"><ele>225.33333333333334</ele><time>2026-04-12T09:11:14.092Z</time></trkpt><trkpt lat="43.6106044" lon="6.7267432"><ele>226.16666666666669</ele><time>2026-04-12T09:11:15.095Z</time></trkpt><trkpt lat="43.6105953" lon="6.7268308"><ele>227.0</ele><time>2026-04-12T09:11:16.092Z</time></trkpt><trkpt lat="43.6105856" lon="6.7269184"><ele>227.71428571428572</ele><time>2026-04-12T09:11:17.092Z</time></trkpt><trkpt lat="43.6105771" lon="6.7270097"><ele>228.42857142857144</ele><time>2026-04-12T09:11:18.092Z</time></trkpt><trkpt lat="43.6105664" lon="6.7271015"><ele>229.14285714285717</ele><time>2026-04-12T09:11:19.093Z</time></trkpt><trkpt lat="43.6105545" lon="6.7271948"><ele>229.8571428571429</ele><time>2026-04-12T09:11:20.094Z</time></trkpt><trkpt lat="43.6105429" lon="6.7272884"><ele>230.57142857142858</ele><time>2026-04-12T09:11:21.094Z</time></trkpt><trkpt lat="43.6105319" lon="6.7273744"><ele>231.28571428571433</ele><time>2026-04-12T09:11:22.093Z</time></trkpt><trkpt lat="43.6105196" lon="6.7274654"><ele>232.00000000000003</ele><time>2026-04-12T09:11:23.093Z</time></trkpt><trkpt lat="43.6105075" lon="6.7275564"><ele>232.00000000000003</ele><time>2026-04-12T09:11:24.093Z</time></trkpt><trkpt lat="43.6104963" lon="6.7276473"><ele>232.0</ele><time>2026-04-12T09:11:25.093Z</time></trkpt><trkpt lat="43.6104858" lon="6.7277382"><ele>232.00000000000003</ele><time>2026-04-12T09:11:26.093Z</time></trkpt><trkpt lat="43.6104763" lon="6.7278272"><ele>232.00000000000003</ele><time>2026-04-12T09:11:27.094Z</time></trkpt><trkpt lat="43.6104671" lon="6.7279211"><ele>232.0</ele><time>2026-04-12T09:11:28.093Z</time></trkpt><trkpt lat="43.6104599" lon="6.728015"><ele>232.00000000000003</ele><time>2026-04-12T09:11:29.093Z</time></trkpt><trkpt lat="43.6104524" lon="6.7281095"><ele>232.00000000000003</ele><time>2026-04-12T09:11:30.093Z</time></trkpt><trkpt lat="43.6104447" lon="6.7282079"><ele>231.28571428571433</ele><time>2026-04-12T09:11:31.093Z</time></trkpt><trkpt lat="43.610435" lon="6.7283027"><ele>230.57142857142858</ele><time>2026-04-12T09:11:32.093Z</time></trkpt><trkpt lat="43.6104251" lon="6.7283965"><ele>229.8571428571429</ele><time>2026-04-12T09:11:33.093Z</time></trkpt><trkpt lat="43.6104152" lon="6.7284927"><ele>229.14285714285717</ele><time>2026-04-12T09:11:34.093Z</time></trkpt><trkpt lat="43.6104056" lon="6.7285893"><ele>228.42857142857144</ele><time>2026-04-12T09:11:35.093Z</time></trkpt><trkpt lat="43.610397" lon="6.7286856"><ele>227.71428571428572</ele><time>2026-04-12T09:11:36.093Z</time></trkpt><trkpt lat="43.6103878" lon="6.728786"><ele>227.0</ele><time>2026-04-12T09:11:37.093Z</time></trkpt><trkpt lat="43.6103781" lon="6.7288868"><ele>226.50000000000003</ele><time>2026-04-12T09:11:38.093Z</time></trkpt><trkpt lat="43.6103666" lon="6.7289922"><ele>226.0</ele><time>2026-04-12T09:11:39.093Z</time></trkpt><trkpt lat="43.6103548" lon="6.7291005"><ele>225.5</ele><time>2026-04-12T09:11:40.093Z</time></trkpt><trkpt lat="43.6103462" lon="6.7292151"><ele>225.0</ele><time>2026-04-12T09:11:41.093Z</time></trkpt><trkpt lat="43.6103415" lon="6.7293323"><ele>224.50000000000003</ele><time>2026-04-12T09:11:42.094Z</time></trkpt><trkpt lat="43.6103354" lon="6.729448"><ele>224.0</ele><time>2026-04-12T09:11:43.093Z</time></trkpt><trkpt lat="43.610326" lon="6.7295672"><ele>222.66666666666669</ele><time>2026-04-12T09:11:44.093Z</time></trkpt><trkpt lat="43.6103134" lon="6.7296869"><ele>221.33333333333334</ele><time>2026-04-12T09:11:45.093Z</time></trkpt><trkpt lat="43.6103017" lon="6.7298102"><ele>220.0</ele><time>2026-04-12T09:11:46.093Z</time></trkpt><trkpt lat="43.6102901" lon="6.7299326"><ele>218.66666666666669</ele><time>2026-04-12T09:11:47.094Z</time></trkpt><trkpt lat="43.6102784" lon="6.7300534"><ele>217.33333333333334</ele><time>2026-04-12T09:11:48.093Z</time></trkpt><trkpt lat="43.6102652" lon="6.7301682"><ele>216.0</ele><time>2026-04-12T09:11:49.093Z</time></trkpt><trkpt lat="43.6102517" lon="6.7302869"><ele>215.83333333333334</ele><time>2026-04-12T09:11:50.093Z</time></trkpt><trkpt lat="43.6102416" lon="6.7304018"><ele>215.66666666666669</ele><time>2026-04-12T09:11:51.094Z</time></trkpt><trkpt lat="43.6102272" lon="6.7305149"><ele>215.5</ele><time>2026-04-12T09:11:52.094Z</time></trkpt><trkpt lat="43.6102114" lon="6.730632"><ele>215.33333333333334</ele><time>2026-04-12T09:11:53.094Z</time></trkpt><trkpt lat="43.6101914" lon="6.7307483"><ele>215.16666666666669</ele><time>2026-04-12T09:11:54.094Z</time></trkpt><trkpt lat="43.6101669" lon="6.7308625"><ele>215.0</ele><time>2026-04-12T09:11:55.093Z</time></trkpt><trkpt lat="43.6101344" lon="6.7309702"><ele>215.16666666666669</ele><time>2026-04-12T09:11:56.093Z</time></trkpt><trkpt lat="43.6101066" lon="6.7310882"><ele>215.33333333333334</ele><time>2026-04-12T09:11:57.094Z</time></trkpt><trkpt lat="43.6100861" lon="6.7311986"><ele>215.5</ele><time>2026-04-12T09:11:58.093Z</time></trkpt><trkpt lat="43.6100708" lon="6.7313059"><ele>215.66666666666669</ele><time>2026-04-12T09:11:59.094Z</time></trkpt><trkpt lat="43.6100642" lon="6.7314209"><ele>215.83333333333334</ele><time>2026-04-12T09:12:00.093Z</time></trkpt><trkpt lat="43.6100679" lon="6.7315393"><ele>216.0</ele><time>2026-04-12T09:12:01.094Z</time></trkpt><trkpt lat="43.6100762" lon="6.7316566"><ele>216.0</ele><time>2026-04-12T09:12:02.094Z</time></trkpt><trkpt lat="43.610077" lon="6.7317714"><ele>216.0</ele><time>2026-04-12T09:12:03.094Z</time></trkpt><trkpt lat="43.6100646" lon="6.7318866"><ele>216.0</ele><time>2026-04-12T09:12:04.094Z</time></trkpt><trkpt lat="43.6100553" lon="6.7320003"><ele>216.0</ele><time>2026-04-12T09:12:05.094Z</time></trkpt><trkpt lat="43.6100607" lon="6.7321141"><ele>216.0</ele><time>2026-04-12T09:12:06.094Z</time></trkpt><trkpt lat="43.6100832" lon="6.7322258"><ele>216.0</ele><time>2026-04-12T09:12:07.094Z</time></trkpt><trkpt lat="43.6101073" lon="6.7323358"><ele>216.0</ele><time>2026-04-12T09:12:08.095Z</time></trkpt><trkpt lat="43.6101261" lon="6.7324529"><ele>216.0</ele><time>2026-04-12T09:12:09.094Z</time></trkpt><trkpt lat="43.6101316" lon="6.7325683"><ele>216.0</ele><time>2026-04-12T09:12:10.094Z</time></trkpt><trkpt lat="43.6101255" lon="6.7326901"><ele>216.0</ele><time>2026-04-12T09:12:11.094Z</time></trkpt><trkpt lat="43.610113" lon="6.7328077"><ele>216.0</ele><time>2026-04-12T09:12:12.094Z</time></trkpt><trkpt lat="43.6100927" lon="6.7329267"><ele>216.0</ele><time>2026-04-12T09:12:13.094Z</time></trkpt><trkpt lat="43.6100711" lon="6.7330483"><ele>216.20000000000002</ele><time>2026-04-12T09:12:14.094Z</time></trkpt><trkpt lat="43.6100478" lon="6.7331669"><ele>216.40000000000003</ele><time>2026-04-12T09:12:15.094Z</time></trkpt><trkpt lat="43.6100237" lon="6.7332841"><ele>216.6</ele><time>2026-04-12T09:12:16.094Z</time></trkpt><trkpt lat="43.6099999" lon="6.7334064"><ele>216.8</ele><time>2026-04-12T09:12:17.094Z</time></trkpt><trkpt lat="43.6099749" lon="6.7335299"><ele>217.0</ele><time>2026-04-12T09:12:18.095Z</time></trkpt><trkpt lat="43.6099496" lon="6.7336559"><ele>216.0</ele><time>2026-04-12T09:12:19.094Z</time></trkpt><trkpt lat="43.6099267" lon="6.7337819"><ele>215.0</ele><time>2026-04-12T09:12:20.094Z</time></trkpt><trkpt lat="43.6099035" lon="6.7339086"><ele>214.0</ele><time>2026-04-12T09:12:21.094Z</time></trkpt><trkpt lat="43.6098763" lon="6.7340343"><ele>213.0</ele><time>2026-04-12T09:12:22.094Z</time></trkpt><trkpt lat="43.6098455" lon="6.7341633"><ele>212.0</ele><time>2026-04-12T09:12:23.095Z</time></trkpt><trkpt lat="43.6098134" lon="6.7342916"><ele>211.39999999999998</ele><time>2026-04-12T09:12:24.094Z</time></trkpt><trkpt lat="43.6097805" lon="6.7344276"><ele>210.79999999999998</ele><time>2026-04-12T09:12:25.094Z</time></trkpt><trkpt lat="43.6097513" lon="6.7345597"><ele>210.2</ele><time>2026-04-12T09:12:26.094Z</time></trkpt><trkpt lat="43.6097228" lon="6.7346996"><ele>209.6</ele><time>2026-04-12T09:12:27.094Z</time></trkpt><trkpt lat="43.6096906" lon="6.7348453"><ele>209.0</ele><time>2026-04-12T09:12:28.095Z</time></trkpt><trkpt lat="43.6096555" lon="6.7349911"><ele>209.0</ele><time>2026-04-12T09:12:29.095Z</time></trkpt><trkpt lat="43.6096202" lon="6.7351376"><ele>209.0</ele><time>2026-04-12T09:12:30.094Z</time></trkpt><trkpt lat="43.6095856" lon="6.7352858"><ele>209.0</ele><time>2026-04-12T09:12:31.094Z</time></trkpt><trkpt lat="43.6095502" lon="6.7354339"><ele>209.0</ele><time>2026-04-12T09:12:32.094Z</time></trkpt><trkpt lat="43.6095163" lon="6.7355808"><ele>209.0</ele><time>2026-04-12T09:12:33.094Z</time></trkpt><trkpt lat="43.6094825" lon="6.7357264"><ele>208.39999999999998</ele><time>2026-04-12T09:12:34.094Z</time></trkpt><trkpt lat="43.6094488" lon="6.7358704"><ele>207.8</ele><time>2026-04-12T09:12:35.094Z</time></trkpt><trkpt lat="43.6094147" lon="6.7360144"><ele>207.2</ele><time>2026-04-12T09:12:36.095Z</time></trkpt><trkpt lat="43.6093807" lon="6.7361569"><ele>206.60000000000002</ele><time>2026-04-12T09:12:37.095Z</time></trkpt><trkpt lat="43.6093465" lon="6.7363007"><ele>206.0</ele><time>2026-04-12T09:12:38.095Z</time></trkpt><trkpt lat="43.6093131" lon="6.7364435"><ele>205.4</ele><time>2026-04-12T09:12:39.094Z</time></trkpt><trkpt lat="43.6092792" lon="6.7365875"><ele>204.8</ele><time>2026-04-12T09:12:40.094Z</time></trkpt><trkpt lat="43.609245" lon="6.7367311"><ele>204.20000000000002</ele><time>2026-04-12T09:12:41.094Z</time></trkpt><trkpt lat="43.6092114" lon="6.7368755"><ele>203.60000000000002</ele><time>2026-04-12T09:12:42.094Z</time></trkpt><trkpt lat="43.6091791" lon="6.7370175"><ele>203.0</ele><time>2026-04-12T09:12:43.095Z</time></trkpt><trkpt lat="43.6091455" lon="6.7371566"><ele>203.0</ele><time>2026-04-12T09:12:44.094Z</time></trkpt><trkpt lat="43.6091132" lon="6.7372993"><ele>203.0</ele><time>2026-04-12T09:12:45.095Z</time></trkpt><trkpt lat="43.6090806" lon="6.7374392"><ele>203.0</ele><time>2026-04-12T09:12:46.095Z</time></trkpt><trkpt lat="43.6090484" lon="6.7375801"><ele>203.0</ele><time>2026-04-12T09:12:47.094Z</time></trkpt><trkpt lat="43.609017" lon="6.7377223"><ele>203.0</ele><time>2026-04-12T09:12:48.095Z</time></trkpt><trkpt lat="43.6089843" lon="6.7378633"><ele>202.8</ele><time>2026-04-12T09:12:49.094Z</time></trkpt><trkpt lat="43.6089525" lon="6.7380058"><ele>202.60000000000002</ele><time>2026-04-12T09:12:50.095Z</time></trkpt><trkpt lat="43.6089193" lon="6.7381473"><ele>202.39999999999998</ele><time>2026-04-12T09:12:51.095Z</time></trkpt><trkpt lat="43.6088866" lon="6.7382873"><ele>202.2</ele><time>2026-04-12T09:12:52.095Z</time></trkpt><trkpt lat="43.6088543" lon="6.7384246"><ele>202.0</ele><time>2026-04-12T09:12:53.095Z</time></trkpt><trkpt lat="43.6088211" lon="6.7385654"><ele>201.8</ele><time>2026-04-12T09:12:54.095Z</time></trkpt><trkpt lat="43.6087903" lon="6.7386999"><ele>201.6</ele><time>2026-04-12T09:12:55.096Z</time></trkpt><trkpt lat="43.6087599" lon="6.7388328"><ele>201.4</ele><time>2026-04-12T09:12:56.095Z</time></trkpt><trkpt lat="43.6087282" lon="6.7389691"><ele>201.20000000000002</ele><time>2026-04-12T09:12:57.095Z</time></trkpt><trkpt lat="43.6086958" lon="6.7391038"><ele>201.0</ele><time>2026-04-12T09:12:58.095Z</time></trkpt><trkpt lat="43.6086643" lon="6.7392405"><ele>200.8</ele><time>2026-04-12T09:12:59.095Z</time></trkpt><trkpt lat="43.6086344" lon="6.7393749"><ele>200.60000000000002</ele><time>2026-04-12T09:13:00.095Z</time></trkpt><trkpt lat="43.6086034" lon="6.7395081"><ele>200.4</ele><time>2026-04-12T09:13:01.095Z</time></trkpt><trkpt lat="43.6085707" lon="6.7396417"><ele>200.2</ele><time>2026-04-12T09:13:02.095Z</time></trkpt><trkpt lat="43.6085387" lon="6.7397757"><ele>200.0</ele><time>2026-04-12T09:13:03.096Z</time></trkpt><trkpt lat="43.6085077" lon="6.7399134"><ele>199.6</ele><time>2026-04-12T09:13:04.095Z</time></trkpt><trkpt lat="43.6084776" lon="6.7400533"><ele>199.2</ele><time>2026-04-12T09:13:05.095Z</time></trkpt><trkpt lat="43.6084463" lon="6.7401896"><ele>198.8</ele><time>2026-04-12T09:13:06.096Z</time></trkpt><trkpt lat="43.6084128" lon="6.7403284"><ele>198.4</ele><time>2026-04-12T09:13:07.095Z</time></trkpt><trkpt lat="43.6083805" lon="6.7404652"><ele>198.0</ele><time>2026-04-12T09:13:08.096Z</time></trkpt><trkpt lat="43.6083489" lon="6.7406043"><ele>198.0</ele><time>2026-04-12T09:13:09.096Z</time></trkpt><trkpt lat="43.6083173" lon="6.7407435"><ele>198.0</ele><time>2026-04-12T09:13:10.095Z</time></trkpt><trkpt lat="43.6082852" lon="6.7408772"><ele>198.0</ele><time>2026-04-12T09:13:11.095Z</time></trkpt><trkpt lat="43.6082498" lon="6.7410094"><ele>198.0</ele><time>2026-04-12T09:13:12.095Z</time></trkpt><trkpt lat="43.608211" lon="6.741138"><ele>198.0</ele><time>2026-04-12T09:13:13.095Z</time></trkpt><trkpt lat="43.6081704" lon="6.7412679"><ele>197.8</ele><time>2026-04-12T09:13:14.095Z</time></trkpt><trkpt lat="43.6081316" lon="6.7413986"><ele>197.60000000000002</ele><time>2026-04-12T09:13:15.095Z</time></trkpt><trkpt lat="43.6080946" lon="6.7415263"><ele>197.39999999999998</ele><time>2026-04-12T09:13:16.095Z</time></trkpt><trkpt lat="43.6080598" lon="6.7416545"><ele>197.2</ele><time>2026-04-12T09:13:17.095Z</time></trkpt><trkpt lat="43.608032" lon="6.7417836"><ele>197.0</ele><time>2026-04-12T09:13:18.095Z</time></trkpt><trkpt lat="43.6080127" lon="6.7419206"><ele>196.39999999999998</ele><time>2026-04-12T09:13:19.095Z</time></trkpt><trkpt lat="43.607995" lon="6.7420559"><ele>195.79999999999998</ele><time>2026-04-12T09:13:20.095Z</time></trkpt><trkpt lat="43.6079809" lon="6.7421827"><ele>195.2</ele><time>2026-04-12T09:13:21.095Z</time></trkpt><trkpt lat="43.6079618" lon="6.7423082"><ele>194.6</ele><time>2026-04-12T09:13:22.095Z</time></trkpt><trkpt lat="43.6079253" lon="6.7424323"><ele>194.0</ele><time>2026-04-12T09:13:23.095Z</time></trkpt><trkpt lat="43.6078726" lon="6.7425535"><ele>194.0</ele><time>2026-04-12T09:13:24.095Z</time></trkpt><trkpt lat="43.6078351" lon="6.7426824"><ele>194.0</ele><time>2026-04-12T09:13:25.096Z</time></trkpt><trkpt lat="43.6078337" lon="6.7428221"><ele>194.0</ele><time>2026-04-12T09:13:26.096Z</time></trkpt><trkpt lat="43.6078708" lon="6.7429725"><ele>194.0</ele><time>2026-04-12T09:13:27.095Z</time></trkpt><trkpt lat="43.6079049" lon="6.7431035"><ele>194.0</ele><time>2026-04-12T09:13:28.096Z</time></trkpt><trkpt lat="43.6079076" lon="6.7432499"><ele>194.0</ele><time>2026-04-12T09:13:29.095Z</time></trkpt><trkpt lat="43.6078869" lon="6.7433881"><ele>194.0</ele><time>2026-04-12T09:13:30.095Z</time></trkpt><trkpt lat="43.6078678" lon="6.7435224"><ele>194.0</ele><time>2026-04-12T09:13:31.096Z</time></trkpt><trkpt lat="43.6078489" lon="6.7436554"><ele>194.0</ele><time>2026-04-12T09:13:32.095Z</time></trkpt><trkpt lat="43.6078347" lon="6.7437893"><ele>194.0</ele><time>2026-04-12T09:13:33.095Z</time></trkpt><trkpt lat="43.607821" lon="6.7439219"><ele>194.0</ele><time>2026-04-12T09:13:34.095Z</time></trkpt><trkpt lat="43.6078068" lon="6.7440554"><ele>194.0</ele><time>2026-04-12T09:13:35.096Z</time></trkpt><trkpt lat="43.6077921" lon="6.7441839"><ele>194.0</ele><time>2026-04-12T09:13:36.096Z</time></trkpt><trkpt lat="43.6077794" lon="6.7443103"><ele>194.0</ele><time>2026-04-12T09:13:37.096Z</time></trkpt><trkpt lat="43.6077691" lon="6.7444374"><ele>194.0</ele><time>2026-04-12T09:13:38.096Z</time></trkpt><trkpt lat="43.6077637" lon="6.7445689"><ele>193.39999999999998</ele><time>2026-04-12T09:13:39.096Z</time></trkpt><trkpt lat="43.6077586" lon="6.7446964"><ele>192.8</ele><time>2026-04-12T09:13:40.096Z</time></trkpt><trkpt lat="43.6077535" lon="6.7448218"><ele>192.2</ele><time>2026-04-12T09:13:41.096Z</time></trkpt><trkpt lat="43.6077474" lon="6.7449436"><ele>191.60000000000002</ele><time>2026-04-12T09:13:42.096Z</time></trkpt><trkpt lat="43.6077417" lon="6.7450669"><ele>191.0</ele><time>2026-04-12T09:13:43.096Z</time></trkpt><trkpt lat="43.6077347" lon="6.7451948"><ele>190.83333333333331</ele><time>2026-04-12T09:13:44.096Z</time></trkpt><trkpt lat="43.6077278" lon="6.7453206"><ele>190.66666666666666</ele><time>2026-04-12T09:13:45.096Z</time></trkpt><trkpt lat="43.6077174" lon="6.7454483"><ele>190.5</ele><time>2026-04-12T09:13:46.096Z</time></trkpt><trkpt lat="43.6077059" lon="6.7455729"><ele>190.33333333333334</ele><time>2026-04-12T09:13:47.096Z</time></trkpt><trkpt lat="43.6076962" lon="6.745691"><ele>190.16666666666669</ele><time>2026-04-12T09:13:48.096Z</time></trkpt><trkpt lat="43.6076862" lon="6.7458094"><ele>190.0</ele><time>2026-04-12T09:13:49.096Z</time></trkpt><trkpt lat="43.6076738" lon="6.7459247"><ele>190.0</ele><time>2026-04-12T09:13:50.096Z</time></trkpt><trkpt lat="43.6076595" lon="6.7460446"><ele>190.0</ele><time>2026-04-12T09:13:51.096Z</time></trkpt><trkpt lat="43.6076435" lon="6.7461654"><ele>190.0</ele><time>2026-04-12T09:13:52.096Z</time></trkpt><trkpt lat="43.6076258" lon="6.7462818"><ele>190.0</ele><time>2026-04-12T09:13:53.097Z</time></trkpt><trkpt lat="43.6076058" lon="6.7463994"><ele>190.0</ele><time>2026-04-12T09:13:54.096Z</time></trkpt><trkpt lat="43.6075811" lon="6.746517"><ele>190.0</ele><time>2026-04-12T09:13:55.096Z</time></trkpt><trkpt lat="43.6075538" lon="6.7466348"><ele>190.33333333333334</ele><time>2026-04-12T09:13:56.096Z</time></trkpt><trkpt lat="43.6075227" lon="6.7467511"><ele>190.66666666666669</ele><time>2026-04-12T09:13:57.096Z</time></trkpt><trkpt lat="43.6074928" lon="6.7468656"><ele>191.0</ele><time>2026-04-12T09:13:58.096Z</time></trkpt><trkpt lat="43.6074619" lon="6.7469796"><ele>191.33333333333334</ele><time>2026-04-12T09:13:59.096Z</time></trkpt><trkpt lat="43.6074296" lon="6.7470948"><ele>191.66666666666666</ele><time>2026-04-12T09:14:00.096Z</time></trkpt><trkpt lat="43.6073979" lon="6.7472107"><ele>192.0</ele><time>2026-04-12T09:14:01.096Z</time></trkpt><trkpt lat="43.6073672" lon="6.7473254"><ele>192.0</ele><time>2026-04-12T09:14:02.097Z</time></trkpt><trkpt lat="43.6073359" lon="6.7474424"><ele>192.0</ele><time>2026-04-12T09:14:03.096Z</time></trkpt><trkpt lat="43.6073054" lon="6.7475571"><ele>192.0</ele><time>2026-04-12T09:14:04.096Z</time></trkpt><trkpt lat="43.6072739" lon="6.7476722"><ele>192.0</ele><time>2026-04-12T09:14:05.097Z</time></trkpt><trkpt lat="43.6072443" lon="6.7477838"><ele>192.0</ele><time>2026-04-12T09:14:06.096Z</time></trkpt><trkpt lat="43.6072149" lon="6.7478973"><ele>192.0</ele><time>2026-04-12T09:14:07.096Z</time></trkpt><trkpt lat="43.6071839" lon="6.7480128"><ele>192.0</ele><time>2026-04-12T09:14:08.096Z</time></trkpt><trkpt lat="43.6071534" lon="6.748129"><ele>192.0</ele><time>2026-04-12T09:14:09.096Z</time></trkpt><trkpt lat="43.6071238" lon="6.7482451"><ele>192.0</ele><time>2026-04-12T09:14:10.096Z</time></trkpt><trkpt lat="43.607096" lon="6.7483646"><ele>192.0</ele><time>2026-04-12T09:14:11.096Z</time></trkpt><trkpt lat="43.6070692" lon="6.7484783"><ele>192.0</ele><time>2026-04-12T09:14:12.096Z</time></trkpt><trkpt lat="43.6070365" lon="6.7485926"><ele>192.0</ele><time>2026-04-12T09:14:13.096Z</time></trkpt><trkpt lat="43.607003" lon="6.7487063"><ele>191.5</ele><time>2026-04-12T09:14:14.096Z</time></trkpt><trkpt lat="43.6069703" lon="6.7488199"><ele>191.0</ele><time>2026-04-12T09:14:15.096Z</time></trkpt><trkpt lat="43.6069363" lon="6.7489347"><ele>190.5</ele><time>2026-04-12T09:14:16.096Z</time></trkpt><trkpt lat="43.6069022" lon="6.749046"><ele>190.0</ele><time>2026-04-12T09:14:17.097Z</time></trkpt><trkpt lat="43.6068689" lon="6.7491557"><ele>189.5</ele><time>2026-04-12T09:14:18.097Z</time></trkpt><trkpt lat="43.6068354" lon="6.7492678"><ele>189.0</ele><time>2026-04-12T09:14:19.096Z</time></trkpt><trkpt lat="43.6068015" lon="6.7493784"><ele>189.0</ele><time>2026-04-12T09:14:20.097Z</time></trkpt><trkpt lat="43.6067665" lon="6.7494932"><ele>189.0</ele><time>2026-04-12T09:14:21.097Z</time></trkpt><trkpt lat="43.6067331" lon="6.749604"><ele>189.0</ele><time>2026-04-12T09:14:22.098Z</time></trkpt><trkpt lat="43.6066987" lon="6.7497149"><ele>189.0</ele><time>2026-04-12T09:14:23.098Z</time></trkpt><trkpt lat="43.6066635" lon="6.7498258"><ele>189.0</ele><time>2026-04-12T09:14:24.097Z</time></trkpt><trkpt lat="43.6066315" lon="6.7499389"><ele>189.0</ele><time>2026-04-12T09:14:25.097Z</time></trkpt><trkpt lat="43.6066023" lon="6.7500523"><ele>189.0</ele><time>2026-04-12T09:14:26.097Z</time></trkpt><trkpt lat="43.6065771" lon="6.7501659"><ele>189.0</ele><time>2026-04-12T09:14:27.097Z</time></trkpt><trkpt lat="43.6065552" lon="6.7502793"><ele>189.0</ele><time>2026-04-12T09:14:28.098Z</time></trkpt><trkpt lat="43.6065346" lon="6.7503932"><ele>189.0</ele><time>2026-04-12T09:14:29.097Z</time></trkpt><trkpt lat="43.6065136" lon="6.7505063"><ele>189.0</ele><time>2026-04-12T09:14:30.098Z</time></trkpt><trkpt lat="43.6064929" lon="6.7506189"><ele>189.0</ele><time>2026-04-12T09:14:31.098Z</time></trkpt><trkpt lat="43.6064738" lon="6.7507324"><ele>189.0</ele><time>2026-04-12T09:14:32.097Z</time></trkpt><trkpt lat="43.6064539" lon="6.7508449"><ele>189.0</ele><time>2026-04-12T09:14:33.097Z</time></trkpt><trkpt lat="43.6064306" lon="6.7509559"><ele>189.0</ele><time>2026-04-12T09:14:34.097Z</time></trkpt><trkpt lat="43.6064076" lon="6.7510682"><ele>189.0</ele><time>2026-04-12T09:14:35.097Z</time></trkpt><trkpt lat="43.6063876" lon="6.7511747"><ele>189.0</ele><time>2026-04-12T09:14:36.097Z</time></trkpt><trkpt lat="43.6063707" lon="6.7512834"><ele>189.0</ele><time>2026-04-12T09:14:37.097Z</time></trkpt><trkpt lat="43.6063494" lon="6.7513907"><ele>188.66666666666666</ele><time>2026-04-12T09:14:38.097Z</time></trkpt><trkpt lat="43.6063263" lon="6.7515001"><ele>188.33333333333334</ele><time>2026-04-12T09:14:39.097Z</time></trkpt><trkpt lat="43.6063061" lon="6.751606"><ele>188.0</ele><time>2026-04-12T09:14:40.097Z</time></trkpt><trkpt lat="43.6062887" lon="6.7517128"><ele>187.66666666666669</ele><time>2026-04-12T09:14:41.097Z</time></trkpt><trkpt lat="43.6062711" lon="6.7518165"><ele>187.33333333333334</ele><time>2026-04-12T09:14:42.097Z</time></trkpt><trkpt lat="43.6062502" lon="6.7519197"><ele>187.0</ele><time>2026-04-12T09:14:43.097Z</time></trkpt><trkpt lat="43.6062287" lon="6.7520232"><ele>187.0</ele><time>2026-04-12T09:14:44.097Z</time></trkpt><trkpt lat="43.6062081" lon="6.7521263"><ele>187.0</ele><time>2026-04-12T09:14:45.097Z</time></trkpt><trkpt lat="43.6061857" lon="6.7522293"><ele>187.0</ele><time>2026-04-12T09:14:46.097Z</time></trkpt><trkpt lat="43.6061624" lon="6.7523338"><ele>187.0</ele><time>2026-04-12T09:14:47.098Z</time></trkpt><trkpt lat="43.6061403" lon="6.7524379"><ele>187.0</ele><time>2026-04-12T09:14:48.097Z</time></trkpt><trkpt lat="43.6061185" lon="6.7525423"><ele>187.0</ele><time>2026-04-12T09:14:49.097Z</time></trkpt><trkpt lat="43.6060946" lon="6.7526462"><ele>186.66666666666669</ele><time>2026-04-12T09:14:50.097Z</time></trkpt><trkpt lat="43.6060717" lon="6.7527492"><ele>186.33333333333334</ele><time>2026-04-12T09:14:51.097Z</time></trkpt><trkpt lat="43.606052" lon="6.7528512"><ele>186.0</ele><time>2026-04-12T09:14:52.097Z</time></trkpt><trkpt lat="43.6060351" lon="6.7529543"><ele>185.66666666666666</ele><time>2026-04-12T09:14:53.097Z</time></trkpt><trkpt lat="43.6060193" lon="6.7530581"><ele>185.33333333333331</ele><time>2026-04-12T09:14:54.097Z</time></trkpt><trkpt lat="43.6060043" lon="6.7531603"><ele>185.0</ele><time>2026-04-12T09:14:55.097Z</time></trkpt><trkpt lat="43.6059897" lon="6.7532585"><ele>185.0</ele><time>2026-04-12T09:14:56.097Z</time></trkpt><trkpt lat="43.6059783" lon="6.7533631"><ele>185.0</ele><time>2026-04-12T09:14:57.097Z</time></trkpt><trkpt lat="43.6059673" lon="6.7534673"><ele>185.0</ele><time>2026-04-12T09:14:58.098Z</time></trkpt><trkpt lat="43.6059594" lon="6.7535714"><ele>185.0</ele><time>2026-04-12T09:14:59.097Z</time></trkpt><trkpt lat="43.6059532" lon="6.7536759"><ele>185.0</ele><time>2026-04-12T09:15:00.098Z</time></trkpt><trkpt lat="43.605945" lon="6.7537789"><ele>185.0</ele><time>2026-04-12T09:15:01.097Z</time></trkpt><trkpt lat="43.6059351" lon="6.7538816"><ele>184.85714285714283</ele><time>2026-04-12T09:15:02.098Z</time></trkpt><trkpt lat="43.6059208" lon="6.7539795"><ele>184.71428571428572</ele><time>2026-04-12T09:15:03.098Z</time></trkpt><trkpt lat="43.6059033" lon="6.7540761"><ele>184.57142857142856</ele><time>2026-04-12T09:15:04.097Z</time></trkpt><trkpt lat="43.6058869" lon="6.7541701"><ele>184.42857142857142</ele><time>2026-04-12T09:15:05.098Z</time></trkpt><trkpt lat="43.6058705" lon="6.7542627"><ele>184.28571428571428</ele><time>2026-04-12T09:15:06.098Z</time></trkpt><trkpt lat="43.6058564" lon="6.7543522"><ele>184.14285714285714</ele><time>2026-04-12T09:15:07.099Z</time></trkpt><trkpt lat="43.6058422" lon="6.7544406"><ele>184.0</ele><time>2026-04-12T09:15:08.098Z</time></trkpt><trkpt lat="43.6058273" lon="6.7545308"><ele>184.0</ele><time>2026-04-12T09:15:09.098Z</time></trkpt><trkpt lat="43.6058092" lon="6.7546241"><ele>184.0</ele><time>2026-04-12T09:15:10.098Z</time></trkpt><trkpt lat="43.6057904" lon="6.7547139"><ele>184.0</ele><time>2026-04-12T09:15:11.098Z</time></trkpt><trkpt lat="43.6057701" lon="6.7547986"><ele>184.0</ele><time>2026-04-12T09:15:12.098Z</time></trkpt><trkpt lat="43.6057428" lon="6.7548857"><ele>184.0</ele><time>2026-04-12T09:15:13.098Z</time></trkpt><trkpt lat="43.60571" lon="6.7549746"><ele>184.0</ele><time>2026-04-12T09:15:14.098Z</time></trkpt><trkpt lat="43.6056688" lon="6.7550548"><ele>184.0</ele><time>2026-04-12T09:15:15.098Z</time></trkpt><trkpt lat="43.6056218" lon="6.7551329"><ele>183.85714285714286</ele><time>2026-04-12T09:15:16.098Z</time></trkpt><trkpt lat="43.6055757" lon="6.7552099"><ele>183.7142857142857</ele><time>2026-04-12T09:15:17.098Z</time></trkpt><trkpt lat="43.6055511" lon="6.7552959"><ele>183.57142857142856</ele><time>2026-04-12T09:15:18.098Z</time></trkpt><trkpt lat="43.6055649" lon="6.7553877"><ele>183.42857142857144</ele><time>2026-04-12T09:15:19.098Z</time></trkpt><trkpt lat="43.6056044" lon="6.7554701"><ele>183.28571428571428</ele><time>2026-04-12T09:15:20.098Z</time></trkpt><trkpt lat="43.6056543" lon="6.755562"><ele>183.14285714285714</ele><time>2026-04-12T09:15:21.098Z</time></trkpt><trkpt lat="43.6056897" lon="6.7556588"><ele>183.0</ele><time>2026-04-12T09:15:22.098Z</time></trkpt><trkpt lat="43.60569" lon="6.7557627"><ele>183.0</ele><time>2026-04-12T09:15:23.098Z</time></trkpt><trkpt lat="43.6056791" lon="6.7558547"><ele>183.0</ele><time>2026-04-12T09:15:24.098Z</time></trkpt><trkpt lat="43.6056769" lon="6.7559496"><ele>183.0</ele><time>2026-04-12T09:15:25.099Z</time></trkpt><trkpt lat="43.6056818" lon="6.7560475"><ele>183.0</ele><time>2026-04-12T09:15:26.098Z</time></trkpt><trkpt lat="43.605693" lon="6.7561475"><ele>183.0</ele><time>2026-04-12T09:15:27.098Z</time></trkpt><trkpt lat="43.605705" lon="6.7562561"><ele>183.0</ele><time>2026-04-12T09:15:28.098Z</time></trkpt><trkpt lat="43.6057062" lon="6.7563641"><ele>183.0</ele><time>2026-04-12T09:15:29.098Z</time></trkpt><trkpt lat="43.6056989" lon="6.756482"><ele>183.0</ele><time>2026-04-12T09:15:30.098Z</time></trkpt><trkpt lat="43.6056869" lon="6.7566058"><ele>183.0</ele><time>2026-04-12T09:15:31.098Z</time></trkpt><trkpt lat="43.605674" lon="6.7567275"><ele>183.0</ele><time>2026-04-12T09:15:32.098Z</time></trkpt><trkpt lat="43.605659" lon="6.7568502"><ele>183.0</ele><time>2026-04-12T09:15:33.098Z</time></trkpt><trkpt lat="43.6056427" lon="6.756971"><ele>183.0</ele><time>2026-04-12T09:15:34.099Z</time></trkpt><trkpt lat="43.6056248" lon="6.7570874"><ele>183.0</ele><time>2026-04-12T09:15:35.098Z</time></trkpt><trkpt lat="43.605602" lon="6.7572065"><ele>183.0</ele><time>2026-04-12T09:15:36.099Z</time></trkpt><trkpt lat="43.6055782" lon="6.7573284"><ele>183.0</ele><time>2026-04-12T09:15:37.098Z</time></trkpt><trkpt lat="43.6055558" lon="6.7574464"><ele>183.0</ele><time>2026-04-12T09:15:38.099Z</time></trkpt><trkpt lat="43.6055318" lon="6.7575645"><ele>183.0</ele><time>2026-04-12T09:15:39.099Z</time></trkpt><trkpt lat="43.6055097" lon="6.7576818"><ele>183.0</ele><time>2026-04-12T09:15:40.099Z</time></trkpt><trkpt lat="43.605492" lon="6.7577984"><ele>183.0</ele><time>2026-04-12T09:15:41.098Z</time></trkpt><trkpt lat="43.6054787" lon="6.7579169"><ele>182.8</ele><time>2026-04-12T09:15:42.1Z</time></trkpt><trkpt lat="43.6054705" lon="6.7580405"><ele>182.60000000000002</ele><time>2026-04-12T09:15:43.098Z</time></trkpt><trkpt lat="43.6054682" lon="6.7581674"><ele>182.39999999999998</ele><time>2026-04-12T09:15:44.099Z</time></trkpt><trkpt lat="43.6054683" lon="6.7583007"><ele>182.2</ele><time>2026-04-12T09:15:45.098Z</time></trkpt><trkpt lat="43.6054682" lon="6.7584306"><ele>182.0</ele><time>2026-04-12T09:15:46.098Z</time></trkpt><trkpt lat="43.6054713" lon="6.7585647"><ele>182.0</ele><time>2026-04-12T09:15:47.098Z</time></trkpt><trkpt lat="43.605475" lon="6.7586979"><ele>182.0</ele><time>2026-04-12T09:15:48.098Z</time></trkpt><trkpt lat="43.6054784" lon="6.7588282"><ele>182.0</ele><time>2026-04-12T09:15:49.099Z</time></trkpt><trkpt lat="43.6054806" lon="6.7589545"><ele>182.0</ele><time>2026-04-12T09:15:50.099Z</time></trkpt><trkpt lat="43.6054813" lon="6.7590759"><ele>182.0</ele><time>2026-04-12T09:15:51.098Z</time></trkpt><trkpt lat="43.6054844" lon="6.7592066"><ele>182.0</ele><time>2026-04-12T09:15:52.099Z</time></trkpt><trkpt lat="43.6054883" lon="6.7593309"><ele>182.0</ele><time>2026-04-12T09:15:53.099Z</time></trkpt><trkpt lat="43.6054947" lon="6.759455"><ele>182.0</ele><time>2026-04-12T09:15:54.1Z</time></trkpt><trkpt lat="43.605502" lon="6.7595738"><ele>182.0</ele><time>2026-04-12T09:15:55.099Z</time></trkpt><trkpt lat="43.6055143" lon="6.7596894"><ele>182.0</ele><time>2026-04-12T09:15:56.099Z</time></trkpt><trkpt lat="43.6055255" lon="6.7598098"><ele>182.0</ele><time>2026-04-12T09:15:57.099Z</time></trkpt><trkpt lat="43.6055357" lon="6.7599287"><ele>182.0</ele><time>2026-04-12T09:15:58.099Z</time></trkpt><trkpt lat="43.6055453" lon="6.7600473"><ele>182.0</ele><time>2026-04-12T09:15:59.099Z</time></trkpt><trkpt lat="43.6055542" lon="6.7601677"><ele>182.0</ele><time>2026-04-12T09:16:00.099Z</time></trkpt><trkpt lat="43.6055641" lon="6.7602858"><ele>182.0</ele><time>2026-04-12T09:16:01.099Z</time></trkpt><trkpt lat="43.6055761" lon="6.7604074"><ele>182.0</ele><time>2026-04-12T09:16:02.099Z</time></trkpt><trkpt lat="43.6055879" lon="6.760535"><ele>182.0</ele><time>2026-04-12T09:16:03.099Z</time></trkpt><trkpt lat="43.6056" lon="6.7606646"><ele>181.8</ele><time>2026-04-12T09:16:04.099Z</time></trkpt><trkpt lat="43.6056129" lon="6.7607998"><ele>181.6</ele><time>2026-04-12T09:16:05.099Z</time></trkpt><trkpt lat="43.605623" lon="6.7609389"><ele>181.4</ele><time>2026-04-12T09:16:06.099Z</time></trkpt><trkpt lat="43.6056334" lon="6.7610658"><ele>181.20000000000002</ele><time>2026-04-12T09:16:07.099Z</time></trkpt><trkpt lat="43.6056475" lon="6.7611885"><ele>181.0</ele><time>2026-04-12T09:16:08.099Z</time></trkpt><trkpt lat="43.6056622" lon="6.7613111"><ele>181.0</ele><time>2026-04-12T09:16:09.099Z</time></trkpt><trkpt lat="43.6056752" lon="6.7614349"><ele>181.0</ele><time>2026-04-12T09:16:10.099Z</time></trkpt><trkpt lat="43.605687" lon="6.7615565"><ele>181.0</ele><time>2026-04-12T09:16:11.099Z</time></trkpt><trkpt lat="43.6056997" lon="6.7616743"><ele>181.0</ele><time>2026-04-12T09:16:12.099Z</time></trkpt><trkpt lat="43.6057105" lon="6.7617896"><ele>181.0</ele><time>2026-04-12T09:16:13.1Z</time></trkpt><trkpt lat="43.6057153" lon="6.7619044"><ele>181.0</ele><time>2026-04-12T09:16:14.099Z</time></trkpt><trkpt lat="43.6057102" lon="6.7620202"><ele>181.0</ele><time>2026-04-12T09:16:15.1Z</time></trkpt><trkpt lat="43.6056955" lon="6.7621369"><ele>181.0</ele><time>2026-04-12T09:16:16.099Z</time></trkpt><trkpt lat="43.6056879" lon="6.7622569"><ele>181.0</ele><time>2026-04-12T09:16:17.099Z</time></trkpt><trkpt lat="43.6056948" lon="6.7623819"><ele>181.0</ele><time>2026-04-12T09:16:18.099Z</time></trkpt><trkpt lat="43.605703" lon="6.7625048"><ele>181.0</ele><time>2026-04-12T09:16:19.1Z</time></trkpt><trkpt lat="43.6057047" lon="6.7626281"><ele>181.0</ele><time>2026-04-12T09:16:20.099Z</time></trkpt><trkpt lat="43.6057017" lon="6.7627447"><ele>181.0</ele><time>2026-04-12T09:16:21.099Z</time></trkpt><trkpt lat="43.6056977" lon="6.7628676"><ele>181.0</ele><time>2026-04-12T09:16:22.099Z</time></trkpt><trkpt lat="43.6056957" lon="6.7629872"><ele>181.0</ele><time>2026-04-12T09:16:23.1Z</time></trkpt><trkpt lat="43.6056969" lon="6.7631039"><ele>181.0</ele><time>2026-04-12T09:16:24.099Z</time></trkpt><trkpt lat="43.6056971" lon="6.7632184"><ele>181.0</ele><time>2026-04-12T09:16:25.099Z</time></trkpt><trkpt lat="43.6056977" lon="6.7633343"><ele>181.0</ele><time>2026-04-12T09:16:26.1Z</time></trkpt><trkpt lat="43.6056974" lon="6.7634463"><ele>181.0</ele><time>2026-04-12T09:16:27.099Z</time></trkpt><trkpt lat="43.6056974" lon="6.763557"><ele>181.0</ele><time>2026-04-12T09:16:28.099Z</time></trkpt><trkpt lat="43.6056965" lon="6.7636673"><ele>181.0</ele><time>2026-04-12T09:16:29.1Z</time></trkpt><trkpt lat="43.605696" lon="6.7637785"><ele>181.0</ele><time>2026-04-12T09:16:30.099Z</time></trkpt><trkpt lat="43.6056972" lon="6.7638918"><ele>181.0</ele><time>2026-04-12T09:16:31.1Z</time></trkpt><trkpt lat="43.605702" lon="6.7640063"><ele>181.0</ele><time>2026-04-12T09:16:32.1Z</time></trkpt><trkpt lat="43.6057156" lon="6.7642324"><ele>181.0</ele><time>2026-04-12T09:16:34.099Z</time></trkpt><trkpt lat="43.6057229" lon="6.7643462"><ele>181.0</ele><time>2026-04-12T09:16:35.099Z</time></trkpt><trkpt lat="43.6057298" lon="6.7644616"><ele>181.0</ele><time>2026-04-12T09:16:36.099Z</time></trkpt><trkpt lat="43.6057359" lon="6.7645762"><ele>181.0</ele><time>2026-04-12T09:16:37.101Z</time></trkpt><trkpt lat="43.6057412" lon="6.7646907"><ele>181.0</ele><time>2026-04-12T09:16:38.1Z</time></trkpt><trkpt lat="43.6057483" lon="6.7648107"><ele>181.0</ele><time>2026-04-12T09:16:39.1Z</time></trkpt><trkpt lat="43.6057515" lon="6.764921"><ele>181.0</ele><time>2026-04-12T09:16:40.1Z</time></trkpt><trkpt lat="43.6057549" lon="6.7650319"><ele>181.0</ele><time>2026-04-12T09:16:41.1Z</time></trkpt><trkpt lat="43.6057601" lon="6.7651485"><ele>181.0</ele><time>2026-04-12T09:16:42.1Z</time></trkpt><trkpt lat="43.6057625" lon="6.7652614"><ele>181.0</ele><time>2026-04-12T09:16:43.1Z</time></trkpt><trkpt lat="43.6057648" lon="6.7653738"><ele>181.0</ele><time>2026-04-12T09:16:44.1Z</time></trkpt><trkpt lat="43.6057644" lon="6.7654859"><ele>181.0</ele><time>2026-04-12T09:16:45.1Z</time></trkpt><trkpt lat="43.6057628" lon="6.765601"><ele>181.0</ele><time>2026-04-12T09:16:46.1Z</time></trkpt><trkpt lat="43.6057644" lon="6.7658282"><ele>181.0</ele><time>2026-04-12T09:16:48.1Z</time></trkpt><trkpt lat="43.6057664" lon="6.7659432"><ele>181.0</ele><time>2026-04-12T09:16:49.1Z</time></trkpt><trkpt lat="43.6057671" lon="6.7660619"><ele>181.0</ele><time>2026-04-12T09:16:50.1Z</time></trkpt><trkpt lat="43.6057681" lon="6.7661824"><ele>181.0</ele><time>2026-04-12T09:16:51.1Z</time></trkpt><trkpt lat="43.6057672" lon="6.7663031"><ele>180.66666666666669</ele><time>2026-04-12T09:16:52.1Z</time></trkpt><trkpt lat="43.6057655" lon="6.7664251"><ele>180.33333333333334</ele><time>2026-04-12T09:16:53.1Z</time></trkpt><trkpt lat="43.6057627" lon="6.7665482"><ele>180.0</ele><time>2026-04-12T09:16:54.1Z</time></trkpt><trkpt lat="43.6057577" lon="6.7666706"><ele>179.66666666666666</ele><time>2026-04-12T09:16:55.1Z</time></trkpt><trkpt lat="43.6057497" lon="6.7667922"><ele>179.33333333333331</ele><time>2026-04-12T09:16:56.1Z</time></trkpt><trkpt lat="43.6057403" lon="6.7669131"><ele>179.0</ele><time>2026-04-12T09:16:57.1Z</time></trkpt><trkpt lat="43.6057291" lon="6.7670344"><ele>179.0</ele><time>2026-04-12T09:16:58.1Z</time></trkpt><trkpt lat="43.6057155" lon="6.7671533"><ele>179.0</ele><time>2026-04-12T09:16:59.1Z</time></trkpt><trkpt lat="43.6057021" lon="6.7672711"><ele>179.0</ele><time>2026-04-12T09:17:00.1Z</time></trkpt><trkpt lat="43.6056859" lon="6.7673883"><ele>179.0</ele><time>2026-04-12T09:17:01.1Z</time></trkpt><trkpt lat="43.6056671" lon="6.7675044"><ele>179.0</ele><time>2026-04-12T09:17:02.1Z</time></trkpt><trkpt lat="43.6056455" lon="6.7676197"><ele>179.0</ele><time>2026-04-12T09:17:03.1Z</time></trkpt><trkpt lat="43.6056204" lon="6.7677326"><ele>179.33333333333331</ele><time>2026-04-12T09:17:04.101Z</time></trkpt><trkpt lat="43.6055928" lon="6.7678436"><ele>179.66666666666666</ele><time>2026-04-12T09:17:05.1Z</time></trkpt><trkpt lat="43.6055633" lon="6.7679535"><ele>180.0</ele><time>2026-04-12T09:17:06.101Z</time></trkpt><trkpt lat="43.6055331" lon="6.7680631"><ele>180.33333333333334</ele><time>2026-04-12T09:17:07.1Z</time></trkpt><trkpt lat="43.6055021" lon="6.7681716"><ele>180.66666666666669</ele><time>2026-04-12T09:17:08.101Z</time></trkpt><trkpt lat="43.6054691" lon="6.7682779"><ele>181.0</ele><time>2026-04-12T09:17:09.101Z</time></trkpt><trkpt lat="43.6054345" lon="6.7683809"><ele>181.0</ele><time>2026-04-12T09:17:10.1Z</time></trkpt><trkpt lat="43.6054013" lon="6.7684835"><ele>181.0</ele><time>2026-04-12T09:17:11.101Z</time></trkpt><trkpt lat="43.6053682" lon="6.7685878"><ele>181.0</ele><time>2026-04-12T09:17:12.102Z</time></trkpt><trkpt lat="43.605336" lon="6.768692"><ele>181.0</ele><time>2026-04-12T09:17:13.1Z</time></trkpt><trkpt lat="43.6053035" lon="6.7687951"><ele>181.0</ele><time>2026-04-12T09:17:14.1Z</time></trkpt><trkpt lat="43.6052747" lon="6.7689"><ele>181.0</ele><time>2026-04-12T09:17:15.1Z</time></trkpt><trkpt lat="43.605246" lon="6.7690033"><ele>180.33333333333334</ele><time>2026-04-12T09:17:16.101Z</time></trkpt><trkpt lat="43.6052163" lon="6.7691047"><ele>179.66666666666669</ele><time>2026-04-12T09:17:17.101Z</time></trkpt><trkpt lat="43.6051872" lon="6.7692076"><ele>179.0</ele><time>2026-04-12T09:17:18.1Z</time></trkpt><trkpt lat="43.6051602" lon="6.7693089"><ele>178.33333333333334</ele><time>2026-04-12T09:17:19.1Z</time></trkpt><trkpt lat="43.6051347" lon="6.7694076"><ele>177.66666666666666</ele><time>2026-04-12T09:17:20.101Z</time></trkpt><trkpt lat="43.6051036" lon="6.769508"><ele>177.0</ele><time>2026-04-12T09:17:21.101Z</time></trkpt><trkpt lat="43.6050651" lon="6.7696061"><ele>177.0</ele><time>2026-04-12T09:17:22.101Z</time></trkpt><trkpt lat="43.6050226" lon="6.7697031"><ele>177.0</ele><time>2026-04-12T09:17:23.101Z</time></trkpt><trkpt lat="43.6049855" lon="6.7698023"><ele>177.0</ele><time>2026-04-12T09:17:24.101Z</time></trkpt><trkpt lat="43.6049639" lon="6.7699105"><ele>177.0</ele><time>2026-04-12T09:17:25.101Z</time></trkpt><trkpt lat="43.6049622" lon="6.7700292"><ele>177.0</ele><time>2026-04-12T09:17:26.101Z</time></trkpt><trkpt lat="43.6049774" lon="6.770138"><ele>177.0</ele><time>2026-04-12T09:17:27.101Z</time></trkpt><trkpt lat="43.6049716" lon="6.7702388"><ele>177.33333333333334</ele><time>2026-04-12T09:17:28.101Z</time></trkpt><trkpt lat="43.6049328" lon="6.7703375"><ele>177.66666666666666</ele><time>2026-04-12T09:17:29.101Z</time></trkpt><trkpt lat="43.604878" lon="6.7704313"><ele>178.0</ele><time>2026-04-12T09:17:30.101Z</time></trkpt><trkpt lat="43.6048268" lon="6.7705203"><ele>178.33333333333331</ele><time>2026-04-12T09:17:31.101Z</time></trkpt><trkpt lat="43.604777" lon="6.7706118"><ele>178.66666666666666</ele><time>2026-04-12T09:17:32.101Z</time></trkpt><trkpt lat="43.6047299" lon="6.770703"><ele>179.0</ele><time>2026-04-12T09:17:33.101Z</time></trkpt><trkpt lat="43.6046837" lon="6.7707953"><ele>179.0</ele><time>2026-04-12T09:17:34.101Z</time></trkpt><trkpt lat="43.6046346" lon="6.7708871"><ele>179.0</ele><time>2026-04-12T09:17:35.101Z</time></trkpt><trkpt lat="43.6045914" lon="6.7709773"><ele>179.0</ele><time>2026-04-12T09:17:36.101Z</time></trkpt><trkpt lat="43.6045541" lon="6.7710694"><ele>179.0</ele><time>2026-04-12T09:17:37.101Z</time></trkpt><trkpt lat="43.60452" lon="6.7711635"><ele>179.0</ele><time>2026-04-12T09:17:38.101Z</time></trkpt><trkpt lat="43.6044865" lon="6.7712569"><ele>179.0</ele><time>2026-04-12T09:17:39.102Z</time></trkpt><trkpt lat="43.6044535" lon="6.7713511"><ele>179.0</ele><time>2026-04-12T09:17:40.101Z</time></trkpt><trkpt lat="43.6044222" lon="6.7714435"><ele>179.0</ele><time>2026-04-12T09:17:41.101Z</time></trkpt><trkpt lat="43.6043928" lon="6.7715377"><ele>179.0</ele><time>2026-04-12T09:17:42.102Z</time></trkpt><trkpt lat="43.6043624" lon="6.7716313"><ele>179.0</ele><time>2026-04-12T09:17:43.101Z</time></trkpt><trkpt lat="43.604329" lon="6.7717259"><ele>179.0</ele><time>2026-04-12T09:17:44.101Z</time></trkpt><trkpt lat="43.6042968" lon="6.7718129"><ele>179.0</ele><time>2026-04-12T09:17:45.101Z</time></trkpt><trkpt lat="43.6042396" lon="6.7719737"><ele>179.2857142857143</ele><time>2026-04-12T09:17:47.101Z</time></trkpt><trkpt lat="43.6042061" lon="6.7720654"><ele>179.57142857142858</ele><time>2026-04-12T09:17:48.102Z</time></trkpt><trkpt lat="43.6041752" lon="6.7721498"><ele>179.85714285714286</ele><time>2026-04-12T09:17:49.101Z</time></trkpt><trkpt lat="43.6041469" lon="6.7722337"><ele>180.14285714285717</ele><time>2026-04-12T09:17:50.101Z</time></trkpt><trkpt lat="43.6041193" lon="6.7723226"><ele>180.42857142857142</ele><time>2026-04-12T09:17:51.101Z</time></trkpt><trkpt lat="43.60409" lon="6.7724088"><ele>180.71428571428572</ele><time>2026-04-12T09:17:52.101Z</time></trkpt><trkpt lat="43.6040577" lon="6.7724948"><ele>181.0</ele><time>2026-04-12T09:17:53.102Z</time></trkpt><trkpt lat="43.6040255" lon="6.7725816"><ele>181.0</ele><time>2026-04-12T09:17:54.102Z</time></trkpt><trkpt lat="43.6039943" lon="6.7726658"><ele>181.0</ele><time>2026-04-12T09:17:55.101Z</time></trkpt><trkpt lat="43.603965" lon="6.7727497"><ele>181.0</ele><time>2026-04-12T09:17:56.102Z</time></trkpt><trkpt lat="43.6039329" lon="6.7728358"><ele>181.0</ele><time>2026-04-12T09:17:57.101Z</time></trkpt><trkpt lat="43.6039017" lon="6.7729205"><ele>181.0</ele><time>2026-04-12T09:17:58.102Z</time></trkpt><trkpt lat="43.6038734" lon="6.7730022"><ele>181.0</ele><time>2026-04-12T09:17:59.101Z</time></trkpt><trkpt lat="43.6038445" lon="6.7730796"><ele>181.0</ele><time>2026-04-12T09:18:00.101Z</time></trkpt><trkpt lat="43.6038128" lon="6.7731578"><ele>181.14285714285714</ele><time>2026-04-12T09:18:01.102Z</time></trkpt><trkpt lat="43.6037777" lon="6.7732406"><ele>181.28571428571428</ele><time>2026-04-12T09:18:02.102Z</time></trkpt><trkpt lat="43.6037461" lon="6.7733302"><ele>181.42857142857144</ele><time>2026-04-12T09:18:03.101Z</time></trkpt><trkpt lat="43.6037175" lon="6.7734163"><ele>181.57142857142856</ele><time>2026-04-12T09:18:04.102Z</time></trkpt><trkpt lat="43.6036883" lon="6.7735055"><ele>181.71428571428572</ele><time>2026-04-12T09:18:05.102Z</time></trkpt><trkpt lat="43.6036575" lon="6.7735925"><ele>181.85714285714286</ele><time>2026-04-12T09:18:06.101Z</time></trkpt><trkpt lat="43.6036266" lon="6.7736777"><ele>182.0</ele><time>2026-04-12T09:18:07.103Z</time></trkpt><trkpt lat="43.6035978" lon="6.773762"><ele>182.16666666666666</ele><time>2026-04-12T09:18:08.101Z</time></trkpt><trkpt lat="43.6035685" lon="6.7738472"><ele>182.33333333333331</ele><time>2026-04-12T09:18:09.103Z</time></trkpt><trkpt lat="43.6035421" lon="6.7739286"><ele>182.5</ele><time>2026-04-12T09:18:10.102Z</time></trkpt><trkpt lat="43.6034908" lon="6.7740889"><ele>182.66666666666666</ele><time>2026-04-12T09:18:12.102Z</time></trkpt><trkpt lat="43.6034368" lon="6.77424"><ele>182.83333333333334</ele><time>2026-04-12T09:18:14.102Z</time></trkpt><trkpt lat="43.6034078" lon="6.7743195"><ele>183.0</ele><time>2026-04-12T09:18:15.102Z</time></trkpt><trkpt lat="43.6033794" lon="6.7743994"><ele>183.16666666666666</ele><time>2026-04-12T09:18:16.102Z</time></trkpt><trkpt lat="43.6033279" lon="6.774559"><ele>183.33333333333334</ele><time>2026-04-12T09:18:18.102Z</time></trkpt><trkpt lat="43.6032968" lon="6.7746419"><ele>183.5</ele><time>2026-04-12T09:18:19.102Z</time></trkpt><trkpt lat="43.6032649" lon="6.7747232"><ele>183.66666666666669</ele><time>2026-04-12T09:18:20.102Z</time></trkpt><trkpt lat="43.6032332" lon="6.7748067"><ele>183.83333333333334</ele><time>2026-04-12T09:18:21.102Z</time></trkpt><trkpt lat="43.6032035" lon="6.7748887"><ele>184.0</ele><time>2026-04-12T09:18:22.102Z</time></trkpt><trkpt lat="43.6031743" lon="6.7749716"><ele>184.0</ele><time>2026-04-12T09:18:23.102Z</time></trkpt><trkpt lat="43.6031456" lon="6.7750532"><ele>184.0</ele><time>2026-04-12T09:18:24.102Z</time></trkpt><trkpt lat="43.6031169" lon="6.7751347"><ele>184.0</ele><time>2026-04-12T09:18:25.102Z</time></trkpt><trkpt lat="43.6030877" lon="6.7752199"><ele>184.0</ele><time>2026-04-12T09:18:26.102Z</time></trkpt><trkpt lat="43.6030587" lon="6.7753042"><ele>184.0</ele><time>2026-04-12T09:18:27.102Z</time></trkpt><trkpt lat="43.6030282" lon="6.775392"><ele>184.0</ele><time>2026-04-12T09:18:28.102Z</time></trkpt><trkpt lat="43.6030002" lon="6.7754759"><ele>184.0</ele><time>2026-04-12T09:18:29.102Z</time></trkpt><trkpt lat="43.6029441" lon="6.7756363"><ele>183.85714285714286</ele><time>2026-04-12T09:18:31.102Z</time></trkpt><trkpt lat="43.6029134" lon="6.7757203"><ele>183.7142857142857</ele><time>2026-04-12T09:18:32.102Z</time></trkpt><trkpt lat="43.6028817" lon="6.7758067"><ele>183.57142857142856</ele><time>2026-04-12T09:18:33.102Z</time></trkpt><trkpt lat="43.6028492" lon="6.7758948"><ele>183.42857142857144</ele><time>2026-04-12T09:18:34.102Z</time></trkpt><trkpt lat="43.6028137" lon="6.7759892"><ele>183.28571428571428</ele><time>2026-04-12T09:18:35.102Z</time></trkpt><trkpt lat="43.6027794" lon="6.7760799"><ele>183.14285714285714</ele><time>2026-04-12T09:18:36.102Z</time></trkpt><trkpt lat="43.6027474" lon="6.7761721"><ele>183.0</ele><time>2026-04-12T09:18:37.102Z</time></trkpt><trkpt lat="43.6027159" lon="6.7762639"><ele>183.0</ele><time>2026-04-12T09:18:38.104Z</time></trkpt><trkpt lat="43.6026829" lon="6.7763591"><ele>183.0</ele><time>2026-04-12T09:18:39.103Z</time></trkpt><trkpt lat="43.6026503" lon="6.7764551"><ele>183.0</ele><time>2026-04-12T09:18:40.102Z</time></trkpt><trkpt lat="43.6026186" lon="6.7765511"><ele>183.0</ele><time>2026-04-12T09:18:41.103Z</time></trkpt><trkpt lat="43.6025858" lon="6.7766504"><ele>183.0</ele><time>2026-04-12T09:18:42.102Z</time></trkpt><trkpt lat="43.6025521" lon="6.7767516"><ele>183.0</ele><time>2026-04-12T09:18:43.104Z</time></trkpt><trkpt lat="43.6025182" lon="6.7768517"><ele>183.0</ele><time>2026-04-12T09:18:44.103Z</time></trkpt><trkpt lat="43.6024807" lon="6.7769513"><ele>183.0</ele><time>2026-04-12T09:18:45.103Z</time></trkpt><trkpt lat="43.6024424" lon="6.7770552"><ele>183.0</ele><time>2026-04-12T09:18:46.104Z</time></trkpt><trkpt lat="43.6024036" lon="6.7771588"><ele>183.0</ele><time>2026-04-12T09:18:47.103Z</time></trkpt><trkpt lat="43.6023662" lon="6.7772614"><ele>183.0</ele><time>2026-04-12T09:18:48.102Z</time></trkpt><trkpt lat="43.6023285" lon="6.7773656"><ele>183.0</ele><time>2026-04-12T09:18:49.103Z</time></trkpt><trkpt lat="43.6022911" lon="6.7774712"><ele>183.0</ele><time>2026-04-12T09:18:50.103Z</time></trkpt><trkpt lat="43.6022536" lon="6.7775761"><ele>183.0</ele><time>2026-04-12T09:18:51.103Z</time></trkpt><trkpt lat="43.602215" lon="6.7776802"><ele>183.0</ele><time>2026-04-12T09:18:52.103Z</time></trkpt><trkpt lat="43.6021761" lon="6.7777832"><ele>183.0</ele><time>2026-04-12T09:18:53.102Z</time></trkpt><trkpt lat="43.6021379" lon="6.7778888"><ele>183.0</ele><time>2026-04-12T09:18:54.103Z</time></trkpt><trkpt lat="43.6021033" lon="6.7779894"><ele>183.0</ele><time>2026-04-12T09:18:55.103Z</time></trkpt><trkpt lat="43.6020709" lon="6.7780882"><ele>182.83333333333334</ele><time>2026-04-12T09:18:56.103Z</time></trkpt><trkpt lat="43.6020344" lon="6.7781819"><ele>182.66666666666666</ele><time>2026-04-12T09:18:57.103Z</time></trkpt><trkpt lat="43.6019882" lon="6.7782617"><ele>182.5</ele><time>2026-04-12T09:18:58.103Z</time></trkpt><trkpt lat="43.6019231" lon="6.7783238"><ele>182.33333333333331</ele><time>2026-04-12T09:18:59.103Z</time></trkpt><trkpt lat="43.6018465" lon="6.7783706"><ele>182.16666666666666</ele><time>2026-04-12T09:19:00.104Z</time></trkpt><trkpt lat="43.6017863" lon="6.7784348"><ele>182.0</ele><time>2026-04-12T09:19:01.103Z</time></trkpt><trkpt lat="43.6017519" lon="6.7785322"><ele>182.5</ele><time>2026-04-12T09:19:02.103Z</time></trkpt><trkpt lat="43.6017472" lon="6.7786446"><ele>183.0</ele><time>2026-04-12T09:19:03.103Z</time></trkpt><trkpt lat="43.6017618" lon="6.7787652"><ele>183.5</ele><time>2026-04-12T09:19:04.103Z</time></trkpt><trkpt lat="43.6017732" lon="6.7788644"><ele>184.0</ele><time>2026-04-12T09:19:05.103Z</time></trkpt><trkpt lat="43.6017576" lon="6.7789691"><ele>184.5</ele><time>2026-04-12T09:19:06.103Z</time></trkpt><trkpt lat="43.6017276" lon="6.7790626"><ele>185.0</ele><time>2026-04-12T09:19:07.103Z</time></trkpt><trkpt lat="43.6016924" lon="6.7791599"><ele>185.0</ele><time>2026-04-12T09:19:08.103Z</time></trkpt><trkpt lat="43.6016591" lon="6.7792551"><ele>185.0</ele><time>2026-04-12T09:19:09.103Z</time></trkpt><trkpt lat="43.6016295" lon="6.7793508"><ele>185.0</ele><time>2026-04-12T09:19:10.103Z</time></trkpt><trkpt lat="43.6016002" lon="6.7794459"><ele>185.0</ele><time>2026-04-12T09:19:11.103Z</time></trkpt><trkpt lat="43.601566" lon="6.7795332"><ele>185.0</ele><time>2026-04-12T09:19:12.103Z</time></trkpt><trkpt lat="43.6014988" lon="6.7796914"><ele>185.0</ele><time>2026-04-12T09:19:14.103Z</time></trkpt><trkpt lat="43.6014676" lon="6.7797773"><ele>185.42857142857142</ele><time>2026-04-12T09:19:15.103Z</time></trkpt><trkpt lat="43.6014348" lon="6.7798632"><ele>185.85714285714286</ele><time>2026-04-12T09:19:16.103Z</time></trkpt><trkpt lat="43.601402" lon="6.7799482"><ele>186.28571428571428</ele><time>2026-04-12T09:19:17.103Z</time></trkpt><trkpt lat="43.6013693" lon="6.7800339"><ele>186.71428571428572</ele><time>2026-04-12T09:19:18.103Z</time></trkpt><trkpt lat="43.6013367" lon="6.7801192"><ele>187.14285714285714</ele><time>2026-04-12T09:19:19.103Z</time></trkpt><trkpt lat="43.6013036" lon="6.7802037"><ele>187.57142857142856</ele><time>2026-04-12T09:19:20.103Z</time></trkpt><trkpt lat="43.6012721" lon="6.7802887"><ele>188.0</ele><time>2026-04-12T09:19:21.103Z</time></trkpt><trkpt lat="43.6012391" lon="6.7803713"><ele>188.14285714285714</ele><time>2026-04-12T09:19:22.103Z</time></trkpt><trkpt lat="43.6012075" lon="6.7804554"><ele>188.28571428571428</ele><time>2026-04-12T09:19:23.103Z</time></trkpt><trkpt lat="43.6011773" lon="6.7805404"><ele>188.42857142857144</ele><time>2026-04-12T09:19:24.105Z</time></trkpt><trkpt lat="43.6011476" lon="6.7806256"><ele>188.57142857142856</ele><time>2026-04-12T09:19:25.103Z</time></trkpt><trkpt lat="43.6011179" lon="6.7807091"><ele>188.71428571428572</ele><time>2026-04-12T09:19:26.103Z</time></trkpt><trkpt lat="43.6010868" lon="6.7807914"><ele>188.85714285714286</ele><time>2026-04-12T09:19:27.103Z</time></trkpt><trkpt lat="43.6010549" lon="6.7808739"><ele>189.0</ele><time>2026-04-12T09:19:28.103Z</time></trkpt><trkpt lat="43.6010218" lon="6.7809558"><ele>189.28571428571428</ele><time>2026-04-12T09:19:29.104Z</time></trkpt><trkpt lat="43.6009879" lon="6.7810382"><ele>189.57142857142856</ele><time>2026-04-12T09:19:30.103Z</time></trkpt><trkpt lat="43.6009569" lon="6.7811218"><ele>189.85714285714286</ele><time>2026-04-12T09:19:31.103Z</time></trkpt><trkpt lat="43.6009235" lon="6.7812063"><ele>190.14285714285714</ele><time>2026-04-12T09:19:32.104Z</time></trkpt><trkpt lat="43.6008903" lon="6.781295"><ele>190.42857142857142</ele><time>2026-04-12T09:19:33.104Z</time></trkpt><trkpt lat="43.6008579" lon="6.7813835"><ele>190.71428571428572</ele><time>2026-04-12T09:19:34.103Z</time></trkpt><trkpt lat="43.6008257" lon="6.7814636"><ele>191.0</ele><time>2026-04-12T09:19:35.103Z</time></trkpt><trkpt lat="43.6007933" lon="6.7815457"><ele>191.0</ele><time>2026-04-12T09:19:36.104Z</time></trkpt><trkpt lat="43.6007603" lon="6.7816292"><ele>191.0</ele><time>2026-04-12T09:19:37.104Z</time></trkpt><trkpt lat="43.6007306" lon="6.7817108"><ele>191.0</ele><time>2026-04-12T09:19:38.104Z</time></trkpt><trkpt lat="43.6007" lon="6.7817874"><ele>191.0</ele><time>2026-04-12T09:19:39.105Z</time></trkpt><trkpt lat="43.6006421" lon="6.7819389"><ele>191.0</ele><time>2026-04-12T09:19:41.104Z</time></trkpt><trkpt lat="43.6005847" lon="6.7820919"><ele>191.0</ele><time>2026-04-12T09:19:43.105Z</time></trkpt><trkpt lat="43.6005261" lon="6.7822449"><ele>191.16666666666666</ele><time>2026-04-12T09:19:45.104Z</time></trkpt><trkpt lat="43.6004972" lon="6.7823224"><ele>191.33333333333331</ele><time>2026-04-12T09:19:46.105Z</time></trkpt><trkpt lat="43.6004692" lon="6.7824007"><ele>191.5</ele><time>2026-04-12T09:19:47.104Z</time></trkpt><trkpt lat="43.6004392" lon="6.7824781"><ele>191.66666666666666</ele><time>2026-04-12T09:19:48.104Z</time></trkpt><trkpt lat="43.6003813" lon="6.7826313"><ele>191.83333333333334</ele><time>2026-04-12T09:19:50.104Z</time></trkpt><trkpt lat="43.6003248" lon="6.7827831"><ele>192.0</ele><time>2026-04-12T09:19:52.104Z</time></trkpt><trkpt lat="43.6002677" lon="6.782934"><ele>192.25</ele><time>2026-04-12T09:19:54.104Z</time></trkpt><trkpt lat="43.6002128" lon="6.7830821"><ele>192.5</ele><time>2026-04-12T09:19:56.104Z</time></trkpt><trkpt lat="43.600158" lon="6.7832287"><ele>192.75</ele><time>2026-04-12T09:19:58.104Z</time></trkpt><trkpt lat="43.6001051" lon="6.7833707"><ele>193.0</ele><time>2026-04-12T09:20:00.104Z</time></trkpt><trkpt lat="43.6000516" lon="6.7835064"><ele>193.75</ele><time>2026-04-12T09:20:02.104Z</time></trkpt><trkpt lat="43.6000026" lon="6.7836412"><ele>194.5</ele><time>2026-04-12T09:20:04.104Z</time></trkpt><trkpt lat="43.599956" lon="6.7837848"><ele>195.25</ele><time>2026-04-12T09:20:06.104Z</time></trkpt><trkpt lat="43.5999045" lon="6.7839252"><ele>196.0</ele><time>2026-04-12T09:20:08.105Z</time></trkpt><trkpt lat="43.5998496" lon="6.7840637"><ele>196.0</ele><time>2026-04-12T09:20:10.104Z</time></trkpt><trkpt lat="43.5998014" lon="6.7841959"><ele>196.0</ele><time>2026-04-12T09:20:12.104Z</time></trkpt><trkpt lat="43.5997533" lon="6.7843173"><ele>196.0</ele><time>2026-04-12T09:20:14.104Z</time></trkpt><trkpt lat="43.5997105" lon="6.7844289"><ele>196.0</ele><time>2026-04-12T09:20:16.106Z</time></trkpt><trkpt lat="43.5996712" lon="6.7845339"><ele>196.0</ele><time>2026-04-12T09:20:18.104Z</time></trkpt><trkpt lat="43.5996341" lon="6.7846312"><ele>196.14285714285714</ele><time>2026-04-12T09:20:20.104Z</time></trkpt><trkpt lat="43.5995963" lon="6.7847226"><ele>196.28571428571428</ele><time>2026-04-12T09:20:22.104Z</time></trkpt><trkpt lat="43.5995603" lon="6.7848109"><ele>196.42857142857144</ele><time>2026-04-12T09:20:24.104Z</time></trkpt><trkpt lat="43.5995249" lon="6.7848977"><ele>196.57142857142856</ele><time>2026-04-12T09:20:26.105Z</time></trkpt><trkpt lat="43.5994899" lon="6.784978"><ele>196.71428571428572</ele><time>2026-04-12T09:20:28.105Z</time></trkpt><trkpt lat="43.5994633" lon="6.7850598"><ele>196.85714285714286</ele><time>2026-04-12T09:20:30.106Z</time></trkpt><trkpt lat="43.5994334" lon="6.7851367"><ele>197.0</ele><time>2026-04-12T09:20:32.105Z</time></trkpt><trkpt lat="43.5993928" lon="6.7852098"><ele>197.50000000000003</ele><time>2026-04-12T09:20:34.105Z</time></trkpt><trkpt lat="43.5993585" lon="6.7852893"><ele>198.0</ele><time>2026-04-12T09:20:36.106Z</time></trkpt><trkpt lat="43.5993195" lon="6.7853702"><ele>198.5</ele><time>2026-04-12T09:20:38.105Z</time></trkpt><trkpt lat="43.5992772" lon="6.7854554"><ele>199.0</ele><time>2026-04-12T09:20:40.105Z</time></trkpt><trkpt lat="43.5992252" lon="6.7855401"><ele>199.50000000000003</ele><time>2026-04-12T09:20:42.105Z</time></trkpt><trkpt lat="43.5991489" lon="6.7855959"><ele>200.0</ele><time>2026-04-12T09:20:44.105Z</time></trkpt><trkpt lat="43.5990563" lon="6.785631"><ele>200.0</ele><time>2026-04-12T09:20:46.105Z</time></trkpt><trkpt lat="43.5989709" lon="6.7857006"><ele>200.0</ele><time>2026-04-12T09:20:48.105Z</time></trkpt><trkpt lat="43.5989029" lon="6.7858018"><ele>200.0</ele><time>2026-04-12T09:20:50.105Z</time></trkpt><trkpt lat="43.598833" lon="6.7858931"><ele>200.0</ele><time>2026-04-12T09:20:52.105Z</time></trkpt><trkpt lat="43.5987361" lon="6.7859371"><ele>200.0</ele><time>2026-04-12T09:20:54.105Z</time></trkpt><trkpt lat="43.5986274" lon="6.7859507"><ele>200.00000000000003</ele><time>2026-04-12T09:20:56.106Z</time></trkpt><trkpt lat="43.5985114" lon="6.7859527"><ele>200.0</ele><time>2026-04-12T09:20:58.106Z</time></trkpt><trkpt lat="43.598389" lon="6.7859513"><ele>200.0</ele><time>2026-04-12T09:21:00.106Z</time></trkpt><trkpt lat="43.5983247" lon="6.7859614"><ele>200.0</ele><time>2026-04-12T09:21:01.106Z</time></trkpt><trkpt lat="43.5982589" lon="6.7859756"><ele>200.00000000000003</ele><time>2026-04-12T09:21:02.105Z</time></trkpt><trkpt lat="43.598191" lon="6.7859908"><ele>200.0</ele><time>2026-04-12T09:21:03.106Z</time></trkpt><trkpt lat="43.5981227" lon="6.7860116"><ele>201.00000000000003</ele><time>2026-04-12T09:21:04.106Z</time></trkpt><trkpt lat="43.5980538" lon="6.7860351"><ele>202.0</ele><time>2026-04-12T09:21:05.106Z</time></trkpt><trkpt lat="43.597985" lon="6.7860624"><ele>203.0</ele><time>2026-04-12T09:21:06.107Z</time></trkpt><trkpt lat="43.5979167" lon="6.7860942"><ele>204.0</ele><time>2026-04-12T09:21:07.106Z</time></trkpt><trkpt lat="43.5978511" lon="6.7861301"><ele>205.0</ele><time>2026-04-12T09:21:08.106Z</time></trkpt><trkpt lat="43.5977879" lon="6.7861693"><ele>206.00000000000003</ele><time>2026-04-12T09:21:09.107Z</time></trkpt><trkpt lat="43.5977267" lon="6.7862119"><ele>207.0</ele><time>2026-04-12T09:21:10.106Z</time></trkpt><trkpt lat="43.5976672" lon="6.7862575"><ele>207.0</ele><time>2026-04-12T09:21:11.106Z</time></trkpt><trkpt lat="43.5976101" lon="6.7863066"><ele>207.0</ele><time>2026-04-12T09:21:12.106Z</time></trkpt><trkpt lat="43.5975553" lon="6.7863569"><ele>207.0</ele><time>2026-04-12T09:21:13.106Z</time></trkpt><trkpt lat="43.5975048" lon="6.7864096"><ele>207.0</ele><time>2026-04-12T09:21:14.106Z</time></trkpt><trkpt lat="43.5974077" lon="6.7865164"><ele>207.0</ele><time>2026-04-12T09:21:16.106Z</time></trkpt><trkpt lat="43.5973086" lon="6.7866199"><ele>207.0</ele><time>2026-04-12T09:21:18.106Z</time></trkpt><trkpt lat="43.597212" lon="6.7867254"><ele>207.0</ele><time>2026-04-12T09:21:20.106Z</time></trkpt><trkpt lat="43.5971173" lon="6.7868323"><ele>207.0</ele><time>2026-04-12T09:21:22.106Z</time></trkpt><trkpt lat="43.5970227" lon="6.786942"><ele>207.0</ele><time>2026-04-12T09:21:24.107Z</time></trkpt><trkpt lat="43.5969738" lon="6.7869991"><ele>207.0</ele><time>2026-04-12T09:21:25.106Z</time></trkpt><trkpt lat="43.5968812" lon="6.787107"><ele>207.0</ele><time>2026-04-12T09:21:27.106Z</time></trkpt><trkpt lat="43.5967893" lon="6.7872213"><ele>207.25</ele><time>2026-04-12T09:21:29.106Z</time></trkpt><trkpt lat="43.5966958" lon="6.7873309"><ele>207.5</ele><time>2026-04-12T09:21:31.106Z</time></trkpt><trkpt lat="43.5966045" lon="6.78744"><ele>207.75</ele><time>2026-04-12T09:21:33.106Z</time></trkpt><trkpt lat="43.5965156" lon="6.7875519"><ele>208.0</ele><time>2026-04-12T09:21:35.106Z</time></trkpt><trkpt lat="43.5964233" lon="6.7876559"><ele>208.60000000000002</ele><time>2026-04-12T09:21:37.106Z</time></trkpt><trkpt lat="43.5963321" lon="6.7877601"><ele>209.20000000000002</ele><time>2026-04-12T09:21:39.106Z</time></trkpt><trkpt lat="43.5962307" lon="6.7878578"><ele>209.8</ele><time>2026-04-12T09:21:41.106Z</time></trkpt><trkpt lat="43.5961245" lon="6.7879454"><ele>210.4</ele><time>2026-04-12T09:21:43.107Z</time></trkpt><trkpt lat="43.5960694" lon="6.7879912"><ele>211.0</ele><time>2026-04-12T09:21:44.107Z</time></trkpt><trkpt lat="43.5960162" lon="6.788039"><ele>211.0</ele><time>2026-04-12T09:21:45.107Z</time></trkpt><trkpt lat="43.595965" lon="6.7880914"><ele>211.0</ele><time>2026-04-12T09:21:46.106Z</time></trkpt><trkpt lat="43.5959164" lon="6.78815"><ele>211.0</ele><time>2026-04-12T09:21:47.108Z</time></trkpt><trkpt lat="43.5958762" lon="6.7882176"><ele>211.0</ele><time>2026-04-12T09:21:48.106Z</time></trkpt><trkpt lat="43.5958444" lon="6.7882944"><ele>211.0</ele><time>2026-04-12T09:21:49.107Z</time></trkpt><trkpt lat="43.5958093" lon="6.788458"><ele>211.0</ele><time>2026-04-12T09:21:51.106Z</time></trkpt><trkpt lat="43.595794" lon="6.7885451"><ele>211.0</ele><time>2026-04-12T09:21:52.107Z</time></trkpt><trkpt lat="43.5957282" lon="6.7887021"><ele>211.16666666666666</ele><time>2026-04-12T09:21:54.107Z</time></trkpt><trkpt lat="43.595681" lon="6.7887764"><ele>211.33333333333331</ele><time>2026-04-12T09:21:55.108Z</time></trkpt><trkpt lat="43.5956141" lon="6.7888303"><ele>211.5</ele><time>2026-04-12T09:21:56.107Z</time></trkpt><trkpt lat="43.5955477" lon="6.788854"><ele>211.66666666666669</ele><time>2026-04-12T09:21:57.107Z</time></trkpt><trkpt lat="43.5954707" lon="6.7888698"><ele>211.83333333333334</ele><time>2026-04-12T09:21:58.107Z</time></trkpt><trkpt lat="43.5953915" lon="6.7888756"><ele>212.0</ele><time>2026-04-12T09:21:59.107Z</time></trkpt><trkpt lat="43.5953039" lon="6.7888938"><ele>210.2</ele><time>2026-04-12T09:22:00.107Z</time></trkpt><trkpt lat="43.5952186" lon="6.7889224"><ele>208.39999999999998</ele><time>2026-04-12T09:22:01.107Z</time></trkpt><trkpt lat="43.5951315" lon="6.7889611"><ele>206.60000000000002</ele><time>2026-04-12T09:22:02.107Z</time></trkpt><trkpt lat="43.5950335" lon="6.7889985"><ele>204.8</ele><time>2026-04-12T09:22:03.108Z</time></trkpt><trkpt lat="43.5949302" lon="6.7890288"><ele>203.0</ele><time>2026-04-12T09:22:04.107Z</time></trkpt><trkpt lat="43.5948359" lon="6.7890651"><ele>203.0</ele><time>2026-04-12T09:22:05.107Z</time></trkpt><trkpt lat="43.5947344" lon="6.7891033"><ele>203.0</ele><time>2026-04-12T09:22:06.107Z</time></trkpt><trkpt lat="43.5946113" lon="6.7891447"><ele>203.0</ele><time>2026-04-12T09:22:07.107Z</time></trkpt><trkpt lat="43.5945041" lon="6.7891876"><ele>203.0</ele><time>2026-04-12T09:22:08.107Z</time></trkpt><trkpt lat="43.5944019" lon="6.7892334"><ele>202.60000000000002</ele><time>2026-04-12T09:22:09.108Z</time></trkpt><trkpt lat="43.5942954" lon="6.7892783"><ele>202.20000000000002</ele><time>2026-04-12T09:22:10.108Z</time></trkpt><trkpt lat="43.5941889" lon="6.7893325"><ele>201.8</ele><time>2026-04-12T09:22:11.107Z</time></trkpt><trkpt lat="43.5940815" lon="6.7893952"><ele>201.4</ele><time>2026-04-12T09:22:12.107Z</time></trkpt><trkpt lat="43.5939841" lon="6.789459"><ele>201.0</ele><time>2026-04-12T09:22:13.107Z</time></trkpt><trkpt lat="43.5938762" lon="6.7895077"><ele>198.75</ele><time>2026-04-12T09:22:14.107Z</time></trkpt><trkpt lat="43.5937649" lon="6.7895496"><ele>196.5</ele><time>2026-04-12T09:22:15.107Z</time></trkpt><trkpt lat="43.5936498" lon="6.7895636"><ele>194.25</ele><time>2026-04-12T09:22:16.107Z</time></trkpt><trkpt lat="43.5935227" lon="6.7895747"><ele>192.0</ele><time>2026-04-12T09:22:17.107Z</time></trkpt><trkpt lat="43.593398" lon="6.7895645"><ele>191.25</ele><time>2026-04-12T09:22:18.108Z</time></trkpt><trkpt lat="43.5932771" lon="6.7895629"><ele>190.5</ele><time>2026-04-12T09:22:19.107Z</time></trkpt><trkpt lat="43.5931574" lon="6.7895621"><ele>189.75</ele><time>2026-04-12T09:22:20.107Z</time></trkpt><trkpt lat="43.593035" lon="6.7895615"><ele>189.0</ele><time>2026-04-12T09:22:21.107Z</time></trkpt><trkpt lat="43.5929148" lon="6.7895669"><ele>187.75</ele><time>2026-04-12T09:22:22.107Z</time></trkpt><trkpt lat="43.5927949" lon="6.7895697"><ele>186.5</ele><time>2026-04-12T09:22:23.107Z</time></trkpt><trkpt lat="43.5926732" lon="6.7895502"><ele>185.25</ele><time>2026-04-12T09:22:24.107Z</time></trkpt><trkpt lat="43.5925553" lon="6.7895034"><ele>184.0</ele><time>2026-04-12T09:22:25.108Z</time></trkpt><trkpt lat="43.5924379" lon="6.7894469"><ele>184.0</ele><time>2026-04-12T09:22:26.107Z</time></trkpt><trkpt lat="43.5923274" lon="6.7893599"><ele>184.0</ele><time>2026-04-12T09:22:27.108Z</time></trkpt><trkpt lat="43.5922174" lon="6.7892796"><ele>184.0</ele><time>2026-04-12T09:22:28.108Z</time></trkpt><trkpt lat="43.5921047" lon="6.7892062"><ele>184.0</ele><time>2026-04-12T09:22:29.107Z</time></trkpt><trkpt lat="43.5919819" lon="6.7891672"><ele>184.75</ele><time>2026-04-12T09:22:30.108Z</time></trkpt><trkpt lat="43.5918546" lon="6.7891495"><ele>185.5</ele><time>2026-04-12T09:22:31.107Z</time></trkpt><trkpt lat="43.5917283" lon="6.7891431"><ele>186.25</ele><time>2026-04-12T09:22:32.108Z</time></trkpt><trkpt lat="43.5915979" lon="6.7891439"><ele>187.0</ele><time>2026-04-12T09:22:33.108Z</time></trkpt><trkpt lat="43.5914718" lon="6.7891715"><ele>187.0</ele><time>2026-04-12T09:22:34.107Z</time></trkpt><trkpt lat="43.5913522" lon="6.7892143"><ele>187.0</ele><time>2026-04-12T09:22:35.108Z</time></trkpt><trkpt lat="43.5912317" lon="6.7892704"><ele>187.0</ele><time>2026-04-12T09:22:36.108Z</time></trkpt><trkpt lat="43.5911134" lon="6.7893288"><ele>187.0</ele><time>2026-04-12T09:22:37.107Z</time></trkpt><trkpt lat="43.5909895" lon="6.7893863"><ele>185.5</ele><time>2026-04-12T09:22:38.107Z</time></trkpt><trkpt lat="43.590863" lon="6.7894349"><ele>184.0</ele><time>2026-04-12T09:22:39.108Z</time></trkpt><trkpt lat="43.5907333" lon="6.7894695"><ele>182.5</ele><time>2026-04-12T09:22:40.108Z</time></trkpt><trkpt lat="43.5905999" lon="6.789488"><ele>181.0</ele><time>2026-04-12T09:22:41.108Z</time></trkpt><trkpt lat="43.5904662" lon="6.7894908"><ele>180.0</ele><time>2026-04-12T09:22:42.108Z</time></trkpt><trkpt lat="43.5903348" lon="6.7894851"><ele>179.0</ele><time>2026-04-12T09:22:43.109Z</time></trkpt><trkpt lat="43.5902033" lon="6.7894805"><ele>178.0</ele><time>2026-04-12T09:22:44.108Z</time></trkpt><trkpt lat="43.5900723" lon="6.7894913"><ele>177.0</ele><time>2026-04-12T09:22:45.108Z</time></trkpt><trkpt lat="43.5899426" lon="6.7895186"><ele>177.0</ele><time>2026-04-12T09:22:46.108Z</time></trkpt><trkpt lat="43.5898135" lon="6.7895584"><ele>177.0</ele><time>2026-04-12T09:22:47.108Z</time></trkpt><trkpt lat="43.5896867" lon="6.7896105"><ele>177.0</ele><time>2026-04-12T09:22:48.108Z</time></trkpt><trkpt lat="43.5895646" lon="6.7896775"><ele>177.0</ele><time>2026-04-12T09:22:49.108Z</time></trkpt><trkpt lat="43.5894444" lon="6.7897567"><ele>174.75</ele><time>2026-04-12T09:22:50.108Z</time></trkpt><trkpt lat="43.5893278" lon="6.7898454"><ele>172.5</ele><time>2026-04-12T09:22:51.108Z</time></trkpt><trkpt lat="43.5892144" lon="6.7899386"><ele>170.25</ele><time>2026-04-12T09:22:52.108Z</time></trkpt><trkpt lat="43.5891069" lon="6.7900395"><ele>168.0</ele><time>2026-04-12T09:22:53.108Z</time></trkpt><trkpt lat="43.5890037" lon="6.7901421"><ele>169.0</ele><time>2026-04-12T09:22:54.108Z</time></trkpt><trkpt lat="43.5889048" lon="6.7902421"><ele>170.0</ele><time>2026-04-12T09:22:55.108Z</time></trkpt><trkpt lat="43.5888089" lon="6.7903334"><ele>171.0</ele><time>2026-04-12T09:22:56.108Z</time></trkpt><trkpt lat="43.5887143" lon="6.7904105"><ele>172.0</ele><time>2026-04-12T09:22:57.108Z</time></trkpt><trkpt lat="43.5886194" lon="6.7904681"><ele>172.0</ele><time>2026-04-12T09:22:58.109Z</time></trkpt><trkpt lat="43.5885276" lon="6.7905072"><ele>172.0</ele><time>2026-04-12T09:22:59.108Z</time></trkpt><trkpt lat="43.5884389" lon="6.7905301"><ele>172.0</ele><time>2026-04-12T09:23:00.108Z</time></trkpt><trkpt lat="43.5883553" lon="6.7905442"><ele>172.0</ele><time>2026-04-12T09:23:01.108Z</time></trkpt><trkpt lat="43.5882761" lon="6.7905574"><ele>172.0</ele><time>2026-04-12T09:23:02.108Z</time></trkpt><trkpt lat="43.588206" lon="6.7905687"><ele>172.0</ele><time>2026-04-12T09:23:03.108Z</time></trkpt><trkpt lat="43.5881438" lon="6.7905929"><ele>172.00000000000003</ele><time>2026-04-12T09:23:04.108Z</time></trkpt><trkpt lat="43.5880836" lon="6.7906333"><ele>172.0</ele><time>2026-04-12T09:23:05.108Z</time></trkpt><trkpt lat="43.5880242" lon="6.7906813"><ele>172.0</ele><time>2026-04-12T09:23:06.108Z</time></trkpt><trkpt lat="43.587971" lon="6.7907458"><ele>172.0</ele><time>2026-04-12T09:23:07.108Z</time></trkpt><trkpt lat="43.5879241" lon="6.7908238"><ele>172.0</ele><time>2026-04-12T09:23:08.108Z</time></trkpt><trkpt lat="43.5878902" lon="6.7909083"><ele>172.00000000000003</ele><time>2026-04-12T09:23:09.108Z</time></trkpt><trkpt lat="43.5878641" lon="6.7909916"><ele>172.0</ele><time>2026-04-12T09:23:10.108Z</time></trkpt><trkpt lat="43.587843" lon="6.7911558"><ele>173.16666666666669</ele><time>2026-04-12T09:23:12.108Z</time></trkpt><trkpt lat="43.5878456" lon="6.7912427"><ele>174.33333333333334</ele><time>2026-04-12T09:23:13.109Z</time></trkpt><trkpt lat="43.5878556" lon="6.7913329"><ele>175.5</ele><time>2026-04-12T09:23:14.108Z</time></trkpt><trkpt lat="43.5878706" lon="6.7914232"><ele>176.66666666666666</ele><time>2026-04-12T09:23:15.108Z</time></trkpt><trkpt lat="43.5878992" lon="6.7915874"><ele>177.83333333333331</ele><time>2026-04-12T09:23:17.108Z</time></trkpt><trkpt lat="43.5879248" lon="6.7917411"><ele>179.0</ele><time>2026-04-12T09:23:19.11Z</time></trkpt><trkpt lat="43.5879223" lon="6.7918935"><ele>179.39999999999998</ele><time>2026-04-12T09:23:21.109Z</time></trkpt><trkpt lat="43.5878919" lon="6.7920375"><ele>179.8</ele><time>2026-04-12T09:23:23.109Z</time></trkpt><trkpt lat="43.587844" lon="6.7921674"><ele>180.2</ele><time>2026-04-12T09:23:25.108Z</time></trkpt><trkpt lat="43.5877814" lon="6.7922697"><ele>180.60000000000002</ele><time>2026-04-12T09:23:27.109Z</time></trkpt><trkpt lat="43.5876958" lon="6.792338"><ele>181.0</ele><time>2026-04-12T09:23:29.109Z</time></trkpt><trkpt lat="43.5876065" lon="6.7923816"><ele>181.0</ele><time>2026-04-12T09:23:31.109Z</time></trkpt><trkpt lat="43.5875119" lon="6.7923929"><ele>181.0</ele><time>2026-04-12T09:23:33.109Z</time></trkpt><trkpt lat="43.5874196" lon="6.7923838"><ele>181.0</ele><time>2026-04-12T09:23:35.11Z</time></trkpt><trkpt lat="43.587331" lon="6.7923681"><ele>181.0</ele><time>2026-04-12T09:23:37.109Z</time></trkpt><trkpt lat="43.5872448" lon="6.7923481"><ele>181.0</ele><time>2026-04-12T09:23:39.109Z</time></trkpt><trkpt lat="43.5871511" lon="6.7923286"><ele>181.0</ele><time>2026-04-12T09:23:41.109Z</time></trkpt><trkpt lat="43.5870638" lon="6.7923251"><ele>181.0</ele><time>2026-04-12T09:23:43.109Z</time></trkpt><trkpt lat="43.5869786" lon="6.7923322"><ele>181.0</ele><time>2026-04-12T09:23:45.109Z</time></trkpt><trkpt lat="43.5868909" lon="6.792361"><ele>181.0</ele><time>2026-04-12T09:23:47.109Z</time></trkpt><trkpt lat="43.5868049" lon="6.7924144"><ele>181.0</ele><time>2026-04-12T09:23:49.109Z</time></trkpt><trkpt lat="43.5867365" lon="6.7924828"><ele>181.0</ele><time>2026-04-12T09:23:51.109Z</time></trkpt><trkpt lat="43.5866818" lon="6.7925726"><ele>181.4</ele><time>2026-04-12T09:23:53.11Z</time></trkpt><trkpt lat="43.5866289" lon="6.7926759"><ele>181.8</ele><time>2026-04-12T09:23:55.109Z</time></trkpt><trkpt lat="43.5865958" lon="6.7928002"><ele>182.20000000000002</ele><time>2026-04-12T09:23:57.109Z</time></trkpt><trkpt lat="43.5865761" lon="6.7929393"><ele>182.60000000000002</ele><time>2026-04-12T09:23:59.109Z</time></trkpt><trkpt lat="43.5865766" lon="6.7930858"><ele>183.0</ele><time>2026-04-12T09:24:01.109Z</time></trkpt><trkpt lat="43.5865892" lon="6.7932393"><ele>183.0</ele><time>2026-04-12T09:24:03.111Z</time></trkpt><trkpt lat="43.586607" lon="6.7933939"><ele>183.0</ele><time>2026-04-12T09:24:05.111Z</time></trkpt><trkpt lat="43.5866145" lon="6.7935481"><ele>183.0</ele><time>2026-04-12T09:24:07.109Z</time></trkpt><trkpt lat="43.5866047" lon="6.7937068"><ele>183.0</ele><time>2026-04-12T09:24:09.11Z</time></trkpt><trkpt lat="43.5865792" lon="6.7938668"><ele>184.60000000000002</ele><time>2026-04-12T09:24:11.11Z</time></trkpt><trkpt lat="43.5865318" lon="6.7940195"><ele>186.20000000000002</ele><time>2026-04-12T09:24:13.11Z</time></trkpt><trkpt lat="43.586464" lon="6.7941565"><ele>187.8</ele><time>2026-04-12T09:24:15.11Z</time></trkpt><trkpt lat="43.5863693" lon="6.7942672"><ele>189.4</ele><time>2026-04-12T09:24:17.111Z</time></trkpt><trkpt lat="43.5863142" lon="6.7943125"><ele>191.0</ele><time>2026-04-12T09:24:18.11Z</time></trkpt><trkpt lat="43.5862567" lon="6.7943502"><ele>190.42857142857144</ele><time>2026-04-12T09:24:19.11Z</time></trkpt><trkpt lat="43.586196" lon="6.7943854"><ele>189.85714285714283</ele><time>2026-04-12T09:24:20.11Z</time></trkpt><trkpt lat="43.5861306" lon="6.7944179"><ele>189.28571428571428</ele><time>2026-04-12T09:24:21.11Z</time></trkpt><trkpt lat="43.5860665" lon="6.7944569"><ele>188.71428571428572</ele><time>2026-04-12T09:24:22.11Z</time></trkpt><trkpt lat="43.5860049" lon="6.7945041"><ele>188.14285714285717</ele><time>2026-04-12T09:24:23.11Z</time></trkpt><trkpt lat="43.5859431" lon="6.7945551"><ele>187.57142857142856</ele><time>2026-04-12T09:24:24.11Z</time></trkpt><trkpt lat="43.5858848" lon="6.7946128"><ele>187.0</ele><time>2026-04-12T09:24:25.111Z</time></trkpt><trkpt lat="43.5858303" lon="6.7946768"><ele>187.0</ele><time>2026-04-12T09:24:26.11Z</time></trkpt><trkpt lat="43.5857778" lon="6.7947476"><ele>187.0</ele><time>2026-04-12T09:24:27.11Z</time></trkpt><trkpt lat="43.5857266" lon="6.7948251"><ele>187.0</ele><time>2026-04-12T09:24:28.11Z</time></trkpt><trkpt lat="43.585677" lon="6.7949081"><ele>187.0</ele><time>2026-04-12T09:24:29.11Z</time></trkpt><trkpt lat="43.5856282" lon="6.7949967"><ele>187.0</ele><time>2026-04-12T09:24:30.11Z</time></trkpt><trkpt lat="43.5855804" lon="6.7950912"><ele>187.0</ele><time>2026-04-12T09:24:31.11Z</time></trkpt><trkpt lat="43.585535" lon="6.7951918"><ele>188.8</ele><time>2026-04-12T09:24:32.11Z</time></trkpt><trkpt lat="43.5854851" lon="6.7952925"><ele>190.6</ele><time>2026-04-12T09:24:33.11Z</time></trkpt><trkpt lat="43.5854341" lon="6.7953968"><ele>192.4</ele><time>2026-04-12T09:24:34.11Z</time></trkpt><trkpt lat="43.5853845" lon="6.7955059"><ele>194.20000000000002</ele><time>2026-04-12T09:24:35.11Z</time></trkpt><trkpt lat="43.5853341" lon="6.7956177"><ele>196.0</ele><time>2026-04-12T09:24:36.11Z</time></trkpt><trkpt lat="43.5852843" lon="6.7957322"><ele>191.0</ele><time>2026-04-12T09:24:37.11Z</time></trkpt><trkpt lat="43.5852329" lon="6.7958477"><ele>186.0</ele><time>2026-04-12T09:24:38.111Z</time></trkpt><trkpt lat="43.5851813" lon="6.7959647"><ele>181.0</ele><time>2026-04-12T09:24:39.111Z</time></trkpt><trkpt lat="43.5851276" lon="6.7960819"><ele>176.0</ele><time>2026-04-12T09:24:40.11Z</time></trkpt><trkpt lat="43.5850745" lon="6.7962003"><ele>171.0</ele><time>2026-04-12T09:24:41.11Z</time></trkpt><trkpt lat="43.585023" lon="6.7963211"><ele>171.0</ele><time>2026-04-12T09:24:42.11Z</time></trkpt><trkpt lat="43.5849792" lon="6.7964464"><ele>171.0</ele><time>2026-04-12T09:24:43.111Z</time></trkpt><trkpt lat="43.5849445" lon="6.7965778"><ele>171.0</ele><time>2026-04-12T09:24:44.11Z</time></trkpt><trkpt lat="43.584917" lon="6.7967123"><ele>171.0</ele><time>2026-04-12T09:24:45.11Z</time></trkpt><trkpt lat="43.5848997" lon="6.7968519"><ele>171.0</ele><time>2026-04-12T09:24:46.11Z</time></trkpt><trkpt lat="43.5848916" lon="6.7969947"><ele>170.60000000000002</ele><time>2026-04-12T09:24:47.11Z</time></trkpt><trkpt lat="43.5848901" lon="6.7971373"><ele>170.2</ele><time>2026-04-12T09:24:48.111Z</time></trkpt><trkpt lat="43.584896" lon="6.7972835"><ele>169.8</ele><time>2026-04-12T09:24:49.111Z</time></trkpt><trkpt lat="43.5849026" lon="6.7974284"><ele>169.39999999999998</ele><time>2026-04-12T09:24:50.111Z</time></trkpt><trkpt lat="43.5849155" lon="6.7975725"><ele>169.0</ele><time>2026-04-12T09:24:51.11Z</time></trkpt><trkpt lat="43.5849319" lon="6.7977192"><ele>168.39999999999998</ele><time>2026-04-12T09:24:52.111Z</time></trkpt><trkpt lat="43.584956" lon="6.7978663"><ele>167.8</ele><time>2026-04-12T09:24:53.111Z</time></trkpt><trkpt lat="43.5849824" lon="6.7980137"><ele>167.2</ele><time>2026-04-12T09:24:54.11Z</time></trkpt><trkpt lat="43.5850075" lon="6.7981615"><ele>166.60000000000002</ele><time>2026-04-12T09:24:55.111Z</time></trkpt><trkpt lat="43.5850353" lon="6.7983096"><ele>166.0</ele><time>2026-04-12T09:24:56.11Z</time></trkpt><trkpt lat="43.5850627" lon="6.7984601"><ele>165.75</ele><time>2026-04-12T09:24:57.111Z</time></trkpt><trkpt lat="43.5850715" lon="6.7986164"><ele>165.5</ele><time>2026-04-12T09:24:58.111Z</time></trkpt><trkpt lat="43.5850699" lon="6.798775"><ele>165.25</ele><time>2026-04-12T09:24:59.111Z</time></trkpt><trkpt lat="43.5850392" lon="6.7989261"><ele>165.0</ele><time>2026-04-12T09:25:00.111Z</time></trkpt><trkpt lat="43.5849809" lon="6.7990631"><ele>165.0</ele><time>2026-04-12T09:25:01.111Z</time></trkpt><trkpt lat="43.5849105" lon="6.799187"><ele>165.0</ele><time>2026-04-12T09:25:02.111Z</time></trkpt><trkpt lat="43.5848368" lon="6.7993128"><ele>165.0</ele><time>2026-04-12T09:25:03.111Z</time></trkpt><trkpt lat="43.5847665" lon="6.799443"><ele>165.0</ele><time>2026-04-12T09:25:04.111Z</time></trkpt><trkpt lat="43.5846964" lon="6.7995721"><ele>165.5</ele><time>2026-04-12T09:25:05.111Z</time></trkpt><trkpt lat="43.5846264" lon="6.7997008"><ele>166.0</ele><time>2026-04-12T09:25:06.111Z</time></trkpt><trkpt lat="43.5845556" lon="6.7998286"><ele>166.5</ele><time>2026-04-12T09:25:07.111Z</time></trkpt><trkpt lat="43.5844875" lon="6.7999595"><ele>167.0</ele><time>2026-04-12T09:25:08.111Z</time></trkpt><trkpt lat="43.58442" lon="6.8000916"><ele>163.0</ele><time>2026-04-12T09:25:09.111Z</time></trkpt><trkpt lat="43.5843541" lon="6.800225"><ele>159.0</ele><time>2026-04-12T09:25:10.111Z</time></trkpt><trkpt lat="43.5842878" lon="6.800357"><ele>155.0</ele><time>2026-04-12T09:25:11.111Z</time></trkpt><trkpt lat="43.5842208" lon="6.8004879"><ele>151.0</ele><time>2026-04-12T09:25:12.111Z</time></trkpt><trkpt lat="43.5841555" lon="6.8006148"><ele>151.0</ele><time>2026-04-12T09:25:13.111Z</time></trkpt><trkpt lat="43.5840889" lon="6.8007394"><ele>151.0</ele><time>2026-04-12T09:25:14.111Z</time></trkpt><trkpt lat="43.5840238" lon="6.8008632"><ele>151.0</ele><time>2026-04-12T09:25:15.111Z</time></trkpt><trkpt lat="43.5839593" lon="6.8009838"><ele>151.0</ele><time>2026-04-12T09:25:16.111Z</time></trkpt><trkpt lat="43.5838949" lon="6.8011072"><ele>151.0</ele><time>2026-04-12T09:25:17.111Z</time></trkpt><trkpt lat="43.5838321" lon="6.8012263"><ele>150.0</ele><time>2026-04-12T09:25:18.111Z</time></trkpt><trkpt lat="43.5837689" lon="6.8013399"><ele>149.0</ele><time>2026-04-12T09:25:19.111Z</time></trkpt><trkpt lat="43.5837062" lon="6.8014525"><ele>148.0</ele><time>2026-04-12T09:25:20.111Z</time></trkpt><trkpt lat="43.5836448" lon="6.8015641"><ele>147.0</ele><time>2026-04-12T09:25:21.111Z</time></trkpt><trkpt lat="43.5835851" lon="6.8016753"><ele>146.0</ele><time>2026-04-12T09:25:22.111Z</time></trkpt><trkpt lat="43.5835246" lon="6.8017857"><ele>145.8</ele><time>2026-04-12T09:25:23.111Z</time></trkpt><trkpt lat="43.5834671" lon="6.8018977"><ele>145.6</ele><time>2026-04-12T09:25:24.111Z</time></trkpt><trkpt lat="43.5834095" lon="6.8020071"><ele>145.4</ele><time>2026-04-12T09:25:25.111Z</time></trkpt><trkpt lat="43.5833528" lon="6.8021153"><ele>145.2</ele><time>2026-04-12T09:25:26.111Z</time></trkpt><trkpt lat="43.5832956" lon="6.8022214"><ele>145.0</ele><time>2026-04-12T09:25:27.111Z</time></trkpt><trkpt lat="43.5832378" lon="6.8023261"><ele>145.0</ele><time>2026-04-12T09:25:28.111Z</time></trkpt><trkpt lat="43.5831811" lon="6.8024305"><ele>145.0</ele><time>2026-04-12T09:25:29.111Z</time></trkpt><trkpt lat="43.5831248" lon="6.8025347"><ele>145.0</ele><time>2026-04-12T09:25:30.111Z</time></trkpt><trkpt lat="43.5830689" lon="6.802639"><ele>145.0</ele><time>2026-04-12T09:25:31.111Z</time></trkpt><trkpt lat="43.5830127" lon="6.8027434"><ele>145.0</ele><time>2026-04-12T09:25:32.112Z</time></trkpt><trkpt lat="43.5829576" lon="6.802849"><ele>145.0</ele><time>2026-04-12T09:25:33.111Z</time></trkpt><trkpt lat="43.5829029" lon="6.8029537"><ele>145.0</ele><time>2026-04-12T09:25:34.111Z</time></trkpt><trkpt lat="43.5828473" lon="6.8030566"><ele>145.0</ele><time>2026-04-12T09:25:35.111Z</time></trkpt><trkpt lat="43.5827913" lon="6.8031579"><ele>145.0</ele><time>2026-04-12T09:25:36.111Z</time></trkpt><trkpt lat="43.5827368" lon="6.8032598"><ele>145.0</ele><time>2026-04-12T09:25:37.111Z</time></trkpt><trkpt lat="43.5826829" lon="6.8033605"><ele>145.0</ele><time>2026-04-12T09:25:38.112Z</time></trkpt><trkpt lat="43.5826305" lon="6.8034605"><ele>145.0</ele><time>2026-04-12T09:25:39.111Z</time></trkpt><trkpt lat="43.5825782" lon="6.8035596"><ele>145.0</ele><time>2026-04-12T09:25:40.112Z</time></trkpt><trkpt lat="43.5825251" lon="6.8036575"><ele>145.0</ele><time>2026-04-12T09:25:41.111Z</time></trkpt><trkpt lat="43.5824734" lon="6.8037565"><ele>145.0</ele><time>2026-04-12T09:25:42.113Z</time></trkpt><trkpt lat="43.5824221" lon="6.8038558"><ele>145.0</ele><time>2026-04-12T09:25:43.113Z</time></trkpt><trkpt lat="43.5823706" lon="6.8039533"><ele>145.16666666666669</ele><time>2026-04-12T09:25:44.112Z</time></trkpt><trkpt lat="43.5823189" lon="6.8040496"><ele>145.33333333333334</ele><time>2026-04-12T09:25:45.112Z</time></trkpt><trkpt lat="43.5822679" lon="6.8041451"><ele>145.5</ele><time>2026-04-12T09:25:46.112Z</time></trkpt><trkpt lat="43.5822184" lon="6.8042405"><ele>145.66666666666666</ele><time>2026-04-12T09:25:47.112Z</time></trkpt><trkpt lat="43.582168" lon="6.8043351"><ele>145.83333333333331</ele><time>2026-04-12T09:25:48.112Z</time></trkpt><trkpt lat="43.5821175" lon="6.8044285"><ele>146.0</ele><time>2026-04-12T09:25:49.112Z</time></trkpt><trkpt lat="43.5820708" lon="6.8045235"><ele>147.0</ele><time>2026-04-12T09:25:50.113Z</time></trkpt><trkpt lat="43.5820242" lon="6.8046182"><ele>148.0</ele><time>2026-04-12T09:25:51.112Z</time></trkpt><trkpt lat="43.5819741" lon="6.804707"><ele>149.0</ele><time>2026-04-12T09:25:52.112Z</time></trkpt><trkpt lat="43.5819244" lon="6.8047952"><ele>150.0</ele><time>2026-04-12T09:25:53.112Z</time></trkpt><trkpt lat="43.5818743" lon="6.8048784"><ele>151.0</ele><time>2026-04-12T09:25:54.112Z</time></trkpt><trkpt lat="43.5818269" lon="6.8049617"><ele>152.0</ele><time>2026-04-12T09:25:55.112Z</time></trkpt><trkpt lat="43.5817817" lon="6.805045"><ele>152.0</ele><time>2026-04-12T09:25:56.113Z</time></trkpt><trkpt lat="43.5817385" lon="6.8051288"><ele>152.0</ele><time>2026-04-12T09:25:57.112Z</time></trkpt><trkpt lat="43.5817027" lon="6.8052169"><ele>152.0</ele><time>2026-04-12T09:25:58.113Z</time></trkpt><trkpt lat="43.5816787" lon="6.80531"><ele>152.0</ele><time>2026-04-12T09:25:59.112Z</time></trkpt><trkpt lat="43.581663" lon="6.8054062"><ele>152.0</ele><time>2026-04-12T09:26:00.113Z</time></trkpt><trkpt lat="43.5816504" lon="6.8055006"><ele>152.0</ele><time>2026-04-12T09:26:01.112Z</time></trkpt><trkpt lat="43.5816537" lon="6.8055898"><ele>152.0</ele><time>2026-04-12T09:26:02.112Z</time></trkpt><trkpt lat="43.5816553" lon="6.8056839"><ele>152.0</ele><time>2026-04-12T09:26:03.113Z</time></trkpt><trkpt lat="43.5816627" lon="6.8057786"><ele>152.0</ele><time>2026-04-12T09:26:04.112Z</time></trkpt><trkpt lat="43.5816795" lon="6.8058724"><ele>152.0</ele><time>2026-04-12T09:26:05.112Z</time></trkpt><trkpt lat="43.5817042" lon="6.8059616"><ele>152.0</ele><time>2026-04-12T09:26:06.112Z</time></trkpt><trkpt lat="43.5817356" lon="6.8060506"><ele>152.0</ele><time>2026-04-12T09:26:07.112Z</time></trkpt><trkpt lat="43.5817716" lon="6.8061381"><ele>152.0</ele><time>2026-04-12T09:26:08.113Z</time></trkpt><trkpt lat="43.5818125" lon="6.8062224"><ele>152.0</ele><time>2026-04-12T09:26:09.112Z</time></trkpt><trkpt lat="43.581856" lon="6.8063055"><ele>152.0</ele><time>2026-04-12T09:26:10.113Z</time></trkpt><trkpt lat="43.5818998" lon="6.8063902"><ele>152.0</ele><time>2026-04-12T09:26:11.113Z</time></trkpt><trkpt lat="43.5819415" lon="6.8064775"><ele>152.0</ele><time>2026-04-12T09:26:12.112Z</time></trkpt><trkpt lat="43.5819784" lon="6.8065686"><ele>152.0</ele><time>2026-04-12T09:26:13.112Z</time></trkpt><trkpt lat="43.5820104" lon="6.8066651"><ele>152.0</ele><time>2026-04-12T09:26:14.113Z</time></trkpt><trkpt lat="43.5820377" lon="6.8067632"><ele>152.0</ele><time>2026-04-12T09:26:15.112Z</time></trkpt><trkpt lat="43.5820583" lon="6.8068644"><ele>153.14285714285714</ele><time>2026-04-12T09:26:16.113Z</time></trkpt><trkpt lat="43.5820685" lon="6.8069663"><ele>154.2857142857143</ele><time>2026-04-12T09:26:17.112Z</time></trkpt><trkpt lat="43.5820724" lon="6.8070678"><ele>155.42857142857144</ele><time>2026-04-12T09:26:18.113Z</time></trkpt><trkpt lat="43.5820727" lon="6.8071679"><ele>156.57142857142856</ele><time>2026-04-12T09:26:19.112Z</time></trkpt><trkpt lat="43.5820669" lon="6.8072653"><ele>157.71428571428572</ele><time>2026-04-12T09:26:20.112Z</time></trkpt><trkpt lat="43.5820581" lon="6.8073608"><ele>158.85714285714286</ele><time>2026-04-12T09:26:21.113Z</time></trkpt><trkpt lat="43.5820468" lon="6.807455"><ele>160.0</ele><time>2026-04-12T09:26:22.112Z</time></trkpt><trkpt lat="43.582033" lon="6.807547"><ele>160.0</ele><time>2026-04-12T09:26:23.112Z</time></trkpt><trkpt lat="43.5820217" lon="6.807639"><ele>160.0</ele><time>2026-04-12T09:26:24.112Z</time></trkpt><trkpt lat="43.5820115" lon="6.8077305"><ele>160.0</ele><time>2026-04-12T09:26:25.112Z</time></trkpt><trkpt lat="43.5820024" lon="6.8078208"><ele>160.0</ele><time>2026-04-12T09:26:26.113Z</time></trkpt><trkpt lat="43.5819919" lon="6.8079094"><ele>160.0</ele><time>2026-04-12T09:26:27.112Z</time></trkpt><trkpt lat="43.5819785" lon="6.8079988"><ele>160.0</ele><time>2026-04-12T09:26:28.113Z</time></trkpt><trkpt lat="43.5819647" lon="6.8080881"><ele>160.0</ele><time>2026-04-12T09:26:29.113Z</time></trkpt><trkpt lat="43.5819525" lon="6.8081793"><ele>159.28571428571428</ele><time>2026-04-12T09:26:30.113Z</time></trkpt><trkpt lat="43.5819428" lon="6.8082717"><ele>158.57142857142858</ele><time>2026-04-12T09:26:31.113Z</time></trkpt><trkpt lat="43.581935" lon="6.808366"><ele>157.85714285714286</ele><time>2026-04-12T09:26:32.113Z</time></trkpt><trkpt lat="43.5819301" lon="6.8084615"><ele>157.14285714285714</ele><time>2026-04-12T09:26:33.113Z</time></trkpt><trkpt lat="43.5819271" lon="6.8085584"><ele>156.42857142857142</ele><time>2026-04-12T09:26:34.113Z</time></trkpt><trkpt lat="43.5819275" lon="6.8086589"><ele>155.71428571428572</ele><time>2026-04-12T09:26:35.113Z</time></trkpt><trkpt lat="43.5819288" lon="6.8087611"><ele>155.0</ele><time>2026-04-12T09:26:36.113Z</time></trkpt><trkpt lat="43.5819345" lon="6.8088654"><ele>154.83333333333331</ele><time>2026-04-12T09:26:37.113Z</time></trkpt><trkpt lat="43.5819457" lon="6.8089711"><ele>154.66666666666666</ele><time>2026-04-12T09:26:38.113Z</time></trkpt><trkpt lat="43.581962" lon="6.809076"><ele>154.5</ele><time>2026-04-12T09:26:39.113Z</time></trkpt><trkpt lat="43.5819849" lon="6.8091784"><ele>154.33333333333334</ele><time>2026-04-12T09:26:40.113Z</time></trkpt><trkpt lat="43.5820109" lon="6.80928"><ele>154.16666666666669</ele><time>2026-04-12T09:26:41.113Z</time></trkpt><trkpt lat="43.5820392" lon="6.8093814"><ele>154.0</ele><time>2026-04-12T09:26:42.113Z</time></trkpt><trkpt lat="43.5820675" lon="6.8094827"><ele>155.16666666666669</ele><time>2026-04-12T09:26:43.114Z</time></trkpt><trkpt lat="43.5820964" lon="6.8095856"><ele>156.33333333333334</ele><time>2026-04-12T09:26:44.114Z</time></trkpt><trkpt lat="43.5821246" lon="6.8096901"><ele>157.5</ele><time>2026-04-12T09:26:45.113Z</time></trkpt><trkpt lat="43.5821523" lon="6.8097959"><ele>158.66666666666666</ele><time>2026-04-12T09:26:46.113Z</time></trkpt><trkpt lat="43.5821794" lon="6.8099025"><ele>159.83333333333331</ele><time>2026-04-12T09:26:47.113Z</time></trkpt><trkpt lat="43.5822064" lon="6.810008"><ele>161.0</ele><time>2026-04-12T09:26:48.113Z</time></trkpt><trkpt lat="43.582237" lon="6.8101116"><ele>160.83333333333331</ele><time>2026-04-12T09:26:49.114Z</time></trkpt><trkpt lat="43.5822673" lon="6.8102132"><ele>160.66666666666666</ele><time>2026-04-12T09:26:50.113Z</time></trkpt><trkpt lat="43.5822947" lon="6.8103165"><ele>160.5</ele><time>2026-04-12T09:26:51.113Z</time></trkpt><trkpt lat="43.5823179" lon="6.8104232"><ele>160.33333333333334</ele><time>2026-04-12T09:26:52.113Z</time></trkpt><trkpt lat="43.582336" lon="6.8105337"><ele>160.16666666666669</ele><time>2026-04-12T09:26:53.113Z</time></trkpt><trkpt lat="43.5823562" lon="6.8106434"><ele>160.0</ele><time>2026-04-12T09:26:54.114Z</time></trkpt><trkpt lat="43.58237" lon="6.8107572"><ele>160.0</ele><time>2026-04-12T09:26:55.113Z</time></trkpt><trkpt lat="43.5823725" lon="6.8108743"><ele>160.0</ele><time>2026-04-12T09:26:56.113Z</time></trkpt><trkpt lat="43.5823674" lon="6.8109861"><ele>160.0</ele><time>2026-04-12T09:26:57.113Z</time></trkpt><trkpt lat="43.5823438" lon="6.811101"><ele>160.0</ele><time>2026-04-12T09:26:58.114Z</time></trkpt><trkpt lat="43.5823203" lon="6.8112135"><ele>160.0</ele><time>2026-04-12T09:26:59.114Z</time></trkpt><trkpt lat="43.5823185" lon="6.8113294"><ele>160.0</ele><time>2026-04-12T09:27:00.113Z</time></trkpt><trkpt lat="43.5823403" lon="6.8114432"><ele>159.83333333333334</ele><time>2026-04-12T09:27:01.113Z</time></trkpt><trkpt lat="43.5823882" lon="6.8115386"><ele>159.66666666666669</ele><time>2026-04-12T09:27:02.113Z</time></trkpt><trkpt lat="43.5824411" lon="6.811627"><ele>159.5</ele><time>2026-04-12T09:27:03.113Z</time></trkpt><trkpt lat="43.5825015" lon="6.8117032"><ele>159.33333333333334</ele><time>2026-04-12T09:27:04.114Z</time></trkpt><trkpt lat="43.5825601" lon="6.8117736"><ele>159.16666666666666</ele><time>2026-04-12T09:27:05.113Z</time></trkpt><trkpt lat="43.5826192" lon="6.8118415"><ele>159.0</ele><time>2026-04-12T09:27:06.114Z</time></trkpt><trkpt lat="43.5826799" lon="6.811902"><ele>159.0</ele><time>2026-04-12T09:27:07.113Z</time></trkpt><trkpt lat="43.5827442" lon="6.8119519"><ele>159.0</ele><time>2026-04-12T09:27:08.114Z</time></trkpt><trkpt lat="43.5828081" lon="6.8119884"><ele>159.0</ele><time>2026-04-12T09:27:09.113Z</time></trkpt><trkpt lat="43.5828737" lon="6.8120058"><ele>159.0</ele><time>2026-04-12T09:27:10.113Z</time></trkpt><trkpt lat="43.5829387" lon="6.8120107"><ele>159.0</ele><time>2026-04-12T09:27:11.114Z</time></trkpt><trkpt lat="43.5830572" lon="6.8120179"><ele>159.0</ele><time>2026-04-12T09:27:13.113Z</time></trkpt><trkpt lat="43.5831595" lon="6.812043"><ele>159.83333333333334</ele><time>2026-04-12T09:27:15.114Z</time></trkpt><trkpt lat="43.5832448" lon="6.8120816"><ele>160.66666666666666</ele><time>2026-04-12T09:27:17.114Z</time></trkpt><trkpt lat="43.5833192" lon="6.8121291"><ele>161.5</ele><time>2026-04-12T09:27:19.114Z</time></trkpt><trkpt lat="43.5833768" lon="6.8122033"><ele>162.33333333333331</ele><time>2026-04-12T09:27:21.114Z</time></trkpt><trkpt lat="43.5834421" lon="6.812262"><ele>163.16666666666666</ele><time>2026-04-12T09:27:23.114Z</time></trkpt><trkpt lat="43.5835031" lon="6.812325"><ele>164.0</ele><time>2026-04-12T09:27:25.115Z</time></trkpt><trkpt lat="43.5835563" lon="6.8124017"><ele>163.99999999999997</ele><time>2026-04-12T09:27:27.114Z</time></trkpt><trkpt lat="43.583603" lon="6.8124798"><ele>164.0</ele><time>2026-04-12T09:27:29.114Z</time></trkpt><trkpt lat="43.5836487" lon="6.8125528"><ele>164.0</ele><time>2026-04-12T09:27:31.114Z</time></trkpt><trkpt lat="43.5836926" lon="6.8126216"><ele>164.0</ele><time>2026-04-12T09:27:33.114Z</time></trkpt><trkpt lat="43.5837308" lon="6.8127022"><ele>164.0</ele><time>2026-04-12T09:27:35.114Z</time></trkpt><trkpt lat="43.5837562" lon="6.812786"><ele>163.99999999999997</ele><time>2026-04-12T09:27:37.114Z</time></trkpt><trkpt lat="43.5837676" lon="6.8128768"><ele>164.0</ele><time>2026-04-12T09:27:39.114Z</time></trkpt><trkpt lat="43.5837743" lon="6.8129716"><ele>164.42857142857142</ele><time>2026-04-12T09:27:41.115Z</time></trkpt><trkpt lat="43.5837739" lon="6.8130747"><ele>164.85714285714286</ele><time>2026-04-12T09:27:43.114Z</time></trkpt><trkpt lat="43.5837601" lon="6.8131785"><ele>165.28571428571428</ele><time>2026-04-12T09:27:45.114Z</time></trkpt><trkpt lat="43.5837264" lon="6.8132647"><ele>165.71428571428572</ele><time>2026-04-12T09:27:47.114Z</time></trkpt><trkpt lat="43.5836823" lon="6.8133281"><ele>166.14285714285714</ele><time>2026-04-12T09:27:49.114Z</time></trkpt><trkpt lat="43.5836354" lon="6.8133899"><ele>166.57142857142856</ele><time>2026-04-12T09:27:51.114Z</time></trkpt><trkpt lat="43.5835734" lon="6.8134897"><ele>167.0</ele><time>2026-04-12T09:27:54.114Z</time></trkpt><trkpt lat="43.5835271" lon="6.8135535"><ele>167.71428571428572</ele><time>2026-04-12T09:27:56.114Z</time></trkpt><trkpt lat="43.58348" lon="6.8136182"><ele>168.42857142857144</ele><time>2026-04-12T09:27:58.114Z</time></trkpt><trkpt lat="43.5834381" lon="6.8136856"><ele>169.14285714285717</ele><time>2026-04-12T09:28:00.114Z</time></trkpt><trkpt lat="43.5833956" lon="6.8137553"><ele>169.85714285714286</ele><time>2026-04-12T09:28:02.115Z</time></trkpt><trkpt lat="43.583359" lon="6.8138377"><ele>170.57142857142858</ele><time>2026-04-12T09:28:04.115Z</time></trkpt><trkpt lat="43.5833231" lon="6.813927"><ele>171.2857142857143</ele><time>2026-04-12T09:28:06.115Z</time></trkpt><trkpt lat="43.5832965" lon="6.814023"><ele>172.0</ele><time>2026-04-12T09:28:08.115Z</time></trkpt><trkpt lat="43.5832773" lon="6.8141243"><ele>172.0</ele><time>2026-04-12T09:28:10.115Z</time></trkpt><trkpt lat="43.583279" lon="6.8142286"><ele>172.0</ele><time>2026-04-12T09:28:12.115Z</time></trkpt><trkpt lat="43.5833045" lon="6.8143381"><ele>172.0</ele><time>2026-04-12T09:28:14.115Z</time></trkpt><trkpt lat="43.5833362" lon="6.8144444"><ele>172.0</ele><time>2026-04-12T09:28:16.115Z</time></trkpt><trkpt lat="43.583368" lon="6.8145575"><ele>172.0</ele><time>2026-04-12T09:28:18.115Z</time></trkpt><trkpt lat="43.5833966" lon="6.814673"><ele>172.0</ele><time>2026-04-12T09:28:20.115Z</time></trkpt><trkpt lat="43.5834347" lon="6.8147853"><ele>173.39999999999998</ele><time>2026-04-12T09:28:22.115Z</time></trkpt><trkpt lat="43.5834861" lon="6.8148894"><ele>174.79999999999998</ele><time>2026-04-12T09:28:24.115Z</time></trkpt><trkpt lat="43.58354" lon="6.8149873"><ele>176.2</ele><time>2026-04-12T09:28:26.115Z</time></trkpt><trkpt lat="43.5836042" lon="6.815077"><ele>177.6</ele><time>2026-04-12T09:28:28.116Z</time></trkpt><trkpt lat="43.583661" lon="6.8151796"><ele>179.0</ele><time>2026-04-12T09:28:30.116Z</time></trkpt><trkpt lat="43.5837114" lon="6.8152928"><ele>179.0</ele><time>2026-04-12T09:28:32.116Z</time></trkpt><trkpt lat="43.5837527" lon="6.8154117"><ele>179.0</ele><time>2026-04-12T09:28:34.116Z</time></trkpt><trkpt lat="43.5838168" lon="6.8155179"><ele>179.0</ele><time>2026-04-12T09:28:36.116Z</time></trkpt><trkpt lat="43.5838984" lon="6.8155962"><ele>179.0</ele><time>2026-04-12T09:28:38.116Z</time></trkpt><trkpt lat="43.58399" lon="6.8156465"><ele>179.0</ele><time>2026-04-12T09:28:40.116Z</time></trkpt><trkpt lat="43.5840754" lon="6.8157181"><ele>179.0</ele><time>2026-04-12T09:28:42.116Z</time></trkpt><trkpt lat="43.5841435" lon="6.8158189"><ele>179.0</ele><time>2026-04-12T09:28:44.116Z</time></trkpt><trkpt lat="43.5842057" lon="6.8159249"><ele>179.0</ele><time>2026-04-12T09:28:46.116Z</time></trkpt><trkpt lat="43.5842894" lon="6.8160049"><ele>179.0</ele><time>2026-04-12T09:28:48.116Z</time></trkpt><trkpt lat="43.5843937" lon="6.8160199"><ele>179.0</ele><time>2026-04-12T09:28:50.116Z</time></trkpt><trkpt lat="43.584497" lon="6.8159967"><ele>178.79999999999998</ele><time>2026-04-12T09:28:52.116Z</time></trkpt><trkpt lat="43.5845962" lon="6.8159523"><ele>178.6</ele><time>2026-04-12T09:28:54.116Z</time></trkpt><trkpt lat="43.5846954" lon="6.8159067"><ele>178.4</ele><time>2026-04-12T09:28:56.116Z</time></trkpt><trkpt lat="43.5847918" lon="6.8158622"><ele>178.2</ele><time>2026-04-12T09:28:58.117Z</time></trkpt><trkpt lat="43.5848883" lon="6.8158283"><ele>178.0</ele><time>2026-04-12T09:29:00.116Z</time></trkpt><trkpt lat="43.584988" lon="6.8158344"><ele>178.0</ele><time>2026-04-12T09:29:02.116Z</time></trkpt><trkpt lat="43.5850796" lon="6.8158821"><ele>178.0</ele><time>2026-04-12T09:29:04.116Z</time></trkpt><trkpt lat="43.5851576" lon="6.8159466"><ele>178.0</ele><time>2026-04-12T09:29:06.116Z</time></trkpt><trkpt lat="43.5852194" lon="6.8160139"><ele>178.0</ele><time>2026-04-12T09:29:08.116Z</time></trkpt><trkpt lat="43.585288" lon="6.8160938"><ele>178.0</ele><time>2026-04-12T09:29:10.116Z</time></trkpt><trkpt lat="43.5853682" lon="6.8161565"><ele>178.0</ele><time>2026-04-12T09:29:12.116Z</time></trkpt><trkpt lat="43.5854496" lon="6.8162143"><ele>180.0</ele><time>2026-04-12T09:29:14.116Z</time></trkpt><trkpt lat="43.5855262" lon="6.8162748"><ele>182.0</ele><time>2026-04-12T09:29:16.116Z</time></trkpt><trkpt lat="43.5855927" lon="6.8163336"><ele>184.0</ele><time>2026-04-12T09:29:18.116Z</time></trkpt><trkpt lat="43.5856668" lon="6.8164"><ele>186.0</ele><time>2026-04-12T09:29:20.117Z</time></trkpt><trkpt lat="43.5857376" lon="6.8164521"><ele>188.0</ele><time>2026-04-12T09:29:22.116Z</time></trkpt><trkpt lat="43.5858069" lon="6.8165064"><ele>190.0</ele><time>2026-04-12T09:29:24.116Z</time></trkpt><trkpt lat="43.5858718" lon="6.8165774"><ele>190.0</ele><time>2026-04-12T09:29:26.117Z</time></trkpt><trkpt lat="43.5859311" lon="6.8166671"><ele>190.0</ele><time>2026-04-12T09:29:28.117Z</time></trkpt><trkpt lat="43.5859649" lon="6.8167514"><ele>190.0</ele><time>2026-04-12T09:29:30.117Z</time></trkpt><trkpt lat="43.5859887" lon="6.8168384"><ele>190.0</ele><time>2026-04-12T09:29:32.117Z</time></trkpt><trkpt lat="43.58603" lon="6.8169653"><ele>190.0</ele><time>2026-04-12T09:29:35.117Z</time></trkpt><trkpt lat="43.5860678" lon="6.8170657"><ele>190.0</ele><time>2026-04-12T09:29:37.118Z</time></trkpt><trkpt lat="43.586112" lon="6.8171488"><ele>189.16666666666669</ele><time>2026-04-12T09:29:39.117Z</time></trkpt><trkpt lat="43.5861805" lon="6.8172513"><ele>188.33333333333334</ele><time>2026-04-12T09:29:41.117Z</time></trkpt><trkpt lat="43.586252" lon="6.8173209"><ele>187.5</ele><time>2026-04-12T09:29:43.117Z</time></trkpt><trkpt lat="43.5863171" lon="6.8173885"><ele>186.66666666666666</ele><time>2026-04-12T09:29:45.117Z</time></trkpt><trkpt lat="43.58638" lon="6.8174633"><ele>185.83333333333331</ele><time>2026-04-12T09:29:47.117Z</time></trkpt><trkpt lat="43.5864458" lon="6.8175202"><ele>185.0</ele><time>2026-04-12T09:29:49.118Z</time></trkpt><trkpt lat="43.5865266" lon="6.8175754"><ele>187.0</ele><time>2026-04-12T09:29:52.118Z</time></trkpt><trkpt lat="43.5866026" lon="6.8176567"><ele>189.0</ele><time>2026-04-12T09:29:54.117Z</time></trkpt><trkpt lat="43.586667" lon="6.8177269"><ele>191.0</ele><time>2026-04-12T09:29:56.117Z</time></trkpt><trkpt lat="43.5867257" lon="6.8177764"><ele>193.0</ele><time>2026-04-12T09:29:58.117Z</time></trkpt><trkpt lat="43.5867996" lon="6.8178158"><ele>195.00000000000003</ele><time>2026-04-12T09:30:00.117Z</time></trkpt><trkpt lat="43.5868709" lon="6.8178604"><ele>197.0</ele><time>2026-04-12T09:30:02.117Z</time></trkpt><trkpt lat="43.5869354" lon="6.8179072"><ele>197.0</ele><time>2026-04-12T09:30:04.117Z</time></trkpt><trkpt lat="43.5869941" lon="6.8179398"><ele>197.0</ele><time>2026-04-12T09:30:06.118Z</time></trkpt><trkpt lat="43.5870566" lon="6.8179874"><ele>197.0</ele><time>2026-04-12T09:30:08.118Z</time></trkpt><trkpt lat="43.587122" lon="6.81804"><ele>197.0</ele><time>2026-04-12T09:30:10.117Z</time></trkpt><trkpt lat="43.5871914" lon="6.8180904"><ele>197.0</ele><time>2026-04-12T09:30:12.117Z</time></trkpt><trkpt lat="43.5872491" lon="6.8181596"><ele>197.0</ele><time>2026-04-12T09:30:14.118Z</time></trkpt><trkpt lat="43.5872737" lon="6.8182515"><ele>197.0</ele><time>2026-04-12T09:30:16.118Z</time></trkpt><trkpt lat="43.5872469" lon="6.8183528"><ele>196.50000000000003</ele><time>2026-04-12T09:30:18.118Z</time></trkpt><trkpt lat="43.5871946" lon="6.8184566"><ele>196.0</ele><time>2026-04-12T09:30:20.118Z</time></trkpt><trkpt lat="43.5871394" lon="6.8185113"><ele>195.5</ele><time>2026-04-12T09:30:22.118Z</time></trkpt><trkpt lat="43.5870618" lon="6.8185674"><ele>195.0</ele><time>2026-04-12T09:30:24.118Z</time></trkpt><trkpt lat="43.5869819" lon="6.818608"><ele>194.50000000000003</ele><time>2026-04-12T09:30:26.118Z</time></trkpt><trkpt lat="43.5869027" lon="6.8186355"><ele>194.0</ele><time>2026-04-12T09:30:28.118Z</time></trkpt><trkpt lat="43.5868122" lon="6.8186684"><ele>194.00000000000003</ele><time>2026-04-12T09:30:30.118Z</time></trkpt><trkpt lat="43.5867208" lon="6.8186993"><ele>194.0</ele><time>2026-04-12T09:30:32.118Z</time></trkpt><trkpt lat="43.5866455" lon="6.8187249"><ele>194.0</ele><time>2026-04-12T09:30:34.118Z</time></trkpt><trkpt lat="43.5865724" lon="6.8187432"><ele>194.0</ele><time>2026-04-12T09:30:36.118Z</time></trkpt><trkpt lat="43.5865136" lon="6.8187949"><ele>194.00000000000003</ele><time>2026-04-12T09:30:38.119Z</time></trkpt><trkpt lat="43.58647" lon="6.8188985"><ele>194.0</ele><time>2026-04-12T09:30:40.118Z</time></trkpt><trkpt lat="43.5864699" lon="6.8189923"><ele>194.00000000000003</ele><time>2026-04-12T09:30:42.118Z</time></trkpt><trkpt lat="43.5864942" lon="6.819082"><ele>194.0</ele><time>2026-04-12T09:30:44.118Z</time></trkpt><trkpt lat="43.5865176" lon="6.8191892"><ele>194.0</ele><time>2026-04-12T09:30:46.118Z</time></trkpt><trkpt lat="43.5864984" lon="6.8193113"><ele>194.0</ele><time>2026-04-12T09:30:48.118Z</time></trkpt><trkpt lat="43.5864487" lon="6.8194243"><ele>194.00000000000003</ele><time>2026-04-12T09:30:50.118Z</time></trkpt><trkpt lat="43.5863959" lon="6.8195186"><ele>194.0</ele><time>2026-04-12T09:30:52.118Z</time></trkpt><trkpt lat="43.5863489" lon="6.8195965"><ele>193.83333333333334</ele><time>2026-04-12T09:30:54.119Z</time></trkpt><trkpt lat="43.5863034" lon="6.8196779"><ele>193.66666666666669</ele><time>2026-04-12T09:30:56.118Z</time></trkpt><trkpt lat="43.5862699" lon="6.8197716"><ele>193.5</ele><time>2026-04-12T09:30:58.118Z</time></trkpt><trkpt lat="43.5862421" lon="6.819876"><ele>193.33333333333331</ele><time>2026-04-12T09:31:00.118Z</time></trkpt><trkpt lat="43.58623" lon="6.819973"><ele>193.16666666666666</ele><time>2026-04-12T09:31:02.119Z</time></trkpt><trkpt lat="43.5862306" lon="6.8200964"><ele>193.0</ele><time>2026-04-12T09:31:04.118Z</time></trkpt><trkpt lat="43.5861985" lon="6.8202194"><ele>194.16666666666666</ele><time>2026-04-12T09:31:06.119Z</time></trkpt><trkpt lat="43.5861548" lon="6.8203105"><ele>195.33333333333331</ele><time>2026-04-12T09:31:08.119Z</time></trkpt><trkpt lat="43.5861058" lon="6.8203841"><ele>196.5</ele><time>2026-04-12T09:31:10.119Z</time></trkpt><trkpt lat="43.586063" lon="6.8204733"><ele>197.66666666666669</ele><time>2026-04-12T09:31:12.119Z</time></trkpt><trkpt lat="43.5860066" lon="6.8205803"><ele>198.83333333333334</ele><time>2026-04-12T09:31:14.119Z</time></trkpt><trkpt lat="43.5859438" lon="6.8206997"><ele>200.0</ele><time>2026-04-12T09:31:16.119Z</time></trkpt><trkpt lat="43.5858863" lon="6.8208004"><ele>200.00000000000003</ele><time>2026-04-12T09:31:18.119Z</time></trkpt><trkpt lat="43.5858213" lon="6.8208878"><ele>200.0</ele><time>2026-04-12T09:31:20.119Z</time></trkpt><trkpt lat="43.5857421" lon="6.8209322"><ele>200.0</ele><time>2026-04-12T09:31:22.119Z</time></trkpt><trkpt lat="43.5856472" lon="6.8209147"><ele>200.0</ele><time>2026-04-12T09:31:24.119Z</time></trkpt><trkpt lat="43.5855716" lon="6.8208996"><ele>200.00000000000003</ele><time>2026-04-12T09:31:26.119Z</time></trkpt><trkpt lat="43.5854977" lon="6.8209043"><ele>200.0</ele><time>2026-04-12T09:31:28.12Z</time></trkpt><trkpt lat="43.5854046" lon="6.8209298"><ele>203.00000000000003</ele><time>2026-04-12T09:31:30.119Z</time></trkpt><trkpt lat="43.5853328" lon="6.8209821"><ele>206.0</ele><time>2026-04-12T09:31:32.119Z</time></trkpt><trkpt lat="43.5852769" lon="6.8210489"><ele>209.0</ele><time>2026-04-12T09:31:34.12Z</time></trkpt><trkpt lat="43.585235" lon="6.8211283"><ele>212.0</ele><time>2026-04-12T09:31:36.119Z</time></trkpt><trkpt lat="43.5851945" lon="6.8212361"><ele>215.00000000000003</ele><time>2026-04-12T09:31:38.119Z</time></trkpt><trkpt lat="43.585209" lon="6.821326"><ele>218.0</ele><time>2026-04-12T09:31:40.119Z</time></trkpt><trkpt lat="43.5852506" lon="6.8214293"><ele>218.00000000000003</ele><time>2026-04-12T09:31:42.121Z</time></trkpt><trkpt lat="43.585305" lon="6.8215397"><ele>218.0</ele><time>2026-04-12T09:31:45.119Z</time></trkpt><trkpt lat="43.5853272" lon="6.821664"><ele>218.0</ele><time>2026-04-12T09:31:47.12Z</time></trkpt><trkpt lat="43.5853378" lon="6.8217845"><ele>218.0</ele><time>2026-04-12T09:31:49.119Z</time></trkpt><trkpt lat="43.5853342" lon="6.8218716"><ele>218.00000000000003</ele><time>2026-04-12T09:31:51.12Z</time></trkpt><trkpt lat="43.585309" lon="6.8219752"><ele>218.0</ele><time>2026-04-12T09:31:53.12Z</time></trkpt><trkpt lat="43.5852979" lon="6.8220616"><ele>216.60000000000002</ele><time>2026-04-12T09:31:54.121Z</time></trkpt><trkpt lat="43.5852482" lon="6.8222257"><ele>215.20000000000002</ele><time>2026-04-12T09:31:56.12Z</time></trkpt><trkpt lat="43.585195" lon="6.8223529"><ele>213.8</ele><time>2026-04-12T09:31:58.12Z</time></trkpt><trkpt lat="43.5851313" lon="6.8224387"><ele>212.4</ele><time>2026-04-12T09:32:00.12Z</time></trkpt><trkpt lat="43.585056" lon="6.822503"><ele>211.0</ele><time>2026-04-12T09:32:02.12Z</time></trkpt><trkpt lat="43.5849743" lon="6.8225549"><ele>210.99999999999997</ele><time>2026-04-12T09:32:04.12Z</time></trkpt><trkpt lat="43.5848927" lon="6.8226113"><ele>211.0</ele><time>2026-04-12T09:32:06.12Z</time></trkpt><trkpt lat="43.5848184" lon="6.8226893"><ele>211.0</ele><time>2026-04-12T09:32:08.12Z</time></trkpt><trkpt lat="43.5847649" lon="6.8227842"><ele>211.0</ele><time>2026-04-12T09:32:10.12Z</time></trkpt><trkpt lat="43.5847514" lon="6.8228873"><ele>210.99999999999997</ele><time>2026-04-12T09:32:12.12Z</time></trkpt><trkpt lat="43.584763" lon="6.8229862"><ele>211.0</ele><time>2026-04-12T09:32:14.121Z</time></trkpt><trkpt lat="43.584778" lon="6.8231101"><ele>210.16666666666666</ele><time>2026-04-12T09:32:16.12Z</time></trkpt><trkpt lat="43.5847914" lon="6.8232298"><ele>209.33333333333331</ele><time>2026-04-12T09:32:18.12Z</time></trkpt><trkpt lat="43.5847809" lon="6.8233445"><ele>208.5</ele><time>2026-04-12T09:32:20.121Z</time></trkpt><trkpt lat="43.5847597" lon="6.8234611"><ele>207.66666666666669</ele><time>2026-04-12T09:32:22.12Z</time></trkpt><trkpt lat="43.5847247" lon="6.8235785"><ele>206.83333333333334</ele><time>2026-04-12T09:32:24.121Z</time></trkpt><trkpt lat="43.5846802" lon="6.8236794"><ele>206.0</ele><time>2026-04-12T09:32:26.121Z</time></trkpt><trkpt lat="43.5846265" lon="6.8237699"><ele>206.0</ele><time>2026-04-12T09:32:28.12Z</time></trkpt><trkpt lat="43.5845592" lon="6.8238455"><ele>206.0</ele><time>2026-04-12T09:32:30.12Z</time></trkpt><trkpt lat="43.5844736" lon="6.8238393"><ele>206.0</ele><time>2026-04-12T09:32:32.12Z</time></trkpt><trkpt lat="43.5844004" lon="6.8237655"><ele>206.0</ele><time>2026-04-12T09:32:34.121Z</time></trkpt><trkpt lat="43.5843301" lon="6.8236746"><ele>206.0</ele><time>2026-04-12T09:32:36.121Z</time></trkpt><trkpt lat="43.5842503" lon="6.8235924"><ele>206.0</ele><time>2026-04-12T09:32:38.122Z</time></trkpt><trkpt lat="43.5841603" lon="6.8235261"><ele>206.0</ele><time>2026-04-12T09:32:40.121Z</time></trkpt><trkpt lat="43.58407" lon="6.8234602"><ele>206.0</ele><time>2026-04-12T09:32:42.121Z</time></trkpt><trkpt lat="43.5839721" lon="6.8234"><ele>206.0</ele><time>2026-04-12T09:32:44.121Z</time></trkpt><trkpt lat="43.5838618" lon="6.8233736"><ele>206.0</ele><time>2026-04-12T09:32:46.121Z</time></trkpt><trkpt lat="43.5837429" lon="6.8233665"><ele>208.28571428571428</ele><time>2026-04-12T09:32:48.121Z</time></trkpt><trkpt lat="43.5836736" lon="6.8233716"><ele>210.57142857142856</ele><time>2026-04-12T09:32:49.121Z</time></trkpt><trkpt lat="43.5836029" lon="6.8233787"><ele>212.85714285714283</ele><time>2026-04-12T09:32:50.121Z</time></trkpt><trkpt lat="43.5835336" lon="6.823389"><ele>215.14285714285714</ele><time>2026-04-12T09:32:51.121Z</time></trkpt><trkpt lat="43.5834674" lon="6.8234018"><ele>217.42857142857144</ele><time>2026-04-12T09:32:52.121Z</time></trkpt><trkpt lat="43.5833992" lon="6.8234135"><ele>219.7142857142857</ele><time>2026-04-12T09:32:53.121Z</time></trkpt><trkpt lat="43.583316" lon="6.8234205"><ele>222.0</ele><time>2026-04-12T09:32:54.121Z</time></trkpt><trkpt lat="43.5832413" lon="6.8234218"><ele>222.0</ele><time>2026-04-12T09:32:55.121Z</time></trkpt><trkpt lat="43.5831684" lon="6.8234204"><ele>222.0</ele><time>2026-04-12T09:32:56.121Z</time></trkpt><trkpt lat="43.5830993" lon="6.8234367"><ele>222.0</ele><time>2026-04-12T09:32:57.121Z</time></trkpt><trkpt lat="43.583031" lon="6.8234717"><ele>222.0</ele><time>2026-04-12T09:32:58.121Z</time></trkpt><trkpt lat="43.5829643" lon="6.8235127"><ele>222.0</ele><time>2026-04-12T09:32:59.121Z</time></trkpt><trkpt lat="43.5828962" lon="6.8235581"><ele>222.0</ele><time>2026-04-12T09:33:00.121Z</time></trkpt><trkpt lat="43.5828184" lon="6.8235797"><ele>222.0</ele><time>2026-04-12T09:33:01.121Z</time></trkpt><trkpt lat="43.5827468" lon="6.8235921"><ele>217.6</ele><time>2026-04-12T09:33:02.121Z</time></trkpt><trkpt lat="43.582602" lon="6.8237056"><ele>213.2</ele><time>2026-04-12T09:33:04.121Z</time></trkpt><trkpt lat="43.5825296" lon="6.8237667"><ele>208.8</ele><time>2026-04-12T09:33:05.121Z</time></trkpt><trkpt lat="43.5824515" lon="6.8238231"><ele>204.4</ele><time>2026-04-12T09:33:06.122Z</time></trkpt><trkpt lat="43.5823739" lon="6.8238774"><ele>200.0</ele><time>2026-04-12T09:33:07.121Z</time></trkpt><trkpt lat="43.5822937" lon="6.823925"><ele>200.00000000000003</ele><time>2026-04-12T09:33:08.121Z</time></trkpt><trkpt lat="43.5822126" lon="6.8239655"><ele>200.0</ele><time>2026-04-12T09:33:09.121Z</time></trkpt><trkpt lat="43.5821321" lon="6.8240058"><ele>200.0</ele><time>2026-04-12T09:33:10.123Z</time></trkpt><trkpt lat="43.5820533" lon="6.8240453"><ele>200.0</ele><time>2026-04-12T09:33:11.122Z</time></trkpt><trkpt lat="43.581974" lon="6.8240825"><ele>200.00000000000003</ele><time>2026-04-12T09:33:12.122Z</time></trkpt><trkpt lat="43.5818921" lon="6.8241141"><ele>200.0</ele><time>2026-04-12T09:33:13.121Z</time></trkpt><trkpt lat="43.5818045" lon="6.8241414"><ele>200.6</ele><time>2026-04-12T09:33:14.121Z</time></trkpt><trkpt lat="43.5817126" lon="6.8241185"><ele>201.2</ele><time>2026-04-12T09:33:15.121Z</time></trkpt><trkpt lat="43.5816386" lon="6.8240464"><ele>201.8</ele><time>2026-04-12T09:33:16.122Z</time></trkpt><trkpt lat="43.5815735" lon="6.8239579"><ele>202.4</ele><time>2026-04-12T09:33:17.121Z</time></trkpt><trkpt lat="43.5815367" lon="6.8238391"><ele>203.0</ele><time>2026-04-12T09:33:18.123Z</time></trkpt><trkpt lat="43.5815194" lon="6.8237099"><ele>203.0</ele><time>2026-04-12T09:33:19.122Z</time></trkpt><trkpt lat="43.5815056" lon="6.8235801"><ele>203.0</ele><time>2026-04-12T09:33:20.121Z</time></trkpt><trkpt lat="43.581493" lon="6.8234542"><ele>203.0</ele><time>2026-04-12T09:33:21.122Z</time></trkpt><trkpt lat="43.5814905" lon="6.8233283"><ele>203.0</ele><time>2026-04-12T09:33:22.122Z</time></trkpt><trkpt lat="43.5815031" lon="6.8232035"><ele>203.0</ele><time>2026-04-12T09:33:23.122Z</time></trkpt><trkpt lat="43.5815322" lon="6.8230858"><ele>204.16666666666669</ele><time>2026-04-12T09:33:24.122Z</time></trkpt><trkpt lat="43.5815811" lon="6.8229737"><ele>205.33333333333334</ele><time>2026-04-12T09:33:25.122Z</time></trkpt><trkpt lat="43.5816401" lon="6.8228715"><ele>206.5</ele><time>2026-04-12T09:33:26.122Z</time></trkpt><trkpt lat="43.5817015" lon="6.8227869"><ele>207.66666666666669</ele><time>2026-04-12T09:33:27.122Z</time></trkpt><trkpt lat="43.5817278" lon="6.822692"><ele>208.83333333333334</ele><time>2026-04-12T09:33:28.123Z</time></trkpt><trkpt lat="43.5817047" lon="6.8225947"><ele>210.0</ele><time>2026-04-12T09:33:29.122Z</time></trkpt><trkpt lat="43.5816387" lon="6.8225057"><ele>210.8</ele><time>2026-04-12T09:33:30.122Z</time></trkpt><trkpt lat="43.5815434" lon="6.8224592"><ele>211.6</ele><time>2026-04-12T09:33:31.122Z</time></trkpt><trkpt lat="43.5814537" lon="6.8224662"><ele>212.39999999999998</ele><time>2026-04-12T09:33:32.122Z</time></trkpt><trkpt lat="43.581366" lon="6.8224934"><ele>213.2</ele><time>2026-04-12T09:33:33.123Z</time></trkpt><trkpt lat="43.5812737" lon="6.8225127"><ele>214.0</ele><time>2026-04-12T09:33:34.122Z</time></trkpt><trkpt lat="43.5811723" lon="6.8225431"><ele>212.39999999999998</ele><time>2026-04-12T09:33:35.122Z</time></trkpt><trkpt lat="43.5810705" lon="6.8225784"><ele>210.79999999999998</ele><time>2026-04-12T09:33:36.122Z</time></trkpt><trkpt lat="43.5809699" lon="6.8225849"><ele>209.2</ele><time>2026-04-12T09:33:37.122Z</time></trkpt><trkpt lat="43.5808789" lon="6.8225661"><ele>207.60000000000002</ele><time>2026-04-12T09:33:38.122Z</time></trkpt><trkpt lat="43.5807735" lon="6.8225274"><ele>206.0</ele><time>2026-04-12T09:33:39.122Z</time></trkpt><trkpt lat="43.5806756" lon="6.8224872"><ele>206.0</ele><time>2026-04-12T09:33:40.122Z</time></trkpt><trkpt lat="43.5805847" lon="6.8224423"><ele>206.0</ele><time>2026-04-12T09:33:41.122Z</time></trkpt><trkpt lat="43.5804954" lon="6.8223995"><ele>206.0</ele><time>2026-04-12T09:33:42.122Z</time></trkpt><trkpt lat="43.5804082" lon="6.8223575"><ele>206.0</ele><time>2026-04-12T09:33:43.122Z</time></trkpt><trkpt lat="43.5803299" lon="6.8222801"><ele>206.0</ele><time>2026-04-12T09:33:44.123Z</time></trkpt><trkpt lat="43.580246" lon="6.8222071"><ele>204.8</ele><time>2026-04-12T09:33:45.122Z</time></trkpt><trkpt lat="43.5801647" lon="6.8221303"><ele>203.60000000000002</ele><time>2026-04-12T09:33:46.122Z</time></trkpt><trkpt lat="43.5800815" lon="6.8220726"><ele>202.4</ele><time>2026-04-12T09:33:47.122Z</time></trkpt><trkpt lat="43.5800012" lon="6.822012"><ele>201.2</ele><time>2026-04-12T09:33:48.122Z</time></trkpt><trkpt lat="43.5799162" lon="6.8219566"><ele>200.0</ele><time>2026-04-12T09:33:49.122Z</time></trkpt><trkpt lat="43.5798296" lon="6.8219113"><ele>200.0</ele><time>2026-04-12T09:33:50.122Z</time></trkpt><trkpt lat="43.5797399" lon="6.8218738"><ele>200.0</ele><time>2026-04-12T09:33:51.122Z</time></trkpt><trkpt lat="43.579651" lon="6.8218407"><ele>200.0</ele><time>2026-04-12T09:33:52.122Z</time></trkpt><trkpt lat="43.5795569" lon="6.8218002"><ele>200.0</ele><time>2026-04-12T09:33:53.122Z</time></trkpt><trkpt lat="43.5794652" lon="6.8217583"><ele>200.0</ele><time>2026-04-12T09:33:54.122Z</time></trkpt><trkpt lat="43.5793806" lon="6.8217056"><ele>200.33333333333334</ele><time>2026-04-12T09:33:55.123Z</time></trkpt><trkpt lat="43.5793016" lon="6.8216645"><ele>200.66666666666669</ele><time>2026-04-12T09:33:56.122Z</time></trkpt><trkpt lat="43.5792302" lon="6.8216476"><ele>201.0</ele><time>2026-04-12T09:33:57.123Z</time></trkpt><trkpt lat="43.5791713" lon="6.8216876"><ele>201.33333333333331</ele><time>2026-04-12T09:33:58.123Z</time></trkpt><trkpt lat="43.5791088" lon="6.8217827"><ele>201.66666666666666</ele><time>2026-04-12T09:33:59.123Z</time></trkpt><trkpt lat="43.5790628" lon="6.8218848"><ele>202.0</ele><time>2026-04-12T09:34:00.123Z</time></trkpt><trkpt lat="43.5790323" lon="6.8220036"><ele>201.99999999999997</ele><time>2026-04-12T09:34:01.122Z</time></trkpt><trkpt lat="43.5790175" lon="6.8221192"><ele>202.0</ele><time>2026-04-12T09:34:02.123Z</time></trkpt><trkpt lat="43.5790053" lon="6.8222436"><ele>202.0</ele><time>2026-04-12T09:34:03.122Z</time></trkpt><trkpt lat="43.5790004" lon="6.8223511"><ele>202.0</ele><time>2026-04-12T09:34:04.123Z</time></trkpt><trkpt lat="43.5790049" lon="6.8224552"><ele>201.99999999999997</ele><time>2026-04-12T09:34:05.123Z</time></trkpt><trkpt lat="43.5790249" lon="6.8225584"><ele>202.0</ele><time>2026-04-12T09:34:06.123Z</time></trkpt><trkpt lat="43.5790605" lon="6.822652"><ele>202.33333333333331</ele><time>2026-04-12T09:34:07.123Z</time></trkpt><trkpt lat="43.579106" lon="6.8227349"><ele>202.66666666666666</ele><time>2026-04-12T09:34:08.122Z</time></trkpt><trkpt lat="43.57916" lon="6.8228054"><ele>203.0</ele><time>2026-04-12T09:34:09.123Z</time></trkpt><trkpt lat="43.5792191" lon="6.8228359"><ele>203.33333333333331</ele><time>2026-04-12T09:34:10.123Z</time></trkpt><trkpt lat="43.5792819" lon="6.8228614"><ele>203.66666666666666</ele><time>2026-04-12T09:34:11.123Z</time></trkpt><trkpt lat="43.5794048" lon="6.8228946"><ele>204.0</ele><time>2026-04-12T09:34:13.123Z</time></trkpt><trkpt lat="43.5795177" lon="6.8229141"><ele>204.0</ele><time>2026-04-12T09:34:15.123Z</time></trkpt><trkpt lat="43.5796251" lon="6.8229207"><ele>204.0</ele><time>2026-04-12T09:34:17.123Z</time></trkpt><trkpt lat="43.5797254" lon="6.8229188"><ele>204.0</ele><time>2026-04-12T09:34:19.123Z</time></trkpt><trkpt lat="43.5798188" lon="6.8229466"><ele>204.0</ele><time>2026-04-12T09:34:21.123Z</time></trkpt><trkpt lat="43.5799134" lon="6.8229981"><ele>204.0</ele><time>2026-04-12T09:34:23.123Z</time></trkpt><trkpt lat="43.5799855" lon="6.8230635"><ele>204.0</ele><time>2026-04-12T09:34:25.123Z</time></trkpt><trkpt lat="43.579995" lon="6.8231587"><ele>204.0</ele><time>2026-04-12T09:34:27.124Z</time></trkpt><trkpt lat="43.5799612" lon="6.8232824"><ele>204.0</ele><time>2026-04-12T09:34:29.123Z</time></trkpt><trkpt lat="43.5799093" lon="6.8233655"><ele>204.0</ele><time>2026-04-12T09:34:31.124Z</time></trkpt><trkpt lat="43.5798511" lon="6.8234568"><ele>204.0</ele><time>2026-04-12T09:34:33.123Z</time></trkpt><trkpt lat="43.5797995" lon="6.8235428"><ele>204.0</ele><time>2026-04-12T09:34:35.124Z</time></trkpt><trkpt lat="43.579744" lon="6.8236346"><ele>205.5</ele><time>2026-04-12T09:34:37.123Z</time></trkpt><trkpt lat="43.5797034" lon="6.8237248"><ele>207.0</ele><time>2026-04-12T09:34:39.123Z</time></trkpt><trkpt lat="43.5796718" lon="6.8238152"><ele>208.5</ele><time>2026-04-12T09:34:41.123Z</time></trkpt><trkpt lat="43.5796492" lon="6.8239035"><ele>210.0</ele><time>2026-04-12T09:34:43.124Z</time></trkpt><trkpt lat="43.5796473" lon="6.8239947"><ele>211.5</ele><time>2026-04-12T09:34:45.123Z</time></trkpt><trkpt lat="43.5796852" lon="6.8240899"><ele>213.0</ele><time>2026-04-12T09:34:47.123Z</time></trkpt><trkpt lat="43.5797456" lon="6.8241802"><ele>213.0</ele><time>2026-04-12T09:34:50.124Z</time></trkpt><trkpt lat="43.5797966" lon="6.8242851"><ele>213.0</ele><time>2026-04-12T09:34:53.124Z</time></trkpt><trkpt lat="43.5798463" lon="6.8243803"><ele>213.0</ele><time>2026-04-12T09:34:55.124Z</time></trkpt><trkpt lat="43.5799248" lon="6.824422"><ele>213.0</ele><time>2026-04-12T09:34:58.125Z</time></trkpt><trkpt lat="43.5800119" lon="6.8244143"><ele>213.0</ele><time>2026-04-12T09:35:01.124Z</time></trkpt><trkpt lat="43.5800844" lon="6.8243707"><ele>213.0</ele><time>2026-04-12T09:35:03.124Z</time></trkpt><trkpt lat="43.5801583" lon="6.8242926"><ele>213.0</ele><time>2026-04-12T09:35:06.124Z</time></trkpt><trkpt lat="43.5802247" lon="6.8242411"><ele>213.0</ele><time>2026-04-12T09:35:08.124Z</time></trkpt><trkpt lat="43.580308" lon="6.8242868"><ele>213.0</ele><time>2026-04-12T09:35:11.124Z</time></trkpt><trkpt lat="43.5803658" lon="6.8243343"><ele>213.0</ele><time>2026-04-12T09:35:13.124Z</time></trkpt><trkpt lat="43.5804247" lon="6.8244213"><ele>213.0</ele><time>2026-04-12T09:35:16.124Z</time></trkpt><trkpt lat="43.5804879" lon="6.824517"><ele>213.0</ele><time>2026-04-12T09:35:18.124Z</time></trkpt><trkpt lat="43.5805335" lon="6.8246109"><ele>214.0</ele><time>2026-04-12T09:35:20.124Z</time></trkpt><trkpt lat="43.5805701" lon="6.8246883"><ele>215.0</ele><time>2026-04-12T09:35:22.124Z</time></trkpt><trkpt lat="43.5805996" lon="6.8248146"><ele>216.0</ele><time>2026-04-12T09:35:25.124Z</time></trkpt><trkpt lat="43.5806185" lon="6.8249209"><ele>217.0</ele><time>2026-04-12T09:35:28.124Z</time></trkpt><trkpt lat="43.5806496" lon="6.8250474"><ele>218.0</ele><time>2026-04-12T09:35:31.125Z</time></trkpt><trkpt lat="43.5806935" lon="6.825162"><ele>219.0</ele><time>2026-04-12T09:35:34.124Z</time></trkpt><trkpt lat="43.5807542" lon="6.8252574"><ele>221.71428571428572</ele><time>2026-04-12T09:35:37.125Z</time></trkpt><trkpt lat="43.5808114" lon="6.8253287"><ele>224.42857142857142</ele><time>2026-04-12T09:35:40.125Z</time></trkpt><trkpt lat="43.5808598" lon="6.8253864"><ele>227.14285714285714</ele><time>2026-04-12T09:35:42.126Z</time></trkpt><trkpt lat="43.5809117" lon="6.8254375"><ele>229.85714285714286</ele><time>2026-04-12T09:35:44.125Z</time></trkpt><trkpt lat="43.5809905" lon="6.8254874"><ele>232.57142857142856</ele><time>2026-04-12T09:35:47.125Z</time></trkpt><trkpt lat="43.5810448" lon="6.8255443"><ele>235.28571428571428</ele><time>2026-04-12T09:35:50.126Z</time></trkpt><trkpt lat="43.5811177" lon="6.8256023"><ele>238.0</ele><time>2026-04-12T09:35:54.125Z</time></trkpt><trkpt lat="43.5811805" lon="6.8256792"><ele>235.14285714285714</ele><time>2026-04-12T09:35:57.125Z</time></trkpt><trkpt lat="43.5812353" lon="6.8257278"><ele>232.28571428571428</ele><time>2026-04-12T09:35:59.125Z</time></trkpt><trkpt lat="43.5812932" lon="6.8257951"><ele>229.42857142857144</ele><time>2026-04-12T09:36:02.125Z</time></trkpt><trkpt lat="43.581322" lon="6.8258868"><ele>226.57142857142856</ele><time>2026-04-12T09:36:05.125Z</time></trkpt><trkpt lat="43.5813197" lon="6.8259874"><ele>223.71428571428572</ele><time>2026-04-12T09:36:08.125Z</time></trkpt><trkpt lat="43.5813044" lon="6.8260896"><ele>220.85714285714286</ele><time>2026-04-12T09:36:11.125Z</time></trkpt><trkpt lat="43.5812846" lon="6.8262061"><ele>218.0</ele><time>2026-04-12T09:36:13.126Z</time></trkpt><trkpt lat="43.5812568" lon="6.8263073"><ele>218.00000000000003</ele><time>2026-04-12T09:36:15.125Z</time></trkpt><trkpt lat="43.5812286" lon="6.8264012"><ele>218.0</ele><time>2026-04-12T09:36:17.125Z</time></trkpt><trkpt lat="43.5812303" lon="6.826515"><ele>218.0</ele><time>2026-04-12T09:36:21.126Z</time></trkpt><trkpt lat="43.5812625" lon="6.8266127"><ele>218.0</ele><time>2026-04-12T09:36:24.125Z</time></trkpt><trkpt lat="43.5812981" lon="6.8266968"><ele>218.00000000000003</ele><time>2026-04-12T09:36:27.125Z</time></trkpt><trkpt lat="43.5812985" lon="6.8267991"><ele>218.0</ele><time>2026-04-12T09:36:30.126Z</time></trkpt><trkpt lat="43.5812984" lon="6.8269036"><ele>218.66666666666669</ele><time>2026-04-12T09:36:33.126Z</time></trkpt><trkpt lat="43.5812905" lon="6.8270146"><ele>219.33333333333334</ele><time>2026-04-12T09:36:36.126Z</time></trkpt><trkpt lat="43.5812651" lon="6.8271227"><ele>220.0</ele><time>2026-04-12T09:36:38.126Z</time></trkpt><trkpt lat="43.581233" lon="6.8272249"><ele>220.66666666666669</ele><time>2026-04-12T09:36:40.126Z</time></trkpt><trkpt lat="43.5811933" lon="6.8273224"><ele>221.33333333333334</ele><time>2026-04-12T09:36:42.126Z</time></trkpt><trkpt lat="43.581172" lon="6.8274185"><ele>222.0</ele><time>2026-04-12T09:36:44.126Z</time></trkpt><trkpt lat="43.5811829" lon="6.8275406"><ele>222.0</ele><time>2026-04-12T09:36:46.126Z</time></trkpt><trkpt lat="43.5812032" lon="6.8276401"><ele>222.0</ele><time>2026-04-12T09:36:49.126Z</time></trkpt><trkpt lat="43.5812215" lon="6.8277433"><ele>222.0</ele><time>2026-04-12T09:36:53.126Z</time></trkpt><trkpt lat="43.5812363" lon="6.8278338"><ele>222.0</ele><time>2026-04-12T09:36:56.126Z</time></trkpt><trkpt lat="43.5812534" lon="6.8279563"><ele>222.0</ele><time>2026-04-12T09:36:59.126Z</time></trkpt><trkpt lat="43.5812817" lon="6.8280607"><ele>222.0</ele><time>2026-04-12T09:37:02.127Z</time></trkpt><trkpt lat="43.5812978" lon="6.8281589"><ele>224.5</ele><time>2026-04-12T09:37:04.127Z</time></trkpt><trkpt lat="43.5813208" lon="6.8282507"><ele>227.0</ele><time>2026-04-12T09:37:06.126Z</time></trkpt><trkpt lat="43.5813559" lon="6.8283587"><ele>229.5</ele><time>2026-04-12T09:37:08.127Z</time></trkpt><trkpt lat="43.5813908" lon="6.8284615"><ele>232.0</ele><time>2026-04-12T09:37:10.127Z</time></trkpt><trkpt lat="43.5814249" lon="6.828571"><ele>234.5</ele><time>2026-04-12T09:37:13.127Z</time></trkpt><trkpt lat="43.5814696" lon="6.8286712"><ele>237.0</ele><time>2026-04-12T09:37:16.128Z</time></trkpt><trkpt lat="43.5815195" lon="6.8287307"><ele>240.83333333333334</ele><time>2026-04-12T09:37:18.127Z</time></trkpt><trkpt lat="43.5815946" lon="6.8287962"><ele>244.66666666666669</ele><time>2026-04-12T09:37:21.127Z</time></trkpt><trkpt lat="43.5816533" lon="6.8288405"><ele>248.5</ele><time>2026-04-12T09:37:23.127Z</time></trkpt><trkpt lat="43.5817226" lon="6.8288761"><ele>252.33333333333334</ele><time>2026-04-12T09:37:25.127Z</time></trkpt><trkpt lat="43.5817964" lon="6.8289104"><ele>256.1666666666667</ele><time>2026-04-12T09:37:27.127Z</time></trkpt><trkpt lat="43.5818659" lon="6.8289302"><ele>260.0</ele><time>2026-04-12T09:37:29.127Z</time></trkpt><trkpt lat="43.5819517" lon="6.8289437"><ele>258.0</ele><time>2026-04-12T09:37:32.128Z</time></trkpt><trkpt lat="43.5820332" lon="6.8289629"><ele>256.0</ele><time>2026-04-12T09:37:35.127Z</time></trkpt><trkpt lat="43.582117" lon="6.8289777"><ele>254.0</ele><time>2026-04-12T09:37:38.127Z</time></trkpt><trkpt lat="43.5822043" lon="6.8289969"><ele>252.0</ele><time>2026-04-12T09:37:41.127Z</time></trkpt><trkpt lat="43.5822683" lon="6.8290143"><ele>250.00000000000003</ele><time>2026-04-12T09:37:43.127Z</time></trkpt><trkpt lat="43.5823475" lon="6.8290296"><ele>248.0</ele><time>2026-04-12T09:37:46.128Z</time></trkpt><trkpt lat="43.5824291" lon="6.8290575"><ele>248.00000000000003</ele><time>2026-04-12T09:37:49.127Z</time></trkpt><trkpt lat="43.5825042" lon="6.8291205"><ele>248.0</ele><time>2026-04-12T09:37:52.129Z</time></trkpt><trkpt lat="43.582578" lon="6.8291708"><ele>248.0</ele><time>2026-04-12T09:37:55.128Z</time></trkpt><trkpt lat="43.5826621" lon="6.8292251"><ele>248.0</ele><time>2026-04-12T09:37:58.128Z</time></trkpt><trkpt lat="43.5827414" lon="6.829286"><ele>248.00000000000003</ele><time>2026-04-12T09:38:01.128Z</time></trkpt><trkpt lat="43.5828069" lon="6.829365"><ele>248.0</ele><time>2026-04-12T09:38:04.129Z</time></trkpt><trkpt lat="43.5828511" lon="6.8294446"><ele>247.14285714285717</ele><time>2026-04-12T09:38:07.128Z</time></trkpt><trkpt lat="43.5828848" lon="6.8295295"><ele>246.2857142857143</ele><time>2026-04-12T09:38:11.128Z</time></trkpt><trkpt lat="43.5828966" lon="6.8296196"><ele>245.42857142857144</ele><time>2026-04-12T09:38:15.128Z</time></trkpt><trkpt lat="43.5829061" lon="6.8297287"><ele>244.57142857142856</ele><time>2026-04-12T09:38:18.128Z</time></trkpt><trkpt lat="43.5829107" lon="6.8298184"><ele>243.7142857142857</ele><time>2026-04-12T09:38:21.128Z</time></trkpt><trkpt lat="43.5829162" lon="6.8299176"><ele>242.85714285714283</ele><time>2026-04-12T09:38:24.128Z</time></trkpt><trkpt lat="43.5829329" lon="6.8300174"><ele>242.0</ele><time>2026-04-12T09:38:27.129Z</time></trkpt><trkpt lat="43.5829434" lon="6.8301284"><ele>242.66666666666669</ele><time>2026-04-12T09:38:30.128Z</time></trkpt><trkpt lat="43.5829329" lon="6.830252"><ele>243.33333333333334</ele><time>2026-04-12T09:38:34.128Z</time></trkpt><trkpt lat="43.5829176" lon="6.8303438"><ele>244.0</ele><time>2026-04-12T09:38:36.128Z</time></trkpt><trkpt lat="43.5828927" lon="6.8304453"><ele>244.66666666666669</ele><time>2026-04-12T09:38:39.128Z</time></trkpt><trkpt lat="43.5828698" lon="6.8305296"><ele>245.33333333333334</ele><time>2026-04-12T09:38:41.129Z</time></trkpt><trkpt lat="43.5828292" lon="6.8306072"><ele>246.0</ele><time>2026-04-12T09:38:43.128Z</time></trkpt><trkpt lat="43.5827835" lon="6.8307193"><ele>249.0</ele><time>2026-04-12T09:38:46.129Z</time></trkpt><trkpt lat="43.5827339" lon="6.8308294"><ele>252.0</ele><time>2026-04-12T09:38:49.129Z</time></trkpt><trkpt lat="43.582672" lon="6.8309215"><ele>255.0</ele><time>2026-04-12T09:38:52.129Z</time></trkpt><trkpt lat="43.58262" lon="6.8309842"><ele>258.0</ele><time>2026-04-12T09:38:54.13Z</time></trkpt><trkpt lat="43.5825608" lon="6.8310457"><ele>261.0</ele><time>2026-04-12T09:38:56.13Z</time></trkpt><trkpt lat="43.5824873" lon="6.8311065"><ele>264.0</ele><time>2026-04-12T09:38:59.129Z</time></trkpt><trkpt lat="43.5824383" lon="6.8311612"><ele>264.0</ele><time>2026-04-12T09:39:02.129Z</time></trkpt><trkpt lat="43.5823765" lon="6.8312254"><ele>264.0</ele><time>2026-04-12T09:39:05.129Z</time></trkpt><trkpt lat="43.582309" lon="6.8312831"><ele>264.0</ele><time>2026-04-12T09:39:08.129Z</time></trkpt><trkpt lat="43.5822357" lon="6.8313636"><ele>264.0</ele><time>2026-04-12T09:39:11.129Z</time></trkpt><trkpt lat="43.582192" lon="6.8314597"><ele>264.0</ele><time>2026-04-12T09:39:14.129Z</time></trkpt><trkpt lat="43.5821855" lon="6.8315479"><ele>264.0</ele><time>2026-04-12T09:39:16.129Z</time></trkpt><trkpt lat="43.5822066" lon="6.8316701"><ele>264.0</ele><time>2026-04-12T09:39:19.129Z</time></trkpt><trkpt lat="43.5822304" lon="6.8317814"><ele>264.0</ele><time>2026-04-12T09:39:22.129Z</time></trkpt><trkpt lat="43.5822552" lon="6.8318963"><ele>264.0</ele><time>2026-04-12T09:39:25.129Z</time></trkpt><trkpt lat="43.5822859" lon="6.8320133"><ele>264.0</ele><time>2026-04-12T09:39:28.129Z</time></trkpt><trkpt lat="43.5823149" lon="6.8321244"><ele>264.0</ele><time>2026-04-12T09:39:31.13Z</time></trkpt><trkpt lat="43.5823136" lon="6.8322445"><ele>264.0</ele><time>2026-04-12T09:39:34.13Z</time></trkpt><trkpt lat="43.5823244" lon="6.8323681"><ele>265.1666666666667</ele><time>2026-04-12T09:39:37.13Z</time></trkpt><trkpt lat="43.5823306" lon="6.8324961"><ele>266.3333333333333</ele><time>2026-04-12T09:39:40.13Z</time></trkpt><trkpt lat="43.5823563" lon="6.8326172"><ele>267.5</ele><time>2026-04-12T09:39:43.131Z</time></trkpt><trkpt lat="43.5824067" lon="6.8327183"><ele>268.66666666666663</ele><time>2026-04-12T09:39:46.13Z</time></trkpt><trkpt lat="43.5824833" lon="6.8327761"><ele>269.8333333333333</ele><time>2026-04-12T09:39:49.13Z</time></trkpt><trkpt lat="43.5825694" lon="6.8327802"><ele>271.0</ele><time>2026-04-12T09:39:52.13Z</time></trkpt><trkpt lat="43.5826606" lon="6.8327723"><ele>271.16666666666663</ele><time>2026-04-12T09:39:55.13Z</time></trkpt><trkpt lat="43.5827474" lon="6.8327762"><ele>271.3333333333333</ele><time>2026-04-12T09:39:58.131Z</time></trkpt><trkpt lat="43.5828276" lon="6.83282"><ele>271.5</ele><time>2026-04-12T09:40:01.13Z</time></trkpt><trkpt lat="43.5828882" lon="6.8329054"><ele>271.6666666666667</ele><time>2026-04-12T09:40:04.131Z</time></trkpt><trkpt lat="43.5829421" lon="6.8329908"><ele>271.83333333333337</ele><time>2026-04-12T09:40:07.131Z</time></trkpt><trkpt lat="43.5830005" lon="6.8330863"><ele>272.0</ele><time>2026-04-12T09:40:10.13Z</time></trkpt><trkpt lat="43.5830446" lon="6.8331928"><ele>272.0</ele><time>2026-04-12T09:40:13.131Z</time></trkpt><trkpt lat="43.5830763" lon="6.8332774"><ele>272.0</ele><time>2026-04-12T09:40:15.131Z</time></trkpt><trkpt lat="43.5831073" lon="6.8333653"><ele>272.0</ele><time>2026-04-12T09:40:17.131Z</time></trkpt><trkpt lat="43.5831326" lon="6.8334818"><ele>272.0</ele><time>2026-04-12T09:40:20.131Z</time></trkpt><trkpt lat="43.5831493" lon="6.8335991"><ele>272.0</ele><time>2026-04-12T09:40:23.131Z</time></trkpt><trkpt lat="43.5831537" lon="6.8337256"><ele>272.0</ele><time>2026-04-12T09:40:26.131Z</time></trkpt><trkpt lat="43.583164" lon="6.83385"><ele>273.33333333333337</ele><time>2026-04-12T09:40:29.131Z</time></trkpt><trkpt lat="43.5831848" lon="6.8339666"><ele>274.6666666666667</ele><time>2026-04-12T09:40:32.131Z</time></trkpt><trkpt lat="43.5831974" lon="6.8340724"><ele>276.0</ele><time>2026-04-12T09:40:35.131Z</time></trkpt><trkpt lat="43.5832071" lon="6.834169"><ele>277.3333333333333</ele><time>2026-04-12T09:40:38.131Z</time></trkpt><trkpt lat="43.583223" lon="6.8342851"><ele>278.66666666666663</ele><time>2026-04-12T09:40:41.131Z</time></trkpt><trkpt lat="43.5832409" lon="6.8343992"><ele>280.0</ele><time>2026-04-12T09:40:44.131Z</time></trkpt><trkpt lat="43.5832659" lon="6.8345157"><ele>281.0</ele><time>2026-04-12T09:40:47.131Z</time></trkpt><trkpt lat="43.583282" lon="6.8346361"><ele>282.0</ele><time>2026-04-12T09:40:50.131Z</time></trkpt><trkpt lat="43.5833061" lon="6.834755"><ele>283.0</ele><time>2026-04-12T09:40:53.131Z</time></trkpt><trkpt lat="43.5833304" lon="6.834876"><ele>284.0</ele><time>2026-04-12T09:40:56.131Z</time></trkpt><trkpt lat="43.5833573" lon="6.8349962"><ele>285.0</ele><time>2026-04-12T09:40:59.131Z</time></trkpt><trkpt lat="43.5834024" lon="6.8351055"><ele>285.1666666666667</ele><time>2026-04-12T09:41:02.131Z</time></trkpt><trkpt lat="43.5834583" lon="6.8352027"><ele>285.3333333333333</ele><time>2026-04-12T09:41:05.132Z</time></trkpt><trkpt lat="43.5835049" lon="6.8352621"><ele>285.5</ele><time>2026-04-12T09:41:07.132Z</time></trkpt><trkpt lat="43.5835658" lon="6.8353553"><ele>285.66666666666663</ele><time>2026-04-12T09:41:10.132Z</time></trkpt><trkpt lat="43.58362" lon="6.8354586"><ele>285.8333333333333</ele><time>2026-04-12T09:41:13.132Z</time></trkpt><trkpt lat="43.5836678" lon="6.8355605"><ele>286.0</ele><time>2026-04-12T09:41:16.132Z</time></trkpt><trkpt lat="43.5837148" lon="6.8356543"><ele>286.8333333333333</ele><time>2026-04-12T09:41:19.132Z</time></trkpt><trkpt lat="43.5837559" lon="6.8357548"><ele>287.66666666666663</ele><time>2026-04-12T09:41:22.133Z</time></trkpt><trkpt lat="43.5837979" lon="6.835846"><ele>288.5</ele><time>2026-04-12T09:41:25.132Z</time></trkpt><trkpt lat="43.5838428" lon="6.8359393"><ele>289.3333333333333</ele><time>2026-04-12T09:41:28.132Z</time></trkpt><trkpt lat="43.5838956" lon="6.8360297"><ele>290.1666666666667</ele><time>2026-04-12T09:41:31.132Z</time></trkpt><trkpt lat="43.5839544" lon="6.8361105"><ele>291.0</ele><time>2026-04-12T09:41:34.132Z</time></trkpt><trkpt lat="43.5840193" lon="6.8361831"><ele>291.0</ele><time>2026-04-12T09:41:37.132Z</time></trkpt><trkpt lat="43.5840823" lon="6.8362515"><ele>291.0</ele><time>2026-04-12T09:41:40.132Z</time></trkpt><trkpt lat="43.5841448" lon="6.8363288"><ele>291.0</ele><time>2026-04-12T09:41:43.132Z</time></trkpt><trkpt lat="43.5842064" lon="6.8364093"><ele>291.0</ele><time>2026-04-12T09:41:46.132Z</time></trkpt><trkpt lat="43.58427" lon="6.8364832"><ele>291.0</ele><time>2026-04-12T09:41:49.132Z</time></trkpt><trkpt lat="43.5843258" lon="6.8365638"><ele>291.0</ele><time>2026-04-12T09:41:52.133Z</time></trkpt><trkpt lat="43.5843871" lon="6.8366531"><ele>291.0</ele><time>2026-04-12T09:41:55.134Z</time></trkpt><trkpt lat="43.5844582" lon="6.8367262"><ele>291.0</ele><time>2026-04-12T09:41:58.133Z</time></trkpt><trkpt lat="43.5845307" lon="6.8367709"><ele>291.0</ele><time>2026-04-12T09:42:01.133Z</time></trkpt><trkpt lat="43.5845973" lon="6.8367908"><ele>291.0</ele><time>2026-04-12T09:42:03.133Z</time></trkpt><trkpt lat="43.5846629" lon="6.8368048"><ele>291.0</ele><time>2026-04-12T09:42:05.133Z</time></trkpt><trkpt lat="43.5847276" lon="6.8368083"><ele>291.0</ele><time>2026-04-12T09:42:07.133Z</time></trkpt><trkpt lat="43.5848006" lon="6.8368029"><ele>291.0</ele><time>2026-04-12T09:42:09.133Z</time></trkpt><trkpt lat="43.5848723" lon="6.8368015"><ele>291.1666666666667</ele><time>2026-04-12T09:42:11.133Z</time></trkpt><trkpt lat="43.5849472" lon="6.8367953"><ele>291.3333333333333</ele><time>2026-04-12T09:42:13.133Z</time></trkpt><trkpt lat="43.5850267" lon="6.8367975"><ele>291.5</ele><time>2026-04-12T09:42:15.133Z</time></trkpt><trkpt lat="43.5851039" lon="6.8368074"><ele>291.66666666666663</ele><time>2026-04-12T09:42:17.133Z</time></trkpt><trkpt lat="43.5851807" lon="6.8368294"><ele>291.8333333333333</ele><time>2026-04-12T09:42:19.133Z</time></trkpt><trkpt lat="43.5852501" lon="6.8368619"><ele>292.0</ele><time>2026-04-12T09:42:21.133Z</time></trkpt><trkpt lat="43.5853179" lon="6.8369063"><ele>293.57142857142856</ele><time>2026-04-12T09:42:23.133Z</time></trkpt><trkpt lat="43.585385" lon="6.8369644"><ele>295.14285714285717</ele><time>2026-04-12T09:42:25.133Z</time></trkpt><trkpt lat="43.5854428" lon="6.8370314"><ele>296.7142857142857</ele><time>2026-04-12T09:42:27.133Z</time></trkpt><trkpt lat="43.58549" lon="6.8371036"><ele>298.2857142857143</ele><time>2026-04-12T09:42:29.133Z</time></trkpt><trkpt lat="43.5855284" lon="6.8371757"><ele>299.85714285714283</ele><time>2026-04-12T09:42:31.134Z</time></trkpt><trkpt lat="43.5855675" lon="6.8372505"><ele>301.42857142857144</ele><time>2026-04-12T09:42:33.133Z</time></trkpt><trkpt lat="43.5856152" lon="6.837356"><ele>303.0</ele><time>2026-04-12T09:42:36.134Z</time></trkpt><trkpt lat="43.5856625" lon="6.8374622"><ele>303.0</ele><time>2026-04-12T09:42:39.134Z</time></trkpt><trkpt lat="43.5856929" lon="6.8375394"><ele>303.0</ele><time>2026-04-12T09:42:41.134Z</time></trkpt><trkpt lat="43.5857423" lon="6.8376457"><ele>303.0</ele><time>2026-04-12T09:42:44.134Z</time></trkpt><trkpt lat="43.585793" lon="6.837753"><ele>303.0</ele><time>2026-04-12T09:42:47.134Z</time></trkpt><trkpt lat="43.5858257" lon="6.8378277"><ele>303.0</ele><time>2026-04-12T09:42:49.134Z</time></trkpt><trkpt lat="43.5858618" lon="6.837901"><ele>303.0</ele><time>2026-04-12T09:42:51.134Z</time></trkpt><trkpt lat="43.5859077" lon="6.8380086"><ele>303.1666666666667</ele><time>2026-04-12T09:42:54.134Z</time></trkpt><trkpt lat="43.585945" lon="6.8380882"><ele>303.3333333333333</ele><time>2026-04-12T09:42:56.134Z</time></trkpt><trkpt lat="43.585981" lon="6.8381595"><ele>303.5</ele><time>2026-04-12T09:42:58.134Z</time></trkpt><trkpt lat="43.5860205" lon="6.8382664"><ele>303.66666666666663</ele><time>2026-04-12T09:43:01.135Z</time></trkpt><trkpt lat="43.5860743" lon="6.8383642"><ele>303.8333333333333</ele><time>2026-04-12T09:43:04.134Z</time></trkpt><trkpt lat="43.5861355" lon="6.838469"><ele>304.0</ele><time>2026-04-12T09:43:07.134Z</time></trkpt><trkpt lat="43.5861811" lon="6.8385378"><ele>304.8</ele><time>2026-04-12T09:43:09.135Z</time></trkpt><trkpt lat="43.5862534" lon="6.8386129"><ele>305.59999999999997</ele><time>2026-04-12T09:43:12.135Z</time></trkpt><trkpt lat="43.5863385" lon="6.8386811"><ele>306.4</ele><time>2026-04-12T09:43:15.134Z</time></trkpt><trkpt lat="43.5864188" lon="6.8387419"><ele>307.2</ele><time>2026-04-12T09:43:18.135Z</time></trkpt><trkpt lat="43.5865064" lon="6.8387859"><ele>308.0</ele><time>2026-04-12T09:43:21.134Z</time></trkpt><trkpt lat="43.5865888" lon="6.8388328"><ele>308.0</ele><time>2026-04-12T09:43:24.135Z</time></trkpt><trkpt lat="43.5866734" lon="6.838873"><ele>308.0</ele><time>2026-04-12T09:43:27.135Z</time></trkpt><trkpt lat="43.5867571" lon="6.8389159"><ele>308.0</ele><time>2026-04-12T09:43:30.135Z</time></trkpt><trkpt lat="43.5868398" lon="6.8389545"><ele>308.0</ele><time>2026-04-12T09:43:33.135Z</time></trkpt><trkpt lat="43.5869187" lon="6.838995"><ele>308.0</ele><time>2026-04-12T09:43:36.135Z</time></trkpt><trkpt lat="43.5869972" lon="6.8390283"><ele>308.0</ele><time>2026-04-12T09:43:39.135Z</time></trkpt><trkpt lat="43.5870783" lon="6.8390635"><ele>309.6666666666667</ele><time>2026-04-12T09:43:42.135Z</time></trkpt><trkpt lat="43.587156" lon="6.8390961"><ele>311.33333333333337</ele><time>2026-04-12T09:43:45.135Z</time></trkpt><trkpt lat="43.5872458" lon="6.8391259"><ele>313.0</ele><time>2026-04-12T09:43:48.136Z</time></trkpt><trkpt lat="43.5873317" lon="6.8391547"><ele>314.6666666666667</ele><time>2026-04-12T09:43:51.135Z</time></trkpt><trkpt lat="43.58742" lon="6.8391643"><ele>316.3333333333333</ele><time>2026-04-12T09:43:54.135Z</time></trkpt><trkpt lat="43.5875024" lon="6.8391793"><ele>318.0</ele><time>2026-04-12T09:43:57.135Z</time></trkpt><trkpt lat="43.5875875" lon="6.8391983"><ele>318.0</ele><time>2026-04-12T09:44:00.135Z</time></trkpt><trkpt lat="43.5876731" lon="6.8392126"><ele>318.0</ele><time>2026-04-12T09:44:03.135Z</time></trkpt><trkpt lat="43.5877593" lon="6.8392364"><ele>318.0</ele><time>2026-04-12T09:44:06.136Z</time></trkpt><trkpt lat="43.5878404" lon="6.8392611"><ele>318.0</ele><time>2026-04-12T09:44:09.136Z</time></trkpt><trkpt lat="43.5879239" lon="6.8392849"><ele>318.0</ele><time>2026-04-12T09:44:12.137Z</time></trkpt><trkpt lat="43.587995" lon="6.8393146"><ele>318.0</ele><time>2026-04-12T09:44:15.136Z</time></trkpt><trkpt lat="43.5880796" lon="6.8393388"><ele>318.8333333333333</ele><time>2026-04-12T09:44:18.136Z</time></trkpt><trkpt lat="43.5881637" lon="6.8393596"><ele>319.6666666666667</ele><time>2026-04-12T09:44:21.136Z</time></trkpt><trkpt lat="43.5882449" lon="6.8393673"><ele>320.5</ele><time>2026-04-12T09:44:24.136Z</time></trkpt><trkpt lat="43.588324" lon="6.8393863"><ele>321.33333333333337</ele><time>2026-04-12T09:44:27.136Z</time></trkpt><trkpt lat="43.5884015" lon="6.8394267"><ele>322.1666666666667</ele><time>2026-04-12T09:44:30.136Z</time></trkpt><trkpt lat="43.5884636" lon="6.8394672"><ele>323.0</ele><time>2026-04-12T09:44:32.136Z</time></trkpt><trkpt lat="43.5885322" lon="6.8395342"><ele>323.0</ele><time>2026-04-12T09:44:35.136Z</time></trkpt><trkpt lat="43.588575" lon="6.8396254"><ele>323.0</ele><time>2026-04-12T09:44:37.136Z</time></trkpt><trkpt lat="43.5886024" lon="6.8397192"><ele>323.0</ele><time>2026-04-12T09:44:39.136Z</time></trkpt><trkpt lat="43.5886149" lon="6.839823"><ele>323.0</ele><time>2026-04-12T09:44:41.136Z</time></trkpt><trkpt lat="43.5886206" lon="6.8399416"><ele>323.0</ele><time>2026-04-12T09:44:43.136Z</time></trkpt><trkpt lat="43.58861" lon="6.8400358"><ele>323.0</ele><time>2026-04-12T09:44:45.136Z</time></trkpt><trkpt lat="43.5885855" lon="6.8401234"><ele>323.0</ele><time>2026-04-12T09:44:47.137Z</time></trkpt><trkpt lat="43.5885571" lon="6.8402518"><ele>323.0</ele><time>2026-04-12T09:44:50.136Z</time></trkpt><trkpt lat="43.5885398" lon="6.8403404"><ele>323.0</ele><time>2026-04-12T09:44:52.136Z</time></trkpt><trkpt lat="43.5885219" lon="6.8404474"><ele>323.0</ele><time>2026-04-12T09:44:54.136Z</time></trkpt><trkpt lat="43.5885067" lon="6.8405608"><ele>323.0</ele><time>2026-04-12T09:44:56.137Z</time></trkpt><trkpt lat="43.5884819" lon="6.8407027"><ele>323.0</ele><time>2026-04-12T09:44:58.137Z</time></trkpt><trkpt lat="43.5884615" lon="6.8408518"><ele>323.79999999999995</ele><time>2026-04-12T09:45:00.138Z</time></trkpt><trkpt lat="43.5884499" lon="6.841"><ele>324.6</ele><time>2026-04-12T09:45:02.137Z</time></trkpt><trkpt lat="43.5884438" lon="6.8411535"><ele>325.4</ele><time>2026-04-12T09:45:04.137Z</time></trkpt><trkpt lat="43.588455" lon="6.8413201"><ele>326.20000000000005</ele><time>2026-04-12T09:45:06.138Z</time></trkpt><trkpt lat="43.5884612" lon="6.8414076"><ele>327.0</ele><time>2026-04-12T09:45:07.137Z</time></trkpt><trkpt lat="43.5884604" lon="6.8414982"><ele>327.0</ele><time>2026-04-12T09:45:08.137Z</time></trkpt><trkpt lat="43.5884495" lon="6.8415857"><ele>327.0</ele><time>2026-04-12T09:45:09.137Z</time></trkpt><trkpt lat="43.5884154" lon="6.8417477"><ele>327.0</ele><time>2026-04-12T09:45:11.137Z</time></trkpt><trkpt lat="43.5883848" lon="6.8418955"><ele>327.0</ele><time>2026-04-12T09:45:13.137Z</time></trkpt><trkpt lat="43.5883646" lon="6.842036"><ele>327.0</ele><time>2026-04-12T09:45:15.138Z</time></trkpt><trkpt lat="43.5883449" lon="6.8421629"><ele>327.0</ele><time>2026-04-12T09:45:17.137Z</time></trkpt><trkpt lat="43.5883266" lon="6.8422985"><ele>327.0</ele><time>2026-04-12T09:45:19.139Z</time></trkpt><trkpt lat="43.5882768" lon="6.8424472"><ele>327.0</ele><time>2026-04-12T09:45:21.137Z</time></trkpt><trkpt lat="43.5882458" lon="6.8425277"><ele>327.0</ele><time>2026-04-12T09:45:22.138Z</time></trkpt><trkpt lat="43.5882111" lon="6.8426115"><ele>327.0</ele><time>2026-04-12T09:45:23.137Z</time></trkpt><trkpt lat="43.5881756" lon="6.8427023"><ele>327.0</ele><time>2026-04-12T09:45:24.138Z</time></trkpt><trkpt lat="43.5881465" lon="6.8428016"><ele>326.6666666666667</ele><time>2026-04-12T09:45:25.137Z</time></trkpt><trkpt lat="43.5881284" lon="6.8429084"><ele>326.3333333333333</ele><time>2026-04-12T09:45:26.137Z</time></trkpt><trkpt lat="43.5881133" lon="6.8430211"><ele>326.0</ele><time>2026-04-12T09:45:27.138Z</time></trkpt><trkpt lat="43.5881019" lon="6.8431357"><ele>325.66666666666663</ele><time>2026-04-12T09:45:28.138Z</time></trkpt><trkpt lat="43.5880962" lon="6.8432495"><ele>325.3333333333333</ele><time>2026-04-12T09:45:29.137Z</time></trkpt><trkpt lat="43.5881263" lon="6.8433655"><ele>325.0</ele><time>2026-04-12T09:45:30.137Z</time></trkpt><trkpt lat="43.5881915" lon="6.8434628"><ele>327.0</ele><time>2026-04-12T09:45:31.139Z</time></trkpt><trkpt lat="43.5882762" lon="6.8435284"><ele>329.0</ele><time>2026-04-12T09:45:32.138Z</time></trkpt><trkpt lat="43.5883654" lon="6.8435847"><ele>331.0</ele><time>2026-04-12T09:45:33.138Z</time></trkpt><trkpt lat="43.5884619" lon="6.8436377"><ele>333.0</ele><time>2026-04-12T09:45:34.139Z</time></trkpt><trkpt lat="43.5885529" lon="6.8437103"><ele>335.0</ele><time>2026-04-12T09:45:35.138Z</time></trkpt><trkpt lat="43.5886355" lon="6.8438052"><ele>330.0</ele><time>2026-04-12T09:45:36.138Z</time></trkpt><trkpt lat="43.5887135" lon="6.8439191"><ele>325.0</ele><time>2026-04-12T09:45:37.138Z</time></trkpt><trkpt lat="43.5887895" lon="6.8440335"><ele>320.0</ele><time>2026-04-12T09:45:38.138Z</time></trkpt><trkpt lat="43.588868" lon="6.8441472"><ele>315.0</ele><time>2026-04-12T09:45:39.139Z</time></trkpt><trkpt lat="43.5889562" lon="6.8442501"><ele>318.5</ele><time>2026-04-12T09:45:40.138Z</time></trkpt><trkpt lat="43.5890542" lon="6.8443387"><ele>322.0</ele><time>2026-04-12T09:45:41.139Z</time></trkpt><trkpt lat="43.5891547" lon="6.844419"><ele>325.5</ele><time>2026-04-12T09:45:42.137Z</time></trkpt><trkpt lat="43.5892586" lon="6.8444996"><ele>329.0</ele><time>2026-04-12T09:45:43.138Z</time></trkpt><trkpt lat="43.5893637" lon="6.8445796"><ele>329.0</ele><time>2026-04-12T09:45:44.138Z</time></trkpt><trkpt lat="43.5894713" lon="6.8446586"><ele>329.0</ele><time>2026-04-12T09:45:45.138Z</time></trkpt><trkpt lat="43.5895815" lon="6.8447377"><ele>329.0</ele><time>2026-04-12T09:45:46.138Z</time></trkpt><trkpt lat="43.5896962" lon="6.8448108"><ele>329.0</ele><time>2026-04-12T09:45:47.138Z</time></trkpt><trkpt lat="43.5898113" lon="6.8448775"><ele>324.25</ele><time>2026-04-12T09:45:48.138Z</time></trkpt><trkpt lat="43.5899345" lon="6.8449253"><ele>319.5</ele><time>2026-04-12T09:45:49.138Z</time></trkpt><trkpt lat="43.5900627" lon="6.8449637"><ele>314.75</ele><time>2026-04-12T09:45:50.138Z</time></trkpt><trkpt lat="43.5901944" lon="6.8449987"><ele>310.0</ele><time>2026-04-12T09:45:51.138Z</time></trkpt><trkpt lat="43.5903272" lon="6.845031"><ele>312.75</ele><time>2026-04-12T09:45:52.138Z</time></trkpt><trkpt lat="43.5904597" lon="6.8450736"><ele>315.5</ele><time>2026-04-12T09:45:53.138Z</time></trkpt><trkpt lat="43.5905929" lon="6.8451224"><ele>318.25</ele><time>2026-04-12T09:45:54.138Z</time></trkpt><trkpt lat="43.590729" lon="6.8451663"><ele>321.0</ele><time>2026-04-12T09:45:55.138Z</time></trkpt><trkpt lat="43.5908664" lon="6.8452019"><ele>321.0</ele><time>2026-04-12T09:45:56.139Z</time></trkpt><trkpt lat="43.5910048" lon="6.8452305"><ele>321.0</ele><time>2026-04-12T09:45:57.138Z</time></trkpt><trkpt lat="43.5911382" lon="6.8452532"><ele>321.0</ele><time>2026-04-12T09:45:58.139Z</time></trkpt><trkpt lat="43.5912595" lon="6.8452685"><ele>321.0</ele><time>2026-04-12T09:45:59.138Z</time></trkpt><trkpt lat="43.5913719" lon="6.8453058"><ele>315.0</ele><time>2026-04-12T09:46:00.138Z</time></trkpt><trkpt lat="43.5914779" lon="6.8453767"><ele>309.0</ele><time>2026-04-12T09:46:01.138Z</time></trkpt><trkpt lat="43.5915806" lon="6.8454617"><ele>303.0</ele><time>2026-04-12T09:46:02.139Z</time></trkpt><trkpt lat="43.5916678" lon="6.8455789"><ele>297.0</ele><time>2026-04-12T09:46:03.139Z</time></trkpt><trkpt lat="43.5917521" lon="6.8457016"><ele>297.0</ele><time>2026-04-12T09:46:04.138Z</time></trkpt><trkpt lat="43.5918388" lon="6.8458256"><ele>297.0</ele><time>2026-04-12T09:46:05.138Z</time></trkpt><trkpt lat="43.5919242" lon="6.8459483"><ele>297.0</ele><time>2026-04-12T09:46:06.138Z</time></trkpt><trkpt lat="43.5920134" lon="6.8460674"><ele>297.0</ele><time>2026-04-12T09:46:07.138Z</time></trkpt><trkpt lat="43.5921108" lon="6.8461763"><ele>294.25</ele><time>2026-04-12T09:46:08.138Z</time></trkpt><trkpt lat="43.5922153" lon="6.8462767"><ele>291.5</ele><time>2026-04-12T09:46:09.139Z</time></trkpt><trkpt lat="43.5923226" lon="6.8463759"><ele>288.75</ele><time>2026-04-12T09:46:10.138Z</time></trkpt><trkpt lat="43.5924248" lon="6.8464817"><ele>286.0</ele><time>2026-04-12T09:46:11.138Z</time></trkpt><trkpt lat="43.5925209" lon="6.8465938"><ele>286.0</ele><time>2026-04-12T09:46:12.139Z</time></trkpt><trkpt lat="43.5926062" lon="6.8467245"><ele>286.0</ele><time>2026-04-12T09:46:13.138Z</time></trkpt><trkpt lat="43.5926775" lon="6.8468742"><ele>286.0</ele><time>2026-04-12T09:46:14.138Z</time></trkpt><trkpt lat="43.5927382" lon="6.8470347"><ele>286.0</ele><time>2026-04-12T09:46:15.138Z</time></trkpt><trkpt lat="43.5928017" lon="6.8471885"><ele>282.6</ele><time>2026-04-12T09:46:16.138Z</time></trkpt><trkpt lat="43.592874" lon="6.8473297"><ele>279.20000000000005</ele><time>2026-04-12T09:46:17.139Z</time></trkpt><trkpt lat="43.5929479" lon="6.847462"><ele>275.79999999999995</ele><time>2026-04-12T09:46:18.139Z</time></trkpt><trkpt lat="43.5930145" lon="6.8475732"><ele>272.4</ele><time>2026-04-12T09:46:19.139Z</time></trkpt><trkpt lat="43.5930743" lon="6.8476692"><ele>269.0</ele><time>2026-04-12T09:46:20.138Z</time></trkpt><trkpt lat="43.5931264" lon="6.8477579"><ele>269.0</ele><time>2026-04-12T09:46:21.139Z</time></trkpt><trkpt lat="43.5931687" lon="6.847838"><ele>269.0</ele><time>2026-04-12T09:46:22.138Z</time></trkpt><trkpt lat="43.5932022" lon="6.8479191"><ele>269.0</ele><time>2026-04-12T09:46:23.139Z</time></trkpt><trkpt lat="43.5932368" lon="6.8480027"><ele>269.0</ele><time>2026-04-12T09:46:24.139Z</time></trkpt><trkpt lat="43.5932725" lon="6.8480909"><ele>269.0</ele><time>2026-04-12T09:46:25.139Z</time></trkpt><trkpt lat="43.5933092" lon="6.8481793"><ele>269.0</ele><time>2026-04-12T09:46:26.139Z</time></trkpt><trkpt lat="43.5933458" lon="6.8482669"><ele>269.0</ele><time>2026-04-12T09:46:27.139Z</time></trkpt><trkpt lat="43.5933759" lon="6.8483551"><ele>265.59999999999997</ele><time>2026-04-12T09:46:28.139Z</time></trkpt><trkpt lat="43.5934135" lon="6.8485109"><ele>262.2</ele><time>2026-04-12T09:46:30.139Z</time></trkpt><trkpt lat="43.5933941" lon="6.8486625"><ele>258.79999999999995</ele><time>2026-04-12T09:46:32.14Z</time></trkpt><trkpt lat="43.5932956" lon="6.8487532"><ele>255.39999999999998</ele><time>2026-04-12T09:46:34.139Z</time></trkpt><trkpt lat="43.5932248" lon="6.8487696"><ele>252.0</ele><time>2026-04-12T09:46:35.139Z</time></trkpt><trkpt lat="43.5931453" lon="6.8487795"><ele>252.0</ele><time>2026-04-12T09:46:36.139Z</time></trkpt><trkpt lat="43.5930616" lon="6.8487912"><ele>252.0</ele><time>2026-04-12T09:46:37.139Z</time></trkpt><trkpt lat="43.5929737" lon="6.8487989"><ele>252.0</ele><time>2026-04-12T09:46:38.139Z</time></trkpt><trkpt lat="43.5928839" lon="6.8488082"><ele>252.0</ele><time>2026-04-12T09:46:39.139Z</time></trkpt><trkpt lat="43.5927869" lon="6.8488211"><ele>252.0</ele><time>2026-04-12T09:46:40.139Z</time></trkpt><trkpt lat="43.5926858" lon="6.8488305"><ele>252.5</ele><time>2026-04-12T09:46:41.139Z</time></trkpt><trkpt lat="43.5925748" lon="6.8488428"><ele>253.0</ele><time>2026-04-12T09:46:42.139Z</time></trkpt><trkpt lat="43.5924603" lon="6.8488796"><ele>253.5</ele><time>2026-04-12T09:46:43.139Z</time></trkpt><trkpt lat="43.5923452" lon="6.8489242"><ele>254.0</ele><time>2026-04-12T09:46:44.139Z</time></trkpt><trkpt lat="43.5922296" lon="6.8489759"><ele>254.0</ele><time>2026-04-12T09:46:45.139Z</time></trkpt><trkpt lat="43.5921155" lon="6.8490364"><ele>254.0</ele><time>2026-04-12T09:46:46.139Z</time></trkpt><trkpt lat="43.5920044" lon="6.8491118"><ele>254.0</ele><time>2026-04-12T09:46:47.139Z</time></trkpt><trkpt lat="43.5918971" lon="6.8492038"><ele>254.0</ele><time>2026-04-12T09:46:48.139Z</time></trkpt><trkpt lat="43.5917988" lon="6.8493165"><ele>248.5</ele><time>2026-04-12T09:46:49.139Z</time></trkpt><trkpt lat="43.5917041" lon="6.8494278"><ele>243.0</ele><time>2026-04-12T09:46:50.139Z</time></trkpt><trkpt lat="43.5915954" lon="6.849516"><ele>237.5</ele><time>2026-04-12T09:46:51.139Z</time></trkpt><trkpt lat="43.5914788" lon="6.8495664"><ele>232.0</ele><time>2026-04-12T09:46:52.139Z</time></trkpt><trkpt lat="43.5913546" lon="6.8495746"><ele>232.0</ele><time>2026-04-12T09:46:53.14Z</time></trkpt><trkpt lat="43.5912267" lon="6.8495604"><ele>232.0</ele><time>2026-04-12T09:46:54.139Z</time></trkpt><trkpt lat="43.5910953" lon="6.8495448"><ele>232.0</ele><time>2026-04-12T09:46:55.139Z</time></trkpt><trkpt lat="43.5909645" lon="6.8495245"><ele>232.0</ele><time>2026-04-12T09:46:56.139Z</time></trkpt><trkpt lat="43.5908365" lon="6.8495024"><ele>229.25</ele><time>2026-04-12T09:46:57.139Z</time></trkpt><trkpt lat="43.5907107" lon="6.8494543"><ele>226.5</ele><time>2026-04-12T09:46:58.139Z</time></trkpt><trkpt lat="43.5905959" lon="6.8493827"><ele>223.75</ele><time>2026-04-12T09:46:59.139Z</time></trkpt><trkpt lat="43.5904854" lon="6.8493112"><ele>221.0</ele><time>2026-04-12T09:47:00.139Z</time></trkpt><trkpt lat="43.5903681" lon="6.8492675"><ele>228.5</ele><time>2026-04-12T09:47:01.139Z</time></trkpt><trkpt lat="43.5902495" lon="6.8492298"><ele>236.0</ele><time>2026-04-12T09:47:02.14Z</time></trkpt><trkpt lat="43.5901303" lon="6.8492121"><ele>243.5</ele><time>2026-04-12T09:47:03.14Z</time></trkpt><trkpt lat="43.590012" lon="6.8492054"><ele>251.0</ele><time>2026-04-12T09:47:04.139Z</time></trkpt><trkpt lat="43.5898935" lon="6.8492158"><ele>251.0</ele><time>2026-04-12T09:47:05.141Z</time></trkpt><trkpt lat="43.589779" lon="6.8492687"><ele>251.00000000000003</ele><time>2026-04-12T09:47:06.14Z</time></trkpt><trkpt lat="43.5896738" lon="6.8493259"><ele>251.00000000000003</ele><time>2026-04-12T09:47:07.139Z</time></trkpt><trkpt lat="43.5895741" lon="6.8493781"><ele>251.0</ele><time>2026-04-12T09:47:08.14Z</time></trkpt><trkpt lat="43.5894992" lon="6.8494202"><ele>251.0</ele><time>2026-04-12T09:47:09.14Z</time></trkpt><trkpt lat="43.5894432" lon="6.8494974"><ele>252.0</ele><time>2026-04-12T09:47:10.139Z</time></trkpt><trkpt lat="43.5894112" lon="6.8496054"><ele>253.00000000000003</ele><time>2026-04-12T09:47:11.14Z</time></trkpt><trkpt lat="43.5894021" lon="6.8497303"><ele>254.00000000000003</ele><time>2026-04-12T09:47:12.14Z</time></trkpt><trkpt lat="43.5894114" lon="6.8498491"><ele>255.0</ele><time>2026-04-12T09:47:13.14Z</time></trkpt><trkpt lat="43.5894427" lon="6.8499689"><ele>256.0</ele><time>2026-04-12T09:47:14.14Z</time></trkpt><trkpt lat="43.589463" lon="6.8501094"><ele>251.0</ele><time>2026-04-12T09:47:15.14Z</time></trkpt><trkpt lat="43.5894687" lon="6.8502632"><ele>246.0</ele><time>2026-04-12T09:47:16.14Z</time></trkpt><trkpt lat="43.5894448" lon="6.8504421"><ele>241.0</ele><time>2026-04-12T09:47:17.14Z</time></trkpt><trkpt lat="43.5893937" lon="6.8506011"><ele>236.0</ele><time>2026-04-12T09:47:18.141Z</time></trkpt><trkpt lat="43.5893516" lon="6.8507569"><ele>236.0</ele><time>2026-04-12T09:47:19.14Z</time></trkpt><trkpt lat="43.5893166" lon="6.8509131"><ele>236.0</ele><time>2026-04-12T09:47:20.14Z</time></trkpt><trkpt lat="43.589273" lon="6.851061"><ele>236.0</ele><time>2026-04-12T09:47:21.14Z</time></trkpt><trkpt lat="43.589233" lon="6.8511988"><ele>236.0</ele><time>2026-04-12T09:47:22.14Z</time></trkpt><trkpt lat="43.5891637" lon="6.8513202"><ele>229.25</ele><time>2026-04-12T09:47:23.14Z</time></trkpt><trkpt lat="43.5890658" lon="6.8514072"><ele>222.5</ele><time>2026-04-12T09:47:24.14Z</time></trkpt><trkpt lat="43.588968" lon="6.8514997"><ele>215.75</ele><time>2026-04-12T09:47:25.14Z</time></trkpt><trkpt lat="43.588887" lon="6.8516219"><ele>209.0</ele><time>2026-04-12T09:47:26.14Z</time></trkpt><trkpt lat="43.5888224" lon="6.8517627"><ele>211.0</ele><time>2026-04-12T09:47:27.14Z</time></trkpt><trkpt lat="43.5887695" lon="6.8519126"><ele>213.0</ele><time>2026-04-12T09:47:28.14Z</time></trkpt><trkpt lat="43.5887176" lon="6.8520645"><ele>215.0</ele><time>2026-04-12T09:47:29.14Z</time></trkpt><trkpt lat="43.5886637" lon="6.8522127"><ele>217.0</ele><time>2026-04-12T09:47:30.14Z</time></trkpt><trkpt lat="43.588594" lon="6.8523532"><ele>217.0</ele><time>2026-04-12T09:47:31.14Z</time></trkpt><trkpt lat="43.5885073" lon="6.8524807"><ele>217.0</ele><time>2026-04-12T09:47:32.14Z</time></trkpt><trkpt lat="43.5884242" lon="6.8525918"><ele>217.0</ele><time>2026-04-12T09:47:33.14Z</time></trkpt><trkpt lat="43.5883545" lon="6.8526734"><ele>217.0</ele><time>2026-04-12T09:47:34.14Z</time></trkpt><trkpt lat="43.5882781" lon="6.8527302"><ele>217.0</ele><time>2026-04-12T09:47:35.14Z</time></trkpt><trkpt lat="43.5881746" lon="6.8527575"><ele>212.0</ele><time>2026-04-12T09:47:36.14Z</time></trkpt><trkpt lat="43.5880598" lon="6.8527461"><ele>207.0</ele><time>2026-04-12T09:47:37.14Z</time></trkpt><trkpt lat="43.5879601" lon="6.8527125"><ele>202.0</ele><time>2026-04-12T09:47:38.14Z</time></trkpt><trkpt lat="43.5878387" lon="6.8526845"><ele>197.0</ele><time>2026-04-12T09:47:39.14Z</time></trkpt><trkpt lat="43.5877452" lon="6.8527232"><ele>192.0</ele><time>2026-04-12T09:47:40.141Z</time></trkpt><trkpt lat="43.5876775" lon="6.8528095"><ele>192.0</ele><time>2026-04-12T09:47:41.14Z</time></trkpt><trkpt lat="43.5875977" lon="6.852917"><ele>192.0</ele><time>2026-04-12T09:47:42.14Z</time></trkpt><trkpt lat="43.587511" lon="6.8530214"><ele>192.0</ele><time>2026-04-12T09:47:43.14Z</time></trkpt><trkpt lat="43.5874144" lon="6.8531019"><ele>192.0</ele><time>2026-04-12T09:47:44.14Z</time></trkpt><trkpt lat="43.5873032" lon="6.8531538"><ele>192.0</ele><time>2026-04-12T09:47:45.14Z</time></trkpt><trkpt lat="43.5871897" lon="6.8531763"><ele>192.0</ele><time>2026-04-12T09:47:46.14Z</time></trkpt><trkpt lat="43.5870725" lon="6.8531579"><ele>192.0</ele><time>2026-04-12T09:47:47.141Z</time></trkpt><trkpt lat="43.5869747" lon="6.8531728"><ele>192.0</ele><time>2026-04-12T09:47:48.141Z</time></trkpt><trkpt lat="43.5869056" lon="6.853227"><ele>192.0</ele><time>2026-04-12T09:47:49.142Z</time></trkpt><trkpt lat="43.5868461" lon="6.8533133"><ele>193.0</ele><time>2026-04-12T09:47:50.141Z</time></trkpt><trkpt lat="43.5867949" lon="6.8534111"><ele>194.0</ele><time>2026-04-12T09:47:51.141Z</time></trkpt><trkpt lat="43.5867586" lon="6.8535255"><ele>195.0</ele><time>2026-04-12T09:47:52.141Z</time></trkpt><trkpt lat="43.5867291" lon="6.8536664"><ele>196.0</ele><time>2026-04-12T09:47:53.141Z</time></trkpt><trkpt lat="43.5867093" lon="6.8538192"><ele>197.0</ele><time>2026-04-12T09:47:54.14Z</time></trkpt><trkpt lat="43.5866824" lon="6.8539702"><ele>197.0</ele><time>2026-04-12T09:47:55.141Z</time></trkpt><trkpt lat="43.58664" lon="6.8541128"><ele>197.0</ele><time>2026-04-12T09:47:56.141Z</time></trkpt><trkpt lat="43.5865759" lon="6.854246"><ele>197.0</ele><time>2026-04-12T09:47:57.141Z</time></trkpt><trkpt lat="43.5865152" lon="6.8543921"><ele>197.0</ele><time>2026-04-12T09:47:58.14Z</time></trkpt><trkpt lat="43.5864671" lon="6.8545456"><ele>192.75</ele><time>2026-04-12T09:47:59.141Z</time></trkpt><trkpt lat="43.5864442" lon="6.8547047"><ele>188.5</ele><time>2026-04-12T09:48:00.141Z</time></trkpt><trkpt lat="43.5864332" lon="6.8548733"><ele>184.25</ele><time>2026-04-12T09:48:01.141Z</time></trkpt><trkpt lat="43.586407" lon="6.8550464"><ele>180.0</ele><time>2026-04-12T09:48:02.142Z</time></trkpt><trkpt lat="43.5863706" lon="6.855223"><ele>179.5</ele><time>2026-04-12T09:48:03.141Z</time></trkpt><trkpt lat="43.5863444" lon="6.8553928"><ele>179.0</ele><time>2026-04-12T09:48:04.142Z</time></trkpt><trkpt lat="43.5863434" lon="6.8555441"><ele>178.5</ele><time>2026-04-12T09:48:05.141Z</time></trkpt><trkpt lat="43.586369" lon="6.8556994"><ele>178.0</ele><time>2026-04-12T09:48:06.141Z</time></trkpt><trkpt lat="43.5864075" lon="6.8558545"><ele>179.0</ele><time>2026-04-12T09:48:07.141Z</time></trkpt><trkpt lat="43.5864583" lon="6.8560033"><ele>180.0</ele><time>2026-04-12T09:48:08.141Z</time></trkpt><trkpt lat="43.5865496" lon="6.8561437"><ele>181.0</ele><time>2026-04-12T09:48:09.141Z</time></trkpt><trkpt lat="43.586666" lon="6.8562628"><ele>182.0</ele><time>2026-04-12T09:48:10.141Z</time></trkpt><trkpt lat="43.5867928" lon="6.8563732"><ele>182.0</ele><time>2026-04-12T09:48:11.141Z</time></trkpt><trkpt lat="43.5869043" lon="6.8564716"><ele>182.0</ele><time>2026-04-12T09:48:12.141Z</time></trkpt><trkpt lat="43.5870001" lon="6.8565531"><ele>182.0</ele><time>2026-04-12T09:48:13.141Z</time></trkpt><trkpt lat="43.5870726" lon="6.8566301"><ele>182.0</ele><time>2026-04-12T09:48:14.141Z</time></trkpt><trkpt lat="43.5871229" lon="6.8567811"><ele>178.0</ele><time>2026-04-12T09:48:16.141Z</time></trkpt><trkpt lat="43.5870604" lon="6.8569202"><ele>174.0</ele><time>2026-04-12T09:48:18.141Z</time></trkpt><trkpt lat="43.5869945" lon="6.8569706"><ele>170.0</ele><time>2026-04-12T09:48:19.142Z</time></trkpt><trkpt lat="43.5869055" lon="6.8570073"><ele>166.0</ele><time>2026-04-12T09:48:20.141Z</time></trkpt><trkpt lat="43.5868117" lon="6.8570601"><ele>162.0</ele><time>2026-04-12T09:48:21.141Z</time></trkpt><trkpt lat="43.5867163" lon="6.8571388"><ele>162.0</ele><time>2026-04-12T09:48:22.141Z</time></trkpt><trkpt lat="43.5866315" lon="6.8572274"><ele>162.0</ele><time>2026-04-12T09:48:23.141Z</time></trkpt><trkpt lat="43.5865528" lon="6.857328"><ele>162.0</ele><time>2026-04-12T09:48:24.141Z</time></trkpt><trkpt lat="43.5864663" lon="6.8574421"><ele>162.0</ele><time>2026-04-12T09:48:25.141Z</time></trkpt><trkpt lat="43.5863813" lon="6.8575684"><ele>162.0</ele><time>2026-04-12T09:48:26.141Z</time></trkpt><trkpt lat="43.5863044" lon="6.8576998"><ele>162.0</ele><time>2026-04-12T09:48:27.141Z</time></trkpt><trkpt lat="43.5862404" lon="6.8578339"><ele>162.0</ele><time>2026-04-12T09:48:28.141Z</time></trkpt><trkpt lat="43.5861792" lon="6.8579553"><ele>162.0</ele><time>2026-04-12T09:48:29.141Z</time></trkpt><trkpt lat="43.5861066" lon="6.8580423"><ele>162.0</ele><time>2026-04-12T09:48:30.142Z</time></trkpt><trkpt lat="43.5860322" lon="6.8581072"><ele>162.0</ele><time>2026-04-12T09:48:31.142Z</time></trkpt><trkpt lat="43.5859448" lon="6.8581389"><ele>162.0</ele><time>2026-04-12T09:48:32.143Z</time></trkpt><trkpt lat="43.5858459" lon="6.8581895"><ele>162.0</ele><time>2026-04-12T09:48:33.141Z</time></trkpt><trkpt lat="43.5857506" lon="6.8582927"><ele>162.0</ele><time>2026-04-12T09:48:34.141Z</time></trkpt><trkpt lat="43.585672" lon="6.8584126"><ele>162.0</ele><time>2026-04-12T09:48:35.141Z</time></trkpt><trkpt lat="43.5856045" lon="6.8585472"><ele>160.6</ele><time>2026-04-12T09:48:36.142Z</time></trkpt><trkpt lat="43.585544" lon="6.8586848"><ele>159.2</ele><time>2026-04-12T09:48:37.142Z</time></trkpt><trkpt lat="43.5854906" lon="6.8588138"><ele>157.8</ele><time>2026-04-12T09:48:38.142Z</time></trkpt><trkpt lat="43.5854393" lon="6.8589447"><ele>156.4</ele><time>2026-04-12T09:48:39.143Z</time></trkpt><trkpt lat="43.5853993" lon="6.8590649"><ele>155.0</ele><time>2026-04-12T09:48:40.142Z</time></trkpt><trkpt lat="43.5853697" lon="6.8591676"><ele>155.0</ele><time>2026-04-12T09:48:41.142Z</time></trkpt><trkpt lat="43.5853568" lon="6.8592584"><ele>155.0</ele><time>2026-04-12T09:48:42.142Z</time></trkpt><trkpt lat="43.5854239" lon="6.859411"><ele>155.0</ele><time>2026-04-12T09:48:44.142Z</time></trkpt><trkpt lat="43.5855016" lon="6.8594759"><ele>155.0</ele><time>2026-04-12T09:48:45.142Z</time></trkpt><trkpt lat="43.58558" lon="6.8595398"><ele>155.0</ele><time>2026-04-12T09:48:46.142Z</time></trkpt><trkpt lat="43.5856547" lon="6.8596121"><ele>156.0</ele><time>2026-04-12T09:48:47.142Z</time></trkpt><trkpt lat="43.5857344" lon="6.8596788"><ele>157.0</ele><time>2026-04-12T09:48:48.142Z</time></trkpt><trkpt lat="43.5858148" lon="6.8597573"><ele>158.0</ele><time>2026-04-12T09:48:49.142Z</time></trkpt><trkpt lat="43.5858966" lon="6.8598189"><ele>159.0</ele><time>2026-04-12T09:48:50.143Z</time></trkpt><trkpt lat="43.5859663" lon="6.8598361"><ele>160.0</ele><time>2026-04-12T09:48:51.142Z</time></trkpt><trkpt lat="43.5860345" lon="6.8598001"><ele>161.0</ele><time>2026-04-12T09:48:52.142Z</time></trkpt><trkpt lat="43.5860921" lon="6.8597287"><ele>161.0</ele><time>2026-04-12T09:48:53.142Z</time></trkpt><trkpt lat="43.5861363" lon="6.8596241"><ele>161.0</ele><time>2026-04-12T09:48:54.142Z</time></trkpt><trkpt lat="43.5861797" lon="6.8595427"><ele>161.0</ele><time>2026-04-12T09:48:55.142Z</time></trkpt><trkpt lat="43.586213" lon="6.859466"><ele>161.0</ele><time>2026-04-12T09:48:56.142Z</time></trkpt><trkpt lat="43.5862692" lon="6.8593396"><ele>161.0</ele><time>2026-04-12T09:48:58.142Z</time></trkpt><trkpt lat="43.586319" lon="6.8592231"><ele>161.0</ele><time>2026-04-12T09:49:00.142Z</time></trkpt><trkpt lat="43.586372" lon="6.8591254"><ele>162.71428571428572</ele><time>2026-04-12T09:49:02.142Z</time></trkpt><trkpt lat="43.5864264" lon="6.8590445"><ele>164.42857142857144</ele><time>2026-04-12T09:49:04.142Z</time></trkpt><trkpt lat="43.5864786" lon="6.8589826"><ele>166.14285714285714</ele><time>2026-04-12T09:49:06.142Z</time></trkpt><trkpt lat="43.586533" lon="6.8589305"><ele>167.85714285714286</ele><time>2026-04-12T09:49:08.142Z</time></trkpt><trkpt lat="43.5865888" lon="6.8588744"><ele>169.57142857142858</ele><time>2026-04-12T09:49:10.142Z</time></trkpt><trkpt lat="43.5866472" lon="6.858807"><ele>171.28571428571428</ele><time>2026-04-12T09:49:12.143Z</time></trkpt><trkpt lat="43.5867089" lon="6.858733"><ele>173.0</ele><time>2026-04-12T09:49:14.142Z</time></trkpt><trkpt lat="43.5867546" lon="6.8586506"><ele>173.0</ele><time>2026-04-12T09:49:16.142Z</time></trkpt><trkpt lat="43.5867868" lon="6.8585617"><ele>173.0</ele><time>2026-04-12T09:49:18.142Z</time></trkpt><trkpt lat="43.5868329" lon="6.8584493"><ele>173.0</ele><time>2026-04-12T09:49:21.142Z</time></trkpt><trkpt lat="43.5868907" lon="6.858349"><ele>173.0</ele><time>2026-04-12T09:49:24.142Z</time></trkpt><trkpt lat="43.5869493" lon="6.8582699"><ele>173.0</ele><time>2026-04-12T09:49:27.142Z</time></trkpt><trkpt lat="43.5870095" lon="6.8582275"><ele>173.0</ele><time>2026-04-12T09:49:29.142Z</time></trkpt><trkpt lat="43.5870893" lon="6.8582231"><ele>173.5</ele><time>2026-04-12T09:49:31.142Z</time></trkpt><trkpt lat="43.5871573" lon="6.8582202"><ele>174.0</ele><time>2026-04-12T09:49:33.143Z</time></trkpt><trkpt lat="43.5872257" lon="6.8582214"><ele>174.5</ele><time>2026-04-12T09:49:35.143Z</time></trkpt><trkpt lat="43.5873188" lon="6.8582213"><ele>175.0</ele><time>2026-04-12T09:49:38.143Z</time></trkpt><trkpt lat="43.5874107" lon="6.8582235"><ele>175.5</ele><time>2026-04-12T09:49:41.143Z</time></trkpt><trkpt lat="43.5874773" lon="6.8582218"><ele>176.0</ele><time>2026-04-12T09:49:43.143Z</time></trkpt><trkpt lat="43.58754" lon="6.8582056"><ele>176.0</ele><time>2026-04-12T09:49:45.143Z</time></trkpt><trkpt lat="43.587622" lon="6.8581636"><ele>176.0</ele><time>2026-04-12T09:49:48.143Z</time></trkpt><trkpt lat="43.5876997" lon="6.8581247"><ele>176.0</ele><time>2026-04-12T09:49:51.143Z</time></trkpt><trkpt lat="43.5877865" lon="6.8580774"><ele>176.0</ele><time>2026-04-12T09:49:54.143Z</time></trkpt><trkpt lat="43.5878713" lon="6.85803"><ele>176.0</ele><time>2026-04-12T09:49:57.143Z</time></trkpt><trkpt lat="43.5879324" lon="6.8579831"><ele>176.0</ele><time>2026-04-12T09:49:59.143Z</time></trkpt><trkpt lat="43.5879794" lon="6.8579167"><ele>177.33333333333331</ele><time>2026-04-12T09:50:01.143Z</time></trkpt><trkpt lat="43.5879955" lon="6.8578217"><ele>178.66666666666666</ele><time>2026-04-12T09:50:03.143Z</time></trkpt><trkpt lat="43.5879917" lon="6.8577244"><ele>180.0</ele><time>2026-04-12T09:50:05.143Z</time></trkpt><trkpt lat="43.5879979" lon="6.8576296"><ele>181.33333333333334</ele><time>2026-04-12T09:50:07.144Z</time></trkpt><trkpt lat="43.5880172" lon="6.8575053"><ele>182.66666666666669</ele><time>2026-04-12T09:50:10.144Z</time></trkpt><trkpt lat="43.5880428" lon="6.8574071"><ele>184.0</ele><time>2026-04-12T09:50:13.143Z</time></trkpt><trkpt lat="43.5880927" lon="6.8573342"><ele>184.0</ele><time>2026-04-12T09:50:16.143Z</time></trkpt><trkpt lat="43.5881541" lon="6.8572929"><ele>184.0</ele><time>2026-04-12T09:50:19.144Z</time></trkpt><trkpt lat="43.5882406" lon="6.8572582"><ele>184.0</ele><time>2026-04-12T09:50:22.144Z</time></trkpt><trkpt lat="43.5883135" lon="6.8572302"><ele>184.0</ele><time>2026-04-12T09:50:25.145Z</time></trkpt><trkpt lat="43.5883789" lon="6.8571962"><ele>184.0</ele><time>2026-04-12T09:50:28.144Z</time></trkpt><trkpt lat="43.5884467" lon="6.8571224"><ele>184.0</ele><time>2026-04-12T09:50:31.145Z</time></trkpt><trkpt lat="43.5884837" lon="6.8570165"><ele>184.0</ele><time>2026-04-12T09:50:34.144Z</time></trkpt><trkpt lat="43.5884701" lon="6.8569282"><ele>184.0</ele><time>2026-04-12T09:50:36.144Z</time></trkpt><trkpt lat="43.5884468" lon="6.8568461"><ele>184.0</ele><time>2026-04-12T09:50:38.144Z</time></trkpt><trkpt lat="43.5884122" lon="6.8567176"><ele>184.0</ele><time>2026-04-12T09:50:41.144Z</time></trkpt><trkpt lat="43.5884024" lon="6.8566127"><ele>184.0</ele><time>2026-04-12T09:50:44.144Z</time></trkpt><trkpt lat="43.5884234" lon="6.8564993"><ele>184.0</ele><time>2026-04-12T09:50:47.145Z</time></trkpt><trkpt lat="43.5884519" lon="6.8564068"><ele>181.33333333333334</ele><time>2026-04-12T09:50:50.145Z</time></trkpt><trkpt lat="43.5884991" lon="6.856317"><ele>178.66666666666669</ele><time>2026-04-12T09:50:53.144Z</time></trkpt><trkpt lat="43.5885465" lon="6.8562281"><ele>176.0</ele><time>2026-04-12T09:50:56.144Z</time></trkpt><trkpt lat="43.5886035" lon="6.8561701"><ele>173.33333333333334</ele><time>2026-04-12T09:50:59.144Z</time></trkpt><trkpt lat="43.588689" lon="6.8561522"><ele>170.66666666666666</ele><time>2026-04-12T09:51:02.144Z</time></trkpt><trkpt lat="43.5887752" lon="6.856153"><ele>168.0</ele><time>2026-04-12T09:51:05.146Z</time></trkpt><trkpt lat="43.5888555" lon="6.856142"><ele>173.66666666666666</ele><time>2026-04-12T09:51:08.145Z</time></trkpt><trkpt lat="43.5889372" lon="6.8561355"><ele>179.33333333333331</ele><time>2026-04-12T09:51:11.146Z</time></trkpt><trkpt lat="43.5890142" lon="6.8561314"><ele>185.0</ele><time>2026-04-12T09:51:14.146Z</time></trkpt><trkpt lat="43.5890891" lon="6.8561398"><ele>190.66666666666666</ele><time>2026-04-12T09:51:17.146Z</time></trkpt><trkpt lat="43.5891691" lon="6.8561517"><ele>196.33333333333331</ele><time>2026-04-12T09:51:20.145Z</time></trkpt><trkpt lat="43.5892493" lon="6.8561542"><ele>202.0</ele><time>2026-04-12T09:51:23.146Z</time></trkpt><trkpt lat="43.5893275" lon="6.8561373"><ele>201.99999999999997</ele><time>2026-04-12T09:51:26.146Z</time></trkpt><trkpt lat="43.5894175" lon="6.8561621"><ele>202.0</ele><time>2026-04-12T09:51:29.145Z</time></trkpt><trkpt lat="43.5895011" lon="6.856143"><ele>202.0</ele><time>2026-04-12T09:51:32.145Z</time></trkpt><trkpt lat="43.5895828" lon="6.8561361"><ele>202.0</ele><time>2026-04-12T09:51:35.146Z</time></trkpt><trkpt lat="43.5896615" lon="6.856142"><ele>201.99999999999997</ele><time>2026-04-12T09:51:38.145Z</time></trkpt><trkpt lat="43.5897465" lon="6.8561604"><ele>202.0</ele><time>2026-04-12T09:51:41.145Z</time></trkpt><trkpt lat="43.5898307" lon="6.8561839"><ele>202.83333333333331</ele><time>2026-04-12T09:51:44.146Z</time></trkpt><trkpt lat="43.5899041" lon="6.8562054"><ele>203.66666666666666</ele><time>2026-04-12T09:51:47.145Z</time></trkpt><trkpt lat="43.5899767" lon="6.8562407"><ele>204.5</ele><time>2026-04-12T09:51:50.146Z</time></trkpt><trkpt lat="43.5900435" lon="6.8562904"><ele>205.33333333333331</ele><time>2026-04-12T09:51:53.146Z</time></trkpt><trkpt lat="43.5901147" lon="6.8563332"><ele>206.16666666666666</ele><time>2026-04-12T09:51:56.146Z</time></trkpt><trkpt lat="43.5901781" lon="6.85637"><ele>207.0</ele><time>2026-04-12T09:51:59.146Z</time></trkpt><trkpt lat="43.5902523" lon="6.8563972"><ele>207.0</ele><time>2026-04-12T09:52:02.146Z</time></trkpt><trkpt lat="43.5903359" lon="6.8564182"><ele>207.0</ele><time>2026-04-12T09:52:05.146Z</time></trkpt><trkpt lat="43.5904091" lon="6.8563533"><ele>207.0</ele><time>2026-04-12T09:52:08.146Z</time></trkpt><trkpt lat="43.5904408" lon="6.856259"><ele>207.0</ele><time>2026-04-12T09:52:11.146Z</time></trkpt><trkpt lat="43.5904718" lon="6.8561768"><ele>207.0</ele><time>2026-04-12T09:52:13.146Z</time></trkpt><trkpt lat="43.5905004" lon="6.8560813"><ele>207.0</ele><time>2026-04-12T09:52:16.146Z</time></trkpt><trkpt lat="43.5905331" lon="6.8559757"><ele>207.66666666666666</ele><time>2026-04-12T09:52:19.146Z</time></trkpt><trkpt lat="43.5905652" lon="6.8558745"><ele>208.33333333333331</ele><time>2026-04-12T09:52:22.146Z</time></trkpt><trkpt lat="43.5906019" lon="6.8557664"><ele>209.0</ele><time>2026-04-12T09:52:25.147Z</time></trkpt><trkpt lat="43.590628" lon="6.8556602"><ele>209.66666666666666</ele><time>2026-04-12T09:52:28.147Z</time></trkpt><trkpt lat="43.5906577" lon="6.8555597"><ele>210.33333333333331</ele><time>2026-04-12T09:52:31.146Z</time></trkpt><trkpt lat="43.5906828" lon="6.8554602"><ele>211.0</ele><time>2026-04-12T09:52:34.148Z</time></trkpt><trkpt lat="43.5907259" lon="6.8553626"><ele>210.99999999999997</ele><time>2026-04-12T09:52:37.147Z</time></trkpt><trkpt lat="43.5907753" lon="6.8552737"><ele>211.0</ele><time>2026-04-12T09:52:40.147Z</time></trkpt><trkpt lat="43.590826" lon="6.8551956"><ele>211.0</ele><time>2026-04-12T09:52:43.148Z</time></trkpt><trkpt lat="43.590886" lon="6.855112"><ele>211.0</ele><time>2026-04-12T09:52:46.147Z</time></trkpt><trkpt lat="43.5909377" lon="6.855028"><ele>210.99999999999997</ele><time>2026-04-12T09:52:49.147Z</time></trkpt><trkpt lat="43.5909893" lon="6.854937"><ele>211.0</ele><time>2026-04-12T09:52:52.147Z</time></trkpt><trkpt lat="43.5910255" lon="6.8548437"><ele>211.57142857142858</ele><time>2026-04-12T09:52:55.148Z</time></trkpt><trkpt lat="43.5910712" lon="6.8547583"><ele>212.14285714285717</ele><time>2026-04-12T09:52:58.147Z</time></trkpt><trkpt lat="43.5911188" lon="6.8546769"><ele>212.71428571428572</ele><time>2026-04-12T09:53:01.148Z</time></trkpt><trkpt lat="43.5911641" lon="6.8546107"><ele>213.28571428571428</ele><time>2026-04-12T09:53:03.148Z</time></trkpt><trkpt lat="43.5912301" lon="6.8545413"><ele>213.85714285714286</ele><time>2026-04-12T09:53:06.147Z</time></trkpt><trkpt lat="43.5912985" lon="6.854496"><ele>214.42857142857142</ele><time>2026-04-12T09:53:09.147Z</time></trkpt><trkpt lat="43.591367" lon="6.8544711"><ele>215.0</ele><time>2026-04-12T09:53:12.147Z</time></trkpt><trkpt lat="43.5914562" lon="6.8544589"><ele>215.00000000000003</ele><time>2026-04-12T09:53:15.147Z</time></trkpt><trkpt lat="43.5915297" lon="6.8544636"><ele>215.0</ele><time>2026-04-12T09:53:17.147Z</time></trkpt><trkpt lat="43.591592" lon="6.8544816"><ele>215.0</ele><time>2026-04-12T09:53:19.147Z</time></trkpt><trkpt lat="43.5916687" lon="6.8545217"><ele>215.0</ele><time>2026-04-12T09:53:22.147Z</time></trkpt><trkpt lat="43.591733" lon="6.8546058"><ele>215.00000000000003</ele><time>2026-04-12T09:53:25.148Z</time></trkpt><trkpt lat="43.5917768" lon="6.8546947"><ele>215.0</ele><time>2026-04-12T09:53:28.148Z</time></trkpt><trkpt lat="43.5918061" lon="6.8547985"><ele>215.00000000000003</ele><time>2026-04-12T09:53:31.148Z</time></trkpt><trkpt lat="43.5918419" lon="6.8549065"><ele>215.0</ele><time>2026-04-12T09:53:34.148Z</time></trkpt><trkpt lat="43.5918839" lon="6.8549945"><ele>215.0</ele><time>2026-04-12T09:53:37.148Z</time></trkpt><trkpt lat="43.5919383" lon="6.8550819"><ele>215.0</ele><time>2026-04-12T09:53:40.148Z</time></trkpt><trkpt lat="43.5919966" lon="6.8551785"><ele>215.00000000000003</ele><time>2026-04-12T09:53:43.148Z</time></trkpt><trkpt lat="43.5920604" lon="6.8552631"><ele>215.0</ele><time>2026-04-12T09:53:46.148Z</time></trkpt><trkpt lat="43.5921262" lon="6.8553325"><ele>216.83333333333334</ele><time>2026-04-12T09:53:49.148Z</time></trkpt><trkpt lat="43.5921938" lon="6.8553916"><ele>218.66666666666669</ele><time>2026-04-12T09:53:52.148Z</time></trkpt><trkpt lat="43.5922545" lon="6.8554419"><ele>220.5</ele><time>2026-04-12T09:53:55.148Z</time></trkpt><trkpt lat="43.5923226" lon="6.8554827"><ele>222.33333333333331</ele><time>2026-04-12T09:53:58.148Z</time></trkpt><trkpt lat="43.5923949" lon="6.8555232"><ele>224.16666666666666</ele><time>2026-04-12T09:54:01.149Z</time></trkpt><trkpt lat="43.5924647" lon="6.8555895"><ele>226.0</ele><time>2026-04-12T09:54:04.148Z</time></trkpt><trkpt lat="43.5925261" lon="6.8556387"><ele>226.0</ele><time>2026-04-12T09:54:07.148Z</time></trkpt><trkpt lat="43.5925856" lon="6.8557129"><ele>226.0</ele><time>2026-04-12T09:54:10.149Z</time></trkpt><trkpt lat="43.5926241" lon="6.8558042"><ele>226.0</ele><time>2026-04-12T09:54:13.149Z</time></trkpt><trkpt lat="43.5926641" lon="6.8558922"><ele>226.0</ele><time>2026-04-12T09:54:16.149Z</time></trkpt><trkpt lat="43.5927167" lon="6.8559655"><ele>226.0</ele><time>2026-04-12T09:54:19.149Z</time></trkpt><trkpt lat="43.5927777" lon="6.8559926"><ele>226.0</ele><time>2026-04-12T09:54:22.149Z</time></trkpt><trkpt lat="43.5928522" lon="6.856024"><ele>226.0</ele><time>2026-04-12T09:54:25.149Z</time></trkpt><trkpt lat="43.592937" lon="6.8560299"><ele>228.49999999999997</ele><time>2026-04-12T09:54:28.149Z</time></trkpt><trkpt lat="43.5930065" lon="6.8560535"><ele>231.0</ele><time>2026-04-12T09:54:31.149Z</time></trkpt><trkpt lat="43.5930739" lon="6.8561035"><ele>233.5</ele><time>2026-04-12T09:54:34.149Z</time></trkpt><trkpt lat="43.5931395" lon="6.8561672"><ele>236.0</ele><time>2026-04-12T09:54:37.149Z</time></trkpt><trkpt lat="43.5931904" lon="6.8562451"><ele>238.49999999999997</ele><time>2026-04-12T09:54:40.149Z</time></trkpt><trkpt lat="43.5932399" lon="6.8563383"><ele>241.0</ele><time>2026-04-12T09:54:43.149Z</time></trkpt><trkpt lat="43.5933039" lon="6.8563968"><ele>240.99999999999997</ele><time>2026-04-12T09:54:46.149Z</time></trkpt><trkpt lat="43.5933845" lon="6.8564354"><ele>241.0</ele><time>2026-04-12T09:54:49.149Z</time></trkpt><trkpt lat="43.5934496" lon="6.8564607"><ele>241.0</ele><time>2026-04-12T09:54:51.15Z</time></trkpt><trkpt lat="43.5935233" lon="6.8564731"><ele>241.0</ele><time>2026-04-12T09:54:53.149Z</time></trkpt><trkpt lat="43.5936028" lon="6.8564893"><ele>240.99999999999997</ele><time>2026-04-12T09:54:55.15Z</time></trkpt><trkpt lat="43.5936852" lon="6.8565186"><ele>241.0</ele><time>2026-04-12T09:54:57.15Z</time></trkpt><trkpt lat="43.593761" lon="6.8565727"><ele>241.66666666666666</ele><time>2026-04-12T09:54:59.151Z</time></trkpt><trkpt lat="43.593829" lon="6.8566307"><ele>242.33333333333331</ele><time>2026-04-12T09:55:01.15Z</time></trkpt><trkpt lat="43.593878" lon="6.8566875"><ele>243.0</ele><time>2026-04-12T09:55:03.15Z</time></trkpt><trkpt lat="43.5939206" lon="6.856754"><ele>243.66666666666669</ele><time>2026-04-12T09:55:05.15Z</time></trkpt><trkpt lat="43.5939634" lon="6.8568347"><ele>244.33333333333334</ele><time>2026-04-12T09:55:07.15Z</time></trkpt><trkpt lat="43.5940163" lon="6.8569397"><ele>245.0</ele><time>2026-04-12T09:55:10.15Z</time></trkpt><trkpt lat="43.5940539" lon="6.8570438"><ele>245.00000000000003</ele><time>2026-04-12T09:55:13.15Z</time></trkpt><trkpt lat="43.5940695" lon="6.8571352"><ele>245.0</ele><time>2026-04-12T09:55:16.15Z</time></trkpt><trkpt lat="43.5941103" lon="6.8572569"><ele>245.0</ele><time>2026-04-12T09:55:19.15Z</time></trkpt><trkpt lat="43.5941461" lon="6.8573348"><ele>245.0</ele><time>2026-04-12T09:55:21.15Z</time></trkpt><trkpt lat="43.5941921" lon="6.8574331"><ele>245.00000000000003</ele><time>2026-04-12T09:55:24.15Z</time></trkpt><trkpt lat="43.5942297" lon="6.8575043"><ele>245.0</ele><time>2026-04-12T09:55:26.15Z</time></trkpt><trkpt lat="43.5942644" lon="6.8576023"><ele>248.83333333333334</ele><time>2026-04-12T09:55:29.151Z</time></trkpt><trkpt lat="43.5942868" lon="6.8577214"><ele>252.66666666666669</ele><time>2026-04-12T09:55:32.15Z</time></trkpt><trkpt lat="43.5943327" lon="6.8578071"><ele>256.5</ele><time>2026-04-12T09:55:35.151Z</time></trkpt><trkpt lat="43.5943721" lon="6.8578834"><ele>260.3333333333333</ele><time>2026-04-12T09:55:37.15Z</time></trkpt><trkpt lat="43.594451" lon="6.8579105"><ele>264.16666666666663</ele><time>2026-04-12T09:55:40.15Z</time></trkpt><trkpt lat="43.5945435" lon="6.8578925"><ele>268.0</ele><time>2026-04-12T09:55:43.151Z</time></trkpt><trkpt lat="43.5946297" lon="6.8578886"><ele>268.0</ele><time>2026-04-12T09:55:46.151Z</time></trkpt><trkpt lat="43.5947106" lon="6.8579108"><ele>268.0</ele><time>2026-04-12T09:55:49.151Z</time></trkpt><trkpt lat="43.5947999" lon="6.8579141"><ele>268.0</ele><time>2026-04-12T09:55:52.151Z</time></trkpt><trkpt lat="43.5948781" lon="6.8578589"><ele>268.0</ele><time>2026-04-12T09:55:55.151Z</time></trkpt><trkpt lat="43.5949471" lon="6.8578045"><ele>268.0</ele><time>2026-04-12T09:55:58.151Z</time></trkpt><trkpt lat="43.5950113" lon="6.8577193"><ele>268.0</ele><time>2026-04-12T09:56:02.151Z</time></trkpt><trkpt lat="43.5950783" lon="6.8576498"><ele>266.3333333333333</ele><time>2026-04-12T09:56:05.151Z</time></trkpt><trkpt lat="43.5951501" lon="6.8576095"><ele>264.66666666666663</ele><time>2026-04-12T09:56:09.151Z</time></trkpt><trkpt lat="43.5952083" lon="6.8575628"><ele>263.0</ele><time>2026-04-12T09:56:11.151Z</time></trkpt><trkpt lat="43.595276" lon="6.8575149"><ele>261.3333333333333</ele><time>2026-04-12T09:56:13.151Z</time></trkpt><trkpt lat="43.5953453" lon="6.8574696"><ele>259.6666666666667</ele><time>2026-04-12T09:56:15.151Z</time></trkpt><trkpt lat="43.5954024" lon="6.8574187"><ele>258.0</ele><time>2026-04-12T09:56:17.151Z</time></trkpt><trkpt lat="43.5954847" lon="6.8573673"><ele>258.0</ele><time>2026-04-12T09:56:20.151Z</time></trkpt><trkpt lat="43.59557" lon="6.8573341"><ele>258.0</ele><time>2026-04-12T09:56:23.151Z</time></trkpt><trkpt lat="43.5956337" lon="6.8573216"><ele>258.0</ele><time>2026-04-12T09:56:25.151Z</time></trkpt><trkpt lat="43.5957136" lon="6.8573468"><ele>258.0</ele><time>2026-04-12T09:56:28.151Z</time></trkpt><trkpt lat="43.595802" lon="6.8573733"><ele>258.0</ele><time>2026-04-12T09:56:31.152Z</time></trkpt><trkpt lat="43.5958871" lon="6.857346"><ele>258.0</ele><time>2026-04-12T09:56:34.153Z</time></trkpt><trkpt lat="43.5959582" lon="6.8572956"><ele>258.0</ele><time>2026-04-12T09:56:37.152Z</time></trkpt><trkpt lat="43.5960334" lon="6.8572415"><ele>258.0</ele><time>2026-04-12T09:56:40.152Z</time></trkpt><trkpt lat="43.5961208" lon="6.8572033"><ele>258.0</ele><time>2026-04-12T09:56:43.152Z</time></trkpt><trkpt lat="43.5961925" lon="6.8571693"><ele>258.0</ele><time>2026-04-12T09:56:45.152Z</time></trkpt><trkpt lat="43.5962599" lon="6.8571471"><ele>258.0</ele><time>2026-04-12T09:56:47.152Z</time></trkpt><trkpt lat="43.5963369" lon="6.857103"><ele>258.0</ele><time>2026-04-12T09:56:50.152Z</time></trkpt><trkpt lat="43.5964221" lon="6.8570461"><ele>256.6666666666667</ele><time>2026-04-12T09:56:53.153Z</time></trkpt><trkpt lat="43.5965015" lon="6.8569835"><ele>255.33333333333331</ele><time>2026-04-12T09:56:56.152Z</time></trkpt><trkpt lat="43.5965806" lon="6.8569412"><ele>254.0</ele><time>2026-04-12T09:56:59.152Z</time></trkpt><trkpt lat="43.5966545" lon="6.8569003"><ele>252.66666666666666</ele><time>2026-04-12T09:57:02.152Z</time></trkpt><trkpt lat="43.5967292" lon="6.856852"><ele>251.33333333333331</ele><time>2026-04-12T09:57:05.153Z</time></trkpt><trkpt lat="43.5968108" lon="6.8567942"><ele>250.0</ele><time>2026-04-12T09:57:08.152Z</time></trkpt><trkpt lat="43.5968732" lon="6.856742"><ele>249.99999999999997</ele><time>2026-04-12T09:57:11.152Z</time></trkpt><trkpt lat="43.5969348" lon="6.8567002"><ele>250.0</ele><time>2026-04-12T09:57:14.152Z</time></trkpt><trkpt lat="43.5970076" lon="6.8566737"><ele>250.0</ele><time>2026-04-12T09:57:17.153Z</time></trkpt><trkpt lat="43.5970906" lon="6.8566611"><ele>250.0</ele><time>2026-04-12T09:57:20.153Z</time></trkpt><trkpt lat="43.5971699" lon="6.8566699"><ele>249.99999999999997</ele><time>2026-04-12T09:57:23.153Z</time></trkpt><trkpt lat="43.5972446" lon="6.856675"><ele>250.0</ele><time>2026-04-12T09:57:26.153Z</time></trkpt><trkpt lat="43.5973207" lon="6.856708"><ele>252.16666666666666</ele><time>2026-04-12T09:57:29.153Z</time></trkpt><trkpt lat="43.597398" lon="6.8567314"><ele>254.33333333333331</ele><time>2026-04-12T09:57:32.154Z</time></trkpt><trkpt lat="43.5974739" lon="6.856755"><ele>256.5</ele><time>2026-04-12T09:57:35.153Z</time></trkpt><trkpt lat="43.5975512" lon="6.8567782"><ele>258.6666666666667</ele><time>2026-04-12T09:57:38.153Z</time></trkpt><trkpt lat="43.5976229" lon="6.8567834"><ele>260.83333333333337</ele><time>2026-04-12T09:57:41.153Z</time></trkpt><trkpt lat="43.5976979" lon="6.8567916"><ele>263.0</ele><time>2026-04-12T09:57:44.153Z</time></trkpt><trkpt lat="43.5977819" lon="6.8568188"><ele>264.0</ele><time>2026-04-12T09:57:47.153Z</time></trkpt><trkpt lat="43.5978594" lon="6.8568362"><ele>265.0</ele><time>2026-04-12T09:57:50.153Z</time></trkpt><trkpt lat="43.5979363" lon="6.8568644"><ele>266.0</ele><time>2026-04-12T09:57:53.153Z</time></trkpt><trkpt lat="43.5980004" lon="6.8568665"><ele>267.0</ele><time>2026-04-12T09:57:55.154Z</time></trkpt><trkpt lat="43.5980827" lon="6.8568694"><ele>268.0</ele><time>2026-04-12T09:57:57.153Z</time></trkpt><trkpt lat="43.5981543" lon="6.85686"><ele>269.0</ele><time>2026-04-12T09:57:59.154Z</time></trkpt><trkpt lat="43.5982222" lon="6.8568343"><ele>270.0</ele><time>2026-04-12T09:58:01.153Z</time></trkpt><trkpt lat="43.5982935" lon="6.8567773"><ele>270.0</ele><time>2026-04-12T09:58:04.154Z</time></trkpt><trkpt lat="43.5983504" lon="6.8566997"><ele>270.0</ele><time>2026-04-12T09:58:07.155Z</time></trkpt><trkpt lat="43.5984324" lon="6.8566252"><ele>270.0</ele><time>2026-04-12T09:58:10.154Z</time></trkpt><trkpt lat="43.5984861" lon="6.8565721"><ele>270.0</ele><time>2026-04-12T09:58:12.154Z</time></trkpt><trkpt lat="43.5985378" lon="6.8565099"><ele>270.0</ele><time>2026-04-12T09:58:14.155Z</time></trkpt><trkpt lat="43.5985943" lon="6.8564677"><ele>270.0</ele><time>2026-04-12T09:58:16.154Z</time></trkpt><trkpt lat="43.5986591" lon="6.8564608"><ele>270.0</ele><time>2026-04-12T09:58:18.154Z</time></trkpt><trkpt lat="43.5987109" lon="6.8565153"><ele>270.0</ele><time>2026-04-12T09:58:20.154Z</time></trkpt><trkpt lat="43.5987159" lon="6.8566171"><ele>270.0</ele><time>2026-04-12T09:58:22.154Z</time></trkpt><trkpt lat="43.598671" lon="6.8567026"><ele>270.0</ele><time>2026-04-12T09:58:24.154Z</time></trkpt><trkpt lat="43.5986022" lon="6.8567347"><ele>270.0</ele><time>2026-04-12T09:58:26.156Z</time></trkpt><trkpt lat="43.5985376" lon="6.8567747"><ele>270.0</ele><time>2026-04-12T09:58:28.154Z</time></trkpt><trkpt lat="43.5984584" lon="6.8568323"><ele>270.0</ele><time>2026-04-12T09:58:31.154Z</time></trkpt><trkpt lat="43.5983912" lon="6.8569352"><ele>272.3333333333333</ele><time>2026-04-12T09:58:34.154Z</time></trkpt><trkpt lat="43.5983453" lon="6.8570016"><ele>274.6666666666667</ele><time>2026-04-12T09:58:36.155Z</time></trkpt><trkpt lat="43.5982971" lon="6.8570599"><ele>277.0</ele><time>2026-04-12T09:58:38.155Z</time></trkpt><trkpt lat="43.5982229" lon="6.8571163"><ele>279.33333333333337</ele><time>2026-04-12T09:58:41.154Z</time></trkpt><trkpt lat="43.5981475" lon="6.857167"><ele>281.6666666666667</ele><time>2026-04-12T09:58:44.154Z</time></trkpt><trkpt lat="43.5980592" lon="6.8571933"><ele>284.0</ele><time>2026-04-12T09:58:47.155Z</time></trkpt><trkpt lat="43.5979682" lon="6.8572198"><ele>284.0</ele><time>2026-04-12T09:58:50.155Z</time></trkpt><trkpt lat="43.5979043" lon="6.8572163"><ele>284.0</ele><time>2026-04-12T09:58:52.156Z</time></trkpt><trkpt lat="43.5978276" lon="6.8572088"><ele>284.0</ele><time>2026-04-12T09:58:54.155Z</time></trkpt><trkpt lat="43.5977377" lon="6.8572216"><ele>284.0</ele><time>2026-04-12T09:58:57.155Z</time></trkpt><trkpt lat="43.5976749" lon="6.8572054"><ele>284.0</ele><time>2026-04-12T09:58:59.156Z</time></trkpt><trkpt lat="43.5976062" lon="6.857188"><ele>284.0</ele><time>2026-04-12T09:59:01.155Z</time></trkpt><trkpt lat="43.5975116" lon="6.8571986"><ele>284.6666666666667</ele><time>2026-04-12T09:59:04.155Z</time></trkpt><trkpt lat="43.5974485" lon="6.8572153"><ele>285.33333333333337</ele><time>2026-04-12T09:59:06.155Z</time></trkpt><trkpt lat="43.5973901" lon="6.8572491"><ele>286.0</ele><time>2026-04-12T09:59:08.155Z</time></trkpt><trkpt lat="43.5973306" lon="6.8572882"><ele>286.6666666666667</ele><time>2026-04-12T09:59:10.155Z</time></trkpt><trkpt lat="43.5972622" lon="6.8573698"><ele>287.3333333333333</ele><time>2026-04-12T09:59:13.155Z</time></trkpt><trkpt lat="43.5971946" lon="6.8574597"><ele>288.0</ele><time>2026-04-12T09:59:16.155Z</time></trkpt><trkpt lat="43.5971152" lon="6.8575259"><ele>288.0</ele><time>2026-04-12T09:59:19.156Z</time></trkpt><trkpt lat="43.5970524" lon="6.8575577"><ele>288.0</ele><time>2026-04-12T09:59:21.155Z</time></trkpt><trkpt lat="43.5969725" lon="6.8576107"><ele>288.0</ele><time>2026-04-12T09:59:24.155Z</time></trkpt><trkpt lat="43.5968857" lon="6.8576496"><ele>288.0</ele><time>2026-04-12T09:59:27.155Z</time></trkpt><trkpt lat="43.5968075" lon="6.8577028"><ele>288.0</ele><time>2026-04-12T09:59:30.155Z</time></trkpt><trkpt lat="43.5967384" lon="6.8577586"><ele>288.0</ele><time>2026-04-12T09:59:33.155Z</time></trkpt><trkpt lat="43.5966735" lon="6.8578301"><ele>289.5714285714286</ele><time>2026-04-12T09:59:36.156Z</time></trkpt><trkpt lat="43.5966242" lon="6.8578903"><ele>291.14285714285717</ele><time>2026-04-12T09:59:38.156Z</time></trkpt><trkpt lat="43.596569" lon="6.8579696"><ele>292.7142857142857</ele><time>2026-04-12T09:59:40.156Z</time></trkpt><trkpt lat="43.5965072" lon="6.8580228"><ele>294.28571428571433</ele><time>2026-04-12T09:59:42.156Z</time></trkpt><trkpt lat="43.5964463" lon="6.8580591"><ele>295.8571428571429</ele><time>2026-04-12T09:59:44.156Z</time></trkpt><trkpt lat="43.5963713" lon="6.8580949"><ele>297.42857142857144</ele><time>2026-04-12T09:59:47.156Z</time></trkpt><trkpt lat="43.5963143" lon="6.8581436"><ele>299.0</ele><time>2026-04-12T09:59:50.156Z</time></trkpt><trkpt lat="43.5962414" lon="6.8581942"><ele>299.0</ele><time>2026-04-12T09:59:52.156Z</time></trkpt><trkpt lat="43.5961766" lon="6.8582498"><ele>299.0</ele><time>2026-04-12T09:59:54.156Z</time></trkpt><trkpt lat="43.5961152" lon="6.8583031"><ele>299.0</ele><time>2026-04-12T09:59:56.157Z</time></trkpt><trkpt lat="43.5960457" lon="6.8583472"><ele>299.0</ele><time>2026-04-12T09:59:59.156Z</time></trkpt><trkpt lat="43.5959545" lon="6.8583936"><ele>299.0</ele><time>2026-04-12T10:00:02.156Z</time></trkpt><trkpt lat="43.5958894" lon="6.8584299"><ele>299.0</ele><time>2026-04-12T10:00:04.156Z</time></trkpt><trkpt lat="43.59581" lon="6.858495"><ele>298.42857142857144</ele><time>2026-04-12T10:00:07.156Z</time></trkpt><trkpt lat="43.595755" lon="6.8585726"><ele>297.8571428571429</ele><time>2026-04-12T10:00:09.157Z</time></trkpt><trkpt lat="43.5957303" lon="6.8586635"><ele>297.28571428571433</ele><time>2026-04-12T10:00:11.157Z</time></trkpt><trkpt lat="43.5957216" lon="6.8587548"><ele>296.7142857142857</ele><time>2026-04-12T10:00:13.156Z</time></trkpt><trkpt lat="43.595704" lon="6.8588453"><ele>296.14285714285717</ele><time>2026-04-12T10:00:15.156Z</time></trkpt><trkpt lat="43.5956857" lon="6.8589333"><ele>295.5714285714286</ele><time>2026-04-12T10:00:17.157Z</time></trkpt><trkpt lat="43.5956357" lon="6.8590232"><ele>295.0</ele><time>2026-04-12T10:00:19.156Z</time></trkpt><trkpt lat="43.5955765" lon="6.8590794"><ele>295.0</ele><time>2026-04-12T10:00:21.157Z</time></trkpt><trkpt lat="43.5955156" lon="6.8591335"><ele>295.0</ele><time>2026-04-12T10:00:23.157Z</time></trkpt><trkpt lat="43.595464" lon="6.8591875"><ele>295.0</ele><time>2026-04-12T10:00:25.157Z</time></trkpt><trkpt lat="43.5954013" lon="6.8592701"><ele>295.0</ele><time>2026-04-12T10:00:28.157Z</time></trkpt><trkpt lat="43.5953268" lon="6.8593372"><ele>295.0</ele><time>2026-04-12T10:00:31.157Z</time></trkpt><trkpt lat="43.5952685" lon="6.8593789"><ele>295.0</ele><time>2026-04-12T10:00:33.157Z</time></trkpt><trkpt lat="43.5951851" lon="6.8594268"><ele>293.3333333333333</ele><time>2026-04-12T10:00:35.157Z</time></trkpt><trkpt lat="43.5951147" lon="6.8594642"><ele>291.66666666666663</ele><time>2026-04-12T10:00:37.157Z</time></trkpt><trkpt lat="43.5950322" lon="6.8595043"><ele>290.0</ele><time>2026-04-12T10:00:39.157Z</time></trkpt><trkpt lat="43.5949382" lon="6.8595695"><ele>288.3333333333333</ele><time>2026-04-12T10:00:41.157Z</time></trkpt><trkpt lat="43.5948586" lon="6.8596356"><ele>286.6666666666667</ele><time>2026-04-12T10:00:43.157Z</time></trkpt><trkpt lat="43.5947915" lon="6.8596888"><ele>285.0</ele><time>2026-04-12T10:00:45.157Z</time></trkpt><trkpt lat="43.5947295" lon="6.8597343"><ele>285.0</ele><time>2026-04-12T10:00:47.157Z</time></trkpt><trkpt lat="43.5946647" lon="6.8598017"><ele>285.0</ele><time>2026-04-12T10:00:49.157Z</time></trkpt><trkpt lat="43.5946005" lon="6.859863"><ele>285.0</ele><time>2026-04-12T10:00:51.158Z</time></trkpt><trkpt lat="43.5945444" lon="6.8599286"><ele>285.0</ele><time>2026-04-12T10:00:53.157Z</time></trkpt><trkpt lat="43.5944893" lon="6.8600138"><ele>285.0</ele><time>2026-04-12T10:00:55.158Z</time></trkpt><trkpt lat="43.5944248" lon="6.8600862"><ele>285.0</ele><time>2026-04-12T10:00:57.158Z</time></trkpt><trkpt lat="43.5943483" lon="6.8601757"><ele>285.8</ele><time>2026-04-12T10:00:59.158Z</time></trkpt><trkpt lat="43.5942648" lon="6.8602752"><ele>286.6</ele><time>2026-04-12T10:01:01.157Z</time></trkpt><trkpt lat="43.5942142" lon="6.8603813"><ele>287.4</ele><time>2026-04-12T10:01:03.157Z</time></trkpt><trkpt lat="43.5941618" lon="6.8604887"><ele>288.2</ele><time>2026-04-12T10:01:05.157Z</time></trkpt><trkpt lat="43.5941049" lon="6.8605777"><ele>289.0</ele><time>2026-04-12T10:01:07.158Z</time></trkpt><trkpt lat="43.5940244" lon="6.860634"><ele>289.0</ele><time>2026-04-12T10:01:09.158Z</time></trkpt><trkpt lat="43.5939286" lon="6.8607107"><ele>289.0</ele><time>2026-04-12T10:01:11.158Z</time></trkpt><trkpt lat="43.5938495" lon="6.8608059"><ele>289.0</ele><time>2026-04-12T10:01:13.158Z</time></trkpt><trkpt lat="43.5937627" lon="6.8608973"><ele>289.0</ele><time>2026-04-12T10:01:15.158Z</time></trkpt><trkpt lat="43.5937097" lon="6.8610167"><ele>289.0</ele><time>2026-04-12T10:01:17.158Z</time></trkpt><trkpt lat="43.5936727" lon="6.8611362"><ele>291.59999999999997</ele><time>2026-04-12T10:01:19.159Z</time></trkpt><trkpt lat="43.5936193" lon="6.8612546"><ele>294.2</ele><time>2026-04-12T10:01:21.158Z</time></trkpt><trkpt lat="43.5935367" lon="6.8613557"><ele>296.79999999999995</ele><time>2026-04-12T10:01:23.158Z</time></trkpt><trkpt lat="43.5934649" lon="6.8614647"><ele>299.4</ele><time>2026-04-12T10:01:25.158Z</time></trkpt><trkpt lat="43.5934052" lon="6.8615584"><ele>302.0</ele><time>2026-04-12T10:01:27.159Z</time></trkpt><trkpt lat="43.5933482" lon="6.8616027"><ele>302.0</ele><time>2026-04-12T10:01:28.158Z</time></trkpt><trkpt lat="43.5932816" lon="6.861677"><ele>302.0</ele><time>2026-04-12T10:01:30.158Z</time></trkpt><trkpt lat="43.5932124" lon="6.861747"><ele>302.0</ele><time>2026-04-12T10:01:32.158Z</time></trkpt><trkpt lat="43.5931323" lon="6.8618106"><ele>302.0</ele><time>2026-04-12T10:01:34.158Z</time></trkpt><trkpt lat="43.5930419" lon="6.8618683"><ele>302.0</ele><time>2026-04-12T10:01:36.158Z</time></trkpt><trkpt lat="43.5929563" lon="6.8619378"><ele>304.0</ele><time>2026-04-12T10:01:38.158Z</time></trkpt><trkpt lat="43.5928762" lon="6.8620132"><ele>306.0</ele><time>2026-04-12T10:01:40.158Z</time></trkpt><trkpt lat="43.5928093" lon="6.8620973"><ele>308.0</ele><time>2026-04-12T10:01:42.158Z</time></trkpt><trkpt lat="43.5927448" lon="6.862204"><ele>310.0</ele><time>2026-04-12T10:01:44.159Z</time></trkpt><trkpt lat="43.5926829" lon="6.8623127"><ele>312.0</ele><time>2026-04-12T10:01:46.159Z</time></trkpt><trkpt lat="43.59265" lon="6.8624081"><ele>312.0</ele><time>2026-04-12T10:01:48.159Z</time></trkpt><trkpt lat="43.5925491" lon="6.8624999"><ele>312.0</ele><time>2026-04-12T10:01:50.16Z</time></trkpt><trkpt lat="43.5924778" lon="6.8626055"><ele>312.0</ele><time>2026-04-12T10:01:52.158Z</time></trkpt><trkpt lat="43.5923978" lon="6.8627063"><ele>312.0</ele><time>2026-04-12T10:01:54.159Z</time></trkpt><trkpt lat="43.592328" lon="6.8628021"><ele>312.0</ele><time>2026-04-12T10:01:56.159Z</time></trkpt><trkpt lat="43.592248" lon="6.862904"><ele>311.5</ele><time>2026-04-12T10:01:58.159Z</time></trkpt><trkpt lat="43.5922082" lon="6.8630078"><ele>311.0</ele><time>2026-04-12T10:02:00.159Z</time></trkpt><trkpt lat="43.5921911" lon="6.8631314"><ele>310.5</ele><time>2026-04-12T10:02:02.159Z</time></trkpt><trkpt lat="43.5921802" lon="6.8632445"><ele>310.0</ele><time>2026-04-12T10:02:04.159Z</time></trkpt><trkpt lat="43.5921697" lon="6.8633539"><ele>309.5</ele><time>2026-04-12T10:02:06.159Z</time></trkpt><trkpt lat="43.5921629" lon="6.8634683"><ele>309.0</ele><time>2026-04-12T10:02:08.159Z</time></trkpt><trkpt lat="43.5921635" lon="6.8635674"><ele>309.00000000000006</ele><time>2026-04-12T10:02:10.159Z</time></trkpt><trkpt lat="43.5921713" lon="6.8636655"><ele>309.0</ele><time>2026-04-12T10:02:12.16Z</time></trkpt><trkpt lat="43.5921812" lon="6.8637681"><ele>309.0</ele><time>2026-04-12T10:02:14.159Z</time></trkpt><trkpt lat="43.5921855" lon="6.8638698"><ele>309.0</ele><time>2026-04-12T10:02:16.16Z</time></trkpt><trkpt lat="43.5921936" lon="6.8639677"><ele>309.0</ele><time>2026-04-12T10:02:18.16Z</time></trkpt><trkpt lat="43.5922021" lon="6.8640561"><ele>309.00000000000006</ele><time>2026-04-12T10:02:20.159Z</time></trkpt><trkpt lat="43.5922152" lon="6.8641813"><ele>309.0</ele><time>2026-04-12T10:02:23.159Z</time></trkpt><trkpt lat="43.5922267" lon="6.8642728"><ele>310.42857142857144</ele><time>2026-04-12T10:02:25.16Z</time></trkpt><trkpt lat="43.5922419" lon="6.8643674"><ele>311.8571428571429</ele><time>2026-04-12T10:02:27.16Z</time></trkpt><trkpt lat="43.5922612" lon="6.8644746"><ele>313.28571428571433</ele><time>2026-04-12T10:02:29.16Z</time></trkpt><trkpt lat="43.5922751" lon="6.8645707"><ele>314.7142857142857</ele><time>2026-04-12T10:02:31.159Z</time></trkpt><trkpt lat="43.5922791" lon="6.8646713"><ele>316.1428571428571</ele><time>2026-04-12T10:02:33.159Z</time></trkpt><trkpt lat="43.592293" lon="6.864781"><ele>317.5714285714286</ele><time>2026-04-12T10:02:35.16Z</time></trkpt><trkpt lat="43.5923182" lon="6.864872"><ele>319.0</ele><time>2026-04-12T10:02:37.16Z</time></trkpt><trkpt lat="43.5923165" lon="6.8649669"><ele>319.0</ele><time>2026-04-12T10:02:39.16Z</time></trkpt><trkpt lat="43.5923257" lon="6.8650533"><ele>319.0</ele><time>2026-04-12T10:02:41.16Z</time></trkpt><trkpt lat="43.5923457" lon="6.8651368"><ele>319.0</ele><time>2026-04-12T10:02:44.16Z</time></trkpt><trkpt lat="43.592373" lon="6.8652323"><ele>319.0</ele><time>2026-04-12T10:02:46.16Z</time></trkpt><trkpt lat="43.5924001" lon="6.8653394"><ele>319.0</ele><time>2026-04-12T10:02:48.161Z</time></trkpt><trkpt lat="43.5924447" lon="6.8654396"><ele>319.0</ele><time>2026-04-12T10:02:50.16Z</time></trkpt><trkpt lat="43.5925056" lon="6.8655066"><ele>319.0</ele><time>2026-04-12T10:02:52.16Z</time></trkpt><trkpt lat="43.592555" lon="6.865587"><ele>321.16666666666663</ele><time>2026-04-12T10:02:54.16Z</time></trkpt><trkpt lat="43.5925964" lon="6.8656647"><ele>323.3333333333333</ele><time>2026-04-12T10:02:56.16Z</time></trkpt><trkpt lat="43.5926463" lon="6.8657596"><ele>325.5</ele><time>2026-04-12T10:02:59.16Z</time></trkpt><trkpt lat="43.5926843" lon="6.8658776"><ele>327.6666666666667</ele><time>2026-04-12T10:03:02.161Z</time></trkpt><trkpt lat="43.592715" lon="6.8659556"><ele>329.83333333333337</ele><time>2026-04-12T10:03:04.16Z</time></trkpt><trkpt lat="43.5927623" lon="6.8660252"><ele>332.0</ele><time>2026-04-12T10:03:06.16Z</time></trkpt><trkpt lat="43.5928508" lon="6.8660858"><ele>333.0</ele><time>2026-04-12T10:03:09.16Z</time></trkpt><trkpt lat="43.5929095" lon="6.8661181"><ele>334.0</ele><time>2026-04-12T10:03:11.16Z</time></trkpt><trkpt lat="43.5929736" lon="6.8661468"><ele>335.0</ele><time>2026-04-12T10:03:13.161Z</time></trkpt><trkpt lat="43.5930391" lon="6.8661605"><ele>336.0</ele><time>2026-04-12T10:03:15.16Z</time></trkpt><trkpt lat="43.5931313" lon="6.8661799"><ele>337.0</ele><time>2026-04-12T10:03:18.16Z</time></trkpt><trkpt lat="43.5931918" lon="6.8662169"><ele>338.0</ele><time>2026-04-12T10:03:20.161Z</time></trkpt><trkpt lat="43.5932469" lon="6.866265"><ele>339.0</ele><time>2026-04-12T10:03:22.161Z</time></trkpt><trkpt lat="43.5933138" lon="6.8663451"><ele>339.0</ele><time>2026-04-12T10:03:25.16Z</time></trkpt><trkpt lat="43.5933723" lon="6.8664085"><ele>339.0</ele><time>2026-04-12T10:03:27.161Z</time></trkpt><trkpt lat="43.5934519" lon="6.8664885"><ele>339.0</ele><time>2026-04-12T10:03:29.161Z</time></trkpt><trkpt lat="43.5935226" lon="6.8665406"><ele>339.0</ele><time>2026-04-12T10:03:31.161Z</time></trkpt><trkpt lat="43.5935901" lon="6.8665821"><ele>339.0</ele><time>2026-04-12T10:03:33.161Z</time></trkpt><trkpt lat="43.5936568" lon="6.8666104"><ele>339.0</ele><time>2026-04-12T10:03:35.161Z</time></trkpt><trkpt lat="43.593725" lon="6.8666484"><ele>336.5</ele><time>2026-04-12T10:03:37.161Z</time></trkpt><trkpt lat="43.5937916" lon="6.8666941"><ele>334.0</ele><time>2026-04-12T10:03:39.162Z</time></trkpt><trkpt lat="43.5938544" lon="6.8667428"><ele>331.5</ele><time>2026-04-12T10:03:41.161Z</time></trkpt><trkpt lat="43.5939078" lon="6.8668124"><ele>329.0</ele><time>2026-04-12T10:03:43.161Z</time></trkpt><trkpt lat="43.5939321" lon="6.8669154"><ele>326.5</ele><time>2026-04-12T10:03:45.161Z</time></trkpt><trkpt lat="43.593946" lon="6.867039"><ele>324.0</ele><time>2026-04-12T10:03:47.161Z</time></trkpt><trkpt lat="43.5939308" lon="6.8671418"><ele>324.0</ele><time>2026-04-12T10:03:49.161Z</time></trkpt><trkpt lat="43.5938946" lon="6.8672176"><ele>324.0</ele><time>2026-04-12T10:03:51.161Z</time></trkpt><trkpt lat="43.5938301" lon="6.8672999"><ele>324.0</ele><time>2026-04-12T10:03:54.161Z</time></trkpt><trkpt lat="43.593752" lon="6.8673588"><ele>324.0</ele><time>2026-04-12T10:03:57.161Z</time></trkpt><trkpt lat="43.5937117" lon="6.8674365"><ele>324.0</ele><time>2026-04-12T10:04:00.161Z</time></trkpt><trkpt lat="43.5936752" lon="6.8675144"><ele>324.0</ele><time>2026-04-12T10:04:03.162Z</time></trkpt><trkpt lat="43.5936148" lon="6.8676074"><ele>329.3333333333333</ele><time>2026-04-12T10:04:06.162Z</time></trkpt><trkpt lat="43.5935613" lon="6.8676943"><ele>334.6666666666667</ele><time>2026-04-12T10:04:08.162Z</time></trkpt><trkpt lat="43.5935345" lon="6.867785"><ele>340.0</ele><time>2026-04-12T10:04:10.161Z</time></trkpt><trkpt lat="43.5935177" lon="6.8678769"><ele>345.33333333333337</ele><time>2026-04-12T10:04:12.162Z</time></trkpt><trkpt lat="43.5935093" lon="6.8679651"><ele>350.6666666666667</ele><time>2026-04-12T10:04:14.162Z</time></trkpt><trkpt lat="43.5934955" lon="6.8680625"><ele>356.0</ele><time>2026-04-12T10:04:16.162Z</time></trkpt><trkpt lat="43.5934835" lon="6.8681938"><ele>356.0</ele><time>2026-04-12T10:04:18.163Z</time></trkpt><trkpt lat="43.5934828" lon="6.8683343"><ele>356.0</ele><time>2026-04-12T10:04:20.163Z</time></trkpt><trkpt lat="43.5934849" lon="6.868458"><ele>356.0</ele><time>2026-04-12T10:04:22.162Z</time></trkpt><trkpt lat="43.5934819" lon="6.8685667"><ele>356.0</ele><time>2026-04-12T10:04:24.162Z</time></trkpt><trkpt lat="43.5934482" lon="6.868685"><ele>356.0</ele><time>2026-04-12T10:04:26.162Z</time></trkpt><trkpt lat="43.5934202" lon="6.8688005"><ele>356.83333333333337</ele><time>2026-04-12T10:04:28.162Z</time></trkpt><trkpt lat="43.5934208" lon="6.8689075"><ele>357.6666666666667</ele><time>2026-04-12T10:04:30.162Z</time></trkpt><trkpt lat="43.5934484" lon="6.8690263"><ele>358.5</ele><time>2026-04-12T10:04:32.162Z</time></trkpt><trkpt lat="43.5934939" lon="6.8691194"><ele>359.3333333333333</ele><time>2026-04-12T10:04:34.162Z</time></trkpt><trkpt lat="43.5935483" lon="6.8691891"><ele>360.16666666666663</ele><time>2026-04-12T10:04:36.162Z</time></trkpt><trkpt lat="43.5936096" lon="6.8692767"><ele>361.0</ele><time>2026-04-12T10:04:38.162Z</time></trkpt><trkpt lat="43.5936596" lon="6.8693497"><ele>355.16666666666663</ele><time>2026-04-12T10:04:40.162Z</time></trkpt><trkpt lat="43.5937032" lon="6.8694347"><ele>349.3333333333333</ele><time>2026-04-12T10:04:42.162Z</time></trkpt><trkpt lat="43.5937289" lon="6.8695395"><ele>343.5</ele><time>2026-04-12T10:04:44.163Z</time></trkpt><trkpt lat="43.5937471" lon="6.8696346"><ele>337.6666666666667</ele><time>2026-04-12T10:04:46.162Z</time></trkpt><trkpt lat="43.5937685" lon="6.8697316"><ele>331.83333333333337</ele><time>2026-04-12T10:04:48.162Z</time></trkpt><trkpt lat="43.5937808" lon="6.8698318"><ele>326.0</ele><time>2026-04-12T10:04:50.162Z</time></trkpt><trkpt lat="43.59378" lon="6.8699497"><ele>326.0</ele><time>2026-04-12T10:04:52.162Z</time></trkpt><trkpt lat="43.593752" lon="6.8700662"><ele>326.0</ele><time>2026-04-12T10:04:54.162Z</time></trkpt><trkpt lat="43.5936922" lon="6.8701456"><ele>326.0</ele><time>2026-04-12T10:04:56.162Z</time></trkpt><trkpt lat="43.5936266" lon="6.8702082"><ele>326.0</ele><time>2026-04-12T10:04:58.162Z</time></trkpt><trkpt lat="43.5935645" lon="6.8702527"><ele>326.0</ele><time>2026-04-12T10:05:00.163Z</time></trkpt><trkpt lat="43.5935041" lon="6.8702785"><ele>326.0</ele><time>2026-04-12T10:05:02.163Z</time></trkpt><trkpt lat="43.5934372" lon="6.8703066"><ele>329.6666666666667</ele><time>2026-04-12T10:05:04.163Z</time></trkpt><trkpt lat="43.5933648" lon="6.8703344"><ele>333.33333333333337</ele><time>2026-04-12T10:05:06.163Z</time></trkpt><trkpt lat="43.5932995" lon="6.8703751"><ele>337.0</ele><time>2026-04-12T10:05:08.163Z</time></trkpt><trkpt lat="43.5932207" lon="6.8704346"><ele>340.6666666666667</ele><time>2026-04-12T10:05:11.163Z</time></trkpt><trkpt lat="43.5931567" lon="6.8704961"><ele>344.3333333333333</ele><time>2026-04-12T10:05:13.163Z</time></trkpt><trkpt lat="43.5931014" lon="6.8705754"><ele>348.0</ele><time>2026-04-12T10:05:15.163Z</time></trkpt><trkpt lat="43.5930536" lon="6.8706741"><ele>348.0</ele><time>2026-04-12T10:05:17.164Z</time></trkpt><trkpt lat="43.593013" lon="6.8707823"><ele>348.0</ele><time>2026-04-12T10:05:19.163Z</time></trkpt><trkpt lat="43.5929861" lon="6.8709"><ele>348.0</ele><time>2026-04-12T10:05:21.163Z</time></trkpt><trkpt lat="43.5929682" lon="6.8709861"><ele>348.0</ele><time>2026-04-12T10:05:23.163Z</time></trkpt><trkpt lat="43.5929668" lon="6.8711193"><ele>348.0</ele><time>2026-04-12T10:05:25.163Z</time></trkpt><trkpt lat="43.5929626" lon="6.8712492"><ele>348.0</ele><time>2026-04-12T10:05:27.163Z</time></trkpt><trkpt lat="43.5929532" lon="6.8713957"><ele>346.4</ele><time>2026-04-12T10:05:29.163Z</time></trkpt><trkpt lat="43.5929442" lon="6.8715362"><ele>344.79999999999995</ele><time>2026-04-12T10:05:31.163Z</time></trkpt><trkpt lat="43.5929323" lon="6.8716595"><ele>343.2</ele><time>2026-04-12T10:05:33.163Z</time></trkpt><trkpt lat="43.5929201" lon="6.8717854"><ele>341.6</ele><time>2026-04-12T10:05:35.164Z</time></trkpt><trkpt lat="43.5929004" lon="6.871905"><ele>340.0</ele><time>2026-04-12T10:05:37.163Z</time></trkpt><trkpt lat="43.5928657" lon="6.872014"><ele>343.0</ele><time>2026-04-12T10:05:39.164Z</time></trkpt><trkpt lat="43.5928179" lon="6.8720994"><ele>346.0</ele><time>2026-04-12T10:05:41.163Z</time></trkpt><trkpt lat="43.5927529" lon="6.8721763"><ele>349.0</ele><time>2026-04-12T10:05:43.164Z</time></trkpt><trkpt lat="43.5926924" lon="6.8722372"><ele>352.0</ele><time>2026-04-12T10:05:45.164Z</time></trkpt><trkpt lat="43.5926179" lon="6.8723197"><ele>355.0</ele><time>2026-04-12T10:05:48.164Z</time></trkpt><trkpt lat="43.5925504" lon="6.8723588"><ele>358.0</ele><time>2026-04-12T10:05:50.164Z</time></trkpt><trkpt lat="43.5924834" lon="6.8724018"><ele>358.0</ele><time>2026-04-12T10:05:52.165Z</time></trkpt><trkpt lat="43.5924008" lon="6.8724403"><ele>358.0</ele><time>2026-04-12T10:05:54.164Z</time></trkpt><trkpt lat="43.5923269" lon="6.8724673"><ele>358.0</ele><time>2026-04-12T10:05:56.164Z</time></trkpt><trkpt lat="43.5922539" lon="6.8724913"><ele>358.0</ele><time>2026-04-12T10:05:58.165Z</time></trkpt><trkpt lat="43.5921825" lon="6.8725062"><ele>358.0</ele><time>2026-04-12T10:06:00.164Z</time></trkpt><trkpt lat="43.5921078" lon="6.8725169"><ele>358.0</ele><time>2026-04-12T10:06:02.164Z</time></trkpt><trkpt lat="43.5920114" lon="6.8725354"><ele>358.5</ele><time>2026-04-12T10:06:05.164Z</time></trkpt><trkpt lat="43.5919324" lon="6.8725555"><ele>359.0</ele><time>2026-04-12T10:06:07.164Z</time></trkpt><trkpt lat="43.59187" lon="6.8726054"><ele>359.5</ele><time>2026-04-12T10:06:09.164Z</time></trkpt><trkpt lat="43.5918033" lon="6.8726512"><ele>360.0</ele><time>2026-04-12T10:06:12.164Z</time></trkpt><trkpt lat="43.5917494" lon="6.8727339"><ele>360.5</ele><time>2026-04-12T10:06:15.164Z</time></trkpt><trkpt lat="43.5916886" lon="6.8727945"><ele>361.0</ele><time>2026-04-12T10:06:17.164Z</time></trkpt><trkpt lat="43.5916285" lon="6.8728598"><ele>361.0</ele><time>2026-04-12T10:06:19.165Z</time></trkpt><trkpt lat="43.5915824" lon="6.8729226"><ele>361.0</ele><time>2026-04-12T10:06:21.165Z</time></trkpt><trkpt lat="43.5915398" lon="6.8730056"><ele>361.0</ele><time>2026-04-12T10:06:23.164Z</time></trkpt><trkpt lat="43.5914947" lon="6.8730948"><ele>361.0</ele><time>2026-04-12T10:06:25.165Z</time></trkpt><trkpt lat="43.5914685" lon="6.8731795"><ele>361.0</ele><time>2026-04-12T10:06:27.164Z</time></trkpt><trkpt lat="43.5914317" lon="6.8732704"><ele>361.0</ele><time>2026-04-12T10:06:29.166Z</time></trkpt><trkpt lat="43.5914136" lon="6.8733704"><ele>361.0</ele><time>2026-04-12T10:06:31.165Z</time></trkpt><trkpt lat="43.5914046" lon="6.8734759"><ele>355.0</ele><time>2026-04-12T10:06:33.165Z</time></trkpt><trkpt lat="43.5913864" lon="6.8735895"><ele>355.0</ele><time>2026-04-12T10:06:36.165Z</time></trkpt></trkseg></trk></gpx>